<?xml version='1.0' encoding='UTF-8'?><gpx version="1.1" creator="JPX - https://github.com/jenetics/jpx" xmlns="http://www.topografix.com/GPX/1/1"><trk><trkseg><trkpt lat="42.52232596754759" lon="14.152388415071963"><ele>2.0</ele><time>2026-05-02T06:24:59.001Z</time></trkpt><trkpt lat="42.52226004572061" lon="14.1523723756058"><ele>1.9999999999999998</ele><time>2026-05-02T06:25:04.001Z</time></trkpt><trkpt lat="42.522208879792885" lon="14.152433035592669"><ele>2.0</ele><time>2026-05-02T06:25:06.001Z</time></trkpt><trkpt lat="42.52213579382682" lon="14.152488451017076"><ele>2.0</ele><time>2026-05-02T06:25:09.001Z</time></trkpt><trkpt lat="42.52210661548515" lon="14.15239698829855"><ele>1.9999999999999998</ele><time>2026-05-02T06:25:12.001Z</time></trkpt><trkpt lat="42.522075404533425" lon="14.15231456918029"><ele>2.0</ele><time>2026-05-02T06:25:14.001Z</time></trkpt><trkpt lat="42.522031281483024" lon="14.152235042464765"><ele>2.0</ele><time>2026-05-02T06:25:16.001Z</time></trkpt><trkpt lat="42.52200099242621" lon="14.152128268089706"><ele>1.6</ele><time>2026-05-02T06:25:18.001Z</time></trkpt><trkpt lat="42.52195700324867" lon="14.152030652581415"><ele>1.2000000000000002</ele><time>2026-05-02T06:25:20.001Z</time></trkpt><trkpt lat="42.52184212676572" lon="14.151944673569172"><ele>0.8</ele><time>2026-05-02T06:25:21.001Z</time></trkpt><trkpt lat="42.52182861412824" lon="14.152061559928606"><ele>0.4</ele><time>2026-05-02T06:25:23.001Z</time></trkpt><trkpt lat="42.52180086733674" lon="14.152138749447797"><ele>0.0</ele><time>2026-05-02T06:25:26.001Z</time></trkpt><trkpt lat="42.52182498669501" lon="14.15228573397663"><ele>-0.2</ele><time>2026-05-02T06:25:28.001Z</time></trkpt><trkpt lat="42.52188338468419" lon="14.152413605521525"><ele>-0.4</ele><time>2026-05-02T06:25:30Z</time></trkpt><trkpt lat="42.52193134076739" lon="14.152518612867341"><ele>-0.6000000000000001</ele><time>2026-05-02T06:25:32Z</time></trkpt><trkpt lat="42.5219707860067" lon="14.152604929662653"><ele>-0.8</ele><time>2026-05-02T06:25:34Z</time></trkpt><trkpt lat="42.52200644575034" lon="14.152681467392751"><ele>-1.0</ele><time>2026-05-02T06:25:40Z</time></trkpt><trkpt lat="42.52207483287887" lon="14.15282824901592"><ele>-0.49999999999999994</ele><time>2026-05-02T06:25:42Z</time></trkpt><trkpt lat="42.522130629245126" lon="14.152913047726388"><ele>0.0</ele><time>2026-05-02T06:25:43Z</time></trkpt><trkpt lat="42.5221734131799" lon="14.153008327659705"><ele>0.5</ele><time>2026-05-02T06:25:44Z</time></trkpt><trkpt lat="42.52221100555308" lon="14.15310145335643"><ele>1.0</ele><time>2026-05-02T06:25:45Z</time></trkpt><trkpt lat="42.522234376479005" lon="14.153186640166346"><ele>1.4999999999999998</ele><time>2026-05-02T06:25:46Z</time></trkpt><trkpt lat="42.52229325888509" lon="14.153225821983764"><ele>2.0</ele><time>2026-05-02T06:25:48Z</time></trkpt><trkpt lat="42.52221809863695" lon="14.15331376054268"><ele>2.0</ele><time>2026-05-02T06:25:50Z</time></trkpt><trkpt lat="42.52211984400764" lon="14.153416583293454"><ele>2.0</ele><time>2026-05-02T06:25:52Z</time></trkpt><trkpt lat="42.52203994067496" lon="14.153527230563766"><ele>2.0</ele><time>2026-05-02T06:25:54Z</time></trkpt><trkpt lat="42.52196915058231" lon="14.153595369708867"><ele>2.0</ele><time>2026-05-02T06:25:56Z</time></trkpt><trkpt lat="42.52187270192361" lon="14.153592405478314"><ele>2.0</ele><time>2026-05-02T06:25:58Z</time></trkpt><trkpt lat="42.52181420090491" lon="14.153483476029079"><ele>1.6</ele><time>2026-05-02T06:26:00Z</time></trkpt><trkpt lat="42.52178278058885" lon="14.153393977435837"><ele>1.2000000000000002</ele><time>2026-05-02T06:26:01Z</time></trkpt><trkpt lat="42.52174535966611" lon="14.153294073125567"><ele>0.8</ele><time>2026-05-02T06:26:02Z</time></trkpt><trkpt lat="42.521707132172544" lon="14.153182404945955"><ele>0.4</ele><time>2026-05-02T06:26:03Z</time></trkpt><trkpt lat="42.521667088382195" lon="14.153057959132402"><ele>0.0</ele><time>2026-05-02T06:26:04Z</time></trkpt><trkpt lat="42.52162373509568" lon="14.152930321647927"><ele>0.0</ele><time>2026-05-02T06:26:05Z</time></trkpt><trkpt lat="42.521579658454094" lon="14.152797232511512"><ele>0.0</ele><time>2026-05-02T06:26:06Z</time></trkpt><trkpt lat="42.521534566502886" lon="14.152660024283719"><ele>0.0</ele><time>2026-05-02T06:26:07Z</time></trkpt><trkpt lat="42.521486762049165" lon="14.152522704888337"><ele>0.0</ele><time>2026-05-02T06:26:08Z</time></trkpt><trkpt lat="42.52144013601177" lon="14.152385420003371"><ele>0.0</ele><time>2026-05-02T06:26:09Z</time></trkpt><trkpt lat="42.521392894805594" lon="14.152251179279725"><ele>0.0</ele><time>2026-05-02T06:26:10Z</time></trkpt><trkpt lat="42.52134860198637" lon="14.152112121002206"><ele>0.0</ele><time>2026-05-02T06:26:11Z</time></trkpt><trkpt lat="42.52130021710301" lon="14.151969104980466"><ele>0.0</ele><time>2026-05-02T06:26:12Z</time></trkpt><trkpt lat="42.521253688420984" lon="14.151828073847156"><ele>0.0</ele><time>2026-05-02T06:26:13Z</time></trkpt><trkpt lat="42.52120682429016" lon="14.151685090844452"><ele>0.5</ele><time>2026-05-02T06:26:14Z</time></trkpt><trkpt lat="42.52115644059431" lon="14.15154078175817"><ele>1.0</ele><time>2026-05-02T06:26:15Z</time></trkpt><trkpt lat="42.521109970810585" lon="14.151401573680781"><ele>1.5</ele><time>2026-05-02T06:26:16Z</time></trkpt><trkpt lat="42.52106594161251" lon="14.151258829882115"><ele>2.0</ele><time>2026-05-02T06:26:17Z</time></trkpt><trkpt lat="42.52101034679404" lon="14.151116735736283"><ele>2.0</ele><time>2026-05-02T06:26:18Z</time></trkpt><trkpt lat="42.52095805200951" lon="14.150977683274208"><ele>2.0</ele><time>2026-05-02T06:26:19Z</time></trkpt><trkpt lat="42.52091671141399" lon="14.15083714039931"><ele>2.0</ele><time>2026-05-02T06:26:20Z</time></trkpt><trkpt lat="42.52086413777226" lon="14.150699294809572"><ele>2.0</ele><time>2026-05-02T06:26:21Z</time></trkpt><trkpt lat="42.52081521778166" lon="14.150557391088363"><ele>2.0</ele><time>2026-05-02T06:26:22Z</time></trkpt><trkpt lat="42.520768946091046" lon="14.150418724380733"><ele>2.0</ele><time>2026-05-02T06:26:23Z</time></trkpt><trkpt lat="42.52072434817929" lon="14.150279622951258"><ele>2.0</ele><time>2026-05-02T06:26:24Z</time></trkpt><trkpt lat="42.52067282153531" lon="14.150143027451843"><ele>2.0</ele><time>2026-05-02T06:26:25Z</time></trkpt><trkpt lat="42.52062300998788" lon="14.150008265106967"><ele>2.0</ele><time>2026-05-02T06:26:26Z</time></trkpt><trkpt lat="42.520575001716125" lon="14.149871832203099"><ele>2.0</ele><time>2026-05-02T06:26:27Z</time></trkpt><trkpt lat="42.52053546890778" lon="14.149717935066482"><ele>2.0</ele><time>2026-05-02T06:26:28Z</time></trkpt><trkpt lat="42.52048669290877" lon="14.14957589303602"><ele>2.0</ele><time>2026-05-02T06:26:29Z</time></trkpt><trkpt lat="42.520440108836276" lon="14.149437231035787"><ele>2.0</ele><time>2026-05-02T06:26:30Z</time></trkpt><trkpt lat="42.520392670775955" lon="14.149298292314718"><ele>2.0</ele><time>2026-05-02T06:26:31Z</time></trkpt><trkpt lat="42.52034529397976" lon="14.149159352001968"><ele>2.0</ele><time>2026-05-02T06:26:32Z</time></trkpt><trkpt lat="42.520297601718845" lon="14.149019270139853"><ele>2.0</ele><time>2026-05-02T06:26:33Z</time></trkpt><trkpt lat="42.52024996152585" lon="14.148879341207937"><ele>2.0</ele><time>2026-05-02T06:26:34Z</time></trkpt><trkpt lat="42.520201558830806" lon="14.148737172709275"><ele>2.0</ele><time>2026-05-02T06:26:35Z</time></trkpt><trkpt lat="42.52015175065198" lon="14.148595537460581"><ele>2.0</ele><time>2026-05-02T06:26:36Z</time></trkpt><trkpt lat="42.52010346239236" lon="14.148456977687122"><ele>2.0</ele><time>2026-05-02T06:26:37Z</time></trkpt><trkpt lat="42.52005239840265" lon="14.148319432140456"><ele>2.0</ele><time>2026-05-02T06:26:38Z</time></trkpt><trkpt lat="42.519997585617396" lon="14.148180445425671"><ele>1.6</ele><time>2026-05-02T06:26:39Z</time></trkpt><trkpt lat="42.519931866554465" lon="14.148044083828351"><ele>1.2000000000000002</ele><time>2026-05-02T06:26:40Z</time></trkpt><trkpt lat="42.51985064441345" lon="14.147928067738706"><ele>0.8</ele><time>2026-05-02T06:26:41Z</time></trkpt><trkpt lat="42.519791635655906" lon="14.147818237196176"><ele>0.4</ele><time>2026-05-02T06:26:42Z</time></trkpt><trkpt lat="42.519739743035714" lon="14.147724794019144"><ele>0.0</ele><time>2026-05-02T06:26:43Z</time></trkpt><trkpt lat="42.519680130333875" lon="14.147637711931708"><ele>0.0</ele><time>2026-05-02T06:26:44Z</time></trkpt><trkpt lat="42.51963050945055" lon="14.147538880138882"><ele>0.0</ele><time>2026-05-02T06:26:45Z</time></trkpt><trkpt lat="42.519568600207435" lon="14.147445112880256"><ele>0.0</ele><time>2026-05-02T06:26:46Z</time></trkpt><trkpt lat="42.5195278322504" lon="14.147347925610083"><ele>0.0</ele><time>2026-05-02T06:26:47Z</time></trkpt><trkpt lat="42.5195089339593" lon="14.147235187030018"><ele>0.0</ele><time>2026-05-02T06:26:48Z</time></trkpt><trkpt lat="42.5194918347227" lon="14.147118435852551"><ele>0.0</ele><time>2026-05-02T06:26:49Z</time></trkpt><trkpt lat="42.51948612859856" lon="14.147011654050907"><ele>0.5</ele><time>2026-05-02T06:26:50Z</time></trkpt><trkpt lat="42.519489605715656" lon="14.146905839788234"><ele>1.0</ele><time>2026-05-02T06:26:51Z</time></trkpt><trkpt lat="42.519477860335144" lon="14.146791040289534"><ele>1.5</ele><time>2026-05-02T06:26:52Z</time></trkpt><trkpt lat="42.519487578608235" lon="14.146671647180456"><ele>2.0</ele><time>2026-05-02T06:26:53Z</time></trkpt><trkpt lat="42.519504812066195" lon="14.146556382102062"><ele>2.5</ele><time>2026-05-02T06:26:54Z</time></trkpt><trkpt lat="42.51952865513743" lon="14.146449425818847"><ele>3.0</ele><time>2026-05-02T06:26:55Z</time></trkpt><trkpt lat="42.51955925847208" lon="14.146350224826639"><ele>3.0</ele><time>2026-05-02T06:26:56Z</time></trkpt><trkpt lat="42.5195864124391" lon="14.146262364124349"><ele>3.0</ele><time>2026-05-02T06:26:57Z</time></trkpt><trkpt lat="42.51964189387903" lon="14.146181841534203"><ele>3.0</ele><time>2026-05-02T06:26:59Z</time></trkpt><trkpt lat="42.5195990243161" lon="14.146112409600088"><ele>3.0</ele><time>2026-05-02T06:27:04Z</time></trkpt><trkpt lat="42.51967669202913" lon="14.14600131000365"><ele>3.0</ele><time>2026-05-02T06:27:06Z</time></trkpt><trkpt lat="42.51970246197924" lon="14.145898704266173"><ele>3.0</ele><time>2026-05-02T06:27:08Z</time></trkpt><trkpt lat="42.51972743169723" lon="14.145733244886"><ele>3.0</ele><time>2026-05-02T06:27:34Z</time></trkpt><trkpt lat="42.51960955591388" lon="14.14583562398134"><ele>3.0</ele><time>2026-05-02T06:27:35Z</time></trkpt><trkpt lat="42.51948071265228" lon="14.145781535724987"><ele>3.0</ele><time>2026-05-02T06:27:37Z</time></trkpt><trkpt lat="42.519401722841366" lon="14.145741983546776"><ele>3.0</ele><time>2026-05-02T06:27:38Z</time></trkpt><trkpt lat="42.519329731440415" lon="14.14568456719049"><ele>3.0</ele><time>2026-05-02T06:27:39Z</time></trkpt><trkpt lat="42.51925051477485" lon="14.145633266805374"><ele>3.0</ele><time>2026-05-02T06:27:40Z</time></trkpt><trkpt lat="42.519176043743556" lon="14.145576437048108"><ele>3.0</ele><time>2026-05-02T06:27:41Z</time></trkpt><trkpt lat="42.519099014100874" lon="14.145517177474614"><ele>3.0</ele><time>2026-05-02T06:27:42Z</time></trkpt><trkpt lat="42.51901404494021" lon="14.145452408981827"><ele>3.0</ele><time>2026-05-02T06:27:43Z</time></trkpt><trkpt lat="42.51892049377226" lon="14.145381215099382"><ele>3.0</ele><time>2026-05-02T06:27:44Z</time></trkpt><trkpt lat="42.51881633709781" lon="14.145309631990834"><ele>3.0</ele><time>2026-05-02T06:27:45Z</time></trkpt><trkpt lat="42.518699538947644" lon="14.145228578582936"><ele>3.0</ele><time>2026-05-02T06:27:46Z</time></trkpt><trkpt lat="42.518578279708194" lon="14.145144898037886"><ele>3.0</ele><time>2026-05-02T06:27:47Z</time></trkpt><trkpt lat="42.51845932332681" lon="14.1450631565535"><ele>3.0</ele><time>2026-05-02T06:27:48Z</time></trkpt><trkpt lat="42.51834257438569" lon="14.144976532706433"><ele>3.0</ele><time>2026-05-02T06:27:49Z</time></trkpt><trkpt lat="42.51822259259295" lon="14.144893113568548"><ele>3.0</ele><time>2026-05-02T06:27:50Z</time></trkpt><trkpt lat="42.518104029883276" lon="14.144805483313645"><ele>3.0</ele><time>2026-05-02T06:27:51Z</time></trkpt><trkpt lat="42.51798228641763" lon="14.144724319637067"><ele>3.0</ele><time>2026-05-02T06:27:52Z</time></trkpt><trkpt lat="42.51786207677912" lon="14.144642313834538"><ele>3.0</ele><time>2026-05-02T06:27:53Z</time></trkpt><trkpt lat="42.517740324989774" lon="14.144557918565923"><ele>3.0</ele><time>2026-05-02T06:27:54Z</time></trkpt><trkpt lat="42.51761751377831" lon="14.144471768367794"><ele>3.0</ele><time>2026-05-02T06:27:55Z</time></trkpt><trkpt lat="42.517498961997106" lon="14.144387095264145"><ele>3.0</ele><time>2026-05-02T06:27:56Z</time></trkpt><trkpt lat="42.517382732909674" lon="14.144305352964667"><ele>3.0</ele><time>2026-05-02T06:27:57Z</time></trkpt><trkpt lat="42.5172687151915" lon="14.144227232756714"><ele>3.0</ele><time>2026-05-02T06:27:58Z</time></trkpt><trkpt lat="42.517159268549236" lon="14.144147579818858"><ele>3.0</ele><time>2026-05-02T06:27:59Z</time></trkpt><trkpt lat="42.51705652249379" lon="14.144075184685672"><ele>3.0</ele><time>2026-05-02T06:28:00Z</time></trkpt><trkpt lat="42.516961092993235" lon="14.1440070148355"><ele>3.5999999999999996</ele><time>2026-05-02T06:28:01Z</time></trkpt><trkpt lat="42.516869196588395" lon="14.143938269056115"><ele>4.199999999999999</ele><time>2026-05-02T06:28:02Z</time></trkpt><trkpt lat="42.516776508468475" lon="14.14387332342329"><ele>4.8</ele><time>2026-05-02T06:28:03Z</time></trkpt><trkpt lat="42.516684457529735" lon="14.14380744521765"><ele>5.3999999999999995</ele><time>2026-05-02T06:28:04Z</time></trkpt><trkpt lat="42.516594632282505" lon="14.143741668453014"><ele>6.0</ele><time>2026-05-02T06:28:05Z</time></trkpt><trkpt lat="42.516508190654235" lon="14.143681304951775"><ele>6.0</ele><time>2026-05-02T06:28:06Z</time></trkpt><trkpt lat="42.51643062994186" lon="14.143626863883611"><ele>6.0</ele><time>2026-05-02T06:28:07Z</time></trkpt><trkpt lat="42.51636391718017" lon="14.143566438899882"><ele>6.0</ele><time>2026-05-02T06:28:08Z</time></trkpt><trkpt lat="42.51628505691314" lon="14.143509470646658"><ele>6.0</ele><time>2026-05-02T06:28:09Z</time></trkpt><trkpt lat="42.51618773059364" lon="14.143439448356181"><ele>6.0</ele><time>2026-05-02T06:28:10Z</time></trkpt><trkpt lat="42.516089651229855" lon="14.143368957208763"><ele>5.666666666666667</ele><time>2026-05-02T06:28:11Z</time></trkpt><trkpt lat="42.516004790845216" lon="14.143308006299321"><ele>5.333333333333333</ele><time>2026-05-02T06:28:12Z</time></trkpt><trkpt lat="42.51593365610203" lon="14.143255702687886"><ele>5.0</ele><time>2026-05-02T06:28:13Z</time></trkpt><trkpt lat="42.51587064686621" lon="14.14320999099143"><ele>4.666666666666666</ele><time>2026-05-02T06:28:14Z</time></trkpt><trkpt lat="42.51581176042797" lon="14.143167291085556"><ele>4.333333333333333</ele><time>2026-05-02T06:28:15Z</time></trkpt><trkpt lat="42.51574950046598" lon="14.143122239396408"><ele>4.0</ele><time>2026-05-02T06:28:16Z</time></trkpt><trkpt lat="42.51567349944431" lon="14.143068033459873"><ele>3.8000000000000003</ele><time>2026-05-02T06:28:17Z</time></trkpt><trkpt lat="42.51558707612616" lon="14.143006394072449"><ele>3.6000000000000005</ele><time>2026-05-02T06:28:18Z</time></trkpt><trkpt lat="42.51549464212335" lon="14.142938914620458"><ele>3.4</ele><time>2026-05-02T06:28:19Z</time></trkpt><trkpt lat="42.51539112415243" lon="14.142863292700783"><ele>3.2</ele><time>2026-05-02T06:28:20Z</time></trkpt><trkpt lat="42.51528286765632" lon="14.142783702378699"><ele>3.0</ele><time>2026-05-02T06:28:21Z</time></trkpt><trkpt lat="42.515182399746045" lon="14.142709696521713"><ele>2.8</ele><time>2026-05-02T06:28:22Z</time></trkpt><trkpt lat="42.515083364432584" lon="14.142636745930922"><ele>2.5999999999999996</ele><time>2026-05-02T06:28:23Z</time></trkpt><trkpt lat="42.51498956358494" lon="14.142568809888772"><ele>2.4000000000000004</ele><time>2026-05-02T06:28:24Z</time></trkpt><trkpt lat="42.514895110858035" lon="14.142498698776636"><ele>2.2</ele><time>2026-05-02T06:28:25Z</time></trkpt><trkpt lat="42.51480285239021" lon="14.142430212972775"><ele>2.0</ele><time>2026-05-02T06:28:26Z</time></trkpt><trkpt lat="42.51471475850143" lon="14.142362616110166"><ele>1.8</ele><time>2026-05-02T06:28:27Z</time></trkpt><trkpt lat="42.51461799570872" lon="14.142302523003817"><ele>1.6</ele><time>2026-05-02T06:28:28Z</time></trkpt><trkpt lat="42.51451619015286" lon="14.142261047270782"><ele>1.4000000000000001</ele><time>2026-05-02T06:28:29Z</time></trkpt><trkpt lat="42.51443140625681" lon="14.142184942028459"><ele>1.2000000000000002</ele><time>2026-05-02T06:28:30Z</time></trkpt><trkpt lat="42.51433946141766" lon="14.14211145904094"><ele>1.0</ele><time>2026-05-02T06:28:31Z</time></trkpt><trkpt lat="42.51423892866448" lon="14.14202973580303"><ele>1.4</ele><time>2026-05-02T06:28:32Z</time></trkpt><trkpt lat="42.51413940443874" lon="14.141987439781914"><ele>1.8</ele><time>2026-05-02T06:28:33Z</time></trkpt><trkpt lat="42.514062296583916" lon="14.141896044510554"><ele>2.1999999999999997</ele><time>2026-05-02T06:28:34Z</time></trkpt><trkpt lat="42.51397645369333" lon="14.141833836855195"><ele>2.6</ele><time>2026-05-02T06:28:35Z</time></trkpt><trkpt lat="42.51389346124743" lon="14.141773694726915"><ele>3.0</ele><time>2026-05-02T06:28:36Z</time></trkpt><trkpt lat="42.51381329502221" lon="14.141721172883797"><ele>3.5999999999999996</ele><time>2026-05-02T06:28:37Z</time></trkpt><trkpt lat="42.513726889991204" lon="14.14167273996495"><ele>4.199999999999999</ele><time>2026-05-02T06:28:38Z</time></trkpt><trkpt lat="42.51364507487655" lon="14.141602622979166"><ele>4.8</ele><time>2026-05-02T06:28:39Z</time></trkpt><trkpt lat="42.51355700103247" lon="14.141539377343529"><ele>5.3999999999999995</ele><time>2026-05-02T06:28:40Z</time></trkpt><trkpt lat="42.51346633396104" lon="14.14147006232182"><ele>6.0</ele><time>2026-05-02T06:28:41Z</time></trkpt><trkpt lat="42.51337222726092" lon="14.141400953028842"><ele>6.0</ele><time>2026-05-02T06:28:42Z</time></trkpt><trkpt lat="42.513280621309114" lon="14.141335351088367"><ele>6.0</ele><time>2026-05-02T06:28:43Z</time></trkpt><trkpt lat="42.51318406230743" lon="14.141307083932764"><ele>6.0</ele><time>2026-05-02T06:28:44Z</time></trkpt><trkpt lat="42.513094750760835" lon="14.141269833241493"><ele>6.0</ele><time>2026-05-02T06:28:45Z</time></trkpt><trkpt lat="42.51301820332012" lon="14.141111367888954"><ele>6.0</ele><time>2026-05-02T06:28:46Z</time></trkpt><trkpt lat="42.5129747506597" lon="14.140980180479174"><ele>6.0</ele><time>2026-05-02T06:28:47Z</time></trkpt><trkpt lat="42.51290494190557" lon="14.140873860223893"><ele>6.0</ele><time>2026-05-02T06:28:48Z</time></trkpt><trkpt lat="42.512847831533904" lon="14.140759023848702"><ele>6.0</ele><time>2026-05-02T06:28:49Z</time></trkpt><trkpt lat="42.5128135753385" lon="14.140583566608974"><ele>6.0</ele><time>2026-05-02T06:28:50Z</time></trkpt><trkpt lat="42.5128453683423" lon="14.140453018950044"><ele>6.0</ele><time>2026-05-02T06:28:51Z</time></trkpt><trkpt lat="42.51284629636134" lon="14.14030905934034"><ele>6.0</ele><time>2026-05-02T06:28:52Z</time></trkpt><trkpt lat="42.512878761662975" lon="14.14016777147893"><ele>6.0</ele><time>2026-05-02T06:28:53Z</time></trkpt><trkpt lat="42.51292673455443" lon="14.140023428348142"><ele>6.0</ele><time>2026-05-02T06:28:54Z</time></trkpt><trkpt lat="42.51297921321431" lon="14.139868657139028"><ele>6.0</ele><time>2026-05-02T06:28:55Z</time></trkpt><trkpt lat="42.51303611252693" lon="14.139702285504669"><ele>6.25</ele><time>2026-05-02T06:28:56Z</time></trkpt><trkpt lat="42.51309726233846" lon="14.139534689302211"><ele>6.5</ele><time>2026-05-02T06:28:57Z</time></trkpt><trkpt lat="42.51315889068076" lon="14.139376820877015"><ele>6.75</ele><time>2026-05-02T06:28:58Z</time></trkpt><trkpt lat="42.51321611551391" lon="14.139230740520887"><ele>7.0</ele><time>2026-05-02T06:28:59Z</time></trkpt><trkpt lat="42.51326822548467" lon="14.139092593781871"><ele>6.5</ele><time>2026-05-02T06:29:00Z</time></trkpt><trkpt lat="42.51332005031184" lon="14.13895591077572"><ele>6.0</ele><time>2026-05-02T06:29:01Z</time></trkpt><trkpt lat="42.5133790238575" lon="14.138828217041308"><ele>5.5</ele><time>2026-05-02T06:29:02Z</time></trkpt><trkpt lat="42.5134287643959" lon="14.138700419115048"><ele>5.0</ele><time>2026-05-02T06:29:03Z</time></trkpt><trkpt lat="42.513488582145" lon="14.138546729903009"><ele>5.0</ele><time>2026-05-02T06:29:04Z</time></trkpt><trkpt lat="42.51350593846777" lon="14.138316761632963"><ele>5.0</ele><time>2026-05-02T06:29:05Z</time></trkpt><trkpt lat="42.51357795416211" lon="14.138119382880657"><ele>5.0</ele><time>2026-05-02T06:29:06Z</time></trkpt><trkpt lat="42.51363969798815" lon="14.13794831285075"><ele>5.2</ele><time>2026-05-02T06:29:07Z</time></trkpt><trkpt lat="42.51369385253356" lon="14.137812201748456"><ele>5.4</ele><time>2026-05-02T06:29:08Z</time></trkpt><trkpt lat="42.51375277806263" lon="14.137710168635007"><ele>5.6</ele><time>2026-05-02T06:29:09Z</time></trkpt><trkpt lat="42.513834771721" lon="14.137650339513584"><ele>5.8</ele><time>2026-05-02T06:29:10Z</time></trkpt><trkpt lat="42.513864557432825" lon="14.137568239637691"><ele>6.0</ele><time>2026-05-02T06:29:11Z</time></trkpt><trkpt lat="42.51393856029916" lon="14.137518934723209"><ele>5.6</ele><time>2026-05-02T06:29:12Z</time></trkpt><trkpt lat="42.51382883578624" lon="14.137356923436396"><ele>5.199999999999999</ele><time>2026-05-02T06:29:13Z</time></trkpt><trkpt lat="42.51376542931916" lon="14.137310603655864"><ele>4.800000000000001</ele><time>2026-05-02T06:29:14Z</time></trkpt><trkpt lat="42.51369852600491" lon="14.137263929435566"><ele>4.4</ele><time>2026-05-02T06:29:15Z</time></trkpt><trkpt lat="42.51364778971645" lon="14.137148798235348"><ele>4.0</ele><time>2026-05-02T06:29:16Z</time></trkpt><trkpt lat="42.513595100781764" lon="14.137018667024208"><ele>4.0</ele><time>2026-05-02T06:29:17Z</time></trkpt><trkpt lat="42.51354638271824" lon="14.136874739946318"><ele>4.0</ele><time>2026-05-02T06:29:18Z</time></trkpt><trkpt lat="42.51350188592863" lon="14.13672587308143"><ele>4.0</ele><time>2026-05-02T06:29:19Z</time></trkpt><trkpt lat="42.51346239728874" lon="14.136571680952645"><ele>4.0</ele><time>2026-05-02T06:29:20Z</time></trkpt><trkpt lat="42.51342872640734" lon="14.136412870872654"><ele>3.75</ele><time>2026-05-02T06:29:21Z</time></trkpt><trkpt lat="42.513396415577056" lon="14.136245452330813"><ele>3.5</ele><time>2026-05-02T06:29:22.006Z</time></trkpt><trkpt lat="42.513356613736704" lon="14.136073354283663"><ele>3.25</ele><time>2026-05-02T06:29:23.006Z</time></trkpt><trkpt lat="42.51330939017468" lon="14.135906395930581"><ele>3.0</ele><time>2026-05-02T06:29:24.006Z</time></trkpt><trkpt lat="42.51324249121167" lon="14.13574877871478"><ele>3.0</ele><time>2026-05-02T06:29:25.006Z</time></trkpt><trkpt lat="42.51317016471401" lon="14.135590443239963"><ele>3.0</ele><time>2026-05-02T06:29:26.005Z</time></trkpt><trkpt lat="42.51309236812074" lon="14.135430754591297"><ele>3.0</ele><time>2026-05-02T06:29:27.005Z</time></trkpt><trkpt lat="42.51299152191562" lon="14.135288821316713"><ele>3.0</ele><time>2026-05-02T06:29:28.005Z</time></trkpt><trkpt lat="42.51287225882308" lon="14.135163678256433"><ele>3.0</ele><time>2026-05-02T06:29:29.004Z</time></trkpt><trkpt lat="42.51274121737603" lon="14.135046452988904"><ele>3.0</ele><time>2026-05-02T06:29:30.004Z</time></trkpt><trkpt lat="42.51260046174406" lon="14.13494168574203"><ele>3.0</ele><time>2026-05-02T06:29:31.004Z</time></trkpt><trkpt lat="42.51245066376747" lon="14.134844998318753"><ele>2.3333333333333335</ele><time>2026-05-02T06:29:32.004Z</time></trkpt><trkpt lat="42.51229663623777" lon="14.134751837357644"><ele>1.6666666666666665</ele><time>2026-05-02T06:29:33.003Z</time></trkpt><trkpt lat="42.512148286633305" lon="14.134612337608775"><ele>1.0</ele><time>2026-05-02T06:29:34.003Z</time></trkpt><trkpt lat="42.51199103320771" lon="14.134515122328681"><ele>2.3333333333333335</ele><time>2026-05-02T06:29:35.003Z</time></trkpt><trkpt lat="42.51184656063008" lon="14.134412536545012"><ele>3.666666666666667</ele><time>2026-05-02T06:29:36.003Z</time></trkpt><trkpt lat="42.51171506585875" lon="14.134286042654885"><ele>5.0</ele><time>2026-05-02T06:29:37.002Z</time></trkpt><trkpt lat="42.51162813833894" lon="14.134115868109273"><ele>5.0</ele><time>2026-05-02T06:29:38.002Z</time></trkpt><trkpt lat="42.511547728947725" lon="14.133936549378262"><ele>5.0</ele><time>2026-05-02T06:29:39.002Z</time></trkpt><trkpt lat="42.51148509539178" lon="14.133772293646915"><ele>5.0</ele><time>2026-05-02T06:29:40.002Z</time></trkpt><trkpt lat="42.511406140601196" lon="14.133612193573395"><ele>5.0</ele><time>2026-05-02T06:29:41.002Z</time></trkpt><trkpt lat="42.51131339923135" lon="14.13346545377764"><ele>5.25</ele><time>2026-05-02T06:29:42.002Z</time></trkpt><trkpt lat="42.5112163772727" lon="14.133314062913843"><ele>5.5</ele><time>2026-05-02T06:29:43.002Z</time></trkpt><trkpt lat="42.51112766812943" lon="14.13314822313047"><ele>5.75</ele><time>2026-05-02T06:29:44.002Z</time></trkpt><trkpt lat="42.51103565653219" lon="14.13300637273421"><ele>6.0</ele><time>2026-05-02T06:29:45.001Z</time></trkpt><trkpt lat="42.51093611968951" lon="14.132838146196644"><ele>6.0</ele><time>2026-05-02T06:29:46.001Z</time></trkpt><trkpt lat="42.510843483275465" lon="14.132650438666749"><ele>6.0</ele><time>2026-05-02T06:29:47.001Z</time></trkpt><trkpt lat="42.510748309350134" lon="14.132485012703544"><ele>6.0</ele><time>2026-05-02T06:29:48.001Z</time></trkpt><trkpt lat="42.51066079392522" lon="14.13230448380772"><ele>6.0</ele><time>2026-05-02T06:29:49.001Z</time></trkpt><trkpt lat="42.51057943663341" lon="14.132137534054042"><ele>6.0</ele><time>2026-05-02T06:29:50.001Z</time></trkpt><trkpt lat="42.510503419711014" lon="14.131975481862458"><ele>6.0</ele><time>2026-05-02T06:29:51.001Z</time></trkpt><trkpt lat="42.51040419710103" lon="14.131818118796597"><ele>6.0</ele><time>2026-05-02T06:29:52.001Z</time></trkpt><trkpt lat="42.51031693703885" lon="14.131649687741238"><ele>5.666666666666667</ele><time>2026-05-02T06:29:53.001Z</time></trkpt><trkpt lat="42.510238941579495" lon="14.131451287819488"><ele>5.333333333333334</ele><time>2026-05-02T06:29:54.001Z</time></trkpt><trkpt lat="42.510131101599484" lon="14.131249269941891"><ele>5.0</ele><time>2026-05-02T06:29:55.001Z</time></trkpt><trkpt lat="42.509997279103146" lon="14.131024797812186"><ele>5.0</ele><time>2026-05-02T06:29:56.001Z</time></trkpt><trkpt lat="42.50985691477366" lon="14.130809572367811"><ele>5.0</ele><time>2026-05-02T06:29:57Z</time></trkpt><trkpt lat="42.50972831492835" lon="14.130616586134705"><ele>5.0</ele><time>2026-05-02T06:29:58Z</time></trkpt><trkpt lat="42.5095821300453" lon="14.130446893764741"><ele>5.5</ele><time>2026-05-02T06:29:59Z</time></trkpt><trkpt lat="42.50945735808236" lon="14.130298265969222"><ele>6.0</ele><time>2026-05-02T06:30:00Z</time></trkpt><trkpt lat="42.50935573928007" lon="14.130168954920425"><ele>6.5</ele><time>2026-05-02T06:30:01Z</time></trkpt><trkpt lat="42.509269800095915" lon="14.130053127374126"><ele>7.0</ele><time>2026-05-02T06:30:02Z</time></trkpt><trkpt lat="42.509195381333086" lon="14.12994537393977"><ele>6.666666666666667</ele><time>2026-05-02T06:30:03Z</time></trkpt><trkpt lat="42.50915293712908" lon="14.129845265481375"><ele>6.333333333333334</ele><time>2026-05-02T06:30:04Z</time></trkpt><trkpt lat="42.50910421522144" lon="14.129769675652113"><ele>6.0</ele><time>2026-05-02T06:30:05Z</time></trkpt><trkpt lat="42.50906134416508" lon="14.129664905463587"><ele>5.666666666666667</ele><time>2026-05-02T06:30:07Z</time></trkpt><trkpt lat="42.509053886624585" lon="14.12952392962005"><ele>5.333333333333334</ele><time>2026-05-02T06:30:09Z</time></trkpt><trkpt lat="42.50902134628919" lon="14.12945036943596"><ele>5.0</ele><time>2026-05-02T06:30:10Z</time></trkpt><trkpt lat="42.50894256569459" lon="14.129321726191014"><ele>5.0</ele><time>2026-05-02T06:30:12Z</time></trkpt><trkpt lat="42.508849271439786" lon="14.12929722986605"><ele>5.0</ele><time>2026-05-02T06:30:13Z</time></trkpt><trkpt lat="42.508755917396705" lon="14.12923150486913"><ele>5.0</ele><time>2026-05-02T06:30:14Z</time></trkpt><trkpt lat="42.508675621927836" lon="14.129120503679355"><ele>5.0</ele><time>2026-05-02T06:30:15Z</time></trkpt><trkpt lat="42.508613675309626" lon="14.12898408124089"><ele>5.0</ele><time>2026-05-02T06:30:16Z</time></trkpt><trkpt lat="42.5085255256815" lon="14.128826366129678"><ele>5.333333333333334</ele><time>2026-05-02T06:30:17Z</time></trkpt><trkpt lat="42.508426978286735" lon="14.1286500476331"><ele>5.666666666666667</ele><time>2026-05-02T06:30:18Z</time></trkpt><trkpt lat="42.50832344097448" lon="14.128464398117016"><ele>6.0</ele><time>2026-05-02T06:30:19Z</time></trkpt><trkpt lat="42.5082371262634" lon="14.128243392658911"><ele>5.666666666666667</ele><time>2026-05-02T06:30:20Z</time></trkpt><trkpt lat="42.508140288821714" lon="14.128045875495705"><ele>5.333333333333334</ele><time>2026-05-02T06:30:21Z</time></trkpt><trkpt lat="42.50803131996647" lon="14.127882114393536"><ele>5.0</ele><time>2026-05-02T06:30:22Z</time></trkpt><trkpt lat="42.50792835967304" lon="14.1277295895246"><ele>5.666666666666667</ele><time>2026-05-02T06:30:23Z</time></trkpt><trkpt lat="42.50784999928225" lon="14.127562897757235"><ele>6.333333333333334</ele><time>2026-05-02T06:30:24Z</time></trkpt><trkpt lat="42.507743702027774" lon="14.1274164327638"><ele>7.0</ele><time>2026-05-02T06:30:25Z</time></trkpt><trkpt lat="42.50765389926114" lon="14.127212792880789"><ele>7.333333333333334</ele><time>2026-05-02T06:30:26Z</time></trkpt><trkpt lat="42.50755741013878" lon="14.127039384343728"><ele>7.666666666666666</ele><time>2026-05-02T06:30:27Z</time></trkpt><trkpt lat="42.507448145929644" lon="14.126902189885042"><ele>8.0</ele><time>2026-05-02T06:30:28Z</time></trkpt><trkpt lat="42.507350449964115" lon="14.126717391580481"><ele>7.666666666666666</ele><time>2026-05-02T06:30:29Z</time></trkpt><trkpt lat="42.507250452926534" lon="14.126540591746345"><ele>7.333333333333334</ele><time>2026-05-02T06:30:30Z</time></trkpt><trkpt lat="42.50714518284332" lon="14.126357003997388"><ele>7.0</ele><time>2026-05-02T06:30:31Z</time></trkpt><trkpt lat="42.50705090928409" lon="14.126171076401102"><ele>7.0</ele><time>2026-05-02T06:30:32Z</time></trkpt><trkpt lat="42.50694005943479" lon="14.125994517521201"><ele>7.0</ele><time>2026-05-02T06:30:33Z</time></trkpt><trkpt lat="42.506824510018696" lon="14.125814879443677"><ele>7.0</ele><time>2026-05-02T06:30:34Z</time></trkpt><trkpt lat="42.506716494839516" lon="14.125638766206984"><ele>7.333333333333334</ele><time>2026-05-02T06:30:35Z</time></trkpt><trkpt lat="42.506596269670446" lon="14.125484903817654"><ele>7.666666666666666</ele><time>2026-05-02T06:30:36Z</time></trkpt><trkpt lat="42.50647474788817" lon="14.125317008615141"><ele>8.0</ele><time>2026-05-02T06:30:37Z</time></trkpt><trkpt lat="42.50635723213892" lon="14.12516487137033"><ele>8.333333333333332</ele><time>2026-05-02T06:30:38Z</time></trkpt><trkpt lat="42.506240777821176" lon="14.124992855466644"><ele>8.666666666666666</ele><time>2026-05-02T06:30:39Z</time></trkpt><trkpt lat="42.506127771440624" lon="14.124817665918535"><ele>9.0</ele><time>2026-05-02T06:30:40Z</time></trkpt><trkpt lat="42.50599616392363" lon="14.124649557900296"><ele>9.0</ele><time>2026-05-02T06:30:41Z</time></trkpt><trkpt lat="42.50585887565961" lon="14.124478684495799"><ele>9.0</ele><time>2026-05-02T06:30:42Z</time></trkpt><trkpt lat="42.50571099018365" lon="14.124339792034618"><ele>9.0</ele><time>2026-05-02T06:30:43Z</time></trkpt><trkpt lat="42.50555426063913" lon="14.124193344746969"><ele>8.333333333333334</ele><time>2026-05-02T06:30:44Z</time></trkpt><trkpt lat="42.50540389194085" lon="14.124044728086984"><ele>7.666666666666667</ele><time>2026-05-02T06:30:45Z</time></trkpt><trkpt lat="42.505268299792775" lon="14.123890795067638"><ele>7.0</ele><time>2026-05-02T06:30:46Z</time></trkpt><trkpt lat="42.505131624359336" lon="14.12376003522253"><ele>7.0</ele><time>2026-05-02T06:30:47Z</time></trkpt><trkpt lat="42.50497108296694" lon="14.123631713710422"><ele>7.0</ele><time>2026-05-02T06:30:48Z</time></trkpt><trkpt lat="42.50482095821852" lon="14.123484656949419"><ele>7.0</ele><time>2026-05-02T06:30:49Z</time></trkpt><trkpt lat="42.50467953834522" lon="14.123352066187625"><ele>8.0</ele><time>2026-05-02T06:30:50Z</time></trkpt><trkpt lat="42.50454495934388" lon="14.123218009730977"><ele>9.0</ele><time>2026-05-02T06:30:51Z</time></trkpt><trkpt lat="42.504386512862936" lon="14.123100341523493"><ele>10.0</ele><time>2026-05-02T06:30:52Z</time></trkpt><trkpt lat="42.50426638851295" lon="14.1229596825643"><ele>10.0</ele><time>2026-05-02T06:30:53Z</time></trkpt><trkpt lat="42.50413287861933" lon="14.122835301013765"><ele>10.0</ele><time>2026-05-02T06:30:54Z</time></trkpt><trkpt lat="42.5039963891264" lon="14.12271466981478"><ele>10.0</ele><time>2026-05-02T06:30:55Z</time></trkpt><trkpt lat="42.503867376472776" lon="14.122564951290926"><ele>10.0</ele><time>2026-05-02T06:30:56Z</time></trkpt><trkpt lat="42.50374227068895" lon="14.12242500823606"><ele>10.0</ele><time>2026-05-02T06:30:57Z</time></trkpt><trkpt lat="42.503605290132256" lon="14.122314091603775"><ele>10.0</ele><time>2026-05-02T06:30:58Z</time></trkpt><trkpt lat="42.503462901005946" lon="14.122192537171253"><ele>9.666666666666668</ele><time>2026-05-02T06:30:59Z</time></trkpt><trkpt lat="42.50333565668184" lon="14.122060881793647"><ele>9.333333333333334</ele><time>2026-05-02T06:31:00Z</time></trkpt><trkpt lat="42.50318083442523" lon="14.121981543792065"><ele>9.0</ele><time>2026-05-02T06:31:01Z</time></trkpt><trkpt lat="42.50305462290519" lon="14.12188193081874"><ele>9.0</ele><time>2026-05-02T06:31:02Z</time></trkpt><trkpt lat="42.50296067709347" lon="14.121802403576265"><ele>9.0</ele><time>2026-05-02T06:31:03Z</time></trkpt><trkpt lat="42.502875447899214" lon="14.121739196346672"><ele>9.0</ele><time>2026-05-02T06:31:04Z</time></trkpt><trkpt lat="42.502802011734964" lon="14.12165280142188"><ele>9.0</ele><time>2026-05-02T06:31:05Z</time></trkpt><trkpt lat="42.50275656484428" lon="14.121539847586336"><ele>9.0</ele><time>2026-05-02T06:31:06Z</time></trkpt><trkpt lat="42.50276197977936" lon="14.121437712756634"><ele>8.8</ele><time>2026-05-02T06:31:07Z</time></trkpt><trkpt lat="42.50271960699869" lon="14.121341286603819"><ele>8.600000000000001</ele><time>2026-05-02T06:31:08Z</time></trkpt><trkpt lat="42.50265600155181" lon="14.121288187122829"><ele>8.4</ele><time>2026-05-02T06:31:08.999Z</time></trkpt><trkpt lat="42.50257185506596" lon="14.12127611665574"><ele>8.200000000000001</ele><time>2026-05-02T06:31:09.999Z</time></trkpt><trkpt lat="42.50246497933202" lon="14.12129809916085"><ele>8.0</ele><time>2026-05-02T06:31:10.999Z</time></trkpt><trkpt lat="42.50234499285552" lon="14.121273034823332"><ele>8.0</ele><time>2026-05-02T06:31:11.999Z</time></trkpt><trkpt lat="42.50222274873341" lon="14.121227377327571"><ele>8.0</ele><time>2026-05-02T06:31:12.999Z</time></trkpt><trkpt lat="42.502102576093094" lon="14.12112958188544"><ele>8.0</ele><time>2026-05-02T06:31:13.999Z</time></trkpt><trkpt lat="42.50196853258969" lon="14.121049207342296"><ele>8.0</ele><time>2026-05-02T06:31:14.999Z</time></trkpt><trkpt lat="42.501821847807335" lon="14.120963240054525"><ele>8.666666666666666</ele><time>2026-05-02T06:31:15.999Z</time></trkpt><trkpt lat="42.50165367514082" lon="14.120896340806356"><ele>9.333333333333334</ele><time>2026-05-02T06:31:16.999Z</time></trkpt><trkpt lat="42.50150201728251" lon="14.12085437515316"><ele>10.0</ele><time>2026-05-02T06:31:17.999Z</time></trkpt><trkpt lat="42.501353972154426" lon="14.120815740811372"><ele>10.0</ele><time>2026-05-02T06:31:18.999Z</time></trkpt><trkpt lat="42.50120823326355" lon="14.12074932340661"><ele>10.0</ele><time>2026-05-02T06:31:19.999Z</time></trkpt><trkpt lat="42.5010672584404" lon="14.120689187325658"><ele>10.0</ele><time>2026-05-02T06:31:20.999Z</time></trkpt><trkpt lat="42.50092279333871" lon="14.120640807649716"><ele>10.25</ele><time>2026-05-02T06:31:21.999Z</time></trkpt><trkpt lat="42.50079261623979" lon="14.120559124956406"><ele>10.5</ele><time>2026-05-02T06:31:22.999Z</time></trkpt><trkpt lat="42.500671289962604" lon="14.12048031346709"><ele>10.75</ele><time>2026-05-02T06:31:23.999Z</time></trkpt><trkpt lat="42.500548008249666" lon="14.120398977425301"><ele>11.0</ele><time>2026-05-02T06:31:24.999Z</time></trkpt><trkpt lat="42.50040657382095" lon="14.120323958064153"><ele>11.75</ele><time>2026-05-02T06:31:25.999Z</time></trkpt><trkpt lat="42.50029141293897" lon="14.120237666812042"><ele>12.5</ele><time>2026-05-02T06:31:26.999Z</time></trkpt><trkpt lat="42.5001687645309" lon="14.120143789655677"><ele>13.25</ele><time>2026-05-02T06:31:27.999Z</time></trkpt><trkpt lat="42.50003386552429" lon="14.120064943842353"><ele>14.0</ele><time>2026-05-02T06:31:28.999Z</time></trkpt><trkpt lat="42.499905816471276" lon="14.119974689700445"><ele>13.75</ele><time>2026-05-02T06:31:29.999Z</time></trkpt><trkpt lat="42.4997855236978" lon="14.119860209850271"><ele>13.5</ele><time>2026-05-02T06:31:30.999Z</time></trkpt><trkpt lat="42.49967802381987" lon="14.119805811348872"><ele>13.25</ele><time>2026-05-02T06:31:31.999Z</time></trkpt><trkpt lat="42.499583751998486" lon="14.119768272647843"><ele>13.0</ele><time>2026-05-02T06:31:32.999Z</time></trkpt><trkpt lat="42.49949864687655" lon="14.11984671656876"><ele>13.5</ele><time>2026-05-02T06:31:34.999Z</time></trkpt><trkpt lat="42.499465466234795" lon="14.120029782276301"><ele>14.0</ele><time>2026-05-02T06:31:35.999Z</time></trkpt><trkpt lat="42.49938658112549" lon="14.120156484605838"><ele>14.5</ele><time>2026-05-02T06:31:36.999Z</time></trkpt><trkpt lat="42.49929319836549" lon="14.120290775263033"><ele>15.0</ele><time>2026-05-02T06:31:37.999Z</time></trkpt><trkpt lat="42.49920210195787" lon="14.120427186111181"><ele>15.0</ele><time>2026-05-02T06:31:38.999Z</time></trkpt><trkpt lat="42.499101764592105" lon="14.120545275709105"><ele>15.0</ele><time>2026-05-02T06:31:39.999Z</time></trkpt><trkpt lat="42.49899729819363" lon="14.120698733179804"><ele>15.0</ele><time>2026-05-02T06:31:40.999Z</time></trkpt><trkpt lat="42.49889442718483" lon="14.120809392915909"><ele>15.0</ele><time>2026-05-02T06:31:41.999Z</time></trkpt><trkpt lat="42.49878302148713" lon="14.120949152342703"><ele>15.333333333333332</ele><time>2026-05-02T06:31:42.999Z</time></trkpt><trkpt lat="42.498652576742515" lon="14.121088790601318"><ele>15.666666666666666</ele><time>2026-05-02T06:31:43.999Z</time></trkpt><trkpt lat="42.498547153670245" lon="14.121261280867056"><ele>16.0</ele><time>2026-05-02T06:31:44.999Z</time></trkpt><trkpt lat="42.49843092277726" lon="14.121396297590175"><ele>16.0</ele><time>2026-05-02T06:31:45.999Z</time></trkpt><trkpt lat="42.498319040460025" lon="14.121520983323446"><ele>16.0</ele><time>2026-05-02T06:31:46.999Z</time></trkpt><trkpt lat="42.498216247471674" lon="14.121599852338383"><ele>16.0</ele><time>2026-05-02T06:31:47.999Z</time></trkpt><trkpt lat="42.49811616101029" lon="14.121667640948463"><ele>16.0</ele><time>2026-05-02T06:31:48.999Z</time></trkpt><trkpt lat="42.498017159916515" lon="14.12170613668788"><ele>15.8</ele><time>2026-05-02T06:31:49.999Z</time></trkpt><trkpt lat="42.497958171473655" lon="14.121781670014691"><ele>15.600000000000001</ele><time>2026-05-02T06:31:50.999Z</time></trkpt><trkpt lat="42.49788553005992" lon="14.121871185526269"><ele>15.4</ele><time>2026-05-02T06:31:51.999Z</time></trkpt><trkpt lat="42.49783762189303" lon="14.122021474112458"><ele>15.2</ele><time>2026-05-02T06:31:52.999Z</time></trkpt><trkpt lat="42.497766530175895" lon="14.12217170774411"><ele>15.0</ele><time>2026-05-02T06:31:53.999Z</time></trkpt><trkpt lat="42.49767100140683" lon="14.12234044272123"><ele>14.666666666666668</ele><time>2026-05-02T06:31:54.999Z</time></trkpt><trkpt lat="42.49755855389851" lon="14.122531242193444"><ele>14.333333333333334</ele><time>2026-05-02T06:31:55.999Z</time></trkpt><trkpt lat="42.497411245647534" lon="14.122706849250271"><ele>14.0</ele><time>2026-05-02T06:31:56.999Z</time></trkpt><trkpt lat="42.49728440599257" lon="14.12291429517593"><ele>14.0</ele><time>2026-05-02T06:31:57.999Z</time></trkpt><trkpt lat="42.49716056402248" lon="14.123115978516939"><ele>14.0</ele><time>2026-05-02T06:31:58.999Z</time></trkpt><trkpt lat="42.49703897701022" lon="14.123303099132704"><ele>14.0</ele><time>2026-05-02T06:31:59.999Z</time></trkpt><trkpt lat="42.496935787938106" lon="14.123455797415414"><ele>14.5</ele><time>2026-05-02T06:32:00.999Z</time></trkpt><trkpt lat="42.49683915056386" lon="14.123597338481947"><ele>15.0</ele><time>2026-05-02T06:32:01.999Z</time></trkpt><trkpt lat="42.49675586083193" lon="14.123717827305308"><ele>15.5</ele><time>2026-05-02T06:32:02.999Z</time></trkpt><trkpt lat="42.49665252576423" lon="14.123788086930526"><ele>16.0</ele><time>2026-05-02T06:32:03.999Z</time></trkpt><trkpt lat="42.496556513515586" lon="14.123877015391319"><ele>15.999999999999998</ele><time>2026-05-02T06:32:04.999Z</time></trkpt><trkpt lat="42.496482228806414" lon="14.123943587848576"><ele>16.0</ele><time>2026-05-02T06:32:05.999Z</time></trkpt><trkpt lat="42.49640219803197" lon="14.1239918694196"><ele>16.0</ele><time>2026-05-02T06:32:06.999Z</time></trkpt><trkpt lat="42.49634452003967" lon="14.124052221900422"><ele>16.0</ele><time>2026-05-02T06:32:07.999Z</time></trkpt><trkpt lat="42.49628958980861" lon="14.124117590360369"><ele>15.999999999999998</ele><time>2026-05-02T06:32:08.999Z</time></trkpt><trkpt lat="42.49623470860161" lon="14.124161759345908"><ele>16.0</ele><time>2026-05-02T06:32:09.999Z</time></trkpt><trkpt lat="42.496150433586294" lon="14.124230036725326"><ele>15.8</ele><time>2026-05-02T06:32:11.999Z</time></trkpt><trkpt lat="42.49606975585907" lon="14.124327908024517"><ele>15.600000000000001</ele><time>2026-05-02T06:32:13.999Z</time></trkpt><trkpt lat="42.496001336698114" lon="14.124360386876912"><ele>15.4</ele><time>2026-05-02T06:32:14.999Z</time></trkpt><trkpt lat="42.49588821607127" lon="14.124459894241836"><ele>15.2</ele><time>2026-05-02T06:32:16.999Z</time></trkpt><trkpt lat="42.49580350344469" lon="14.124481018305556"><ele>15.0</ele><time>2026-05-02T06:32:17.999Z</time></trkpt><trkpt lat="42.495731918935235" lon="14.12451188315664"><ele>15.0</ele><time>2026-05-02T06:32:18.999Z</time></trkpt><trkpt lat="42.49565654250891" lon="14.124538940749742"><ele>15.0</ele><time>2026-05-02T06:32:19.999Z</time></trkpt><trkpt lat="42.49558288777954" lon="14.124534357087827"><ele>15.0</ele><time>2026-05-02T06:32:20.999Z</time></trkpt><trkpt lat="42.49550554459248" lon="14.124525774115577"><ele>15.0</ele><time>2026-05-02T06:32:21.999Z</time></trkpt><trkpt lat="42.495431605389655" lon="14.124533727040719"><ele>15.0</ele><time>2026-05-02T06:32:22.999Z</time></trkpt><trkpt lat="42.495348197680954" lon="14.124559123919171"><ele>15.0</ele><time>2026-05-02T06:32:23.999Z</time></trkpt><trkpt lat="42.49527157761424" lon="14.124549390977869"><ele>15.333333333333334</ele><time>2026-05-02T06:32:24.999Z</time></trkpt><trkpt lat="42.49519507071582" lon="14.124529330152184"><ele>15.666666666666668</ele><time>2026-05-02T06:32:25.999Z</time></trkpt><trkpt lat="42.49511655548385" lon="14.124544611614715"><ele>16.0</ele><time>2026-05-02T06:32:26.999Z</time></trkpt><trkpt lat="42.49503880912231" lon="14.12456258930038"><ele>16.333333333333336</ele><time>2026-05-02T06:32:27.999Z</time></trkpt><trkpt lat="42.494962529870186" lon="14.124553722687379"><ele>16.666666666666668</ele><time>2026-05-02T06:32:28.999Z</time></trkpt><trkpt lat="42.49489832530083" lon="14.124524393767373"><ele>17.0</ele><time>2026-05-02T06:32:29.999Z</time></trkpt><trkpt lat="42.494769980970354" lon="14.124534751983946"><ele>17.0</ele><time>2026-05-02T06:32:31.999Z</time></trkpt><trkpt lat="42.49467164142767" lon="14.124505091840168"><ele>17.0</ele><time>2026-05-02T06:32:33.999Z</time></trkpt><trkpt lat="42.494597598318876" lon="14.124524397224265"><ele>17.0</ele><time>2026-05-02T06:32:35.999Z</time></trkpt><trkpt lat="42.49446805207676" lon="14.124527414519227"><ele>17.0</ele><time>2026-05-02T06:32:37.999Z</time></trkpt><trkpt lat="42.494394620734994" lon="14.124555553015382"><ele>17.0</ele><time>2026-05-02T06:32:38.999Z</time></trkpt><trkpt lat="42.49432949193166" lon="14.12460658828822"><ele>17.2</ele><time>2026-05-02T06:32:39.999Z</time></trkpt><trkpt lat="42.494241719615275" lon="14.124665125080808"><ele>17.4</ele><time>2026-05-02T06:32:40.999Z</time></trkpt><trkpt lat="42.494168660757275" lon="14.124773294870934"><ele>17.6</ele><time>2026-05-02T06:32:41.999Z</time></trkpt><trkpt lat="42.49412728818056" lon="14.124900268297417"><ele>17.8</ele><time>2026-05-02T06:32:42.999Z</time></trkpt><trkpt lat="42.49404999829966" lon="14.124969384936577"><ele>18.0</ele><time>2026-05-02T06:32:43.999Z</time></trkpt><trkpt lat="42.49400711851019" lon="14.125057851370572"><ele>18.0</ele><time>2026-05-02T06:32:44.999Z</time></trkpt><trkpt lat="42.49396086355699" lon="14.125140315768808"><ele>18.0</ele><time>2026-05-02T06:32:45.999Z</time></trkpt><trkpt lat="42.49392266471453" lon="14.12522169077405"><ele>18.0</ele><time>2026-05-02T06:32:46.999Z</time></trkpt><trkpt lat="42.49388116946358" lon="14.125309799484858"><ele>18.0</ele><time>2026-05-02T06:32:48.999Z</time></trkpt><trkpt lat="42.49372196012158" lon="14.125213040591614"><ele>18.0</ele><time>2026-05-02T06:32:55.999Z</time></trkpt><trkpt lat="42.49361106979451" lon="14.125137427212891"><ele>18.166666666666668</ele><time>2026-05-02T06:32:57.999Z</time></trkpt><trkpt lat="42.49350234228261" lon="14.125043837302915"><ele>18.333333333333332</ele><time>2026-05-02T06:32:59.999Z</time></trkpt><trkpt lat="42.49344707686838" lon="14.12499862016623"><ele>18.5</ele><time>2026-05-02T06:33:00.999Z</time></trkpt><trkpt lat="42.493382197564344" lon="14.124945537066383"><ele>18.666666666666664</ele><time>2026-05-02T06:33:01.999Z</time></trkpt><trkpt lat="42.493311040372646" lon="14.124887317704822"><ele>18.833333333333332</ele><time>2026-05-02T06:33:02.999Z</time></trkpt><trkpt lat="42.49324978571424" lon="14.124837200182402"><ele>19.0</ele><time>2026-05-02T06:33:03.999Z</time></trkpt><trkpt lat="42.49319035214305" lon="14.124788572768104"><ele>19.0</ele><time>2026-05-02T06:33:04.999Z</time></trkpt><trkpt lat="42.493120563122176" lon="14.12473147440564"><ele>19.0</ele><time>2026-05-02T06:33:05.999Z</time></trkpt><trkpt lat="42.49304294253193" lon="14.124669061110836"><ele>19.0</ele><time>2026-05-02T06:33:06.999Z</time></trkpt><trkpt lat="42.49293298185338" lon="14.124580107755502"><ele>19.0</ele><time>2026-05-02T06:33:07.999Z</time></trkpt><trkpt lat="42.49280479599693" lon="14.124475725122043"><ele>19.0</ele><time>2026-05-02T06:33:08.999Z</time></trkpt><trkpt lat="42.49267245953172" lon="14.124367462551298"><ele>19.0</ele><time>2026-05-02T06:33:09.999Z</time></trkpt><trkpt lat="42.49253783137562" lon="14.124224134921308"><ele>19.0</ele><time>2026-05-02T06:33:10.999Z</time></trkpt><trkpt lat="42.4923892535887" lon="14.12413541658165"><ele>19.0</ele><time>2026-05-02T06:33:11.999Z</time></trkpt><trkpt lat="42.49226569112272" lon="14.12400464032291"><ele>19.0</ele><time>2026-05-02T06:33:12.999Z</time></trkpt><trkpt lat="42.49210963116099" lon="14.123906424226018"><ele>19.0</ele><time>2026-05-02T06:33:13.999Z</time></trkpt><trkpt lat="42.491970643433525" lon="14.123785219723931"><ele>19.0</ele><time>2026-05-02T06:33:14.999Z</time></trkpt><trkpt lat="42.49183591196327" lon="14.123676482181141"><ele>19.666666666666664</ele><time>2026-05-02T06:33:15.999Z</time></trkpt><trkpt lat="42.49169395288473" lon="14.12357709682928"><ele>20.333333333333332</ele><time>2026-05-02T06:33:16.999Z</time></trkpt><trkpt lat="42.4915640885847" lon="14.123449545116623"><ele>21.0</ele><time>2026-05-02T06:33:17.999Z</time></trkpt><trkpt lat="42.491444813132" lon="14.12332022384898"><ele>21.666666666666668</ele><time>2026-05-02T06:33:18.999Z</time></trkpt><trkpt lat="42.4913059678218" lon="14.123224185615452"><ele>22.333333333333336</ele><time>2026-05-02T06:33:19.999Z</time></trkpt><trkpt lat="42.491170419720646" lon="14.123120034804971"><ele>23.0</ele><time>2026-05-02T06:33:20.999Z</time></trkpt><trkpt lat="42.491052281171854" lon="14.122992796279384"><ele>23.0</ele><time>2026-05-02T06:33:21.999Z</time></trkpt><trkpt lat="42.490902648458786" lon="14.122938830975997"><ele>23.0</ele><time>2026-05-02T06:33:22.999Z</time></trkpt><trkpt lat="42.490781471005334" lon="14.122838827533743"><ele>23.0</ele><time>2026-05-02T06:33:23.999Z</time></trkpt><trkpt lat="42.49065515481014" lon="14.1227513600847"><ele>23.0</ele><time>2026-05-02T06:33:24.999Z</time></trkpt><trkpt lat="42.49055148403979" lon="14.122647796772995"><ele>23.0</ele><time>2026-05-02T06:33:25.999Z</time></trkpt><trkpt lat="42.49044459703355" lon="14.122561309589202"><ele>23.0</ele><time>2026-05-02T06:33:26.999Z</time></trkpt><trkpt lat="42.49036106564534" lon="14.122493720649251"><ele>23.0</ele><time>2026-05-02T06:33:27.999Z</time></trkpt><trkpt lat="42.49027372647793" lon="14.12241965859848"><ele>23.0</ele><time>2026-05-02T06:33:28.999Z</time></trkpt><trkpt lat="42.49019653247491" lon="14.122359748263802"><ele>23.0</ele><time>2026-05-02T06:33:29.999Z</time></trkpt><trkpt lat="42.490124793593345" lon="14.122301059993937"><ele>22.799999999999997</ele><time>2026-05-02T06:33:30.999Z</time></trkpt><trkpt lat="42.49005796073" lon="14.122224219822106"><ele>22.6</ele><time>2026-05-02T06:33:31.999Z</time></trkpt><trkpt lat="42.489973349425064" lon="14.122193789758212"><ele>22.4</ele><time>2026-05-02T06:33:32.999Z</time></trkpt><trkpt lat="42.48990837210155" lon="14.122133451656934"><ele>22.200000000000003</ele><time>2026-05-02T06:33:33.999Z</time></trkpt><trkpt lat="42.489834258390474" lon="14.122043038367506"><ele>22.0</ele><time>2026-05-02T06:33:34.999Z</time></trkpt><trkpt lat="42.489734574470546" lon="14.121981766072127"><ele>22.0</ele><time>2026-05-02T06:33:35.999Z</time></trkpt><trkpt lat="42.48962163626658" lon="14.121890831960174"><ele>22.0</ele><time>2026-05-02T06:33:36.999Z</time></trkpt><trkpt lat="42.489480680540844" lon="14.121777419539619"><ele>22.0</ele><time>2026-05-02T06:33:37.999Z</time></trkpt><trkpt lat="42.48933623042505" lon="14.121660933777452"><ele>22.333333333333332</ele><time>2026-05-02T06:33:38.999Z</time></trkpt><trkpt lat="42.48919182232577" lon="14.121544481938908"><ele>22.666666666666668</ele><time>2026-05-02T06:33:39.999Z</time></trkpt><trkpt lat="42.48903862623182" lon="14.121445162471433"><ele>23.0</ele><time>2026-05-02T06:33:40.999Z</time></trkpt><trkpt lat="42.48891649137925" lon="14.121277617344553"><ele>23.0</ele><time>2026-05-02T06:33:41.999Z</time></trkpt><trkpt lat="42.48877691156626" lon="14.12120659624264"><ele>23.0</ele><time>2026-05-02T06:33:42.999Z</time></trkpt><trkpt lat="42.48866018778702" lon="14.121117130154433"><ele>23.0</ele><time>2026-05-02T06:33:43.999Z</time></trkpt><trkpt lat="42.488552602350815" lon="14.121030060242811"><ele>23.0</ele><time>2026-05-02T06:33:44.999Z</time></trkpt><trkpt lat="42.48844651194155" lon="14.120955406594975"><ele>23.25</ele><time>2026-05-02T06:33:45.999Z</time></trkpt><trkpt lat="42.48833741705519" lon="14.120870487949766"><ele>23.5</ele><time>2026-05-02T06:33:46.999Z</time></trkpt><trkpt lat="42.488226260678985" lon="14.120767273228134"><ele>23.75</ele><time>2026-05-02T06:33:47.999Z</time></trkpt><trkpt lat="42.48807774039281" lon="14.12070605957733"><ele>24.0</ele><time>2026-05-02T06:33:48.999Z</time></trkpt><trkpt lat="42.487964061340286" lon="14.120578659542101"><ele>24.666666666666664</ele><time>2026-05-02T06:33:49.999Z</time></trkpt><trkpt lat="42.48783638203743" lon="14.120459537447536"><ele>25.333333333333332</ele><time>2026-05-02T06:33:50.999Z</time></trkpt><trkpt lat="42.48770520384994" lon="14.120360179977592"><ele>26.0</ele><time>2026-05-02T06:33:51.999Z</time></trkpt><trkpt lat="42.48758076407601" lon="14.120254694599248"><ele>26.0</ele><time>2026-05-02T06:33:52.999Z</time></trkpt><trkpt lat="42.48745336561584" lon="14.120150717657426"><ele>26.0</ele><time>2026-05-02T06:33:53.999Z</time></trkpt><trkpt lat="42.48733459967381" lon="14.120058320560123"><ele>26.0</ele><time>2026-05-02T06:33:54.999Z</time></trkpt><trkpt lat="42.4872333926244" lon="14.119981847798247"><ele>26.0</ele><time>2026-05-02T06:33:55.999Z</time></trkpt><trkpt lat="42.487140491985244" lon="14.119895880889553"><ele>25.999999999999996</ele><time>2026-05-02T06:33:56.999Z</time></trkpt><trkpt lat="42.487059158128275" lon="14.119825337981146"><ele>26.0</ele><time>2026-05-02T06:33:57.999Z</time></trkpt><trkpt lat="42.486989073891074" lon="14.119756793441107"><ele>26.0</ele><time>2026-05-02T06:33:58.999Z</time></trkpt><trkpt lat="42.48691778616033" lon="14.119666536459066"><ele>26.0</ele><time>2026-05-02T06:33:59.999Z</time></trkpt><trkpt lat="42.48683994741" lon="14.119620646504918"><ele>25.999999999999996</ele><time>2026-05-02T06:34:00.999Z</time></trkpt><trkpt lat="42.486774553702354" lon="14.11955867065959"><ele>26.0</ele><time>2026-05-02T06:34:01.999Z</time></trkpt><trkpt lat="42.48670879912959" lon="14.119498864118247"><ele>25.999999999999996</ele><time>2026-05-02T06:34:02.998Z</time></trkpt><trkpt lat="42.48663494248689" lon="14.119446876564112"><ele>26.0</ele><time>2026-05-02T06:34:03.998Z</time></trkpt><trkpt lat="42.48654778199884" lon="14.11941007162447"><ele>26.0</ele><time>2026-05-02T06:34:04.998Z</time></trkpt><trkpt lat="42.48645229984986" lon="14.119322032311214"><ele>26.0</ele><time>2026-05-02T06:34:05.998Z</time></trkpt><trkpt lat="42.4863790560089" lon="14.11926600271455"><ele>25.999999999999996</ele><time>2026-05-02T06:34:06.998Z</time></trkpt><trkpt lat="42.48631137231319" lon="14.119242308662733"><ele>26.0</ele><time>2026-05-02T06:34:07.998Z</time></trkpt><trkpt lat="42.48626496560644" lon="14.119179068757758"><ele>26.0</ele><time>2026-05-02T06:34:09.998Z</time></trkpt><trkpt lat="42.48626280934835" lon="14.119078570648403"><ele>26.0</ele><time>2026-05-02T06:34:26.998Z</time></trkpt><trkpt lat="42.48616907478508" lon="14.119046362779617"><ele>26.0</ele><time>2026-05-02T06:34:28.998Z</time></trkpt><trkpt lat="42.48609653593986" lon="14.118979653280924"><ele>26.0</ele><time>2026-05-02T06:34:29.998Z</time></trkpt><trkpt lat="42.48600686671924" lon="14.118927775729981"><ele>26.0</ele><time>2026-05-02T06:34:30.998Z</time></trkpt><trkpt lat="42.48591966531979" lon="14.118818866847205"><ele>25.75</ele><time>2026-05-02T06:34:31.998Z</time></trkpt><trkpt lat="42.485843348167336" lon="14.11869468283548"><ele>25.5</ele><time>2026-05-02T06:34:32.998Z</time></trkpt><trkpt lat="42.48575022474729" lon="14.118620214487615"><ele>25.25</ele><time>2026-05-02T06:34:33.998Z</time></trkpt><trkpt lat="42.485640816530946" lon="14.118558041908978"><ele>25.0</ele><time>2026-05-02T06:34:34.998Z</time></trkpt><trkpt lat="42.48553376647924" lon="14.118502456725288"><ele>25.5</ele><time>2026-05-02T06:34:35.998Z</time></trkpt><trkpt lat="42.48541608489171" lon="14.118450155886336"><ele>26.0</ele><time>2026-05-02T06:34:36.998Z</time></trkpt><trkpt lat="42.48530717368584" lon="14.118374591035192"><ele>26.5</ele><time>2026-05-02T06:34:37.998Z</time></trkpt><trkpt lat="42.48520206992976" lon="14.11829499976877"><ele>27.0</ele><time>2026-05-02T06:34:38.998Z</time></trkpt><trkpt lat="42.48508719354229" lon="14.118228687990884"><ele>27.0</ele><time>2026-05-02T06:34:39.998Z</time></trkpt><trkpt lat="42.48497879807152" lon="14.11814671183827"><ele>27.0</ele><time>2026-05-02T06:34:40.998Z</time></trkpt><trkpt lat="42.48488617472937" lon="14.118045551309589"><ele>27.0</ele><time>2026-05-02T06:34:41.998Z</time></trkpt><trkpt lat="42.48479041762055" lon="14.117968198998309"><ele>27.0</ele><time>2026-05-02T06:34:42.998Z</time></trkpt><trkpt lat="42.4846824596309" lon="14.117880790395231"><ele>27.25</ele><time>2026-05-02T06:34:43.998Z</time></trkpt><trkpt lat="42.48457472452214" lon="14.117800941140354"><ele>27.5</ele><time>2026-05-02T06:34:44.998Z</time></trkpt><trkpt lat="42.48446318367054" lon="14.117682584028437"><ele>27.75</ele><time>2026-05-02T06:34:45.998Z</time></trkpt><trkpt lat="42.48432689630862" lon="14.11761807103637"><ele>28.0</ele><time>2026-05-02T06:34:46.998Z</time></trkpt><trkpt lat="42.484213578159746" lon="14.11750115902135"><ele>27.75</ele><time>2026-05-02T06:34:47.998Z</time></trkpt><trkpt lat="42.484086281074724" lon="14.117398112390743"><ele>27.5</ele><time>2026-05-02T06:34:48.998Z</time></trkpt><trkpt lat="42.48396530219029" lon="14.117300299805049"><ele>27.25</ele><time>2026-05-02T06:34:49.998Z</time></trkpt><trkpt lat="42.48384114692444" lon="14.11719956375841"><ele>27.0</ele><time>2026-05-02T06:34:50.998Z</time></trkpt><trkpt lat="42.48372423154837" lon="14.117105389670026"><ele>27.75</ele><time>2026-05-02T06:34:51.998Z</time></trkpt><trkpt lat="42.48361031657555" lon="14.116987300917234"><ele>28.5</ele><time>2026-05-02T06:34:52.998Z</time></trkpt><trkpt lat="42.48349891441942" lon="14.116899545326659"><ele>29.25</ele><time>2026-05-02T06:34:53.998Z</time></trkpt><trkpt lat="42.48338082092746" lon="14.11682498618508"><ele>30.0</ele><time>2026-05-02T06:34:54.998Z</time></trkpt><trkpt lat="42.48327292543189" lon="14.116724682042072"><ele>30.0</ele><time>2026-05-02T06:34:55.998Z</time></trkpt><trkpt lat="42.48316242804147" lon="14.116651031794827"><ele>30.0</ele><time>2026-05-02T06:34:56.998Z</time></trkpt><trkpt lat="42.48305278345835" lon="14.116562081601565"><ele>30.0</ele><time>2026-05-02T06:34:57.998Z</time></trkpt><trkpt lat="42.48294813731349" lon="14.11647798690928"><ele>30.0</ele><time>2026-05-02T06:34:58.998Z</time></trkpt><trkpt lat="42.48284385420691" lon="14.116378184138114"><ele>29.75</ele><time>2026-05-02T06:34:59.998Z</time></trkpt><trkpt lat="42.482731550849664" lon="14.116302619455164"><ele>29.5</ele><time>2026-05-02T06:35:00.998Z</time></trkpt><trkpt lat="42.48262700306079" lon="14.116230739442948"><ele>29.25</ele><time>2026-05-02T06:35:01.998Z</time></trkpt><trkpt lat="42.48253022965159" lon="14.11614445973303"><ele>29.0</ele><time>2026-05-02T06:35:02.998Z</time></trkpt><trkpt lat="42.48243700596367" lon="14.116025402184286"><ele>29.0</ele><time>2026-05-02T06:35:03.998Z</time></trkpt><trkpt lat="42.48230379738936" lon="14.115955298973885"><ele>29.0</ele><time>2026-05-02T06:35:04.998Z</time></trkpt><trkpt lat="42.482179797618336" lon="14.115850857903274"><ele>29.0</ele><time>2026-05-02T06:35:05.998Z</time></trkpt><trkpt lat="42.48204497229649" lon="14.115729376971432"><ele>30.333333333333332</ele><time>2026-05-02T06:35:06.998Z</time></trkpt><trkpt lat="42.48192262167219" lon="14.115600220526463"><ele>31.666666666666664</ele><time>2026-05-02T06:35:07.998Z</time></trkpt><trkpt lat="42.48178724895664" lon="14.11549688103857"><ele>33.0</ele><time>2026-05-02T06:35:08.998Z</time></trkpt><trkpt lat="42.481651796440424" lon="14.11539410525604"><ele>33.0</ele><time>2026-05-02T06:35:09.998Z</time></trkpt><trkpt lat="42.481526469954765" lon="14.115299095843678"><ele>33.0</ele><time>2026-05-02T06:35:10.998Z</time></trkpt><trkpt lat="42.481394791989906" lon="14.115211835556144"><ele>33.0</ele><time>2026-05-02T06:35:11.998Z</time></trkpt><trkpt lat="42.48126021574139" lon="14.115138258557831"><ele>33.0</ele><time>2026-05-02T06:35:12.998Z</time></trkpt><trkpt lat="42.481140651914366" lon="14.115018937570806"><ele>32.0</ele><time>2026-05-02T06:35:13.998Z</time></trkpt><trkpt lat="42.481019115877075" lon="14.114893223531064"><ele>31.0</ele><time>2026-05-02T06:35:14.998Z</time></trkpt><trkpt lat="42.48087685220342" lon="14.114779590504437"><ele>30.0</ele><time>2026-05-02T06:35:15.998Z</time></trkpt><trkpt lat="42.48074925199222" lon="14.114645084454466"><ele>30.0</ele><time>2026-05-02T06:35:16.998Z</time></trkpt><trkpt lat="42.48062677646057" lon="14.114538627863563"><ele>30.0</ele><time>2026-05-02T06:35:17.998Z</time></trkpt><trkpt lat="42.48049558410165" lon="14.114454416572578"><ele>30.0</ele><time>2026-05-02T06:35:18.998Z</time></trkpt><trkpt lat="42.48037807124161" lon="14.114377168302726"><ele>30.0</ele><time>2026-05-02T06:35:19.998Z</time></trkpt><trkpt lat="42.48027462880644" lon="14.114284822465196"><ele>30.0</ele><time>2026-05-02T06:35:20.998Z</time></trkpt><trkpt lat="42.48015665900842" lon="14.11419715282799"><ele>30.0</ele><time>2026-05-02T06:35:21.998Z</time></trkpt><trkpt lat="42.48003974067829" lon="14.114087655287957"><ele>30.0</ele><time>2026-05-02T06:35:22.998Z</time></trkpt><trkpt lat="42.47992163143603" lon="14.11396333198494"><ele>30.0</ele><time>2026-05-02T06:35:23.998Z</time></trkpt><trkpt lat="42.47980506766098" lon="14.113878516955022"><ele>29.833333333333332</ele><time>2026-05-02T06:35:24.998Z</time></trkpt><trkpt lat="42.47970558328307" lon="14.113813967555297"><ele>29.666666666666664</ele><time>2026-05-02T06:35:25.998Z</time></trkpt><trkpt lat="42.479619853925655" lon="14.113748631943388"><ele>29.5</ele><time>2026-05-02T06:35:26.998Z</time></trkpt><trkpt lat="42.47955425459204" lon="14.113688034240923"><ele>29.333333333333332</ele><time>2026-05-02T06:35:27.998Z</time></trkpt><trkpt lat="42.479482432817754" lon="14.11363966795286"><ele>29.166666666666664</ele><time>2026-05-02T06:35:28.998Z</time></trkpt><trkpt lat="42.47941677050312" lon="14.113598647442954"><ele>29.0</ele><time>2026-05-02T06:35:29.998Z</time></trkpt><trkpt lat="42.479360158262395" lon="14.113554037792474"><ele>29.2</ele><time>2026-05-02T06:35:30.998Z</time></trkpt><trkpt lat="42.47926334109291" lon="14.113481751356789"><ele>29.4</ele><time>2026-05-02T06:35:32.998Z</time></trkpt><trkpt lat="42.47916227022973" lon="14.11335106017417"><ele>29.6</ele><time>2026-05-02T06:35:34.998Z</time></trkpt><trkpt lat="42.4791050462773" lon="14.113300792569264"><ele>29.8</ele><time>2026-05-02T06:35:35.998Z</time></trkpt><trkpt lat="42.4790415245359" lon="14.113248917431136"><ele>30.0</ele><time>2026-05-02T06:35:36.998Z</time></trkpt><trkpt lat="42.47898162065434" lon="14.11318851156549"><ele>30.0</ele><time>2026-05-02T06:35:37.998Z</time></trkpt><trkpt lat="42.47890341838834" lon="14.113157982317022"><ele>30.0</ele><time>2026-05-02T06:35:38.998Z</time></trkpt><trkpt lat="42.478823506834374" lon="14.113129415464032"><ele>30.0</ele><time>2026-05-02T06:35:39.998Z</time></trkpt><trkpt lat="42.47876678370613" lon="14.113052852611656"><ele>30.0</ele><time>2026-05-02T06:35:40.998Z</time></trkpt><trkpt lat="42.47870229326983" lon="14.113006382752875"><ele>30.0</ele><time>2026-05-02T06:35:41.998Z</time></trkpt><trkpt lat="42.4786348274384" lon="14.112943605852232"><ele>30.0</ele><time>2026-05-02T06:35:42.998Z</time></trkpt><trkpt lat="42.47857197574353" lon="14.112886920709089"><ele>30.6</ele><time>2026-05-02T06:35:43.998Z</time></trkpt><trkpt lat="42.478494059411226" lon="14.112840248787254"><ele>31.2</ele><time>2026-05-02T06:35:44.998Z</time></trkpt><trkpt lat="42.47840060771144" lon="14.11280853266332"><ele>31.799999999999997</ele><time>2026-05-02T06:35:45.998Z</time></trkpt><trkpt lat="42.47832544905058" lon="14.112727692336186"><ele>32.4</ele><time>2026-05-02T06:35:46.998Z</time></trkpt><trkpt lat="42.47823858261181" lon="14.112657285351341"><ele>33.0</ele><time>2026-05-02T06:35:47.998Z</time></trkpt><trkpt lat="42.478150460101475" lon="14.11258241150211"><ele>33.0</ele><time>2026-05-02T06:35:48.998Z</time></trkpt><trkpt lat="42.478071628273554" lon="14.112521966116622"><ele>33.0</ele><time>2026-05-02T06:35:49.998Z</time></trkpt><trkpt lat="42.477988709900565" lon="14.112460135689"><ele>33.0</ele><time>2026-05-02T06:35:50.998Z</time></trkpt><trkpt lat="42.477926650307985" lon="14.11236124458575"><ele>33.0</ele><time>2026-05-02T06:35:51.998Z</time></trkpt><trkpt lat="42.47784183562918" lon="14.112343767807713"><ele>33.0</ele><time>2026-05-02T06:35:52.998Z</time></trkpt><trkpt lat="42.477762509032786" lon="14.112270962448132"><ele>33.5</ele><time>2026-05-02T06:35:53.998Z</time></trkpt><trkpt lat="42.47765613264595" lon="14.112203272297814"><ele>34.0</ele><time>2026-05-02T06:35:54.998Z</time></trkpt><trkpt lat="42.47755611017913" lon="14.112103520673491"><ele>34.5</ele><time>2026-05-02T06:35:55.998Z</time></trkpt><trkpt lat="42.47746758011085" lon="14.11203125861581"><ele>35.0</ele><time>2026-05-02T06:35:56.998Z</time></trkpt><trkpt lat="42.47737423131495" lon="14.111955063291129"><ele>35.0</ele><time>2026-05-02T06:35:57.998Z</time></trkpt><trkpt lat="42.477300711543215" lon="14.111895053172884"><ele>35.0</ele><time>2026-05-02T06:35:58.998Z</time></trkpt><trkpt lat="42.47721738170315" lon="14.111827035919399"><ele>35.0</ele><time>2026-05-02T06:35:59.998Z</time></trkpt><trkpt lat="42.47712233588789" lon="14.111728742211444"><ele>35.0</ele><time>2026-05-02T06:36:00.998Z</time></trkpt><trkpt lat="42.47703111207055" lon="14.11165830521366"><ele>35.0</ele><time>2026-05-02T06:36:01.998Z</time></trkpt><trkpt lat="42.47694433936537" lon="14.111568848469188"><ele>35.0</ele><time>2026-05-02T06:36:02.998Z</time></trkpt><trkpt lat="42.47685393390284" lon="14.111503925582724"><ele>35.0</ele><time>2026-05-02T06:36:03.998Z</time></trkpt><trkpt lat="42.47677732070094" lon="14.111436038011268"><ele>35.0</ele><time>2026-05-02T06:36:04.998Z</time></trkpt><trkpt lat="42.47666850896033" lon="14.11138584206474"><ele>35.0</ele><time>2026-05-02T06:36:05.998Z</time></trkpt><trkpt lat="42.476588832063726" lon="14.111329336474236"><ele>35.0</ele><time>2026-05-02T06:36:06.998Z</time></trkpt><trkpt lat="42.47652589743148" lon="14.111251984361648"><ele>35.0</ele><time>2026-05-02T06:36:07.998Z</time></trkpt><trkpt lat="42.47645227434916" lon="14.111187584120865"><ele>35.0</ele><time>2026-05-02T06:36:08.998Z</time></trkpt><trkpt lat="42.476381021775794" lon="14.111115794617287"><ele>35.0</ele><time>2026-05-02T06:36:09.998Z</time></trkpt><trkpt lat="42.47632249568435" lon="14.111006401755525"><ele>35.0</ele><time>2026-05-02T06:36:11.998Z</time></trkpt><trkpt lat="42.47630215100395" lon="14.110854748416367"><ele>35.0</ele><time>2026-05-02T06:36:13.998Z</time></trkpt><trkpt lat="42.47624874411726" lon="14.110705661031755"><ele>35.33333333333333</ele><time>2026-05-02T06:36:15.998Z</time></trkpt><trkpt lat="42.476202631858854" lon="14.110641304820044"><ele>35.666666666666664</ele><time>2026-05-02T06:36:16.998Z</time></trkpt><trkpt lat="42.47607030861121" lon="14.110647440696875"><ele>36.0</ele><time>2026-05-02T06:36:18.998Z</time></trkpt><trkpt lat="42.47600949194143" lon="14.110682106544164"><ele>36.333333333333336</ele><time>2026-05-02T06:36:19.998Z</time></trkpt><trkpt lat="42.475935792292596" lon="14.110692901614442"><ele>36.66666666666667</ele><time>2026-05-02T06:36:20.998Z</time></trkpt><trkpt lat="42.475854966891085" lon="14.110680271267139"><ele>37.0</ele><time>2026-05-02T06:36:21.998Z</time></trkpt><trkpt lat="42.47576991736175" lon="14.110649353823339"><ele>37.0</ele><time>2026-05-02T06:36:22.998Z</time></trkpt><trkpt lat="42.475683143482314" lon="14.110605564526109"><ele>37.0</ele><time>2026-05-02T06:36:23.998Z</time></trkpt><trkpt lat="42.47560980818399" lon="14.110557390370055"><ele>37.0</ele><time>2026-05-02T06:36:24.998Z</time></trkpt><trkpt lat="42.47553314861891" lon="14.110513460903833"><ele>37.0</ele><time>2026-05-02T06:36:25.998Z</time></trkpt><trkpt lat="42.47544947874905" lon="14.110460645344087"><ele>37.0</ele><time>2026-05-02T06:36:27.003Z</time></trkpt><trkpt lat="42.47537158625438" lon="14.11044635488148"><ele>37.0</ele><time>2026-05-02T06:36:28.003Z</time></trkpt><trkpt lat="42.47528516454756" lon="14.110453634005095"><ele>38.75</ele><time>2026-05-02T06:36:29.003Z</time></trkpt><trkpt lat="42.47516959992557" lon="14.110456237520282"><ele>40.5</ele><time>2026-05-02T06:36:30.002Z</time></trkpt><trkpt lat="42.475052486658576" lon="14.110520438586667"><ele>42.25</ele><time>2026-05-02T06:36:31.002Z</time></trkpt><trkpt lat="42.474934293500795" lon="14.110540783810778"><ele>44.0</ele><time>2026-05-02T06:36:32.001Z</time></trkpt><trkpt lat="42.4748089346268" lon="14.110546602636056"><ele>44.0</ele><time>2026-05-02T06:36:33.001Z</time></trkpt><trkpt lat="42.474683471542896" lon="14.110525336046617"><ele>44.0</ele><time>2026-05-02T06:36:34.001Z</time></trkpt><trkpt lat="42.47455486530645" lon="14.110473603412549"><ele>44.0</ele><time>2026-05-02T06:36:35.001Z</time></trkpt><trkpt lat="42.47442539979209" lon="14.110423430019239"><ele>44.0</ele><time>2026-05-02T06:36:36.001Z</time></trkpt><trkpt lat="42.474285842347435" lon="14.110361662802092"><ele>46.666666666666664</ele><time>2026-05-02T06:36:37.001Z</time></trkpt><trkpt lat="42.474136747836226" lon="14.110299923844869"><ele>49.33333333333333</ele><time>2026-05-02T06:36:38.001Z</time></trkpt><trkpt lat="42.47399675089594" lon="14.110206208698411"><ele>52.0</ele><time>2026-05-02T06:36:39.001Z</time></trkpt><trkpt lat="42.47385650115708" lon="14.110155589376504"><ele>53.0</ele><time>2026-05-02T06:36:40.001Z</time></trkpt><trkpt lat="42.47371362313714" lon="14.110101762904824"><ele>54.0</ele><time>2026-05-02T06:36:41.001Z</time></trkpt><trkpt lat="42.47357884543914" lon="14.110015690690943"><ele>55.0</ele><time>2026-05-02T06:36:42.001Z</time></trkpt><trkpt lat="42.47344824565173" lon="14.10996236349641"><ele>56.0</ele><time>2026-05-02T06:36:43.001Z</time></trkpt><trkpt lat="42.473298094177" lon="14.109901053047812"><ele>59.66666666666667</ele><time>2026-05-02T06:36:44Z</time></trkpt><trkpt lat="42.473153147824526" lon="14.109808663736123"><ele>63.33333333333333</ele><time>2026-05-02T06:36:45Z</time></trkpt><trkpt lat="42.47299552118073" lon="14.109734613098787"><ele>67.0</ele><time>2026-05-02T06:36:46Z</time></trkpt><trkpt lat="42.47283547650249" lon="14.109671172419066"><ele>67.0</ele><time>2026-05-02T06:36:47Z</time></trkpt><trkpt lat="42.47268219323003" lon="14.10959350507992"><ele>67.0</ele><time>2026-05-02T06:36:48Z</time></trkpt><trkpt lat="42.47252847034848" lon="14.109512020686328"><ele>67.0</ele><time>2026-05-02T06:36:49Z</time></trkpt><trkpt lat="42.472367775632364" lon="14.109443814573186"><ele>67.0</ele><time>2026-05-02T06:36:50Z</time></trkpt><trkpt lat="42.47218787768704" lon="14.109432628413378"><ele>67.0</ele><time>2026-05-02T06:36:51Z</time></trkpt><trkpt lat="42.472037206284575" lon="14.109360723268999"><ele>67.0</ele><time>2026-05-02T06:36:52Z</time></trkpt><trkpt lat="42.47190236837003" lon="14.109292952003093"><ele>66.0</ele><time>2026-05-02T06:36:53Z</time></trkpt><trkpt lat="42.47176222913255" lon="14.109201412622797"><ele>65.0</ele><time>2026-05-02T06:36:54Z</time></trkpt><trkpt lat="42.47163955104636" lon="14.109102960177148"><ele>64.0</ele><time>2026-05-02T06:36:55Z</time></trkpt><trkpt lat="42.47153220865906" lon="14.109002360158051"><ele>63.0</ele><time>2026-05-02T06:36:56Z</time></trkpt><trkpt lat="42.47139987960018" lon="14.108843836894165"><ele>64.0</ele><time>2026-05-02T06:36:57Z</time></trkpt><trkpt lat="42.47128606340351" lon="14.108673805887824"><ele>65.0</ele><time>2026-05-02T06:36:58Z</time></trkpt><trkpt lat="42.4711562206099" lon="14.108514755098687"><ele>66.0</ele><time>2026-05-02T06:36:59Z</time></trkpt><trkpt lat="42.471037802667595" lon="14.10834168142267"><ele>70.0</ele><time>2026-05-02T06:37:00Z</time></trkpt><trkpt lat="42.4709342262345" lon="14.10815786330062"><ele>74.0</ele><time>2026-05-02T06:37:01Z</time></trkpt><trkpt lat="42.470832608918464" lon="14.108002605780907"><ele>78.0</ele><time>2026-05-02T06:37:02Z</time></trkpt><trkpt lat="42.470747897829725" lon="14.107820828386203"><ele>78.0</ele><time>2026-05-02T06:37:03Z</time></trkpt><trkpt lat="42.47067223922221" lon="14.107665536969128"><ele>78.0</ele><time>2026-05-02T06:37:04Z</time></trkpt><trkpt lat="42.47060296708812" lon="14.107491918341326"><ele>78.0</ele><time>2026-05-02T06:37:05Z</time></trkpt><trkpt lat="42.47053971333669" lon="14.107303614691073"><ele>78.0</ele><time>2026-05-02T06:37:06Z</time></trkpt><trkpt lat="42.47049249163405" lon="14.107100955111546"><ele>76.0</ele><time>2026-05-02T06:37:07Z</time></trkpt><trkpt lat="42.47045271527366" lon="14.106910382019493"><ele>74.0</ele><time>2026-05-02T06:37:08Z</time></trkpt><trkpt lat="42.470387014788145" lon="14.10671519580666"><ele>72.0</ele><time>2026-05-02T06:37:09Z</time></trkpt><trkpt lat="42.470295964751394" lon="14.106526220106533"><ele>76.0</ele><time>2026-05-02T06:37:10Z</time></trkpt><trkpt lat="42.47017137027421" lon="14.106369874380743"><ele>80.0</ele><time>2026-05-02T06:37:11Z</time></trkpt><trkpt lat="42.47006143534419" lon="14.106221515507082"><ele>84.0</ele><time>2026-05-02T06:37:12Z</time></trkpt><trkpt lat="42.469932770841716" lon="14.106113420711612"><ele>84.0</ele><time>2026-05-02T06:37:13Z</time></trkpt><trkpt lat="42.46982373072284" lon="14.105997443163039"><ele>84.0</ele><time>2026-05-02T06:37:14Z</time></trkpt><trkpt lat="42.46969877827216" lon="14.105913022654985"><ele>84.0</ele><time>2026-05-02T06:37:15Z</time></trkpt><trkpt lat="42.469573761297276" lon="14.105823489993464"><ele>84.0</ele><time>2026-05-02T06:37:16Z</time></trkpt><trkpt lat="42.46944216068533" lon="14.105730837397852"><ele>86.5</ele><time>2026-05-02T06:37:17Z</time></trkpt><trkpt lat="42.46931284818702" lon="14.105648283251698"><ele>89.0</ele><time>2026-05-02T06:37:18Z</time></trkpt><trkpt lat="42.46918692648043" lon="14.105556680548789"><ele>91.5</ele><time>2026-05-02T06:37:19Z</time></trkpt><trkpt lat="42.469055496484515" lon="14.105466989073577"><ele>94.0</ele><time>2026-05-02T06:37:19.999Z</time></trkpt><trkpt lat="42.46892557790183" lon="14.105375731984006"><ele>94.66666666666666</ele><time>2026-05-02T06:37:20.999Z</time></trkpt><trkpt lat="42.46877393946836" lon="14.10527199299381"><ele>95.33333333333333</ele><time>2026-05-02T06:37:21.999Z</time></trkpt><trkpt lat="42.468622731052264" lon="14.105214390822507"><ele>96.0</ele><time>2026-05-02T06:37:22.999Z</time></trkpt><trkpt lat="42.46848154245744" lon="14.10513192392006"><ele>96.0</ele><time>2026-05-02T06:37:23.999Z</time></trkpt><trkpt lat="42.4683264431157" lon="14.105091039382978"><ele>96.0</ele><time>2026-05-02T06:37:24.999Z</time></trkpt><trkpt lat="42.46817978122995" lon="14.105076739586472"><ele>96.0</ele><time>2026-05-02T06:37:25.999Z</time></trkpt><trkpt lat="42.46801733417514" lon="14.105044905453058"><ele>94.5</ele><time>2026-05-02T06:37:26.999Z</time></trkpt><trkpt lat="42.46789287839522" lon="14.104978515330195"><ele>93.0</ele><time>2026-05-02T06:37:27.999Z</time></trkpt><trkpt lat="42.467771950924245" lon="14.104934715534993"><ele>91.5</ele><time>2026-05-02T06:37:28.999Z</time></trkpt><trkpt lat="42.46766133743527" lon="14.104850785052047"><ele>90.0</ele><time>2026-05-02T06:37:29.999Z</time></trkpt><trkpt lat="42.46753610850939" lon="14.104727263635654"><ele>92.5</ele><time>2026-05-02T06:37:30.999Z</time></trkpt><trkpt lat="42.467427470835496" lon="14.10460532795485"><ele>95.0</ele><time>2026-05-02T06:37:31.999Z</time></trkpt><trkpt lat="42.467319688578954" lon="14.104486598549828"><ele>97.5</ele><time>2026-05-02T06:37:32.999Z</time></trkpt><trkpt lat="42.46720579164948" lon="14.104374846847199"><ele>100.0</ele><time>2026-05-02T06:37:33.999Z</time></trkpt><trkpt lat="42.46705346668986" lon="14.104299474194972"><ele>100.0</ele><time>2026-05-02T06:37:34.999Z</time></trkpt><trkpt lat="42.46692631615873" lon="14.104213088411157"><ele>100.0</ele><time>2026-05-02T06:37:35.999Z</time></trkpt><trkpt lat="42.46680204552249" lon="14.104106228863374"><ele>100.0</ele><time>2026-05-02T06:37:36.999Z</time></trkpt><trkpt lat="42.466669327727374" lon="14.103996376203083"><ele>100.0</ele><time>2026-05-02T06:37:37.999Z</time></trkpt><trkpt lat="42.46654286519924" lon="14.103894582255231"><ele>99.75</ele><time>2026-05-02T06:37:38.999Z</time></trkpt><trkpt lat="42.46641323438162" lon="14.103823812401163"><ele>99.5</ele><time>2026-05-02T06:37:39.999Z</time></trkpt><trkpt lat="42.46626689299476" lon="14.103774675918725"><ele>99.25</ele><time>2026-05-02T06:37:40.999Z</time></trkpt><trkpt lat="42.46612803129167" lon="14.10376569230442"><ele>99.0</ele><time>2026-05-02T06:37:41.999Z</time></trkpt><trkpt lat="42.465981100123166" lon="14.10378702571668"><ele>102.5</ele><time>2026-05-02T06:37:42.999Z</time></trkpt><trkpt lat="42.46583335344811" lon="14.103802086696712"><ele>106.0</ele><time>2026-05-02T06:37:43.999Z</time></trkpt><trkpt lat="42.46569782196166" lon="14.103833298462716"><ele>109.5</ele><time>2026-05-02T06:37:44.999Z</time></trkpt><trkpt lat="42.465576084650316" lon="14.103821694658311"><ele>113.0</ele><time>2026-05-02T06:37:45.999Z</time></trkpt><trkpt lat="42.46547780965951" lon="14.103798097610964"><ele>114.25</ele><time>2026-05-02T06:37:46.999Z</time></trkpt><trkpt lat="42.465373652725724" lon="14.103749350143113"><ele>115.5</ele><time>2026-05-02T06:37:47.999Z</time></trkpt><trkpt lat="42.46526068762579" lon="14.103701463568113"><ele>116.75</ele><time>2026-05-02T06:37:48.999Z</time></trkpt><trkpt lat="42.465141906412704" lon="14.1036366249761"><ele>118.0</ele><time>2026-05-02T06:37:49.999Z</time></trkpt><trkpt lat="42.46504064833801" lon="14.103565384041278"><ele>118.0</ele><time>2026-05-02T06:37:50.999Z</time></trkpt><trkpt lat="42.464942623897805" lon="14.103483372187956"><ele>118.00000000000001</ele><time>2026-05-02T06:37:51.999Z</time></trkpt><trkpt lat="42.46485272127645" lon="14.103379946190648"><ele>118.00000000000001</ele><time>2026-05-02T06:37:52.999Z</time></trkpt><trkpt lat="42.46479104734294" lon="14.103294378473418"><ele>118.0</ele><time>2026-05-02T06:37:53.999Z</time></trkpt><trkpt lat="42.46470814595676" lon="14.103210820331785"><ele>118.0</ele><time>2026-05-02T06:37:54.999Z</time></trkpt><trkpt lat="42.46462267471135" lon="14.103136236910618"><ele>116.0</ele><time>2026-05-02T06:37:55.999Z</time></trkpt><trkpt lat="42.46453937007366" lon="14.103068926403463"><ele>114.00000000000001</ele><time>2026-05-02T06:37:56.999Z</time></trkpt><trkpt lat="42.46446666072001" lon="14.102995212506451"><ele>112.00000000000001</ele><time>2026-05-02T06:37:57.999Z</time></trkpt><trkpt lat="42.464396364286266" lon="14.102973914523142"><ele>110.0</ele><time>2026-05-02T06:37:58.999Z</time></trkpt><trkpt lat="42.46430854436097" lon="14.103086453935482"><ele>108.0</ele><time>2026-05-02T06:38:00.999Z</time></trkpt><trkpt lat="42.464310687232235" lon="14.103188316921276"><ele>109.66666666666667</ele><time>2026-05-02T06:38:01.999Z</time></trkpt><trkpt lat="42.46435829973278" lon="14.103284918239968"><ele>111.33333333333334</ele><time>2026-05-02T06:38:02.999Z</time></trkpt><trkpt lat="42.46443005293572" lon="14.10334587871728"><ele>113.0</ele><time>2026-05-02T06:38:03.999Z</time></trkpt><trkpt lat="42.46450471154181" lon="14.10341122141895"><ele>114.66666666666667</ele><time>2026-05-02T06:38:04.999Z</time></trkpt><trkpt lat="42.46457712814751" lon="14.10344422452239"><ele>116.33333333333334</ele><time>2026-05-02T06:38:05.999Z</time></trkpt><trkpt lat="42.4646648104054" lon="14.103465449372846"><ele>118.0</ele><time>2026-05-02T06:38:06.999Z</time></trkpt><trkpt lat="42.46470897563937" lon="14.103545399703115"><ele>118.0</ele><time>2026-05-02T06:38:07.999Z</time></trkpt><trkpt lat="42.4647247677185" lon="14.10368141060019"><ele>118.00000000000001</ele><time>2026-05-02T06:38:09.999Z</time></trkpt><trkpt lat="42.46464719000197" lon="14.103746398230728"><ele>118.00000000000001</ele><time>2026-05-02T06:38:11.999Z</time></trkpt><trkpt lat="42.46456855426257" lon="14.10378685367236"><ele>118.0</ele><time>2026-05-02T06:38:12.999Z</time></trkpt><trkpt lat="42.4644911178691" lon="14.103844726637805"><ele>118.0</ele><time>2026-05-02T06:38:13.999Z</time></trkpt><trkpt lat="42.4644019626898" lon="14.103896425410213"><ele>118.5</ele><time>2026-05-02T06:38:14.999Z</time></trkpt><trkpt lat="42.46430253578571" lon="14.103915663570389"><ele>119.0</ele><time>2026-05-02T06:38:15.999Z</time></trkpt><trkpt lat="42.464187918728605" lon="14.103941810179137"><ele>119.5</ele><time>2026-05-02T06:38:16.999Z</time></trkpt><trkpt lat="42.46407183258264" lon="14.103958552806004"><ele>120.0</ele><time>2026-05-02T06:38:17.999Z</time></trkpt><trkpt lat="42.46395437995888" lon="14.103980570288764"><ele>120.0</ele><time>2026-05-02T06:38:18.999Z</time></trkpt><trkpt lat="42.46383601767826" lon="14.103994713254966"><ele>120.0</ele><time>2026-05-02T06:38:19.999Z</time></trkpt><trkpt lat="42.463707321197695" lon="14.104027338150754"><ele>120.0</ele><time>2026-05-02T06:38:20.999Z</time></trkpt><trkpt lat="42.463603158441" lon="14.104056061503828"><ele>120.0</ele><time>2026-05-02T06:38:21.999Z</time></trkpt><trkpt lat="42.46351226139134" lon="14.104105566409299"><ele>122.25</ele><time>2026-05-02T06:38:22.999Z</time></trkpt><trkpt lat="42.46340924641962" lon="14.104140713528974"><ele>124.5</ele><time>2026-05-02T06:38:23.999Z</time></trkpt><trkpt lat="42.463290313082354" lon="14.10417331333477"><ele>126.75</ele><time>2026-05-02T06:38:24.999Z</time></trkpt><trkpt lat="42.46317200728097" lon="14.104239340732683"><ele>129.0</ele><time>2026-05-02T06:38:25.999Z</time></trkpt><trkpt lat="42.463056953955956" lon="14.104347595569875"><ele>129.0</ele><time>2026-05-02T06:38:26.999Z</time></trkpt><trkpt lat="42.462955393387844" lon="14.104443862105052"><ele>129.0</ele><time>2026-05-02T06:38:27.999Z</time></trkpt><trkpt lat="42.462884167548246" lon="14.104532641263587"><ele>129.0</ele><time>2026-05-02T06:38:28.999Z</time></trkpt><trkpt lat="42.462812783412105" lon="14.104591302465458"><ele>129.0</ele><time>2026-05-02T06:38:29.999Z</time></trkpt><trkpt lat="42.46279939315985" lon="14.10468744469543"><ele>129.0</ele><time>2026-05-02T06:38:30.999Z</time></trkpt><trkpt lat="42.46269145684505" lon="14.104759391959355"><ele>129.4</ele><time>2026-05-02T06:38:32.999Z</time></trkpt><trkpt lat="42.46257497667946" lon="14.104690181998416"><ele>129.8</ele><time>2026-05-02T06:38:34.999Z</time></trkpt><trkpt lat="42.462474903914654" lon="14.104681756814367"><ele>130.2</ele><time>2026-05-02T06:38:36.999Z</time></trkpt><trkpt lat="42.462422907604335" lon="14.104826687207167"><ele>130.6</ele><time>2026-05-02T06:38:39.999Z</time></trkpt><trkpt lat="42.46244377818066" lon="14.104918711322528"><ele>131.0</ele><time>2026-05-02T06:38:40.999Z</time></trkpt><trkpt lat="42.46244096880624" lon="14.105031608340267"><ele>131.4</ele><time>2026-05-02T06:38:41.999Z</time></trkpt><trkpt lat="42.46239380887457" lon="14.105115888703782"><ele>131.8</ele><time>2026-05-02T06:38:42.999Z</time></trkpt><trkpt lat="42.46231783689284" lon="14.105194425787008"><ele>132.20000000000002</ele><time>2026-05-02T06:38:43.999Z</time></trkpt><trkpt lat="42.46223068083497" lon="14.105283432288987"><ele>132.6</ele><time>2026-05-02T06:38:44.999Z</time></trkpt><trkpt lat="42.46211237814081" lon="14.105379774010455"><ele>133.0</ele><time>2026-05-02T06:38:45.999Z</time></trkpt><trkpt lat="42.46201100875327" lon="14.105492819410934"><ele>134.5</ele><time>2026-05-02T06:38:46.999Z</time></trkpt><trkpt lat="42.46189400754094" lon="14.105608782781609"><ele>136.0</ele><time>2026-05-02T06:38:47.999Z</time></trkpt><trkpt lat="42.461780754319285" lon="14.105716415768459"><ele>137.5</ele><time>2026-05-02T06:38:48.999Z</time></trkpt><trkpt lat="42.46166208544033" lon="14.105825751003978"><ele>139.0</ele><time>2026-05-02T06:38:49.999Z</time></trkpt><trkpt lat="42.46154811727758" lon="14.10592436775222"><ele>139.0</ele><time>2026-05-02T06:38:50.999Z</time></trkpt><trkpt lat="42.46144713931179" lon="14.10602529261734"><ele>139.0</ele><time>2026-05-02T06:38:51.999Z</time></trkpt><trkpt lat="42.461337884800116" lon="14.106131768909176"><ele>139.0</ele><time>2026-05-02T06:38:52.999Z</time></trkpt><trkpt lat="42.46124255438743" lon="14.106235924085535"><ele>139.0</ele><time>2026-05-02T06:38:53.999Z</time></trkpt><trkpt lat="42.46115376343857" lon="14.106342581174744"><ele>142.5</ele><time>2026-05-02T06:38:54.999Z</time></trkpt><trkpt lat="42.46103812598668" lon="14.106385538744165"><ele>146.0</ele><time>2026-05-02T06:38:55.999Z</time></trkpt><trkpt lat="42.46092430131882" lon="14.106430075663926"><ele>149.5</ele><time>2026-05-02T06:38:56.998Z</time></trkpt><trkpt lat="42.46081433974173" lon="14.106496625726642"><ele>153.0</ele><time>2026-05-02T06:38:57.998Z</time></trkpt><trkpt lat="42.46070390810997" lon="14.106565873736793"><ele>150.75</ele><time>2026-05-02T06:38:58.998Z</time></trkpt><trkpt lat="42.46060752427633" lon="14.106689680292149"><ele>148.5</ele><time>2026-05-02T06:38:59.998Z</time></trkpt><trkpt lat="42.460518126583914" lon="14.10681477429446"><ele>146.25</ele><time>2026-05-02T06:39:00.998Z</time></trkpt><trkpt lat="42.460448131725826" lon="14.106993292612442"><ele>144.0</ele><time>2026-05-02T06:39:01.998Z</time></trkpt><trkpt lat="42.46038513431147" lon="14.107186115657802"><ele>148.0</ele><time>2026-05-02T06:39:02.998Z</time></trkpt><trkpt lat="42.460349152236574" lon="14.107383053691002"><ele>152.0</ele><time>2026-05-02T06:39:03.998Z</time></trkpt><trkpt lat="42.46031216844026" lon="14.10758509828493"><ele>156.0</ele><time>2026-05-02T06:39:04.998Z</time></trkpt><trkpt lat="42.460286864562" lon="14.10777181334514"><ele>160.0</ele><time>2026-05-02T06:39:05.998Z</time></trkpt><trkpt lat="42.46024353268331" lon="14.107943620787044"><ele>160.0</ele><time>2026-05-02T06:39:06.998Z</time></trkpt><trkpt lat="42.460182623707695" lon="14.108111719119941"><ele>160.0</ele><time>2026-05-02T06:39:07.998Z</time></trkpt><trkpt lat="42.46012143957165" lon="14.108270195978491"><ele>160.0</ele><time>2026-05-02T06:39:08.998Z</time></trkpt><trkpt lat="42.46005036537846" lon="14.108454765101888"><ele>160.0</ele><time>2026-05-02T06:39:09.998Z</time></trkpt><trkpt lat="42.45999358288553" lon="14.108663638816205"><ele>159.25</ele><time>2026-05-02T06:39:10.998Z</time></trkpt><trkpt lat="42.45992004849873" lon="14.108851308616316"><ele>158.5</ele><time>2026-05-02T06:39:11.998Z</time></trkpt><trkpt lat="42.45983255417906" lon="14.109013432855162"><ele>157.75</ele><time>2026-05-02T06:39:12.998Z</time></trkpt><trkpt lat="42.459735462723295" lon="14.109154252791523"><ele>157.0</ele><time>2026-05-02T06:39:13.998Z</time></trkpt><trkpt lat="42.45962262182018" lon="14.109278077126389"><ele>158.75</ele><time>2026-05-02T06:39:14.998Z</time></trkpt><trkpt lat="42.45952625837035" lon="14.10937175402425"><ele>160.5</ele><time>2026-05-02T06:39:15.998Z</time></trkpt><trkpt lat="42.45941292337205" lon="14.10947992783082"><ele>162.25</ele><time>2026-05-02T06:39:16.998Z</time></trkpt><trkpt lat="42.459310631337914" lon="14.109601628798083"><ele>164.0</ele><time>2026-05-02T06:39:17.998Z</time></trkpt><trkpt lat="42.45918538469748" lon="14.109721036734157"><ele>164.0</ele><time>2026-05-02T06:39:18.998Z</time></trkpt><trkpt lat="42.45906770323107" lon="14.109839954960194"><ele>164.0</ele><time>2026-05-02T06:39:19.998Z</time></trkpt><trkpt lat="42.45895577860735" lon="14.109972868954578"><ele>164.0</ele><time>2026-05-02T06:39:20.998Z</time></trkpt><trkpt lat="42.45886947976553" lon="14.110133693420824"><ele>164.0</ele><time>2026-05-02T06:39:21.998Z</time></trkpt><trkpt lat="42.45876792466414" lon="14.110287244088987"><ele>163.33333333333331</ele><time>2026-05-02T06:39:22.998Z</time></trkpt><trkpt lat="42.45867077905116" lon="14.110464222968435"><ele>162.66666666666666</ele><time>2026-05-02T06:39:23.998Z</time></trkpt><trkpt lat="42.45856645099199" lon="14.110650832611457"><ele>162.0</ele><time>2026-05-02T06:39:24.998Z</time></trkpt><trkpt lat="42.45847792342023" lon="14.110849656250133"><ele>162.0</ele><time>2026-05-02T06:39:25.998Z</time></trkpt><trkpt lat="42.45839196547947" lon="14.111013825963365"><ele>162.0</ele><time>2026-05-02T06:39:26.998Z</time></trkpt><trkpt lat="42.45831675835094" lon="14.111164849317143"><ele>162.0</ele><time>2026-05-02T06:39:27.998Z</time></trkpt><trkpt lat="42.458220740861044" lon="14.111252301260155"><ele>162.0</ele><time>2026-05-02T06:39:28.998Z</time></trkpt><trkpt lat="42.45816125398702" lon="14.111282810261068"><ele>162.0</ele><time>2026-05-02T06:39:29.998Z</time></trkpt><trkpt lat="42.45803793796482" lon="14.111237640898256"><ele>162.0</ele><time>2026-05-02T06:39:31.998Z</time></trkpt><trkpt lat="42.457980138305075" lon="14.111169732161633"><ele>162.0</ele><time>2026-05-02T06:39:32.998Z</time></trkpt><trkpt lat="42.45794695422988" lon="14.111050500221136"><ele>162.0</ele><time>2026-05-02T06:39:33.998Z</time></trkpt><trkpt lat="42.45793931024718" lon="14.110916420343107"><ele>162.0</ele><time>2026-05-02T06:39:34.998Z</time></trkpt><trkpt lat="42.45791131394626" lon="14.110797265143887"><ele>162.33333333333334</ele><time>2026-05-02T06:39:35.998Z</time></trkpt><trkpt lat="42.45784805596895" lon="14.110759984214267"><ele>162.66666666666666</ele><time>2026-05-02T06:39:36.998Z</time></trkpt><trkpt lat="42.45777698233994" lon="14.110740876711949"><ele>163.0</ele><time>2026-05-02T06:39:37.998Z</time></trkpt><trkpt lat="42.4577052976589" lon="14.110774518384986"><ele>163.33333333333331</ele><time>2026-05-02T06:39:38.998Z</time></trkpt><trkpt lat="42.457663624042546" lon="14.11087541203677"><ele>163.66666666666666</ele><time>2026-05-02T06:39:39.998Z</time></trkpt><trkpt lat="42.457682212502455" lon="14.110998062063228"><ele>164.0</ele><time>2026-05-02T06:39:40.998Z</time></trkpt><trkpt lat="42.45772297839957" lon="14.111150328451254"><ele>166.75</ele><time>2026-05-02T06:39:41.998Z</time></trkpt><trkpt lat="42.457758745776566" lon="14.111319393623706"><ele>169.5</ele><time>2026-05-02T06:39:42.998Z</time></trkpt><trkpt lat="42.457799168046016" lon="14.111493341817356"><ele>172.25</ele><time>2026-05-02T06:39:43.998Z</time></trkpt><trkpt lat="42.45784454878752" lon="14.111673700335043"><ele>175.0</ele><time>2026-05-02T06:39:44.998Z</time></trkpt><trkpt lat="42.45789946067095" lon="14.111854842075275"><ele>175.0</ele><time>2026-05-02T06:39:45.998Z</time></trkpt><trkpt lat="42.45796203893112" lon="14.112035518309174"><ele>175.0</ele><time>2026-05-02T06:39:46.998Z</time></trkpt><trkpt lat="42.45799712316737" lon="14.11222414133351"><ele>175.0</ele><time>2026-05-02T06:39:47.998Z</time></trkpt><trkpt lat="42.458033899427605" lon="14.112411876235273"><ele>175.0</ele><time>2026-05-02T06:39:48.998Z</time></trkpt><trkpt lat="42.458069671217615" lon="14.112598828255937"><ele>175.0</ele><time>2026-05-02T06:39:49.998Z</time></trkpt><trkpt lat="42.45809241242745" lon="14.11277523249993"><ele>175.0</ele><time>2026-05-02T06:39:50.998Z</time></trkpt><trkpt lat="42.458099023056626" lon="14.112941360580162"><ele>175.0</ele><time>2026-05-02T06:39:51.998Z</time></trkpt><trkpt lat="42.4580779473376" lon="14.113098597568683"><ele>175.0</ele><time>2026-05-02T06:39:52.998Z</time></trkpt><trkpt lat="42.45803386253743" lon="14.113235985556235"><ele>175.75</ele><time>2026-05-02T06:39:53.998Z</time></trkpt><trkpt lat="42.45797115570327" lon="14.11341210427174"><ele>176.5</ele><time>2026-05-02T06:39:54.998Z</time></trkpt><trkpt lat="42.45791904343724" lon="14.113600593405387"><ele>177.25</ele><time>2026-05-02T06:39:55.998Z</time></trkpt><trkpt lat="42.4579032538018" lon="14.113795833029702"><ele>178.0</ele><time>2026-05-02T06:39:56.998Z</time></trkpt><trkpt lat="42.45789215452935" lon="14.113995695097467"><ele>175.5</ele><time>2026-05-02T06:39:57.998Z</time></trkpt><trkpt lat="42.457897124785575" lon="14.114195339722771"><ele>173.0</ele><time>2026-05-02T06:39:58.998Z</time></trkpt><trkpt lat="42.45789175353486" lon="14.114400202220061"><ele>170.5</ele><time>2026-05-02T06:39:59.998Z</time></trkpt><trkpt lat="42.45787734701407" lon="14.114587541337725"><ele>168.0</ele><time>2026-05-02T06:40:00.998Z</time></trkpt><trkpt lat="42.45785428740635" lon="14.11478072530319"><ele>167.75</ele><time>2026-05-02T06:40:01.998Z</time></trkpt><trkpt lat="42.45781343026207" lon="14.114943620945697"><ele>167.5</ele><time>2026-05-02T06:40:02.998Z</time></trkpt><trkpt lat="42.45778461967678" lon="14.115108450304827"><ele>167.25</ele><time>2026-05-02T06:40:03.998Z</time></trkpt><trkpt lat="42.457778489071686" lon="14.115267100873156"><ele>167.0</ele><time>2026-05-02T06:40:04.998Z</time></trkpt><trkpt lat="42.45775405293401" lon="14.115411177602905"><ele>167.0</ele><time>2026-05-02T06:40:05.998Z</time></trkpt><trkpt lat="42.45780221351636" lon="14.1155287584719"><ele>167.0</ele><time>2026-05-02T06:40:06.998Z</time></trkpt><trkpt lat="42.457879296843934" lon="14.115649610448363"><ele>167.0</ele><time>2026-05-02T06:40:07.998Z</time></trkpt><trkpt lat="42.45799417368605" lon="14.115770887468827"><ele>167.0</ele><time>2026-05-02T06:40:08.998Z</time></trkpt><trkpt lat="42.45813372709558" lon="14.11590969224413"><ele>167.0</ele><time>2026-05-02T06:40:09.998Z</time></trkpt><trkpt lat="42.45827634801929" lon="14.11606377883395"><ele>167.0</ele><time>2026-05-02T06:40:10.998Z</time></trkpt><trkpt lat="42.458413367026324" lon="14.11619464922417"><ele>167.0</ele><time>2026-05-02T06:40:11.998Z</time></trkpt><trkpt lat="42.45851605632945" lon="14.116356605762583"><ele>167.0</ele><time>2026-05-02T06:40:12.998Z</time></trkpt><trkpt lat="42.45863767873135" lon="14.116480901089949"><ele>167.0</ele><time>2026-05-02T06:40:13.998Z</time></trkpt><trkpt lat="42.45874038095904" lon="14.116622296908119"><ele>167.0</ele><time>2026-05-02T06:40:14.998Z</time></trkpt><trkpt lat="42.45887740803639" lon="14.116744432571293"><ele>165.66666666666666</ele><time>2026-05-02T06:40:15.998Z</time></trkpt><trkpt lat="42.459017010140975" lon="14.116849583182686"><ele>164.33333333333334</ele><time>2026-05-02T06:40:16.998Z</time></trkpt><trkpt lat="42.4591537573374" lon="14.116927464371908"><ele>163.0</ele><time>2026-05-02T06:40:17.998Z</time></trkpt><trkpt lat="42.459292682914096" lon="14.117044005092374"><ele>163.0</ele><time>2026-05-02T06:40:18.998Z</time></trkpt><trkpt lat="42.45944263819995" lon="14.117156702220248"><ele>163.0</ele><time>2026-05-02T06:40:19.998Z</time></trkpt><trkpt lat="42.45957210809855" lon="14.117282623312436"><ele>163.0</ele><time>2026-05-02T06:40:20.998Z</time></trkpt><trkpt lat="42.4597194252426" lon="14.11736815047633"><ele>162.25</ele><time>2026-05-02T06:40:21.998Z</time></trkpt><trkpt lat="42.45986299239716" lon="14.117456367385515"><ele>161.5</ele><time>2026-05-02T06:40:22.998Z</time></trkpt><trkpt lat="42.459982805576175" lon="14.11757861636347"><ele>160.75</ele><time>2026-05-02T06:40:23.998Z</time></trkpt><trkpt lat="42.460101562667894" lon="14.11767761191198"><ele>160.0</ele><time>2026-05-02T06:40:24.998Z</time></trkpt><trkpt lat="42.460223612974936" lon="14.117755549463622"><ele>160.0</ele><time>2026-05-02T06:40:25.998Z</time></trkpt><trkpt lat="42.46033148014229" lon="14.1178576751439"><ele>160.0</ele><time>2026-05-02T06:40:26.998Z</time></trkpt><trkpt lat="42.46041477792612" lon="14.117987878584682"><ele>160.0</ele><time>2026-05-02T06:40:27.998Z</time></trkpt><trkpt lat="42.46046766481375" lon="14.118123534247879"><ele>160.0</ele><time>2026-05-02T06:40:28.998Z</time></trkpt><trkpt lat="42.460486608181874" lon="14.118295059609645"><ele>160.33333333333334</ele><time>2026-05-02T06:40:29.998Z</time></trkpt><trkpt lat="42.46047912126936" lon="14.118493791770243"><ele>160.66666666666666</ele><time>2026-05-02T06:40:30.998Z</time></trkpt><trkpt lat="42.460446334746514" lon="14.118716919651256"><ele>161.0</ele><time>2026-05-02T06:40:31.998Z</time></trkpt><trkpt lat="42.46039501103213" lon="14.118909994125012"><ele>160.8</ele><time>2026-05-02T06:40:32.998Z</time></trkpt><trkpt lat="42.46034004150735" lon="14.119085721868153"><ele>160.60000000000002</ele><time>2026-05-02T06:40:33.998Z</time></trkpt><trkpt lat="42.460286341124956" lon="14.119238580040935"><ele>160.4</ele><time>2026-05-02T06:40:34.998Z</time></trkpt><trkpt lat="42.460251973035" lon="14.119356089003345"><ele>160.2</ele><time>2026-05-02T06:40:35.998Z</time></trkpt><trkpt lat="42.46019927937364" lon="14.119440411462614"><ele>160.0</ele><time>2026-05-02T06:40:36.998Z</time></trkpt><trkpt lat="42.46016842501518" lon="14.119524190193479"><ele>160.0</ele><time>2026-05-02T06:40:37.998Z</time></trkpt><trkpt lat="42.46011298489066" lon="14.119633385410982"><ele>160.0</ele><time>2026-05-02T06:40:38.998Z</time></trkpt><trkpt lat="42.46003693424989" lon="14.119658165624177"><ele>160.0</ele><time>2026-05-02T06:40:39.998Z</time></trkpt><trkpt lat="42.459981532261104" lon="14.11970392434926"><ele>160.0</ele><time>2026-05-02T06:40:40.998Z</time></trkpt><trkpt lat="42.45991653248925" lon="14.11974776902577"><ele>160.0</ele><time>2026-05-02T06:40:41.998Z</time></trkpt><trkpt lat="42.459861509228446" lon="14.119821502025202"><ele>160.0</ele><time>2026-05-02T06:40:42.997Z</time></trkpt><trkpt lat="42.45982674327374" lon="14.119918481365906"><ele>160.0</ele><time>2026-05-02T06:40:43.997Z</time></trkpt><trkpt lat="42.45983374142039" lon="14.1200429768055"><ele>160.0</ele><time>2026-05-02T06:40:44.997Z</time></trkpt><trkpt lat="42.459754524480395" lon="14.120137192530036"><ele>160.0</ele><time>2026-05-02T06:40:45.997Z</time></trkpt><trkpt lat="42.45967090508843" lon="14.120215502384257"><ele>160.0</ele><time>2026-05-02T06:40:46.997Z</time></trkpt><trkpt lat="42.4595729916338" lon="14.120315607895767"><ele>160.0</ele><time>2026-05-02T06:40:47.997Z</time></trkpt><trkpt lat="42.45946051696569" lon="14.1204283677581"><ele>160.0</ele><time>2026-05-02T06:40:48.997Z</time></trkpt><trkpt lat="42.45934974724146" lon="14.120567712882778"><ele>160.0</ele><time>2026-05-02T06:40:49.997Z</time></trkpt><trkpt lat="42.459226113611294" lon="14.120668073619347"><ele>160.0</ele><time>2026-05-02T06:40:50.997Z</time></trkpt><trkpt lat="42.45912101856497" lon="14.120781577822584"><ele>160.0</ele><time>2026-05-02T06:40:51.997Z</time></trkpt><trkpt lat="42.4590241347771" lon="14.120886213669602"><ele>160.0</ele><time>2026-05-02T06:40:52.997Z</time></trkpt><trkpt lat="42.45893947943068" lon="14.121002030083025"><ele>160.0</ele><time>2026-05-02T06:40:53.997Z</time></trkpt><trkpt lat="42.458866551645016" lon="14.121060087492163"><ele>160.0</ele><time>2026-05-02T06:40:54.997Z</time></trkpt><trkpt lat="42.45878158547132" lon="14.120988764592457"><ele>160.0</ele><time>2026-05-02T06:40:58.997Z</time></trkpt><trkpt lat="42.45872968680986" lon="14.120907493071424"><ele>160.0</ele><time>2026-05-02T06:40:59.997Z</time></trkpt><trkpt lat="42.45866136653154" lon="14.120838449696361"><ele>160.16666666666669</ele><time>2026-05-02T06:41:00.997Z</time></trkpt><trkpt lat="42.45860632460629" lon="14.120787088284157"><ele>160.33333333333334</ele><time>2026-05-02T06:41:01.997Z</time></trkpt><trkpt lat="42.45851923595262" lon="14.120753883572235"><ele>160.5</ele><time>2026-05-02T06:41:02.997Z</time></trkpt><trkpt lat="42.45850838749354" lon="14.120620968960383"><ele>160.66666666666666</ele><time>2026-05-02T06:41:03.997Z</time></trkpt><trkpt lat="42.45841142666281" lon="14.120513359000379"><ele>160.83333333333331</ele><time>2026-05-02T06:41:05.997Z</time></trkpt><trkpt lat="42.458357990692214" lon="14.120458240555704"><ele>161.0</ele><time>2026-05-02T06:41:06.997Z</time></trkpt><trkpt lat="42.45829192772896" lon="14.120391579998087"><ele>159.20000000000002</ele><time>2026-05-02T06:41:07.997Z</time></trkpt><trkpt lat="42.458232047571414" lon="14.120331157865012"><ele>157.4</ele><time>2026-05-02T06:41:08.997Z</time></trkpt><trkpt lat="42.458172197549814" lon="14.120293630932395"><ele>155.6</ele><time>2026-05-02T06:41:09.997Z</time></trkpt><trkpt lat="42.45809716260326" lon="14.12018574228308"><ele>153.8</ele><time>2026-05-02T06:41:11.997Z</time></trkpt><trkpt lat="42.45802637144427" lon="14.120021976499654"><ele>152.0</ele><time>2026-05-02T06:41:13.997Z</time></trkpt><trkpt lat="42.457964080633744" lon="14.119969528525127"><ele>150.33333333333331</ele><time>2026-05-02T06:41:14.997Z</time></trkpt><trkpt lat="42.4578904433488" lon="14.119903572975225"><ele>148.66666666666666</ele><time>2026-05-02T06:41:15.997Z</time></trkpt><trkpt lat="42.45781584307227" lon="14.119820814591368"><ele>147.0</ele><time>2026-05-02T06:41:16.997Z</time></trkpt><trkpt lat="42.4577550174554" lon="14.119746944725415"><ele>145.33333333333334</ele><time>2026-05-02T06:41:17.997Z</time></trkpt><trkpt lat="42.45770571466003" lon="14.119629337079468"><ele>143.66666666666669</ele><time>2026-05-02T06:41:18.997Z</time></trkpt><trkpt lat="42.45764558322681" lon="14.11956358063294"><ele>142.0</ele><time>2026-05-02T06:41:19.997Z</time></trkpt><trkpt lat="42.45759095516706" lon="14.119496235947347"><ele>140.0</ele><time>2026-05-02T06:41:20.997Z</time></trkpt><trkpt lat="42.457544518874066" lon="14.119428019499844"><ele>138.0</ele><time>2026-05-02T06:41:21.997Z</time></trkpt><trkpt lat="42.457482124577105" lon="14.119374344190822"><ele>136.0</ele><time>2026-05-02T06:41:22.997Z</time></trkpt><trkpt lat="42.457406752394036" lon="14.11930892719167"><ele>134.0</ele><time>2026-05-02T06:41:24.997Z</time></trkpt><trkpt lat="42.45729961383317" lon="14.119292336644932"><ele>132.0</ele><time>2026-05-02T06:41:26.997Z</time></trkpt><trkpt lat="42.45717629944539" lon="14.119286257948602"><ele>130.66666666666666</ele><time>2026-05-02T06:41:28.997Z</time></trkpt><trkpt lat="42.45710474499005" lon="14.119285256588725"><ele>129.33333333333334</ele><time>2026-05-02T06:41:29.997Z</time></trkpt><trkpt lat="42.457029216972444" lon="14.119270075495221"><ele>128.0</ele><time>2026-05-02T06:41:30.997Z</time></trkpt><trkpt lat="42.456914444363505" lon="14.119297115247777"><ele>126.66666666666667</ele><time>2026-05-02T06:41:32.997Z</time></trkpt><trkpt lat="42.456827635657696" lon="14.119313493058216"><ele>125.33333333333334</ele><time>2026-05-02T06:41:34.997Z</time></trkpt><trkpt lat="42.456765360901144" lon="14.11932821868992"><ele>124.0</ele><time>2026-05-02T06:41:35.997Z</time></trkpt><trkpt lat="42.45670164927553" lon="14.119327792009262"><ele>124.00000000000001</ele><time>2026-05-02T06:41:36.997Z</time></trkpt><trkpt lat="42.45663171295847" lon="14.119339147330598"><ele>124.0</ele><time>2026-05-02T06:41:37.997Z</time></trkpt><trkpt lat="42.45652764656864" lon="14.119368542395438"><ele>124.0</ele><time>2026-05-02T06:41:39.997Z</time></trkpt><trkpt lat="42.456433416940506" lon="14.119370604704983"><ele>124.0</ele><time>2026-05-02T06:41:41.997Z</time></trkpt><trkpt lat="42.456339737603685" lon="14.119344698515647"><ele>124.00000000000001</ele><time>2026-05-02T06:41:43.997Z</time></trkpt><trkpt lat="42.45626185788434" lon="14.119333027409791"><ele>124.0</ele><time>2026-05-02T06:41:45.997Z</time></trkpt><trkpt lat="42.45619029924125" lon="14.119342110622329"><ele>123.16666666666667</ele><time>2026-05-02T06:41:46.997Z</time></trkpt><trkpt lat="42.45611510861549" lon="14.119322493443427"><ele>122.33333333333334</ele><time>2026-05-02T06:41:48.997Z</time></trkpt><trkpt lat="42.45603917668095" lon="14.119301461628028"><ele>121.5</ele><time>2026-05-02T06:41:50.997Z</time></trkpt><trkpt lat="42.45595686935092" lon="14.119291541918084"><ele>120.66666666666666</ele><time>2026-05-02T06:41:52.997Z</time></trkpt><trkpt lat="42.45589405753582" lon="14.119259034744378"><ele>119.83333333333333</ele><time>2026-05-02T06:41:55.997Z</time></trkpt><trkpt lat="42.455791852810194" lon="14.119222618427376"><ele>119.0</ele><time>2026-05-02T06:41:57.997Z</time></trkpt><trkpt lat="42.455707784544174" lon="14.119197813038879"><ele>118.99999999999999</ele><time>2026-05-02T06:42:00.997Z</time></trkpt><trkpt lat="42.455626843423104" lon="14.11919175127735"><ele>119.0</ele><time>2026-05-02T06:42:03.997Z</time></trkpt><trkpt lat="42.455555792639" lon="14.119200521139934"><ele>119.0</ele><time>2026-05-02T06:42:06.997Z</time></trkpt><trkpt lat="42.45548101613204" lon="14.119209167893864"><ele>119.0</ele><time>2026-05-02T06:42:09.997Z</time></trkpt><trkpt lat="42.45539434257122" lon="14.11916200535191"><ele>118.99999999999999</ele><time>2026-05-02T06:42:12.997Z</time></trkpt><trkpt lat="42.455294287932325" lon="14.119211841517204"><ele>119.0</ele><time>2026-05-02T06:42:16.997Z</time></trkpt><trkpt lat="42.455229058203564" lon="14.119224880354592"><ele>118.28571428571428</ele><time>2026-05-02T06:42:18.997Z</time></trkpt><trkpt lat="42.455162749148656" lon="14.11921665017695"><ele>117.57142857142857</ele><time>2026-05-02T06:42:20.997Z</time></trkpt><trkpt lat="42.45508878865867" lon="14.119188669040392"><ele>116.85714285714286</ele><time>2026-05-02T06:42:23.997Z</time></trkpt><trkpt lat="42.45500610298483" lon="14.11919081078674"><ele>116.14285714285714</ele><time>2026-05-02T06:42:26.997Z</time></trkpt><trkpt lat="42.45494167269165" lon="14.1191478882994"><ele>115.42857142857142</ele><time>2026-05-02T06:42:29.997Z</time></trkpt><trkpt lat="42.45488850675422" lon="14.119100687297625"><ele>114.71428571428571</ele><time>2026-05-02T06:42:31.997Z</time></trkpt><trkpt lat="42.45482491024142" lon="14.119048091719703"><ele>114.0</ele><time>2026-05-02T06:42:35.996Z</time></trkpt><trkpt lat="42.45482424663633" lon="14.11889787837665"><ele>113.4</ele><time>2026-05-02T06:42:41.996Z</time></trkpt><trkpt lat="42.45483515978941" lon="14.118777867133506"><ele>112.80000000000001</ele><time>2026-05-02T06:42:43.996Z</time></trkpt><trkpt lat="42.45485358953949" lon="14.11859171486229"><ele>112.19999999999999</ele><time>2026-05-02T06:42:45.996Z</time></trkpt><trkpt lat="42.45487097803479" lon="14.118484473001898"><ele>111.6</ele><time>2026-05-02T06:42:46.996Z</time></trkpt><trkpt lat="42.45487611591069" lon="14.118373097793638"><ele>111.0</ele><time>2026-05-02T06:42:47.996Z</time></trkpt><trkpt lat="42.45488666283562" lon="14.118276123475386"><ele>111.83333333333333</ele><time>2026-05-02T06:42:48.996Z</time></trkpt><trkpt lat="42.454907963292364" lon="14.118172565571815"><ele>112.66666666666666</ele><time>2026-05-02T06:42:49.996Z</time></trkpt><trkpt lat="42.454930673864745" lon="14.118091815927368"><ele>113.5</ele><time>2026-05-02T06:42:50.996Z</time></trkpt><trkpt lat="42.45495346247216" lon="14.118009782034349"><ele>114.33333333333333</ele><time>2026-05-02T06:42:51.996Z</time></trkpt><trkpt lat="42.4549698628279" lon="14.117906284989383"><ele>115.16666666666666</ele><time>2026-05-02T06:42:52.996Z</time></trkpt><trkpt lat="42.45498468470237" lon="14.117785361549004"><ele>116.0</ele><time>2026-05-02T06:42:53.996Z</time></trkpt><trkpt lat="42.454995167451386" lon="14.117654269632435"><ele>116.0</ele><time>2026-05-02T06:42:54.996Z</time></trkpt><trkpt lat="42.455002978714134" lon="14.117523533261926"><ele>116.0</ele><time>2026-05-02T06:42:55.996Z</time></trkpt><trkpt lat="42.45500228940969" lon="14.117427338348458"><ele>116.0</ele><time>2026-05-02T06:42:56.996Z</time></trkpt><trkpt lat="42.4549833276322" lon="14.11728540365092"><ele>116.0</ele><time>2026-05-02T06:42:58.996Z</time></trkpt><trkpt lat="42.454919979822265" lon="14.117217683532253"><ele>116.0</ele><time>2026-05-02T06:43:00.996Z</time></trkpt><trkpt lat="42.45481130700153" lon="14.117195319179533"><ele>117.16666666666666</ele><time>2026-05-02T06:43:02.996Z</time></trkpt><trkpt lat="42.45474947871257" lon="14.11716844075137"><ele>118.33333333333333</ele><time>2026-05-02T06:43:03.996Z</time></trkpt><trkpt lat="42.45467986305444" lon="14.117132286111543"><ele>119.5</ele><time>2026-05-02T06:43:04.996Z</time></trkpt><trkpt lat="42.45459856056395" lon="14.117106146084586"><ele>120.66666666666666</ele><time>2026-05-02T06:43:05.996Z</time></trkpt><trkpt lat="42.454523470036115" lon="14.11709702848559"><ele>121.83333333333333</ele><time>2026-05-02T06:43:06.996Z</time></trkpt><trkpt lat="42.45444237382952" lon="14.117070893068783"><ele>123.0</ele><time>2026-05-02T06:43:07.996Z</time></trkpt><trkpt lat="42.454363174174865" lon="14.117050082827877"><ele>123.4</ele><time>2026-05-02T06:43:08.996Z</time></trkpt><trkpt lat="42.454280205719584" lon="14.117037962192745"><ele>123.80000000000001</ele><time>2026-05-02T06:43:09.996Z</time></trkpt><trkpt lat="42.45419779727332" lon="14.11702365228686"><ele>124.2</ele><time>2026-05-02T06:43:10.996Z</time></trkpt><trkpt lat="42.45410655476477" lon="14.11700394458018"><ele>124.6</ele><time>2026-05-02T06:43:11.996Z</time></trkpt><trkpt lat="42.454006559167404" lon="14.11697709012914"><ele>125.0</ele><time>2026-05-02T06:43:12.996Z</time></trkpt><trkpt lat="42.45391644607425" lon="14.11695500257415"><ele>124.99999999999999</ele><time>2026-05-02T06:43:13.996Z</time></trkpt><trkpt lat="42.45383748970568" lon="14.116933024877678"><ele>125.0</ele><time>2026-05-02T06:43:14.996Z</time></trkpt><trkpt lat="42.45376611937736" lon="14.116924295512696"><ele>125.0</ele><time>2026-05-02T06:43:15.996Z</time></trkpt><trkpt lat="42.4536604841366" lon="14.116928034867152"><ele>125.0</ele><time>2026-05-02T06:43:17.996Z</time></trkpt><trkpt lat="42.45358119532741" lon="14.116946978527883"><ele>124.99999999999999</ele><time>2026-05-02T06:43:19.996Z</time></trkpt><trkpt lat="42.453520816606826" lon="14.116971753284247"><ele>125.0</ele><time>2026-05-02T06:43:20.996Z</time></trkpt><trkpt lat="42.453437204782766" lon="14.117038671415834"><ele>125.33333333333333</ele><time>2026-05-02T06:43:21.996Z</time></trkpt><trkpt lat="42.45336022351461" lon="14.117112133311114"><ele>125.66666666666666</ele><time>2026-05-02T06:43:22.996Z</time></trkpt><trkpt lat="42.45328208738299" lon="14.117164243347716"><ele>126.0</ele><time>2026-05-02T06:43:23.996Z</time></trkpt><trkpt lat="42.45321367604882" lon="14.117216688325982"><ele>126.33333333333334</ele><time>2026-05-02T06:43:24.996Z</time></trkpt><trkpt lat="42.45314858562773" lon="14.117247576134302"><ele>126.66666666666667</ele><time>2026-05-02T06:43:25.996Z</time></trkpt><trkpt lat="42.45306664138282" lon="14.117272099222092"><ele>127.0</ele><time>2026-05-02T06:43:26.996Z</time></trkpt><trkpt lat="42.452987622391646" lon="14.117274665693943"><ele>127.50000000000001</ele><time>2026-05-02T06:43:27.996Z</time></trkpt><trkpt lat="42.452910429516" lon="14.117257230427583"><ele>128.0</ele><time>2026-05-02T06:43:28.996Z</time></trkpt><trkpt lat="42.45282960234104" lon="14.117267079748693"><ele>128.5</ele><time>2026-05-02T06:43:29.996Z</time></trkpt><trkpt lat="42.45275781858487" lon="14.11727255640127"><ele>129.0</ele><time>2026-05-02T06:43:30.996Z</time></trkpt><trkpt lat="42.452691386319465" lon="14.117263725216857"><ele>129.5</ele><time>2026-05-02T06:43:31.996Z</time></trkpt><trkpt lat="42.45259801000751" lon="14.117212216496288"><ele>130.0</ele><time>2026-05-02T06:43:34Z</time></trkpt><trkpt lat="42.452529348526994" lon="14.1170714830026"><ele>130.0</ele><time>2026-05-02T06:43:36Z</time></trkpt><trkpt lat="42.45248534960746" lon="14.11697977721792"><ele>130.0</ele><time>2026-05-02T06:43:37Z</time></trkpt><trkpt lat="42.45243128097875" lon="14.116838213934209"><ele>130.0</ele><time>2026-05-02T06:43:38Z</time></trkpt><trkpt lat="42.45236222472762" lon="14.116702939934465"><ele>130.0</ele><time>2026-05-02T06:43:39Z</time></trkpt><trkpt lat="42.45228568022417" lon="14.11657905582579"><ele>130.0</ele><time>2026-05-02T06:43:40Z</time></trkpt><trkpt lat="42.45219658234974" lon="14.116479810906979"><ele>131.4</ele><time>2026-05-02T06:43:41Z</time></trkpt><trkpt lat="42.452120456173745" lon="14.116405591003886"><ele>132.8</ele><time>2026-05-02T06:43:42Z</time></trkpt><trkpt lat="42.452036110557394" lon="14.116353046773817"><ele>134.2</ele><time>2026-05-02T06:43:43Z</time></trkpt><trkpt lat="42.4519600141974" lon="14.116324873612882"><ele>135.6</ele><time>2026-05-02T06:43:44Z</time></trkpt><trkpt lat="42.45186651016468" lon="14.1163138743615"><ele>137.0</ele><time>2026-05-02T06:43:45Z</time></trkpt><trkpt lat="42.451770004089965" lon="14.116303296265253"><ele>137.0</ele><time>2026-05-02T06:43:46Z</time></trkpt><trkpt lat="42.45169634197347" lon="14.116310731404317"><ele>137.0</ele><time>2026-05-02T06:43:47Z</time></trkpt><trkpt lat="42.451624834209035" lon="14.116320909248406"><ele>137.0</ele><time>2026-05-02T06:43:48Z</time></trkpt><trkpt lat="42.45155151715757" lon="14.116330921560873"><ele>137.0</ele><time>2026-05-02T06:43:49Z</time></trkpt><trkpt lat="42.45147884208557" lon="14.116344293458496"><ele>137.0</ele><time>2026-05-02T06:43:50Z</time></trkpt><trkpt lat="42.45139775830824" lon="14.116336742379698"><ele>137.0</ele><time>2026-05-02T06:43:51Z</time></trkpt><trkpt lat="42.451321420565336" lon="14.116316000591933"><ele>134.2857142857143</ele><time>2026-05-02T06:43:52Z</time></trkpt><trkpt lat="42.45126033376246" lon="14.116288981667484"><ele>131.57142857142858</ele><time>2026-05-02T06:43:53Z</time></trkpt><trkpt lat="42.451173693142195" lon="14.116222756783564"><ele>128.85714285714286</ele><time>2026-05-02T06:43:55Z</time></trkpt><trkpt lat="42.45111551867956" lon="14.116180422765554"><ele>126.14285714285715</ele><time>2026-05-02T06:43:57Z</time></trkpt><trkpt lat="42.451029541163315" lon="14.116160443057808"><ele>123.42857142857144</ele><time>2026-05-02T06:43:59Z</time></trkpt><trkpt lat="42.45096587666869" lon="14.116177375175619"><ele>120.71428571428571</ele><time>2026-05-02T06:44:00Z</time></trkpt><trkpt lat="42.45090878251009" lon="14.116213809016639"><ele>118.0</ele><time>2026-05-02T06:44:01Z</time></trkpt><trkpt lat="42.450843427952805" lon="14.11624981485299"><ele>118.00000000000001</ele><time>2026-05-02T06:44:02Z</time></trkpt><trkpt lat="42.45078031049818" lon="14.116282140566538"><ele>118.0</ele><time>2026-05-02T06:44:03Z</time></trkpt><trkpt lat="42.45071598913291" lon="14.116312717556267"><ele>118.0</ele><time>2026-05-02T06:44:04Z</time></trkpt><trkpt lat="42.45064702155108" lon="14.11636028812079"><ele>118.0</ele><time>2026-05-02T06:44:05Z</time></trkpt><trkpt lat="42.450544812580695" lon="14.116417216867573"><ele>118.00000000000001</ele><time>2026-05-02T06:44:07Z</time></trkpt><trkpt lat="42.45046479190012" lon="14.116485164410088"><ele>118.0</ele><time>2026-05-02T06:44:09Z</time></trkpt><trkpt lat="42.45037299821297" lon="14.116593724057575"><ele>116.16666666666667</ele><time>2026-05-02T06:44:11Z</time></trkpt><trkpt lat="42.45032039419496" lon="14.116647459072936"><ele>114.33333333333334</ele><time>2026-05-02T06:44:12Z</time></trkpt><trkpt lat="42.450246274450336" lon="14.116715171258608"><ele>112.5</ele><time>2026-05-02T06:44:14Z</time></trkpt><trkpt lat="42.45017881601073" lon="14.116782902088527"><ele>110.66666666666666</ele><time>2026-05-02T06:44:16Z</time></trkpt><trkpt lat="42.450079898727616" lon="14.116891981892907"><ele>108.83333333333333</ele><time>2026-05-02T06:44:18Z</time></trkpt><trkpt lat="42.45002743648359" lon="14.116941490034373"><ele>107.0</ele><time>2026-05-02T06:44:19Z</time></trkpt><trkpt lat="42.44997011589199" lon="14.116990718773314"><ele>106.99999999999999</ele><time>2026-05-02T06:44:20Z</time></trkpt><trkpt lat="42.44984682105973" lon="14.117076529697469"><ele>107.0</ele><time>2026-05-02T06:44:22Z</time></trkpt><trkpt lat="42.44977728151955" lon="14.117119030424632"><ele>107.0</ele><time>2026-05-02T06:44:23Z</time></trkpt><trkpt lat="42.44971008152395" lon="14.117151219118291"><ele>107.0</ele><time>2026-05-02T06:44:24Z</time></trkpt><trkpt lat="42.4496380549967" lon="14.117173430098248"><ele>106.99999999999999</ele><time>2026-05-02T06:44:25Z</time></trkpt><trkpt lat="42.44956339091768" lon="14.117178421679009"><ele>107.0</ele><time>2026-05-02T06:44:26Z</time></trkpt><trkpt lat="42.44947413960208" lon="14.117189895425364"><ele>104.5</ele><time>2026-05-02T06:44:27Z</time></trkpt><trkpt lat="42.44936429091283" lon="14.117177145823815"><ele>102.0</ele><time>2026-05-02T06:44:28Z</time></trkpt><trkpt lat="42.44925570360457" lon="14.117152437651379"><ele>99.5</ele><time>2026-05-02T06:44:29Z</time></trkpt><trkpt lat="42.449141400354435" lon="14.117115776245223"><ele>97.0</ele><time>2026-05-02T06:44:30Z</time></trkpt><trkpt lat="42.449028846061324" lon="14.117096516439839"><ele>97.00000000000001</ele><time>2026-05-02T06:44:31Z</time></trkpt><trkpt lat="42.448955942409484" lon="14.117078577015294"><ele>97.0</ele><time>2026-05-02T06:44:32Z</time></trkpt><trkpt lat="42.44885908548822" lon="14.117071140076098"><ele>97.0</ele><time>2026-05-02T06:44:34Z</time></trkpt><trkpt lat="42.44879468671611" lon="14.117069310716793"><ele>97.0</ele><time>2026-05-02T06:44:37Z</time></trkpt><trkpt lat="42.448710067968456" lon="14.11706398190162"><ele>97.00000000000001</ele><time>2026-05-02T06:45:00.999Z</time></trkpt><trkpt lat="42.448628057740116" lon="14.117097395939007"><ele>97.0</ele><time>2026-05-02T06:45:26.999Z</time></trkpt><trkpt lat="42.44856936942072" lon="14.117138078031774"><ele>96.6</ele><time>2026-05-02T06:45:28.999Z</time></trkpt><trkpt lat="42.44853760176059" lon="14.117220494884714"><ele>96.19999999999999</ele><time>2026-05-02T06:45:31.999Z</time></trkpt><trkpt lat="42.448515904875045" lon="14.117447661729846"><ele>95.8</ele><time>2026-05-02T06:45:34.999Z</time></trkpt><trkpt lat="42.44850996305751" lon="14.11754564977929"><ele>95.4</ele><time>2026-05-02T06:45:35.999Z</time></trkpt><trkpt lat="42.44850930094819" lon="14.117641101939036"><ele>95.0</ele><time>2026-05-02T06:45:36.999Z</time></trkpt><trkpt lat="42.448509084987904" lon="14.11777424667712"><ele>93.8</ele><time>2026-05-02T06:45:38.999Z</time></trkpt><trkpt lat="42.448543331721496" lon="14.117940125319215"><ele>92.6</ele><time>2026-05-02T06:45:40.999Z</time></trkpt><trkpt lat="42.44855122616403" lon="14.118087979702631"><ele>91.4</ele><time>2026-05-02T06:45:42.999Z</time></trkpt><trkpt lat="42.44852511713904" lon="14.118179843037318"><ele>90.2</ele><time>2026-05-02T06:45:44.999Z</time></trkpt><trkpt lat="42.44852933456781" lon="14.118305971504752"><ele>89.0</ele><time>2026-05-02T06:45:46.999Z</time></trkpt><trkpt lat="42.448539408314595" lon="14.118440970040965"><ele>89.0</ele><time>2026-05-02T06:45:48.999Z</time></trkpt><trkpt lat="42.44856467744931" lon="14.118562274793742"><ele>89.0</ele><time>2026-05-02T06:45:50.999Z</time></trkpt><trkpt lat="42.44857696678162" lon="14.118703590858596"><ele>89.0</ele><time>2026-05-02T06:45:52.999Z</time></trkpt><trkpt lat="42.448592487912265" lon="14.11882406967631"><ele>89.0</ele><time>2026-05-02T06:45:54.999Z</time></trkpt><trkpt lat="42.44863261637923" lon="14.118892653327451"><ele>89.0</ele><time>2026-05-02T06:46:36.999Z</time></trkpt><trkpt lat="42.4486474044766" lon="14.118976564775481"><ele>89.0</ele><time>2026-05-02T06:46:41.999Z</time></trkpt><trkpt lat="42.44864386182878" lon="14.11907336236119"><ele>90.16666666666667</ele><time>2026-05-02T06:46:46.998Z</time></trkpt><trkpt lat="42.448655613163226" lon="14.119201863210657"><ele>91.33333333333334</ele><time>2026-05-02T06:47:25.998Z</time></trkpt><trkpt lat="42.44865714445361" lon="14.119297305162736"><ele>92.5</ele><time>2026-05-02T06:47:26.998Z</time></trkpt><trkpt lat="42.44865601255577" lon="14.119390559296276"><ele>93.66666666666667</ele><time>2026-05-02T06:47:27.998Z</time></trkpt><trkpt lat="42.44865650957506" lon="14.11948109567018"><ele>94.83333333333333</ele><time>2026-05-02T06:47:28.998Z</time></trkpt><trkpt lat="42.448657880720965" lon="14.119567681398532"><ele>96.0</ele><time>2026-05-02T06:47:29.998Z</time></trkpt><trkpt lat="42.44866795654816" lon="14.119698786162475"><ele>96.0</ele><time>2026-05-02T06:47:31.997Z</time></trkpt><trkpt lat="42.448672759687675" lon="14.11981854006591"><ele>96.0</ele><time>2026-05-02T06:47:33.997Z</time></trkpt><trkpt lat="42.44867755233986" lon="14.119917103575274"><ele>96.0</ele><time>2026-05-02T06:47:35.997Z</time></trkpt><trkpt lat="42.44866395853203" lon="14.120035124934304"><ele>96.0</ele><time>2026-05-02T06:47:44.997Z</time></trkpt><trkpt lat="42.4486664565041" lon="14.12016816262347"><ele>96.0</ele><time>2026-05-02T06:47:48.997Z</time></trkpt><trkpt lat="42.44866689790188" lon="14.12026187388196"><ele>96.0</ele><time>2026-05-02T06:47:50.997Z</time></trkpt><trkpt lat="42.448681881737784" lon="14.120353858340712"><ele>97.66666666666667</ele><time>2026-05-02T06:47:59.997Z</time></trkpt><trkpt lat="42.44869303301985" lon="14.120441298301403"><ele>99.33333333333334</ele><time>2026-05-02T06:48:07.997Z</time></trkpt><trkpt lat="42.44870392546407" lon="14.120531856521795"><ele>101.0</ele><time>2026-05-02T06:48:10.997Z</time></trkpt><trkpt lat="42.448708473135646" lon="14.120628052379447"><ele>102.66666666666667</ele><time>2026-05-02T06:48:13.997Z</time></trkpt><trkpt lat="42.448714659382965" lon="14.120734257721455"><ele>104.33333333333334</ele><time>2026-05-02T06:48:16.997Z</time></trkpt><trkpt lat="42.44870731533728" lon="14.120851301614369"><ele>106.0</ele><time>2026-05-02T06:48:18.997Z</time></trkpt><trkpt lat="42.44869522146716" lon="14.12097563939131"><ele>108.00000000000001</ele><time>2026-05-02T06:48:20.997Z</time></trkpt><trkpt lat="42.448685974130385" lon="14.121101028566658"><ele>110.0</ele><time>2026-05-02T06:48:22.997Z</time></trkpt><trkpt lat="42.44868080775272" lon="14.121217543960672"><ele>112.0</ele><time>2026-05-02T06:48:24.997Z</time></trkpt><trkpt lat="42.44867295332239" lon="14.12131160173562"><ele>114.0</ele><time>2026-05-02T06:48:26.997Z</time></trkpt><trkpt lat="42.448661158282235" lon="14.12143819348079"><ele>116.00000000000001</ele><time>2026-05-02T06:48:28.997Z</time></trkpt><trkpt lat="42.448669385122834" lon="14.121565880829785"><ele>118.0</ele><time>2026-05-02T06:48:30.997Z</time></trkpt><trkpt lat="42.44867965865521" lon="14.121671665000841"><ele>119.50000000000001</ele><time>2026-05-02T06:48:32.996Z</time></trkpt><trkpt lat="42.44869343779477" lon="14.12180084950043"><ele>121.0</ele><time>2026-05-02T06:48:34.996Z</time></trkpt><trkpt lat="42.448713796747036" lon="14.121969186679557"><ele>122.5</ele><time>2026-05-02T06:48:36.996Z</time></trkpt><trkpt lat="42.448728926309236" lon="14.122064919259746"><ele>124.0</ele><time>2026-05-02T06:48:37.996Z</time></trkpt><trkpt lat="42.4487427373759" lon="14.122168289953592"><ele>125.50000000000001</ele><time>2026-05-02T06:48:38.996Z</time></trkpt><trkpt lat="42.44876735417326" lon="14.12225376675826"><ele>127.0</ele><time>2026-05-02T06:48:39.996Z</time></trkpt><trkpt lat="42.44878769557754" lon="14.122336888233047"><ele>127.6</ele><time>2026-05-02T06:48:40.996Z</time></trkpt><trkpt lat="42.44883670872522" lon="14.122454182518009"><ele>128.2</ele><time>2026-05-02T06:48:42.996Z</time></trkpt><trkpt lat="42.44885181553035" lon="14.122549691169986"><ele>128.8</ele><time>2026-05-02T06:48:46.996Z</time></trkpt><trkpt lat="42.44882363496028" lon="14.12263137330952"><ele>129.4</ele><time>2026-05-02T06:48:52.996Z</time></trkpt><trkpt lat="42.44869919999545" lon="14.122590752351998"><ele>130.0</ele><time>2026-05-02T06:48:54.996Z</time></trkpt><trkpt lat="42.44861391101115" lon="14.122547692149345"><ele>130.0</ele><time>2026-05-02T06:48:55.996Z</time></trkpt><trkpt lat="42.448512930039165" lon="14.122485364373137"><ele>130.0</ele><time>2026-05-02T06:48:56.996Z</time></trkpt><trkpt lat="42.44839411917679" lon="14.122424485105105"><ele>130.0</ele><time>2026-05-02T06:48:57.996Z</time></trkpt><trkpt lat="42.44828287564701" lon="14.122352173000953"><ele>130.0</ele><time>2026-05-02T06:48:58.996Z</time></trkpt><trkpt lat="42.44815992733691" lon="14.122284223704458"><ele>129.25</ele><time>2026-05-02T06:48:59.996Z</time></trkpt><trkpt lat="42.448054039585095" lon="14.12219688609951"><ele>128.5</ele><time>2026-05-02T06:49:00.996Z</time></trkpt><trkpt lat="42.44794157223353" lon="14.122127556273911"><ele>127.75</ele><time>2026-05-02T06:49:01.996Z</time></trkpt><trkpt lat="42.44781556969623" lon="14.122044990796388"><ele>127.0</ele><time>2026-05-02T06:49:02.996Z</time></trkpt><trkpt lat="42.44769601000495" lon="14.121966225756324"><ele>128.33333333333334</ele><time>2026-05-02T06:49:03.996Z</time></trkpt><trkpt lat="42.447596942135156" lon="14.121904488011944"><ele>129.66666666666669</ele><time>2026-05-02T06:49:04.996Z</time></trkpt><trkpt lat="42.447517143488" lon="14.121856308138675"><ele>131.0</ele><time>2026-05-02T06:49:05.996Z</time></trkpt><trkpt lat="42.447444168268035" lon="14.121820409245057"><ele>132.33333333333334</ele><time>2026-05-02T06:49:06.996Z</time></trkpt><trkpt lat="42.44737812446689" lon="14.121786182874631"><ele>133.66666666666666</ele><time>2026-05-02T06:49:07.996Z</time></trkpt><trkpt lat="42.44729626380504" lon="14.121771201918227"><ele>135.0</ele><time>2026-05-02T06:49:08.996Z</time></trkpt><trkpt lat="42.44721270521287" lon="14.121759870046459"><ele>135.0</ele><time>2026-05-02T06:49:09.996Z</time></trkpt><trkpt lat="42.44713135424791" lon="14.121751306271223"><ele>135.0</ele><time>2026-05-02T06:49:10.996Z</time></trkpt><trkpt lat="42.44704973112209" lon="14.121736925178482"><ele>135.0</ele><time>2026-05-02T06:49:11.996Z</time></trkpt><trkpt lat="42.44696057768367" lon="14.121727895308828"><ele>135.0</ele><time>2026-05-02T06:49:12.996Z</time></trkpt><trkpt lat="42.44686694902882" lon="14.121716388263238"><ele>135.0</ele><time>2026-05-02T06:49:13.996Z</time></trkpt><trkpt lat="42.446782970804016" lon="14.121712305130917"><ele>135.0</ele><time>2026-05-02T06:49:14.996Z</time></trkpt><trkpt lat="42.44669264992694" lon="14.121710638085512"><ele>134.4</ele><time>2026-05-02T06:49:15.996Z</time></trkpt><trkpt lat="42.44659383184043" lon="14.12171270449827"><ele>133.8</ele><time>2026-05-02T06:49:16.996Z</time></trkpt><trkpt lat="42.44649630857783" lon="14.121731031061248"><ele>133.2</ele><time>2026-05-02T06:49:17.996Z</time></trkpt><trkpt lat="42.44639246249956" lon="14.121761819088272"><ele>132.6</ele><time>2026-05-02T06:49:18.996Z</time></trkpt><trkpt lat="42.44627828958002" lon="14.121799945891922"><ele>132.0</ele><time>2026-05-02T06:49:19.996Z</time></trkpt><trkpt lat="42.446170052386776" lon="14.121835606435052"><ele>131.2</ele><time>2026-05-02T06:49:20.996Z</time></trkpt><trkpt lat="42.44607538063497" lon="14.121852215144438"><ele>130.39999999999998</ele><time>2026-05-02T06:49:21.996Z</time></trkpt><trkpt lat="42.44598913242366" lon="14.12187281381425"><ele>129.60000000000002</ele><time>2026-05-02T06:49:22.996Z</time></trkpt><trkpt lat="42.44590351427109" lon="14.121894873987678"><ele>128.8</ele><time>2026-05-02T06:49:23.996Z</time></trkpt><trkpt lat="42.44581355885346" lon="14.12192057837115"><ele>128.0</ele><time>2026-05-02T06:49:24.996Z</time></trkpt><trkpt lat="42.44572556754147" lon="14.121977674757597"><ele>128.0</ele><time>2026-05-02T06:49:25.996Z</time></trkpt><trkpt lat="42.445638166796726" lon="14.122050041359971"><ele>128.0</ele><time>2026-05-02T06:49:26.996Z</time></trkpt><trkpt lat="42.445555866581685" lon="14.12214923524945"><ele>128.0</ele><time>2026-05-02T06:49:27.996Z</time></trkpt><trkpt lat="42.445477783382614" lon="14.122262900220178"><ele>128.0</ele><time>2026-05-02T06:49:28.996Z</time></trkpt><trkpt lat="42.44539717266429" lon="14.12237580817506"><ele>128.0</ele><time>2026-05-02T06:49:29.996Z</time></trkpt><trkpt lat="42.445308692099054" lon="14.12246688534535"><ele>127.60000000000001</ele><time>2026-05-02T06:49:30.996Z</time></trkpt><trkpt lat="42.44521354815265" lon="14.122545280141914"><ele>127.20000000000002</ele><time>2026-05-02T06:49:31.996Z</time></trkpt><trkpt lat="42.44511390804223" lon="14.122608945662414"><ele>126.8</ele><time>2026-05-02T06:49:32.996Z</time></trkpt><trkpt lat="42.44501145906709" lon="14.122671782694722"><ele>126.4</ele><time>2026-05-02T06:49:33.996Z</time></trkpt><trkpt lat="42.44490941115638" lon="14.122740576043997"><ele>126.0</ele><time>2026-05-02T06:49:34.996Z</time></trkpt><trkpt lat="42.44481474766617" lon="14.122802850389341"><ele>126.0</ele><time>2026-05-02T06:49:35.996Z</time></trkpt><trkpt lat="42.44472523359464" lon="14.122868813016414"><ele>126.0</ele><time>2026-05-02T06:49:36.996Z</time></trkpt><trkpt lat="42.44463975255739" lon="14.122962030872722"><ele>126.0</ele><time>2026-05-02T06:49:37.996Z</time></trkpt><trkpt lat="42.444560846483675" lon="14.123075684438078"><ele>126.0</ele><time>2026-05-02T06:49:38.996Z</time></trkpt><trkpt lat="42.444481752785755" lon="14.1231830580836"><ele>126.0</ele><time>2026-05-02T06:49:39.996Z</time></trkpt><trkpt lat="42.44440582804219" lon="14.123285359259118"><ele>124.6</ele><time>2026-05-02T06:49:40.996Z</time></trkpt><trkpt lat="42.44432505512685" lon="14.123374245608359"><ele>123.19999999999999</ele><time>2026-05-02T06:49:41.996Z</time></trkpt><trkpt lat="42.44423606715942" lon="14.123434458905868"><ele>121.80000000000001</ele><time>2026-05-02T06:49:42.996Z</time></trkpt><trkpt lat="42.44414010036336" lon="14.123429151558096"><ele>120.4</ele><time>2026-05-02T06:49:43.996Z</time></trkpt><trkpt lat="42.44403978367495" lon="14.123418268356911"><ele>119.0</ele><time>2026-05-02T06:49:44.996Z</time></trkpt><trkpt lat="42.44393343414076" lon="14.123408154482007"><ele>119.0</ele><time>2026-05-02T06:49:45.996Z</time></trkpt><trkpt lat="42.443822525831976" lon="14.12343383736223"><ele>119.0</ele><time>2026-05-02T06:49:46.996Z</time></trkpt><trkpt lat="42.443707087837744" lon="14.123457721780419"><ele>119.0</ele><time>2026-05-02T06:49:47.996Z</time></trkpt><trkpt lat="42.44357726713973" lon="14.123486961011583"><ele>119.0</ele><time>2026-05-02T06:49:48.996Z</time></trkpt><trkpt lat="42.44343657731733" lon="14.123535034654484"><ele>116.33333333333333</ele><time>2026-05-02T06:49:49.996Z</time></trkpt><trkpt lat="42.44328442771959" lon="14.123581190984092"><ele>113.66666666666666</ele><time>2026-05-02T06:49:50.996Z</time></trkpt><trkpt lat="42.44312284380196" lon="14.12363674618004"><ele>111.0</ele><time>2026-05-02T06:49:51.996Z</time></trkpt><trkpt lat="42.44295047567725" lon="14.123692140756166"><ele>109.0</ele><time>2026-05-02T06:49:52.996Z</time></trkpt><trkpt lat="42.442778161842725" lon="14.123748451914182"><ele>107.0</ele><time>2026-05-02T06:49:53.996Z</time></trkpt><trkpt lat="42.442618317883166" lon="14.12380517876373"><ele>105.0</ele><time>2026-05-02T06:49:54.996Z</time></trkpt><trkpt lat="42.44244434064591" lon="14.123846821051417"><ele>105.0</ele><time>2026-05-02T06:49:55.996Z</time></trkpt><trkpt lat="42.44228840559447" lon="14.123879729679004"><ele>105.0</ele><time>2026-05-02T06:49:56.996Z</time></trkpt><trkpt lat="42.44216539855896" lon="14.123865817659283"><ele>105.0</ele><time>2026-05-02T06:49:57.996Z</time></trkpt><trkpt lat="42.44203897775043" lon="14.123915109955337"><ele>105.0</ele><time>2026-05-02T06:49:58.996Z</time></trkpt><trkpt lat="42.441909879014275" lon="14.123910610722263"><ele>107.0</ele><time>2026-05-02T06:49:59.996Z</time></trkpt><trkpt lat="42.44177260174895" lon="14.123910123500773"><ele>109.0</ele><time>2026-05-02T06:50:00.996Z</time></trkpt><trkpt lat="42.44164107719908" lon="14.123877500930824"><ele>111.0</ele><time>2026-05-02T06:50:01.996Z</time></trkpt><trkpt lat="42.44152454453342" lon="14.123853181585865"><ele>113.0</ele><time>2026-05-02T06:50:02.996Z</time></trkpt><trkpt lat="42.44140184571088" lon="14.123814585090203"><ele>111.25</ele><time>2026-05-02T06:50:03.996Z</time></trkpt><trkpt lat="42.4412951966834" lon="14.123754376553185"><ele>109.5</ele><time>2026-05-02T06:50:04.996Z</time></trkpt><trkpt lat="42.44118910684815" lon="14.123692296754568"><ele>107.75</ele><time>2026-05-02T06:50:05.996Z</time></trkpt><trkpt lat="42.44107348658959" lon="14.12362594286084"><ele>106.0</ele><time>2026-05-02T06:50:06.996Z</time></trkpt><trkpt lat="42.4409534671071" lon="14.1235488055849"><ele>106.0</ele><time>2026-05-02T06:50:07.996Z</time></trkpt><trkpt lat="42.44083041287974" lon="14.123469717922935"><ele>106.0</ele><time>2026-05-02T06:50:08.996Z</time></trkpt><trkpt lat="42.4407044965757" lon="14.123392183241986"><ele>106.0</ele><time>2026-05-02T06:50:09.996Z</time></trkpt><trkpt lat="42.440585968135906" lon="14.123329940338122"><ele>106.0</ele><time>2026-05-02T06:50:10.996Z</time></trkpt><trkpt lat="42.44045713041949" lon="14.123289326883326"><ele>106.25</ele><time>2026-05-02T06:50:11.996Z</time></trkpt><trkpt lat="42.44032167131733" lon="14.123236700383346"><ele>106.5</ele><time>2026-05-02T06:50:12.996Z</time></trkpt><trkpt lat="42.44018832209368" lon="14.123209628865474"><ele>106.75</ele><time>2026-05-02T06:50:13.996Z</time></trkpt><trkpt lat="42.440058615639515" lon="14.123176785823409"><ele>107.0</ele><time>2026-05-02T06:50:14.996Z</time></trkpt><trkpt lat="42.43994746135698" lon="14.123182055555242"><ele>107.0</ele><time>2026-05-02T06:50:15.996Z</time></trkpt><trkpt lat="42.43983712631969" lon="14.123155196692121"><ele>106.99999999999999</ele><time>2026-05-02T06:50:16.996Z</time></trkpt><trkpt lat="42.43973583924275" lon="14.1231763584613"><ele>106.99999999999999</ele><time>2026-05-02T06:50:17.996Z</time></trkpt><trkpt lat="42.43963842076467" lon="14.123205860999871"><ele>107.0</ele><time>2026-05-02T06:50:18.996Z</time></trkpt><trkpt lat="42.43953318965028" lon="14.123247244117108"><ele>107.0</ele><time>2026-05-02T06:50:19.996Z</time></trkpt><trkpt lat="42.439429134235525" lon="14.123294284028198"><ele>100.25</ele><time>2026-05-02T06:50:20.996Z</time></trkpt><trkpt lat="42.43932193358519" lon="14.12335575764027"><ele>93.5</ele><time>2026-05-02T06:50:21.996Z</time></trkpt><trkpt lat="42.43920790219708" lon="14.123401703092332"><ele>86.75</ele><time>2026-05-02T06:50:22.996Z</time></trkpt><trkpt lat="42.43908493020864" lon="14.12342666796366"><ele>80.0</ele><time>2026-05-02T06:50:23.996Z</time></trkpt><trkpt lat="42.43895218502538" lon="14.123472303316618"><ele>80.0</ele><time>2026-05-02T06:50:24.996Z</time></trkpt><trkpt lat="42.43880856896805" lon="14.123478207853921"><ele>80.0</ele><time>2026-05-02T06:50:25.996Z</time></trkpt><trkpt lat="42.43866504044429" lon="14.123462248854183"><ele>80.0</ele><time>2026-05-02T06:50:26.996Z</time></trkpt><trkpt lat="42.43853120012157" lon="14.123496936014343"><ele>80.0</ele><time>2026-05-02T06:50:27.996Z</time></trkpt><trkpt lat="42.43841451207875" lon="14.12352634615113"><ele>77.25</ele><time>2026-05-02T06:50:28.995Z</time></trkpt><trkpt lat="42.43829892051306" lon="14.123561648346236"><ele>74.5</ele><time>2026-05-02T06:50:29.995Z</time></trkpt><trkpt lat="42.438175630391136" lon="14.123601078240283"><ele>71.75</ele><time>2026-05-02T06:50:30.995Z</time></trkpt><trkpt lat="42.43804864163095" lon="14.123624500257085"><ele>69.0</ele><time>2026-05-02T06:50:31.995Z</time></trkpt><trkpt lat="42.43792530278204" lon="14.123669666748789"><ele>68.75</ele><time>2026-05-02T06:50:32.995Z</time></trkpt><trkpt lat="42.43780109615447" lon="14.12373930504849"><ele>68.5</ele><time>2026-05-02T06:50:33.995Z</time></trkpt><trkpt lat="42.43768563604833" lon="14.123751290801126"><ele>68.25</ele><time>2026-05-02T06:50:34.995Z</time></trkpt><trkpt lat="42.43759791195063" lon="14.123723141409263"><ele>68.0</ele><time>2026-05-02T06:50:35.995Z</time></trkpt><trkpt lat="42.43749002785957" lon="14.123677675960941"><ele>68.0</ele><time>2026-05-02T06:50:36.995Z</time></trkpt><trkpt lat="42.43740563469367" lon="14.12362911434316"><ele>68.0</ele><time>2026-05-02T06:50:37.999Z</time></trkpt><trkpt lat="42.43730009565418" lon="14.123624590313227"><ele>68.0</ele><time>2026-05-02T06:50:38.999Z</time></trkpt><trkpt lat="42.43720404056414" lon="14.123585588389691"><ele>68.0</ele><time>2026-05-02T06:50:39.999Z</time></trkpt><trkpt lat="42.43712127165718" lon="14.12352203084294"><ele>68.0</ele><time>2026-05-02T06:50:40.999Z</time></trkpt><trkpt lat="42.437031885623064" lon="14.123455151401027"><ele>65.5</ele><time>2026-05-02T06:50:41.999Z</time></trkpt><trkpt lat="42.43693978934038" lon="14.12340232085483"><ele>63.0</ele><time>2026-05-02T06:50:42.999Z</time></trkpt><trkpt lat="42.436824829152684" lon="14.123364469872385"><ele>60.5</ele><time>2026-05-02T06:50:43.999Z</time></trkpt><trkpt lat="42.436708410042485" lon="14.123294315627444"><ele>58.0</ele><time>2026-05-02T06:50:44.999Z</time></trkpt><trkpt lat="42.43659209658003" lon="14.123284166503208"><ele>58.5</ele><time>2026-05-02T06:50:45.999Z</time></trkpt><trkpt lat="42.43646503785811" lon="14.12322341445822"><ele>59.0</ele><time>2026-05-02T06:50:46.999Z</time></trkpt><trkpt lat="42.43635060882314" lon="14.123185219795273"><ele>59.5</ele><time>2026-05-02T06:50:47.999Z</time></trkpt><trkpt lat="42.43622141668869" lon="14.123181228207816"><ele>60.0</ele><time>2026-05-02T06:50:48.999Z</time></trkpt><trkpt lat="42.436086270778034" lon="14.123146312931254"><ele>60.8</ele><time>2026-05-02T06:50:49.999Z</time></trkpt><trkpt lat="42.435971044242336" lon="14.123117685454273"><ele>61.6</ele><time>2026-05-02T06:50:50.999Z</time></trkpt><trkpt lat="42.43585666796402" lon="14.12308002563865"><ele>62.400000000000006</ele><time>2026-05-02T06:50:51.999Z</time></trkpt><trkpt lat="42.43574596992663" lon="14.123054804470332"><ele>63.2</ele><time>2026-05-02T06:50:52.999Z</time></trkpt><trkpt lat="42.43565473484493" lon="14.12303937801193"><ele>64.0</ele><time>2026-05-02T06:50:53.999Z</time></trkpt><trkpt lat="42.43555846962912" lon="14.12307296123653"><ele>64.0</ele><time>2026-05-02T06:50:54.999Z</time></trkpt><trkpt lat="42.43548204461216" lon="14.123156925511367"><ele>64.0</ele><time>2026-05-02T06:50:55.999Z</time></trkpt><trkpt lat="42.435390490163996" lon="14.123260914478521"><ele>64.0</ele><time>2026-05-02T06:50:56.999Z</time></trkpt><trkpt lat="42.43529024313739" lon="14.123375816083017"><ele>64.0</ele><time>2026-05-02T06:50:57.999Z</time></trkpt><trkpt lat="42.43519039099542" lon="14.12349729913804"><ele>64.5</ele><time>2026-05-02T06:50:58.999Z</time></trkpt><trkpt lat="42.43508499837358" lon="14.123619226375862"><ele>65.0</ele><time>2026-05-02T06:50:59.999Z</time></trkpt><trkpt lat="42.43497449070153" lon="14.123739640013872"><ele>65.5</ele><time>2026-05-02T06:51:00.999Z</time></trkpt><trkpt lat="42.43486243186788" lon="14.12385870946472"><ele>66.0</ele><time>2026-05-02T06:51:01.999Z</time></trkpt><trkpt lat="42.434743059000795" lon="14.124015551819468"><ele>65.33333333333333</ele><time>2026-05-02T06:51:02.999Z</time></trkpt><trkpt lat="42.43463104761271" lon="14.12416001328141"><ele>64.66666666666666</ele><time>2026-05-02T06:51:03.999Z</time></trkpt><trkpt lat="42.43452842511136" lon="14.124311630298736"><ele>64.0</ele><time>2026-05-02T06:51:04.999Z</time></trkpt><trkpt lat="42.43441736592391" lon="14.124455219735887"><ele>64.0</ele><time>2026-05-02T06:51:05.999Z</time></trkpt><trkpt lat="42.4343443736152" lon="14.124589951610051"><ele>64.0</ele><time>2026-05-02T06:51:06.999Z</time></trkpt><trkpt lat="42.43426575063085" lon="14.124717963511552"><ele>64.0</ele><time>2026-05-02T06:51:07.999Z</time></trkpt><trkpt lat="42.43419002055161" lon="14.124833708160859"><ele>64.0</ele><time>2026-05-02T06:51:08.999Z</time></trkpt><trkpt lat="42.43410682109994" lon="14.124937029862608"><ele>63.400000000000006</ele><time>2026-05-02T06:51:09.999Z</time></trkpt><trkpt lat="42.434031651916925" lon="14.125039384238708"><ele>62.800000000000004</ele><time>2026-05-02T06:51:10.999Z</time></trkpt><trkpt lat="42.43395217573806" lon="14.125151839447762"><ele>62.199999999999996</ele><time>2026-05-02T06:51:11.999Z</time></trkpt><trkpt lat="42.433872127443564" lon="14.12525433776003"><ele>61.599999999999994</ele><time>2026-05-02T06:51:12.999Z</time></trkpt><trkpt lat="42.43380864961896" lon="14.125350581625762"><ele>61.0</ele><time>2026-05-02T06:51:13.999Z</time></trkpt><trkpt lat="42.433738844938645" lon="14.125433178065883"><ele>61.0</ele><time>2026-05-02T06:51:14.999Z</time></trkpt><trkpt lat="42.43365603412566" lon="14.125387351634501"><ele>60.99999999999999</ele><time>2026-05-02T06:51:16.999Z</time></trkpt><trkpt lat="42.433587559625174" lon="14.125306103586615"><ele>60.99999999999999</ele><time>2026-05-02T06:51:18.999Z</time></trkpt><trkpt lat="42.43347620445633" lon="14.125158703658217"><ele>61.0</ele><time>2026-05-02T06:51:21.999Z</time></trkpt><trkpt lat="42.433374087675375" lon="14.125098610689337"><ele>61.0</ele><time>2026-05-02T06:51:23.999Z</time></trkpt><trkpt lat="42.43325430990263" lon="14.12517796589913"><ele>61.0</ele><time>2026-05-02T06:51:25.999Z</time></trkpt><trkpt lat="42.43319864943414" lon="14.125223567646596"><ele>60.99999999999999</ele><time>2026-05-02T06:51:26.999Z</time></trkpt><trkpt lat="42.43311158249622" lon="14.125295357161455"><ele>60.99999999999999</ele><time>2026-05-02T06:51:27.999Z</time></trkpt><trkpt lat="42.43302567742871" lon="14.125368460959344"><ele>61.0</ele><time>2026-05-02T06:51:28.999Z</time></trkpt><trkpt lat="42.43293644365374" lon="14.125444561807658"><ele>61.0</ele><time>2026-05-02T06:51:29.999Z</time></trkpt><trkpt lat="42.43286045566077" lon="14.12550827319732"><ele>61.33333333333333</ele><time>2026-05-02T06:51:30.999Z</time></trkpt><trkpt lat="42.432794270257126" lon="14.125562994079624"><ele>61.666666666666664</ele><time>2026-05-02T06:51:31.999Z</time></trkpt><trkpt lat="42.43272315049614" lon="14.125634064696383"><ele>62.0</ele><time>2026-05-02T06:51:32.999Z</time></trkpt><trkpt lat="42.43264237764158" lon="14.125688576187772"><ele>62.33333333333333</ele><time>2026-05-02T06:51:33.999Z</time></trkpt><trkpt lat="42.43258199072792" lon="14.12573850354882"><ele>62.666666666666664</ele><time>2026-05-02T06:51:34.999Z</time></trkpt><trkpt lat="42.43255336370344" lon="14.125848133017271"><ele>63.0</ele><time>2026-05-02T06:51:35.999Z</time></trkpt><trkpt lat="42.43249424249453" lon="14.125892804374715"><ele>63.0</ele><time>2026-05-02T06:51:36.999Z</time></trkpt><trkpt lat="42.43241764450789" lon="14.125942949450014"><ele>63.0</ele><time>2026-05-02T06:51:37.999Z</time></trkpt><trkpt lat="42.43232320755103" lon="14.125995646926492"><ele>63.0</ele><time>2026-05-02T06:51:38.999Z</time></trkpt><trkpt lat="42.432233877395106" lon="14.12604223092327"><ele>63.0</ele><time>2026-05-02T06:51:39.999Z</time></trkpt><trkpt lat="42.432153229924936" lon="14.12608679834321"><ele>63.0</ele><time>2026-05-02T06:51:40.999Z</time></trkpt><trkpt lat="42.4320752769723" lon="14.12613793125095"><ele>65.25</ele><time>2026-05-02T06:51:41.999Z</time></trkpt><trkpt lat="42.43197421312552" lon="14.126221589304464"><ele>67.5</ele><time>2026-05-02T06:51:42.999Z</time></trkpt><trkpt lat="42.43189197287466" lon="14.126280716592174"><ele>69.75</ele><time>2026-05-02T06:51:43.999Z</time></trkpt><trkpt lat="42.431744122901236" lon="14.126316970645172"><ele>72.0</ele><time>2026-05-02T06:51:45.999Z</time></trkpt><trkpt lat="42.431632578104626" lon="14.12628772001352"><ele>72.0</ele><time>2026-05-02T06:51:46.999Z</time></trkpt><trkpt lat="42.431511141314175" lon="14.126255369471405"><ele>72.0</ele><time>2026-05-02T06:51:47.999Z</time></trkpt><trkpt lat="42.431395641048596" lon="14.126306348137236"><ele>72.0</ele><time>2026-05-02T06:51:48.999Z</time></trkpt><trkpt lat="42.431285012716955" lon="14.126329558723398"><ele>72.0</ele><time>2026-05-02T06:51:49.999Z</time></trkpt><trkpt lat="42.43118382802291" lon="14.12635860962434"><ele>72.8</ele><time>2026-05-02T06:51:50.999Z</time></trkpt><trkpt lat="42.431091380548075" lon="14.126402132485657"><ele>73.6</ele><time>2026-05-02T06:51:51.999Z</time></trkpt><trkpt lat="42.430983895474526" lon="14.126482577046028"><ele>74.39999999999999</ele><time>2026-05-02T06:51:52.999Z</time></trkpt><trkpt lat="42.43088105306111" lon="14.126561359636975"><ele>75.2</ele><time>2026-05-02T06:51:53.999Z</time></trkpt><trkpt lat="42.430802988659174" lon="14.126612002032985"><ele>76.0</ele><time>2026-05-02T06:51:54.999Z</time></trkpt><trkpt lat="42.4307272371395" lon="14.126665903158324"><ele>76.0</ele><time>2026-05-02T06:51:55.999Z</time></trkpt><trkpt lat="42.43066533978873" lon="14.12675895670858"><ele>76.0</ele><time>2026-05-02T06:51:56.999Z</time></trkpt><trkpt lat="42.43059114408443" lon="14.126829104867765"><ele>76.0</ele><time>2026-05-02T06:51:57.999Z</time></trkpt><trkpt lat="42.43051910723325" lon="14.12688034921191"><ele>76.0</ele><time>2026-05-02T06:51:58.999Z</time></trkpt><trkpt lat="42.43044589921297" lon="14.126885773645123"><ele>76.0</ele><time>2026-05-02T06:51:59.999Z</time></trkpt><trkpt lat="42.43033546987565" lon="14.126846182870226"><ele>76.83333333333333</ele><time>2026-05-02T06:52:01.999Z</time></trkpt><trkpt lat="42.43027486444272" lon="14.126781309097781"><ele>77.66666666666666</ele><time>2026-05-02T06:52:03.999Z</time></trkpt><trkpt lat="42.43021568155078" lon="14.126749018229003"><ele>78.5</ele><time>2026-05-02T06:52:12.999Z</time></trkpt><trkpt lat="42.43012689439164" lon="14.126715264584726"><ele>79.33333333333333</ele><time>2026-05-02T06:52:14.999Z</time></trkpt><trkpt lat="42.43003460205803" lon="14.126768016271694"><ele>80.16666666666667</ele><time>2026-05-02T06:52:16.999Z</time></trkpt><trkpt lat="42.429921781475706" lon="14.126801442752804"><ele>81.0</ele><time>2026-05-02T06:52:18.999Z</time></trkpt><trkpt lat="42.42979788531383" lon="14.126817659638775"><ele>81.0</ele><time>2026-05-02T06:52:20.999Z</time></trkpt><trkpt lat="42.429683708969804" lon="14.126848354131038"><ele>81.0</ele><time>2026-05-02T06:52:22.999Z</time></trkpt><trkpt lat="42.42960601197167" lon="14.126862528138997"><ele>81.0</ele><time>2026-05-02T06:52:23.999Z</time></trkpt><trkpt lat="42.42952586281803" lon="14.12686711390181"><ele>81.0</ele><time>2026-05-02T06:52:24.999Z</time></trkpt><trkpt lat="42.42943716226522" lon="14.126865760127455"><ele>81.0</ele><time>2026-05-02T06:52:25.999Z</time></trkpt><trkpt lat="42.4293483241291" lon="14.126861102642824"><ele>78.66666666666667</ele><time>2026-05-02T06:52:26.999Z</time></trkpt><trkpt lat="42.42926615885114" lon="14.126854344684865"><ele>76.33333333333333</ele><time>2026-05-02T06:52:27.999Z</time></trkpt><trkpt lat="42.42919193166274" lon="14.12684668257951"><ele>74.0</ele><time>2026-05-02T06:52:28.999Z</time></trkpt><trkpt lat="42.429112874040364" lon="14.126951777274694"><ele>71.66666666666666</ele><time>2026-05-02T06:52:29.999Z</time></trkpt><trkpt lat="42.42904120896649" lon="14.126921652536783"><ele>69.33333333333333</ele><time>2026-05-02T06:52:30.999Z</time></trkpt><trkpt lat="42.428972125077586" lon="14.126879570896254"><ele>67.0</ele><time>2026-05-02T06:52:31.999Z</time></trkpt><trkpt lat="42.42889955318715" lon="14.126820393485785"><ele>67.0</ele><time>2026-05-02T06:52:32.999Z</time></trkpt><trkpt lat="42.42883443077213" lon="14.126740385601133"><ele>67.0</ele><time>2026-05-02T06:52:33.999Z</time></trkpt><trkpt lat="42.428779171167506" lon="14.126667038418711"><ele>67.0</ele><time>2026-05-02T06:52:34.999Z</time></trkpt><trkpt lat="42.42873461293335" lon="14.126572999424068"><ele>67.0</ele><time>2026-05-02T06:52:35.999Z</time></trkpt><trkpt lat="42.428705118753825" lon="14.126493807142795"><ele>67.0</ele><time>2026-05-02T06:52:36.999Z</time></trkpt><trkpt lat="42.42862227957421" lon="14.12635339482321"><ele>67.0</ele><time>2026-05-02T06:52:38.999Z</time></trkpt><trkpt lat="42.42855383337616" lon="14.126265120502513"><ele>64.0</ele><time>2026-05-02T06:52:39.999Z</time></trkpt><trkpt lat="42.428481838425185" lon="14.12618418014156"><ele>61.0</ele><time>2026-05-02T06:52:40.999Z</time></trkpt><trkpt lat="42.42842507170963" lon="14.126129403469342"><ele>58.0</ele><time>2026-05-02T06:52:41.999Z</time></trkpt><trkpt lat="42.42830066793021" lon="14.12604466377756"><ele>55.0</ele><time>2026-05-02T06:52:43.999Z</time></trkpt><trkpt lat="42.42822879584567" lon="14.126017404802287"><ele>52.0</ele><time>2026-05-02T06:52:44.999Z</time></trkpt><trkpt lat="42.428150128912364" lon="14.12600329511934"><ele>52.0</ele><time>2026-05-02T06:52:45.999Z</time></trkpt><trkpt lat="42.42801967683047" lon="14.126017775670713"><ele>52.0</ele><time>2026-05-02T06:52:47.999Z</time></trkpt><trkpt lat="42.42793714394803" lon="14.126015290159012"><ele>52.0</ele><time>2026-05-02T06:52:48.999Z</time></trkpt><trkpt lat="42.42784813286799" lon="14.126013002209413"><ele>52.0</ele><time>2026-05-02T06:52:49.999Z</time></trkpt><trkpt lat="42.427730182724346" lon="14.12599520844989"><ele>52.0</ele><time>2026-05-02T06:52:50.999Z</time></trkpt><trkpt lat="42.42762928183423" lon="14.125982473787037"><ele>50.6</ele><time>2026-05-02T06:52:51.999Z</time></trkpt><trkpt lat="42.427535433734775" lon="14.125956916824977"><ele>49.2</ele><time>2026-05-02T06:52:52.999Z</time></trkpt><trkpt lat="42.42743993302915" lon="14.125908221388647"><ele>47.8</ele><time>2026-05-02T06:52:53.999Z</time></trkpt><trkpt lat="42.427334803748344" lon="14.125836944468585"><ele>46.4</ele><time>2026-05-02T06:52:54.999Z</time></trkpt><trkpt lat="42.42725509804407" lon="14.125793124215047"><ele>45.0</ele><time>2026-05-02T06:52:55.999Z</time></trkpt><trkpt lat="42.427180645154785" lon="14.125772659825332"><ele>44.0</ele><time>2026-05-02T06:52:56.999Z</time></trkpt><trkpt lat="42.4271038656298" lon="14.125736871701566"><ele>43.0</ele><time>2026-05-02T06:52:57.999Z</time></trkpt><trkpt lat="42.426988677938716" lon="14.12569666139053"><ele>42.0</ele><time>2026-05-02T06:52:59.999Z</time></trkpt><trkpt lat="42.42685632538016" lon="14.125666176718578"><ele>41.0</ele><time>2026-05-02T06:53:01.999Z</time></trkpt><trkpt lat="42.42679784062184" lon="14.125601140077132"><ele>40.0</ele><time>2026-05-02T06:53:03.999Z</time></trkpt><trkpt lat="42.42676358134918" lon="14.12551500321408"><ele>39.833333333333336</ele><time>2026-05-02T06:53:06.999Z</time></trkpt><trkpt lat="42.42676674913292" lon="14.125394341154623"><ele>39.66666666666667</ele><time>2026-05-02T06:53:08.999Z</time></trkpt><trkpt lat="42.42678439484067" lon="14.12530786851271"><ele>39.5</ele><time>2026-05-02T06:53:09.999Z</time></trkpt><trkpt lat="42.42680508031158" lon="14.125203482865142"><ele>39.333333333333336</ele><time>2026-05-02T06:53:10.999Z</time></trkpt><trkpt lat="42.426823684338835" lon="14.125077491172098"><ele>39.166666666666664</ele><time>2026-05-02T06:53:11.999Z</time></trkpt><trkpt lat="42.426850589763106" lon="14.124954498543328"><ele>39.0</ele><time>2026-05-02T06:53:12.999Z</time></trkpt><trkpt lat="42.42687309999836" lon="14.124829615384309"><ele>39.0</ele><time>2026-05-02T06:53:13.999Z</time></trkpt><trkpt lat="42.426892671403834" lon="14.124717267847103"><ele>39.0</ele><time>2026-05-02T06:53:14.999Z</time></trkpt><trkpt lat="42.42690594780219" lon="14.124622897364853"><ele>39.0</ele><time>2026-05-02T06:53:15.999Z</time></trkpt><trkpt lat="42.426896666196974" lon="14.124471223252877"><ele>39.0</ele><time>2026-05-02T06:53:17.999Z</time></trkpt><trkpt lat="42.42682550926441" lon="14.124356741076886"><ele>39.0</ele><time>2026-05-02T06:53:19.999Z</time></trkpt><trkpt lat="42.4267633460932" lon="14.124302856664844"><ele>39.0</ele><time>2026-05-02T06:53:20.999Z</time></trkpt><trkpt lat="42.42668474359822" lon="14.124251526131985"><ele>39.0</ele><time>2026-05-02T06:53:21.999Z</time></trkpt><trkpt lat="42.42660572902998" lon="14.124206341591258"><ele>39.0</ele><time>2026-05-02T06:53:22.999Z</time></trkpt><trkpt lat="42.42653726685864" lon="14.124161717168896"><ele>39.0</ele><time>2026-05-02T06:53:23.999Z</time></trkpt><trkpt lat="42.42646695094802" lon="14.124076202756413"><ele>39.0</ele><time>2026-05-02T06:53:24.999Z</time></trkpt><trkpt lat="42.42641118036643" lon="14.123977897702158"><ele>39.0</ele><time>2026-05-02T06:53:25.999Z</time></trkpt><trkpt lat="42.4263673753395" lon="14.123831705544259"><ele>38.75</ele><time>2026-05-02T06:53:26.999Z</time></trkpt><trkpt lat="42.42633409329395" lon="14.123657931460585"><ele>38.5</ele><time>2026-05-02T06:53:27.998Z</time></trkpt><trkpt lat="42.42629723149158" lon="14.123475700670106"><ele>38.25</ele><time>2026-05-02T06:53:28.998Z</time></trkpt><trkpt lat="42.42626952701947" lon="14.12329492360979"><ele>38.0</ele><time>2026-05-02T06:53:29.998Z</time></trkpt><trkpt lat="42.4262448782636" lon="14.123108327235675"><ele>38.0</ele><time>2026-05-02T06:53:30.998Z</time></trkpt><trkpt lat="42.426212223913" lon="14.122904089178203"><ele>38.0</ele><time>2026-05-02T06:53:31.998Z</time></trkpt><trkpt lat="42.42618506579757" lon="14.122685463679582"><ele>38.0</ele><time>2026-05-02T06:53:32.998Z</time></trkpt><trkpt lat="42.426157610370595" lon="14.122456202899665"><ele>38.33333333333333</ele><time>2026-05-02T06:53:33.998Z</time></trkpt><trkpt lat="42.42612848410257" lon="14.122238071597934"><ele>38.666666666666664</ele><time>2026-05-02T06:53:34.998Z</time></trkpt><trkpt lat="42.42610994115035" lon="14.122003407676305"><ele>39.0</ele><time>2026-05-02T06:53:35.998Z</time></trkpt><trkpt lat="42.42607416530759" lon="14.121801972972838"><ele>39.0</ele><time>2026-05-02T06:53:36.998Z</time></trkpt><trkpt lat="42.42604682743553" lon="14.121589756244095"><ele>39.0</ele><time>2026-05-02T06:53:37.998Z</time></trkpt><trkpt lat="42.426026822910345" lon="14.121366346420249"><ele>39.0</ele><time>2026-05-02T06:53:38.998Z</time></trkpt><trkpt lat="42.426011020345484" lon="14.121176068136275"><ele>39.666666666666664</ele><time>2026-05-02T06:53:39.998Z</time></trkpt><trkpt lat="42.425981643703345" lon="14.120975861809155"><ele>40.33333333333333</ele><time>2026-05-02T06:53:40.998Z</time></trkpt><trkpt lat="42.42592135441579" lon="14.120793302415848"><ele>41.0</ele><time>2026-05-02T06:53:41.998Z</time></trkpt><trkpt lat="42.425850967913945" lon="14.120595612764458"><ele>42.33333333333333</ele><time>2026-05-02T06:53:42.998Z</time></trkpt><trkpt lat="42.42575680699712" lon="14.120403331553984"><ele>43.666666666666664</ele><time>2026-05-02T06:53:43.998Z</time></trkpt><trkpt lat="42.425679591124755" lon="14.120228377900354"><ele>45.0</ele><time>2026-05-02T06:53:44.998Z</time></trkpt><trkpt lat="42.42562706080349" lon="14.120053689933302"><ele>47.0</ele><time>2026-05-02T06:53:45.998Z</time></trkpt><trkpt lat="42.42557696653378" lon="14.119855479451061"><ele>49.0</ele><time>2026-05-02T06:53:46.998Z</time></trkpt><trkpt lat="42.42551978774202" lon="14.119670816649883"><ele>51.0</ele><time>2026-05-02T06:53:47.998Z</time></trkpt><trkpt lat="42.42549167638126" lon="14.119455166669661"><ele>47.0</ele><time>2026-05-02T06:53:48.998Z</time></trkpt><trkpt lat="42.42543626785112" lon="14.119223091217185"><ele>43.0</ele><time>2026-05-02T06:53:49.998Z</time></trkpt><trkpt lat="42.425394331208146" lon="14.118984833740981"><ele>39.0</ele><time>2026-05-02T06:53:50.998Z</time></trkpt><trkpt lat="42.4253554054115" lon="14.118743076487988"><ele>39.0</ele><time>2026-05-02T06:53:51.998Z</time></trkpt><trkpt lat="42.42530429864197" lon="14.11851891856279"><ele>39.0</ele><time>2026-05-02T06:53:52.998Z</time></trkpt><trkpt lat="42.4252842100198" lon="14.118285781246614"><ele>39.0</ele><time>2026-05-02T06:53:53.998Z</time></trkpt><trkpt lat="42.42523138380193" lon="14.118057819143857"><ele>39.333333333333336</ele><time>2026-05-02T06:53:54.998Z</time></trkpt><trkpt lat="42.425207064649484" lon="14.117823928305148"><ele>39.66666666666667</ele><time>2026-05-02T06:53:55.998Z</time></trkpt><trkpt lat="42.42518988499887" lon="14.117583434340707"><ele>40.0</ele><time>2026-05-02T06:53:56.998Z</time></trkpt><trkpt lat="42.42513403763269" lon="14.11736449482645"><ele>41.333333333333336</ele><time>2026-05-02T06:53:57.998Z</time></trkpt><trkpt lat="42.425113900008405" lon="14.117127891936326"><ele>42.666666666666664</ele><time>2026-05-02T06:53:58.998Z</time></trkpt><trkpt lat="42.42508164329091" lon="14.116917768753385"><ele>44.0</ele><time>2026-05-02T06:53:59.998Z</time></trkpt><trkpt lat="42.42507112615919" lon="14.11668280814425"><ele>44.0</ele><time>2026-05-02T06:54:00.998Z</time></trkpt><trkpt lat="42.42506264405714" lon="14.11644988038781"><ele>44.0</ele><time>2026-05-02T06:54:01.998Z</time></trkpt><trkpt lat="42.42504025455198" lon="14.116214475172551"><ele>44.0</ele><time>2026-05-02T06:54:02.998Z</time></trkpt><trkpt lat="42.42503181356091" lon="14.11597138009982"><ele>44.0</ele><time>2026-05-02T06:54:03.998Z</time></trkpt><trkpt lat="42.42501442320574" lon="14.115755259991085"><ele>44.0</ele><time>2026-05-02T06:54:04.998Z</time></trkpt><trkpt lat="42.42501478055169" lon="14.115542394612872"><ele>44.0</ele><time>2026-05-02T06:54:05.998Z</time></trkpt><trkpt lat="42.425000900406424" lon="14.115315361957729"><ele>44.33333333333333</ele><time>2026-05-02T06:54:06.998Z</time></trkpt><trkpt lat="42.424980569872446" lon="14.115084305458419"><ele>44.666666666666664</ele><time>2026-05-02T06:54:07.998Z</time></trkpt><trkpt lat="42.42497644352789" lon="14.114848320524658"><ele>45.0</ele><time>2026-05-02T06:54:08.998Z</time></trkpt><trkpt lat="42.42494462279011" lon="14.114620988621805"><ele>46.0</ele><time>2026-05-02T06:54:09.998Z</time></trkpt><trkpt lat="42.424909017923646" lon="14.114387862417209"><ele>47.0</ele><time>2026-05-02T06:54:10.998Z</time></trkpt><trkpt lat="42.424899971294366" lon="14.114164417049922"><ele>48.0</ele><time>2026-05-02T06:54:11.998Z</time></trkpt><trkpt lat="42.4248930746803" lon="14.113939889296734"><ele>48.66666666666667</ele><time>2026-05-02T06:54:12.998Z</time></trkpt><trkpt lat="42.424875990224606" lon="14.113699214177707"><ele>49.333333333333336</ele><time>2026-05-02T06:54:13.998Z</time></trkpt><trkpt lat="42.42485930598815" lon="14.113455421786513"><ele>50.0</ele><time>2026-05-02T06:54:14.998Z</time></trkpt><trkpt lat="42.424848156878596" lon="14.113227790400183"><ele>50.5</ele><time>2026-05-02T06:54:15.998Z</time></trkpt><trkpt lat="42.42484345058549" lon="14.113032509859439"><ele>51.0</ele><time>2026-05-02T06:54:16.998Z</time></trkpt><trkpt lat="42.424853437797054" lon="14.112862547679077"><ele>51.5</ele><time>2026-05-02T06:54:17.998Z</time></trkpt><trkpt lat="42.424884027892354" lon="14.11267720876142"><ele>52.0</ele><time>2026-05-02T06:54:18.998Z</time></trkpt><trkpt lat="42.42492516806352" lon="14.112486281738567"><ele>51.0</ele><time>2026-05-02T06:54:19.998Z</time></trkpt><trkpt lat="42.42496410277884" lon="14.112303785247455"><ele>50.0</ele><time>2026-05-02T06:54:20.998Z</time></trkpt><trkpt lat="42.424993532315725" lon="14.112151971403994"><ele>49.0</ele><time>2026-05-02T06:54:21.998Z</time></trkpt><trkpt lat="42.42500896460319" lon="14.11202717436796"><ele>48.0</ele><time>2026-05-02T06:54:22.998Z</time></trkpt><trkpt lat="42.42506450856026" lon="14.111833749177709"><ele>48.0</ele><time>2026-05-02T06:54:24.998Z</time></trkpt><trkpt lat="42.42509265905785" lon="14.111728448075967"><ele>48.0</ele><time>2026-05-02T06:54:25.998Z</time></trkpt><trkpt lat="42.42512280910019" lon="14.11162503210282"><ele>48.0</ele><time>2026-05-02T06:54:26.998Z</time></trkpt><trkpt lat="42.425163077624525" lon="14.111506262137683"><ele>48.0</ele><time>2026-05-02T06:54:27.998Z</time></trkpt><trkpt lat="42.425218569691665" lon="14.11139556260877"><ele>48.0</ele><time>2026-05-02T06:54:29.998Z</time></trkpt><trkpt lat="42.425080944543836" lon="14.111391372745391"><ele>48.0</ele><time>2026-05-02T06:54:33.998Z</time></trkpt><trkpt lat="42.42501549359502" lon="14.111431068968704"><ele>48.0</ele><time>2026-05-02T06:54:34.998Z</time></trkpt><trkpt lat="42.424945333301444" lon="14.111514624212361"><ele>48.0</ele><time>2026-05-02T06:54:35.998Z</time></trkpt><trkpt lat="42.424868893883854" lon="14.111612315812032"><ele>48.0</ele><time>2026-05-02T06:54:36.998Z</time></trkpt><trkpt lat="42.42479566254114" lon="14.111664414141217"><ele>48.0</ele><time>2026-05-02T06:54:37.998Z</time></trkpt><trkpt lat="42.424696304528005" lon="14.111710986705562"><ele>46.8</ele><time>2026-05-02T06:54:38.998Z</time></trkpt><trkpt lat="42.4245953696477" lon="14.111755484994797"><ele>45.599999999999994</ele><time>2026-05-02T06:54:39.998Z</time></trkpt><trkpt lat="42.424487609787924" lon="14.111805690034675"><ele>44.400000000000006</ele><time>2026-05-02T06:54:40.998Z</time></trkpt><trkpt lat="42.424382976270095" lon="14.111839824705278"><ele>43.2</ele><time>2026-05-02T06:54:41.998Z</time></trkpt><trkpt lat="42.424272629125454" lon="14.111861913812032"><ele>42.0</ele><time>2026-05-02T06:54:42.998Z</time></trkpt><trkpt lat="42.42419812811636" lon="14.111877191675665"><ele>42.0</ele><time>2026-05-02T06:54:43.998Z</time></trkpt><trkpt lat="42.42411934755346" lon="14.111893258081922"><ele>42.0</ele><time>2026-05-02T06:54:44.998Z</time></trkpt><trkpt lat="42.42402633903953" lon="14.111911810042166"><ele>42.0</ele><time>2026-05-02T06:54:45.998Z</time></trkpt><trkpt lat="42.42394163316811" lon="14.111930772738049"><ele>42.0</ele><time>2026-05-02T06:54:46.998Z</time></trkpt><trkpt lat="42.42386737404471" lon="14.111952872522398"><ele>42.0</ele><time>2026-05-02T06:54:47.998Z</time></trkpt><trkpt lat="42.42377929301683" lon="14.11197602615408"><ele>42.0</ele><time>2026-05-02T06:54:48.998Z</time></trkpt><trkpt lat="42.423686272970116" lon="14.111978365469117"><ele>41.0</ele><time>2026-05-02T06:54:49.998Z</time></trkpt><trkpt lat="42.42360225966477" lon="14.111976273406194"><ele>40.0</ele><time>2026-05-02T06:54:50.998Z</time></trkpt><trkpt lat="42.42351863752918" lon="14.11197207771668"><ele>39.0</ele><time>2026-05-02T06:54:51.998Z</time></trkpt><trkpt lat="42.423442763579004" lon="14.111967613170842"><ele>38.0</ele><time>2026-05-02T06:54:52.998Z</time></trkpt><trkpt lat="42.42332964822899" lon="14.111976844304372"><ele>37.0</ele><time>2026-05-02T06:54:53.998Z</time></trkpt><trkpt lat="42.42323924767883" lon="14.112032232753796"><ele>37.0</ele><time>2026-05-02T06:54:54.998Z</time></trkpt><trkpt lat="42.42316295279704" lon="14.112115334762345"><ele>37.0</ele><time>2026-05-02T06:54:55.998Z</time></trkpt><trkpt lat="42.42306840630114" lon="14.112231461901999"><ele>37.0</ele><time>2026-05-02T06:54:56.998Z</time></trkpt><trkpt lat="42.422962861331676" lon="14.112333500929404"><ele>37.0</ele><time>2026-05-02T06:54:57.998Z</time></trkpt><trkpt lat="42.42286731368453" lon="14.112456199537288"><ele>38.75</ele><time>2026-05-02T06:54:58.998Z</time></trkpt><trkpt lat="42.422785690765004" lon="14.112556814140998"><ele>40.5</ele><time>2026-05-02T06:54:59.998Z</time></trkpt><trkpt lat="42.42270258582559" lon="14.112661030097364"><ele>42.25</ele><time>2026-05-02T06:55:00.998Z</time></trkpt><trkpt lat="42.422609034883976" lon="14.112764065409445"><ele>44.0</ele><time>2026-05-02T06:55:01.998Z</time></trkpt><trkpt lat="42.422495947493346" lon="14.112807908253403"><ele>44.0</ele><time>2026-05-02T06:55:02.998Z</time></trkpt><trkpt lat="42.42239648219578" lon="14.112907488367522"><ele>44.0</ele><time>2026-05-02T06:55:03.998Z</time></trkpt><trkpt lat="42.422285285033894" lon="14.112987372380083"><ele>44.0</ele><time>2026-05-02T06:55:04.998Z</time></trkpt><trkpt lat="42.42218415109053" lon="14.113092369235382"><ele>44.0</ele><time>2026-05-02T06:55:05.998Z</time></trkpt><trkpt lat="42.42209445364935" lon="14.113228039961061"><ele>45.25</ele><time>2026-05-02T06:55:06.998Z</time></trkpt><trkpt lat="42.421992917037294" lon="14.113352209714254"><ele>46.5</ele><time>2026-05-02T06:55:07.998Z</time></trkpt><trkpt lat="42.42189644726298" lon="14.113431394585552"><ele>47.75</ele><time>2026-05-02T06:55:08.998Z</time></trkpt><trkpt lat="42.42179231858073" lon="14.1134751212514"><ele>49.0</ele><time>2026-05-02T06:55:09.998Z</time></trkpt><trkpt lat="42.421675213906454" lon="14.113518609471543"><ele>49.0</ele><time>2026-05-02T06:55:10.998Z</time></trkpt><trkpt lat="42.42155321460367" lon="14.113571745822739"><ele>49.0</ele><time>2026-05-02T06:55:11.998Z</time></trkpt><trkpt lat="42.421438473527594" lon="14.113589550163837"><ele>49.0</ele><time>2026-05-02T06:55:12.998Z</time></trkpt><trkpt lat="42.42133863859573" lon="14.11362538570106"><ele>49.0</ele><time>2026-05-02T06:55:13.998Z</time></trkpt><trkpt lat="42.421242276546174" lon="14.113675486221387"><ele>50.0</ele><time>2026-05-02T06:55:14.998Z</time></trkpt><trkpt lat="42.421124600016206" lon="14.113754632824223"><ele>51.0</ele><time>2026-05-02T06:55:15.998Z</time></trkpt><trkpt lat="42.421013368517784" lon="14.113849832404602"><ele>52.0</ele><time>2026-05-02T06:55:16.998Z</time></trkpt><trkpt lat="42.42090633212496" lon="14.113951214065473"><ele>53.0</ele><time>2026-05-02T06:55:17.998Z</time></trkpt><trkpt lat="42.42081262438392" lon="14.114025792249251"><ele>53.0</ele><time>2026-05-02T06:55:18.998Z</time></trkpt><trkpt lat="42.4207260400383" lon="14.114060802525342"><ele>53.0</ele><time>2026-05-02T06:55:19.998Z</time></trkpt><trkpt lat="42.42066051647434" lon="14.114129509417793"><ele>53.0</ele><time>2026-05-02T06:55:20.998Z</time></trkpt><trkpt lat="42.42059649885131" lon="14.114201427269292"><ele>53.0</ele><time>2026-05-02T06:55:21.998Z</time></trkpt><trkpt lat="42.42053341193516" lon="14.114284822790527"><ele>53.0</ele><time>2026-05-02T06:55:22.998Z</time></trkpt><trkpt lat="42.42043954038319" lon="14.114397733931671"><ele>55.5</ele><time>2026-05-02T06:55:23.998Z</time></trkpt><trkpt lat="42.420352245689365" lon="14.114525838642859"><ele>58.0</ele><time>2026-05-02T06:55:24.998Z</time></trkpt><trkpt lat="42.4202619998433" lon="14.114651611391565"><ele>60.5</ele><time>2026-05-02T06:55:25.998Z</time></trkpt><trkpt lat="42.42014669625295" lon="14.114736098715834"><ele>63.0</ele><time>2026-05-02T06:55:26.998Z</time></trkpt><trkpt lat="42.42002136869857" lon="14.114781097183986"><ele>63.0</ele><time>2026-05-02T06:55:27.998Z</time></trkpt><trkpt lat="42.419917806618436" lon="14.114838695823073"><ele>63.0</ele><time>2026-05-02T06:55:28.998Z</time></trkpt><trkpt lat="42.41980943004562" lon="14.114901321364801"><ele>63.0</ele><time>2026-05-02T06:55:29.998Z</time></trkpt><trkpt lat="42.41971170255036" lon="14.114974836824231"><ele>63.0</ele><time>2026-05-02T06:55:30.998Z</time></trkpt><trkpt lat="42.41963076694246" lon="14.115083254577812"><ele>66.4</ele><time>2026-05-02T06:55:31.998Z</time></trkpt><trkpt lat="42.419544766358484" lon="14.115160152355992"><ele>69.8</ele><time>2026-05-02T06:55:32.998Z</time></trkpt><trkpt lat="42.419474742000325" lon="14.115239343038086"><ele>73.2</ele><time>2026-05-02T06:55:33.998Z</time></trkpt><trkpt lat="42.419399399453184" lon="14.115338349594282"><ele>76.6</ele><time>2026-05-02T06:55:34.998Z</time></trkpt><trkpt lat="42.419318944205465" lon="14.115436236171757"><ele>80.0</ele><time>2026-05-02T06:55:35.998Z</time></trkpt><trkpt lat="42.41923421087168" lon="14.115497372105782"><ele>80.0</ele><time>2026-05-02T06:55:36.998Z</time></trkpt><trkpt lat="42.419158292866015" lon="14.115565092785102"><ele>80.0</ele><time>2026-05-02T06:55:37.998Z</time></trkpt><trkpt lat="42.419084659138115" lon="14.115632985072779"><ele>80.0</ele><time>2026-05-02T06:55:38.998Z</time></trkpt><trkpt lat="42.41902231458475" lon="14.1157124685741"><ele>80.0</ele><time>2026-05-02T06:55:39.998Z</time></trkpt><trkpt lat="42.41894769679152" lon="14.115776212916938"><ele>80.0</ele><time>2026-05-02T06:55:40.998Z</time></trkpt><trkpt lat="42.41890004856235" lon="14.115846017778681"><ele>80.0</ele><time>2026-05-02T06:55:41.998Z</time></trkpt><trkpt lat="42.41883999077869" lon="14.115918064666237"><ele>82.2</ele><time>2026-05-02T06:55:43.998Z</time></trkpt><trkpt lat="42.418750073953966" lon="14.115852415758601"><ele>84.4</ele><time>2026-05-02T06:55:47.998Z</time></trkpt><trkpt lat="42.41866175101204" lon="14.115759977646185"><ele>86.6</ele><time>2026-05-02T06:55:49.998Z</time></trkpt><trkpt lat="42.41856775461846" lon="14.11567170139481"><ele>88.8</ele><time>2026-05-02T06:55:51.997Z</time></trkpt><trkpt lat="42.41849947653599" lon="14.115614808642727"><ele>91.0</ele><time>2026-05-02T06:55:52.997Z</time></trkpt><trkpt lat="42.418425014421736" lon="14.115570255883343"><ele>92.4</ele><time>2026-05-02T06:55:53.997Z</time></trkpt><trkpt lat="42.418350383382645" lon="14.115524131314004"><ele>93.8</ele><time>2026-05-02T06:55:54.997Z</time></trkpt><trkpt lat="42.418256518755555" lon="14.115467651173967"><ele>95.2</ele><time>2026-05-02T06:55:55.997Z</time></trkpt><trkpt lat="42.418142717842954" lon="14.115409119649389"><ele>96.60000000000001</ele><time>2026-05-02T06:55:56.997Z</time></trkpt><trkpt lat="42.418032670944505" lon="14.115332331438118"><ele>98.0</ele><time>2026-05-02T06:55:57.997Z</time></trkpt><trkpt lat="42.417928577377616" lon="14.11528811920605"><ele>99.60000000000001</ele><time>2026-05-02T06:55:58.997Z</time></trkpt><trkpt lat="42.41781879659629" lon="14.115250219207738"><ele>101.2</ele><time>2026-05-02T06:55:59.997Z</time></trkpt><trkpt lat="42.41772250061293" lon="14.115220038964235"><ele>102.8</ele><time>2026-05-02T06:56:00.997Z</time></trkpt><trkpt lat="42.41762836526671" lon="14.115194989994444"><ele>104.4</ele><time>2026-05-02T06:56:01.997Z</time></trkpt><trkpt lat="42.417530510738" lon="14.115177593795314"><ele>106.0</ele><time>2026-05-02T06:56:02.997Z</time></trkpt><trkpt lat="42.417428635656606" lon="14.115156895226628"><ele>106.0</ele><time>2026-05-02T06:56:03.997Z</time></trkpt><trkpt lat="42.4173245919981" lon="14.115156781179252"><ele>106.0</ele><time>2026-05-02T06:56:04.997Z</time></trkpt><trkpt lat="42.41722189650079" lon="14.115125920175757"><ele>106.0</ele><time>2026-05-02T06:56:05.997Z</time></trkpt><trkpt lat="42.41710860847044" lon="14.115115791873492"><ele>106.0</ele><time>2026-05-02T06:56:06.997Z</time></trkpt><trkpt lat="42.41699299079734" lon="14.115111571692124"><ele>106.0</ele><time>2026-05-02T06:56:07.997Z</time></trkpt><trkpt lat="42.41686458291948" lon="14.1151161543516"><ele>107.25</ele><time>2026-05-02T06:56:08.997Z</time></trkpt><trkpt lat="42.41674993978815" lon="14.115131524663981"><ele>108.5</ele><time>2026-05-02T06:56:09.997Z</time></trkpt><trkpt lat="42.416639216208345" lon="14.115148006045287"><ele>109.75</ele><time>2026-05-02T06:56:10.997Z</time></trkpt><trkpt lat="42.41652262627516" lon="14.11516535867661"><ele>111.0</ele><time>2026-05-02T06:56:11.997Z</time></trkpt><trkpt lat="42.416393224023956" lon="14.11518716354235"><ele>112.25</ele><time>2026-05-02T06:56:12.997Z</time></trkpt><trkpt lat="42.416254292836314" lon="14.115207352424392"><ele>113.5</ele><time>2026-05-02T06:56:13.997Z</time></trkpt><trkpt lat="42.416114886420566" lon="14.115214849197496"><ele>114.75</ele><time>2026-05-02T06:56:14.997Z</time></trkpt><trkpt lat="42.415981848768084" lon="14.115214849201683"><ele>116.0</ele><time>2026-05-02T06:56:15.997Z</time></trkpt><trkpt lat="42.415821659322205" lon="14.115228384932758"><ele>116.0</ele><time>2026-05-02T06:56:16.997Z</time></trkpt><trkpt lat="42.415685983588496" lon="14.115259300935964"><ele>116.0</ele><time>2026-05-02T06:56:17.997Z</time></trkpt><trkpt lat="42.41555774762268" lon="14.115286970759493"><ele>116.0</ele><time>2026-05-02T06:56:18.997Z</time></trkpt><trkpt lat="42.415449026611086" lon="14.115316998749172"><ele>116.0</ele><time>2026-05-02T06:56:19.997Z</time></trkpt><trkpt lat="42.41535988960966" lon="14.11534939448184"><ele>115.99999999999999</ele><time>2026-05-02T06:56:20.997Z</time></trkpt><trkpt lat="42.41530399728163" lon="14.115395506059976"><ele>116.0</ele><time>2026-05-02T06:56:22.997Z</time></trkpt><trkpt lat="42.41522380383571" lon="14.115480258537156"><ele>116.0</ele><time>2026-05-02T06:56:26.997Z</time></trkpt><trkpt lat="42.415170778914536" lon="14.115538229355966"><ele>116.0</ele><time>2026-05-02T06:56:27.997Z</time></trkpt><trkpt lat="42.41510989700533" lon="14.115598832312449"><ele>115.99999999999999</ele><time>2026-05-02T06:56:28.997Z</time></trkpt><trkpt lat="42.41505108600373" lon="14.115680178891251"><ele>116.0</ele><time>2026-05-02T06:56:29.997Z</time></trkpt><trkpt lat="42.41498449576052" lon="14.11576855806018"><ele>116.0</ele><time>2026-05-02T06:56:30.997Z</time></trkpt><trkpt lat="42.41491166205475" lon="14.115861385249483"><ele>116.0</ele><time>2026-05-02T06:56:31.997Z</time></trkpt><trkpt lat="42.41483576467103" lon="14.115960962169805"><ele>116.0</ele><time>2026-05-02T06:56:32.997Z</time></trkpt><trkpt lat="42.41474306456263" lon="14.116055627088054"><ele>116.0</ele><time>2026-05-02T06:56:33.997Z</time></trkpt><trkpt lat="42.41463630718426" lon="14.116155925090604"><ele>114.75</ele><time>2026-05-02T06:56:34.997Z</time></trkpt><trkpt lat="42.414515011427646" lon="14.116258199139324"><ele>113.5</ele><time>2026-05-02T06:56:35.997Z</time></trkpt><trkpt lat="42.41438648838222" lon="14.116364875736542"><ele>112.25</ele><time>2026-05-02T06:56:36.997Z</time></trkpt><trkpt lat="42.41425996620905" lon="14.116468130346021"><ele>111.0</ele><time>2026-05-02T06:56:37.997Z</time></trkpt><trkpt lat="42.414140928975954" lon="14.116556099458979"><ele>110.75</ele><time>2026-05-02T06:56:38.997Z</time></trkpt><trkpt lat="42.41402934727867" lon="14.116623569893333"><ele>110.5</ele><time>2026-05-02T06:56:39.997Z</time></trkpt><trkpt lat="42.41392390442457" lon="14.116687203189215"><ele>110.25</ele><time>2026-05-02T06:56:40.997Z</time></trkpt><trkpt lat="42.41382538483731" lon="14.116748785127761"><ele>110.0</ele><time>2026-05-02T06:56:41.997Z</time></trkpt><trkpt lat="42.41373217415487" lon="14.116815995452857"><ele>109.25</ele><time>2026-05-02T06:56:42.997Z</time></trkpt><trkpt lat="42.41364520516522" lon="14.116900810636645"><ele>108.5</ele><time>2026-05-02T06:56:43.997Z</time></trkpt><trkpt lat="42.413566794940905" lon="14.117024712683683"><ele>107.75</ele><time>2026-05-02T06:56:44.997Z</time></trkpt><trkpt lat="42.41348560347154" lon="14.117156018663204"><ele>107.0</ele><time>2026-05-02T06:56:45.997Z</time></trkpt><trkpt lat="42.41340657198297" lon="14.117294988360566"><ele>107.5</ele><time>2026-05-02T06:56:46.997Z</time></trkpt><trkpt lat="42.413329239264804" lon="14.117440502179823"><ele>108.0</ele><time>2026-05-02T06:56:47.997Z</time></trkpt><trkpt lat="42.413249411119594" lon="14.117582745713806"><ele>108.5</ele><time>2026-05-02T06:56:48.997Z</time></trkpt><trkpt lat="42.41317386315211" lon="14.117722609674857"><ele>109.0</ele><time>2026-05-02T06:56:49.997Z</time></trkpt><trkpt lat="42.41310577576529" lon="14.117856003802721"><ele>109.0</ele><time>2026-05-02T06:56:50.997Z</time></trkpt><trkpt lat="42.41304067259982" lon="14.117983884296407"><ele>109.0</ele><time>2026-05-02T06:56:51.997Z</time></trkpt><trkpt lat="42.4129721670332" lon="14.118103391322148"><ele>109.0</ele><time>2026-05-02T06:56:52.997Z</time></trkpt><trkpt lat="42.41290106429558" lon="14.118227272483828"><ele>109.0</ele><time>2026-05-02T06:56:53.997Z</time></trkpt><trkpt lat="42.41281696832827" lon="14.11834219969386"><ele>108.5</ele><time>2026-05-02T06:56:54.997Z</time></trkpt><trkpt lat="42.41271685753106" lon="14.118437215073309"><ele>108.0</ele><time>2026-05-02T06:56:55.997Z</time></trkpt><trkpt lat="42.41263023746858" lon="14.118553639601368"><ele>107.5</ele><time>2026-05-02T06:56:56.997Z</time></trkpt><trkpt lat="42.41252708763113" lon="14.118642622046753"><ele>107.0</ele><time>2026-05-02T06:56:57.997Z</time></trkpt><trkpt lat="42.41241721683047" lon="14.11872582459665"><ele>107.0</ele><time>2026-05-02T06:56:58.997Z</time></trkpt><trkpt lat="42.41230361391365" lon="14.118806268281364"><ele>107.0</ele><time>2026-05-02T06:56:59.997Z</time></trkpt><trkpt lat="42.41217929205476" lon="14.118862147867196"><ele>107.0</ele><time>2026-05-02T06:57:00.997Z</time></trkpt><trkpt lat="42.41205957373719" lon="14.118941508002452"><ele>107.0</ele><time>2026-05-02T06:57:01.997Z</time></trkpt><trkpt lat="42.411947666113434" lon="14.119045120012167"><ele>105.75</ele><time>2026-05-02T06:57:02.997Z</time></trkpt><trkpt lat="42.4118273465807" lon="14.119124523928988"><ele>104.5</ele><time>2026-05-02T06:57:03.997Z</time></trkpt><trkpt lat="42.411707243273085" lon="14.119198092719431"><ele>103.25</ele><time>2026-05-02T06:57:04.997Z</time></trkpt><trkpt lat="42.411583247080586" lon="14.119250921216134"><ele>102.0</ele><time>2026-05-02T06:57:05.997Z</time></trkpt><trkpt lat="42.41146782522476" lon="14.119318755437948"><ele>102.0</ele><time>2026-05-02T06:57:06.997Z</time></trkpt><trkpt lat="42.41135508034023" lon="14.119385496052624"><ele>102.0</ele><time>2026-05-02T06:57:07.997Z</time></trkpt><trkpt lat="42.41124598483851" lon="14.119459148782639"><ele>102.0</ele><time>2026-05-02T06:57:08.997Z</time></trkpt><trkpt lat="42.41113984096815" lon="14.119548768059252"><ele>102.0</ele><time>2026-05-02T06:57:09.997Z</time></trkpt><trkpt lat="42.41103966891426" lon="14.119637996690978"><ele>102.16666666666667</ele><time>2026-05-02T06:57:10.997Z</time></trkpt><trkpt lat="42.41094644519747" lon="14.119721170393081"><ele>102.33333333333334</ele><time>2026-05-02T06:57:11.997Z</time></trkpt><trkpt lat="42.41086108565938" lon="14.11979890399344"><ele>102.5</ele><time>2026-05-02T06:57:12.997Z</time></trkpt><trkpt lat="42.41079432988346" lon="14.119864085129597"><ele>102.66666666666667</ele><time>2026-05-02T06:57:13.997Z</time></trkpt><trkpt lat="42.41074014473642" lon="14.119913010934118"><ele>102.83333333333334</ele><time>2026-05-02T06:57:14.997Z</time></trkpt><trkpt lat="42.41067180774292" lon="14.11996876568221"><ele>103.0</ele><time>2026-05-02T06:57:16.997Z</time></trkpt><trkpt lat="42.41061097634173" lon="14.120015334330372"><ele>102.0</ele><time>2026-05-02T06:57:19.997Z</time></trkpt><trkpt lat="42.41054736682047" lon="14.119919036382194"><ele>101.0</ele><time>2026-05-02T06:57:23.997Z</time></trkpt><trkpt lat="42.410465677988626" lon="14.119793207996368"><ele>100.0</ele><time>2026-05-02T06:57:25.997Z</time></trkpt><trkpt lat="42.41040387568197" lon="14.1196771516893"><ele>99.0</ele><time>2026-05-02T06:57:27.997Z</time></trkpt><trkpt lat="42.41037657375257" lon="14.119581318320932"><ele>98.0</ele><time>2026-05-02T06:57:29.997Z</time></trkpt><trkpt lat="42.41037175091397" lon="14.119438596805193"><ele>97.66666666666666</ele><time>2026-05-02T06:57:30.997Z</time></trkpt><trkpt lat="42.41033244261729" lon="14.119354427109263"><ele>97.33333333333333</ele><time>2026-05-02T06:57:31.997Z</time></trkpt><trkpt lat="42.4102717396036" lon="14.119256166546748"><ele>97.0</ele><time>2026-05-02T06:57:33.997Z</time></trkpt><trkpt lat="42.410204763044874" lon="14.11914774700724"><ele>96.66666666666666</ele><time>2026-05-02T06:57:35.997Z</time></trkpt><trkpt lat="42.410163809395" lon="14.119081452736827"><ele>96.33333333333333</ele><time>2026-05-02T06:57:36.997Z</time></trkpt><trkpt lat="42.410118777691764" lon="14.119008556784678"><ele>96.0</ele><time>2026-05-02T06:57:37.997Z</time></trkpt><trkpt lat="42.409937754959046" lon="14.119102735067449"><ele>96.0</ele><time>2026-05-02T06:57:38.997Z</time></trkpt><trkpt lat="42.40984849406555" lon="14.119011612245332"><ele>96.0</ele><time>2026-05-02T06:57:40.997Z</time></trkpt><trkpt lat="42.40975867128343" lon="14.118943772941375"><ele>96.0</ele><time>2026-05-02T06:57:42.997Z</time></trkpt><trkpt lat="42.409674317393225" lon="14.118873523953244"><ele>96.0</ele><time>2026-05-02T06:57:45Z</time></trkpt><trkpt lat="42.4095810379051" lon="14.118808102171165"><ele>96.0</ele><time>2026-05-02T06:57:47Z</time></trkpt><trkpt lat="42.4094741531079" lon="14.118742489294664"><ele>94.0</ele><time>2026-05-02T06:57:49Z</time></trkpt><trkpt lat="42.4093854344777" lon="14.118673261817491"><ele>92.0</ele><time>2026-05-02T06:57:51Z</time></trkpt><trkpt lat="42.40931072860797" lon="14.118592053169293"><ele>90.0</ele><time>2026-05-02T06:57:53Z</time></trkpt><trkpt lat="42.409262131019425" lon="14.118534461025641"><ele>88.0</ele><time>2026-05-02T06:57:54Z</time></trkpt><trkpt lat="42.409208482026955" lon="14.118474998694628"><ele>86.0</ele><time>2026-05-02T06:57:55Z</time></trkpt><trkpt lat="42.40916582323252" lon="14.118406007572359"><ele>84.0</ele><time>2026-05-02T06:57:56Z</time></trkpt><trkpt lat="42.4091215974708" lon="14.118334832403159"><ele>82.83333333333333</ele><time>2026-05-02T06:57:57Z</time></trkpt><trkpt lat="42.40904512484357" lon="14.118196128654999"><ele>81.66666666666667</ele><time>2026-05-02T06:57:59Z</time></trkpt><trkpt lat="42.40900622988032" lon="14.118125317346275"><ele>80.5</ele><time>2026-05-02T06:58:00Z</time></trkpt><trkpt lat="42.408963802305124" lon="14.118051132991436"><ele>79.33333333333334</ele><time>2026-05-02T06:58:01Z</time></trkpt><trkpt lat="42.408922461043" lon="14.117972228577935"><ele>78.16666666666667</ele><time>2026-05-02T06:58:02Z</time></trkpt><trkpt lat="42.408884028537024" lon="14.11789909566038"><ele>77.0</ele><time>2026-05-02T06:58:03Z</time></trkpt><trkpt lat="42.40881670223712" lon="14.117770176362134"><ele>76.8</ele><time>2026-05-02T06:58:05Z</time></trkpt><trkpt lat="42.40876666492036" lon="14.117660739121435"><ele>76.6</ele><time>2026-05-02T06:58:07Z</time></trkpt><trkpt lat="42.408711046807504" lon="14.11757492134552"><ele>76.39999999999999</ele><time>2026-05-02T06:58:10Z</time></trkpt><trkpt lat="42.408619548393055" lon="14.117514749771512"><ele>76.2</ele><time>2026-05-02T06:58:12Z</time></trkpt><trkpt lat="42.40854218146685" lon="14.117464562465598"><ele>76.0</ele><time>2026-05-02T06:58:13Z</time></trkpt><trkpt lat="42.4084716697268" lon="14.117369825258047"><ele>77.25</ele><time>2026-05-02T06:58:14Z</time></trkpt><trkpt lat="42.40839434785268" lon="14.117224218557192"><ele>78.5</ele><time>2026-05-02T06:58:15Z</time></trkpt><trkpt lat="42.408313256288565" lon="14.117058284220956"><ele>79.75</ele><time>2026-05-02T06:58:16Z</time></trkpt><trkpt lat="42.408231417145494" lon="14.116958915862627"><ele>81.0</ele><time>2026-05-02T06:58:17Z</time></trkpt><trkpt lat="42.408146484713996" lon="14.116878119080912"><ele>81.0</ele><time>2026-05-02T06:58:18Z</time></trkpt><trkpt lat="42.4080604838527" lon="14.116832595516113"><ele>81.0</ele><time>2026-05-02T06:58:19Z</time></trkpt><trkpt lat="42.40798380733954" lon="14.116786016481003"><ele>81.0</ele><time>2026-05-02T06:58:20Z</time></trkpt><trkpt lat="42.407912648988905" lon="14.116719126093278"><ele>81.0</ele><time>2026-05-02T06:58:21Z</time></trkpt><trkpt lat="42.40782345122972" lon="14.116647157010165"><ele>81.0</ele><time>2026-05-02T06:58:22Z</time></trkpt><trkpt lat="42.407747475836146" lon="14.116604960843691"><ele>81.0</ele><time>2026-05-02T06:58:23Z</time></trkpt><trkpt lat="42.407663600381746" lon="14.116560195874309"><ele>83.8</ele><time>2026-05-02T06:58:24Z</time></trkpt><trkpt lat="42.40757464932798" lon="14.116517814858215"><ele>86.6</ele><time>2026-05-02T06:58:25Z</time></trkpt><trkpt lat="42.40749791874509" lon="14.116485340610028"><ele>89.4</ele><time>2026-05-02T06:58:26Z</time></trkpt><trkpt lat="42.407392008015215" lon="14.116454866755685"><ele>92.2</ele><time>2026-05-02T06:58:27Z</time></trkpt><trkpt lat="42.40729441377936" lon="14.116419220955912"><ele>95.0</ele><time>2026-05-02T06:58:28Z</time></trkpt><trkpt lat="42.40720510210241" lon="14.116391408535117"><ele>96.33333333333334</ele><time>2026-05-02T06:58:29Z</time></trkpt><trkpt lat="42.40710597116372" lon="14.116362474054604"><ele>97.66666666666667</ele><time>2026-05-02T06:58:30Z</time></trkpt><trkpt lat="42.40702330731943" lon="14.116336438743282"><ele>99.0</ele><time>2026-05-02T06:58:30.999Z</time></trkpt><trkpt lat="42.4069586331336" lon="14.116316510771417"><ele>100.33333333333334</ele><time>2026-05-02T06:58:31.999Z</time></trkpt><trkpt lat="42.40689447053168" lon="14.116271112262108"><ele>101.66666666666667</ele><time>2026-05-02T06:58:32.999Z</time></trkpt><trkpt lat="42.406825885609834" lon="14.116204807389977"><ele>103.0</ele><time>2026-05-02T06:58:33.999Z</time></trkpt><trkpt lat="42.40674041011246" lon="14.116135833000667"><ele>103.0</ele><time>2026-05-02T06:58:34.999Z</time></trkpt><trkpt lat="42.4066548233289" lon="14.116063529082579"><ele>103.0</ele><time>2026-05-02T06:58:35.999Z</time></trkpt><trkpt lat="42.40656991753984" lon="14.116004795262807"><ele>103.0</ele><time>2026-05-02T06:58:36.999Z</time></trkpt><trkpt lat="42.406494921651095" lon="14.11594621405962"><ele>103.0</ele><time>2026-05-02T06:58:37.999Z</time></trkpt><trkpt lat="42.40641465380527" lon="14.115881498219297"><ele>103.0</ele><time>2026-05-02T06:58:38.999Z</time></trkpt><trkpt lat="42.40633184921046" lon="14.115825980420889"><ele>103.60000000000001</ele><time>2026-05-02T06:58:39.999Z</time></trkpt><trkpt lat="42.40624690259553" lon="14.115771764212854"><ele>104.2</ele><time>2026-05-02T06:58:40.999Z</time></trkpt><trkpt lat="42.40615591922811" lon="14.115718511101768"><ele>104.8</ele><time>2026-05-02T06:58:41.999Z</time></trkpt><trkpt lat="42.40607587940719" lon="14.115667411028216"><ele>105.4</ele><time>2026-05-02T06:58:42.999Z</time></trkpt><trkpt lat="42.405991887343504" lon="14.115599601215811"><ele>106.0</ele><time>2026-05-02T06:58:43.999Z</time></trkpt><trkpt lat="42.40591259440726" lon="14.115538462952653"><ele>106.6</ele><time>2026-05-02T06:58:44.999Z</time></trkpt><trkpt lat="42.40583986962414" lon="14.11549395800529"><ele>107.19999999999999</ele><time>2026-05-02T06:58:45.999Z</time></trkpt><trkpt lat="42.40571816585828" lon="14.115454226824873"><ele>107.80000000000001</ele><time>2026-05-02T06:58:47.999Z</time></trkpt><trkpt lat="42.405614737427044" lon="14.115476904092773"><ele>108.4</ele><time>2026-05-02T06:58:48.999Z</time></trkpt><trkpt lat="42.40550602950812" lon="14.11550723818282"><ele>109.0</ele><time>2026-05-02T06:58:49.999Z</time></trkpt><trkpt lat="42.405413481681606" lon="14.115511600720572"><ele>107.83333333333334</ele><time>2026-05-02T06:58:50.999Z</time></trkpt><trkpt lat="42.40533909222836" lon="14.115512416931463"><ele>106.66666666666667</ele><time>2026-05-02T06:58:52.999Z</time></trkpt><trkpt lat="42.40523591761502" lon="14.11550152290178"><ele>105.5</ele><time>2026-05-02T06:58:55.999Z</time></trkpt><trkpt lat="42.405159038899825" lon="14.115497848352653"><ele>104.33333333333334</ele><time>2026-05-02T06:58:56.999Z</time></trkpt><trkpt lat="42.4050658015854" lon="14.115481595736597"><ele>103.16666666666667</ele><time>2026-05-02T06:58:57.999Z</time></trkpt><trkpt lat="42.404968381630574" lon="14.115447531694604"><ele>102.0</ele><time>2026-05-02T06:58:58.999Z</time></trkpt><trkpt lat="42.40488784811898" lon="14.115411377179129"><ele>102.0</ele><time>2026-05-02T06:58:59.999Z</time></trkpt><trkpt lat="42.40477232971577" lon="14.115334658133571"><ele>102.0</ele><time>2026-05-02T06:59:01.999Z</time></trkpt><trkpt lat="42.404690676594655" lon="14.115254195301576"><ele>102.0</ele><time>2026-05-02T06:59:03.999Z</time></trkpt><trkpt lat="42.40471654232056" lon="14.115333135049465"><ele>102.0</ele><time>2026-05-02T06:59:12.999Z</time></trkpt><trkpt lat="42.40481255329907" lon="14.115393587032473"><ele>102.0</ele><time>2026-05-02T06:59:14.999Z</time></trkpt><trkpt lat="42.404912749245476" lon="14.11544956465226"><ele>102.0</ele><time>2026-05-02T06:59:15.999Z</time></trkpt><trkpt lat="42.405029503617286" lon="14.115483881635647"><ele>102.0</ele><time>2026-05-02T06:59:16.999Z</time></trkpt><trkpt lat="42.405168289356006" lon="14.115486011621634"><ele>102.0</ele><time>2026-05-02T06:59:17.999Z</time></trkpt><trkpt lat="42.40529179934724" lon="14.115472908190608"><ele>102.0</ele><time>2026-05-02T06:59:18.999Z</time></trkpt><trkpt lat="42.40536923325787" lon="14.115470452235751"><ele>102.0</ele><time>2026-05-02T06:59:19.999Z</time></trkpt><trkpt lat="42.405444428839424" lon="14.115556206264618"><ele>102.0</ele><time>2026-05-02T06:59:21.999Z</time></trkpt><trkpt lat="42.40543182164799" lon="14.115684006694702"><ele>102.0</ele><time>2026-05-02T06:59:23.999Z</time></trkpt><trkpt lat="42.40537526892658" lon="14.115852779346842"><ele>102.0</ele><time>2026-05-02T06:59:25.999Z</time></trkpt><trkpt lat="42.40532815379267" lon="14.115936013596643"><ele>102.0</ele><time>2026-05-02T06:59:26.999Z</time></trkpt><trkpt lat="42.405259901422596" lon="14.11603103757978"><ele>102.0</ele><time>2026-05-02T06:59:27.999Z</time></trkpt><trkpt lat="42.405181390613286" lon="14.11614091811279"><ele>102.0</ele><time>2026-05-02T06:59:28.999Z</time></trkpt><trkpt lat="42.40509125738763" lon="14.116258645958824"><ele>102.0</ele><time>2026-05-02T06:59:29.999Z</time></trkpt><trkpt lat="42.40499030548198" lon="14.116385886212832"><ele>102.0</ele><time>2026-05-02T06:59:30.999Z</time></trkpt><trkpt lat="42.404868028713324" lon="14.116548791096484"><ele>99.33333333333333</ele><time>2026-05-02T06:59:31.999Z</time></trkpt><trkpt lat="42.404738819854686" lon="14.116710790644005"><ele>96.66666666666666</ele><time>2026-05-02T06:59:32.999Z</time></trkpt><trkpt lat="42.40460622131667" lon="14.116865836742207"><ele>94.0</ele><time>2026-05-02T06:59:33.999Z</time></trkpt><trkpt lat="42.404473068253424" lon="14.11702603257653"><ele>93.0</ele><time>2026-05-02T06:59:34.999Z</time></trkpt><trkpt lat="42.404346471444086" lon="14.117179693941788"><ele>92.0</ele><time>2026-05-02T06:59:35.999Z</time></trkpt><trkpt lat="42.4042314951135" lon="14.117307151114332"><ele>91.0</ele><time>2026-05-02T06:59:36.999Z</time></trkpt><trkpt lat="42.40413019599351" lon="14.117400793565263"><ele>90.0</ele><time>2026-05-02T06:59:37.999Z</time></trkpt><trkpt lat="42.40404395068159" lon="14.117505946076934"><ele>89.0</ele><time>2026-05-02T06:59:38.999Z</time></trkpt><trkpt lat="42.40397214006578" lon="14.117592035185012"><ele>88.0</ele><time>2026-05-02T06:59:39.999Z</time></trkpt><trkpt lat="42.40390078276106" lon="14.117715932343751"><ele>87.0</ele><time>2026-05-02T06:59:40.999Z</time></trkpt><trkpt lat="42.40381940292633" lon="14.117800964962672"><ele>86.0</ele><time>2026-05-02T06:59:41.999Z</time></trkpt><trkpt lat="42.40374064560638" lon="14.117896242677933"><ele>85.0</ele><time>2026-05-02T06:59:42.999Z</time></trkpt><trkpt lat="42.403661102346824" lon="14.117991803337016"><ele>84.25</ele><time>2026-05-02T06:59:43.999Z</time></trkpt><trkpt lat="42.403573404496775" lon="14.11809714902636"><ele>83.5</ele><time>2026-05-02T06:59:44.999Z</time></trkpt><trkpt lat="42.40347359804952" lon="14.118214963005615"><ele>82.75</ele><time>2026-05-02T06:59:45.999Z</time></trkpt><trkpt lat="42.40335871544195" lon="14.118350330027367"><ele>82.0</ele><time>2026-05-02T06:59:46.999Z</time></trkpt><trkpt lat="42.403243274864266" lon="14.118488235039562"><ele>81.5</ele><time>2026-05-02T06:59:47.999Z</time></trkpt><trkpt lat="42.403128164741446" lon="14.118631029484469"><ele>81.0</ele><time>2026-05-02T06:59:48.999Z</time></trkpt><trkpt lat="42.4030284495592" lon="14.11877836348982"><ele>80.5</ele><time>2026-05-02T06:59:49.999Z</time></trkpt><trkpt lat="42.40293860188065" lon="14.118897783295054"><ele>80.0</ele><time>2026-05-02T06:59:50.999Z</time></trkpt><trkpt lat="42.4028539460624" lon="14.119009673596615"><ele>79.0</ele><time>2026-05-02T06:59:51.999Z</time></trkpt><trkpt lat="42.402763561932254" lon="14.119088988218891"><ele>78.0</ele><time>2026-05-02T06:59:52.999Z</time></trkpt><trkpt lat="42.4026840805446" lon="14.119181711339815"><ele>77.0</ele><time>2026-05-02T06:59:53.999Z</time></trkpt><trkpt lat="42.40261216519506" lon="14.119264021616083"><ele>76.0</ele><time>2026-05-02T06:59:54.999Z</time></trkpt><trkpt lat="42.40253676777511" lon="14.119348146362531"><ele>75.0</ele><time>2026-05-02T06:59:55.999Z</time></trkpt><trkpt lat="42.40244570867941" lon="14.119447365590323"><ele>75.0</ele><time>2026-05-02T06:59:56.999Z</time></trkpt><trkpt lat="42.402345657781815" lon="14.119550654045078"><ele>75.0</ele><time>2026-05-02T06:59:57.999Z</time></trkpt><trkpt lat="42.40225500536614" lon="14.119665135482816"><ele>75.0</ele><time>2026-05-02T06:59:58.999Z</time></trkpt><trkpt lat="42.4021614139846" lon="14.119740415832776"><ele>75.0</ele><time>2026-05-02T06:59:59.999Z</time></trkpt><trkpt lat="42.40206621430924" lon="14.11981775288969"><ele>73.0</ele><time>2026-05-02T07:00:00.999Z</time></trkpt><trkpt lat="42.401978689088224" lon="14.119906975335278"><ele>71.0</ele><time>2026-05-02T07:00:01.999Z</time></trkpt><trkpt lat="42.40187764085077" lon="14.11998362218017"><ele>69.0</ele><time>2026-05-02T07:00:02.999Z</time></trkpt><trkpt lat="42.40177266738286" lon="14.12006730032831"><ele>67.0</ele><time>2026-05-02T07:00:03.999Z</time></trkpt><trkpt lat="42.401663143003226" lon="14.120133498861646"><ele>67.0</ele><time>2026-05-02T07:00:04.999Z</time></trkpt><trkpt lat="42.40155812730925" lon="14.120241278067464"><ele>67.0</ele><time>2026-05-02T07:00:05.999Z</time></trkpt><trkpt lat="42.4014586871872" lon="14.120325071790504"><ele>67.0</ele><time>2026-05-02T07:00:06.999Z</time></trkpt><trkpt lat="42.40134432396294" lon="14.120462639507403"><ele>67.0</ele><time>2026-05-02T07:00:07.999Z</time></trkpt><trkpt lat="42.40125028331741" lon="14.120552126931598"><ele>66.71428571428572</ele><time>2026-05-02T07:00:08.999Z</time></trkpt><trkpt lat="42.40116897051458" lon="14.120608182904805"><ele>66.42857142857143</ele><time>2026-05-02T07:00:09.999Z</time></trkpt><trkpt lat="42.401100590170145" lon="14.120633816703679"><ele>66.14285714285714</ele><time>2026-05-02T07:00:10.999Z</time></trkpt><trkpt lat="42.40105348877576" lon="14.120709870779038"><ele>65.85714285714286</ele><time>2026-05-02T07:00:11.999Z</time></trkpt><trkpt lat="42.401005437927864" lon="14.120767334297822"><ele>65.57142857142857</ele><time>2026-05-02T07:00:12.999Z</time></trkpt><trkpt lat="42.400949556336265" lon="14.120830005010593"><ele>65.28571428571429</ele><time>2026-05-02T07:00:13.999Z</time></trkpt><trkpt lat="42.4008897482936" lon="14.120886866984149"><ele>65.0</ele><time>2026-05-02T07:00:14.999Z</time></trkpt><trkpt lat="42.40082153442223" lon="14.12093246486469"><ele>64.83333333333334</ele><time>2026-05-02T07:00:15.999Z</time></trkpt><trkpt lat="42.40075738170325" lon="14.120999587788287"><ele>64.66666666666667</ele><time>2026-05-02T07:00:16.999Z</time></trkpt><trkpt lat="42.40069791895425" lon="14.121071196611094"><ele>64.5</ele><time>2026-05-02T07:00:17.999Z</time></trkpt><trkpt lat="42.40062897889296" lon="14.121128336486239"><ele>64.33333333333333</ele><time>2026-05-02T07:00:18.999Z</time></trkpt><trkpt lat="42.400560956219756" lon="14.121217080972936"><ele>64.16666666666666</ele><time>2026-05-02T07:00:19.998Z</time></trkpt><trkpt lat="42.40047090473246" lon="14.121297455211417"><ele>64.0</ele><time>2026-05-02T07:00:20.998Z</time></trkpt><trkpt lat="42.40036844222191" lon="14.121372024889922"><ele>63.400000000000006</ele><time>2026-05-02T07:00:21.998Z</time></trkpt><trkpt lat="42.40027292020347" lon="14.12143935089371"><ele>62.800000000000004</ele><time>2026-05-02T07:00:22.998Z</time></trkpt><trkpt lat="42.40018559337646" lon="14.121525783637182"><ele>62.199999999999996</ele><time>2026-05-02T07:00:23.998Z</time></trkpt><trkpt lat="42.4001052868088" lon="14.121614202643954"><ele>61.599999999999994</ele><time>2026-05-02T07:00:24.998Z</time></trkpt><trkpt lat="42.40002511211643" lon="14.121717797721333"><ele>61.0</ele><time>2026-05-02T07:00:25.998Z</time></trkpt><trkpt lat="42.39997507948528" lon="14.121866387901209"><ele>61.0</ele><time>2026-05-02T07:00:26.998Z</time></trkpt><trkpt lat="42.39993054816786" lon="14.122048686543012"><ele>61.0</ele><time>2026-05-02T07:00:27.998Z</time></trkpt><trkpt lat="42.39986571428214" lon="14.1222501239475"><ele>61.0</ele><time>2026-05-02T07:00:28.998Z</time></trkpt><trkpt lat="42.399799326552404" lon="14.122434684563972"><ele>61.0</ele><time>2026-05-02T07:00:29.998Z</time></trkpt><trkpt lat="42.399740679104845" lon="14.12254593859031"><ele>60.99999999999999</ele><time>2026-05-02T07:00:30.998Z</time></trkpt><trkpt lat="42.39972338980051" lon="14.122656349010173"><ele>60.99999999999999</ele><time>2026-05-02T07:00:31.998Z</time></trkpt><trkpt lat="42.3997040482462" lon="14.122771093173291"><ele>61.0</ele><time>2026-05-02T07:00:32.998Z</time></trkpt><trkpt lat="42.39971288120124" lon="14.122920409635999"><ele>61.0</ele><time>2026-05-02T07:00:33.998Z</time></trkpt><trkpt lat="42.399732559646914" lon="14.12306795007935"><ele>61.0</ele><time>2026-05-02T07:00:34.998Z</time></trkpt><trkpt lat="42.39974182015023" lon="14.123215292422307"><ele>60.99999999999999</ele><time>2026-05-02T07:00:35.998Z</time></trkpt><trkpt lat="42.399737986078144" lon="14.123342181514326"><ele>60.99999999999999</ele><time>2026-05-02T07:00:36.998Z</time></trkpt><trkpt lat="42.399701422043364" lon="14.12346444467297"><ele>61.0</ele><time>2026-05-02T07:00:37.998Z</time></trkpt><trkpt lat="42.399643127425236" lon="14.123608052418659"><ele>61.0</ele><time>2026-05-02T07:00:38.998Z</time></trkpt><trkpt lat="42.39955221641556" lon="14.12377602855689"><ele>58.666666666666664</ele><time>2026-05-02T07:00:39.998Z</time></trkpt><trkpt lat="42.399485215500604" lon="14.123998362640991"><ele>56.33333333333333</ele><time>2026-05-02T07:00:40.998Z</time></trkpt><trkpt lat="42.39940532825944" lon="14.124215276818708"><ele>54.0</ele><time>2026-05-02T07:00:41.998Z</time></trkpt><trkpt lat="42.399325482641736" lon="14.12441242809471"><ele>53.5</ele><time>2026-05-02T07:00:42.998Z</time></trkpt><trkpt lat="42.39923127428413" lon="14.124570365003253"><ele>53.0</ele><time>2026-05-02T07:00:43.998Z</time></trkpt><trkpt lat="42.39915420683683" lon="14.124716900777905"><ele>52.5</ele><time>2026-05-02T07:00:44.998Z</time></trkpt><trkpt lat="42.39907772296747" lon="14.124885895080721"><ele>52.0</ele><time>2026-05-02T07:00:45.998Z</time></trkpt><trkpt lat="42.398962294276934" lon="14.12501660820132"><ele>51.75</ele><time>2026-05-02T07:00:46.998Z</time></trkpt><trkpt lat="42.39886197734314" lon="14.125147667263152"><ele>51.5</ele><time>2026-05-02T07:00:47.998Z</time></trkpt><trkpt lat="42.398770061294115" lon="14.125279529779556"><ele>51.25</ele><time>2026-05-02T07:00:48.998Z</time></trkpt><trkpt lat="42.3986684271103" lon="14.125304611576825"><ele>51.0</ele><time>2026-05-02T07:00:49.998Z</time></trkpt><trkpt lat="42.39856680101163" lon="14.125321828356446"><ele>49.5</ele><time>2026-05-02T07:00:50.998Z</time></trkpt><trkpt lat="42.398454945632785" lon="14.125328054199786"><ele>48.0</ele><time>2026-05-02T07:00:51.998Z</time></trkpt><trkpt lat="42.39834030895858" lon="14.125311432165105"><ele>46.5</ele><time>2026-05-02T07:00:52.998Z</time></trkpt><trkpt lat="42.398216030002345" lon="14.125274275990673"><ele>45.0</ele><time>2026-05-02T07:00:53.998Z</time></trkpt><trkpt lat="42.39808717704477" lon="14.125245733895927"><ele>45.2</ele><time>2026-05-02T07:00:54.998Z</time></trkpt><trkpt lat="42.397980679882394" lon="14.125249000010562"><ele>45.4</ele><time>2026-05-02T07:00:55.998Z</time></trkpt><trkpt lat="42.39787863914896" lon="14.125243054630772"><ele>45.599999999999994</ele><time>2026-05-02T07:00:56.998Z</time></trkpt><trkpt lat="42.39781413485426" lon="14.12532519026112"><ele>45.8</ele><time>2026-05-02T07:00:57.998Z</time></trkpt><trkpt lat="42.39774982895383" lon="14.125407730585666"><ele>46.0</ele><time>2026-05-02T07:00:58.998Z</time></trkpt><trkpt lat="42.3976744847116" lon="14.125564283110021"><ele>46.0</ele><time>2026-05-02T07:00:59.998Z</time></trkpt><trkpt lat="42.39763088917849" lon="14.125725867014632"><ele>46.0</ele><time>2026-05-02T07:01:00.998Z</time></trkpt><trkpt lat="42.39755452737361" lon="14.125889820253485"><ele>46.0</ele><time>2026-05-02T07:01:01.998Z</time></trkpt><trkpt lat="42.39746535910648" lon="14.125988800471212"><ele>46.0</ele><time>2026-05-02T07:01:02.998Z</time></trkpt><trkpt lat="42.39738426278369" lon="14.126049826478281"><ele>47.0</ele><time>2026-05-02T07:01:03.998Z</time></trkpt><trkpt lat="42.39728644199146" lon="14.126097624086315"><ele>48.0</ele><time>2026-05-02T07:01:04.998Z</time></trkpt><trkpt lat="42.39719439635507" lon="14.126156565908659"><ele>49.0</ele><time>2026-05-02T07:01:05.998Z</time></trkpt><trkpt lat="42.39708066687375" lon="14.126170907614613"><ele>50.0</ele><time>2026-05-02T07:01:06.998Z</time></trkpt><trkpt lat="42.396945479916596" lon="14.126233249431113"><ele>51.333333333333336</ele><time>2026-05-02T07:01:07.998Z</time></trkpt><trkpt lat="42.39680295892418" lon="14.12629844365544"><ele>52.66666666666667</ele><time>2026-05-02T07:01:08.998Z</time></trkpt><trkpt lat="42.39664937588549" lon="14.126354858752244"><ele>54.0</ele><time>2026-05-02T07:01:09.998Z</time></trkpt><trkpt lat="42.39648096685967" lon="14.126439053738405"><ele>54.33333333333333</ele><time>2026-05-02T07:01:10.998Z</time></trkpt><trkpt lat="42.396313887934774" lon="14.126515360453178"><ele>54.666666666666664</ele><time>2026-05-02T07:01:11.998Z</time></trkpt><trkpt lat="42.39613112240189" lon="14.126521721690976"><ele>55.0</ele><time>2026-05-02T07:01:12.998Z</time></trkpt><trkpt lat="42.39595781981166" lon="14.126557410995483"><ele>54.666666666666664</ele><time>2026-05-02T07:01:13.998Z</time></trkpt><trkpt lat="42.39578682400286" lon="14.126601053991203"><ele>54.33333333333333</ele><time>2026-05-02T07:01:14.998Z</time></trkpt><trkpt lat="42.395595449944175" lon="14.12665324367225"><ele>54.0</ele><time>2026-05-02T07:01:15.998Z</time></trkpt><trkpt lat="42.39539677085257" lon="14.126703402813963"><ele>54.0</ele><time>2026-05-02T07:01:16.998Z</time></trkpt><trkpt lat="42.39519876495078" lon="14.126750222319352"><ele>54.0</ele><time>2026-05-02T07:01:17.998Z</time></trkpt><trkpt lat="42.39500441911608" lon="14.126812457076262"><ele>54.0</ele><time>2026-05-02T07:01:18.998Z</time></trkpt><trkpt lat="42.39480849872631" lon="14.126851286480237"><ele>55.0</ele><time>2026-05-02T07:01:19.998Z</time></trkpt><trkpt lat="42.39461312033917" lon="14.126861800730818"><ele>56.0</ele><time>2026-05-02T07:01:20.998Z</time></trkpt><trkpt lat="42.39442083339659" lon="14.126881229935671"><ele>57.0</ele><time>2026-05-02T07:01:21.998Z</time></trkpt><trkpt lat="42.394246433330906" lon="14.126916450855578"><ele>57.0</ele><time>2026-05-02T07:01:22.998Z</time></trkpt><trkpt lat="42.394102527021175" lon="14.12694956939725"><ele>57.0</ele><time>2026-05-02T07:01:23.998Z</time></trkpt><trkpt lat="42.39396974519362" lon="14.12695769411313"><ele>57.0</ele><time>2026-05-02T07:01:24.998Z</time></trkpt><trkpt lat="42.39384930398302" lon="14.127010268938498"><ele>57.0</ele><time>2026-05-02T07:01:25.998Z</time></trkpt><trkpt lat="42.39372347024529" lon="14.12705620666005"><ele>56.33333333333333</ele><time>2026-05-02T07:01:26.998Z</time></trkpt><trkpt lat="42.39359370214781" lon="14.127133327166199"><ele>55.666666666666664</ele><time>2026-05-02T07:01:27.998Z</time></trkpt><trkpt lat="42.39345224329591" lon="14.127230200579193"><ele>55.0</ele><time>2026-05-02T07:01:28.998Z</time></trkpt><trkpt lat="42.39331932575533" lon="14.127382045224396"><ele>54.666666666666664</ele><time>2026-05-02T07:01:29.998Z</time></trkpt><trkpt lat="42.393185736095795" lon="14.1275679835656"><ele>54.33333333333333</ele><time>2026-05-02T07:01:30.998Z</time></trkpt><trkpt lat="42.39305487987047" lon="14.127739710796503"><ele>54.0</ele><time>2026-05-02T07:01:31.998Z</time></trkpt><trkpt lat="42.39292426979998" lon="14.127877141942225"><ele>54.0</ele><time>2026-05-02T07:01:32.998Z</time></trkpt><trkpt lat="42.392792043451365" lon="14.12803700986305"><ele>54.0</ele><time>2026-05-02T07:01:33.998Z</time></trkpt><trkpt lat="42.39266694594245" lon="14.128209343137744"><ele>54.0</ele><time>2026-05-02T07:01:34.998Z</time></trkpt><trkpt lat="42.39253700000208" lon="14.12840853935483"><ele>54.0</ele><time>2026-05-02T07:01:35.998Z</time></trkpt><trkpt lat="42.392395342038704" lon="14.128606410670244"><ele>54.0</ele><time>2026-05-02T07:01:36.998Z</time></trkpt><trkpt lat="42.39225658749773" lon="14.128804171374641"><ele>54.0</ele><time>2026-05-02T07:01:37.998Z</time></trkpt><trkpt lat="42.39212451474179" lon="14.128979324542698"><ele>54.33333333333333</ele><time>2026-05-02T07:01:38.998Z</time></trkpt><trkpt lat="42.39199955114343" lon="14.129171294978258"><ele>54.666666666666664</ele><time>2026-05-02T07:01:39.998Z</time></trkpt><trkpt lat="42.391893947498374" lon="14.129332371866905"><ele>55.0</ele><time>2026-05-02T07:01:40.998Z</time></trkpt><trkpt lat="42.391813825177344" lon="14.129470624653539"><ele>54.99999999999999</ele><time>2026-05-02T07:01:41.998Z</time></trkpt><trkpt lat="42.39173672873822" lon="14.12955541477187"><ele>55.0</ele><time>2026-05-02T07:01:42.998Z</time></trkpt><trkpt lat="42.39166784435936" lon="14.12955336020409"><ele>55.0</ele><time>2026-05-02T07:01:43.998Z</time></trkpt><trkpt lat="42.391602457242605" lon="14.129546308174712"><ele>55.0</ele><time>2026-05-02T07:01:44.998Z</time></trkpt><trkpt lat="42.39151469265857" lon="14.129531183338475"><ele>54.99999999999999</ele><time>2026-05-02T07:01:45.998Z</time></trkpt><trkpt lat="42.391407360500715" lon="14.129501783255785"><ele>55.0</ele><time>2026-05-02T07:01:46.998Z</time></trkpt><trkpt lat="42.391299621726915" lon="14.129448520728925"><ele>51.75</ele><time>2026-05-02T07:01:47.998Z</time></trkpt><trkpt lat="42.3911824422518" lon="14.129420971100972"><ele>48.5</ele><time>2026-05-02T07:01:48.998Z</time></trkpt><trkpt lat="42.391057386938094" lon="14.129391111264352"><ele>45.25</ele><time>2026-05-02T07:01:49.998Z</time></trkpt><trkpt lat="42.39095537554111" lon="14.129410806633846"><ele>42.0</ele><time>2026-05-02T07:01:50.998Z</time></trkpt><trkpt lat="42.390835783339234" lon="14.129406940712096"><ele>42.0</ele><time>2026-05-02T07:01:51.998Z</time></trkpt><trkpt lat="42.390695763569326" lon="14.129456327693253"><ele>42.0</ele><time>2026-05-02T07:01:52.998Z</time></trkpt><trkpt lat="42.390539962752435" lon="14.129512431043368"><ele>42.0</ele><time>2026-05-02T07:01:53.998Z</time></trkpt><trkpt lat="42.39039424048281" lon="14.129566560634718"><ele>38.0</ele><time>2026-05-02T07:01:54.998Z</time></trkpt><trkpt lat="42.390264263918056" lon="14.129628378767077"><ele>34.0</ele><time>2026-05-02T07:01:55.998Z</time></trkpt><trkpt lat="42.39011209600099" lon="14.129707346815943"><ele>30.0</ele><time>2026-05-02T07:01:56.998Z</time></trkpt><trkpt lat="42.389964095534424" lon="14.129764445122117"><ele>30.0</ele><time>2026-05-02T07:01:57.998Z</time></trkpt><trkpt lat="42.38985975849451" lon="14.129804884550465"><ele>30.0</ele><time>2026-05-02T07:01:58.998Z</time></trkpt><trkpt lat="42.389766794527205" lon="14.129819866937371"><ele>30.0</ele><time>2026-05-02T07:01:59.998Z</time></trkpt><trkpt lat="42.38967783250882" lon="14.129874249359299"><ele>30.0</ele><time>2026-05-02T07:02:00.998Z</time></trkpt><trkpt lat="42.389598284453996" lon="14.129879333645855"><ele>30.0</ele><time>2026-05-02T07:02:01.998Z</time></trkpt><trkpt lat="42.38951677035873" lon="14.129925805227622"><ele>30.0</ele><time>2026-05-02T07:02:03.998Z</time></trkpt><trkpt lat="42.38944410252774" lon="14.13001203566484"><ele>30.0</ele><time>2026-05-02T07:02:10.998Z</time></trkpt><trkpt lat="42.38933451533724" lon="14.13006854001258"><ele>30.0</ele><time>2026-05-02T07:02:11.998Z</time></trkpt><trkpt lat="42.389220530040895" lon="14.130166011503327"><ele>30.0</ele><time>2026-05-02T07:02:12.998Z</time></trkpt><trkpt lat="42.389097630428566" lon="14.130270243815591"><ele>30.0</ele><time>2026-05-02T07:02:13.998Z</time></trkpt><trkpt lat="42.38896489350479" lon="14.13037644285284"><ele>30.0</ele><time>2026-05-02T07:02:14.998Z</time></trkpt><trkpt lat="42.388843530373144" lon="14.130466206030507"><ele>30.0</ele><time>2026-05-02T07:02:15.998Z</time></trkpt><trkpt lat="42.388739080976784" lon="14.130538487538317"><ele>30.0</ele><time>2026-05-02T07:02:16.998Z</time></trkpt><trkpt lat="42.38864840617748" lon="14.130604996351043"><ele>30.0</ele><time>2026-05-02T07:02:17.998Z</time></trkpt><trkpt lat="42.388587211557585" lon="14.130668092275448"><ele>30.0</ele><time>2026-05-02T07:02:18.998Z</time></trkpt><trkpt lat="42.38854347354808" lon="14.130752191314937"><ele>30.0</ele><time>2026-05-02T07:02:20.998Z</time></trkpt><trkpt lat="42.388411995244354" lon="14.130645676499004"><ele>30.0</ele><time>2026-05-02T07:02:21.998Z</time></trkpt><trkpt lat="42.388314923120824" lon="14.130579658726557"><ele>30.0</ele><time>2026-05-02T07:02:22.998Z</time></trkpt><trkpt lat="42.388213739099044" lon="14.13051116085098"><ele>30.0</ele><time>2026-05-02T07:02:23.998Z</time></trkpt><trkpt lat="42.388116520591986" lon="14.130452302019792"><ele>30.0</ele><time>2026-05-02T07:02:24.998Z</time></trkpt><trkpt lat="42.38805007741014" lon="14.130355470640865"><ele>30.0</ele><time>2026-05-02T07:02:25.998Z</time></trkpt><trkpt lat="42.38799951201925" lon="14.13025108111677"><ele>30.0</ele><time>2026-05-02T07:02:26.998Z</time></trkpt><trkpt lat="42.387971715656754" lon="14.130116238752183"><ele>30.0</ele><time>2026-05-02T07:02:27.998Z</time></trkpt><trkpt lat="42.3879523513237" lon="14.129967558043415"><ele>31.2</ele><time>2026-05-02T07:02:28.998Z</time></trkpt><trkpt lat="42.38795246520187" lon="14.12980623508695"><ele>32.4</ele><time>2026-05-02T07:02:29.998Z</time></trkpt><trkpt lat="42.38793989852925" lon="14.129686225653282"><ele>33.6</ele><time>2026-05-02T07:02:30.998Z</time></trkpt><trkpt lat="42.38793431340185" lon="14.129518920900644"><ele>34.8</ele><time>2026-05-02T07:02:32.998Z</time></trkpt><trkpt lat="42.38792338670603" lon="14.12937568343303"><ele>36.0</ele><time>2026-05-02T07:02:34.998Z</time></trkpt><trkpt lat="42.387947100596186" lon="14.129212567684108"><ele>36.0</ele><time>2026-05-02T07:02:36.998Z</time></trkpt><trkpt lat="42.38784991097247" lon="14.12919330127901"><ele>36.0</ele><time>2026-05-02T07:02:41.997Z</time></trkpt><trkpt lat="42.3878716282921" lon="14.129305770586399"><ele>36.0</ele><time>2026-05-02T07:02:43.997Z</time></trkpt><trkpt lat="42.38786095207806" lon="14.129397451233174"><ele>36.0</ele><time>2026-05-02T07:02:44.997Z</time></trkpt><trkpt lat="42.387859265717154" lon="14.129488390627806"><ele>36.0</ele><time>2026-05-02T07:02:45.997Z</time></trkpt><trkpt lat="42.387865956115995" lon="14.129611703388266"><ele>36.0</ele><time>2026-05-02T07:02:46.997Z</time></trkpt><trkpt lat="42.387899452495404" lon="14.129764867419857"><ele>35.2</ele><time>2026-05-02T07:02:47.997Z</time></trkpt><trkpt lat="42.38792525204393" lon="14.129916721834672"><ele>34.400000000000006</ele><time>2026-05-02T07:02:48.997Z</time></trkpt><trkpt lat="42.387934762992465" lon="14.130055363704862"><ele>33.6</ele><time>2026-05-02T07:02:49.997Z</time></trkpt><trkpt lat="42.38794770866156" lon="14.130184155544706"><ele>32.800000000000004</ele><time>2026-05-02T07:02:50.997Z</time></trkpt><trkpt lat="42.38795509676067" lon="14.130289298739966"><ele>32.0</ele><time>2026-05-02T07:02:51.997Z</time></trkpt><trkpt lat="42.3878878976174" lon="14.130320465864731"><ele>32.0</ele><time>2026-05-02T07:02:53.997Z</time></trkpt><trkpt lat="42.38781476609246" lon="14.130327694071346"><ele>32.0</ele><time>2026-05-02T07:02:54.997Z</time></trkpt><trkpt lat="42.38771173018956" lon="14.130291723643566"><ele>32.0</ele><time>2026-05-02T07:02:55.997Z</time></trkpt><trkpt lat="42.38762602708069" lon="14.130239080863815"><ele>32.0</ele><time>2026-05-02T07:02:56.997Z</time></trkpt><trkpt lat="42.38756350469428" lon="14.130060532059822"><ele>32.0</ele><time>2026-05-02T07:02:57.997Z</time></trkpt><trkpt lat="42.38745970363976" lon="14.129965917491663"><ele>32.25</ele><time>2026-05-02T07:02:58.997Z</time></trkpt><trkpt lat="42.38735491498624" lon="14.129868455915721"><ele>32.5</ele><time>2026-05-02T07:02:59.997Z</time></trkpt><trkpt lat="42.38723838086538" lon="14.129777336788685"><ele>32.75</ele><time>2026-05-02T07:03:00.997Z</time></trkpt><trkpt lat="42.38713232024488" lon="14.129661781970734"><ele>33.0</ele><time>2026-05-02T07:03:01.997Z</time></trkpt><trkpt lat="42.38701739885293" lon="14.12955971548129"><ele>33.0</ele><time>2026-05-02T07:03:02.997Z</time></trkpt><trkpt lat="42.38691887012056" lon="14.129437623010404"><ele>33.0</ele><time>2026-05-02T07:03:03.997Z</time></trkpt><trkpt lat="42.386821804043954" lon="14.12931340061744"><ele>33.0</ele><time>2026-05-02T07:03:04.997Z</time></trkpt><trkpt lat="42.38670877513567" lon="14.129169105741967"><ele>33.0</ele><time>2026-05-02T07:03:05.997Z</time></trkpt><trkpt lat="42.38660134034446" lon="14.128957149154502"><ele>33.666666666666664</ele><time>2026-05-02T07:03:06.997Z</time></trkpt><trkpt lat="42.38649574995677" lon="14.128745007648806"><ele>34.33333333333333</ele><time>2026-05-02T07:03:07.997Z</time></trkpt><trkpt lat="42.38638666414692" lon="14.128557874631893"><ele>35.0</ele><time>2026-05-02T07:03:08.997Z</time></trkpt><trkpt lat="42.386280848288955" lon="14.128425929102523"><ele>35.0</ele><time>2026-05-02T07:03:09.997Z</time></trkpt><trkpt lat="42.3861916175475" lon="14.128277076641982"><ele>35.0</ele><time>2026-05-02T07:03:10.997Z</time></trkpt><trkpt lat="42.38608572793667" lon="14.128142733925996"><ele>35.0</ele><time>2026-05-02T07:03:11.997Z</time></trkpt><trkpt lat="42.385963591905636" lon="14.128007359245297"><ele>35.0</ele><time>2026-05-02T07:03:12.997Z</time></trkpt><trkpt lat="42.385794717317" lon="14.127926890305753"><ele>35.33333333333333</ele><time>2026-05-02T07:03:13.997Z</time></trkpt><trkpt lat="42.38564725512206" lon="14.12781135423891"><ele>35.666666666666664</ele><time>2026-05-02T07:03:14.997Z</time></trkpt><trkpt lat="42.38551307563373" lon="14.12766811181974"><ele>36.0</ele><time>2026-05-02T07:03:15.997Z</time></trkpt><trkpt lat="42.3853944670934" lon="14.12753718601805"><ele>39.0</ele><time>2026-05-02T07:03:16.997Z</time></trkpt><trkpt lat="42.38526084073911" lon="14.127391489645353"><ele>42.0</ele><time>2026-05-02T07:03:17.997Z</time></trkpt><trkpt lat="42.385129324091835" lon="14.127257811124064"><ele>45.0</ele><time>2026-05-02T07:03:18.997Z</time></trkpt><trkpt lat="42.385002237972884" lon="14.127152123973165"><ele>45.0</ele><time>2026-05-02T07:03:19.997Z</time></trkpt><trkpt lat="42.384872380734926" lon="14.127069814259471"><ele>45.0</ele><time>2026-05-02T07:03:20.997Z</time></trkpt><trkpt lat="42.38472682959337" lon="14.126994561237188"><ele>45.0</ele><time>2026-05-02T07:03:21.997Z</time></trkpt><trkpt lat="42.384554929465445" lon="14.126941008127798"><ele>44.0</ele><time>2026-05-02T07:03:22.997Z</time></trkpt><trkpt lat="42.38438220006877" lon="14.126889106053406"><ele>43.0</ele><time>2026-05-02T07:03:23.997Z</time></trkpt><trkpt lat="42.384218081769916" lon="14.126822556492607"><ele>42.0</ele><time>2026-05-02T07:03:24.997Z</time></trkpt><trkpt lat="42.38405579166724" lon="14.126746591519646"><ele>42.0</ele><time>2026-05-02T07:03:25.997Z</time></trkpt><trkpt lat="42.38389122761997" lon="14.126655807814153"><ele>42.0</ele><time>2026-05-02T07:03:26.997Z</time></trkpt><trkpt lat="42.383755251002725" lon="14.12656658289341"><ele>42.0</ele><time>2026-05-02T07:03:27.997Z</time></trkpt><trkpt lat="42.38362158465507" lon="14.126501278556784"><ele>44.75</ele><time>2026-05-02T07:03:28.997Z</time></trkpt><trkpt lat="42.38350635119351" lon="14.126430368568506"><ele>47.5</ele><time>2026-05-02T07:03:29.997Z</time></trkpt><trkpt lat="42.38339383306021" lon="14.12637371852522"><ele>50.25</ele><time>2026-05-02T07:03:30.997Z</time></trkpt><trkpt lat="42.383277271916725" lon="14.126401095974103"><ele>53.0</ele><time>2026-05-02T07:03:31.997Z</time></trkpt><trkpt lat="42.38312918185107" lon="14.126386634825085"><ele>53.0</ele><time>2026-05-02T07:03:32.997Z</time></trkpt><trkpt lat="42.382960717366196" lon="14.126391769912123"><ele>53.0</ele><time>2026-05-02T07:03:33.997Z</time></trkpt><trkpt lat="42.38281918238818" lon="14.126341755424958"><ele>53.0</ele><time>2026-05-02T07:03:34.997Z</time></trkpt><trkpt lat="42.3826696096708" lon="14.126303918692388"><ele>53.0</ele><time>2026-05-02T07:03:35.997Z</time></trkpt><trkpt lat="42.382535801651194" lon="14.126237024054229"><ele>53.0</ele><time>2026-05-02T07:03:36.997Z</time></trkpt><trkpt lat="42.382394571845175" lon="14.126154072320649"><ele>53.0</ele><time>2026-05-02T07:03:37.997Z</time></trkpt><trkpt lat="42.38225874411158" lon="14.1260473095481"><ele>53.0</ele><time>2026-05-02T07:03:38.997Z</time></trkpt><trkpt lat="42.38213191177585" lon="14.12592147987724"><ele>53.0</ele><time>2026-05-02T07:03:39.997Z</time></trkpt><trkpt lat="42.38198004335506" lon="14.125784468916331"><ele>53.0</ele><time>2026-05-02T07:03:40.997Z</time></trkpt><trkpt lat="42.38183463072832" lon="14.125660620638715"><ele>53.0</ele><time>2026-05-02T07:03:41.997Z</time></trkpt><trkpt lat="42.38167894681926" lon="14.125529586108168"><ele>53.0</ele><time>2026-05-02T07:03:42.997Z</time></trkpt><trkpt lat="42.38150536581385" lon="14.125427227783403"><ele>53.0</ele><time>2026-05-02T07:03:43.997Z</time></trkpt><trkpt lat="42.381367325999854" lon="14.12526227174927"><ele>51.333333333333336</ele><time>2026-05-02T07:03:44.997Z</time></trkpt><trkpt lat="42.38118864197184" lon="14.125163815926049"><ele>49.66666666666667</ele><time>2026-05-02T07:03:45.997Z</time></trkpt><trkpt lat="42.38102214592533" lon="14.125028465962151"><ele>48.0</ele><time>2026-05-02T07:03:46.997Z</time></trkpt><trkpt lat="42.3808549990055" lon="14.124930307419042"><ele>49.33333333333333</ele><time>2026-05-02T07:03:47.997Z</time></trkpt><trkpt lat="42.380676944079745" lon="14.124791400902486"><ele>50.666666666666664</ele><time>2026-05-02T07:03:48.997Z</time></trkpt><trkpt lat="42.3805112306003" lon="14.124706143466337"><ele>52.0</ele><time>2026-05-02T07:03:49.997Z</time></trkpt><trkpt lat="42.38037558192315" lon="14.124579761404656"><ele>52.0</ele><time>2026-05-02T07:03:50.997Z</time></trkpt><trkpt lat="42.38023823614996" lon="14.124500727641918"><ele>52.0</ele><time>2026-05-02T07:03:51.997Z</time></trkpt><trkpt lat="42.380114429826676" lon="14.124401203215475"><ele>52.0</ele><time>2026-05-02T07:03:52.997Z</time></trkpt><trkpt lat="42.37999160155813" lon="14.124328964503077"><ele>52.0</ele><time>2026-05-02T07:03:53.997Z</time></trkpt><trkpt lat="42.3799063932167" lon="14.12423155552937"><ele>52.0</ele><time>2026-05-02T07:03:54.997Z</time></trkpt><trkpt lat="42.37983496360994" lon="14.124160392520714"><ele>52.0</ele><time>2026-05-02T07:03:55.997Z</time></trkpt><trkpt lat="42.379789229902094" lon="14.12410107636322"><ele>52.0</ele><time>2026-05-02T07:03:56.997Z</time></trkpt><trkpt lat="42.379781655233536" lon="14.123883433660819"><ele>52.0</ele><time>2026-05-02T07:03:58.997Z</time></trkpt><trkpt lat="42.379741673789724" lon="14.123794530574996"><ele>52.0</ele><time>2026-05-02T07:03:59.997Z</time></trkpt><trkpt lat="42.37966493147066" lon="14.123748019007301"><ele>53.400000000000006</ele><time>2026-05-02T07:04:00.997Z</time></trkpt><trkpt lat="42.37958221530261" lon="14.123733017777253"><ele>54.800000000000004</ele><time>2026-05-02T07:04:01.997Z</time></trkpt><trkpt lat="42.37947774981839" lon="14.123721749764773"><ele>56.2</ele><time>2026-05-02T07:04:02.997Z</time></trkpt><trkpt lat="42.37935072061079" lon="14.123706235367848"><ele>57.6</ele><time>2026-05-02T07:04:03.997Z</time></trkpt><trkpt lat="42.37922601517946" lon="14.123666799088028"><ele>59.0</ele><time>2026-05-02T07:04:04.997Z</time></trkpt><trkpt lat="42.37908254137217" lon="14.123613180414804"><ele>59.0</ele><time>2026-05-02T07:04:05.997Z</time></trkpt><trkpt lat="42.37892128012802" lon="14.12360252724433"><ele>59.0</ele><time>2026-05-02T07:04:06.997Z</time></trkpt><trkpt lat="42.37875505185751" lon="14.123563750227651"><ele>59.0</ele><time>2026-05-02T07:04:07.997Z</time></trkpt><trkpt lat="42.378589954718244" lon="14.123548573906012"><ele>58.0</ele><time>2026-05-02T07:04:08.997Z</time></trkpt><trkpt lat="42.378439531107716" lon="14.12352687842832"><ele>57.0</ele><time>2026-05-02T07:04:09.997Z</time></trkpt><trkpt lat="42.37832310561412" lon="14.123498691619064"><ele>56.0</ele><time>2026-05-02T07:04:10.997Z</time></trkpt><trkpt lat="42.37819095120952" lon="14.123462423333855"><ele>55.0</ele><time>2026-05-02T07:04:11.997Z</time></trkpt><trkpt lat="42.378059227288865" lon="14.123407690066957"><ele>52.75</ele><time>2026-05-02T07:04:12.997Z</time></trkpt><trkpt lat="42.37792609709269" lon="14.12340046813521"><ele>50.5</ele><time>2026-05-02T07:04:13.997Z</time></trkpt><trkpt lat="42.377801045081235" lon="14.123365656440432"><ele>48.25</ele><time>2026-05-02T07:04:14.997Z</time></trkpt><trkpt lat="42.37768508093228" lon="14.12335889805661"><ele>46.0</ele><time>2026-05-02T07:04:15.997Z</time></trkpt><trkpt lat="42.37756718824556" lon="14.123331236383853"><ele>46.0</ele><time>2026-05-02T07:04:16.997Z</time></trkpt><trkpt lat="42.37747373507829" lon="14.123327585640332"><ele>46.0</ele><time>2026-05-02T07:04:17.997Z</time></trkpt><trkpt lat="42.37736619283058" lon="14.123359617126205"><ele>46.0</ele><time>2026-05-02T07:04:18.997Z</time></trkpt><trkpt lat="42.377267301729844" lon="14.123403091115014"><ele>46.0</ele><time>2026-05-02T07:04:19.997Z</time></trkpt><trkpt lat="42.37716807576995" lon="14.12349716238372"><ele>46.0</ele><time>2026-05-02T07:04:20.997Z</time></trkpt><trkpt lat="42.377084086032234" lon="14.12364178129034"><ele>45.599999999999994</ele><time>2026-05-02T07:04:21.997Z</time></trkpt><trkpt lat="42.37700979663799" lon="14.123764544132154"><ele>45.2</ele><time>2026-05-02T07:04:22.997Z</time></trkpt><trkpt lat="42.376939029142754" lon="14.123874332093978"><ele>44.8</ele><time>2026-05-02T07:04:23.997Z</time></trkpt><trkpt lat="42.3768882531682" lon="14.12400939561542"><ele>44.400000000000006</ele><time>2026-05-02T07:04:24.997Z</time></trkpt><trkpt lat="42.3768043526603" lon="14.124108611577462"><ele>44.0</ele><time>2026-05-02T07:04:25.997Z</time></trkpt><trkpt lat="42.37671668730494" lon="14.124181873952804"><ele>42.800000000000004</ele><time>2026-05-02T07:04:26.997Z</time></trkpt><trkpt lat="42.37663243298279" lon="14.124183260060065"><ele>41.6</ele><time>2026-05-02T07:04:27.997Z</time></trkpt><trkpt lat="42.376536941713034" lon="14.124225934968466"><ele>40.4</ele><time>2026-05-02T07:04:28.997Z</time></trkpt><trkpt lat="42.37643176456767" lon="14.124207469208068"><ele>39.2</ele><time>2026-05-02T07:04:29.997Z</time></trkpt><trkpt lat="42.37633408104379" lon="14.124174294450148"><ele>38.0</ele><time>2026-05-02T07:04:30.997Z</time></trkpt><trkpt lat="42.37624159025817" lon="14.124129071940347"><ele>38.0</ele><time>2026-05-02T07:04:31.997Z</time></trkpt><trkpt lat="42.37614251185414" lon="14.124080130755054"><ele>38.0</ele><time>2026-05-02T07:04:32.997Z</time></trkpt><trkpt lat="42.37603027337947" lon="14.124047031619408"><ele>38.0</ele><time>2026-05-02T07:04:33.997Z</time></trkpt><trkpt lat="42.37593065723056" lon="14.123960215514199"><ele>38.0</ele><time>2026-05-02T07:04:34.997Z</time></trkpt><trkpt lat="42.37581477557298" lon="14.123926700126916"><ele>38.25</ele><time>2026-05-02T07:04:35.997Z</time></trkpt><trkpt lat="42.37569267913522" lon="14.123882411040862"><ele>38.5</ele><time>2026-05-02T07:04:36.997Z</time></trkpt><trkpt lat="42.37557091104366" lon="14.12380242194472"><ele>38.75</ele><time>2026-05-02T07:04:37.997Z</time></trkpt><trkpt lat="42.3754455913374" lon="14.123711363044547"><ele>39.0</ele><time>2026-05-02T07:04:38.997Z</time></trkpt><trkpt lat="42.37531857044507" lon="14.123615449226998"><ele>39.0</ele><time>2026-05-02T07:04:39.997Z</time></trkpt><trkpt lat="42.37517885225446" lon="14.123509642865475"><ele>39.0</ele><time>2026-05-02T07:04:40.997Z</time></trkpt><trkpt lat="42.37503188436381" lon="14.123414461706071"><ele>39.0</ele><time>2026-05-02T07:04:41.997Z</time></trkpt><trkpt lat="42.37490555052654" lon="14.123301531517285"><ele>39.5</ele><time>2026-05-02T07:04:42.997Z</time></trkpt><trkpt lat="42.37478306194342" lon="14.12321225757332"><ele>40.0</ele><time>2026-05-02T07:04:43.997Z</time></trkpt><trkpt lat="42.37468848051917" lon="14.12308761865306"><ele>40.5</ele><time>2026-05-02T07:04:44.997Z</time></trkpt><trkpt lat="42.37457382138118" lon="14.123033950084372"><ele>41.0</ele><time>2026-05-02T07:04:45.997Z</time></trkpt><trkpt lat="42.374480149631964" lon="14.122960342381473"><ele>41.0</ele><time>2026-05-02T07:04:46.997Z</time></trkpt><trkpt lat="42.37438009524763" lon="14.122881702546742"><ele>41.0</ele><time>2026-05-02T07:04:47.997Z</time></trkpt><trkpt lat="42.374316176051565" lon="14.122813209585228"><ele>41.0</ele><time>2026-05-02T07:04:49Z</time></trkpt><trkpt lat="42.374260816161964" lon="14.122721857360002"><ele>41.0</ele><time>2026-05-02T07:04:50Z</time></trkpt><trkpt lat="42.37420326213679" lon="14.122624802289849"><ele>41.0</ele><time>2026-05-02T07:04:51Z</time></trkpt><trkpt lat="42.37414779576772" lon="14.12251908070601"><ele>41.0</ele><time>2026-05-02T07:04:52Z</time></trkpt><trkpt lat="42.374064717367894" lon="14.122391015238472"><ele>41.0</ele><time>2026-05-02T07:04:53Z</time></trkpt><trkpt lat="42.373993021778794" lon="14.122224707801788"><ele>41.0</ele><time>2026-05-02T07:04:54Z</time></trkpt><trkpt lat="42.37389583773292" lon="14.122063371904016"><ele>41.0</ele><time>2026-05-02T07:04:55Z</time></trkpt><trkpt lat="42.3738279756017" lon="14.121881484916793"><ele>41.0</ele><time>2026-05-02T07:04:56Z</time></trkpt><trkpt lat="42.373727459676175" lon="14.121712075423291"><ele>41.0</ele><time>2026-05-02T07:04:57Z</time></trkpt><trkpt lat="42.37363538439245" lon="14.121517130762987"><ele>41.0</ele><time>2026-05-02T07:04:58Z</time></trkpt><trkpt lat="42.373588328769664" lon="14.121373527000523"><ele>41.0</ele><time>2026-05-02T07:04:59Z</time></trkpt><trkpt lat="42.373538159064836" lon="14.121269220441954"><ele>41.0</ele><time>2026-05-02T07:05:00Z</time></trkpt><trkpt lat="42.37349091403149" lon="14.1212083220808"><ele>41.0</ele><time>2026-05-02T07:05:03Z</time></trkpt><trkpt lat="42.373478417995464" lon="14.12140042717421"><ele>41.0</ele><time>2026-05-02T07:05:10Z</time></trkpt><trkpt lat="42.37354446250607" lon="14.121511881824409"><ele>41.0</ele><time>2026-05-02T07:05:11Z</time></trkpt><trkpt lat="42.373619893726634" lon="14.1216538742132"><ele>41.0</ele><time>2026-05-02T07:05:12Z</time></trkpt><trkpt lat="42.37369365013135" lon="14.121807500337905"><ele>41.0</ele><time>2026-05-02T07:05:13Z</time></trkpt><trkpt lat="42.37377017323348" lon="14.12196342711117"><ele>41.0</ele><time>2026-05-02T07:05:14Z</time></trkpt><trkpt lat="42.373840919001495" lon="14.122108739851459"><ele>41.0</ele><time>2026-05-02T07:05:15Z</time></trkpt><trkpt lat="42.3738980301476" lon="14.122201752460937"><ele>41.0</ele><time>2026-05-02T07:05:16Z</time></trkpt><trkpt lat="42.37396142152019" lon="14.122266216566493"><ele>41.0</ele><time>2026-05-02T07:05:17Z</time></trkpt><trkpt lat="42.37401431888308" lon="14.122371880712093"><ele>41.0</ele><time>2026-05-02T07:05:19Z</time></trkpt><trkpt lat="42.37405978712434" lon="14.122430957606309"><ele>41.0</ele><time>2026-05-02T07:05:22Z</time></trkpt><trkpt lat="42.37401160696929" lon="14.122536625149326"><ele>41.0</ele><time>2026-05-02T07:05:25Z</time></trkpt><trkpt lat="42.373881725221715" lon="14.122493821044161"><ele>41.0</ele><time>2026-05-02T07:05:27Z</time></trkpt><trkpt lat="42.37378095004973" lon="14.122424317653724"><ele>41.0</ele><time>2026-05-02T07:05:28Z</time></trkpt><trkpt lat="42.373670509185565" lon="14.122335331477727"><ele>41.0</ele><time>2026-05-02T07:05:29Z</time></trkpt><trkpt lat="42.37354776791668" lon="14.122251563299653"><ele>41.0</ele><time>2026-05-02T07:05:30Z</time></trkpt><trkpt lat="42.373430174916756" lon="14.122131557451079"><ele>41.0</ele><time>2026-05-02T07:05:31Z</time></trkpt><trkpt lat="42.37330632980777" lon="14.122032006926512"><ele>41.0</ele><time>2026-05-02T07:05:32Z</time></trkpt><trkpt lat="42.37318580951937" lon="14.121921846790714"><ele>41.0</ele><time>2026-05-02T07:05:33Z</time></trkpt><trkpt lat="42.373053762934944" lon="14.121813013611462"><ele>41.0</ele><time>2026-05-02T07:05:34Z</time></trkpt><trkpt lat="42.37292635745691" lon="14.121719565435551"><ele>41.0</ele><time>2026-05-02T07:05:35Z</time></trkpt><trkpt lat="42.37281596433934" lon="14.121628039373682"><ele>41.0</ele><time>2026-05-02T07:05:36Z</time></trkpt><trkpt lat="42.372692372649304" lon="14.121566360446355"><ele>41.5</ele><time>2026-05-02T07:05:37Z</time></trkpt><trkpt lat="42.372589927774925" lon="14.121456621212772"><ele>42.0</ele><time>2026-05-02T07:05:38Z</time></trkpt><trkpt lat="42.37247334904841" lon="14.12137044514903"><ele>42.5</ele><time>2026-05-02T07:05:39Z</time></trkpt><trkpt lat="42.372349056053444" lon="14.12129007798904"><ele>43.0</ele><time>2026-05-02T07:05:40Z</time></trkpt><trkpt lat="42.3722410581343" lon="14.121200014131066"><ele>40.5</ele><time>2026-05-02T07:05:41Z</time></trkpt><trkpt lat="42.37210116545708" lon="14.121098629500716"><ele>38.0</ele><time>2026-05-02T07:05:42Z</time></trkpt><trkpt lat="42.37197848606525" lon="14.121019723689123"><ele>35.5</ele><time>2026-05-02T07:05:43Z</time></trkpt><trkpt lat="42.37186010945378" lon="14.120958700200303"><ele>33.0</ele><time>2026-05-02T07:05:44Z</time></trkpt><trkpt lat="42.37173686241858" lon="14.120890403719299"><ele>33.0</ele><time>2026-05-02T07:05:45Z</time></trkpt><trkpt lat="42.37159481499642" lon="14.12081782544394"><ele>33.0</ele><time>2026-05-02T07:05:46Z</time></trkpt><trkpt lat="42.37146131611792" lon="14.120778768429256"><ele>33.0</ele><time>2026-05-02T07:05:47Z</time></trkpt><trkpt lat="42.37132174838738" lon="14.120707035474737"><ele>33.0</ele><time>2026-05-02T07:05:48Z</time></trkpt><trkpt lat="42.37117035839247" lon="14.120665195949423"><ele>34.666666666666664</ele><time>2026-05-02T07:05:49Z</time></trkpt><trkpt lat="42.37101932893035" lon="14.12057869417517"><ele>36.33333333333333</ele><time>2026-05-02T07:05:50Z</time></trkpt><trkpt lat="42.37086946712101" lon="14.120530314755165"><ele>38.0</ele><time>2026-05-02T07:05:51Z</time></trkpt><trkpt lat="42.37071729949292" lon="14.120476596700229"><ele>38.0</ele><time>2026-05-02T07:05:52Z</time></trkpt><trkpt lat="42.37054644419497" lon="14.120462927466058"><ele>38.0</ele><time>2026-05-02T07:05:53Z</time></trkpt><trkpt lat="42.37035908262548" lon="14.120453150830167"><ele>38.0</ele><time>2026-05-02T07:05:54Z</time></trkpt><trkpt lat="42.370184181588755" lon="14.120441929242515"><ele>37.666666666666664</ele><time>2026-05-02T07:05:55Z</time></trkpt><trkpt lat="42.37000297594869" lon="14.120427060372576"><ele>37.333333333333336</ele><time>2026-05-02T07:05:56Z</time></trkpt><trkpt lat="42.369817943987535" lon="14.120388600732586"><ele>37.0</ele><time>2026-05-02T07:05:57Z</time></trkpt><trkpt lat="42.3696314653263" lon="14.120365161848135"><ele>37.0</ele><time>2026-05-02T07:05:58Z</time></trkpt><trkpt lat="42.3694464183054" lon="14.120341902910925"><ele>37.0</ele><time>2026-05-02T07:05:59Z</time></trkpt><trkpt lat="42.3692661594122" lon="14.120319245803428"><ele>37.0</ele><time>2026-05-02T07:06:00Z</time></trkpt><trkpt lat="42.3690835537017" lon="14.120296293719994"><ele>37.0</ele><time>2026-05-02T07:06:01Z</time></trkpt><trkpt lat="42.36888527071169" lon="14.120285548046727"><ele>37.0</ele><time>2026-05-02T07:06:02Z</time></trkpt><trkpt lat="42.36870341801013" lon="14.120247359117421"><ele>37.0</ele><time>2026-05-02T07:06:03Z</time></trkpt><trkpt lat="42.36853628361164" lon="14.120219367798594"><ele>34.333333333333336</ele><time>2026-05-02T07:06:04Z</time></trkpt><trkpt lat="42.36838803239501" lon="14.120178606067817"><ele>31.666666666666664</ele><time>2026-05-02T07:06:05Z</time></trkpt><trkpt lat="42.368225729031344" lon="14.120101525830703"><ele>29.0</ele><time>2026-05-02T07:06:06Z</time></trkpt><trkpt lat="42.36808190177784" lon="14.12000269646321"><ele>28.666666666666664</ele><time>2026-05-02T07:06:07Z</time></trkpt><trkpt lat="42.367901879255484" lon="14.119887412779553"><ele>28.333333333333336</ele><time>2026-05-02T07:06:08Z</time></trkpt><trkpt lat="42.367724004221174" lon="14.119773468794564"><ele>28.0</ele><time>2026-05-02T07:06:09Z</time></trkpt><trkpt lat="42.36755475477049" lon="14.11965459553032"><ele>28.0</ele><time>2026-05-02T07:06:10Z</time></trkpt><trkpt lat="42.36737336142973" lon="14.119501897810188"><ele>28.0</ele><time>2026-05-02T07:06:11Z</time></trkpt><trkpt lat="42.36721760364357" lon="14.119419592660801"><ele>28.0</ele><time>2026-05-02T07:06:12Z</time></trkpt><trkpt lat="42.3670668339348" lon="14.119301549493054"><ele>28.0</ele><time>2026-05-02T07:06:13Z</time></trkpt><trkpt lat="42.36690410424242" lon="14.119210379478353"><ele>28.0</ele><time>2026-05-02T07:06:14Z</time></trkpt><trkpt lat="42.36676026005278" lon="14.11909613946413"><ele>28.0</ele><time>2026-05-02T07:06:15Z</time></trkpt><trkpt lat="42.36661585596214" lon="14.118995993233861"><ele>28.0</ele><time>2026-05-02T07:06:16Z</time></trkpt><trkpt lat="42.366475271459706" lon="14.118888720409734"><ele>28.0</ele><time>2026-05-02T07:06:17Z</time></trkpt><trkpt lat="42.366343959240915" lon="14.118746566186108"><ele>28.0</ele><time>2026-05-02T07:06:18Z</time></trkpt><trkpt lat="42.36618930820726" lon="14.118652896349362"><ele>28.0</ele><time>2026-05-02T07:06:19Z</time></trkpt><trkpt lat="42.36603917342502" lon="14.118585630381688"><ele>28.0</ele><time>2026-05-02T07:06:20Z</time></trkpt><trkpt lat="42.36587689519228" lon="14.118495876097185"><ele>28.0</ele><time>2026-05-02T07:06:21Z</time></trkpt><trkpt lat="42.365712799741544" lon="14.1183530842882"><ele>28.0</ele><time>2026-05-02T07:06:22Z</time></trkpt><trkpt lat="42.36556345451523" lon="14.118240433680477"><ele>28.0</ele><time>2026-05-02T07:06:23Z</time></trkpt><trkpt lat="42.36539518105967" lon="14.118149888593516"><ele>28.0</ele><time>2026-05-02T07:06:24Z</time></trkpt><trkpt lat="42.36523991529318" lon="14.118039775505844"><ele>29.333333333333336</ele><time>2026-05-02T07:06:25Z</time></trkpt><trkpt lat="42.36508861922228" lon="14.117916658278403"><ele>30.666666666666664</ele><time>2026-05-02T07:06:26Z</time></trkpt><trkpt lat="42.364947712467426" lon="14.117813025731163"><ele>32.0</ele><time>2026-05-02T07:06:27Z</time></trkpt><trkpt lat="42.36478848442825" lon="14.117713036818255"><ele>32.33333333333333</ele><time>2026-05-02T07:06:28Z</time></trkpt><trkpt lat="42.36464201530631" lon="14.117588385133322"><ele>32.666666666666664</ele><time>2026-05-02T07:06:29Z</time></trkpt><trkpt lat="42.36448459385757" lon="14.11750554968601"><ele>33.0</ele><time>2026-05-02T07:06:30Z</time></trkpt><trkpt lat="42.36430054640082" lon="14.117481012246884"><ele>33.0</ele><time>2026-05-02T07:06:31Z</time></trkpt><trkpt lat="42.36411059528704" lon="14.117452148834468"><ele>33.0</ele><time>2026-05-02T07:06:32Z</time></trkpt><trkpt lat="42.363907819521614" lon="14.117412164557017"><ele>33.0</ele><time>2026-05-02T07:06:33Z</time></trkpt><trkpt lat="42.36371479451376" lon="14.117412339258372"><ele>32.333333333333336</ele><time>2026-05-02T07:06:34Z</time></trkpt><trkpt lat="42.363522171427825" lon="14.117403573081255"><ele>31.666666666666668</ele><time>2026-05-02T07:06:35Z</time></trkpt><trkpt lat="42.363327983431276" lon="14.117409823355214"><ele>31.0</ele><time>2026-05-02T07:06:36Z</time></trkpt><trkpt lat="42.363124022689355" lon="14.117404998247931"><ele>30.333333333333336</ele><time>2026-05-02T07:06:37Z</time></trkpt><trkpt lat="42.36292054646435" lon="14.117412653001495"><ele>29.666666666666664</ele><time>2026-05-02T07:06:38Z</time></trkpt><trkpt lat="42.362740179093244" lon="14.117366980328127"><ele>29.0</ele><time>2026-05-02T07:06:39Z</time></trkpt><trkpt lat="42.36257334702604" lon="14.117313962827351"><ele>31.333333333333332</ele><time>2026-05-02T07:06:39.999Z</time></trkpt><trkpt lat="42.362413315455925" lon="14.117248005934982"><ele>33.666666666666664</ele><time>2026-05-02T07:06:40.999Z</time></trkpt><trkpt lat="42.36223331433979" lon="14.11716816723342"><ele>36.0</ele><time>2026-05-02T07:06:41.999Z</time></trkpt><trkpt lat="42.36204979118691" lon="14.117086766359687"><ele>36.0</ele><time>2026-05-02T07:06:42.999Z</time></trkpt><trkpt lat="42.36186819661801" lon="14.117006220903447"><ele>36.0</ele><time>2026-05-02T07:06:43.999Z</time></trkpt><trkpt lat="42.361696045465415" lon="14.116938305505295"><ele>36.0</ele><time>2026-05-02T07:06:44.999Z</time></trkpt><trkpt lat="42.361536532102555" lon="14.116863316679886"><ele>36.0</ele><time>2026-05-02T07:06:45.999Z</time></trkpt><trkpt lat="42.36136986398787" lon="14.116757217729981"><ele>36.0</ele><time>2026-05-02T07:06:46.999Z</time></trkpt><trkpt lat="42.3611838698353" lon="14.116711768046931"><ele>36.0</ele><time>2026-05-02T07:06:47.999Z</time></trkpt><trkpt lat="42.361013580336895" lon="14.116624830694064"><ele>36.333333333333336</ele><time>2026-05-02T07:06:48.999Z</time></trkpt><trkpt lat="42.360833927915984" lon="14.116537789865312"><ele>36.66666666666667</ele><time>2026-05-02T07:06:49.999Z</time></trkpt><trkpt lat="42.36063951204706" lon="14.116423205512042"><ele>37.0</ele><time>2026-05-02T07:06:50.999Z</time></trkpt><trkpt lat="42.36046164336305" lon="14.116360532157742"><ele>37.0</ele><time>2026-05-02T07:06:51.999Z</time></trkpt><trkpt lat="42.36028465537257" lon="14.116297422807316"><ele>37.0</ele><time>2026-05-02T07:06:52.999Z</time></trkpt><trkpt lat="42.36010467682246" lon="14.116205936996435"><ele>37.0</ele><time>2026-05-02T07:06:53.999Z</time></trkpt><trkpt lat="42.359937122529836" lon="14.116137485778202"><ele>37.0</ele><time>2026-05-02T07:06:54.999Z</time></trkpt><trkpt lat="42.35976615613939" lon="14.116053563266927"><ele>37.0</ele><time>2026-05-02T07:06:55.999Z</time></trkpt><trkpt lat="42.35958002241502" lon="14.115982289601254"><ele>37.0</ele><time>2026-05-02T07:06:56.999Z</time></trkpt><trkpt lat="42.35939811311917" lon="14.115892428287758"><ele>36.66666666666667</ele><time>2026-05-02T07:06:57.999Z</time></trkpt><trkpt lat="42.35921504887892" lon="14.115786773174955"><ele>36.333333333333336</ele><time>2026-05-02T07:06:58.999Z</time></trkpt><trkpt lat="42.35902623697983" lon="14.115744886610187"><ele>36.0</ele><time>2026-05-02T07:06:59.999Z</time></trkpt><trkpt lat="42.35884310663505" lon="14.115656389432479"><ele>37.666666666666664</ele><time>2026-05-02T07:07:00.999Z</time></trkpt><trkpt lat="42.35864934063194" lon="14.115580243175792"><ele>39.33333333333333</ele><time>2026-05-02T07:07:01.999Z</time></trkpt><trkpt lat="42.358449991691664" lon="14.115510021551996"><ele>41.0</ele><time>2026-05-02T07:07:02.999Z</time></trkpt><trkpt lat="42.35825164019624" lon="14.115460332133873"><ele>41.0</ele><time>2026-05-02T07:07:03.999Z</time></trkpt><trkpt lat="42.35806505309178" lon="14.115372542377614"><ele>41.0</ele><time>2026-05-02T07:07:04.999Z</time></trkpt><trkpt lat="42.35787682564744" lon="14.115300535689215"><ele>41.0</ele><time>2026-05-02T07:07:05.999Z</time></trkpt><trkpt lat="42.35768888604847" lon="14.115240422396585"><ele>41.0</ele><time>2026-05-02T07:07:06.999Z</time></trkpt><trkpt lat="42.357515867934424" lon="14.11515013493664"><ele>41.0</ele><time>2026-05-02T07:07:07.999Z</time></trkpt><trkpt lat="42.357323182524595" lon="14.115073306071562"><ele>41.0</ele><time>2026-05-02T07:07:08.999Z</time></trkpt><trkpt lat="42.35713770004657" lon="14.115012024737096"><ele>40.33333333333333</ele><time>2026-05-02T07:07:09.999Z</time></trkpt><trkpt lat="42.35695687831993" lon="14.11493315419845"><ele>39.666666666666664</ele><time>2026-05-02T07:07:10.999Z</time></trkpt><trkpt lat="42.356764577667775" lon="14.114851114159096"><ele>39.0</ele><time>2026-05-02T07:07:11.999Z</time></trkpt><trkpt lat="42.35658767142991" lon="14.114788741383942"><ele>41.666666666666664</ele><time>2026-05-02T07:07:12.999Z</time></trkpt><trkpt lat="42.35641471561228" lon="14.114718500942013"><ele>44.33333333333333</ele><time>2026-05-02T07:07:13.999Z</time></trkpt><trkpt lat="42.35624082747002" lon="14.114637666065835"><ele>47.0</ele><time>2026-05-02T07:07:14.999Z</time></trkpt><trkpt lat="42.35605699661445" lon="14.114579540651096"><ele>47.0</ele><time>2026-05-02T07:07:15.999Z</time></trkpt><trkpt lat="42.35587867947742" lon="14.114502020053692"><ele>47.0</ele><time>2026-05-02T07:07:16.999Z</time></trkpt><trkpt lat="42.35570829288112" lon="14.11443130943928"><ele>47.0</ele><time>2026-05-02T07:07:17.999Z</time></trkpt><trkpt lat="42.3555490677378" lon="14.114326565705905"><ele>43.666666666666664</ele><time>2026-05-02T07:07:18.999Z</time></trkpt><trkpt lat="42.35536667680416" lon="14.114250267300555"><ele>40.333333333333336</ele><time>2026-05-02T07:07:19.999Z</time></trkpt><trkpt lat="42.355172751559" lon="14.114169146081856"><ele>37.0</ele><time>2026-05-02T07:07:20.999Z</time></trkpt><trkpt lat="42.3549892106529" lon="14.114088408350918"><ele>36.66666666666667</ele><time>2026-05-02T07:07:21.999Z</time></trkpt><trkpt lat="42.35479359304418" lon="14.114030882482984"><ele>36.333333333333336</ele><time>2026-05-02T07:07:22.999Z</time></trkpt><trkpt lat="42.354590186158234" lon="14.113958304703601"><ele>36.0</ele><time>2026-05-02T07:07:23.999Z</time></trkpt><trkpt lat="42.354385524054436" lon="14.113886028592875"><ele>36.0</ele><time>2026-05-02T07:07:24.999Z</time></trkpt><trkpt lat="42.354188830740604" lon="14.113815563419596"><ele>36.0</ele><time>2026-05-02T07:07:25.999Z</time></trkpt><trkpt lat="42.35399370900034" lon="14.11373506811268"><ele>36.0</ele><time>2026-05-02T07:07:26.999Z</time></trkpt><trkpt lat="42.35379910206898" lon="14.11365716614025"><ele>35.666666666666664</ele><time>2026-05-02T07:07:27.999Z</time></trkpt><trkpt lat="42.35360351021408" lon="14.113578869880584"><ele>35.33333333333333</ele><time>2026-05-02T07:07:28.999Z</time></trkpt><trkpt lat="42.3534322316208" lon="14.113512383758808"><ele>35.0</ele><time>2026-05-02T07:07:29.999Z</time></trkpt><trkpt lat="42.35323529795003" lon="14.113431105300151"><ele>35.0</ele><time>2026-05-02T07:07:30.999Z</time></trkpt><trkpt lat="42.35304175741911" lon="14.113353328228408"><ele>35.0</ele><time>2026-05-02T07:07:31.999Z</time></trkpt><trkpt lat="42.352863664240914" lon="14.113281758950398"><ele>35.0</ele><time>2026-05-02T07:07:32.999Z</time></trkpt><trkpt lat="42.3526954992531" lon="14.113228151987906"><ele>35.0</ele><time>2026-05-02T07:07:33.999Z</time></trkpt><trkpt lat="42.35253426149058" lon="14.113154065632209"><ele>35.0</ele><time>2026-05-02T07:07:34.999Z</time></trkpt><trkpt lat="42.35237962484845" lon="14.113072249314762"><ele>35.0</ele><time>2026-05-02T07:07:35.999Z</time></trkpt><trkpt lat="42.35220788869615" lon="14.113001664865015"><ele>36.666666666666664</ele><time>2026-05-02T07:07:36.999Z</time></trkpt><trkpt lat="42.35204090522068" lon="14.112915831935425"><ele>38.333333333333336</ele><time>2026-05-02T07:07:37.999Z</time></trkpt><trkpt lat="42.351878951423075" lon="14.112838447444817"><ele>40.0</ele><time>2026-05-02T07:07:38.999Z</time></trkpt><trkpt lat="42.35170520446935" lon="14.11277788919661"><ele>40.0</ele><time>2026-05-02T07:07:39.999Z</time></trkpt><trkpt lat="42.3515214906931" lon="14.112712091867166"><ele>40.0</ele><time>2026-05-02T07:07:40.999Z</time></trkpt><trkpt lat="42.35134500587486" lon="14.112649823536856"><ele>40.0</ele><time>2026-05-02T07:07:41.999Z</time></trkpt><trkpt lat="42.35118151457189" lon="14.112608353698848"><ele>41.333333333333336</ele><time>2026-05-02T07:07:42.999Z</time></trkpt><trkpt lat="42.35102912622011" lon="14.112557125882553"><ele>42.666666666666664</ele><time>2026-05-02T07:07:43.999Z</time></trkpt><trkpt lat="42.35086861536277" lon="14.112501879997945"><ele>44.0</ele><time>2026-05-02T07:07:44.999Z</time></trkpt><trkpt lat="42.35070709793359" lon="14.112450675080655"><ele>44.0</ele><time>2026-05-02T07:07:45.999Z</time></trkpt><trkpt lat="42.35055751709583" lon="14.112412323534105"><ele>44.0</ele><time>2026-05-02T07:07:46.999Z</time></trkpt><trkpt lat="42.35042937109466" lon="14.112422243545595"><ele>44.0</ele><time>2026-05-02T07:07:47.999Z</time></trkpt><trkpt lat="42.35031517910614" lon="14.112425882713792"><ele>44.0</ele><time>2026-05-02T07:07:48.999Z</time></trkpt><trkpt lat="42.35021567540661" lon="14.112393284262614"><ele>45.0</ele><time>2026-05-02T07:07:49.999Z</time></trkpt><trkpt lat="42.350129437744734" lon="14.112372704672866"><ele>46.0</ele><time>2026-05-02T07:07:50.999Z</time></trkpt><trkpt lat="42.350059385253616" lon="14.112366881404421"><ele>47.0</ele><time>2026-05-02T07:07:51.999Z</time></trkpt><trkpt lat="42.35003799643659" lon="14.112233477915547"><ele>48.0</ele><time>2026-05-02T07:07:54.999Z</time></trkpt><trkpt lat="42.350025726304146" lon="14.112128877722668"><ele>49.0</ele><time>2026-05-02T07:07:56.999Z</time></trkpt><trkpt lat="42.35003631685263" lon="14.111975103573664"><ele>48.99999999999999</ele><time>2026-05-02T07:07:58.999Z</time></trkpt><trkpt lat="42.350036091322394" lon="14.111856190622829"><ele>49.0</ele><time>2026-05-02T07:08:00.999Z</time></trkpt><trkpt lat="42.35003606309534" lon="14.111960282126171"><ele>49.0</ele><time>2026-05-02T07:08:06.999Z</time></trkpt><trkpt lat="42.349974342927105" lon="14.11202280374045"><ele>49.0</ele><time>2026-05-02T07:08:07.999Z</time></trkpt><trkpt lat="42.34996069693576" lon="14.11211391098063"><ele>48.99999999999999</ele><time>2026-05-02T07:08:08.999Z</time></trkpt><trkpt lat="42.34992942794726" lon="14.112247530437768"><ele>49.0</ele><time>2026-05-02T07:08:09.999Z</time></trkpt><trkpt lat="42.34987673973915" lon="14.112396793641267"><ele>48.166666666666664</ele><time>2026-05-02T07:08:10.999Z</time></trkpt><trkpt lat="42.34982173174364" lon="14.11252069960787"><ele>47.33333333333333</ele><time>2026-05-02T07:08:11.999Z</time></trkpt><trkpt lat="42.34977998147174" lon="14.112600006621218"><ele>46.5</ele><time>2026-05-02T07:08:12.999Z</time></trkpt><trkpt lat="42.34973161628424" lon="14.112699047206426"><ele>45.666666666666664</ele><time>2026-05-02T07:08:13.999Z</time></trkpt><trkpt lat="42.34969039007494" lon="14.112772752585064"><ele>44.83333333333333</ele><time>2026-05-02T07:08:14.999Z</time></trkpt><trkpt lat="42.34965418617322" lon="14.11285517825177"><ele>44.0</ele><time>2026-05-02T07:08:15.999Z</time></trkpt><trkpt lat="42.349580348709615" lon="14.11284463921877"><ele>44.0</ele><time>2026-05-02T07:08:17.999Z</time></trkpt><trkpt lat="42.34964372370522" lon="14.112837117598144"><ele>44.0</ele><time>2026-05-02T07:08:31.999Z</time></trkpt><trkpt lat="42.34971104946228" lon="14.112754985513181"><ele>44.0</ele><time>2026-05-02T07:08:33.999Z</time></trkpt><trkpt lat="42.34971674867817" lon="14.112646489210432"><ele>44.0</ele><time>2026-05-02T07:08:35.999Z</time></trkpt><trkpt lat="42.349671748342494" lon="14.112566550548344"><ele>44.0</ele><time>2026-05-02T07:08:37.999Z</time></trkpt><trkpt lat="42.34962629586863" lon="14.112626058498046"><ele>44.0</ele><time>2026-05-02T07:08:39.999Z</time></trkpt><trkpt lat="42.34961190329139" lon="14.112751017965548"><ele>43.83333333333333</ele><time>2026-05-02T07:08:41.999Z</time></trkpt><trkpt lat="42.34955617848133" lon="14.112807306250096"><ele>43.666666666666664</ele><time>2026-05-02T07:08:43.999Z</time></trkpt><trkpt lat="42.349495370557015" lon="14.112700026176718"><ele>43.5</ele><time>2026-05-02T07:08:55.999Z</time></trkpt><trkpt lat="42.3494802032551" lon="14.112604411250889"><ele>43.333333333333336</ele><time>2026-05-02T07:08:56.999Z</time></trkpt><trkpt lat="42.34944279045475" lon="14.112529806195976"><ele>43.16666666666667</ele><time>2026-05-02T07:08:57.999Z</time></trkpt><trkpt lat="42.34939250845034" lon="14.11242703873571"><ele>43.0</ele><time>2026-05-02T07:08:58.999Z</time></trkpt><trkpt lat="42.349322923205875" lon="14.112356806568062"><ele>43.0</ele><time>2026-05-02T07:08:59.999Z</time></trkpt><trkpt lat="42.349258844929416" lon="14.112310450487508"><ele>43.0</ele><time>2026-05-02T07:09:00.999Z</time></trkpt><trkpt lat="42.34918223829287" lon="14.112262059551655"><ele>43.0</ele><time>2026-05-02T07:09:01.999Z</time></trkpt><trkpt lat="42.34911303990693" lon="14.112224929613573"><ele>43.0</ele><time>2026-05-02T07:09:02.999Z</time></trkpt><trkpt lat="42.34900746906493" lon="14.112176281092575"><ele>43.0</ele><time>2026-05-02T07:09:04.998Z</time></trkpt><trkpt lat="42.348996755529136" lon="14.11192966991506"><ele>43.0</ele><time>2026-05-02T07:09:07.998Z</time></trkpt><trkpt lat="42.348979329470495" lon="14.111822018571436"><ele>43.0</ele><time>2026-05-02T07:09:08.998Z</time></trkpt><trkpt lat="42.34894264607078" lon="14.111728286678387"><ele>43.0</ele><time>2026-05-02T07:09:09.998Z</time></trkpt><trkpt lat="42.34894264346614" lon="14.11162544431043"><ele>43.0</ele><time>2026-05-02T07:09:10.998Z</time></trkpt><trkpt lat="42.34891876588178" lon="14.111460249744246"><ele>43.0</ele><time>2026-05-02T07:09:12.998Z</time></trkpt><trkpt lat="42.34891428323707" lon="14.111356382408385"><ele>43.0</ele><time>2026-05-02T07:09:13.998Z</time></trkpt><trkpt lat="42.34889281851475" lon="14.111247664422825"><ele>43.0</ele><time>2026-05-02T07:09:14.998Z</time></trkpt><trkpt lat="42.34887400127851" lon="14.11113388175822"><ele>43.0</ele><time>2026-05-02T07:09:15.998Z</time></trkpt><trkpt lat="42.34886027854644" lon="14.111021793255459"><ele>43.0</ele><time>2026-05-02T07:09:16.998Z</time></trkpt><trkpt lat="42.348888981439146" lon="14.110886450745653"><ele>43.0</ele><time>2026-05-02T07:09:18.998Z</time></trkpt><trkpt lat="42.34892335101189" lon="14.110750650432719"><ele>43.0</ele><time>2026-05-02T07:09:20.998Z</time></trkpt><trkpt lat="42.34890758116578" lon="14.110663379770163"><ele>43.0</ele><time>2026-05-02T07:09:21.998Z</time></trkpt><trkpt lat="42.34890328440296" lon="14.110545935495965"><ele>42.66666666666667</ele><time>2026-05-02T07:09:23.998Z</time></trkpt><trkpt lat="42.348868186756704" lon="14.110446362424039"><ele>42.333333333333336</ele><time>2026-05-02T07:09:24.998Z</time></trkpt><trkpt lat="42.34884388539519" lon="14.110347126459484"><ele>42.0</ele><time>2026-05-02T07:09:25.998Z</time></trkpt><trkpt lat="42.34883514114959" lon="14.110245301544044"><ele>41.666666666666664</ele><time>2026-05-02T07:09:26.998Z</time></trkpt><trkpt lat="42.348823614841045" lon="14.110157488439805"><ele>41.33333333333333</ele><time>2026-05-02T07:09:27.998Z</time></trkpt><trkpt lat="42.348788225828265" lon="14.110065231549223"><ele>41.0</ele><time>2026-05-02T07:09:29.998Z</time></trkpt><trkpt lat="42.348693623147255" lon="14.10997420212346"><ele>42.0</ele><time>2026-05-02T07:09:31.997Z</time></trkpt><trkpt lat="42.34860334993389" lon="14.109892280339155"><ele>43.0</ele><time>2026-05-02T07:09:33.997Z</time></trkpt><trkpt lat="42.34851953985591" lon="14.109826083186519"><ele>44.0</ele><time>2026-05-02T07:09:35.997Z</time></trkpt><trkpt lat="42.34846558393422" lon="14.109772060378956"><ele>45.0</ele><time>2026-05-02T07:09:37.997Z</time></trkpt><trkpt lat="42.34840858638653" lon="14.109730293077245"><ele>46.0</ele><time>2026-05-02T07:09:39.997Z</time></trkpt><trkpt lat="42.34834578344017" lon="14.109674492257238"><ele>47.0</ele><time>2026-05-02T07:09:42.997Z</time></trkpt><trkpt lat="42.34825874581333" lon="14.109598610488268"><ele>47.0</ele><time>2026-05-02T07:09:44.997Z</time></trkpt><trkpt lat="42.34817880478595" lon="14.109439026353288"><ele>47.0</ele><time>2026-05-02T07:09:46.997Z</time></trkpt><trkpt lat="42.34812653356424" lon="14.109330952925399"><ele>47.0</ele><time>2026-05-02T07:09:47.997Z</time></trkpt><trkpt lat="42.348075964431715" lon="14.109253072143519"><ele>47.0</ele><time>2026-05-02T07:09:48.997Z</time></trkpt><trkpt lat="42.34802914848807" lon="14.109182965743171"><ele>47.0</ele><time>2026-05-02T07:09:49.997Z</time></trkpt><trkpt lat="42.34798212798192" lon="14.109116396269771"><ele>46.400000000000006</ele><time>2026-05-02T07:09:50.997Z</time></trkpt><trkpt lat="42.34793156402937" lon="14.10904014567108"><ele>45.800000000000004</ele><time>2026-05-02T07:09:51.997Z</time></trkpt><trkpt lat="42.347864266071426" lon="14.10887641464425"><ele>45.2</ele><time>2026-05-02T07:09:53.997Z</time></trkpt><trkpt lat="42.34782174372654" lon="14.108752724490154"><ele>44.6</ele><time>2026-05-02T07:09:54.997Z</time></trkpt><trkpt lat="42.34777928089526" lon="14.108663008018173"><ele>44.0</ele><time>2026-05-02T07:09:55.997Z</time></trkpt><trkpt lat="42.34772990526011" lon="14.10856229665039"><ele>44.0</ele><time>2026-05-02T07:09:56.997Z</time></trkpt><trkpt lat="42.347682014280664" lon="14.108478661691635"><ele>44.0</ele><time>2026-05-02T07:09:57.997Z</time></trkpt><trkpt lat="42.347633917306" lon="14.108374398440555"><ele>44.0</ele><time>2026-05-02T07:09:58.997Z</time></trkpt><trkpt lat="42.347583498478805" lon="14.108274671165626"><ele>44.0</ele><time>2026-05-02T07:09:59.997Z</time></trkpt><trkpt lat="42.34752817998392" lon="14.108168475925112"><ele>44.0</ele><time>2026-05-02T07:10:00.997Z</time></trkpt><trkpt lat="42.34747646245001" lon="14.10807258995924"><ele>44.0</ele><time>2026-05-02T07:10:01.997Z</time></trkpt><trkpt lat="42.34743652918316" lon="14.107992471172187"><ele>44.33333333333333</ele><time>2026-05-02T07:10:02.997Z</time></trkpt><trkpt lat="42.34740372113296" lon="14.107892217391404"><ele>44.666666666666664</ele><time>2026-05-02T07:10:03.997Z</time></trkpt><trkpt lat="42.347384728900565" lon="14.107782270534248"><ele>45.0</ele><time>2026-05-02T07:10:04.997Z</time></trkpt><trkpt lat="42.34737092813854" lon="14.107657050462699"><ele>45.333333333333336</ele><time>2026-05-02T07:10:05.997Z</time></trkpt><trkpt lat="42.347347253093645" lon="14.107560145486678"><ele>45.66666666666667</ele><time>2026-05-02T07:10:06.997Z</time></trkpt><trkpt lat="42.34732217519489" lon="14.107467964289828"><ele>46.0</ele><time>2026-05-02T07:10:07.997Z</time></trkpt><trkpt lat="42.347256720217345" lon="14.10730815648468"><ele>46.0</ele><time>2026-05-02T07:10:09.997Z</time></trkpt><trkpt lat="42.34720668477147" lon="14.107205863084516"><ele>46.0</ele><time>2026-05-02T07:10:10.997Z</time></trkpt><trkpt lat="42.34717123435419" lon="14.107097372275824"><ele>46.0</ele><time>2026-05-02T07:10:11.997Z</time></trkpt><trkpt lat="42.34715210657198" lon="14.107008382707901"><ele>46.0</ele><time>2026-05-02T07:10:12.997Z</time></trkpt><trkpt lat="42.34714481956243" lon="14.106851030709171"><ele>46.0</ele><time>2026-05-02T07:10:14.997Z</time></trkpt><trkpt lat="42.347204033632174" lon="14.106683472093374"><ele>46.0</ele><time>2026-05-02T07:10:16.997Z</time></trkpt><trkpt lat="42.347241846683275" lon="14.106580734098124"><ele>46.0</ele><time>2026-05-02T07:10:17.997Z</time></trkpt><trkpt lat="42.34727347875391" lon="14.106470290674155"><ele>46.0</ele><time>2026-05-02T07:10:18.997Z</time></trkpt><trkpt lat="42.34729513541179" lon="14.10635376577906"><ele>46.0</ele><time>2026-05-02T07:10:19.997Z</time></trkpt><trkpt lat="42.3473278784252" lon="14.106229925311565"><ele>46.0</ele><time>2026-05-02T07:10:20.997Z</time></trkpt><trkpt lat="42.347369353846474" lon="14.106124697529413"><ele>46.0</ele><time>2026-05-02T07:10:21.997Z</time></trkpt><trkpt lat="42.34740695842895" lon="14.10600984941313"><ele>46.0</ele><time>2026-05-02T07:10:22.997Z</time></trkpt><trkpt lat="42.34742306918785" lon="14.105879894804017"><ele>46.0</ele><time>2026-05-02T07:10:23.997Z</time></trkpt><trkpt lat="42.34747772541402" lon="14.10573874462225"><ele>46.0</ele><time>2026-05-02T07:10:25.997Z</time></trkpt><trkpt lat="42.34754525182253" lon="14.105668776511392"><ele>46.0</ele><time>2026-05-02T07:10:26.997Z</time></trkpt><trkpt lat="42.34760161988069" lon="14.105580021577563"><ele>46.0</ele><time>2026-05-02T07:10:27.997Z</time></trkpt><trkpt lat="42.347659461497194" lon="14.105472867669713"><ele>45.8</ele><time>2026-05-02T07:10:28.997Z</time></trkpt><trkpt lat="42.34771336767695" lon="14.105373864400402"><ele>45.599999999999994</ele><time>2026-05-02T07:10:29.997Z</time></trkpt><trkpt lat="42.34775131778862" lon="14.105302285169865"><ele>45.4</ele><time>2026-05-02T07:10:30.997Z</time></trkpt><trkpt lat="42.34782921173795" lon="14.10515391272456"><ele>45.2</ele><time>2026-05-02T07:10:32.997Z</time></trkpt><trkpt lat="42.34788373213261" lon="14.105045309154056"><ele>45.0</ele><time>2026-05-02T07:10:33.997Z</time></trkpt><trkpt lat="42.34793859071385" lon="14.104943346233982"><ele>45.5</ele><time>2026-05-02T07:10:34.997Z</time></trkpt><trkpt lat="42.3479962793477" lon="14.104844544607573"><ele>46.0</ele><time>2026-05-02T07:10:35.997Z</time></trkpt><trkpt lat="42.348066287027606" lon="14.104761263179489"><ele>46.5</ele><time>2026-05-02T07:10:36.997Z</time></trkpt><trkpt lat="42.348140696107436" lon="14.104672153314318"><ele>47.0</ele><time>2026-05-02T07:10:37.997Z</time></trkpt><trkpt lat="42.34819219550682" lon="14.10459352484892"><ele>47.5</ele><time>2026-05-02T07:10:38.997Z</time></trkpt><trkpt lat="42.34823243675928" lon="14.104500971299563"><ele>48.0</ele><time>2026-05-02T07:10:39.997Z</time></trkpt><trkpt lat="42.34826424178048" lon="14.104414305027422"><ele>47.8</ele><time>2026-05-02T07:10:40.997Z</time></trkpt><trkpt lat="42.34829138306466" lon="14.10429932526311"><ele>47.599999999999994</ele><time>2026-05-02T07:10:41.997Z</time></trkpt><trkpt lat="42.348318573989324" lon="14.104189300843203"><ele>47.400000000000006</ele><time>2026-05-02T07:10:42.997Z</time></trkpt><trkpt lat="42.34834971707" lon="14.104071212547499"><ele>47.2</ele><time>2026-05-02T07:10:43.997Z</time></trkpt><trkpt lat="42.3483865290348" lon="14.103945825178316"><ele>47.0</ele><time>2026-05-02T07:10:44.997Z</time></trkpt><trkpt lat="42.348412755240716" lon="14.1038247481858"><ele>47.0</ele><time>2026-05-02T07:10:45.997Z</time></trkpt><trkpt lat="42.348433168806196" lon="14.103694810099373"><ele>47.0</ele><time>2026-05-02T07:10:46.997Z</time></trkpt><trkpt lat="42.34845765636045" lon="14.10354079494264"><ele>47.0</ele><time>2026-05-02T07:10:47.997Z</time></trkpt><trkpt lat="42.3484725287474" lon="14.103402745145726"><ele>47.0</ele><time>2026-05-02T07:10:48.997Z</time></trkpt><trkpt lat="42.34848316866543" lon="14.103274466910241"><ele>47.0</ele><time>2026-05-02T07:10:49.997Z</time></trkpt><trkpt lat="42.3484970449979" lon="14.103103765840519"><ele>47.25</ele><time>2026-05-02T07:10:50.997Z</time></trkpt><trkpt lat="42.34851188919821" lon="14.102924902926077"><ele>47.5</ele><time>2026-05-02T07:10:51.997Z</time></trkpt><trkpt lat="42.348528228489954" lon="14.102768849322448"><ele>47.75</ele><time>2026-05-02T07:10:52.997Z</time></trkpt><trkpt lat="42.34854591437138" lon="14.102626437701707"><ele>48.0</ele><time>2026-05-02T07:10:53.997Z</time></trkpt><trkpt lat="42.348563247560875" lon="14.102473376990385"><ele>48.0</ele><time>2026-05-02T07:10:54.997Z</time></trkpt><trkpt lat="42.34860138430586" lon="14.102322374669217"><ele>48.0</ele><time>2026-05-02T07:10:55.997Z</time></trkpt><trkpt lat="42.34862144083059" lon="14.102175698173696"><ele>48.0</ele><time>2026-05-02T07:10:56.997Z</time></trkpt><trkpt lat="42.348645817896816" lon="14.102033745418193"><ele>48.0</ele><time>2026-05-02T07:10:57.997Z</time></trkpt><trkpt lat="42.34866789697069" lon="14.101892160163167"><ele>48.0</ele><time>2026-05-02T07:10:58.997Z</time></trkpt><trkpt lat="42.348694153715094" lon="14.101748392996255"><ele>48.0</ele><time>2026-05-02T07:10:59.997Z</time></trkpt><trkpt lat="42.34872655747711" lon="14.101606763339454"><ele>48.0</ele><time>2026-05-02T07:11:00.997Z</time></trkpt><trkpt lat="42.34875969560441" lon="14.101475630636457"><ele>48.0</ele><time>2026-05-02T07:11:01.997Z</time></trkpt><trkpt lat="42.34879249056036" lon="14.101360892007596"><ele>48.0</ele><time>2026-05-02T07:11:02.997Z</time></trkpt><trkpt lat="42.348810489603416" lon="14.101264819099248"><ele>48.0</ele><time>2026-05-02T07:11:03.997Z</time></trkpt><trkpt lat="42.34883927006305" lon="14.101145349616512"><ele>48.8</ele><time>2026-05-02T07:11:05.997Z</time></trkpt><trkpt lat="42.34889695889597" lon="14.101069542056733"><ele>49.599999999999994</ele><time>2026-05-02T07:11:07.997Z</time></trkpt><trkpt lat="42.34899292980974" lon="14.100981956525164"><ele>50.400000000000006</ele><time>2026-05-02T07:11:09.997Z</time></trkpt><trkpt lat="42.34902783469884" lon="14.100900178316857"><ele>51.2</ele><time>2026-05-02T07:11:10.997Z</time></trkpt><trkpt lat="42.34905231579297" lon="14.10081370119945"><ele>52.0</ele><time>2026-05-02T07:11:11.997Z</time></trkpt><trkpt lat="42.34912934163369" lon="14.10068768246756"><ele>51.99999999999999</ele><time>2026-05-02T07:11:13.997Z</time></trkpt><trkpt lat="42.34918082768039" lon="14.100621374562351"><ele>52.0</ele><time>2026-05-02T07:11:14.997Z</time></trkpt><trkpt lat="42.349221900551164" lon="14.100549292475353"><ele>52.0</ele><time>2026-05-02T07:11:15.997Z</time></trkpt><trkpt lat="42.34927474148956" lon="14.100450923780448"><ele>52.0</ele><time>2026-05-02T07:11:16.997Z</time></trkpt><trkpt lat="42.34932937457532" lon="14.100324133087353"><ele>51.99999999999999</ele><time>2026-05-02T07:11:17.997Z</time></trkpt><trkpt lat="42.34938065035643" lon="14.100205236789327"><ele>52.0</ele><time>2026-05-02T07:11:18.997Z</time></trkpt><trkpt lat="42.34943801589629" lon="14.100068440122849"><ele>51.99999999999999</ele><time>2026-05-02T07:11:19.997Z</time></trkpt><trkpt lat="42.349466989616296" lon="14.099986797119604"><ele>52.0</ele><time>2026-05-02T07:11:20.997Z</time></trkpt><trkpt lat="42.34949523090563" lon="14.099894188122173"><ele>52.0</ele><time>2026-05-02T07:11:21.997Z</time></trkpt><trkpt lat="42.34949716111921" lon="14.09976857414488"><ele>52.0</ele><time>2026-05-02T07:11:23.996Z</time></trkpt><trkpt lat="42.34951856497458" lon="14.09963769024832"><ele>51.99999999999999</ele><time>2026-05-02T07:11:26.996Z</time></trkpt><trkpt lat="42.349499745011585" lon="14.099519573880054"><ele>52.0</ele><time>2026-05-02T07:11:28.996Z</time></trkpt><trkpt lat="42.34945492513212" lon="14.099449188700513"><ele>51.6</ele><time>2026-05-02T07:11:29.996Z</time></trkpt><trkpt lat="42.34942150940997" lon="14.09935437860302"><ele>51.2</ele><time>2026-05-02T07:11:30.996Z</time></trkpt><trkpt lat="42.34939051660987" lon="14.099181819023231"><ele>50.8</ele><time>2026-05-02T07:11:32.996Z</time></trkpt><trkpt lat="42.349377023727484" lon="14.09902415258211"><ele>50.4</ele><time>2026-05-02T07:11:34.996Z</time></trkpt><trkpt lat="42.34938435561351" lon="14.098900763346112"><ele>50.0</ele><time>2026-05-02T07:11:36.996Z</time></trkpt><trkpt lat="42.349437234420144" lon="14.098749840139822"><ele>50.0</ele><time>2026-05-02T07:11:38.996Z</time></trkpt><trkpt lat="42.349474908994296" lon="14.098623994427832"><ele>50.0</ele><time>2026-05-02T07:11:39.996Z</time></trkpt><trkpt lat="42.349503926716764" lon="14.098511688794634"><ele>50.0</ele><time>2026-05-02T07:11:40.996Z</time></trkpt><trkpt lat="42.34953973580467" lon="14.098398338978127"><ele>50.0</ele><time>2026-05-02T07:11:41.996Z</time></trkpt><trkpt lat="42.34957861604407" lon="14.098259561063323"><ele>50.0</ele><time>2026-05-02T07:11:42.996Z</time></trkpt><trkpt lat="42.34961069888696" lon="14.098096296449983"><ele>50.2</ele><time>2026-05-02T07:11:43.996Z</time></trkpt><trkpt lat="42.34962780858103" lon="14.09795090105246"><ele>50.4</ele><time>2026-05-02T07:11:44.996Z</time></trkpt><trkpt lat="42.34966961458671" lon="14.097824514630782"><ele>50.599999999999994</ele><time>2026-05-02T07:11:45.996Z</time></trkpt><trkpt lat="42.34970872316636" lon="14.097698420782077"><ele>50.8</ele><time>2026-05-02T07:11:46.996Z</time></trkpt><trkpt lat="42.349756862912656" lon="14.09752496895127"><ele>51.0</ele><time>2026-05-02T07:11:47.996Z</time></trkpt><trkpt lat="42.34980190362293" lon="14.097325440184441"><ele>51.0</ele><time>2026-05-02T07:11:48.996Z</time></trkpt><trkpt lat="42.34984402396819" lon="14.097106879773817"><ele>51.0</ele><time>2026-05-02T07:11:49.996Z</time></trkpt><trkpt lat="42.34987374836099" lon="14.0968984330785"><ele>51.0</ele><time>2026-05-02T07:11:50.996Z</time></trkpt><trkpt lat="42.34989449461874" lon="14.096721661609811"><ele>51.25</ele><time>2026-05-02T07:11:51.996Z</time></trkpt><trkpt lat="42.34993841477376" lon="14.096541869950123"><ele>51.5</ele><time>2026-05-02T07:11:52.996Z</time></trkpt><trkpt lat="42.34995206001737" lon="14.09635575039608"><ele>51.75</ele><time>2026-05-02T07:11:54Z</time></trkpt><trkpt lat="42.34994945112639" lon="14.096185148168525"><ele>52.0</ele><time>2026-05-02T07:11:55Z</time></trkpt><trkpt lat="42.349962968009955" lon="14.096035488734225"><ele>52.0</ele><time>2026-05-02T07:11:56Z</time></trkpt><trkpt lat="42.34997108145326" lon="14.095891803814242"><ele>52.0</ele><time>2026-05-02T07:11:57Z</time></trkpt><trkpt lat="42.34998268450505" lon="14.095730495520673"><ele>52.0</ele><time>2026-05-02T07:11:58Z</time></trkpt><trkpt lat="42.349993130553514" lon="14.09555788164292"><ele>52.0</ele><time>2026-05-02T07:11:59Z</time></trkpt><trkpt lat="42.35000723352626" lon="14.095384907365307"><ele>52.0</ele><time>2026-05-02T07:12:00Z</time></trkpt><trkpt lat="42.350014779047804" lon="14.095215059367202"><ele>52.0</ele><time>2026-05-02T07:12:01Z</time></trkpt><trkpt lat="42.35002117340313" lon="14.095043308305264"><ele>52.0</ele><time>2026-05-02T07:12:02Z</time></trkpt><trkpt lat="42.350001987080965" lon="14.094867445993929"><ele>52.0</ele><time>2026-05-02T07:12:03Z</time></trkpt><trkpt lat="42.3499744510875" lon="14.094689833717041"><ele>52.0</ele><time>2026-05-02T07:12:04Z</time></trkpt><trkpt lat="42.34993903860035" lon="14.094528385106477"><ele>52.0</ele><time>2026-05-02T07:12:05Z</time></trkpt><trkpt lat="42.34990521244669" lon="14.0943494325355"><ele>52.0</ele><time>2026-05-02T07:12:06Z</time></trkpt><trkpt lat="42.34988400951331" lon="14.09416708633668"><ele>52.0</ele><time>2026-05-02T07:12:07Z</time></trkpt><trkpt lat="42.34985350748796" lon="14.094017570719164"><ele>51.83333333333333</ele><time>2026-05-02T07:12:08Z</time></trkpt><trkpt lat="42.349814753453195" lon="14.09389527673971"><ele>51.666666666666664</ele><time>2026-05-02T07:12:09Z</time></trkpt><trkpt lat="42.34979008978752" lon="14.093778935215626"><ele>51.5</ele><time>2026-05-02T07:12:10Z</time></trkpt><trkpt lat="42.34975719974496" lon="14.093663073661748"><ele>51.33333333333333</ele><time>2026-05-02T07:12:11Z</time></trkpt><trkpt lat="42.349722945460506" lon="14.093550233471213"><ele>51.166666666666664</ele><time>2026-05-02T07:12:12Z</time></trkpt><trkpt lat="42.34967777049199" lon="14.093474809556216"><ele>51.0</ele><time>2026-05-02T07:12:13Z</time></trkpt><trkpt lat="42.34966208706715" lon="14.093351872182339"><ele>51.833333333333336</ele><time>2026-05-02T07:12:15Z</time></trkpt><trkpt lat="42.34964025310871" lon="14.093224355402999"><ele>52.66666666666667</ele><time>2026-05-02T07:12:17Z</time></trkpt><trkpt lat="42.3496445878745" lon="14.093121122923167"><ele>53.5</ele><time>2026-05-02T07:12:18Z</time></trkpt><trkpt lat="42.34964466194744" lon="14.09300936044745"><ele>54.333333333333336</ele><time>2026-05-02T07:12:19Z</time></trkpt><trkpt lat="42.34962053602226" lon="14.092902281251783"><ele>55.16666666666667</ele><time>2026-05-02T07:12:20Z</time></trkpt><trkpt lat="42.34958243608076" lon="14.09279503308163"><ele>56.0</ele><time>2026-05-02T07:12:21Z</time></trkpt><trkpt lat="42.34953672740828" lon="14.092694881625706"><ele>56.00000000000001</ele><time>2026-05-02T07:12:22Z</time></trkpt><trkpt lat="42.349475150076586" lon="14.092617218462784"><ele>56.0</ele><time>2026-05-02T07:12:23Z</time></trkpt><trkpt lat="42.34939799193757" lon="14.092561532104108"><ele>56.0</ele><time>2026-05-02T07:12:24Z</time></trkpt><trkpt lat="42.34935238616958" lon="14.09247739273598"><ele>56.0</ele><time>2026-05-02T07:12:25Z</time></trkpt><trkpt lat="42.349323113343914" lon="14.092382651540266"><ele>56.00000000000001</ele><time>2026-05-02T07:12:26Z</time></trkpt><trkpt lat="42.34929292338083" lon="14.092259038352696"><ele>56.0</ele><time>2026-05-02T07:12:27Z</time></trkpt><trkpt lat="42.34926806671746" lon="14.09210732236234"><ele>56.199999999999996</ele><time>2026-05-02T07:12:28Z</time></trkpt><trkpt lat="42.34923062538384" lon="14.091957467349324"><ele>56.39999999999999</ele><time>2026-05-02T07:12:29Z</time></trkpt><trkpt lat="42.3492037448134" lon="14.091813456706836"><ele>56.6</ele><time>2026-05-02T07:12:30Z</time></trkpt><trkpt lat="42.349174997744164" lon="14.091680428529582"><ele>56.8</ele><time>2026-05-02T07:12:31Z</time></trkpt><trkpt lat="42.349153484942256" lon="14.091539065136306"><ele>57.0</ele><time>2026-05-02T07:12:32Z</time></trkpt><trkpt lat="42.349138838592616" lon="14.09139541105359"><ele>57.0</ele><time>2026-05-02T07:12:33Z</time></trkpt><trkpt lat="42.34912125647961" lon="14.091259462599856"><ele>57.0</ele><time>2026-05-02T07:12:34Z</time></trkpt><trkpt lat="42.349098298234516" lon="14.091136223260111"><ele>57.0</ele><time>2026-05-02T07:12:35Z</time></trkpt><trkpt lat="42.34911021872552" lon="14.091008970282294"><ele>57.0</ele><time>2026-05-02T07:12:36Z</time></trkpt><trkpt lat="42.34911009559049" lon="14.090861441150903"><ele>57.0</ele><time>2026-05-02T07:12:37Z</time></trkpt><trkpt lat="42.34907402155076" lon="14.090721201649233"><ele>56.75</ele><time>2026-05-02T07:12:38Z</time></trkpt><trkpt lat="42.3490415594431" lon="14.090558451869706"><ele>56.5</ele><time>2026-05-02T07:12:39Z</time></trkpt><trkpt lat="42.349005436658274" lon="14.090369819410679"><ele>56.25</ele><time>2026-05-02T07:12:40Z</time></trkpt><trkpt lat="42.348968566119304" lon="14.090177718705249"><ele>56.0</ele><time>2026-05-02T07:12:41Z</time></trkpt><trkpt lat="42.34893445288638" lon="14.089975276562765"><ele>56.25</ele><time>2026-05-02T07:12:42Z</time></trkpt><trkpt lat="42.3489056509339" lon="14.089787933037409"><ele>56.5</ele><time>2026-05-02T07:12:43Z</time></trkpt><trkpt lat="42.348882484581516" lon="14.08963101991366"><ele>56.75</ele><time>2026-05-02T07:12:44Z</time></trkpt><trkpt lat="42.34886305793333" lon="14.089491699152395"><ele>57.0</ele><time>2026-05-02T07:12:45Z</time></trkpt><trkpt lat="42.3488435280397" lon="14.089372137863943"><ele>58.6</ele><time>2026-05-02T07:12:46Z</time></trkpt><trkpt lat="42.34882537834431" lon="14.089266718788904"><ele>60.2</ele><time>2026-05-02T07:12:46.999Z</time></trkpt><trkpt lat="42.348808708843805" lon="14.089144635685921"><ele>61.8</ele><time>2026-05-02T07:12:47.999Z</time></trkpt><trkpt lat="42.34878409901705" lon="14.089002784471072"><ele>63.4</ele><time>2026-05-02T07:12:48.999Z</time></trkpt><trkpt lat="42.34878807676732" lon="14.088847411499556"><ele>65.0</ele><time>2026-05-02T07:12:49.999Z</time></trkpt><trkpt lat="42.348786751869525" lon="14.088684489444606"><ele>65.0</ele><time>2026-05-02T07:12:50.999Z</time></trkpt><trkpt lat="42.34877866045569" lon="14.088524043807277"><ele>65.0</ele><time>2026-05-02T07:12:51.999Z</time></trkpt><trkpt lat="42.348755468551715" lon="14.088369481725385"><ele>65.0</ele><time>2026-05-02T07:12:52.999Z</time></trkpt><trkpt lat="42.348769942557944" lon="14.088221675295154"><ele>65.0</ele><time>2026-05-02T07:12:53.999Z</time></trkpt><trkpt lat="42.34876426598167" lon="14.088088782156733"><ele>65.0</ele><time>2026-05-02T07:12:54.999Z</time></trkpt><trkpt lat="42.34874407169226" lon="14.087963944944972"><ele>64.66666666666667</ele><time>2026-05-02T07:12:55.999Z</time></trkpt><trkpt lat="42.348688416197504" lon="14.087850196768267"><ele>64.33333333333334</ele><time>2026-05-02T07:12:56.999Z</time></trkpt><trkpt lat="42.348678830074945" lon="14.08773520041552"><ele>64.0</ele><time>2026-05-02T07:12:57.999Z</time></trkpt><trkpt lat="42.34867465419684" lon="14.087638306097181"><ele>63.66666666666667</ele><time>2026-05-02T07:12:58.999Z</time></trkpt><trkpt lat="42.348669034022954" lon="14.087523637080668"><ele>63.333333333333336</ele><time>2026-05-02T07:12:59.999Z</time></trkpt><trkpt lat="42.34866241046168" lon="14.087415344523805"><ele>63.0</ele><time>2026-05-02T07:13:00.999Z</time></trkpt><trkpt lat="42.348655390253505" lon="14.087310786465887"><ele>63.0</ele><time>2026-05-02T07:13:01.999Z</time></trkpt><trkpt lat="42.348635177291975" lon="14.08720532588646"><ele>63.0</ele><time>2026-05-02T07:13:02.999Z</time></trkpt><trkpt lat="42.34859530548135" lon="14.087129038371385"><ele>63.0</ele><time>2026-05-02T07:13:03.999Z</time></trkpt><trkpt lat="42.348539743860066" lon="14.087053093772923"><ele>63.0</ele><time>2026-05-02T07:13:04.999Z</time></trkpt><trkpt lat="42.348469602211466" lon="14.08698312024897"><ele>63.0</ele><time>2026-05-02T07:13:05.999Z</time></trkpt><trkpt lat="42.348391198138934" lon="14.086930215238194"><ele>63.0</ele><time>2026-05-02T07:13:06.999Z</time></trkpt><trkpt lat="42.348336455823656" lon="14.086871836373202"><ele>63.0</ele><time>2026-05-02T07:13:07.999Z</time></trkpt><trkpt lat="42.34828115478392" lon="14.086781609883557"><ele>63.0</ele><time>2026-05-02T07:13:09.999Z</time></trkpt><trkpt lat="42.34822601156922" lon="14.086692501522096"><ele>63.0</ele><time>2026-05-02T07:13:12.999Z</time></trkpt><trkpt lat="42.348177043007226" lon="14.086545228098114"><ele>63.0</ele><time>2026-05-02T07:13:14.999Z</time></trkpt><trkpt lat="42.348146652504276" lon="14.086411722569652"><ele>63.0</ele><time>2026-05-02T07:13:16.999Z</time></trkpt><trkpt lat="42.34811909213214" lon="14.08627951113799"><ele>63.0</ele><time>2026-05-02T07:13:18.999Z</time></trkpt><trkpt lat="42.34809264020816" lon="14.086134587786269"><ele>63.0</ele><time>2026-05-02T07:13:20.999Z</time></trkpt><trkpt lat="42.348087105791414" lon="14.086010792809738"><ele>63.0</ele><time>2026-05-02T07:13:22.999Z</time></trkpt><trkpt lat="42.34806445579281" lon="14.085899905717909"><ele>63.0</ele><time>2026-05-02T07:13:24.999Z</time></trkpt><trkpt lat="42.34805217125682" lon="14.085752652145597"><ele>63.0</ele><time>2026-05-02T07:13:26.999Z</time></trkpt><trkpt lat="42.34804863548241" lon="14.085652937843093"><ele>64.0</ele><time>2026-05-02T07:13:27.999Z</time></trkpt><trkpt lat="42.34804194301853" lon="14.085538719824065"><ele>65.0</ele><time>2026-05-02T07:13:28.999Z</time></trkpt><trkpt lat="42.3479938578112" lon="14.085378649850908"><ele>66.0</ele><time>2026-05-02T07:13:30.999Z</time></trkpt><trkpt lat="42.34795375097819" lon="14.085311402780446"><ele>67.0</ele><time>2026-05-02T07:13:31.999Z</time></trkpt><trkpt lat="42.347912693483835" lon="14.085238190573452"><ele>68.0</ele><time>2026-05-02T07:13:32.999Z</time></trkpt><trkpt lat="42.347873724579706" lon="14.085157420335836"><ele>69.0</ele><time>2026-05-02T07:13:33.999Z</time></trkpt><trkpt lat="42.34784194659294" lon="14.085023120936068"><ele>68.8</ele><time>2026-05-02T07:13:35.999Z</time></trkpt><trkpt lat="42.34784129173371" lon="14.084910126047383"><ele>68.60000000000001</ele><time>2026-05-02T07:13:36.999Z</time></trkpt><trkpt lat="42.347831415150395" lon="14.084793183058853"><ele>68.4</ele><time>2026-05-02T07:13:37.999Z</time></trkpt><trkpt lat="42.347773892077136" lon="14.08462707260451"><ele>68.2</ele><time>2026-05-02T07:13:39.999Z</time></trkpt><trkpt lat="42.34773561898092" lon="14.08451619175972"><ele>68.0</ele><time>2026-05-02T07:13:40.999Z</time></trkpt><trkpt lat="42.34769511098028" lon="14.08438611368831"><ele>68.0</ele><time>2026-05-02T07:13:41.999Z</time></trkpt><trkpt lat="42.34766017853916" lon="14.084260362654843"><ele>68.0</ele><time>2026-05-02T07:13:42.999Z</time></trkpt><trkpt lat="42.34762625872671" lon="14.084160390023913"><ele>68.0</ele><time>2026-05-02T07:13:43.999Z</time></trkpt><trkpt lat="42.34759943975795" lon="14.084071539721663"><ele>68.0</ele><time>2026-05-02T07:13:44.999Z</time></trkpt><trkpt lat="42.347579020689125" lon="14.083932357566782"><ele>68.0</ele><time>2026-05-02T07:13:45.999Z</time></trkpt><trkpt lat="42.34756211592648" lon="14.08378828743614"><ele>68.0</ele><time>2026-05-02T07:13:46.999Z</time></trkpt><trkpt lat="42.34754875479552" lon="14.083699012047795"><ele>68.0</ele><time>2026-05-02T07:13:47.999Z</time></trkpt><trkpt lat="42.34754076065384" lon="14.083526084423251"><ele>68.0</ele><time>2026-05-02T07:13:49.999Z</time></trkpt><trkpt lat="42.34754270396879" lon="14.083412007078815"><ele>68.0</ele><time>2026-05-02T07:13:50.999Z</time></trkpt><trkpt lat="42.347550597701336" lon="14.08329410891289"><ele>68.0</ele><time>2026-05-02T07:13:51.999Z</time></trkpt><trkpt lat="42.34756668441859" lon="14.083186091338076"><ele>68.0</ele><time>2026-05-02T07:13:52.999Z</time></trkpt><trkpt lat="42.347599140347334" lon="14.08308373596041"><ele>68.0</ele><time>2026-05-02T07:13:53.999Z</time></trkpt><trkpt lat="42.34764345625993" lon="14.083018800610855"><ele>68.0</ele><time>2026-05-02T07:13:54.999Z</time></trkpt><trkpt lat="42.34768164687213" lon="14.082948597210834"><ele>68.0</ele><time>2026-05-02T07:13:55.999Z</time></trkpt><trkpt lat="42.34774045034751" lon="14.082885593256826"><ele>68.0</ele><time>2026-05-02T07:13:56.999Z</time></trkpt><trkpt lat="42.34781515028616" lon="14.082798149586491"><ele>68.0</ele><time>2026-05-02T07:13:57.999Z</time></trkpt><trkpt lat="42.34789449625105" lon="14.082713975636452"><ele>68.0</ele><time>2026-05-02T07:13:58.999Z</time></trkpt><trkpt lat="42.34796274349236" lon="14.082605937299563"><ele>68.0</ele><time>2026-05-02T07:13:59.999Z</time></trkpt><trkpt lat="42.34802281936261" lon="14.082481549972723"><ele>68.0</ele><time>2026-05-02T07:14:00.999Z</time></trkpt><trkpt lat="42.348069671666025" lon="14.082343007802894"><ele>68.0</ele><time>2026-05-02T07:14:01.999Z</time></trkpt><trkpt lat="42.34812057819195" lon="14.082215005243523"><ele>68.0</ele><time>2026-05-02T07:14:02.999Z</time></trkpt><trkpt lat="42.34815882820764" lon="14.082112770811145"><ele>68.0</ele><time>2026-05-02T07:14:03.999Z</time></trkpt><trkpt lat="42.34822763758025" lon="14.08197871425934"><ele>67.5</ele><time>2026-05-02T07:14:05.999Z</time></trkpt><trkpt lat="42.34828011229433" lon="14.081889083740794"><ele>67.0</ele><time>2026-05-02T07:14:07.999Z</time></trkpt><trkpt lat="42.34836048885673" lon="14.081871413168706"><ele>66.5</ele><time>2026-05-02T07:14:09.999Z</time></trkpt><trkpt lat="42.34842711502267" lon="14.08194978695526"><ele>66.0</ele><time>2026-05-02T07:14:11.999Z</time></trkpt><trkpt lat="42.348492878122364" lon="14.081976097812156"><ele>65.5</ele><time>2026-05-02T07:14:13.999Z</time></trkpt><trkpt lat="42.348519250437064" lon="14.081870445286546"><ele>65.0</ele><time>2026-05-02T07:14:15.999Z</time></trkpt><trkpt lat="42.34856527826753" lon="14.081756247558866"><ele>65.0</ele><time>2026-05-02T07:14:17.999Z</time></trkpt><trkpt lat="42.34855801691429" lon="14.081640013327535"><ele>65.0</ele><time>2026-05-02T07:14:19.999Z</time></trkpt><trkpt lat="42.34857758140346" lon="14.081536931141805"><ele>65.0</ele><time>2026-05-02T07:14:21.999Z</time></trkpt><trkpt lat="42.34866398869109" lon="14.081467900942444"><ele>65.0</ele><time>2026-05-02T07:14:23.999Z</time></trkpt><trkpt lat="42.348761161679356" lon="14.081395673419092"><ele>65.0</ele><time>2026-05-02T07:14:25.999Z</time></trkpt><trkpt lat="42.34886344732429" lon="14.08129340941572"><ele>65.33333333333334</ele><time>2026-05-02T07:14:27.999Z</time></trkpt><trkpt lat="42.34892036236143" lon="14.081254190779154"><ele>65.66666666666667</ele><time>2026-05-02T07:14:28.999Z</time></trkpt><trkpt lat="42.34897824466674" lon="14.081216731862908"><ele>66.0</ele><time>2026-05-02T07:14:29.999Z</time></trkpt><trkpt lat="42.34907105667357" lon="14.081193835338677"><ele>66.33333333333333</ele><time>2026-05-02T07:14:31.999Z</time></trkpt><trkpt lat="42.349166167603556" lon="14.081222816330802"><ele>66.66666666666666</ele><time>2026-05-02T07:14:33.999Z</time></trkpt><trkpt lat="42.34925611971787" lon="14.081233335089829"><ele>67.0</ele><time>2026-05-02T07:14:35.999Z</time></trkpt><trkpt lat="42.34934575698472" lon="14.081264134097086"><ele>67.0</ele><time>2026-05-02T07:14:37.999Z</time></trkpt><trkpt lat="42.349447824045185" lon="14.081288023186213"><ele>67.0</ele><time>2026-05-02T07:14:39.999Z</time></trkpt><trkpt lat="42.34954462524225" lon="14.0812597463281"><ele>67.0</ele><time>2026-05-02T07:14:41.999Z</time></trkpt><trkpt lat="42.349609907993624" lon="14.081203488682815"><ele>67.0</ele><time>2026-05-02T07:14:43.999Z</time></trkpt><trkpt lat="42.34964996927835" lon="14.081125488227586"><ele>67.0</ele><time>2026-05-02T07:14:46.999Z</time></trkpt><trkpt lat="42.34965143923655" lon="14.081017726197176"><ele>67.0</ele><time>2026-05-02T07:14:48.999Z</time></trkpt><trkpt lat="42.34963428662113" lon="14.080892318315533"><ele>67.0</ele><time>2026-05-02T07:14:51.998Z</time></trkpt><trkpt lat="42.34961498605931" lon="14.080806436908157"><ele>67.0</ele><time>2026-05-02T07:14:54.998Z</time></trkpt><trkpt lat="42.349569645884074" lon="14.080712717770336"><ele>67.0</ele><time>2026-05-02T07:15:36.998Z</time></trkpt><trkpt lat="42.349578691986245" lon="14.08062297188627"><ele>67.0</ele><time>2026-05-02T07:15:38.998Z</time></trkpt><trkpt lat="42.34966211035337" lon="14.0805164740635"><ele>67.0</ele><time>2026-05-02T07:15:40.998Z</time></trkpt><trkpt lat="42.34971841955309" lon="14.08044119539795"><ele>67.0</ele><time>2026-05-02T07:15:41.998Z</time></trkpt><trkpt lat="42.34977140956432" lon="14.080364482832064"><ele>66.6</ele><time>2026-05-02T07:15:42.998Z</time></trkpt><trkpt lat="42.34986756184308" lon="14.080249282956867"><ele>66.2</ele><time>2026-05-02T07:15:44.998Z</time></trkpt><trkpt lat="42.34993737839588" lon="14.080168118005583"><ele>65.8</ele><time>2026-05-02T07:15:45.998Z</time></trkpt><trkpt lat="42.350013468030745" lon="14.080098316155455"><ele>65.4</ele><time>2026-05-02T07:15:46.998Z</time></trkpt><trkpt lat="42.35008727209259" lon="14.080043487532087"><ele>65.0</ele><time>2026-05-02T07:15:47.998Z</time></trkpt><trkpt lat="42.35016346972008" lon="14.079986422409451"><ele>65.2</ele><time>2026-05-02T07:15:48.998Z</time></trkpt><trkpt lat="42.35022569561687" lon="14.079889331648173"><ele>65.4</ele><time>2026-05-02T07:15:49.998Z</time></trkpt><trkpt lat="42.35027445474845" lon="14.079774365667939"><ele>65.6</ele><time>2026-05-02T07:15:50.998Z</time></trkpt><trkpt lat="42.350323590766" lon="14.079648353629274"><ele>65.8</ele><time>2026-05-02T07:15:51.998Z</time></trkpt><trkpt lat="42.350360015525645" lon="14.079521325091308"><ele>66.0</ele><time>2026-05-02T07:15:52.998Z</time></trkpt><trkpt lat="42.350389297303046" lon="14.079400139415716"><ele>66.0</ele><time>2026-05-02T07:15:53.998Z</time></trkpt><trkpt lat="42.35040703574354" lon="14.079288456201267"><ele>66.0</ele><time>2026-05-02T07:15:54.998Z</time></trkpt><trkpt lat="42.35042455673812" lon="14.079178142003478"><ele>66.0</ele><time>2026-05-02T07:15:55.998Z</time></trkpt><trkpt lat="42.35044609282762" lon="14.079048812138339"><ele>66.0</ele><time>2026-05-02T07:15:56.998Z</time></trkpt><trkpt lat="42.35047493428008" lon="14.078926563184627"><ele>66.0</ele><time>2026-05-02T07:15:57.998Z</time></trkpt><trkpt lat="42.35051474579193" lon="14.078821951067766"><ele>66.0</ele><time>2026-05-02T07:15:58.998Z</time></trkpt><trkpt lat="42.350552285769076" lon="14.078724122669167"><ele>66.33333333333333</ele><time>2026-05-02T07:15:59.998Z</time></trkpt><trkpt lat="42.350574172763864" lon="14.078624201251191"><ele>66.66666666666667</ele><time>2026-05-02T07:16:00.998Z</time></trkpt><trkpt lat="42.350585305040525" lon="14.078523054959984"><ele>67.0</ele><time>2026-05-02T07:16:01.998Z</time></trkpt><trkpt lat="42.35058547203454" lon="14.078422294539267"><ele>67.33333333333334</ele><time>2026-05-02T07:16:02.998Z</time></trkpt><trkpt lat="42.350578765171726" lon="14.078310439223051"><ele>67.66666666666667</ele><time>2026-05-02T07:16:03.998Z</time></trkpt><trkpt lat="42.35056538287859" lon="14.078207440545116"><ele>68.0</ele><time>2026-05-02T07:16:04.998Z</time></trkpt><trkpt lat="42.350549894676796" lon="14.078112327202371"><ele>67.8</ele><time>2026-05-02T07:16:05.998Z</time></trkpt><trkpt lat="42.35052605366307" lon="14.077967530112462"><ele>67.6</ele><time>2026-05-02T07:16:07.998Z</time></trkpt><trkpt lat="42.35050472385865" lon="14.077801437081922"><ele>67.4</ele><time>2026-05-02T07:16:09.998Z</time></trkpt><trkpt lat="42.35049376964303" lon="14.077704375471097"><ele>67.2</ele><time>2026-05-02T07:16:10.998Z</time></trkpt><trkpt lat="42.350482090896186" lon="14.077604669522163"><ele>67.0</ele><time>2026-05-02T07:16:11.998Z</time></trkpt><trkpt lat="42.350471002567666" lon="14.077490123130984"><ele>67.16666666666666</ele><time>2026-05-02T07:16:12.998Z</time></trkpt><trkpt lat="42.35046345426164" lon="14.0773732982312"><ele>67.33333333333333</ele><time>2026-05-02T07:16:13.998Z</time></trkpt><trkpt lat="42.35045738131385" lon="14.07724998271558"><ele>67.5</ele><time>2026-05-02T07:16:14.998Z</time></trkpt><trkpt lat="42.35047235444996" lon="14.077120981080446"><ele>67.66666666666667</ele><time>2026-05-02T07:16:15.998Z</time></trkpt><trkpt lat="42.35046588521137" lon="14.077003656926616"><ele>67.83333333333334</ele><time>2026-05-02T07:16:16.998Z</time></trkpt><trkpt lat="42.35045385428599" lon="14.07690481924913"><ele>68.0</ele><time>2026-05-02T07:16:17.998Z</time></trkpt><trkpt lat="42.35046744196271" lon="14.076815122041749"><ele>67.99999999999999</ele><time>2026-05-02T07:16:18.998Z</time></trkpt><trkpt lat="42.35047062818548" lon="14.076717397692823"><ele>68.0</ele><time>2026-05-02T07:16:19.998Z</time></trkpt><trkpt lat="42.35047398805129" lon="14.076614347528007"><ele>68.0</ele><time>2026-05-02T07:16:20.998Z</time></trkpt><trkpt lat="42.35047349685664" lon="14.076522978504416"><ele>68.0</ele><time>2026-05-02T07:16:21.998Z</time></trkpt><trkpt lat="42.350472267402104" lon="14.076437786195527"><ele>68.0</ele><time>2026-05-02T07:16:22.998Z</time></trkpt><trkpt lat="42.35045628360592" lon="14.076348430266705"><ele>67.99999999999999</ele><time>2026-05-02T07:16:23.998Z</time></trkpt><trkpt lat="42.3504612249504" lon="14.07625490763374"><ele>68.0</ele><time>2026-05-02T07:16:24.998Z</time></trkpt><trkpt lat="42.350462829353546" lon="14.076144655039373"><ele>68.33333333333334</ele><time>2026-05-02T07:16:25.998Z</time></trkpt><trkpt lat="42.35044265648583" lon="14.07603383834757"><ele>68.66666666666667</ele><time>2026-05-02T07:16:26.998Z</time></trkpt><trkpt lat="42.35044390345917" lon="14.07593942065587"><ele>69.0</ele><time>2026-05-02T07:16:27.998Z</time></trkpt><trkpt lat="42.35043122574784" lon="14.075791704217696"><ele>69.33333333333333</ele><time>2026-05-02T07:16:29.998Z</time></trkpt><trkpt lat="42.350421104379315" lon="14.075681616050053"><ele>69.66666666666666</ele><time>2026-05-02T07:16:31.998Z</time></trkpt><trkpt lat="42.35039251327642" lon="14.07557711388315"><ele>70.0</ele><time>2026-05-02T07:16:33.998Z</time></trkpt><trkpt lat="42.35041076366705" lon="14.075483576277177"><ele>70.2</ele><time>2026-05-02T07:16:34.998Z</time></trkpt><trkpt lat="42.35048614141092" lon="14.075436367443775"><ele>70.4</ele><time>2026-05-02T07:16:35.998Z</time></trkpt><trkpt lat="42.35057675115681" lon="14.075401797642924"><ele>70.6</ele><time>2026-05-02T07:16:36.998Z</time></trkpt><trkpt lat="42.35067649641995" lon="14.075368535713295"><ele>70.8</ele><time>2026-05-02T07:16:37.998Z</time></trkpt><trkpt lat="42.35078470761432" lon="14.075320741266218"><ele>71.0</ele><time>2026-05-02T07:16:38.998Z</time></trkpt><trkpt lat="42.35090863885888" lon="14.075267640073113"><ele>71.0</ele><time>2026-05-02T07:16:39.998Z</time></trkpt><trkpt lat="42.35104100432038" lon="14.07521643265769"><ele>71.0</ele><time>2026-05-02T07:16:40.998Z</time></trkpt><trkpt lat="42.35116487636397" lon="14.075168800042483"><ele>71.0</ele><time>2026-05-02T07:16:41.998Z</time></trkpt><trkpt lat="42.3512705040117" lon="14.075126751698672"><ele>71.0</ele><time>2026-05-02T07:16:42.998Z</time></trkpt><trkpt lat="42.351358428039305" lon="14.07511464965543"><ele>71.39999999999999</ele><time>2026-05-02T07:16:43.998Z</time></trkpt><trkpt lat="42.351439743856" lon="14.075095575678096"><ele>71.8</ele><time>2026-05-02T07:16:44.998Z</time></trkpt><trkpt lat="42.35153180989857" lon="14.075060325412808"><ele>72.19999999999999</ele><time>2026-05-02T07:16:45.998Z</time></trkpt><trkpt lat="42.35163796961448" lon="14.075058375884078"><ele>72.6</ele><time>2026-05-02T07:16:46.998Z</time></trkpt><trkpt lat="42.35174921562822" lon="14.075086904581887"><ele>73.0</ele><time>2026-05-02T07:16:47.998Z</time></trkpt><trkpt lat="42.35186672070917" lon="14.075108519493423"><ele>73.0</ele><time>2026-05-02T07:16:48.998Z</time></trkpt><trkpt lat="42.35198904023375" lon="14.075132270550416"><ele>73.0</ele><time>2026-05-02T07:16:49.998Z</time></trkpt><trkpt lat="42.352115463521905" lon="14.075151284707138"><ele>73.0</ele><time>2026-05-02T07:16:50.998Z</time></trkpt><trkpt lat="42.35224233267088" lon="14.07516590541598"><ele>73.0</ele><time>2026-05-02T07:16:51.998Z</time></trkpt><trkpt lat="42.352363836020146" lon="14.075179838671552"><ele>73.8</ele><time>2026-05-02T07:16:52.998Z</time></trkpt><trkpt lat="42.35247786523746" lon="14.075192914829433"><ele>74.6</ele><time>2026-05-02T07:16:53.998Z</time></trkpt><trkpt lat="42.35258635058115" lon="14.075206491715921"><ele>75.4</ele><time>2026-05-02T07:16:54.998Z</time></trkpt><trkpt lat="42.35269127057311" lon="14.075223057691947"><ele>76.2</ele><time>2026-05-02T07:16:55.998Z</time></trkpt><trkpt lat="42.35279365924284" lon="14.075244295409433"><ele>77.0</ele><time>2026-05-02T07:16:56.998Z</time></trkpt><trkpt lat="42.35289517567349" lon="14.075271845677511"><ele>77.0</ele><time>2026-05-02T07:16:57.998Z</time></trkpt><trkpt lat="42.35299843447279" lon="14.075306468586984"><ele>77.0</ele><time>2026-05-02T07:16:58.998Z</time></trkpt><trkpt lat="42.35310091772666" lon="14.075371122668905"><ele>77.0</ele><time>2026-05-02T07:16:59.998Z</time></trkpt><trkpt lat="42.35322780264318" lon="14.075397286272556"><ele>77.0</ele><time>2026-05-02T07:17:00.998Z</time></trkpt><trkpt lat="42.35335122534641" lon="14.07539359258954"><ele>80.5</ele><time>2026-05-02T07:17:01.998Z</time></trkpt><trkpt lat="42.35347689493687" lon="14.075376552399042"><ele>84.0</ele><time>2026-05-02T07:17:02.998Z</time></trkpt><trkpt lat="42.35360470097994" lon="14.075349435042735"><ele>87.5</ele><time>2026-05-02T07:17:03.998Z</time></trkpt><trkpt lat="42.35372253995973" lon="14.075319028846675"><ele>91.0</ele><time>2026-05-02T07:17:04.998Z</time></trkpt><trkpt lat="42.35383715065444" lon="14.075288177855002"><ele>92.19999999999999</ele><time>2026-05-02T07:17:05.998Z</time></trkpt><trkpt lat="42.3539462325927" lon="14.075259159054731"><ele>93.39999999999999</ele><time>2026-05-02T07:17:06.998Z</time></trkpt><trkpt lat="42.35405537379508" lon="14.07523025375314"><ele>94.6</ele><time>2026-05-02T07:17:07.998Z</time></trkpt><trkpt lat="42.35416348108392" lon="14.075201622153163"><ele>95.8</ele><time>2026-05-02T07:17:08.998Z</time></trkpt><trkpt lat="42.354273882368005" lon="14.07517214281789"><ele>97.0</ele><time>2026-05-02T07:17:09.997Z</time></trkpt><trkpt lat="42.354387374664654" lon="14.07514153326224"><ele>97.0</ele><time>2026-05-02T07:17:10.997Z</time></trkpt><trkpt lat="42.354497355380346" lon="14.075109833940884"><ele>97.0</ele><time>2026-05-02T07:17:11.997Z</time></trkpt><trkpt lat="42.35460705128138" lon="14.075078218228214"><ele>97.0</ele><time>2026-05-02T07:17:12.997Z</time></trkpt><trkpt lat="42.35471715941726" lon="14.075048333773037"><ele>97.0</ele><time>2026-05-02T07:17:13.997Z</time></trkpt><trkpt lat="42.354826183438156" lon="14.07502247609641"><ele>97.0</ele><time>2026-05-02T07:17:14.997Z</time></trkpt><trkpt lat="42.35493858180165" lon="14.07500116280798"><ele>100.25</ele><time>2026-05-02T07:17:15.997Z</time></trkpt><trkpt lat="42.35505503968287" lon="14.074980716689975"><ele>103.5</ele><time>2026-05-02T07:17:16.997Z</time></trkpt><trkpt lat="42.35517363854753" lon="14.074962799868663"><ele>106.75</ele><time>2026-05-02T07:17:17.997Z</time></trkpt><trkpt lat="42.355288738061375" lon="14.074945411670983"><ele>110.0</ele><time>2026-05-02T07:17:18.997Z</time></trkpt><trkpt lat="42.3554027254657" lon="14.074928191489164"><ele>110.6</ele><time>2026-05-02T07:17:19.997Z</time></trkpt><trkpt lat="42.35551519534423" lon="14.07490992324271"><ele>111.2</ele><time>2026-05-02T07:17:20.997Z</time></trkpt><trkpt lat="42.35562380738715" lon="14.074891774054187"><ele>111.80000000000001</ele><time>2026-05-02T07:17:21.997Z</time></trkpt><trkpt lat="42.35573154689976" lon="14.074876269059265"><ele>112.4</ele><time>2026-05-02T07:17:22.997Z</time></trkpt><trkpt lat="42.355843931156976" lon="14.074868523352034"><ele>113.0</ele><time>2026-05-02T07:17:23.997Z</time></trkpt><trkpt lat="42.35596109539763" lon="14.0748656921186"><ele>114.75</ele><time>2026-05-02T07:17:24.997Z</time></trkpt><trkpt lat="42.3560771097326" lon="14.074871069960631"><ele>116.5</ele><time>2026-05-02T07:17:25.997Z</time></trkpt><trkpt lat="42.35619817356491" lon="14.074881116879991"><ele>118.25</ele><time>2026-05-02T07:17:26.997Z</time></trkpt><trkpt lat="42.35632200953154" lon="14.074895400718429"><ele>120.0</ele><time>2026-05-02T07:17:27.997Z</time></trkpt><trkpt lat="42.35644184367365" lon="14.074917680474847"><ele>120.75</ele><time>2026-05-02T07:17:28.997Z</time></trkpt><trkpt lat="42.35655988440488" lon="14.074941220693445"><ele>121.5</ele><time>2026-05-02T07:17:29.997Z</time></trkpt><trkpt lat="42.35667939068235" lon="14.074962756648544"><ele>122.25</ele><time>2026-05-02T07:17:30.997Z</time></trkpt><trkpt lat="42.356800200048845" lon="14.074984080738746"><ele>123.0</ele><time>2026-05-02T07:17:31.997Z</time></trkpt><trkpt lat="42.356923284894066" lon="14.075006843652151"><ele>123.0</ele><time>2026-05-02T07:17:32.997Z</time></trkpt><trkpt lat="42.35705071715196" lon="14.075033786480052"><ele>123.0</ele><time>2026-05-02T07:17:33.997Z</time></trkpt><trkpt lat="42.35718151141191" lon="14.075063150325926"><ele>123.0</ele><time>2026-05-02T07:17:34.997Z</time></trkpt><trkpt lat="42.35731771566027" lon="14.075094153956789"><ele>123.0</ele><time>2026-05-02T07:17:35.997Z</time></trkpt><trkpt lat="42.35745723344923" lon="14.075127006437429"><ele>122.75</ele><time>2026-05-02T07:17:36.997Z</time></trkpt><trkpt lat="42.35759533233364" lon="14.075161796568366"><ele>122.5</ele><time>2026-05-02T07:17:37.997Z</time></trkpt><trkpt lat="42.35772675767495" lon="14.07519898165952"><ele>122.25</ele><time>2026-05-02T07:17:38.997Z</time></trkpt><trkpt lat="42.35785193423354" lon="14.07523859586125"><ele>122.0</ele><time>2026-05-02T07:17:39.997Z</time></trkpt><trkpt lat="42.35797445570787" lon="14.075277369808086"><ele>121.75</ele><time>2026-05-02T07:17:40.997Z</time></trkpt><trkpt lat="42.35809734398144" lon="14.075316259857193"><ele>121.5</ele><time>2026-05-02T07:17:41.997Z</time></trkpt><trkpt lat="42.35822262582236" lon="14.075357995779155"><ele>121.25</ele><time>2026-05-02T07:17:42.997Z</time></trkpt><trkpt lat="42.358345367760926" lon="14.075400708258039"><ele>121.0</ele><time>2026-05-02T07:17:43.997Z</time></trkpt><trkpt lat="42.35844862585731" lon="14.075437504849331"><ele>121.00000000000001</ele><time>2026-05-02T07:17:44.997Z</time></trkpt><trkpt lat="42.35853075317364" lon="14.075470743435721"><ele>121.0</ele><time>2026-05-02T07:17:45.997Z</time></trkpt><trkpt lat="42.358598000047344" lon="14.075500701357193"><ele>121.0</ele><time>2026-05-02T07:17:46.997Z</time></trkpt><trkpt lat="42.35866091014851" lon="14.0755290797382"><ele>121.0</ele><time>2026-05-02T07:17:47.997Z</time></trkpt><trkpt lat="42.35878926274391" lon="14.075560578050599"><ele>121.00000000000001</ele><time>2026-05-02T07:17:48.997Z</time></trkpt><trkpt lat="42.35887604474675" lon="14.07550571495187"><ele>121.0</ele><time>2026-05-02T07:17:49.997Z</time></trkpt><trkpt lat="42.358978668574345" lon="14.075436554936486"><ele>122.0</ele><time>2026-05-02T07:17:50.997Z</time></trkpt><trkpt lat="42.3590911805326" lon="14.07535935947914"><ele>123.0</ele><time>2026-05-02T07:17:51.997Z</time></trkpt><trkpt lat="42.35921185682405" lon="14.075276457371062"><ele>124.0</ele><time>2026-05-02T07:17:52.997Z</time></trkpt><trkpt lat="42.35933871771055" lon="14.075188057432774"><ele>125.0</ele><time>2026-05-02T07:17:53.997Z</time></trkpt><trkpt lat="42.35947154894173" lon="14.075094634951562"><ele>125.0</ele><time>2026-05-02T07:17:54.997Z</time></trkpt><trkpt lat="42.35960606474281" lon="14.075000027639334"><ele>125.0</ele><time>2026-05-02T07:17:55.997Z</time></trkpt><trkpt lat="42.359740814043114" lon="14.074906235951119"><ele>125.0</ele><time>2026-05-02T07:17:56.997Z</time></trkpt><trkpt lat="42.359875679501556" lon="14.07481311724497"><ele>126.0</ele><time>2026-05-02T07:17:57.997Z</time></trkpt><trkpt lat="42.36001256259366" lon="14.074719654666318"><ele>127.0</ele><time>2026-05-02T07:17:58.997Z</time></trkpt><trkpt lat="42.36015001387777" lon="14.074625463556252"><ele>128.0</ele><time>2026-05-02T07:17:59.997Z</time></trkpt><trkpt lat="42.360293397895546" lon="14.074527206911148"><ele>128.0</ele><time>2026-05-02T07:18:00.997Z</time></trkpt><trkpt lat="42.360448865245196" lon="14.07442066998257"><ele>128.0</ele><time>2026-05-02T07:18:01.997Z</time></trkpt><trkpt lat="42.3605830940186" lon="14.07432868712227"><ele>128.0</ele><time>2026-05-02T07:18:02.997Z</time></trkpt><trkpt lat="42.36071715670843" lon="14.074233303529757"><ele>128.75</ele><time>2026-05-02T07:18:03.997Z</time></trkpt><trkpt lat="42.3608697428741" lon="14.074124546825674"><ele>129.5</ele><time>2026-05-02T07:18:04.997Z</time></trkpt><trkpt lat="42.36099442224768" lon="14.07403568080078"><ele>130.25</ele><time>2026-05-02T07:18:05.997Z</time></trkpt><trkpt lat="42.36110475402777" lon="14.073957041131791"><ele>131.0</ele><time>2026-05-02T07:18:06.997Z</time></trkpt><trkpt lat="42.36118010981872" lon="14.073903330818485"><ele>131.6</ele><time>2026-05-02T07:18:07.997Z</time></trkpt><trkpt lat="42.36125080843465" lon="14.073853120611888"><ele>132.2</ele><time>2026-05-02T07:18:08.997Z</time></trkpt><trkpt lat="42.36131356336417" lon="14.07380856152723"><ele>132.8</ele><time>2026-05-02T07:18:09.997Z</time></trkpt><trkpt lat="42.361416461421946" lon="14.073735072873728"><ele>133.4</ele><time>2026-05-02T07:18:11.997Z</time></trkpt><trkpt lat="42.36147543613149" lon="14.073690965584664"><ele>134.0</ele><time>2026-05-02T07:18:12.997Z</time></trkpt><trkpt lat="42.36160114145647" lon="14.073596950486913"><ele>134.6</ele><time>2026-05-02T07:18:14.997Z</time></trkpt><trkpt lat="42.361659704980184" lon="14.073562911217696"><ele>135.2</ele><time>2026-05-02T07:18:15.997Z</time></trkpt><trkpt lat="42.36172826896016" lon="14.073537025245527"><ele>135.79999999999998</ele><time>2026-05-02T07:18:17.997Z</time></trkpt><trkpt lat="42.361726156715676" lon="14.073343755161265"><ele>136.4</ele><time>2026-05-02T07:18:24.997Z</time></trkpt><trkpt lat="42.36166975790823" lon="14.073255780162087"><ele>137.0</ele><time>2026-05-02T07:18:25.997Z</time></trkpt><trkpt lat="42.36160595114428" lon="14.07312536378409"><ele>137.0</ele><time>2026-05-02T07:18:26.997Z</time></trkpt><trkpt lat="42.36152610136734" lon="14.073025022321744"><ele>137.0</ele><time>2026-05-02T07:18:27.997Z</time></trkpt><trkpt lat="42.36143536021715" lon="14.07292778345949"><ele>137.0</ele><time>2026-05-02T07:18:28.997Z</time></trkpt><trkpt lat="42.361361118431525" lon="14.072803064697107"><ele>137.0</ele><time>2026-05-02T07:18:29.997Z</time></trkpt><trkpt lat="42.36126811503709" lon="14.072665319152366"><ele>135.66666666666666</ele><time>2026-05-02T07:18:30.997Z</time></trkpt><trkpt lat="42.36115299150351" lon="14.072494812017853"><ele>134.33333333333334</ele><time>2026-05-02T07:18:31.997Z</time></trkpt><trkpt lat="42.361028594598984" lon="14.07231057041361"><ele>133.0</ele><time>2026-05-02T07:18:32.997Z</time></trkpt><trkpt lat="42.36090937750766" lon="14.072127059326089"><ele>133.0</ele><time>2026-05-02T07:18:33.997Z</time></trkpt><trkpt lat="42.36079290693018" lon="14.071950886163345"><ele>133.0</ele><time>2026-05-02T07:18:34.997Z</time></trkpt><trkpt lat="42.36068997359197" lon="14.071780259019985"><ele>133.0</ele><time>2026-05-02T07:18:35.997Z</time></trkpt><trkpt lat="42.36063625590775" lon="14.071591871393062"><ele>133.0</ele><time>2026-05-02T07:18:36.997Z</time></trkpt><trkpt lat="42.36059355038484" lon="14.071424094949839"><ele>133.0</ele><time>2026-05-02T07:18:37.997Z</time></trkpt><trkpt lat="42.36053600969437" lon="14.071254006678966"><ele>133.0</ele><time>2026-05-02T07:18:38.997Z</time></trkpt><trkpt lat="42.3605056735292" lon="14.071047213025256"><ele>133.0</ele><time>2026-05-02T07:18:39.997Z</time></trkpt><trkpt lat="42.36045534779131" lon="14.070834364417685"><ele>133.66666666666669</ele><time>2026-05-02T07:18:40.997Z</time></trkpt><trkpt lat="42.36042436516725" lon="14.070621872297643"><ele>134.33333333333334</ele><time>2026-05-02T07:18:41.997Z</time></trkpt><trkpt lat="42.360388629980946" lon="14.070402136631584"><ele>135.0</ele><time>2026-05-02T07:18:42.997Z</time></trkpt><trkpt lat="42.36035147749212" lon="14.070211717792322"><ele>135.0</ele><time>2026-05-02T07:18:43.997Z</time></trkpt><trkpt lat="42.360324841766385" lon="14.069991534909652"><ele>135.0</ele><time>2026-05-02T07:18:44.997Z</time></trkpt><trkpt lat="42.36028646701421" lon="14.069781547805839"><ele>135.0</ele><time>2026-05-02T07:18:45.997Z</time></trkpt><trkpt lat="42.36023561837474" lon="14.069583677029286"><ele>135.75</ele><time>2026-05-02T07:18:46.997Z</time></trkpt><trkpt lat="42.36020543471879" lon="14.069388501290394"><ele>136.5</ele><time>2026-05-02T07:18:47.997Z</time></trkpt><trkpt lat="42.36021326264093" lon="14.069207294746985"><ele>137.25</ele><time>2026-05-02T07:18:48.997Z</time></trkpt><trkpt lat="42.36023286550556" lon="14.069023046128198"><ele>138.0</ele><time>2026-05-02T07:18:49.997Z</time></trkpt><trkpt lat="42.36026557038441" lon="14.068859372394982"><ele>138.5</ele><time>2026-05-02T07:18:50.997Z</time></trkpt><trkpt lat="42.360299950134326" lon="14.068694789858519"><ele>139.0</ele><time>2026-05-02T07:18:51.997Z</time></trkpt><trkpt lat="42.36037461980042" lon="14.068535447219855"><ele>139.5</ele><time>2026-05-02T07:18:52.997Z</time></trkpt><trkpt lat="42.36044651155125" lon="14.068411908037469"><ele>140.0</ele><time>2026-05-02T07:18:53.997Z</time></trkpt><trkpt lat="42.360529866329344" lon="14.068320646339805"><ele>140.0</ele><time>2026-05-02T07:18:54.997Z</time></trkpt><trkpt lat="42.36057998538804" lon="14.068237166183478"><ele>140.0</ele><time>2026-05-02T07:18:55.997Z</time></trkpt><trkpt lat="42.360642158911304" lon="14.0681181012859"><ele>140.0</ele><time>2026-05-02T07:18:57.997Z</time></trkpt><trkpt lat="42.36068244903626" lon="14.067948910898103"><ele>140.0</ele><time>2026-05-02T07:19:00Z</time></trkpt><trkpt lat="42.360699187741275" lon="14.067820280864915"><ele>140.0</ele><time>2026-05-02T07:19:01Z</time></trkpt><trkpt lat="42.36070573275474" lon="14.06769374646162"><ele>140.0</ele><time>2026-05-02T07:19:02Z</time></trkpt><trkpt lat="42.360687742762074" lon="14.067564087948204"><ele>140.0</ele><time>2026-05-02T07:19:03Z</time></trkpt><trkpt lat="42.36063409275411" lon="14.067436293132957"><ele>140.0</ele><time>2026-05-02T07:19:04Z</time></trkpt><trkpt lat="42.36057551042364" lon="14.067305412717488"><ele>140.0</ele><time>2026-05-02T07:19:05Z</time></trkpt><trkpt lat="42.360515789577924" lon="14.06718728281502"><ele>140.0</ele><time>2026-05-02T07:19:06Z</time></trkpt><trkpt lat="42.360455079578855" lon="14.067084179668347"><ele>138.5</ele><time>2026-05-02T07:19:07Z</time></trkpt><trkpt lat="42.36041462698792" lon="14.066992090993772"><ele>137.0</ele><time>2026-05-02T07:19:08Z</time></trkpt><trkpt lat="42.360387091875936" lon="14.066913370796454"><ele>135.5</ele><time>2026-05-02T07:19:09Z</time></trkpt><trkpt lat="42.36036680400315" lon="14.066828854106573"><ele>134.0</ele><time>2026-05-02T07:19:10Z</time></trkpt><trkpt lat="42.3603306499711" lon="14.066700741993728"><ele>132.5</ele><time>2026-05-02T07:19:12Z</time></trkpt><trkpt lat="42.3602380143706" lon="14.066609507949652"><ele>131.0</ele><time>2026-05-02T07:19:14Z</time></trkpt><trkpt lat="42.36016393584043" lon="14.066564703565243"><ele>131.0</ele><time>2026-05-02T07:19:15Z</time></trkpt><trkpt lat="42.360075601104185" lon="14.06651821614923"><ele>131.0</ele><time>2026-05-02T07:19:16Z</time></trkpt><trkpt lat="42.35997694043509" lon="14.066453957755904"><ele>131.0</ele><time>2026-05-02T07:19:17Z</time></trkpt><trkpt lat="42.359895873973386" lon="14.066321825272365"><ele>131.0</ele><time>2026-05-02T07:19:18Z</time></trkpt><trkpt lat="42.35980420749788" lon="14.066160412942525"><ele>131.0</ele><time>2026-05-02T07:19:19Z</time></trkpt><trkpt lat="42.35971904039679" lon="14.065998520752732"><ele>131.0</ele><time>2026-05-02T07:19:20Z</time></trkpt><trkpt lat="42.359640765283956" lon="14.065802958575887"><ele>131.0</ele><time>2026-05-02T07:19:21Z</time></trkpt><trkpt lat="42.35955369535298" lon="14.065644436412162"><ele>129.25</ele><time>2026-05-02T07:19:22Z</time></trkpt><trkpt lat="42.35948543934199" lon="14.0655038313023"><ele>127.5</ele><time>2026-05-02T07:19:23Z</time></trkpt><trkpt lat="42.35940447642483" lon="14.065367713941493"><ele>125.75</ele><time>2026-05-02T07:19:24Z</time></trkpt><trkpt lat="42.35930736072376" lon="14.065225983850715"><ele>124.0</ele><time>2026-05-02T07:19:25Z</time></trkpt><trkpt lat="42.359187994449755" lon="14.065111969200206"><ele>124.0</ele><time>2026-05-02T07:19:26Z</time></trkpt><trkpt lat="42.35905897205812" lon="14.06501583600727"><ele>124.0</ele><time>2026-05-02T07:19:27Z</time></trkpt><trkpt lat="42.358953025181165" lon="14.064874785658196"><ele>124.0</ele><time>2026-05-02T07:19:28Z</time></trkpt><trkpt lat="42.35884865072343" lon="14.06470598252112"><ele>123.0</ele><time>2026-05-02T07:19:29Z</time></trkpt><trkpt lat="42.358748793583466" lon="14.064541967292634"><ele>122.0</ele><time>2026-05-02T07:19:30Z</time></trkpt><trkpt lat="42.35868678528252" lon="14.064362302114727"><ele>121.0</ele><time>2026-05-02T07:19:31Z</time></trkpt><trkpt lat="42.35860550813363" lon="14.064223126506862"><ele>120.0</ele><time>2026-05-02T07:19:32Z</time></trkpt><trkpt lat="42.35852002207103" lon="14.06410153013075"><ele>117.25</ele><time>2026-05-02T07:19:33Z</time></trkpt><trkpt lat="42.35845262026464" lon="14.064012177421514"><ele>114.5</ele><time>2026-05-02T07:19:34Z</time></trkpt><trkpt lat="42.35833139370192" lon="14.063932016890535"><ele>111.75</ele><time>2026-05-02T07:19:35Z</time></trkpt><trkpt lat="42.35819180363974" lon="14.06392954929651"><ele>109.0</ele><time>2026-05-02T07:19:36Z</time></trkpt><trkpt lat="42.35804878901268" lon="14.063974476198341"><ele>108.0</ele><time>2026-05-02T07:19:37Z</time></trkpt><trkpt lat="42.35790187666838" lon="14.064000850481458"><ele>107.0</ele><time>2026-05-02T07:19:38Z</time></trkpt><trkpt lat="42.357793060846845" lon="14.064005938456248"><ele>106.0</ele><time>2026-05-02T07:19:39Z</time></trkpt><trkpt lat="42.35769378287343" lon="14.063979102424081"><ele>105.0</ele><time>2026-05-02T07:19:40Z</time></trkpt><trkpt lat="42.35759742792075" lon="14.06392664340643"><ele>105.0</ele><time>2026-05-02T07:19:41Z</time></trkpt><trkpt lat="42.35748414856111" lon="14.063845869715546"><ele>105.0</ele><time>2026-05-02T07:19:42Z</time></trkpt><trkpt lat="42.357387488995776" lon="14.063749229156244"><ele>105.0</ele><time>2026-05-02T07:19:43Z</time></trkpt><trkpt lat="42.35726799545825" lon="14.063680043353326"><ele>105.0</ele><time>2026-05-02T07:19:44Z</time></trkpt><trkpt lat="42.3571285419425" lon="14.063623531973136"><ele>103.75</ele><time>2026-05-02T07:19:45Z</time></trkpt><trkpt lat="42.35700511983193" lon="14.063581520394983"><ele>102.5</ele><time>2026-05-02T07:19:46Z</time></trkpt><trkpt lat="42.356894801234056" lon="14.063559759712748"><ele>101.25</ele><time>2026-05-02T07:19:47Z</time></trkpt><trkpt lat="42.35675940408558" lon="14.063546033613019"><ele>100.0</ele><time>2026-05-02T07:19:48Z</time></trkpt><trkpt lat="42.356640198910355" lon="14.063568385158728"><ele>100.0</ele><time>2026-05-02T07:19:49Z</time></trkpt><trkpt lat="42.35649355440203" lon="14.06361537990218"><ele>100.0</ele><time>2026-05-02T07:19:50Z</time></trkpt><trkpt lat="42.35636299515233" lon="14.06367892900202"><ele>100.0</ele><time>2026-05-02T07:19:51Z</time></trkpt><trkpt lat="42.35625281089696" lon="14.063766613933106"><ele>100.0</ele><time>2026-05-02T07:19:52Z</time></trkpt><trkpt lat="42.356154486282996" lon="14.063817419990812"><ele>98.4</ele><time>2026-05-02T07:19:53Z</time></trkpt><trkpt lat="42.356057496975545" lon="14.06387172709216"><ele>96.8</ele><time>2026-05-02T07:19:54Z</time></trkpt><trkpt lat="42.355968418295575" lon="14.063886213276682"><ele>95.19999999999999</ele><time>2026-05-02T07:19:55Z</time></trkpt><trkpt lat="42.355871605961894" lon="14.06390637801875"><ele>93.6</ele><time>2026-05-02T07:19:56Z</time></trkpt><trkpt lat="42.35579448999842" lon="14.063820783415322"><ele>92.0</ele><time>2026-05-02T07:19:57Z</time></trkpt><trkpt lat="42.35571247827482" lon="14.063694589990119"><ele>92.0</ele><time>2026-05-02T07:19:58Z</time></trkpt><trkpt lat="42.35564211042489" lon="14.063546033498046"><ele>92.0</ele><time>2026-05-02T07:19:59Z</time></trkpt><trkpt lat="42.35557782702016" lon="14.06337704523941"><ele>92.0</ele><time>2026-05-02T07:20:00Z</time></trkpt><trkpt lat="42.35553189209667" lon="14.06317788704366"><ele>92.0</ele><time>2026-05-02T07:20:01Z</time></trkpt><trkpt lat="42.35546116774346" lon="14.062982832846652"><ele>91.33333333333334</ele><time>2026-05-02T07:20:02Z</time></trkpt><trkpt lat="42.35537547787549" lon="14.062796579178762"><ele>90.66666666666667</ele><time>2026-05-02T07:20:03Z</time></trkpt><trkpt lat="42.355269497148775" lon="14.06259607568532"><ele>90.0</ele><time>2026-05-02T07:20:04Z</time></trkpt><trkpt lat="42.355148650252964" lon="14.062402936944205"><ele>90.0</ele><time>2026-05-02T07:20:05Z</time></trkpt><trkpt lat="42.35503240916538" lon="14.062192034933602"><ele>90.0</ele><time>2026-05-02T07:20:06Z</time></trkpt><trkpt lat="42.35491747527846" lon="14.061999113263216"><ele>90.0</ele><time>2026-05-02T07:20:07Z</time></trkpt><trkpt lat="42.35480180015618" lon="14.061812400692649"><ele>89.0</ele><time>2026-05-02T07:20:08Z</time></trkpt><trkpt lat="42.354673968561855" lon="14.061638744557264"><ele>88.0</ele><time>2026-05-02T07:20:09Z</time></trkpt><trkpt lat="42.35455726794775" lon="14.061451749142638"><ele>87.0</ele><time>2026-05-02T07:20:10Z</time></trkpt><trkpt lat="42.35446609246916" lon="14.06126609548382"><ele>89.33333333333333</ele><time>2026-05-02T07:20:11Z</time></trkpt><trkpt lat="42.35437000839874" lon="14.0610932094887"><ele>91.66666666666666</ele><time>2026-05-02T07:20:12Z</time></trkpt><trkpt lat="42.35426350490203" lon="14.060918413767782"><ele>94.0</ele><time>2026-05-02T07:20:13Z</time></trkpt><trkpt lat="42.35415459170885" lon="14.060740989241431"><ele>93.33333333333333</ele><time>2026-05-02T07:20:14Z</time></trkpt><trkpt lat="42.35404937631765" lon="14.060574893633143"><ele>92.66666666666667</ele><time>2026-05-02T07:20:15Z</time></trkpt><trkpt lat="42.35394197190541" lon="14.06040825101989"><ele>92.0</ele><time>2026-05-02T07:20:16Z</time></trkpt><trkpt lat="42.35384866928726" lon="14.06024621043938"><ele>92.0</ele><time>2026-05-02T07:20:17Z</time></trkpt><trkpt lat="42.353764629751794" lon="14.060081279789609"><ele>92.0</ele><time>2026-05-02T07:20:18Z</time></trkpt><trkpt lat="42.35366984668418" lon="14.059921819663497"><ele>92.0</ele><time>2026-05-02T07:20:19Z</time></trkpt><trkpt lat="42.35358320688261" lon="14.059758081316348"><ele>92.0</ele><time>2026-05-02T07:20:20Z</time></trkpt><trkpt lat="42.35350291119521" lon="14.059594387619846"><ele>92.33333333333334</ele><time>2026-05-02T07:20:21Z</time></trkpt><trkpt lat="42.35347468418861" lon="14.059412486586284"><ele>92.66666666666667</ele><time>2026-05-02T07:20:22Z</time></trkpt><trkpt lat="42.35344247932094" lon="14.059213402035917"><ele>93.0</ele><time>2026-05-02T07:20:23Z</time></trkpt><trkpt lat="42.35342727394278" lon="14.058975491846224"><ele>93.0</ele><time>2026-05-02T07:20:24Z</time></trkpt><trkpt lat="42.35340924888182" lon="14.058752230729091"><ele>93.0</ele><time>2026-05-02T07:20:25Z</time></trkpt><trkpt lat="42.35339994837723" lon="14.058523671899568"><ele>93.0</ele><time>2026-05-02T07:20:26Z</time></trkpt><trkpt lat="42.35336417446197" lon="14.058319663101043"><ele>92.66666666666667</ele><time>2026-05-02T07:20:27Z</time></trkpt><trkpt lat="42.35332437680614" lon="14.058108669486073"><ele>92.33333333333334</ele><time>2026-05-02T07:20:28Z</time></trkpt><trkpt lat="42.353313359397035" lon="14.057871601054972"><ele>92.0</ele><time>2026-05-02T07:20:29Z</time></trkpt><trkpt lat="42.353306442107204" lon="14.057624309540639"><ele>91.33333333333334</ele><time>2026-05-02T07:20:29.999Z</time></trkpt><trkpt lat="42.35327148423905" lon="14.057391065506192"><ele>90.66666666666667</ele><time>2026-05-02T07:20:30.999Z</time></trkpt><trkpt lat="42.3532245452891" lon="14.057167891041624"><ele>90.0</ele><time>2026-05-02T07:20:31.999Z</time></trkpt><trkpt lat="42.35320265944331" lon="14.056953547323635"><ele>90.0</ele><time>2026-05-02T07:20:32.999Z</time></trkpt><trkpt lat="42.3531869130164" lon="14.056738334059116"><ele>90.0</ele><time>2026-05-02T07:20:33.999Z</time></trkpt><trkpt lat="42.35318021956208" lon="14.05651667414648"><ele>90.0</ele><time>2026-05-02T07:20:34.999Z</time></trkpt><trkpt lat="42.353199056161074" lon="14.05630594611372"><ele>89.66666666666667</ele><time>2026-05-02T07:20:35.999Z</time></trkpt><trkpt lat="42.35317995722016" lon="14.05608301170996"><ele>89.33333333333334</ele><time>2026-05-02T07:20:36.999Z</time></trkpt><trkpt lat="42.3531489675353" lon="14.05586844342533"><ele>89.0</ele><time>2026-05-02T07:20:37.999Z</time></trkpt><trkpt lat="42.35311926672915" lon="14.055639164821168"><ele>89.66666666666667</ele><time>2026-05-02T07:20:38.999Z</time></trkpt><trkpt lat="42.35307956999118" lon="14.055428146639498"><ele>90.33333333333333</ele><time>2026-05-02T07:20:39.999Z</time></trkpt><trkpt lat="42.35305657995239" lon="14.055193815414313"><ele>91.0</ele><time>2026-05-02T07:20:40.999Z</time></trkpt><trkpt lat="42.35304579886151" lon="14.05497322763024"><ele>91.33333333333333</ele><time>2026-05-02T07:20:41.999Z</time></trkpt><trkpt lat="42.35302749932236" lon="14.05473984282801"><ele>91.66666666666667</ele><time>2026-05-02T07:20:42.999Z</time></trkpt><trkpt lat="42.35304319803204" lon="14.054517715059648"><ele>92.0</ele><time>2026-05-02T07:20:43.999Z</time></trkpt><trkpt lat="42.35306481093389" lon="14.054301850606679"><ele>95.33333333333334</ele><time>2026-05-02T07:20:44.999Z</time></trkpt><trkpt lat="42.35311169954283" lon="14.054099822517117"><ele>98.66666666666667</ele><time>2026-05-02T07:20:45.999Z</time></trkpt><trkpt lat="42.35314952122576" lon="14.053901920351716"><ele>102.0</ele><time>2026-05-02T07:20:46.999Z</time></trkpt><trkpt lat="42.35317624662791" lon="14.05371051166926"><ele>102.0</ele><time>2026-05-02T07:20:47.999Z</time></trkpt><trkpt lat="42.35319243231495" lon="14.053541146474737"><ele>102.0</ele><time>2026-05-02T07:20:48.999Z</time></trkpt><trkpt lat="42.35317128125767" lon="14.053367882403164"><ele>102.0</ele><time>2026-05-02T07:20:49.999Z</time></trkpt><trkpt lat="42.35311794509891" lon="14.053199090573534"><ele>102.0</ele><time>2026-05-02T07:20:50.999Z</time></trkpt><trkpt lat="42.35303114063291" lon="14.053051652075947"><ele>102.0</ele><time>2026-05-02T07:20:51.999Z</time></trkpt><trkpt lat="42.352941423703136" lon="14.052890668116877"><ele>102.0</ele><time>2026-05-02T07:20:52.999Z</time></trkpt><trkpt lat="42.35289111602535" lon="14.052719378581504"><ele>102.0</ele><time>2026-05-02T07:20:53.999Z</time></trkpt><trkpt lat="42.352870755054234" lon="14.052558491523277"><ele>102.0</ele><time>2026-05-02T07:20:54.999Z</time></trkpt><trkpt lat="42.352873764150836" lon="14.052389701309973"><ele>103.25</ele><time>2026-05-02T07:20:55.999Z</time></trkpt><trkpt lat="42.3528946596343" lon="14.052209159036437"><ele>104.5</ele><time>2026-05-02T07:20:56.999Z</time></trkpt><trkpt lat="42.35293399582742" lon="14.052028242364225"><ele>105.75</ele><time>2026-05-02T07:20:57.999Z</time></trkpt><trkpt lat="42.352987227908585" lon="14.051818205456392"><ele>107.0</ele><time>2026-05-02T07:20:58.999Z</time></trkpt><trkpt lat="42.35303087329801" lon="14.051611218653306"><ele>108.33333333333333</ele><time>2026-05-02T07:20:59.999Z</time></trkpt><trkpt lat="42.353071067791454" lon="14.051430411997607"><ele>109.66666666666666</ele><time>2026-05-02T07:21:00.999Z</time></trkpt><trkpt lat="42.353089602735956" lon="14.05121398329923"><ele>111.0</ele><time>2026-05-02T07:21:01.999Z</time></trkpt><trkpt lat="42.3530873680568" lon="14.050977589500276"><ele>111.66666666666666</ele><time>2026-05-02T07:21:02.999Z</time></trkpt><trkpt lat="42.353130260188344" lon="14.050748562903024"><ele>112.33333333333333</ele><time>2026-05-02T07:21:03.999Z</time></trkpt><trkpt lat="42.35316869090606" lon="14.050541364184706"><ele>113.0</ele><time>2026-05-02T07:21:04.999Z</time></trkpt><trkpt lat="42.3532068323815" lon="14.05033223517194"><ele>113.0</ele><time>2026-05-02T07:21:05.999Z</time></trkpt><trkpt lat="42.35322582939574" lon="14.050133915358861"><ele>113.0</ele><time>2026-05-02T07:21:06.999Z</time></trkpt><trkpt lat="42.35325141954231" lon="14.049960015505116"><ele>113.0</ele><time>2026-05-02T07:21:07.999Z</time></trkpt><trkpt lat="42.353218155093174" lon="14.049765511286191"><ele>113.0</ele><time>2026-05-02T07:21:08.999Z</time></trkpt><trkpt lat="42.353161697938425" lon="14.049586536424247"><ele>114.66666666666666</ele><time>2026-05-02T07:21:09.999Z</time></trkpt><trkpt lat="42.353112649984425" lon="14.049368164788163"><ele>116.33333333333334</ele><time>2026-05-02T07:21:10.999Z</time></trkpt><trkpt lat="42.35307325291826" lon="14.049147600597648"><ele>118.0</ele><time>2026-05-02T07:21:11.999Z</time></trkpt><trkpt lat="42.353095543941855" lon="14.048940892530199"><ele>118.33333333333334</ele><time>2026-05-02T07:21:12.999Z</time></trkpt><trkpt lat="42.3531080358088" lon="14.048719629119475"><ele>118.66666666666666</ele><time>2026-05-02T07:21:13.999Z</time></trkpt><trkpt lat="42.353082174780404" lon="14.048531846955113"><ele>119.0</ele><time>2026-05-02T07:21:14.999Z</time></trkpt><trkpt lat="42.35301674176484" lon="14.048340145099129"><ele>115.5</ele><time>2026-05-02T07:21:15.998Z</time></trkpt><trkpt lat="42.35297016257519" lon="14.048134418876641"><ele>112.0</ele><time>2026-05-02T07:21:16.998Z</time></trkpt><trkpt lat="42.352954643042644" lon="14.047987039680953"><ele>108.5</ele><time>2026-05-02T07:21:17.998Z</time></trkpt><trkpt lat="42.35296113845667" lon="14.047841655502868"><ele>105.0</ele><time>2026-05-02T07:21:18.998Z</time></trkpt><trkpt lat="42.35300523745478" lon="14.047700747097364"><ele>109.66666666666666</ele><time>2026-05-02T07:21:19.998Z</time></trkpt><trkpt lat="42.35308196685905" lon="14.047556935445614"><ele>114.33333333333333</ele><time>2026-05-02T07:21:20.998Z</time></trkpt><trkpt lat="42.353188159650664" lon="14.047384806801789"><ele>119.0</ele><time>2026-05-02T07:21:21.998Z</time></trkpt><trkpt lat="42.35327264368689" lon="14.047203464627147"><ele>119.0</ele><time>2026-05-02T07:21:22.998Z</time></trkpt><trkpt lat="42.35334532875799" lon="14.047006406856347"><ele>119.0</ele><time>2026-05-02T07:21:23.998Z</time></trkpt><trkpt lat="42.35341200765872" lon="14.046798024429686"><ele>119.0</ele><time>2026-05-02T07:21:24.998Z</time></trkpt><trkpt lat="42.35347511744765" lon="14.046585076315768"><ele>118.0</ele><time>2026-05-02T07:21:25.998Z</time></trkpt><trkpt lat="42.35353414440368" lon="14.046365175951815"><ele>117.0</ele><time>2026-05-02T07:21:26.998Z</time></trkpt><trkpt lat="42.35357758711241" lon="14.046144110695456"><ele>116.0</ele><time>2026-05-02T07:21:27.998Z</time></trkpt><trkpt lat="42.353604176324566" lon="14.045902001952157"><ele>117.33333333333333</ele><time>2026-05-02T07:21:28.998Z</time></trkpt><trkpt lat="42.353625319715654" lon="14.045666358847662"><ele>118.66666666666666</ele><time>2026-05-02T07:21:29.998Z</time></trkpt><trkpt lat="42.353646671390315" lon="14.04544485552997"><ele>120.0</ele><time>2026-05-02T07:21:30.998Z</time></trkpt><trkpt lat="42.353631780490275" lon="14.045205145262036"><ele>120.0</ele><time>2026-05-02T07:21:31.998Z</time></trkpt><trkpt lat="42.35364011174076" lon="14.04498395130952"><ele>120.0</ele><time>2026-05-02T07:21:32.998Z</time></trkpt><trkpt lat="42.3536279127276" lon="14.044753801518631"><ele>120.0</ele><time>2026-05-02T07:21:33.998Z</time></trkpt><trkpt lat="42.35362603633564" lon="14.044526550765282"><ele>121.66666666666666</ele><time>2026-05-02T07:21:34.998Z</time></trkpt><trkpt lat="42.35361687883361" lon="14.044321905594389"><ele>123.33333333333333</ele><time>2026-05-02T07:21:35.998Z</time></trkpt><trkpt lat="42.35364019101893" lon="14.044114398469086"><ele>125.0</ele><time>2026-05-02T07:21:36.998Z</time></trkpt><trkpt lat="42.353689851471856" lon="14.04391935071802"><ele>126.33333333333333</ele><time>2026-05-02T07:21:37.998Z</time></trkpt><trkpt lat="42.35374141878444" lon="14.043715542180692"><ele>127.66666666666666</ele><time>2026-05-02T07:21:38.998Z</time></trkpt><trkpt lat="42.3537927631752" lon="14.043484080889236"><ele>129.0</ele><time>2026-05-02T07:21:39.998Z</time></trkpt><trkpt lat="42.35385960148049" lon="14.043276602671819"><ele>130.0</ele><time>2026-05-02T07:21:40.998Z</time></trkpt><trkpt lat="42.35390148726078" lon="14.043051966631937"><ele>131.0</ele><time>2026-05-02T07:21:41.998Z</time></trkpt><trkpt lat="42.35395453552491" lon="14.042832578805486"><ele>132.0</ele><time>2026-05-02T07:21:42.998Z</time></trkpt><trkpt lat="42.35399485531949" lon="14.042616363050412"><ele>132.0</ele><time>2026-05-02T07:21:43.998Z</time></trkpt><trkpt lat="42.35402361585933" lon="14.04240617050231"><ele>132.0</ele><time>2026-05-02T07:21:44.998Z</time></trkpt><trkpt lat="42.35405727901174" lon="14.042203427963866"><ele>132.0</ele><time>2026-05-02T07:21:45.998Z</time></trkpt><trkpt lat="42.35409419329454" lon="14.042021228371341"><ele>132.0</ele><time>2026-05-02T07:21:46.998Z</time></trkpt><trkpt lat="42.35412290194492" lon="14.041830292212914"><ele>132.0</ele><time>2026-05-02T07:21:47.998Z</time></trkpt><trkpt lat="42.354154630020346" lon="14.041627508702948"><ele>132.0</ele><time>2026-05-02T07:21:48.998Z</time></trkpt><trkpt lat="42.35418665984709" lon="14.04143324185483"><ele>132.0</ele><time>2026-05-02T07:21:49.998Z</time></trkpt><trkpt lat="42.35422205831942" lon="14.041223183575495"><ele>132.75</ele><time>2026-05-02T07:21:50.998Z</time></trkpt><trkpt lat="42.35425907752161" lon="14.04100527327803"><ele>133.5</ele><time>2026-05-02T07:21:51.998Z</time></trkpt><trkpt lat="42.35429187410636" lon="14.040808108254643"><ele>134.25</ele><time>2026-05-02T07:21:52.998Z</time></trkpt><trkpt lat="42.35432125914274" lon="14.04063180732794"><ele>135.0</ele><time>2026-05-02T07:21:53.998Z</time></trkpt><trkpt lat="42.354354970413546" lon="14.040429618154711"><ele>136.25</ele><time>2026-05-02T07:21:54.998Z</time></trkpt><trkpt lat="42.35438664325028" lon="14.040239717566452"><ele>137.5</ele><time>2026-05-02T07:21:55.998Z</time></trkpt><trkpt lat="42.354413306270715" lon="14.040075503630431"><ele>138.75</ele><time>2026-05-02T07:21:56.998Z</time></trkpt><trkpt lat="42.35444064628455" lon="14.039900773905126"><ele>140.0</ele><time>2026-05-02T07:21:57.998Z</time></trkpt><trkpt lat="42.35446727373669" lon="14.039730598317691"><ele>140.25</ele><time>2026-05-02T07:21:58.998Z</time></trkpt><trkpt lat="42.3544983036647" lon="14.039558339427147"><ele>140.5</ele><time>2026-05-02T07:21:59.998Z</time></trkpt><trkpt lat="42.354526238107" lon="14.03937466226257"><ele>140.75</ele><time>2026-05-02T07:22:00.998Z</time></trkpt><trkpt lat="42.35454945351468" lon="14.039232174818578"><ele>141.0</ele><time>2026-05-02T07:22:01.998Z</time></trkpt><trkpt lat="42.3545765530131" lon="14.03906349743082"><ele>140.0</ele><time>2026-05-02T07:22:02.998Z</time></trkpt><trkpt lat="42.35460702381017" lon="14.038871420136436"><ele>139.0</ele><time>2026-05-02T07:22:03.998Z</time></trkpt><trkpt lat="42.354641133836104" lon="14.038656402435553"><ele>138.0</ele><time>2026-05-02T07:22:04.998Z</time></trkpt><trkpt lat="42.35467671774048" lon="14.03843209397412"><ele>136.0</ele><time>2026-05-02T07:22:05.998Z</time></trkpt><trkpt lat="42.35471302498841" lon="14.038210124441804"><ele>134.0</ele><time>2026-05-02T07:22:06.998Z</time></trkpt><trkpt lat="42.35474991023992" lon="14.037985515272352"><ele>132.0</ele><time>2026-05-02T07:22:07.998Z</time></trkpt><trkpt lat="42.35478765305625" lon="14.037745375972108"><ele>132.0</ele><time>2026-05-02T07:22:08.998Z</time></trkpt><trkpt lat="42.35481975318664" lon="14.037529217982291"><ele>132.0</ele><time>2026-05-02T07:22:09.998Z</time></trkpt><trkpt lat="42.354848169486885" lon="14.037319553714358"><ele>132.0</ele><time>2026-05-02T07:22:10.998Z</time></trkpt><trkpt lat="42.35487044964461" lon="14.037122418389108"><ele>132.25</ele><time>2026-05-02T07:22:11.998Z</time></trkpt><trkpt lat="42.35488672614118" lon="14.036938666529489"><ele>132.5</ele><time>2026-05-02T07:22:12.998Z</time></trkpt><trkpt lat="42.35489046205143" lon="14.036734158226608"><ele>132.75</ele><time>2026-05-02T07:22:13.998Z</time></trkpt><trkpt lat="42.354891240466635" lon="14.036556119573117"><ele>133.0</ele><time>2026-05-02T07:22:14.998Z</time></trkpt><trkpt lat="42.354886827525846" lon="14.036349031338926"><ele>133.33333333333334</ele><time>2026-05-02T07:22:15.998Z</time></trkpt><trkpt lat="42.35488879911047" lon="14.036121604261886"><ele>133.66666666666666</ele><time>2026-05-02T07:22:16.998Z</time></trkpt><trkpt lat="42.35488786400892" lon="14.035869990964883"><ele>134.0</ele><time>2026-05-02T07:22:17.998Z</time></trkpt><trkpt lat="42.35488563369872" lon="14.035621875953236"><ele>135.0</ele><time>2026-05-02T07:22:18.998Z</time></trkpt><trkpt lat="42.35486960054431" lon="14.035368275665753"><ele>136.0</ele><time>2026-05-02T07:22:19.998Z</time></trkpt><trkpt lat="42.35486022179821" lon="14.035102239024583"><ele>137.0</ele><time>2026-05-02T07:22:20.998Z</time></trkpt><trkpt lat="42.35487000343702" lon="14.034823001122001"><ele>137.33333333333331</ele><time>2026-05-02T07:22:21.998Z</time></trkpt><trkpt lat="42.35486665593132" lon="14.0345544696283"><ele>137.66666666666666</ele><time>2026-05-02T07:22:22.998Z</time></trkpt><trkpt lat="42.3548628501565" lon="14.0342956780359"><ele>138.0</ele><time>2026-05-02T07:22:23.998Z</time></trkpt><trkpt lat="42.35486079484781" lon="14.034052888294726"><ele>138.0</ele><time>2026-05-02T07:22:24.998Z</time></trkpt><trkpt lat="42.35485884329894" lon="14.033808040149395"><ele>138.0</ele><time>2026-05-02T07:22:25.998Z</time></trkpt><trkpt lat="42.35484224088223" lon="14.033593523815501"><ele>138.0</ele><time>2026-05-02T07:22:26.998Z</time></trkpt><trkpt lat="42.35484824620051" lon="14.03336525271765"><ele>138.33333333333334</ele><time>2026-05-02T07:22:27.998Z</time></trkpt><trkpt lat="42.3548461753488" lon="14.033130905747038"><ele>138.66666666666669</ele><time>2026-05-02T07:22:28.998Z</time></trkpt><trkpt lat="42.35485727530515" lon="14.032867283892799"><ele>139.0</ele><time>2026-05-02T07:22:29.998Z</time></trkpt><trkpt lat="42.35486417425132" lon="14.032611416853632"><ele>139.0</ele><time>2026-05-02T07:22:30.998Z</time></trkpt><trkpt lat="42.35486557092428" lon="14.032357459601892"><ele>139.0</ele><time>2026-05-02T07:22:31.998Z</time></trkpt><trkpt lat="42.35485769492276" lon="14.032097990587017"><ele>139.0</ele><time>2026-05-02T07:22:32.998Z</time></trkpt><trkpt lat="42.35485823377382" lon="14.031834137869359"><ele>139.0</ele><time>2026-05-02T07:22:33.998Z</time></trkpt><trkpt lat="42.35486352316428" lon="14.031577679669216"><ele>139.0</ele><time>2026-05-02T07:22:34.998Z</time></trkpt><trkpt lat="42.35482723289069" lon="14.031326518380368"><ele>139.0</ele><time>2026-05-02T07:22:35.998Z</time></trkpt><trkpt lat="42.35482465816152" lon="14.031068963220182"><ele>139.0</ele><time>2026-05-02T07:22:36.998Z</time></trkpt><trkpt lat="42.35482598156211" lon="14.030808438666558"><ele>139.0</ele><time>2026-05-02T07:22:37.998Z</time></trkpt><trkpt lat="42.35481625345298" lon="14.030573425679716"><ele>139.0</ele><time>2026-05-02T07:22:38.998Z</time></trkpt><trkpt lat="42.354826518972104" lon="14.030352415900863"><ele>139.5</ele><time>2026-05-02T07:22:39.998Z</time></trkpt><trkpt lat="42.354824441574166" lon="14.030154788021331"><ele>140.0</ele><time>2026-05-02T07:22:40.998Z</time></trkpt><trkpt lat="42.354822515706694" lon="14.029971575159111"><ele>140.5</ele><time>2026-05-02T07:22:41.998Z</time></trkpt><trkpt lat="42.35482026772726" lon="14.029757719189362"><ele>141.0</ele><time>2026-05-02T07:22:42.998Z</time></trkpt><trkpt lat="42.35480647543436" lon="14.029529365742484"><ele>142.0</ele><time>2026-05-02T07:22:43.998Z</time></trkpt><trkpt lat="42.35481256299949" lon="14.02929662984306"><ele>143.0</ele><time>2026-05-02T07:22:44.998Z</time></trkpt><trkpt lat="42.354821053669966" lon="14.029090994574187"><ele>144.0</ele><time>2026-05-02T07:22:45.998Z</time></trkpt><trkpt lat="42.35483853790782" lon="14.028901321778472"><ele>144.0</ele><time>2026-05-02T07:22:46.998Z</time></trkpt><trkpt lat="42.3548250104245" lon="14.028740824288398"><ele>144.0</ele><time>2026-05-02T07:22:47.998Z</time></trkpt><trkpt lat="42.35483002660296" lon="14.028584440359074"><ele>144.0</ele><time>2026-05-02T07:22:48.998Z</time></trkpt><trkpt lat="42.35483485515259" lon="14.02842434984688"><ele>144.0</ele><time>2026-05-02T07:22:49.998Z</time></trkpt><trkpt lat="42.3548323843729" lon="14.028245165428395"><ele>144.33333333333334</ele><time>2026-05-02T07:22:50.998Z</time></trkpt><trkpt lat="42.354819418671696" lon="14.028058317033958"><ele>144.66666666666669</ele><time>2026-05-02T07:22:51.998Z</time></trkpt><trkpt lat="42.354803593550194" lon="14.027851989935938"><ele>145.0</ele><time>2026-05-02T07:22:52.998Z</time></trkpt><trkpt lat="42.35480279859381" lon="14.027632756094423"><ele>145.66666666666669</ele><time>2026-05-02T07:22:53.998Z</time></trkpt><trkpt lat="42.35480543568956" lon="14.027410469441296"><ele>146.33333333333334</ele><time>2026-05-02T07:22:54.998Z</time></trkpt><trkpt lat="42.35478880384403" lon="14.02719177142643"><ele>147.0</ele><time>2026-05-02T07:22:55.998Z</time></trkpt><trkpt lat="42.35478306531748" lon="14.026979313550795"><ele>147.0</ele><time>2026-05-02T07:22:56.998Z</time></trkpt><trkpt lat="42.35478769390021" lon="14.02677420531875"><ele>147.0</ele><time>2026-05-02T07:22:57.998Z</time></trkpt><trkpt lat="42.35477803790719" lon="14.026589070944356"><ele>147.0</ele><time>2026-05-02T07:22:58.998Z</time></trkpt><trkpt lat="42.35478630012876" lon="14.026420270261156"><ele>147.0</ele><time>2026-05-02T07:22:59.998Z</time></trkpt><trkpt lat="42.3547848262881" lon="14.02623963946948"><ele>147.0</ele><time>2026-05-02T07:23:00.998Z</time></trkpt><trkpt lat="42.354783305330834" lon="14.026052753656602"><ele>147.0</ele><time>2026-05-02T07:23:01.998Z</time></trkpt><trkpt lat="42.35478164763183" lon="14.025849065852771"><ele>147.0</ele><time>2026-05-02T07:23:02.998Z</time></trkpt><trkpt lat="42.35472131972595" lon="14.025701214211361"><ele>147.0</ele><time>2026-05-02T07:23:03.998Z</time></trkpt><trkpt lat="42.35472511419961" lon="14.025515614243481"><ele>147.4</ele><time>2026-05-02T07:23:04.998Z</time></trkpt><trkpt lat="42.35475930174767" lon="14.025354470429985"><ele>147.79999999999998</ele><time>2026-05-02T07:23:05.998Z</time></trkpt><trkpt lat="42.35476366072275" lon="14.025206700159982"><ele>148.2</ele><time>2026-05-02T07:23:06.998Z</time></trkpt><trkpt lat="42.35476982918509" lon="14.025073372722298"><ele>148.6</ele><time>2026-05-02T07:23:07.998Z</time></trkpt><trkpt lat="42.3547917050618" lon="14.024953090680821"><ele>149.0</ele><time>2026-05-02T07:23:08.998Z</time></trkpt><trkpt lat="42.35478555875416" lon="14.024818348131124"><ele>149.25</ele><time>2026-05-02T07:23:09.998Z</time></trkpt><trkpt lat="42.35480020094941" lon="14.024651676579735"><ele>149.5</ele><time>2026-05-02T07:23:10.998Z</time></trkpt><trkpt lat="42.35481349695181" lon="14.024461902641542"><ele>149.75</ele><time>2026-05-02T07:23:11.998Z</time></trkpt><trkpt lat="42.354841059775566" lon="14.024297107789032"><ele>150.0</ele><time>2026-05-02T07:23:12.998Z</time></trkpt><trkpt lat="42.35486698873921" lon="14.0241475521113"><ele>150.33333333333334</ele><time>2026-05-02T07:23:13.998Z</time></trkpt><trkpt lat="42.354879157617894" lon="14.024000450488476"><ele>150.66666666666666</ele><time>2026-05-02T07:23:14.998Z</time></trkpt><trkpt lat="42.35488071822303" lon="14.023871633180619"><ele>151.0</ele><time>2026-05-02T07:23:15.998Z</time></trkpt><trkpt lat="42.35488549775152" lon="14.023770053420343"><ele>151.33333333333331</ele><time>2026-05-02T07:23:16.998Z</time></trkpt><trkpt lat="42.35484237996795" lon="14.023675984458492"><ele>151.66666666666666</ele><time>2026-05-02T07:23:18.998Z</time></trkpt><trkpt lat="42.35479650273897" lon="14.023613114722172"><ele>152.0</ele><time>2026-05-02T07:23:20.998Z</time></trkpt><trkpt lat="42.35474930315404" lon="14.023678589720507"><ele>152.6</ele><time>2026-05-02T07:23:22.998Z</time></trkpt><trkpt lat="42.354651426636124" lon="14.023796472691359"><ele>153.2</ele><time>2026-05-02T07:23:24.998Z</time></trkpt><trkpt lat="42.354575186301716" lon="14.023873510404615"><ele>153.8</ele><time>2026-05-02T07:23:25.998Z</time></trkpt><trkpt lat="42.35447908730139" lon="14.02394361346516"><ele>154.4</ele><time>2026-05-02T07:23:26.998Z</time></trkpt><trkpt lat="42.35440864159832" lon="14.02402474825348"><ele>155.0</ele><time>2026-05-02T07:23:27.997Z</time></trkpt><trkpt lat="42.35433116146249" lon="14.024112014731745"><ele>154.83333333333331</ele><time>2026-05-02T07:23:28.997Z</time></trkpt><trkpt lat="42.35425988639855" lon="14.024216691924453"><ele>154.66666666666666</ele><time>2026-05-02T07:23:29.997Z</time></trkpt><trkpt lat="42.35417578684998" lon="14.024283324239914"><ele>154.5</ele><time>2026-05-02T07:23:30.997Z</time></trkpt><trkpt lat="42.35410866723995" lon="14.024340378409281"><ele>154.33333333333334</ele><time>2026-05-02T07:23:31.997Z</time></trkpt><trkpt lat="42.35404731390201" lon="14.024392816037306"><ele>154.16666666666669</ele><time>2026-05-02T07:23:32.997Z</time></trkpt><trkpt lat="42.353968310866186" lon="14.024460338484735"><ele>154.0</ele><time>2026-05-02T07:23:34.997Z</time></trkpt><trkpt lat="42.353966756123455" lon="14.024329218394183"><ele>154.0</ele><time>2026-05-02T07:23:35.997Z</time></trkpt><trkpt lat="42.35403118365435" lon="14.02428758651534"><ele>154.0</ele><time>2026-05-02T07:23:37.997Z</time></trkpt><trkpt lat="42.35406445389301" lon="14.024392137179227"><ele>154.0</ele><time>2026-05-02T07:23:51.997Z</time></trkpt><trkpt lat="42.35415946856204" lon="14.024305409565821"><ele>154.0</ele><time>2026-05-02T07:23:53.997Z</time></trkpt><trkpt lat="42.35422880221843" lon="14.024283264004483"><ele>154.0</ele><time>2026-05-02T07:23:54.997Z</time></trkpt><trkpt lat="42.354318901231" lon="14.024184327968696"><ele>154.0</ele><time>2026-05-02T07:23:56.997Z</time></trkpt><trkpt lat="42.35437014719223" lon="14.024106703803556"><ele>154.0</ele><time>2026-05-02T07:23:59.997Z</time></trkpt><trkpt lat="42.35445631990082" lon="14.024110026524276"><ele>154.0</ele><time>2026-05-02T07:26:20Z</time></trkpt><trkpt lat="42.35440488574564" lon="14.02404859004168"><ele>154.0</ele><time>2026-05-02T07:29:10.999Z</time></trkpt><trkpt lat="42.354350556455415" lon="14.024127803298878"><ele>154.0</ele><time>2026-05-02T07:29:12.999Z</time></trkpt><trkpt lat="42.354260570095484" lon="14.024190462671497"><ele>154.0</ele><time>2026-05-02T07:29:14.999Z</time></trkpt><trkpt lat="42.354207384262445" lon="14.024270439311632"><ele>154.0</ele><time>2026-05-02T07:29:16.999Z</time></trkpt><trkpt lat="42.35412903238732" lon="14.024326899952996"><ele>154.0</ele><time>2026-05-02T07:29:18.999Z</time></trkpt><trkpt lat="42.35402050604276" lon="14.02427472630307"><ele>154.0</ele><time>2026-05-02T07:29:20.999Z</time></trkpt><trkpt lat="42.35395827825421" lon="14.02422736763905"><ele>154.0</ele><time>2026-05-02T07:29:21.999Z</time></trkpt><trkpt lat="42.353897445685035" lon="14.024184647586843"><ele>154.0</ele><time>2026-05-02T07:29:22.999Z</time></trkpt><trkpt lat="42.353837790492356" lon="14.024139808858932"><ele>154.0</ele><time>2026-05-02T07:29:23.999Z</time></trkpt><trkpt lat="42.353778592099495" lon="14.024098889981516"><ele>154.66666666666669</ele><time>2026-05-02T07:29:24.999Z</time></trkpt><trkpt lat="42.35367043382621" lon="14.024067941182711"><ele>155.33333333333334</ele><time>2026-05-02T07:29:26.999Z</time></trkpt><trkpt lat="42.35359129278237" lon="14.024063669767239"><ele>156.0</ele><time>2026-05-02T07:29:27.999Z</time></trkpt><trkpt lat="42.353514769773206" lon="14.02406167766486"><ele>156.66666666666666</ele><time>2026-05-02T07:29:28.999Z</time></trkpt><trkpt lat="42.353440265720195" lon="14.024055083547665"><ele>157.33333333333331</ele><time>2026-05-02T07:29:29.999Z</time></trkpt><trkpt lat="42.35335101832326" lon="14.024042465770417"><ele>158.0</ele><time>2026-05-02T07:29:30.999Z</time></trkpt><trkpt lat="42.353265623605125" lon="14.024029542354835"><ele>158.0</ele><time>2026-05-02T07:29:31.999Z</time></trkpt><trkpt lat="42.35317253925934" lon="14.024009646289867"><ele>158.0</ele><time>2026-05-02T07:29:32.999Z</time></trkpt><trkpt lat="42.35307783510519" lon="14.02399205162521"><ele>158.0</ele><time>2026-05-02T07:29:33.999Z</time></trkpt><trkpt lat="42.352981672792986" lon="14.0239785795517"><ele>158.0</ele><time>2026-05-02T07:29:34.999Z</time></trkpt><trkpt lat="42.35288867594915" lon="14.023962968986162"><ele>158.0</ele><time>2026-05-02T07:29:35.999Z</time></trkpt><trkpt lat="42.352806235496594" lon="14.023944204135846"><ele>159.33333333333331</ele><time>2026-05-02T07:29:36.999Z</time></trkpt><trkpt lat="42.352723577874386" lon="14.023930104248553"><ele>160.66666666666666</ele><time>2026-05-02T07:29:37.999Z</time></trkpt><trkpt lat="42.35263561216028" lon="14.023921056944769"><ele>162.0</ele><time>2026-05-02T07:29:38.999Z</time></trkpt><trkpt lat="42.35254718969083" lon="14.023913168239677"><ele>163.33333333333334</ele><time>2026-05-02T07:29:39.999Z</time></trkpt><trkpt lat="42.35246112948957" lon="14.023904093129861"><ele>164.66666666666669</ele><time>2026-05-02T07:29:40.999Z</time></trkpt><trkpt lat="42.35238293415997" lon="14.023892571616367"><ele>166.0</ele><time>2026-05-02T07:29:41.999Z</time></trkpt><trkpt lat="42.35229727002104" lon="14.02387288663575"><ele>166.0</ele><time>2026-05-02T07:29:42.999Z</time></trkpt><trkpt lat="42.352207344567994" lon="14.023861684656067"><ele>166.0</ele><time>2026-05-02T07:29:43.999Z</time></trkpt><trkpt lat="42.35212977101656" lon="14.023867979416918"><ele>166.0</ele><time>2026-05-02T07:29:44.999Z</time></trkpt><trkpt lat="42.352055602298755" lon="14.023875485376612"><ele>166.0</ele><time>2026-05-02T07:29:45.999Z</time></trkpt><trkpt lat="42.35198130268209" lon="14.023891086501855"><ele>166.0</ele><time>2026-05-02T07:29:46.999Z</time></trkpt><trkpt lat="42.3519088395902" lon="14.023923686092973"><ele>166.0</ele><time>2026-05-02T07:29:47.999Z</time></trkpt><trkpt lat="42.35183025343927" lon="14.023962554168929"><ele>167.16666666666669</ele><time>2026-05-02T07:29:48.999Z</time></trkpt><trkpt lat="42.3517307018057" lon="14.024003571892132"><ele>168.33333333333334</ele><time>2026-05-02T07:29:49.999Z</time></trkpt><trkpt lat="42.35165138451445" lon="14.024035627632028"><ele>169.5</ele><time>2026-05-02T07:29:50.999Z</time></trkpt><trkpt lat="42.35157740699232" lon="14.024068178136112"><ele>170.66666666666666</ele><time>2026-05-02T07:29:51.999Z</time></trkpt><trkpt lat="42.3515118365562" lon="14.024075260093538"><ele>171.83333333333331</ele><time>2026-05-02T07:29:52.999Z</time></trkpt><trkpt lat="42.351426255495944" lon="14.024058050810902"><ele>173.0</ele><time>2026-05-02T07:29:53.999Z</time></trkpt><trkpt lat="42.35135120575974" lon="14.024019230366763"><ele>174.60000000000002</ele><time>2026-05-02T07:29:54.999Z</time></trkpt><trkpt lat="42.35128888096773" lon="14.023976614720379"><ele>176.20000000000002</ele><time>2026-05-02T07:29:55.999Z</time></trkpt><trkpt lat="42.351219345319656" lon="14.02381498652289"><ele>177.8</ele><time>2026-05-02T07:29:57.999Z</time></trkpt><trkpt lat="42.351186878901466" lon="14.02369900554282"><ele>179.4</ele><time>2026-05-02T07:29:58.999Z</time></trkpt><trkpt lat="42.35114397889721" lon="14.023571668216539"><ele>181.0</ele><time>2026-05-02T07:29:59.999Z</time></trkpt><trkpt lat="42.35110843366291" lon="14.023469239103541"><ele>181.0</ele><time>2026-05-02T07:30:00.999Z</time></trkpt><trkpt lat="42.351065595540305" lon="14.023365155530088"><ele>181.0</ele><time>2026-05-02T07:30:01.999Z</time></trkpt><trkpt lat="42.351025005884544" lon="14.023270788918781"><ele>181.0</ele><time>2026-05-02T07:30:02.999Z</time></trkpt><trkpt lat="42.350974055869685" lon="14.023184041266548"><ele>181.0</ele><time>2026-05-02T07:30:03.999Z</time></trkpt><trkpt lat="42.35091564978941" lon="14.02310606925855"><ele>181.0</ele><time>2026-05-02T07:30:04.999Z</time></trkpt><trkpt lat="42.350843683396484" lon="14.023020985648852"><ele>181.0</ele><time>2026-05-02T07:30:05.999Z</time></trkpt><trkpt lat="42.35076920398231" lon="14.022922655082898"><ele>182.25</ele><time>2026-05-02T07:30:06.999Z</time></trkpt><trkpt lat="42.35068617029036" lon="14.022808311420272"><ele>183.5</ele><time>2026-05-02T07:30:07.999Z</time></trkpt><trkpt lat="42.35060459689066" lon="14.022682605324352"><ele>184.75</ele><time>2026-05-02T07:30:08.999Z</time></trkpt><trkpt lat="42.35052452980664" lon="14.022560541369373"><ele>186.0</ele><time>2026-05-02T07:30:09.999Z</time></trkpt><trkpt lat="42.35045857211673" lon="14.022461376586227"><ele>186.66666666666666</ele><time>2026-05-02T07:30:10.999Z</time></trkpt><trkpt lat="42.350400367624424" lon="14.02236670177056"><ele>187.33333333333334</ele><time>2026-05-02T07:30:11.999Z</time></trkpt><trkpt lat="42.350337058174844" lon="14.022288409152903"><ele>188.0</ele><time>2026-05-02T07:30:12.999Z</time></trkpt><trkpt lat="42.35027709410409" lon="14.022234294881937"><ele>188.66666666666669</ele><time>2026-05-02T07:30:13.998Z</time></trkpt><trkpt lat="42.35021140931559" lon="14.02221951235851"><ele>189.33333333333334</ele><time>2026-05-02T07:30:14.998Z</time></trkpt><trkpt lat="42.35009025308759" lon="14.022275749178029"><ele>190.0</ele><time>2026-05-02T07:30:16.998Z</time></trkpt><trkpt lat="42.3500270157258" lon="14.022343480737868"><ele>190.0</ele><time>2026-05-02T07:30:17.998Z</time></trkpt><trkpt lat="42.349941753490576" lon="14.022417462448333"><ele>190.0</ele><time>2026-05-02T07:30:18.998Z</time></trkpt><trkpt lat="42.34984011714233" lon="14.022503558770389"><ele>190.0</ele><time>2026-05-02T07:30:19.998Z</time></trkpt><trkpt lat="42.34973827797603" lon="14.022595990375361"><ele>190.0</ele><time>2026-05-02T07:30:20.998Z</time></trkpt><trkpt lat="42.349636017193966" lon="14.022683417154308"><ele>190.0</ele><time>2026-05-02T07:30:21.998Z</time></trkpt><trkpt lat="42.34954299337836" lon="14.022783043942916"><ele>190.0</ele><time>2026-05-02T07:30:22.998Z</time></trkpt><trkpt lat="42.349446748335446" lon="14.022871990594307"><ele>190.0</ele><time>2026-05-02T07:30:23.998Z</time></trkpt><trkpt lat="42.34934941386488" lon="14.02296185732653"><ele>190.0</ele><time>2026-05-02T07:30:24.998Z</time></trkpt><trkpt lat="42.349251705342645" lon="14.023055097212945"><ele>190.0</ele><time>2026-05-02T07:30:25.998Z</time></trkpt><trkpt lat="42.349154527843694" lon="14.02313108961649"><ele>190.0</ele><time>2026-05-02T07:30:26.998Z</time></trkpt><trkpt lat="42.349075677713735" lon="14.023208945076162"><ele>190.0</ele><time>2026-05-02T07:30:27.998Z</time></trkpt><trkpt lat="42.34901606875269" lon="14.02326774303789"><ele>190.0</ele><time>2026-05-02T07:30:28.998Z</time></trkpt><trkpt lat="42.34893442879643" lon="14.02333920718278"><ele>190.0</ele><time>2026-05-02T07:30:30.998Z</time></trkpt><trkpt lat="42.34886051938175" lon="14.023293927808155"><ele>191.25</ele><time>2026-05-02T07:30:32.998Z</time></trkpt><trkpt lat="42.34880388314565" lon="14.023129004159465"><ele>192.5</ele><time>2026-05-02T07:30:34.998Z</time></trkpt><trkpt lat="42.34875283303306" lon="14.02302669270844"><ele>193.75</ele><time>2026-05-02T07:30:35.998Z</time></trkpt><trkpt lat="42.348675372265355" lon="14.022914822286442"><ele>195.0</ele><time>2026-05-02T07:30:36.998Z</time></trkpt><trkpt lat="42.34862869844956" lon="14.022757829026041"><ele>195.0</ele><time>2026-05-02T07:30:37.998Z</time></trkpt><trkpt lat="42.34855582693195" lon="14.022603770690075"><ele>195.0</ele><time>2026-05-02T07:30:38.998Z</time></trkpt><trkpt lat="42.3484558667266" lon="14.02245962545213"><ele>195.0</ele><time>2026-05-02T07:30:39.998Z</time></trkpt><trkpt lat="42.34834979887673" lon="14.022315222814859"><ele>195.0</ele><time>2026-05-02T07:30:40.998Z</time></trkpt><trkpt lat="42.34824060162679" lon="14.022159612036893"><ele>195.0</ele><time>2026-05-02T07:30:41.998Z</time></trkpt><trkpt lat="42.34812402341322" lon="14.021986508322628"><ele>195.0</ele><time>2026-05-02T07:30:42.998Z</time></trkpt><trkpt lat="42.348001478513645" lon="14.02180648771184"><ele>195.0</ele><time>2026-05-02T07:30:43.998Z</time></trkpt><trkpt lat="42.347870831365775" lon="14.021646264614924"><ele>195.33333333333331</ele><time>2026-05-02T07:30:44.998Z</time></trkpt><trkpt lat="42.34776704384706" lon="14.021481569412567"><ele>195.66666666666666</ele><time>2026-05-02T07:30:45.998Z</time></trkpt><trkpt lat="42.347665734373024" lon="14.021336447822575"><ele>196.0</ele><time>2026-05-02T07:30:46.998Z</time></trkpt><trkpt lat="42.34756582070834" lon="14.021192982634485"><ele>196.0</ele><time>2026-05-02T07:30:47.998Z</time></trkpt><trkpt lat="42.34746844299954" lon="14.021055721806515"><ele>196.0</ele><time>2026-05-02T07:30:48.998Z</time></trkpt><trkpt lat="42.347370290462614" lon="14.020933162340144"><ele>196.0</ele><time>2026-05-02T07:30:49.998Z</time></trkpt><trkpt lat="42.347289929580356" lon="14.020797027596604"><ele>196.0</ele><time>2026-05-02T07:30:50.998Z</time></trkpt><trkpt lat="42.34720859407307" lon="14.020649792332707"><ele>196.5</ele><time>2026-05-02T07:30:51.998Z</time></trkpt><trkpt lat="42.34711717569579" lon="14.020504132000612"><ele>197.0</ele><time>2026-05-02T07:30:52.998Z</time></trkpt><trkpt lat="42.347033940619326" lon="14.02033767774363"><ele>197.5</ele><time>2026-05-02T07:30:53.998Z</time></trkpt><trkpt lat="42.34693654289982" lon="14.020189870935088"><ele>198.0</ele><time>2026-05-02T07:30:54.998Z</time></trkpt><trkpt lat="42.34686810394641" lon="14.020037886625788"><ele>197.66666666666669</ele><time>2026-05-02T07:30:55.998Z</time></trkpt><trkpt lat="42.34677688561447" lon="14.01986235651217"><ele>197.33333333333334</ele><time>2026-05-02T07:30:56.998Z</time></trkpt><trkpt lat="42.34670514234667" lon="14.019684908336666"><ele>197.0</ele><time>2026-05-02T07:30:57.998Z</time></trkpt><trkpt lat="42.34662179163938" lon="14.019514486468406"><ele>197.0</ele><time>2026-05-02T07:30:58.998Z</time></trkpt><trkpt lat="42.34653025407026" lon="14.019357245106049"><ele>197.0</ele><time>2026-05-02T07:30:59.998Z</time></trkpt><trkpt lat="42.34645226833813" lon="14.0191696784908"><ele>197.0</ele><time>2026-05-02T07:31:00.998Z</time></trkpt><trkpt lat="42.34637254224812" lon="14.018986933912036"><ele>198.33333333333334</ele><time>2026-05-02T07:31:01.998Z</time></trkpt><trkpt lat="42.34629595463968" lon="14.018777446381288"><ele>199.66666666666669</ele><time>2026-05-02T07:31:02.998Z</time></trkpt><trkpt lat="42.34620053238496" lon="14.01860837527924"><ele>201.0</ele><time>2026-05-02T07:31:03.998Z</time></trkpt><trkpt lat="42.34612666291697" lon="14.018424496563561"><ele>201.66666666666669</ele><time>2026-05-02T07:31:04.998Z</time></trkpt><trkpt lat="42.34603902758382" lon="14.018260429258682"><ele>202.33333333333334</ele><time>2026-05-02T07:31:05.998Z</time></trkpt><trkpt lat="42.34593718208871" lon="14.018100227150013"><ele>203.0</ele><time>2026-05-02T07:31:06.998Z</time></trkpt><trkpt lat="42.34586285762597" lon="14.017918823396943"><ele>203.0</ele><time>2026-05-02T07:31:07.998Z</time></trkpt><trkpt lat="42.34576683865127" lon="14.017741682865422"><ele>203.0</ele><time>2026-05-02T07:31:08.998Z</time></trkpt><trkpt lat="42.345673876810395" lon="14.017570795189082"><ele>203.0</ele><time>2026-05-02T07:31:09.998Z</time></trkpt><trkpt lat="42.34558386742264" lon="14.01740102216969"><ele>203.5</ele><time>2026-05-02T07:31:10.998Z</time></trkpt><trkpt lat="42.34550241675818" lon="14.017259789251245"><ele>204.0</ele><time>2026-05-02T07:31:11.998Z</time></trkpt><trkpt lat="42.34542125609099" lon="14.017134527378204"><ele>204.5</ele><time>2026-05-02T07:31:12.998Z</time></trkpt><trkpt lat="42.34534103103044" lon="14.017010493085197"><ele>205.0</ele><time>2026-05-02T07:31:13.998Z</time></trkpt><trkpt lat="42.34527070026293" lon="14.016872484060725"><ele>205.0</ele><time>2026-05-02T07:31:14.998Z</time></trkpt><trkpt lat="42.34521181305075" lon="14.016719763763497"><ele>205.0</ele><time>2026-05-02T07:31:15.998Z</time></trkpt><trkpt lat="42.34515201772757" lon="14.01657488551903"><ele>205.0</ele><time>2026-05-02T07:31:16.998Z</time></trkpt><trkpt lat="42.34513739434406" lon="14.016421899876693"><ele>205.0</ele><time>2026-05-02T07:31:17.998Z</time></trkpt><trkpt lat="42.34509347654373" lon="14.016303584852942"><ele>205.5</ele><time>2026-05-02T07:31:18.998Z</time></trkpt><trkpt lat="42.34504521858574" lon="14.016232427761036"><ele>206.0</ele><time>2026-05-02T07:31:19.998Z</time></trkpt><trkpt lat="42.34495593041134" lon="14.016129215734107"><ele>206.5</ele><time>2026-05-02T07:31:21.998Z</time></trkpt><trkpt lat="42.34481225204372" lon="14.016181221716465"><ele>207.0</ele><time>2026-05-02T07:31:23.998Z</time></trkpt><trkpt lat="42.34469695707714" lon="14.016205620952652"><ele>207.0</ele><time>2026-05-02T07:31:24.998Z</time></trkpt><trkpt lat="42.34458220923218" lon="14.016219552142983"><ele>207.0</ele><time>2026-05-02T07:31:25.998Z</time></trkpt><trkpt lat="42.34445878272894" lon="14.01623572194012"><ele>207.0</ele><time>2026-05-02T07:31:26.998Z</time></trkpt><trkpt lat="42.34434074903627" lon="14.01627181526533"><ele>207.0</ele><time>2026-05-02T07:31:27.998Z</time></trkpt><trkpt lat="42.34420505372949" lon="14.016288392360726"><ele>207.0</ele><time>2026-05-02T07:31:28.997Z</time></trkpt><trkpt lat="42.344090294066625" lon="14.016303927170762"><ele>207.0</ele><time>2026-05-02T07:31:29.997Z</time></trkpt><trkpt lat="42.34398665142526" lon="14.016329677174141"><ele>207.0</ele><time>2026-05-02T07:31:30.997Z</time></trkpt><trkpt lat="42.343883232489006" lon="14.016369341926403"><ele>207.0</ele><time>2026-05-02T07:31:31.997Z</time></trkpt><trkpt lat="42.34377884176852" lon="14.01633950833098"><ele>207.0</ele><time>2026-05-02T07:31:32.997Z</time></trkpt><trkpt lat="42.343681261524424" lon="14.01631805510834"><ele>206.39999999999998</ele><time>2026-05-02T07:31:33.997Z</time></trkpt><trkpt lat="42.34356300309387" lon="14.016292750836106"><ele>205.79999999999998</ele><time>2026-05-02T07:31:34.997Z</time></trkpt><trkpt lat="42.34345183235334" lon="14.016286530156734"><ele>205.2</ele><time>2026-05-02T07:31:35.997Z</time></trkpt><trkpt lat="42.34336887730426" lon="14.016249773461952"><ele>204.6</ele><time>2026-05-02T07:31:36.997Z</time></trkpt><trkpt lat="42.34328869483248" lon="14.016225533223066"><ele>204.0</ele><time>2026-05-02T07:31:37.997Z</time></trkpt><trkpt lat="42.3432006357791" lon="14.016199703283668"><ele>204.0</ele><time>2026-05-02T07:31:38.997Z</time></trkpt><trkpt lat="42.34310338969673" lon="14.01617395344569"><ele>204.0</ele><time>2026-05-02T07:31:39.997Z</time></trkpt><trkpt lat="42.343009397364376" lon="14.016123135298125"><ele>204.0</ele><time>2026-05-02T07:31:40.997Z</time></trkpt><trkpt lat="42.342937601316024" lon="14.016099353710775"><ele>204.0</ele><time>2026-05-02T07:31:41.997Z</time></trkpt><trkpt lat="42.342836969699896" lon="14.016051291239224"><ele>204.0</ele><time>2026-05-02T07:31:42.997Z</time></trkpt><trkpt lat="42.3427414589289" lon="14.01609124786171"><ele>201.79999999999998</ele><time>2026-05-02T07:31:44.997Z</time></trkpt><trkpt lat="42.34269815544342" lon="14.016172754132906"><ele>199.6</ele><time>2026-05-02T07:31:45.997Z</time></trkpt><trkpt lat="42.342657336182725" lon="14.01629099694983"><ele>197.4</ele><time>2026-05-02T07:31:46.997Z</time></trkpt><trkpt lat="42.34260810691023" lon="14.016412604716823"><ele>195.2</ele><time>2026-05-02T07:31:47.997Z</time></trkpt><trkpt lat="42.34256349707968" lon="14.016541546316414"><ele>193.0</ele><time>2026-05-02T07:31:48.997Z</time></trkpt><trkpt lat="42.34253005564709" lon="14.016663891143336"><ele>192.66666666666666</ele><time>2026-05-02T07:31:49.997Z</time></trkpt><trkpt lat="42.34250573093372" lon="14.01678732159678"><ele>192.33333333333331</ele><time>2026-05-02T07:31:50.997Z</time></trkpt><trkpt lat="42.34248799920461" lon="14.016873891119745"><ele>192.0</ele><time>2026-05-02T07:31:51.997Z</time></trkpt><trkpt lat="42.342447063564705" lon="14.016971712820933"><ele>191.66666666666666</ele><time>2026-05-02T07:31:54.997Z</time></trkpt><trkpt lat="42.34237243036887" lon="14.017017779385812"><ele>191.33333333333331</ele><time>2026-05-02T07:31:56.997Z</time></trkpt><trkpt lat="42.34230859135416" lon="14.017081497965345"><ele>191.0</ele><time>2026-05-02T07:31:58.997Z</time></trkpt><trkpt lat="42.34220468080476" lon="14.017084393788624"><ele>188.8</ele><time>2026-05-02T07:32:00.997Z</time></trkpt><trkpt lat="42.34213309190093" lon="14.017016873483508"><ele>186.60000000000002</ele><time>2026-05-02T07:32:01.997Z</time></trkpt><trkpt lat="42.34205676356885" lon="14.016944887328139"><ele>184.4</ele><time>2026-05-02T07:32:02.997Z</time></trkpt><trkpt lat="42.341973903597975" lon="14.016861029628298"><ele>182.2</ele><time>2026-05-02T07:32:03.997Z</time></trkpt><trkpt lat="42.34190425664253" lon="14.016792801695518"><ele>180.0</ele><time>2026-05-02T07:32:04.997Z</time></trkpt><trkpt lat="42.34183239762503" lon="14.016724770840531"><ele>180.0</ele><time>2026-05-02T07:32:05.997Z</time></trkpt><trkpt lat="42.34175766569624" lon="14.016662837082716"><ele>180.0</ele><time>2026-05-02T07:32:06.997Z</time></trkpt><trkpt lat="42.341666774451035" lon="14.016611367108704"><ele>180.0</ele><time>2026-05-02T07:32:07.997Z</time></trkpt><trkpt lat="42.341584713104254" lon="14.016529845072627"><ele>180.0</ele><time>2026-05-02T07:32:08.997Z</time></trkpt><trkpt lat="42.341511476331114" lon="14.01649023024841"><ele>180.0</ele><time>2026-05-02T07:32:09.997Z</time></trkpt><trkpt lat="42.34145501977894" lon="14.016437660780195"><ele>180.0</ele><time>2026-05-02T07:32:10.997Z</time></trkpt><trkpt lat="42.341397164889344" lon="14.016380704311677"><ele>179.16666666666666</ele><time>2026-05-02T07:32:11.997Z</time></trkpt><trkpt lat="42.34133417994417" lon="14.016327953320785"><ele>178.33333333333334</ele><time>2026-05-02T07:32:12.997Z</time></trkpt><trkpt lat="42.341270026173895" lon="14.01628778287448"><ele>177.5</ele><time>2026-05-02T07:32:13.997Z</time></trkpt><trkpt lat="42.34118237350712" lon="14.016228355019214"><ele>176.66666666666669</ele><time>2026-05-02T07:32:14.997Z</time></trkpt><trkpt lat="42.34111520738069" lon="14.016170114863057"><ele>175.83333333333334</ele><time>2026-05-02T07:32:15.997Z</time></trkpt><trkpt lat="42.34105106782379" lon="14.016097826723128"><ele>175.0</ele><time>2026-05-02T07:32:16.997Z</time></trkpt><trkpt lat="42.34098309919138" lon="14.015998524231666"><ele>175.0</ele><time>2026-05-02T07:32:17.997Z</time></trkpt><trkpt lat="42.340899073723904" lon="14.015892509027402"><ele>175.0</ele><time>2026-05-02T07:32:18.997Z</time></trkpt><trkpt lat="42.34083307705516" lon="14.01578536363088"><ele>175.0</ele><time>2026-05-02T07:32:19.997Z</time></trkpt><trkpt lat="42.3407759501553" lon="14.01568297624059"><ele>175.0</ele><time>2026-05-02T07:32:20.997Z</time></trkpt><trkpt lat="42.34071797717285" lon="14.015595278836777"><ele>175.0</ele><time>2026-05-02T07:32:21.997Z</time></trkpt><trkpt lat="42.340677525118615" lon="14.015486252543063"><ele>176.0</ele><time>2026-05-02T07:32:22.997Z</time></trkpt><trkpt lat="42.3406320060078" lon="14.015378602830767"><ele>177.0</ele><time>2026-05-02T07:32:23.997Z</time></trkpt><trkpt lat="42.34060938400346" lon="14.01526567214562"><ele>178.0</ele><time>2026-05-02T07:32:24.997Z</time></trkpt><trkpt lat="42.340555321792294" lon="14.015184109593374"><ele>179.0</ele><time>2026-05-02T07:32:25.997Z</time></trkpt><trkpt lat="42.34050209148986" lon="14.015137929798483"><ele>180.0</ele><time>2026-05-02T07:32:26.997Z</time></trkpt><trkpt lat="42.34034987241643" lon="14.015175712956477"><ele>180.8</ele><time>2026-05-02T07:32:28.997Z</time></trkpt><trkpt lat="42.34025243896133" lon="14.01524947790273"><ele>181.6</ele><time>2026-05-02T07:32:29.997Z</time></trkpt><trkpt lat="42.3401726121397" lon="14.01533184093061"><ele>182.39999999999998</ele><time>2026-05-02T07:32:30.997Z</time></trkpt><trkpt lat="42.34009535808939" lon="14.015388531234313"><ele>183.2</ele><time>2026-05-02T07:32:31.997Z</time></trkpt><trkpt lat="42.34001874249006" lon="14.015421782002853"><ele>184.0</ele><time>2026-05-02T07:32:32.997Z</time></trkpt><trkpt lat="42.33995337322397" lon="14.015473825035178"><ele>184.0</ele><time>2026-05-02T07:32:33.997Z</time></trkpt><trkpt lat="42.33984956868519" lon="14.015563437035514"><ele>184.0</ele><time>2026-05-02T07:32:35.997Z</time></trkpt><trkpt lat="42.33975415187683" lon="14.015625038956792"><ele>184.0</ele><time>2026-05-02T07:32:37.997Z</time></trkpt><trkpt lat="42.3396294702771" lon="14.015640994288757"><ele>184.0</ele><time>2026-05-02T07:32:39.997Z</time></trkpt><trkpt lat="42.33956927522674" lon="14.015612746556993"><ele>184.0</ele><time>2026-05-02T07:32:40.997Z</time></trkpt><trkpt lat="42.3395095398856" lon="14.015551039657764"><ele>184.6</ele><time>2026-05-02T07:32:41.997Z</time></trkpt><trkpt lat="42.339440472631274" lon="14.015506204194457"><ele>185.2</ele><time>2026-05-02T07:32:42.997Z</time></trkpt><trkpt lat="42.339353125121434" lon="14.01544163269418"><ele>185.79999999999998</ele><time>2026-05-02T07:32:44.996Z</time></trkpt><trkpt lat="42.33926610342163" lon="14.015272710690784"><ele>186.39999999999998</ele><time>2026-05-02T07:32:46.996Z</time></trkpt><trkpt lat="42.3392207926493" lon="14.015124809217552"><ele>187.0</ele><time>2026-05-02T07:32:47.996Z</time></trkpt><trkpt lat="42.339165787325165" lon="14.014977169919144"><ele>187.0</ele><time>2026-05-02T07:32:48.996Z</time></trkpt><trkpt lat="42.33910490820852" lon="14.014858250816097"><ele>187.0</ele><time>2026-05-02T07:32:49.996Z</time></trkpt><trkpt lat="42.33906507467235" lon="14.014756024877627"><ele>187.0</ele><time>2026-05-02T07:32:50.996Z</time></trkpt><trkpt lat="42.33902739063106" lon="14.014628257584892"><ele>187.0</ele><time>2026-05-02T07:32:51.996Z</time></trkpt><trkpt lat="42.33898009209092" lon="14.014528035781623"><ele>187.0</ele><time>2026-05-02T07:32:52.996Z</time></trkpt><trkpt lat="42.33893777960728" lon="14.014410187286485"><ele>186.39999999999998</ele><time>2026-05-02T07:32:53.996Z</time></trkpt><trkpt lat="42.338881671823124" lon="14.014294937929666"><ele>185.79999999999998</ele><time>2026-05-02T07:32:54.996Z</time></trkpt><trkpt lat="42.33882966903988" lon="14.014175034168444"><ele>185.2</ele><time>2026-05-02T07:32:55.996Z</time></trkpt><trkpt lat="42.33877669365984" lon="14.014048819651801"><ele>184.6</ele><time>2026-05-02T07:32:56.996Z</time></trkpt><trkpt lat="42.33872470650707" lon="14.01393379052316"><ele>184.0</ele><time>2026-05-02T07:32:57.996Z</time></trkpt><trkpt lat="42.3386794558311" lon="14.013851272779377"><ele>184.0</ele><time>2026-05-02T07:32:58.996Z</time></trkpt><trkpt lat="42.33863460710416" lon="14.01372521510118"><ele>184.0</ele><time>2026-05-02T07:32:59.996Z</time></trkpt><trkpt lat="42.33859747684645" lon="14.013601495120493"><ele>184.0</ele><time>2026-05-02T07:33:00.996Z</time></trkpt><trkpt lat="42.33857494077404" lon="14.013459376263103"><ele>184.0</ele><time>2026-05-02T07:33:01.996Z</time></trkpt><trkpt lat="42.33852573334382" lon="14.013313689965035"><ele>184.0</ele><time>2026-05-02T07:33:02.996Z</time></trkpt><trkpt lat="42.338484648256525" lon="14.013194029170693"><ele>185.16666666666669</ele><time>2026-05-02T07:33:03.996Z</time></trkpt><trkpt lat="42.33843946461318" lon="14.013062431291653"><ele>186.33333333333334</ele><time>2026-05-02T07:33:04.996Z</time></trkpt><trkpt lat="42.33839488044204" lon="14.012932579132833"><ele>187.5</ele><time>2026-05-02T07:33:05.996Z</time></trkpt><trkpt lat="42.33836401241545" lon="14.012829798099085"><ele>188.66666666666666</ele><time>2026-05-02T07:33:06.996Z</time></trkpt><trkpt lat="42.33834198399744" lon="14.012747250852438"><ele>189.83333333333331</ele><time>2026-05-02T07:33:07.996Z</time></trkpt><trkpt lat="42.338372375928536" lon="14.012657376519567"><ele>191.0</ele><time>2026-05-02T07:33:09.996Z</time></trkpt><trkpt lat="42.33854208924768" lon="14.01263913432288"><ele>191.0</ele><time>2026-05-02T07:33:13Z</time></trkpt><trkpt lat="42.33861831311333" lon="14.012586466694104"><ele>191.0</ele><time>2026-05-02T07:33:14Z</time></trkpt><trkpt lat="42.33870571198974" lon="14.012533115346633"><ele>191.0</ele><time>2026-05-02T07:33:15Z</time></trkpt><trkpt lat="42.33877559312792" lon="14.012490277028823"><ele>191.0</ele><time>2026-05-02T07:33:16Z</time></trkpt><trkpt lat="42.33886565336954" lon="14.012406064982368"><ele>191.0</ele><time>2026-05-02T07:33:18Z</time></trkpt><trkpt lat="42.33882565582698" lon="14.01233471574045"><ele>191.0</ele><time>2026-05-02T07:33:21Z</time></trkpt><trkpt lat="42.33875436493546" lon="14.012316772020881"><ele>192.75</ele><time>2026-05-02T07:33:22Z</time></trkpt><trkpt lat="42.338657828891726" lon="14.012274796891507"><ele>194.5</ele><time>2026-05-02T07:33:23Z</time></trkpt><trkpt lat="42.33852572788769" lon="14.01221095553872"><ele>196.25</ele><time>2026-05-02T07:33:24Z</time></trkpt><trkpt lat="42.33838223195112" lon="14.01213881478443"><ele>198.0</ele><time>2026-05-02T07:33:25Z</time></trkpt><trkpt lat="42.338237940803324" lon="14.012077510723378"><ele>198.0</ele><time>2026-05-02T07:33:26Z</time></trkpt><trkpt lat="42.338106584323135" lon="14.012018754493235"><ele>198.0</ele><time>2026-05-02T07:33:27Z</time></trkpt><trkpt lat="42.33798156893962" lon="14.01196890416974"><ele>198.0</ele><time>2026-05-02T07:33:28Z</time></trkpt><trkpt lat="42.337865767322704" lon="14.011913466295313"><ele>198.0</ele><time>2026-05-02T07:33:29Z</time></trkpt><trkpt lat="42.33774405462931" lon="14.011830430178833"><ele>197.25</ele><time>2026-05-02T07:33:30Z</time></trkpt><trkpt lat="42.337628058389" lon="14.011731312215291"><ele>196.5</ele><time>2026-05-02T07:33:31Z</time></trkpt><trkpt lat="42.337518592749326" lon="14.011627310957058"><ele>195.75</ele><time>2026-05-02T07:33:32Z</time></trkpt><trkpt lat="42.33742094589527" lon="14.011517718364189"><ele>195.0</ele><time>2026-05-02T07:33:33Z</time></trkpt><trkpt lat="42.33733359235354" lon="14.011382977086523"><ele>195.0</ele><time>2026-05-02T07:33:34Z</time></trkpt><trkpt lat="42.33725433800167" lon="14.011238088961314"><ele>195.0</ele><time>2026-05-02T07:33:35Z</time></trkpt><trkpt lat="42.337190264386805" lon="14.011114050846022"><ele>195.0</ele><time>2026-05-02T07:33:36Z</time></trkpt><trkpt lat="42.33714058857501" lon="14.01101209716747"><ele>195.0</ele><time>2026-05-02T07:33:37Z</time></trkpt><trkpt lat="42.33708595246588" lon="14.010942148218552"><ele>195.0</ele><time>2026-05-02T07:33:38Z</time></trkpt><trkpt lat="42.337013607279296" lon="14.010912092976747"><ele>192.2</ele><time>2026-05-02T07:33:39Z</time></trkpt><trkpt lat="42.33693162398047" lon="14.010903694436006"><ele>189.4</ele><time>2026-05-02T07:33:40Z</time></trkpt><trkpt lat="42.336830444732" lon="14.010917827979284"><ele>186.60000000000002</ele><time>2026-05-02T07:33:41Z</time></trkpt><trkpt lat="42.33672086600208" lon="14.01097382410445"><ele>183.8</ele><time>2026-05-02T07:33:42Z</time></trkpt><trkpt lat="42.33660183270186" lon="14.01104548269399"><ele>181.0</ele><time>2026-05-02T07:33:43Z</time></trkpt><trkpt lat="42.3364932724596" lon="14.011118550913414"><ele>181.0</ele><time>2026-05-02T07:33:44Z</time></trkpt><trkpt lat="42.336417203111516" lon="14.01122148503101"><ele>181.0</ele><time>2026-05-02T07:33:45Z</time></trkpt><trkpt lat="42.33634552147867" lon="14.011327591393954"><ele>181.0</ele><time>2026-05-02T07:33:46Z</time></trkpt><trkpt lat="42.3362853294336" lon="14.011460265642999"><ele>181.0</ele><time>2026-05-02T07:33:47Z</time></trkpt><trkpt lat="42.33621256701026" lon="14.01161283241689"><ele>184.25</ele><time>2026-05-02T07:33:48Z</time></trkpt><trkpt lat="42.3361474788985" lon="14.011787052136786"><ele>187.5</ele><time>2026-05-02T07:33:49Z</time></trkpt><trkpt lat="42.33608656779089" lon="14.011956702598681"><ele>190.75</ele><time>2026-05-02T07:33:50Z</time></trkpt><trkpt lat="42.33603698408809" lon="14.01211589019687"><ele>194.0</ele><time>2026-05-02T07:33:51Z</time></trkpt><trkpt lat="42.336017203265264" lon="14.012276521335242"><ele>194.0</ele><time>2026-05-02T07:33:52Z</time></trkpt><trkpt lat="42.336009155189146" lon="14.012450517742161"><ele>194.0</ele><time>2026-05-02T07:33:53Z</time></trkpt><trkpt lat="42.33601398248876" lon="14.01264969412547"><ele>194.0</ele><time>2026-05-02T07:33:54Z</time></trkpt><trkpt lat="42.33602155556079" lon="14.012856571061105"><ele>194.0</ele><time>2026-05-02T07:33:55Z</time></trkpt><trkpt lat="42.336031476505696" lon="14.013065620635752"><ele>195.66666666666669</ele><time>2026-05-02T07:33:56Z</time></trkpt><trkpt lat="42.336021936007825" lon="14.01327401168154"><ele>197.33333333333331</ele><time>2026-05-02T07:33:57Z</time></trkpt><trkpt lat="42.33602819227676" lon="14.013494692154868"><ele>199.0</ele><time>2026-05-02T07:33:58Z</time></trkpt><trkpt lat="42.33603488593814" lon="14.013730800761188"><ele>200.33333333333331</ele><time>2026-05-02T07:33:59Z</time></trkpt><trkpt lat="42.33604174427016" lon="14.013978491701508"><ele>201.66666666666669</ele><time>2026-05-02T07:34:00Z</time></trkpt><trkpt lat="42.33605857017817" lon="14.014222131698942"><ele>203.0</ele><time>2026-05-02T07:34:00.999Z</time></trkpt><trkpt lat="42.336044247468124" lon="14.014430803788615"><ele>203.2</ele><time>2026-05-02T07:34:01.999Z</time></trkpt><trkpt lat="42.33605122572587" lon="14.014592014712997"><ele>203.4</ele><time>2026-05-02T07:34:02.999Z</time></trkpt><trkpt lat="42.336083443588066" lon="14.01472217701036"><ele>203.6</ele><time>2026-05-02T07:34:03.999Z</time></trkpt><trkpt lat="42.33611527063382" lon="14.014850999311463"><ele>203.79999999999998</ele><time>2026-05-02T07:34:04.999Z</time></trkpt><trkpt lat="42.33617728968145" lon="14.014968706449539"><ele>204.0</ele><time>2026-05-02T07:34:05.999Z</time></trkpt><trkpt lat="42.336169710606725" lon="14.0150548744606"><ele>204.0</ele><time>2026-05-02T07:34:06.999Z</time></trkpt><trkpt lat="42.33613483871043" lon="14.015131097988775"><ele>204.0</ele><time>2026-05-02T07:34:08.999Z</time></trkpt><trkpt lat="42.336001905360234" lon="14.015117012380959"><ele>204.0</ele><time>2026-05-02T07:34:10.999Z</time></trkpt><trkpt lat="42.335919815916725" lon="14.015035304301122"><ele>204.0</ele><time>2026-05-02T07:34:11.999Z</time></trkpt><trkpt lat="42.335829631601456" lon="14.01494810746268"><ele>204.0</ele><time>2026-05-02T07:34:12.999Z</time></trkpt><trkpt lat="42.33574698254028" lon="14.014899015955805"><ele>204.0</ele><time>2026-05-02T07:34:13.999Z</time></trkpt><trkpt lat="42.3357010017548" lon="14.01474288199376"><ele>204.0</ele><time>2026-05-02T07:34:14.999Z</time></trkpt><trkpt lat="42.33566121633208" lon="14.014636099679885"><ele>204.0</ele><time>2026-05-02T07:34:15.999Z</time></trkpt><trkpt lat="42.335554030201834" lon="14.014533788149606"><ele>204.0</ele><time>2026-05-02T07:34:17.999Z</time></trkpt><trkpt lat="42.33548152940642" lon="14.014526399388608"><ele>204.0</ele><time>2026-05-02T07:34:18.999Z</time></trkpt><trkpt lat="42.33536122855788" lon="14.014570041908327"><ele>205.0</ele><time>2026-05-02T07:34:19.999Z</time></trkpt><trkpt lat="42.33519531025666" lon="14.014570400275561"><ele>206.0</ele><time>2026-05-02T07:34:20.999Z</time></trkpt><trkpt lat="42.3349995169676" lon="14.014545685102458"><ele>207.0</ele><time>2026-05-02T07:34:21.999Z</time></trkpt><trkpt lat="42.33476918656259" lon="14.01450277636812"><ele>204.66666666666669</ele><time>2026-05-02T07:34:22.999Z</time></trkpt><trkpt lat="42.33454248094804" lon="14.014459618076636"><ele>202.33333333333334</ele><time>2026-05-02T07:34:23.999Z</time></trkpt><trkpt lat="42.33434154050546" lon="14.014431837098755"><ele>200.0</ele><time>2026-05-02T07:34:24.999Z</time></trkpt><trkpt lat="42.33417043313934" lon="14.014428058508106"><ele>200.0</ele><time>2026-05-02T07:34:25.999Z</time></trkpt><trkpt lat="42.334042041337526" lon="14.014408852556668"><ele>200.0</ele><time>2026-05-02T07:34:26.999Z</time></trkpt><trkpt lat="42.33391996603617" lon="14.014390268108963"><ele>200.0</ele><time>2026-05-02T07:34:27.999Z</time></trkpt><trkpt lat="42.33380534867553" lon="14.014370615641447"><ele>200.0</ele><time>2026-05-02T07:34:28.999Z</time></trkpt><trkpt lat="42.33369501219864" lon="14.014354639810634"><ele>199.2</ele><time>2026-05-02T07:34:29.999Z</time></trkpt><trkpt lat="42.33360071060343" lon="14.014342123602852"><ele>198.4</ele><time>2026-05-02T07:34:30.999Z</time></trkpt><trkpt lat="42.33349848303891" lon="14.014290720104896"><ele>197.60000000000002</ele><time>2026-05-02T07:34:31.999Z</time></trkpt><trkpt lat="42.33338898965969" lon="14.0142631537076"><ele>196.8</ele><time>2026-05-02T07:34:32.999Z</time></trkpt><trkpt lat="42.33326124783758" lon="14.014255308672233"><ele>196.0</ele><time>2026-05-02T07:34:33.999Z</time></trkpt><trkpt lat="42.333148266685605" lon="14.014236678326062"><ele>195.4</ele><time>2026-05-02T07:34:34.999Z</time></trkpt><trkpt lat="42.33303970298154" lon="14.01420443837442"><ele>194.8</ele><time>2026-05-02T07:34:35.999Z</time></trkpt><trkpt lat="42.33294109572712" lon="14.014196607225841"><ele>194.20000000000002</ele><time>2026-05-02T07:34:36.999Z</time></trkpt><trkpt lat="42.332848948463386" lon="14.014166732306036"><ele>193.60000000000002</ele><time>2026-05-02T07:34:37.999Z</time></trkpt><trkpt lat="42.33274928167464" lon="14.014164666341138"><ele>193.0</ele><time>2026-05-02T07:34:38.999Z</time></trkpt><trkpt lat="42.33268364800814" lon="14.014148826481241"><ele>191.75</ele><time>2026-05-02T07:34:39.999Z</time></trkpt><trkpt lat="42.332584978293674" lon="14.014153909545477"><ele>190.5</ele><time>2026-05-02T07:34:41.999Z</time></trkpt><trkpt lat="42.332441275243994" lon="14.014122773230834"><ele>189.25</ele><time>2026-05-02T07:34:57.999Z</time></trkpt><trkpt lat="42.33237108782676" lon="14.014103386218963"><ele>188.0</ele><time>2026-05-02T07:35:10.999Z</time></trkpt><trkpt lat="42.33235451336822" lon="14.013820152648966"><ele>188.0</ele><time>2026-05-02T07:35:11.999Z</time></trkpt><trkpt lat="42.33234797071893" lon="14.01371896878695"><ele>188.0</ele><time>2026-05-02T07:35:13.999Z</time></trkpt><trkpt lat="42.33229312008394" lon="14.013656934103787"><ele>188.0</ele><time>2026-05-02T07:35:18.999Z</time></trkpt><trkpt lat="42.33223521808674" lon="14.013612441216402"><ele>188.0</ele><time>2026-05-02T07:35:54.999Z</time></trkpt><trkpt lat="42.332183408021926" lon="14.013516014148403"><ele>188.0</ele><time>2026-05-02T07:35:59.999Z</time></trkpt><trkpt lat="42.33212157737809" lon="14.013480733557113"><ele>188.0</ele><time>2026-05-02T07:38:32.998Z</time></trkpt><trkpt lat="42.3320595315228" lon="14.013371746301962"><ele>187.0</ele><time>2026-05-02T07:38:36.998Z</time></trkpt><trkpt lat="42.33201145966654" lon="14.01331405684408"><ele>186.0</ele><time>2026-05-02T07:38:37.998Z</time></trkpt><trkpt lat="42.331962564330304" lon="14.013241699807816"><ele>185.0</ele><time>2026-05-02T07:38:38.998Z</time></trkpt><trkpt lat="42.33190778236981" lon="14.013170694502033"><ele>184.0</ele><time>2026-05-02T07:38:39.998Z</time></trkpt><trkpt lat="42.33185530525602" lon="14.01308743647128"><ele>183.0</ele><time>2026-05-02T07:38:40.998Z</time></trkpt><trkpt lat="42.33179983255452" lon="14.01300278567967"><ele>182.0</ele><time>2026-05-02T07:38:41.998Z</time></trkpt><trkpt lat="42.3317386430887" lon="14.012915657386793"><ele>182.0</ele><time>2026-05-02T07:38:42.998Z</time></trkpt><trkpt lat="42.33166523065119" lon="14.012834690595406"><ele>182.0</ele><time>2026-05-02T07:38:43.998Z</time></trkpt><trkpt lat="42.3315907219538" lon="14.012766317198244"><ele>182.0</ele><time>2026-05-02T07:38:44.998Z</time></trkpt><trkpt lat="42.33151484371673" lon="14.01269980316205"><ele>182.0</ele><time>2026-05-02T07:38:45.998Z</time></trkpt><trkpt lat="42.33143434541686" lon="14.012635817844906"><ele>182.0</ele><time>2026-05-02T07:38:46.998Z</time></trkpt><trkpt lat="42.33135681916089" lon="14.012569402238272"><ele>180.83333333333331</ele><time>2026-05-02T07:38:47.998Z</time></trkpt><trkpt lat="42.33127967730356" lon="14.012507869842915"><ele>179.66666666666666</ele><time>2026-05-02T07:38:48.998Z</time></trkpt><trkpt lat="42.33120471437349" lon="14.012446210849493"><ele>178.5</ele><time>2026-05-02T07:38:49.998Z</time></trkpt><trkpt lat="42.33112994174911" lon="14.012383762889124"><ele>177.33333333333334</ele><time>2026-05-02T07:38:50.998Z</time></trkpt><trkpt lat="42.331058768234584" lon="14.012319024162286"><ele>176.16666666666669</ele><time>2026-05-02T07:38:51.998Z</time></trkpt><trkpt lat="42.330992676741005" lon="14.012246079262276"><ele>175.0</ele><time>2026-05-02T07:38:52.998Z</time></trkpt><trkpt lat="42.330927319829385" lon="14.012172636669254"><ele>175.0</ele><time>2026-05-02T07:38:53.998Z</time></trkpt><trkpt lat="42.33086201137178" lon="14.01209766378853"><ele>175.0</ele><time>2026-05-02T07:38:54.998Z</time></trkpt><trkpt lat="42.33079940450144" lon="14.012022309658777"><ele>175.0</ele><time>2026-05-02T07:38:55.998Z</time></trkpt><trkpt lat="42.330739443100676" lon="14.01194692908201"><ele>175.0</ele><time>2026-05-02T07:38:56.998Z</time></trkpt><trkpt lat="42.330677006287786" lon="14.011876109214805"><ele>175.0</ele><time>2026-05-02T07:38:57.998Z</time></trkpt><trkpt lat="42.330610741744664" lon="14.011808394963266"><ele>175.0</ele><time>2026-05-02T07:38:58.998Z</time></trkpt><trkpt lat="42.33054157718315" lon="14.011746738176937"><ele>173.33333333333334</ele><time>2026-05-02T07:38:59.998Z</time></trkpt><trkpt lat="42.33047905482287" lon="14.011673369581693"><ele>171.66666666666669</ele><time>2026-05-02T07:39:00.998Z</time></trkpt><trkpt lat="42.330415614293024" lon="14.011608715137774"><ele>170.0</ele><time>2026-05-02T07:39:01.998Z</time></trkpt><trkpt lat="42.330350167832535" lon="14.011535363744136"><ele>168.33333333333334</ele><time>2026-05-02T07:39:02.998Z</time></trkpt><trkpt lat="42.33028451112995" lon="14.011452614647805"><ele>166.66666666666666</ele><time>2026-05-02T07:39:03.998Z</time></trkpt><trkpt lat="42.33022191348433" lon="14.011373696407574"><ele>165.0</ele><time>2026-05-02T07:39:04.998Z</time></trkpt><trkpt lat="42.33016544541216" lon="14.011297985555752"><ele>164.83333333333334</ele><time>2026-05-02T07:39:05.998Z</time></trkpt><trkpt lat="42.330110429499726" lon="14.01122545975159"><ele>164.66666666666666</ele><time>2026-05-02T07:39:06.998Z</time></trkpt><trkpt lat="42.330058813563845" lon="14.011149609723345"><ele>164.5</ele><time>2026-05-02T07:39:07.998Z</time></trkpt><trkpt lat="42.330009455845875" lon="14.011066970058"><ele>164.33333333333331</ele><time>2026-05-02T07:39:08.998Z</time></trkpt><trkpt lat="42.329960469876596" lon="14.010976914901958"><ele>164.16666666666666</ele><time>2026-05-02T07:39:09.998Z</time></trkpt><trkpt lat="42.32991197114767" lon="14.010887729989639"><ele>164.0</ele><time>2026-05-02T07:39:10.998Z</time></trkpt><trkpt lat="42.32986721787315" lon="14.010800098343228"><ele>163.33333333333331</ele><time>2026-05-02T07:39:11.998Z</time></trkpt><trkpt lat="42.329819018847914" lon="14.010727518306886"><ele>162.66666666666666</ele><time>2026-05-02T07:39:12.998Z</time></trkpt><trkpt lat="42.329759575198395" lon="14.010677764316558"><ele>162.0</ele><time>2026-05-02T07:39:13.998Z</time></trkpt><trkpt lat="42.3296950062293" lon="14.010634194579875"><ele>161.33333333333334</ele><time>2026-05-02T07:39:14.998Z</time></trkpt><trkpt lat="42.32962012773658" lon="14.010587037354625"><ele>160.66666666666669</ele><time>2026-05-02T07:39:15.998Z</time></trkpt><trkpt lat="42.32954481110876" lon="14.01053634418566"><ele>160.0</ele><time>2026-05-02T07:39:16.998Z</time></trkpt><trkpt lat="42.32947901222368" lon="14.01048081592769"><ele>159.14285714285714</ele><time>2026-05-02T07:39:17.998Z</time></trkpt><trkpt lat="42.329416732149554" lon="14.01043094208754"><ele>158.28571428571428</ele><time>2026-05-02T07:39:18.998Z</time></trkpt><trkpt lat="42.32935762845001" lon="14.010384951640471"><ele>157.42857142857144</ele><time>2026-05-02T07:39:19.998Z</time></trkpt><trkpt lat="42.32929846250173" lon="14.010339353417086"><ele>156.57142857142856</ele><time>2026-05-02T07:39:20.998Z</time></trkpt><trkpt lat="42.32923852789782" lon="14.010299045987928"><ele>155.71428571428572</ele><time>2026-05-02T07:39:21.998Z</time></trkpt><trkpt lat="42.32917883687543" lon="14.010256608799086"><ele>154.85714285714286</ele><time>2026-05-02T07:39:22.998Z</time></trkpt><trkpt lat="42.32911771209765" lon="14.01021825242567"><ele>154.0</ele><time>2026-05-02T07:39:23.998Z</time></trkpt><trkpt lat="42.32905682808133" lon="14.010176751535745"><ele>154.0</ele><time>2026-05-02T07:39:24.998Z</time></trkpt><trkpt lat="42.32899404119041" lon="14.010127429174634"><ele>154.0</ele><time>2026-05-02T07:39:25.998Z</time></trkpt><trkpt lat="42.32892842089614" lon="14.010078140872283"><ele>154.0</ele><time>2026-05-02T07:39:26.998Z</time></trkpt><trkpt lat="42.328858174162555" lon="14.01002131744833"><ele>154.0</ele><time>2026-05-02T07:39:27.998Z</time></trkpt><trkpt lat="42.328782506296186" lon="14.00996040990399"><ele>154.0</ele><time>2026-05-02T07:39:28.998Z</time></trkpt><trkpt lat="42.32871351953546" lon="14.009905322439266"><ele>154.0</ele><time>2026-05-02T07:39:29.998Z</time></trkpt><trkpt lat="42.32864978220902" lon="14.009852469867546"><ele>153.14285714285714</ele><time>2026-05-02T07:39:30.998Z</time></trkpt><trkpt lat="42.32859082366048" lon="14.009795548674603"><ele>152.28571428571428</ele><time>2026-05-02T07:39:31.997Z</time></trkpt><trkpt lat="42.32853349471655" lon="14.009744617397757"><ele>151.42857142857144</ele><time>2026-05-02T07:39:32.997Z</time></trkpt><trkpt lat="42.32847300784666" lon="14.00969924326983"><ele>150.57142857142856</ele><time>2026-05-02T07:39:33.997Z</time></trkpt><trkpt lat="42.32841153123835" lon="14.009663783840395"><ele>149.71428571428572</ele><time>2026-05-02T07:39:34.997Z</time></trkpt><trkpt lat="42.32835058470353" lon="14.009637542619359"><ele>148.85714285714286</ele><time>2026-05-02T07:39:35.997Z</time></trkpt><trkpt lat="42.32828656854764" lon="14.009624868884213"><ele>148.0</ele><time>2026-05-02T07:39:36.997Z</time></trkpt><trkpt lat="42.32822188919395" lon="14.009619448935368"><ele>148.0</ele><time>2026-05-02T07:39:37.997Z</time></trkpt><trkpt lat="42.32815093781052" lon="14.009634792200684"><ele>148.0</ele><time>2026-05-02T07:39:38.997Z</time></trkpt><trkpt lat="42.32807269057044" lon="14.009643209345636"><ele>148.0</ele><time>2026-05-02T07:39:39.997Z</time></trkpt><trkpt lat="42.32798694274129" lon="14.009647426505433"><ele>148.0</ele><time>2026-05-02T07:39:40.997Z</time></trkpt><trkpt lat="42.32791254385995" lon="14.009656797400607"><ele>148.0</ele><time>2026-05-02T07:39:41.997Z</time></trkpt><trkpt lat="42.327846673141906" lon="14.009667939698842"><ele>148.0</ele><time>2026-05-02T07:39:42.997Z</time></trkpt><trkpt lat="42.32773980580004" lon="14.009658720279385"><ele>148.20000000000002</ele><time>2026-05-02T07:39:44.997Z</time></trkpt><trkpt lat="42.32768587258566" lon="14.00958877413627"><ele>148.4</ele><time>2026-05-02T07:39:46.997Z</time></trkpt><trkpt lat="42.32767714759998" lon="14.009454757505186"><ele>148.60000000000002</ele><time>2026-05-02T07:39:48.997Z</time></trkpt><trkpt lat="42.327652480486925" lon="14.00926728947838"><ele>148.8</ele><time>2026-05-02T07:39:50.997Z</time></trkpt><trkpt lat="42.327625621468464" lon="14.009150670562194"><ele>149.0</ele><time>2026-05-02T07:39:51.997Z</time></trkpt><trkpt lat="42.32759702677761" lon="14.00904105305206"><ele>149.0</ele><time>2026-05-02T07:39:52.997Z</time></trkpt><trkpt lat="42.327567902516414" lon="14.00895514866854"><ele>149.0</ele><time>2026-05-02T07:39:53.997Z</time></trkpt><trkpt lat="42.327538714043044" lon="14.008851984264016"><ele>149.0</ele><time>2026-05-02T07:39:54.997Z</time></trkpt><trkpt lat="42.32751422606802" lon="14.008762670793773"><ele>149.0</ele><time>2026-05-02T07:39:55.997Z</time></trkpt><trkpt lat="42.327488540941374" lon="14.008666312701536"><ele>149.0</ele><time>2026-05-02T07:39:56.997Z</time></trkpt><trkpt lat="42.32746677593814" lon="14.008573784002287"><ele>149.0</ele><time>2026-05-02T07:39:57.997Z</time></trkpt><trkpt lat="42.32744796311255" lon="14.008490840239936"><ele>149.0</ele><time>2026-05-02T07:39:58.997Z</time></trkpt><trkpt lat="42.32742642272325" lon="14.008354187997703"><ele>151.0</ele><time>2026-05-02T07:40:00.997Z</time></trkpt><trkpt lat="42.32744602101921" lon="14.008226962764576"><ele>153.0</ele><time>2026-05-02T07:40:02.997Z</time></trkpt><trkpt lat="42.32749820952837" lon="14.008099897969483"><ele>155.0</ele><time>2026-05-02T07:40:04.997Z</time></trkpt><trkpt lat="42.32757323099658" lon="14.007962022933066"><ele>157.0</ele><time>2026-05-02T07:40:06.997Z</time></trkpt><trkpt lat="42.32766702789614" lon="14.007798885137758"><ele>157.0</ele><time>2026-05-02T07:40:08.997Z</time></trkpt><trkpt lat="42.32772349053721" lon="14.007724389066228"><ele>157.0</ele><time>2026-05-02T07:40:09.997Z</time></trkpt><trkpt lat="42.32778435255968" lon="14.007654570452239"><ele>157.0</ele><time>2026-05-02T07:40:10.997Z</time></trkpt><trkpt lat="42.32784891125038" lon="14.00759977242723"><ele>157.0</ele><time>2026-05-02T07:40:11.997Z</time></trkpt><trkpt lat="42.32792049062977" lon="14.007527790732231"><ele>157.0</ele><time>2026-05-02T07:40:12.997Z</time></trkpt><trkpt lat="42.327985963720394" lon="14.007459513938398"><ele>157.0</ele><time>2026-05-02T07:40:13.997Z</time></trkpt><trkpt lat="42.32804595891086" lon="14.00737563878726"><ele>158.33333333333334</ele><time>2026-05-02T07:40:14.997Z</time></trkpt><trkpt lat="42.32810659490898" lon="14.007286631596227"><ele>159.66666666666669</ele><time>2026-05-02T07:40:15.997Z</time></trkpt><trkpt lat="42.32817831661886" lon="14.00720289963679"><ele>161.0</ele><time>2026-05-02T07:40:17.001Z</time></trkpt><trkpt lat="42.32825619463194" lon="14.007149016438248"><ele>162.33333333333334</ele><time>2026-05-02T07:40:18.001Z</time></trkpt><trkpt lat="42.32832807616609" lon="14.007108596663628"><ele>163.66666666666666</ele><time>2026-05-02T07:40:19.001Z</time></trkpt><trkpt lat="42.328395918219165" lon="14.00707939420789"><ele>165.0</ele><time>2026-05-02T07:40:20.001Z</time></trkpt><trkpt lat="42.32846433551405" lon="14.007053138173772"><ele>165.0</ele><time>2026-05-02T07:40:22.001Z</time></trkpt><trkpt lat="42.328528086699905" lon="14.007023802321175"><ele>165.0</ele><time>2026-05-02T07:40:24.001Z</time></trkpt><trkpt lat="42.32861559916232" lon="14.00696113787404"><ele>165.0</ele><time>2026-05-02T07:40:27.001Z</time></trkpt><trkpt lat="42.328705494266146" lon="14.006913398077346"><ele>165.0</ele><time>2026-05-02T07:40:30.001Z</time></trkpt><trkpt lat="42.32876958585179" lon="14.00687725518855"><ele>165.0</ele><time>2026-05-02T07:40:32.001Z</time></trkpt><trkpt lat="42.32888020978989" lon="14.006820293522585"><ele>165.4</ele><time>2026-05-02T07:40:34.001Z</time></trkpt><trkpt lat="42.32897168393277" lon="14.006778439618056"><ele>165.8</ele><time>2026-05-02T07:40:36.001Z</time></trkpt><trkpt lat="42.329042857385105" lon="14.006731658918925"><ele>166.2</ele><time>2026-05-02T07:40:38.001Z</time></trkpt><trkpt lat="42.32913524464517" lon="14.006671146298894"><ele>166.6</ele><time>2026-05-02T07:40:40.001Z</time></trkpt><trkpt lat="42.32921718069581" lon="14.006600591158985"><ele>167.0</ele><time>2026-05-02T07:40:42.001Z</time></trkpt><trkpt lat="42.32927700037626" lon="14.006521330573905"><ele>167.0</ele><time>2026-05-02T07:40:44Z</time></trkpt><trkpt lat="42.329316289716274" lon="14.00644239769198"><ele>167.0</ele><time>2026-05-02T07:40:47Z</time></trkpt><trkpt lat="42.32935331524441" lon="14.006351327848572"><ele>167.0</ele><time>2026-05-02T07:40:49Z</time></trkpt><trkpt lat="42.329419307759714" lon="14.006275604732949"><ele>167.0</ele><time>2026-05-02T07:40:51Z</time></trkpt><trkpt lat="42.329505414195346" lon="14.006245427812837"><ele>167.0</ele><time>2026-05-02T07:40:53Z</time></trkpt><trkpt lat="42.32959006408542" lon="14.006205047682139"><ele>167.0</ele><time>2026-05-02T07:40:55Z</time></trkpt><trkpt lat="42.32967626815298" lon="14.006171752642338"><ele>169.16666666666666</ele><time>2026-05-02T07:40:57Z</time></trkpt><trkpt lat="42.32974348737301" lon="14.006130383884534"><ele>171.33333333333331</ele><time>2026-05-02T07:40:59Z</time></trkpt><trkpt lat="42.32982977676228" lon="14.006083218573028"><ele>173.5</ele><time>2026-05-02T07:41:02Z</time></trkpt><trkpt lat="42.329916237930966" lon="14.00604905962397"><ele>175.66666666666666</ele><time>2026-05-02T07:41:04Z</time></trkpt><trkpt lat="42.32999690159632" lon="14.006006502620549"><ele>177.83333333333334</ele><time>2026-05-02T07:41:06Z</time></trkpt><trkpt lat="42.33006477564129" lon="14.00597656623147"><ele>180.0</ele><time>2026-05-02T07:41:08Z</time></trkpt><trkpt lat="42.330133365423954" lon="14.005932388588366"><ele>180.0</ele><time>2026-05-02T07:41:10Z</time></trkpt><trkpt lat="42.330202613746884" lon="14.005896677337526"><ele>180.0</ele><time>2026-05-02T07:41:12Z</time></trkpt><trkpt lat="42.330274598500665" lon="14.005853272885952"><ele>180.0</ele><time>2026-05-02T07:41:14Z</time></trkpt><trkpt lat="42.33033789793965" lon="14.005822447442382"><ele>180.0</ele><time>2026-05-02T07:41:16Z</time></trkpt><trkpt lat="42.330399561223224" lon="14.005765606417098"><ele>180.0</ele><time>2026-05-02T07:41:18Z</time></trkpt><trkpt lat="42.33045957744652" lon="14.005683911249113"><ele>180.0</ele><time>2026-05-02T07:41:20Z</time></trkpt><trkpt lat="42.330530543559625" lon="14.005619600430558"><ele>183.83333333333334</ele><time>2026-05-02T07:41:22Z</time></trkpt><trkpt lat="42.33059327364358" lon="14.005537982376683"><ele>187.66666666666669</ele><time>2026-05-02T07:41:24Z</time></trkpt><trkpt lat="42.33065669816173" lon="14.005461186596266"><ele>191.5</ele><time>2026-05-02T07:41:26Z</time></trkpt><trkpt lat="42.33071232766659" lon="14.005360653096233"><ele>195.33333333333334</ele><time>2026-05-02T07:41:28Z</time></trkpt><trkpt lat="42.33078305011477" lon="14.005271743931143"><ele>199.16666666666669</ele><time>2026-05-02T07:41:30Z</time></trkpt><trkpt lat="42.33084915129537" lon="14.005202715931832"><ele>203.0</ele><time>2026-05-02T07:41:32Z</time></trkpt><trkpt lat="42.33090885831277" lon="14.005108089088354"><ele>203.0</ele><time>2026-05-02T07:41:34Z</time></trkpt><trkpt lat="42.33097344055442" lon="14.005030222514849"><ele>203.0</ele><time>2026-05-02T07:41:36Z</time></trkpt><trkpt lat="42.331038804873494" lon="14.004964382760958"><ele>203.0</ele><time>2026-05-02T07:41:38Z</time></trkpt><trkpt lat="42.33109541639508" lon="14.004867256159615"><ele>203.0</ele><time>2026-05-02T07:41:40Z</time></trkpt><trkpt lat="42.33113953597232" lon="14.004741023117907"><ele>203.0</ele><time>2026-05-02T07:41:42Z</time></trkpt><trkpt lat="42.331174926190116" lon="14.004601792566593"><ele>204.16666666666669</ele><time>2026-05-02T07:41:44Z</time></trkpt><trkpt lat="42.33120145149993" lon="14.004475740449159"><ele>205.33333333333334</ele><time>2026-05-02T07:41:46Z</time></trkpt><trkpt lat="42.33121332283239" lon="14.004369734399415"><ele>206.5</ele><time>2026-05-02T07:41:48Z</time></trkpt><trkpt lat="42.331194727159435" lon="14.004249908683214"><ele>207.66666666666669</ele><time>2026-05-02T07:41:50Z</time></trkpt><trkpt lat="42.33116809805457" lon="14.004129146794039"><ele>208.83333333333334</ele><time>2026-05-02T07:41:52Z</time></trkpt><trkpt lat="42.331145064658116" lon="14.004036413380481"><ele>210.0</ele><time>2026-05-02T07:41:54Z</time></trkpt><trkpt lat="42.33109991111717" lon="14.003915308744874"><ele>210.85714285714286</ele><time>2026-05-02T07:41:57Z</time></trkpt><trkpt lat="42.331049443019495" lon="14.003858888717344"><ele>211.71428571428572</ele><time>2026-05-02T07:42:00Z</time></trkpt><trkpt lat="42.33100617073789" lon="14.003940337545776"><ele>212.57142857142856</ele><time>2026-05-02T07:42:04Z</time></trkpt><trkpt lat="42.330953801136516" lon="14.004039571699037"><ele>213.42857142857144</ele><time>2026-05-02T07:42:07Z</time></trkpt><trkpt lat="42.33088861397087" lon="14.004079526645963"><ele>214.28571428571428</ele><time>2026-05-02T07:42:10Z</time></trkpt><trkpt lat="42.33081738778577" lon="14.004116638568322"><ele>215.14285714285714</ele><time>2026-05-02T07:42:14Z</time></trkpt><trkpt lat="42.33075366832909" lon="14.00411690417056"><ele>216.0</ele><time>2026-05-02T07:42:17Z</time></trkpt><trkpt lat="42.33067859396646" lon="14.004094989865518"><ele>216.0</ele><time>2026-05-02T07:42:20Z</time></trkpt><trkpt lat="42.33060315800086" lon="14.004113666691689"><ele>216.0</ele><time>2026-05-02T07:42:23Z</time></trkpt><trkpt lat="42.33052018651767" lon="14.004110445533865"><ele>216.0</ele><time>2026-05-02T07:42:26Z</time></trkpt><trkpt lat="42.33042484618109" lon="14.004111855130155"><ele>216.0</ele><time>2026-05-02T07:42:29Z</time></trkpt><trkpt lat="42.33034154370319" lon="14.00413767476929"><ele>216.0</ele><time>2026-05-02T07:42:31.999Z</time></trkpt><trkpt lat="42.330268566056766" lon="14.004175736740395"><ele>216.0</ele><time>2026-05-02T07:42:34.999Z</time></trkpt><trkpt lat="42.33019195409803" lon="14.004230912016592"><ele>211.66666666666666</ele><time>2026-05-02T07:42:37.999Z</time></trkpt><trkpt lat="42.33011702265528" lon="14.004273619887401"><ele>207.33333333333334</ele><time>2026-05-02T07:42:40.999Z</time></trkpt><trkpt lat="42.33005412998688" lon="14.004304638973553"><ele>203.0</ele><time>2026-05-02T07:42:42.999Z</time></trkpt><trkpt lat="42.329974177067015" lon="14.004351979741287"><ele>198.66666666666669</ele><time>2026-05-02T07:42:45.999Z</time></trkpt><trkpt lat="42.329911466031035" lon="14.004388744353939"><ele>194.33333333333334</ele><time>2026-05-02T07:42:47.999Z</time></trkpt><trkpt lat="42.3298292357324" lon="14.004441644694607"><ele>190.0</ele><time>2026-05-02T07:42:50.999Z</time></trkpt><trkpt lat="42.32976524316905" lon="14.004464310987247"><ele>186.83333333333334</ele><time>2026-05-02T07:42:52.998Z</time></trkpt><trkpt lat="42.32968806959905" lon="14.004471638159663"><ele>183.66666666666669</ele><time>2026-05-02T07:42:54.998Z</time></trkpt><trkpt lat="42.32963149961213" lon="14.004509348968062"><ele>180.5</ele><time>2026-05-02T07:42:56.998Z</time></trkpt><trkpt lat="42.329559331687356" lon="14.004511206866423"><ele>177.33333333333334</ele><time>2026-05-02T07:42:59.998Z</time></trkpt><trkpt lat="42.32947912024298" lon="14.004527305188235"><ele>174.16666666666666</ele><time>2026-05-02T07:43:02.998Z</time></trkpt><trkpt lat="42.32938893207265" lon="14.004501117394033"><ele>171.0</ele><time>2026-05-02T07:43:05.998Z</time></trkpt><trkpt lat="42.329323910372445" lon="14.004491496684809"><ele>171.0</ele><time>2026-05-02T07:43:07.998Z</time></trkpt><trkpt lat="42.329242948659335" lon="14.004468041642427"><ele>171.0</ele><time>2026-05-02T07:43:10.998Z</time></trkpt><trkpt lat="42.32916891570446" lon="14.004419548911534"><ele>171.0</ele><time>2026-05-02T07:43:13.998Z</time></trkpt><trkpt lat="42.32908708575638" lon="14.004378796097447"><ele>171.0</ele><time>2026-05-02T07:43:16.998Z</time></trkpt><trkpt lat="42.32901871285596" lon="14.004335288837137"><ele>171.0</ele><time>2026-05-02T07:43:19.998Z</time></trkpt><trkpt lat="42.32895390124078" lon="14.004296387447667"><ele>171.0</ele><time>2026-05-02T07:43:22.998Z</time></trkpt><trkpt lat="42.32888254741206" lon="14.004242917922115"><ele>169.7142857142857</ele><time>2026-05-02T07:43:25.998Z</time></trkpt><trkpt lat="42.32882462023859" lon="14.00419583685316"><ele>168.42857142857142</ele><time>2026-05-02T07:43:27.998Z</time></trkpt><trkpt lat="42.32876208059317" lon="14.004168099340745"><ele>167.14285714285714</ele><time>2026-05-02T07:43:29.998Z</time></trkpt><trkpt lat="42.3286878740129" lon="14.004116613445936"><ele>165.85714285714283</ele><time>2026-05-02T07:43:32.998Z</time></trkpt><trkpt lat="42.32862481043243" lon="14.004093224769953"><ele>164.57142857142856</ele><time>2026-05-02T07:43:38.998Z</time></trkpt><trkpt lat="42.32858534988942" lon="14.004020856098872"><ele>163.28571428571428</ele><time>2026-05-02T07:44:09.998Z</time></trkpt><trkpt lat="42.32853100045711" lon="14.00393674472728"><ele>162.0</ele><time>2026-05-02T07:44:12.998Z</time></trkpt><trkpt lat="42.328462901052895" lon="14.0038931948403"><ele>162.0</ele><time>2026-05-02T07:44:32.998Z</time></trkpt><trkpt lat="42.328404101743885" lon="14.003845935565275"><ele>162.0</ele><time>2026-05-02T07:44:35.998Z</time></trkpt><trkpt lat="42.32836870953233" lon="14.003746113478563"><ele>162.0</ele><time>2026-05-02T07:44:38.998Z</time></trkpt><trkpt lat="42.32832762720857" lon="14.003655795494767"><ele>162.0</ele><time>2026-05-02T07:44:41.998Z</time></trkpt><trkpt lat="42.328359398413724" lon="14.003752331270194"><ele>162.0</ele><time>2026-05-02T07:44:49.998Z</time></trkpt><trkpt lat="42.32841947604456" lon="14.003858468227333"><ele>162.0</ele><time>2026-05-02T07:44:51.998Z</time></trkpt><trkpt lat="42.32845507646811" lon="14.003932342386907"><ele>162.0</ele><time>2026-05-02T07:44:53.998Z</time></trkpt><trkpt lat="42.32851909613143" lon="14.003948863964558"><ele>162.0</ele><time>2026-05-02T07:45:31.997Z</time></trkpt><trkpt lat="42.32856222608001" lon="14.004023198966305"><ele>162.0</ele><time>2026-05-02T07:48:59.999Z</time></trkpt><trkpt lat="42.328533823627886" lon="14.003889839669226"><ele>162.0</ele><time>2026-05-02T07:49:03.999Z</time></trkpt><trkpt lat="42.32850377060845" lon="14.003789418459949"><ele>162.0</ele><time>2026-05-02T07:49:05.999Z</time></trkpt><trkpt lat="42.328461991362246" lon="14.00368800643512"><ele>162.0</ele><time>2026-05-02T07:49:08.999Z</time></trkpt><trkpt lat="42.32841223229986" lon="14.003597957199279"><ele>162.0</ele><time>2026-05-02T07:49:11.999Z</time></trkpt><trkpt lat="42.32835961914495" lon="14.003497645209281"><ele>162.0</ele><time>2026-05-02T07:49:14.999Z</time></trkpt><trkpt lat="42.32832207924657" lon="14.003423197833062"><ele>162.0</ele><time>2026-05-02T07:49:16.999Z</time></trkpt><trkpt lat="42.32826579800812" lon="14.003319478883169"><ele>162.0</ele><time>2026-05-02T07:49:18.999Z</time></trkpt><trkpt lat="42.3281944946142" lon="14.003220636326102"><ele>162.0</ele><time>2026-05-02T07:49:20.999Z</time></trkpt><trkpt lat="42.3281463003504" lon="14.003161979149375"><ele>162.0</ele><time>2026-05-02T07:49:22.999Z</time></trkpt><trkpt lat="42.328079663975856" lon="14.003086228889789"><ele>161.0</ele><time>2026-05-02T07:51:08.998Z</time></trkpt><trkpt lat="42.328026350004016" lon="14.003008162318643"><ele>160.0</ele><time>2026-05-02T07:51:10.998Z</time></trkpt><trkpt lat="42.327959056927554" lon="14.00290708678902"><ele>159.0</ele><time>2026-05-02T07:51:12.998Z</time></trkpt><trkpt lat="42.32789024551538" lon="14.002826079440847"><ele>158.0</ele><time>2026-05-02T07:51:14.998Z</time></trkpt><trkpt lat="42.32782651275226" lon="14.00272269893811"><ele>157.0</ele><time>2026-05-02T07:51:16.998Z</time></trkpt><trkpt lat="42.32778776004079" lon="14.002654798629012"><ele>156.0</ele><time>2026-05-02T07:51:17.998Z</time></trkpt><trkpt lat="42.32775322374079" lon="14.002582421499714"><ele>156.0</ele><time>2026-05-02T07:51:18.998Z</time></trkpt><trkpt lat="42.327718957534515" lon="14.002508565758257"><ele>156.0</ele><time>2026-05-02T07:51:19.998Z</time></trkpt><trkpt lat="42.32768533350126" lon="14.002436078948904"><ele>156.0</ele><time>2026-05-02T07:51:20.998Z</time></trkpt><trkpt lat="42.32760585706841" lon="14.002315247369177"><ele>156.0</ele><time>2026-05-02T07:51:22.998Z</time></trkpt><trkpt lat="42.32756099547055" lon="14.002254466673353"><ele>156.0</ele><time>2026-05-02T07:51:23.998Z</time></trkpt><trkpt lat="42.327478792299424" lon="14.002137888439341"><ele>156.0</ele><time>2026-05-02T07:51:25.998Z</time></trkpt><trkpt lat="42.32742057101244" lon="14.0020127613775"><ele>157.0</ele><time>2026-05-02T07:51:27.998Z</time></trkpt><trkpt lat="42.327374667600374" lon="14.0019033699793"><ele>158.0</ele><time>2026-05-02T07:51:29.998Z</time></trkpt><trkpt lat="42.327346334676406" lon="14.001814832915276"><ele>159.0</ele><time>2026-05-02T07:51:30.998Z</time></trkpt><trkpt lat="42.327317543043264" lon="14.001716113355377"><ele>160.0</ele><time>2026-05-02T07:51:31.998Z</time></trkpt><trkpt lat="42.327296982863196" lon="14.001609113535514"><ele>161.0</ele><time>2026-05-02T07:51:32.998Z</time></trkpt><trkpt lat="42.32729345286168" lon="14.00150901783743"><ele>162.0</ele><time>2026-05-02T07:51:33.998Z</time></trkpt><trkpt lat="42.32729437386804" lon="14.001386242921951"><ele>162.5</ele><time>2026-05-02T07:51:34.998Z</time></trkpt><trkpt lat="42.32730029140611" lon="14.001261927449518"><ele>163.0</ele><time>2026-05-02T07:51:35.998Z</time></trkpt><trkpt lat="42.32729985454063" lon="14.00113839540429"><ele>163.5</ele><time>2026-05-02T07:51:36.998Z</time></trkpt><trkpt lat="42.32729616034866" lon="14.001043915117473"><ele>164.0</ele><time>2026-05-02T07:51:37.998Z</time></trkpt><trkpt lat="42.32728448313175" lon="14.000912381470673"><ele>164.5</ele><time>2026-05-02T07:51:40.998Z</time></trkpt><trkpt lat="42.327272379655" lon="14.000781437116009"><ele>165.0</ele><time>2026-05-02T07:51:42.998Z</time></trkpt><trkpt lat="42.32721041965583" lon="14.000736225991995"><ele>163.6</ele><time>2026-05-02T07:51:45.997Z</time></trkpt><trkpt lat="42.327125543829375" lon="14.000748076872535"><ele>162.2</ele><time>2026-05-02T07:51:48.997Z</time></trkpt><trkpt lat="42.327019059071624" lon="14.000716020448905"><ele>160.8</ele><time>2026-05-02T07:51:51.997Z</time></trkpt><trkpt lat="42.32695615075777" lon="14.000696962474287"><ele>159.4</ele><time>2026-05-02T07:51:52.997Z</time></trkpt><trkpt lat="42.326856307527514" lon="14.000682359105076"><ele>158.0</ele><time>2026-05-02T07:51:53.997Z</time></trkpt><trkpt lat="42.32675767637873" lon="14.000649094988624"><ele>158.0</ele><time>2026-05-02T07:51:54.997Z</time></trkpt><trkpt lat="42.32664220405519" lon="14.000606082883698"><ele>158.0</ele><time>2026-05-02T07:51:55.997Z</time></trkpt><trkpt lat="42.326543611841544" lon="14.000543244406984"><ele>158.0</ele><time>2026-05-02T07:51:56.997Z</time></trkpt><trkpt lat="42.326447813338625" lon="14.000474644967174"><ele>158.0</ele><time>2026-05-02T07:51:57.997Z</time></trkpt><trkpt lat="42.32636748681965" lon="14.000389396002737"><ele>158.0</ele><time>2026-05-02T07:51:58.997Z</time></trkpt><trkpt lat="42.32626623055536" lon="14.000308164750088"><ele>156.20000000000002</ele><time>2026-05-02T07:51:59.997Z</time></trkpt><trkpt lat="42.32615899005175" lon="14.00022276446731"><ele>154.4</ele><time>2026-05-02T07:52:00.997Z</time></trkpt><trkpt lat="42.32605048062553" lon="14.000141694667422"><ele>152.60000000000002</ele><time>2026-05-02T07:52:01.997Z</time></trkpt><trkpt lat="42.32595423013964" lon="14.000078848126183"><ele>150.8</ele><time>2026-05-02T07:52:02.997Z</time></trkpt><trkpt lat="42.32587925840999" lon="14.000018984884964"><ele>149.0</ele><time>2026-05-02T07:52:03.997Z</time></trkpt><trkpt lat="42.32581346231336" lon="13.999951550937622"><ele>149.0</ele><time>2026-05-02T07:52:04.997Z</time></trkpt><trkpt lat="42.325757062345716" lon="13.999876652891976"><ele>149.0</ele><time>2026-05-02T07:52:05.997Z</time></trkpt><trkpt lat="42.325705790910156" lon="13.999808448589599"><ele>149.0</ele><time>2026-05-02T07:52:06.997Z</time></trkpt><trkpt lat="42.32562563797278" lon="13.999687961730057"><ele>149.0</ele><time>2026-05-02T07:52:08.997Z</time></trkpt><trkpt lat="42.32556437863545" lon="13.99959897905538"><ele>149.0</ele><time>2026-05-02T07:52:09.997Z</time></trkpt><trkpt lat="42.32551240857375" lon="13.999528509563614"><ele>149.0</ele><time>2026-05-02T07:52:10.997Z</time></trkpt><trkpt lat="42.325440536633536" lon="13.99946962288122"><ele>148.16666666666666</ele><time>2026-05-02T07:52:11.997Z</time></trkpt><trkpt lat="42.32537090154244" lon="13.999419311102724"><ele>147.33333333333331</ele><time>2026-05-02T07:52:12.997Z</time></trkpt><trkpt lat="42.3252943878288" lon="13.999368593987882"><ele>146.5</ele><time>2026-05-02T07:52:13.997Z</time></trkpt><trkpt lat="42.325206253567075" lon="13.999294443860554"><ele>145.66666666666666</ele><time>2026-05-02T07:52:14.997Z</time></trkpt><trkpt lat="42.32512192586106" lon="13.999236644824922"><ele>144.83333333333334</ele><time>2026-05-02T07:52:15.997Z</time></trkpt><trkpt lat="42.32505272615039" lon="13.999198502011962"><ele>144.0</ele><time>2026-05-02T07:52:16.997Z</time></trkpt><trkpt lat="42.32496417504245" lon="13.999172678712254"><ele>144.0</ele><time>2026-05-02T07:52:18.997Z</time></trkpt><trkpt lat="42.32488321634042" lon="13.9992360253959"><ele>144.0</ele><time>2026-05-02T07:52:20.997Z</time></trkpt><trkpt lat="42.324825245738154" lon="13.999315629633788"><ele>144.0</ele><time>2026-05-02T07:52:21.997Z</time></trkpt><trkpt lat="42.324734005607446" lon="13.99937822193936"><ele>144.0</ele><time>2026-05-02T07:52:22.997Z</time></trkpt><trkpt lat="42.32464934892671" lon="13.999465123130495"><ele>144.0</ele><time>2026-05-02T07:52:23.997Z</time></trkpt><trkpt lat="42.324584311815094" lon="13.999557460630106"><ele>144.2</ele><time>2026-05-02T07:52:24.997Z</time></trkpt><trkpt lat="42.32451396384593" lon="13.999610680573056"><ele>144.4</ele><time>2026-05-02T07:52:25.997Z</time></trkpt><trkpt lat="42.32444780146838" lon="13.999660490500832"><ele>144.6</ele><time>2026-05-02T07:52:26.997Z</time></trkpt><trkpt lat="42.324355117683034" lon="13.999717092136969"><ele>144.8</ele><time>2026-05-02T07:52:27.997Z</time></trkpt><trkpt lat="42.32423317059677" lon="13.999800824028032"><ele>145.0</ele><time>2026-05-02T07:52:28.997Z</time></trkpt><trkpt lat="42.324093785447666" lon="13.999873359348049"><ele>145.0</ele><time>2026-05-02T07:52:29.997Z</time></trkpt><trkpt lat="42.32396446793248" lon="13.999948818754048"><ele>145.0</ele><time>2026-05-02T07:52:30.997Z</time></trkpt><trkpt lat="42.3238361126537" lon="13.999981911608973"><ele>145.0</ele><time>2026-05-02T07:52:31.997Z</time></trkpt><trkpt lat="42.323711133953296" lon="14.000054956466261"><ele>145.0</ele><time>2026-05-02T07:52:32.997Z</time></trkpt><trkpt lat="42.32360615955028" lon="14.00011876203179"><ele>145.0</ele><time>2026-05-02T07:52:33.997Z</time></trkpt><trkpt lat="42.32352036841949" lon="14.000207770458099"><ele>145.0</ele><time>2026-05-02T07:52:34.997Z</time></trkpt><trkpt lat="42.32342602793986" lon="14.000280519976709"><ele>145.0</ele><time>2026-05-02T07:52:35.997Z</time></trkpt><trkpt lat="42.32333207979387" lon="14.000315974941573"><ele>145.0</ele><time>2026-05-02T07:52:36.997Z</time></trkpt><trkpt lat="42.32326710731036" lon="14.00039041907628"><ele>145.0</ele><time>2026-05-02T07:52:37.997Z</time></trkpt><trkpt lat="42.32319877695616" lon="14.000442760530463"><ele>145.0</ele><time>2026-05-02T07:52:38.997Z</time></trkpt><trkpt lat="42.32313329530092" lon="14.000468904996"><ele>145.0</ele><time>2026-05-02T07:52:39.997Z</time></trkpt><trkpt lat="42.32304278731799" lon="14.000538535128284"><ele>145.0</ele><time>2026-05-02T07:52:41.997Z</time></trkpt><trkpt lat="42.322983726350266" lon="14.000411728658996"><ele>145.0</ele><time>2026-05-02T07:52:46.997Z</time></trkpt><trkpt lat="42.322937098813846" lon="14.000269833327762"><ele>145.0</ele><time>2026-05-02T07:52:47.997Z</time></trkpt><trkpt lat="42.322880186346154" lon="14.000096639242361"><ele>141.66666666666669</ele><time>2026-05-02T07:52:48.997Z</time></trkpt><trkpt lat="42.3228041012117" lon="13.999912058100422"><ele>138.33333333333334</ele><time>2026-05-02T07:52:49.997Z</time></trkpt><trkpt lat="42.3227414458448" lon="13.99969959842639"><ele>135.0</ele><time>2026-05-02T07:52:50.997Z</time></trkpt><trkpt lat="42.32267093885939" lon="13.99946527280232"><ele>135.0</ele><time>2026-05-02T07:52:51.997Z</time></trkpt><trkpt lat="42.322600687882385" lon="13.999221461476282"><ele>135.0</ele><time>2026-05-02T07:52:52.997Z</time></trkpt><trkpt lat="42.322523579626996" lon="13.998998967360633"><ele>135.0</ele><time>2026-05-02T07:52:53.997Z</time></trkpt><trkpt lat="42.32244463058686" lon="13.998756860682553"><ele>136.33333333333334</ele><time>2026-05-02T07:52:54.997Z</time></trkpt><trkpt lat="42.322374439417075" lon="13.998530003428877"><ele>137.66666666666669</ele><time>2026-05-02T07:52:55.997Z</time></trkpt><trkpt lat="42.32231045430951" lon="13.998317967756595"><ele>139.0</ele><time>2026-05-02T07:52:56.997Z</time></trkpt><trkpt lat="42.322238299884006" lon="13.998115752822736"><ele>137.33333333333334</ele><time>2026-05-02T07:52:57.997Z</time></trkpt><trkpt lat="42.322189399330036" lon="13.997877720054072"><ele>135.66666666666666</ele><time>2026-05-02T07:52:58.997Z</time></trkpt><trkpt lat="42.32211240324862" lon="13.997660274112828"><ele>134.0</ele><time>2026-05-02T07:52:59.997Z</time></trkpt><trkpt lat="42.32203668434654" lon="13.997431906998482"><ele>134.0</ele><time>2026-05-02T07:53:00.997Z</time></trkpt><trkpt lat="42.32196606497163" lon="13.997202836408215"><ele>134.0</ele><time>2026-05-02T07:53:01.997Z</time></trkpt><trkpt lat="42.32188386062118" lon="13.996962655511426"><ele>134.0</ele><time>2026-05-02T07:53:02.997Z</time></trkpt><trkpt lat="42.32180475763234" lon="13.996716155602916"><ele>133.66666666666666</ele><time>2026-05-02T07:53:03.997Z</time></trkpt><trkpt lat="42.32172163932406" lon="13.996475122073843"><ele>133.33333333333334</ele><time>2026-05-02T07:53:04.997Z</time></trkpt><trkpt lat="42.32164312126919" lon="13.996230828162172"><ele>133.0</ele><time>2026-05-02T07:53:05.997Z</time></trkpt><trkpt lat="42.32156549227607" lon="13.995993663397664"><ele>133.33333333333334</ele><time>2026-05-02T07:53:06.997Z</time></trkpt><trkpt lat="42.32148709275837" lon="13.99575160461569"><ele>133.66666666666666</ele><time>2026-05-02T07:53:07.997Z</time></trkpt><trkpt lat="42.32141058898642" lon="13.995487616287543"><ele>134.0</ele><time>2026-05-02T07:53:08.997Z</time></trkpt><trkpt lat="42.3213242965538" lon="13.995221760959232"><ele>133.66666666666666</ele><time>2026-05-02T07:53:09.997Z</time></trkpt><trkpt lat="42.32123977181927" lon="13.994971512321547"><ele>133.33333333333334</ele><time>2026-05-02T07:53:10.997Z</time></trkpt><trkpt lat="42.32114074362545" lon="13.994714857387985"><ele>133.0</ele><time>2026-05-02T07:53:11.997Z</time></trkpt><trkpt lat="42.32104322576997" lon="13.994472970190225"><ele>133.0</ele><time>2026-05-02T07:53:12.997Z</time></trkpt><trkpt lat="42.32095006800919" lon="13.994254425856871"><ele>133.0</ele><time>2026-05-02T07:53:13.997Z</time></trkpt><trkpt lat="42.32085896825748" lon="13.994054616507448"><ele>133.0</ele><time>2026-05-02T07:53:14.996Z</time></trkpt><trkpt lat="42.320767083488704" lon="13.993858109471674"><ele>133.25</ele><time>2026-05-02T07:53:15.996Z</time></trkpt><trkpt lat="42.32067394808293" lon="13.99368444142387"><ele>133.5</ele><time>2026-05-02T07:53:16.996Z</time></trkpt><trkpt lat="42.32059634707451" lon="13.993549609922653"><ele>133.75</ele><time>2026-05-02T07:53:17.996Z</time></trkpt><trkpt lat="42.32054047400496" lon="13.993436805179089"><ele>134.0</ele><time>2026-05-02T07:53:18.996Z</time></trkpt><trkpt lat="42.320482204149776" lon="13.993342410273756"><ele>134.83333333333331</ele><time>2026-05-02T07:53:20.996Z</time></trkpt><trkpt lat="42.32051546543779" lon="13.993425871332683"><ele>135.66666666666666</ele><time>2026-05-02T07:53:22.996Z</time></trkpt><trkpt lat="42.32050702435089" lon="13.993558989042903"><ele>136.5</ele><time>2026-05-02T07:53:23.996Z</time></trkpt><trkpt lat="42.32046008825274" lon="13.993628873224027"><ele>137.33333333333334</ele><time>2026-05-02T07:53:24.996Z</time></trkpt><trkpt lat="42.320410586377214" lon="13.993699282616712"><ele>138.16666666666669</ele><time>2026-05-02T07:53:25.996Z</time></trkpt><trkpt lat="42.32035473701995" lon="13.993780986561726"><ele>139.0</ele><time>2026-05-02T07:53:26.996Z</time></trkpt><trkpt lat="42.320265958573785" lon="13.993871663060554"><ele>139.0</ele><time>2026-05-02T07:53:27.996Z</time></trkpt><trkpt lat="42.32015973451067" lon="13.993970572339027"><ele>139.0</ele><time>2026-05-02T07:53:28.996Z</time></trkpt><trkpt lat="42.320067744014295" lon="13.994093870687726"><ele>139.0</ele><time>2026-05-02T07:53:29.996Z</time></trkpt><trkpt lat="42.3199818491947" lon="13.994224345728815"><ele>139.0</ele><time>2026-05-02T07:53:30.996Z</time></trkpt><trkpt lat="42.31991537508992" lon="13.994376479158552"><ele>138.66666666666669</ele><time>2026-05-02T07:53:31.996Z</time></trkpt><trkpt lat="42.31983486354817" lon="13.994533296275558"><ele>138.33333333333334</ele><time>2026-05-02T07:53:32.996Z</time></trkpt><trkpt lat="42.319732106252694" lon="13.994702658938024"><ele>138.0</ele><time>2026-05-02T07:53:33.996Z</time></trkpt><trkpt lat="42.31961841567017" lon="13.994865509890674"><ele>138.75</ele><time>2026-05-02T07:53:34.996Z</time></trkpt><trkpt lat="42.319529767088866" lon="13.99503181492234"><ele>139.5</ele><time>2026-05-02T07:53:35.996Z</time></trkpt><trkpt lat="42.31945083770713" lon="13.99517759304941"><ele>140.25</ele><time>2026-05-02T07:53:36.996Z</time></trkpt><trkpt lat="42.319381982286295" lon="13.995337713700597"><ele>141.0</ele><time>2026-05-02T07:53:37.995Z</time></trkpt><trkpt lat="42.31929578275833" lon="13.995530670543054"><ele>141.0</ele><time>2026-05-02T07:53:38.995Z</time></trkpt><trkpt lat="42.31919319596411" lon="13.995710373912308"><ele>141.0</ele><time>2026-05-02T07:53:39.995Z</time></trkpt><trkpt lat="42.31909518037602" lon="13.995892486763028"><ele>141.0</ele><time>2026-05-02T07:53:40.995Z</time></trkpt><trkpt lat="42.31900736605485" lon="13.99608231217432"><ele>140.75</ele><time>2026-05-02T07:53:41.995Z</time></trkpt><trkpt lat="42.318943955196126" lon="13.996270820060145"><ele>140.5</ele><time>2026-05-02T07:53:42.995Z</time></trkpt><trkpt lat="42.31886384902508" lon="13.996431137393916"><ele>140.25</ele><time>2026-05-02T07:53:43.995Z</time></trkpt><trkpt lat="42.31878662016366" lon="13.996608505921284"><ele>140.0</ele><time>2026-05-02T07:53:44.995Z</time></trkpt><trkpt lat="42.318727300068275" lon="13.996748659718248"><ele>142.0</ele><time>2026-05-02T07:53:45.995Z</time></trkpt><trkpt lat="42.31866693310604" lon="13.996897250079767"><ele>144.0</ele><time>2026-05-02T07:53:46.995Z</time></trkpt><trkpt lat="42.31863442508071" lon="13.997068343308076"><ele>146.0</ele><time>2026-05-02T07:53:47.995Z</time></trkpt><trkpt lat="42.318602190996856" lon="13.997266443464822"><ele>148.0</ele><time>2026-05-02T07:53:48.995Z</time></trkpt><trkpt lat="42.31857705175116" lon="13.997463953305305"><ele>147.75</ele><time>2026-05-02T07:53:49.995Z</time></trkpt><trkpt lat="42.318559974896814" lon="13.997657432849358"><ele>147.5</ele><time>2026-05-02T07:53:50.995Z</time></trkpt><trkpt lat="42.318544205511095" lon="13.997851648166607"><ele>147.25</ele><time>2026-05-02T07:53:51.995Z</time></trkpt><trkpt lat="42.318523436199726" lon="13.998049637412079"><ele>147.0</ele><time>2026-05-02T07:53:52.995Z</time></trkpt><trkpt lat="42.31848564943202" lon="13.998238351296354"><ele>146.5</ele><time>2026-05-02T07:53:53.995Z</time></trkpt><trkpt lat="42.31846944150335" lon="13.998439187053808"><ele>146.0</ele><time>2026-05-02T07:53:54.995Z</time></trkpt><trkpt lat="42.318450930551364" lon="13.998630589122138"><ele>145.5</ele><time>2026-05-02T07:53:55.995Z</time></trkpt><trkpt lat="42.31843746078819" lon="13.998810933318557"><ele>145.0</ele><time>2026-05-02T07:53:56.995Z</time></trkpt><trkpt lat="42.318418924227636" lon="13.99899663061174"><ele>143.5</ele><time>2026-05-02T07:53:57.995Z</time></trkpt><trkpt lat="42.31839142094917" lon="13.999183218154784"><ele>142.0</ele><time>2026-05-02T07:53:58.995Z</time></trkpt><trkpt lat="42.31840239552868" lon="13.999358133641538"><ele>140.5</ele><time>2026-05-02T07:53:59.995Z</time></trkpt><trkpt lat="42.31840986563146" lon="13.999527176211751"><ele>139.0</ele><time>2026-05-02T07:54:00.995Z</time></trkpt><trkpt lat="42.318382938216466" lon="13.99971112974448"><ele>139.0</ele><time>2026-05-02T07:54:01.995Z</time></trkpt><trkpt lat="42.31835717118737" lon="13.999885895361968"><ele>139.0</ele><time>2026-05-02T07:54:02.995Z</time></trkpt><trkpt lat="42.318340621570044" lon="14.000058231276782"><ele>139.0</ele><time>2026-05-02T07:54:03.995Z</time></trkpt><trkpt lat="42.318344637538544" lon="14.00021957569518"><ele>139.0</ele><time>2026-05-02T07:54:04.995Z</time></trkpt><trkpt lat="42.31833781641831" lon="14.000365138922923"><ele>139.0</ele><time>2026-05-02T07:54:05.995Z</time></trkpt><trkpt lat="42.31834572436637" lon="14.000529895385158"><ele>139.0</ele><time>2026-05-02T07:54:06.995Z</time></trkpt><trkpt lat="42.31832159258072" lon="14.000699797194637"><ele>139.0</ele><time>2026-05-02T07:54:07.995Z</time></trkpt><trkpt lat="42.31830178273561" lon="14.00085513335155"><ele>139.0</ele><time>2026-05-02T07:54:08.995Z</time></trkpt><trkpt lat="42.31829956455482" lon="14.001006003387273"><ele>138.2</ele><time>2026-05-02T07:54:09.995Z</time></trkpt><trkpt lat="42.31830121610577" lon="14.001140896542868"><ele>137.4</ele><time>2026-05-02T07:54:10.995Z</time></trkpt><trkpt lat="42.31826213175362" lon="14.001243795492373"><ele>136.6</ele><time>2026-05-02T07:54:11.995Z</time></trkpt><trkpt lat="42.31822975921951" lon="14.00137364709261"><ele>135.8</ele><time>2026-05-02T07:54:12.995Z</time></trkpt><trkpt lat="42.318199930688024" lon="14.00147261117827"><ele>135.0</ele><time>2026-05-02T07:54:13.995Z</time></trkpt><trkpt lat="42.31816777468278" lon="14.001581801990518"><ele>134.33333333333334</ele><time>2026-05-02T07:54:14.995Z</time></trkpt><trkpt lat="42.318164789308696" lon="14.00168342277581"><ele>133.66666666666666</ele><time>2026-05-02T07:54:15.995Z</time></trkpt><trkpt lat="42.31818725784542" lon="14.001786353914548"><ele>133.0</ele><time>2026-05-02T07:54:16.995Z</time></trkpt><trkpt lat="42.318191170396254" lon="14.001901162055985"><ele>132.33333333333331</ele><time>2026-05-02T07:54:17.995Z</time></trkpt><trkpt lat="42.31823109022521" lon="14.001980157038691"><ele>131.66666666666666</ele><time>2026-05-02T07:54:18.995Z</time></trkpt><trkpt lat="42.31825753419865" lon="14.002069185617385"><ele>131.0</ele><time>2026-05-02T07:54:19.995Z</time></trkpt><trkpt lat="42.31829166853339" lon="14.00221164369502"><ele>131.0</ele><time>2026-05-02T07:54:20.995Z</time></trkpt><trkpt lat="42.3183206454509" lon="14.002363586975939"><ele>131.0</ele><time>2026-05-02T07:54:21.995Z</time></trkpt><trkpt lat="42.318344498546125" lon="14.002514635386579"><ele>131.0</ele><time>2026-05-02T07:54:22.995Z</time></trkpt><trkpt lat="42.318360887306675" lon="14.002664792962213"><ele>131.0</ele><time>2026-05-02T07:54:23.995Z</time></trkpt><trkpt lat="42.31837645014234" lon="14.002843306076505"><ele>129.25</ele><time>2026-05-02T07:54:24.995Z</time></trkpt><trkpt lat="42.3183916534062" lon="14.003023704663812"><ele>127.5</ele><time>2026-05-02T07:54:25.995Z</time></trkpt><trkpt lat="42.31841574726689" lon="14.003204682370392"><ele>125.75</ele><time>2026-05-02T07:54:26.995Z</time></trkpt><trkpt lat="42.318413643912955" lon="14.003354399518976"><ele>124.0</ele><time>2026-05-02T07:54:28.001Z</time></trkpt><trkpt lat="42.318405289727785" lon="14.003511992663022"><ele>123.0</ele><time>2026-05-02T07:54:29.001Z</time></trkpt><trkpt lat="42.31839936776965" lon="14.003666004626465"><ele>122.0</ele><time>2026-05-02T07:54:30.001Z</time></trkpt><trkpt lat="42.318371328739175" lon="14.0038033086952"><ele>121.0</ele><time>2026-05-02T07:54:31.001Z</time></trkpt><trkpt lat="42.31831310603156" lon="14.003949087293368"><ele>120.0</ele><time>2026-05-02T07:54:32.001Z</time></trkpt><trkpt lat="42.31825642660547" lon="14.004117278420912"><ele>119.25</ele><time>2026-05-02T07:54:33Z</time></trkpt><trkpt lat="42.31821320401926" lon="14.004285729428958"><ele>118.5</ele><time>2026-05-02T07:54:34Z</time></trkpt><trkpt lat="42.318151967902914" lon="14.004416430992839"><ele>117.75</ele><time>2026-05-02T07:54:35Z</time></trkpt><trkpt lat="42.31811675214059" lon="14.004544832544811"><ele>117.0</ele><time>2026-05-02T07:54:36Z</time></trkpt><trkpt lat="42.318062466489394" lon="14.004673250073738"><ele>117.0</ele><time>2026-05-02T07:54:37Z</time></trkpt><trkpt lat="42.31800785821079" lon="14.004818616059381"><ele>117.0</ele><time>2026-05-02T07:54:38Z</time></trkpt><trkpt lat="42.31794244389853" lon="14.00498201920194"><ele>117.0</ele><time>2026-05-02T07:54:39Z</time></trkpt><trkpt lat="42.31788571047567" lon="14.005160063825793"><ele>117.0</ele><time>2026-05-02T07:54:40Z</time></trkpt><trkpt lat="42.3178281901771" lon="14.005336293754924"><ele>117.0</ele><time>2026-05-02T07:54:41Z</time></trkpt><trkpt lat="42.31778059635598" lon="14.005484610174088"><ele>117.0</ele><time>2026-05-02T07:54:42Z</time></trkpt><trkpt lat="42.317734066860524" lon="14.005614660383403"><ele>117.0</ele><time>2026-05-02T07:54:43Z</time></trkpt><trkpt lat="42.31768610926652" lon="14.00575840415709"><ele>117.0</ele><time>2026-05-02T07:54:44Z</time></trkpt><trkpt lat="42.31762055483048" lon="14.005906347314315"><ele>117.75</ele><time>2026-05-02T07:54:45Z</time></trkpt><trkpt lat="42.31756500947909" lon="14.006056573521969"><ele>118.5</ele><time>2026-05-02T07:54:46Z</time></trkpt><trkpt lat="42.31750685271651" lon="14.006190781915427"><ele>119.25</ele><time>2026-05-02T07:54:47Z</time></trkpt><trkpt lat="42.317462550542416" lon="14.006337703210678"><ele>120.0</ele><time>2026-05-02T07:54:48Z</time></trkpt><trkpt lat="42.317428743654084" lon="14.006473811706229"><ele>120.0</ele><time>2026-05-02T07:54:49Z</time></trkpt><trkpt lat="42.31740228518028" lon="14.00664050672192"><ele>120.0</ele><time>2026-05-02T07:54:50Z</time></trkpt><trkpt lat="42.31733401975787" lon="14.006789559675823"><ele>120.0</ele><time>2026-05-02T07:54:51Z</time></trkpt><trkpt lat="42.31729772481476" lon="14.006928221121738"><ele>120.0</ele><time>2026-05-02T07:54:52Z</time></trkpt><trkpt lat="42.31724146034371" lon="14.007060778929729"><ele>120.0</ele><time>2026-05-02T07:54:53Z</time></trkpt><trkpt lat="42.31719710651813" lon="14.007178699955718"><ele>120.0</ele><time>2026-05-02T07:54:54Z</time></trkpt><trkpt lat="42.317148805758634" lon="14.007280778854263"><ele>120.0</ele><time>2026-05-02T07:54:55Z</time></trkpt><trkpt lat="42.31711527282347" lon="14.007396679958287"><ele>120.0</ele><time>2026-05-02T07:54:56Z</time></trkpt><trkpt lat="42.31711157148834" lon="14.007535413274546"><ele>120.0</ele><time>2026-05-02T07:54:57Z</time></trkpt><trkpt lat="42.317080190668996" lon="14.007657149065544"><ele>120.0</ele><time>2026-05-02T07:54:58Z</time></trkpt><trkpt lat="42.31702535887021" lon="14.007763278683093"><ele>120.0</ele><time>2026-05-02T07:54:59Z</time></trkpt><trkpt lat="42.31697087979432" lon="14.007863678058252"><ele>120.0</ele><time>2026-05-02T07:55:00Z</time></trkpt><trkpt lat="42.31690590075572" lon="14.007953927359054"><ele>120.0</ele><time>2026-05-02T07:55:01Z</time></trkpt><trkpt lat="42.316817448631525" lon="14.008050702731177"><ele>120.0</ele><time>2026-05-02T07:55:02Z</time></trkpt><trkpt lat="42.31671711372349" lon="14.00815467800607"><ele>120.0</ele><time>2026-05-02T07:55:03Z</time></trkpt><trkpt lat="42.31660690191901" lon="14.00826638229751"><ele>120.0</ele><time>2026-05-02T07:55:04Z</time></trkpt><trkpt lat="42.31650727074541" lon="14.008367362792397"><ele>120.0</ele><time>2026-05-02T07:55:05Z</time></trkpt><trkpt lat="42.31641646232614" lon="14.00845940104143"><ele>120.0</ele><time>2026-05-02T07:55:06Z</time></trkpt><trkpt lat="42.31633385848922" lon="14.00854312349516"><ele>118.5</ele><time>2026-05-02T07:55:07Z</time></trkpt><trkpt lat="42.316272884039" lon="14.008645031608145"><ele>117.0</ele><time>2026-05-02T07:55:07.999Z</time></trkpt><trkpt lat="42.31621377856851" lon="14.008678955043266"><ele>115.5</ele><time>2026-05-02T07:55:08.999Z</time></trkpt><trkpt lat="42.31618179654282" lon="14.008772559197093"><ele>114.0</ele><time>2026-05-02T07:55:09.999Z</time></trkpt><trkpt lat="42.316118016620386" lon="14.00883359473577"><ele>112.5</ele><time>2026-05-02T07:55:10.999Z</time></trkpt><trkpt lat="42.316020818187745" lon="14.008890573847182"><ele>111.0</ele><time>2026-05-02T07:55:11.999Z</time></trkpt><trkpt lat="42.315903278988685" lon="14.008972259626796"><ele>111.0</ele><time>2026-05-02T07:55:12.999Z</time></trkpt><trkpt lat="42.31575795242014" lon="14.009056072401638"><ele>111.0</ele><time>2026-05-02T07:55:13.999Z</time></trkpt><trkpt lat="42.31560779070976" lon="14.009174338334386"><ele>111.0</ele><time>2026-05-02T07:55:14.999Z</time></trkpt><trkpt lat="42.31545264889213" lon="14.009308835993123"><ele>109.66666666666666</ele><time>2026-05-02T07:55:15.999Z</time></trkpt><trkpt lat="42.31528330120955" lon="14.00945000463178"><ele>108.33333333333333</ele><time>2026-05-02T07:55:16.999Z</time></trkpt><trkpt lat="42.315102323037316" lon="14.00959352941256"><ele>107.0</ele><time>2026-05-02T07:55:17.999Z</time></trkpt><trkpt lat="42.31491441413463" lon="14.009771881146394"><ele>106.0</ele><time>2026-05-02T07:55:18.999Z</time></trkpt><trkpt lat="42.31470888596895" lon="14.009917110588834"><ele>105.0</ele><time>2026-05-02T07:55:19.999Z</time></trkpt><trkpt lat="42.314493277356306" lon="14.01009635813898"><ele>104.5</ele><time>2026-05-02T07:55:20.999Z</time></trkpt><trkpt lat="42.314266976168405" lon="14.01028129332881"><ele>104.0</ele><time>2026-05-02T07:55:21.999Z</time></trkpt><trkpt lat="42.314083115014256" lon="14.010454899852276"><ele>104.0</ele><time>2026-05-02T07:55:22.999Z</time></trkpt><trkpt lat="42.313898087843555" lon="14.010579236669233"><ele>104.0</ele><time>2026-05-02T07:55:23.999Z</time></trkpt><trkpt lat="42.31374919365213" lon="14.010722258232715"><ele>104.0</ele><time>2026-05-02T07:55:24.999Z</time></trkpt><trkpt lat="42.31359916177692" lon="14.01082054508919"><ele>103.33333333333333</ele><time>2026-05-02T07:55:25.999Z</time></trkpt><trkpt lat="42.3134435473674" lon="14.010911195355579"><ele>102.66666666666666</ele><time>2026-05-02T07:55:26.999Z</time></trkpt><trkpt lat="42.31331109971461" lon="14.01098111582577"><ele>102.0</ele><time>2026-05-02T07:55:27.999Z</time></trkpt><trkpt lat="42.313170137595314" lon="14.011023765578734"><ele>102.0</ele><time>2026-05-02T07:55:28.999Z</time></trkpt><trkpt lat="42.313000254070836" lon="14.011069674982588"><ele>102.0</ele><time>2026-05-02T07:55:29.999Z</time></trkpt><trkpt lat="42.31281519194675" lon="14.011093457300577"><ele>102.0</ele><time>2026-05-02T07:55:30.999Z</time></trkpt><trkpt lat="42.31262104644815" lon="14.011109435131235"><ele>102.0</ele><time>2026-05-02T07:55:31.999Z</time></trkpt><trkpt lat="42.31241673103109" lon="14.011129085673744"><ele>102.0</ele><time>2026-05-02T07:55:32.999Z</time></trkpt><trkpt lat="42.312221505296485" lon="14.011113932370685"><ele>102.0</ele><time>2026-05-02T07:55:33.999Z</time></trkpt><trkpt lat="42.312029678884585" lon="14.011121693854053"><ele>102.33333333333334</ele><time>2026-05-02T07:55:34.999Z</time></trkpt><trkpt lat="42.31183849339449" lon="14.011104210005058"><ele>102.66666666666667</ele><time>2026-05-02T07:55:35.999Z</time></trkpt><trkpt lat="42.311625955551825" lon="14.01106613776522"><ele>103.0</ele><time>2026-05-02T07:55:36.999Z</time></trkpt><trkpt lat="42.311412379764356" lon="14.011018352285214"><ele>102.0</ele><time>2026-05-02T07:55:37.999Z</time></trkpt><trkpt lat="42.31116282171554" lon="14.01096636713534"><ele>101.0</ele><time>2026-05-02T07:55:38.999Z</time></trkpt><trkpt lat="42.31091819528066" lon="14.010922043647492"><ele>101.0</ele><time>2026-05-02T07:55:39.999Z</time></trkpt><trkpt lat="42.310646171401984" lon="14.01085948173309"><ele>101.0</ele><time>2026-05-02T07:55:40.999Z</time></trkpt><trkpt lat="42.310406971518276" lon="14.010790155634822"><ele>101.5</ele><time>2026-05-02T07:55:41.999Z</time></trkpt><trkpt lat="42.31016658786527" lon="14.010754217151067"><ele>102.0</ele><time>2026-05-02T07:55:42.999Z</time></trkpt><trkpt lat="42.30993536290913" lon="14.010712881567278"><ele>102.5</ele><time>2026-05-02T07:55:43.999Z</time></trkpt><trkpt lat="42.30969778872123" lon="14.010656772459605"><ele>103.0</ele><time>2026-05-02T07:55:44.999Z</time></trkpt><trkpt lat="42.30946302926716" lon="14.010633877655827"><ele>103.0</ele><time>2026-05-02T07:55:45.999Z</time></trkpt><trkpt lat="42.30923957713714" lon="14.010588367101409"><ele>103.0</ele><time>2026-05-02T07:55:46.999Z</time></trkpt><trkpt lat="42.30902963574079" lon="14.010565465499349"><ele>103.0</ele><time>2026-05-02T07:55:47.999Z</time></trkpt><trkpt lat="42.308839724150104" lon="14.010531082758526"><ele>104.75</ele><time>2026-05-02T07:55:48.999Z</time></trkpt><trkpt lat="42.30867247192661" lon="14.010498398911029"><ele>106.5</ele><time>2026-05-02T07:55:49.999Z</time></trkpt><trkpt lat="42.3085262135933" lon="14.010474288917203"><ele>108.25</ele><time>2026-05-02T07:55:50.999Z</time></trkpt><trkpt lat="42.308402025923485" lon="14.010480518234989"><ele>110.0</ele><time>2026-05-02T07:55:51.999Z</time></trkpt><trkpt lat="42.3082873126173" lon="14.010501976969842"><ele>110.0</ele><time>2026-05-02T07:55:52.999Z</time></trkpt><trkpt lat="42.30818735017944" lon="14.010600180872364"><ele>110.0</ele><time>2026-05-02T07:55:53.999Z</time></trkpt><trkpt lat="42.30806655539698" lon="14.010703021370247"><ele>110.0</ele><time>2026-05-02T07:55:54.999Z</time></trkpt><trkpt lat="42.307947815379784" lon="14.010815177643552"><ele>110.0</ele><time>2026-05-02T07:55:55.999Z</time></trkpt><trkpt lat="42.30782473949671" lon="14.01089675560108"><ele>110.8</ele><time>2026-05-02T07:55:56.999Z</time></trkpt><trkpt lat="42.30771263250653" lon="14.010937740490425"><ele>111.6</ele><time>2026-05-02T07:55:57.999Z</time></trkpt><trkpt lat="42.30759904271125" lon="14.010933406243648"><ele>112.4</ele><time>2026-05-02T07:55:58.999Z</time></trkpt><trkpt lat="42.307495129157296" lon="14.010901893441048"><ele>113.2</ele><time>2026-05-02T07:55:59.999Z</time></trkpt><trkpt lat="42.30738972271164" lon="14.01086009355227"><ele>114.0</ele><time>2026-05-02T07:56:00.999Z</time></trkpt><trkpt lat="42.30726045188736" lon="14.010736123087911"><ele>116.75</ele><time>2026-05-02T07:56:01.999Z</time></trkpt><trkpt lat="42.30711954498701" lon="14.010658183328413"><ele>119.5</ele><time>2026-05-02T07:56:02.999Z</time></trkpt><trkpt lat="42.30700163852896" lon="14.010580587877488"><ele>122.25</ele><time>2026-05-02T07:56:03.999Z</time></trkpt><trkpt lat="42.306923588787214" lon="14.010420653681784"><ele>125.0</ele><time>2026-05-02T07:56:04.999Z</time></trkpt><trkpt lat="42.30685562226198" lon="14.010253946370344"><ele>125.0</ele><time>2026-05-02T07:56:05.999Z</time></trkpt><trkpt lat="42.30677573877534" lon="14.010050534931217"><ele>125.0</ele><time>2026-05-02T07:56:06.999Z</time></trkpt><trkpt lat="42.30671842977069" lon="14.009820990923423"><ele>125.0</ele><time>2026-05-02T07:56:07.999Z</time></trkpt><trkpt lat="42.30664791815874" lon="14.009589635648817"><ele>126.0</ele><time>2026-05-02T07:56:08.999Z</time></trkpt><trkpt lat="42.3065759749836" lon="14.009347403476772"><ele>127.0</ele><time>2026-05-02T07:56:09.999Z</time></trkpt><trkpt lat="42.30650993857238" lon="14.009088967828161"><ele>128.0</ele><time>2026-05-02T07:56:10.999Z</time></trkpt><trkpt lat="42.306440187899845" lon="14.008832204611874"><ele>133.33333333333331</ele><time>2026-05-02T07:56:11.999Z</time></trkpt><trkpt lat="42.30636919394512" lon="14.008532204068741"><ele>138.66666666666666</ele><time>2026-05-02T07:56:12.999Z</time></trkpt><trkpt lat="42.30631183695156" lon="14.008270359150016"><ele>144.0</ele><time>2026-05-02T07:56:13.999Z</time></trkpt><trkpt lat="42.306230566558895" lon="14.008003420313136"><ele>144.66666666666666</ele><time>2026-05-02T07:56:14.999Z</time></trkpt><trkpt lat="42.30615619267022" lon="14.00772478431283"><ele>145.33333333333331</ele><time>2026-05-02T07:56:15.999Z</time></trkpt><trkpt lat="42.306081998633076" lon="14.007459942782196"><ele>146.0</ele><time>2026-05-02T07:56:16.999Z</time></trkpt><trkpt lat="42.305995812331446" lon="14.00719205896987"><ele>146.66666666666666</ele><time>2026-05-02T07:56:17.999Z</time></trkpt><trkpt lat="42.305914714124505" lon="14.006939697451699"><ele>147.33333333333334</ele><time>2026-05-02T07:56:18.998Z</time></trkpt><trkpt lat="42.305846001453936" lon="14.00672086945696"><ele>148.0</ele><time>2026-05-02T07:56:19.998Z</time></trkpt><trkpt lat="42.30575010516584" lon="14.006525424554573"><ele>148.0</ele><time>2026-05-02T07:56:20.998Z</time></trkpt><trkpt lat="42.305642869399044" lon="14.006349544218656"><ele>148.0</ele><time>2026-05-02T07:56:21.998Z</time></trkpt><trkpt lat="42.305542493953865" lon="14.00615358919996"><ele>148.0</ele><time>2026-05-02T07:56:22.998Z</time></trkpt><trkpt lat="42.30542526272542" lon="14.005996371207933"><ele>153.0</ele><time>2026-05-02T07:56:23.998Z</time></trkpt><trkpt lat="42.30532816070137" lon="14.005823670967352"><ele>158.0</ele><time>2026-05-02T07:56:24.998Z</time></trkpt><trkpt lat="42.30522239734015" lon="14.005662552226942"><ele>163.0</ele><time>2026-05-02T07:56:25.998Z</time></trkpt><trkpt lat="42.3051349983175" lon="14.005479927593125"><ele>163.0</ele><time>2026-05-02T07:56:26.998Z</time></trkpt><trkpt lat="42.305053792086674" lon="14.005301267592081"><ele>163.0</ele><time>2026-05-02T07:56:27.998Z</time></trkpt><trkpt lat="42.3049769722233" lon="14.00511678630538"><ele>163.0</ele><time>2026-05-02T07:56:28.998Z</time></trkpt><trkpt lat="42.304903637866786" lon="14.004951695790659"><ele>162.75</ele><time>2026-05-02T07:56:29.998Z</time></trkpt><trkpt lat="42.30485228552375" lon="14.004804854607587"><ele>162.5</ele><time>2026-05-02T07:56:30.998Z</time></trkpt><trkpt lat="42.304796484964584" lon="14.004653118243873"><ele>162.25</ele><time>2026-05-02T07:56:31.998Z</time></trkpt><trkpt lat="42.304736229826496" lon="14.004496520615906"><ele>162.0</ele><time>2026-05-02T07:56:32.998Z</time></trkpt><trkpt lat="42.30465818996565" lon="14.00435859159295"><ele>163.6</ele><time>2026-05-02T07:56:33.998Z</time></trkpt><trkpt lat="42.30459419535711" lon="14.004217344233707"><ele>165.2</ele><time>2026-05-02T07:56:34.998Z</time></trkpt><trkpt lat="42.3045450118175" lon="14.00407237452083"><ele>166.8</ele><time>2026-05-02T07:56:35.998Z</time></trkpt><trkpt lat="42.304471484471456" lon="14.003963187306903"><ele>168.4</ele><time>2026-05-02T07:56:36.998Z</time></trkpt><trkpt lat="42.30439959706545" lon="14.003916293084075"><ele>170.0</ele><time>2026-05-02T07:56:37.998Z</time></trkpt><trkpt lat="42.30433382229405" lon="14.003903274405015"><ele>170.0</ele><time>2026-05-02T07:56:38.998Z</time></trkpt><trkpt lat="42.30425291016318" lon="14.003857102088666"><ele>170.0</ele><time>2026-05-02T07:56:39.998Z</time></trkpt><trkpt lat="42.30412053318574" lon="14.00381716479086"><ele>170.0</ele><time>2026-05-02T07:56:40.998Z</time></trkpt><trkpt lat="42.30398959358479" lon="14.003764593936905"><ele>170.0</ele><time>2026-05-02T07:56:41.998Z</time></trkpt><trkpt lat="42.30384825155859" lon="14.003682238235395"><ele>169.0</ele><time>2026-05-02T07:56:42.998Z</time></trkpt><trkpt lat="42.30370732793869" lon="14.00359469081911"><ele>168.0</ele><time>2026-05-02T07:56:43.998Z</time></trkpt><trkpt lat="42.30358209045128" lon="14.003509661548135"><ele>167.0</ele><time>2026-05-02T07:56:44.998Z</time></trkpt><trkpt lat="42.30346667429425" lon="14.003426921414448"><ele>166.0</ele><time>2026-05-02T07:56:45.998Z</time></trkpt><trkpt lat="42.30334962696259" lon="14.003335389145887"><ele>166.75</ele><time>2026-05-02T07:56:46.998Z</time></trkpt><trkpt lat="42.3032246838991" lon="14.00326337999102"><ele>167.5</ele><time>2026-05-02T07:56:47.998Z</time></trkpt><trkpt lat="42.30307970515054" lon="14.003204961388263"><ele>168.25</ele><time>2026-05-02T07:56:48.998Z</time></trkpt><trkpt lat="42.3029391629344" lon="14.003136573317523"><ele>169.0</ele><time>2026-05-02T07:56:49.998Z</time></trkpt><trkpt lat="42.302804866488785" lon="14.003092847997923"><ele>169.0</ele><time>2026-05-02T07:56:50.998Z</time></trkpt><trkpt lat="42.30265746750951" lon="14.003077574937219"><ele>169.0</ele><time>2026-05-02T07:56:51.998Z</time></trkpt><trkpt lat="42.30249193287557" lon="14.00306337007114"><ele>169.0</ele><time>2026-05-02T07:56:52.998Z</time></trkpt><trkpt lat="42.302312177331345" lon="14.00305669793856"><ele>166.5</ele><time>2026-05-02T07:56:53.998Z</time></trkpt><trkpt lat="42.302163102108686" lon="14.003067025299691"><ele>164.0</ele><time>2026-05-02T07:56:54.998Z</time></trkpt><trkpt lat="42.30201259937192" lon="14.003057306604614"><ele>161.5</ele><time>2026-05-02T07:56:55.998Z</time></trkpt><trkpt lat="42.30188381948437" lon="14.003010701080628"><ele>159.0</ele><time>2026-05-02T07:56:56.998Z</time></trkpt><trkpt lat="42.30176866868462" lon="14.002959580948625"><ele>159.0</ele><time>2026-05-02T07:56:57.998Z</time></trkpt><trkpt lat="42.301671995034965" lon="14.002876741969876"><ele>159.0</ele><time>2026-05-02T07:56:58.998Z</time></trkpt><trkpt lat="42.30158045376694" lon="14.002802549137188"><ele>159.0</ele><time>2026-05-02T07:56:59.998Z</time></trkpt><trkpt lat="42.30151867354691" lon="14.002733000848105"><ele>159.0</ele><time>2026-05-02T07:57:00.998Z</time></trkpt><trkpt lat="42.30147672707267" lon="14.002652653787452"><ele>159.0</ele><time>2026-05-02T07:57:01.998Z</time></trkpt><trkpt lat="42.30145627865393" lon="14.002529386768689"><ele>158.0</ele><time>2026-05-02T07:57:02.998Z</time></trkpt><trkpt lat="42.30141990181585" lon="14.002391478513028"><ele>157.0</ele><time>2026-05-02T07:57:03.998Z</time></trkpt><trkpt lat="42.30139104526448" lon="14.002227302508071"><ele>156.0</ele><time>2026-05-02T07:57:04.998Z</time></trkpt><trkpt lat="42.30136697157302" lon="14.002034237771886"><ele>155.0</ele><time>2026-05-02T07:57:05.998Z</time></trkpt><trkpt lat="42.30131653696642" lon="14.001836319379311"><ele>157.0</ele><time>2026-05-02T07:57:06.998Z</time></trkpt><trkpt lat="42.30127577370717" lon="14.001641733296049"><ele>159.0</ele><time>2026-05-02T07:57:07.998Z</time></trkpt><trkpt lat="42.30121010213222" lon="14.001455496764828"><ele>161.0</ele><time>2026-05-02T07:57:08.998Z</time></trkpt><trkpt lat="42.30114927773715" lon="14.001246161657566"><ele>161.0</ele><time>2026-05-02T07:57:09.998Z</time></trkpt><trkpt lat="42.30106086277866" lon="14.001049707556483"><ele>161.0</ele><time>2026-05-02T07:57:10.998Z</time></trkpt><trkpt lat="42.300964889927585" lon="14.000843301633632"><ele>161.0</ele><time>2026-05-02T07:57:11.998Z</time></trkpt><trkpt lat="42.300863683716685" lon="14.000681417241188"><ele>160.25</ele><time>2026-05-02T07:57:12.998Z</time></trkpt><trkpt lat="42.300770621563636" lon="14.000529855815026"><ele>159.5</ele><time>2026-05-02T07:57:13.998Z</time></trkpt><trkpt lat="42.30067390277004" lon="14.000382357683607"><ele>158.75</ele><time>2026-05-02T07:57:14.998Z</time></trkpt><trkpt lat="42.30059364728904" lon="14.000226418614329"><ele>158.0</ele><time>2026-05-02T07:57:15.998Z</time></trkpt><trkpt lat="42.30048503982703" lon="14.000111246505053"><ele>158.0</ele><time>2026-05-02T07:57:16.998Z</time></trkpt><trkpt lat="42.30037579505561" lon="13.99996221056747"><ele>158.0</ele><time>2026-05-02T07:57:17.998Z</time></trkpt><trkpt lat="42.30028403260267" lon="13.999816103673082"><ele>158.0</ele><time>2026-05-02T07:57:18.998Z</time></trkpt><trkpt lat="42.3002145464602" lon="13.9996575274392"><ele>158.0</ele><time>2026-05-02T07:57:19.998Z</time></trkpt><trkpt lat="42.30014267819416" lon="13.999486785119368"><ele>158.0</ele><time>2026-05-02T07:57:20.998Z</time></trkpt><trkpt lat="42.30006142209033" lon="13.999352230366323"><ele>158.0</ele><time>2026-05-02T07:57:21.998Z</time></trkpt><trkpt lat="42.299992826121496" lon="13.999198648649346"><ele>158.0</ele><time>2026-05-02T07:57:22.998Z</time></trkpt><trkpt lat="42.29991734575526" lon="13.999052146002972"><ele>158.0</ele><time>2026-05-02T07:57:23.998Z</time></trkpt><trkpt lat="42.299837088643365" lon="13.998896360569073"><ele>158.66666666666666</ele><time>2026-05-02T07:57:24.998Z</time></trkpt><trkpt lat="42.29975811835296" lon="13.99872833246959"><ele>159.33333333333334</ele><time>2026-05-02T07:57:25.998Z</time></trkpt><trkpt lat="42.29965954172564" lon="13.998552387507422"><ele>160.0</ele><time>2026-05-02T07:57:26.998Z</time></trkpt><trkpt lat="42.29956385948764" lon="13.99838021728971"><ele>159.5</ele><time>2026-05-02T07:57:27.998Z</time></trkpt><trkpt lat="42.299475192990755" lon="13.998205451415814"><ele>159.0</ele><time>2026-05-02T07:57:28.998Z</time></trkpt><trkpt lat="42.29938522379488" lon="13.998032589626222"><ele>158.5</ele><time>2026-05-02T07:57:29.998Z</time></trkpt><trkpt lat="42.29930987385112" lon="13.997883852941559"><ele>158.0</ele><time>2026-05-02T07:57:30.998Z</time></trkpt><trkpt lat="42.29924601946661" lon="13.997743289326069"><ele>158.0</ele><time>2026-05-02T07:57:31.998Z</time></trkpt><trkpt lat="42.29921911027143" lon="13.997622053106587"><ele>158.0</ele><time>2026-05-02T07:57:32.998Z</time></trkpt><trkpt lat="42.29919676405842" lon="13.997472195656206"><ele>158.0</ele><time>2026-05-02T07:57:33.998Z</time></trkpt><trkpt lat="42.29917847291413" lon="13.997306114554032"><ele>158.0</ele><time>2026-05-02T07:57:34.998Z</time></trkpt><trkpt lat="42.29915640339362" lon="13.99714395836832"><ele>158.0</ele><time>2026-05-02T07:57:35.998Z</time></trkpt><trkpt lat="42.29916739407569" lon="13.996992656787246"><ele>158.0</ele><time>2026-05-02T07:57:36.997Z</time></trkpt><trkpt lat="42.29916358644457" lon="13.996862405642108"><ele>158.0</ele><time>2026-05-02T07:57:37.997Z</time></trkpt><trkpt lat="42.29916997451066" lon="13.996705323539638"><ele>158.0</ele><time>2026-05-02T07:57:38.997Z</time></trkpt><trkpt lat="42.29915504141052" lon="13.996585683110363"><ele>158.0</ele><time>2026-05-02T07:57:39.997Z</time></trkpt><trkpt lat="42.29909010142632" lon="13.996469593496874"><ele>157.5</ele><time>2026-05-02T07:57:40.997Z</time></trkpt><trkpt lat="42.29900843452458" lon="13.996348448908678"><ele>157.0</ele><time>2026-05-02T07:57:41.997Z</time></trkpt><trkpt lat="42.298911241706435" lon="13.996237242175892"><ele>156.5</ele><time>2026-05-02T07:57:42.997Z</time></trkpt><trkpt lat="42.29879856555164" lon="13.996137103086435"><ele>156.0</ele><time>2026-05-02T07:57:43.997Z</time></trkpt><trkpt lat="42.29872779619893" lon="13.996008776248697"><ele>154.8</ele><time>2026-05-02T07:57:44.997Z</time></trkpt><trkpt lat="42.29866637577761" lon="13.995892416165944"><ele>153.6</ele><time>2026-05-02T07:57:45.997Z</time></trkpt><trkpt lat="42.29860587011578" lon="13.995740388202718"><ele>152.4</ele><time>2026-05-02T07:57:46.997Z</time></trkpt><trkpt lat="42.29855679131077" lon="13.995645382327481"><ele>151.2</ele><time>2026-05-02T07:57:47.997Z</time></trkpt><trkpt lat="42.2985064235263" lon="13.995545725073123"><ele>150.0</ele><time>2026-05-02T07:57:48.997Z</time></trkpt><trkpt lat="42.29845642703001" lon="13.99539901794628"><ele>150.0</ele><time>2026-05-02T07:57:49.997Z</time></trkpt><trkpt lat="42.298387583877684" lon="13.995273568423338"><ele>150.0</ele><time>2026-05-02T07:57:50.997Z</time></trkpt><trkpt lat="42.29830878395611" lon="13.995135779842384"><ele>150.0</ele><time>2026-05-02T07:57:51.997Z</time></trkpt><trkpt lat="42.298251968499265" lon="13.994988591349127"><ele>150.0</ele><time>2026-05-02T07:57:52.997Z</time></trkpt><trkpt lat="42.29818420230178" lon="13.994848168367547"><ele>151.25</ele><time>2026-05-02T07:57:53.997Z</time></trkpt><trkpt lat="42.29808912386259" lon="13.994743174714342"><ele>152.5</ele><time>2026-05-02T07:57:54.997Z</time></trkpt><trkpt lat="42.298011028632" lon="13.994630902516969"><ele>153.75</ele><time>2026-05-02T07:57:55.997Z</time></trkpt><trkpt lat="42.29794341984268" lon="13.994510712155325"><ele>155.0</ele><time>2026-05-02T07:57:56.997Z</time></trkpt><trkpt lat="42.297870083678916" lon="13.99437235393821"><ele>151.5</ele><time>2026-05-02T07:57:57.997Z</time></trkpt><trkpt lat="42.297815687560934" lon="13.994204075842442"><ele>148.0</ele><time>2026-05-02T07:57:58.997Z</time></trkpt><trkpt lat="42.29773455265448" lon="13.994038523624363"><ele>144.5</ele><time>2026-05-02T07:57:59.997Z</time></trkpt><trkpt lat="42.29767303337875" lon="13.9938728492858"><ele>141.0</ele><time>2026-05-02T07:58:00.997Z</time></trkpt><trkpt lat="42.29761068165249" lon="13.993723651980034"><ele>141.0</ele><time>2026-05-02T07:58:01.997Z</time></trkpt><trkpt lat="42.297530214452706" lon="13.99357251350599"><ele>141.0</ele><time>2026-05-02T07:58:02.997Z</time></trkpt><trkpt lat="42.29745988167262" lon="13.99340973578778"><ele>141.0</ele><time>2026-05-02T07:58:03.997Z</time></trkpt><trkpt lat="42.29738515105305" lon="13.993273673335212"><ele>141.0</ele><time>2026-05-02T07:58:04.997Z</time></trkpt><trkpt lat="42.29731772801965" lon="13.993127678588932"><ele>139.25</ele><time>2026-05-02T07:58:05.997Z</time></trkpt><trkpt lat="42.29724728786892" lon="13.992984121429686"><ele>137.5</ele><time>2026-05-02T07:58:06.997Z</time></trkpt><trkpt lat="42.29716824049299" lon="13.992856929640809"><ele>135.75</ele><time>2026-05-02T07:58:07.997Z</time></trkpt><trkpt lat="42.29709700057359" lon="13.992715321650042"><ele>134.0</ele><time>2026-05-02T07:58:08.997Z</time></trkpt><trkpt lat="42.29702356668015" lon="13.992579936603692"><ele>134.75</ele><time>2026-05-02T07:58:09.997Z</time></trkpt><trkpt lat="42.29697542818349" lon="13.992444750883825"><ele>135.5</ele><time>2026-05-02T07:58:10.997Z</time></trkpt><trkpt lat="42.29692031034104" lon="13.992296088057795"><ele>136.25</ele><time>2026-05-02T07:58:11.997Z</time></trkpt><trkpt lat="42.2968665551539" lon="13.992144741823724"><ele>137.0</ele><time>2026-05-02T07:58:12.997Z</time></trkpt><trkpt lat="42.29681182588632" lon="13.991978890505488"><ele>137.0</ele><time>2026-05-02T07:58:13.997Z</time></trkpt><trkpt lat="42.29677460567353" lon="13.991791166249746"><ele>137.0</ele><time>2026-05-02T07:58:14.997Z</time></trkpt><trkpt lat="42.296749052350975" lon="13.991606996417028"><ele>137.0</ele><time>2026-05-02T07:58:15.997Z</time></trkpt><trkpt lat="42.29672706767011" lon="13.991429392691103"><ele>137.0</ele><time>2026-05-02T07:58:16.997Z</time></trkpt><trkpt lat="42.296691073921544" lon="13.991261419038203"><ele>137.25</ele><time>2026-05-02T07:58:17.997Z</time></trkpt><trkpt lat="42.296667304429995" lon="13.991088751612875"><ele>137.5</ele><time>2026-05-02T07:58:18.997Z</time></trkpt><trkpt lat="42.296657246798404" lon="13.990911785057687"><ele>137.75</ele><time>2026-05-02T07:58:19.997Z</time></trkpt><trkpt lat="42.29665559808166" lon="13.990743774516247"><ele>138.0</ele><time>2026-05-02T07:58:20.997Z</time></trkpt><trkpt lat="42.29664883436708" lon="13.990575794762943"><ele>138.0</ele><time>2026-05-02T07:58:21.997Z</time></trkpt><trkpt lat="42.29662690397748" lon="13.990438287156907"><ele>138.0</ele><time>2026-05-02T07:58:22.997Z</time></trkpt><trkpt lat="42.296584992184584" lon="13.990326472557593"><ele>138.0</ele><time>2026-05-02T07:58:23.997Z</time></trkpt><trkpt lat="42.2965529916261" lon="13.9902123095217"><ele>138.0</ele><time>2026-05-02T07:58:24.997Z</time></trkpt><trkpt lat="42.29651054123537" lon="13.990094881546224"><ele>138.0</ele><time>2026-05-02T07:58:25.997Z</time></trkpt><trkpt lat="42.29643726286146" lon="13.989995364778007"><ele>136.0</ele><time>2026-05-02T07:58:26.997Z</time></trkpt><trkpt lat="42.296348571628215" lon="13.989943450118455"><ele>134.0</ele><time>2026-05-02T07:58:27.997Z</time></trkpt><trkpt lat="42.29625818632817" lon="13.98990628715812"><ele>132.0</ele><time>2026-05-02T07:58:28.997Z</time></trkpt><trkpt lat="42.29615977028303" lon="13.989866532381136"><ele>130.0</ele><time>2026-05-02T07:58:29.997Z</time></trkpt><trkpt lat="42.29605056939421" lon="13.989808038752205"><ele>128.0</ele><time>2026-05-02T07:58:30.997Z</time></trkpt><trkpt lat="42.295955108956896" lon="13.98976757368592"><ele>128.0</ele><time>2026-05-02T07:58:31.997Z</time></trkpt><trkpt lat="42.29585689876424" lon="13.989729007192091"><ele>128.0</ele><time>2026-05-02T07:58:32.997Z</time></trkpt><trkpt lat="42.29576569172348" lon="13.989630598796724"><ele>128.0</ele><time>2026-05-02T07:58:33.997Z</time></trkpt><trkpt lat="42.295646437489815" lon="13.989537116848076"><ele>128.0</ele><time>2026-05-02T07:58:34.997Z</time></trkpt><trkpt lat="42.29551312834874" lon="13.989424894234947"><ele>127.60000000000001</ele><time>2026-05-02T07:58:35.997Z</time></trkpt><trkpt lat="42.29540058733835" lon="13.989350570852963"><ele>127.20000000000002</ele><time>2026-05-02T07:58:36.997Z</time></trkpt><trkpt lat="42.2952986905823" lon="13.98929728058313"><ele>126.8</ele><time>2026-05-02T07:58:37.997Z</time></trkpt><trkpt lat="42.29522078869337" lon="13.989270178887777"><ele>126.4</ele><time>2026-05-02T07:58:38.997Z</time></trkpt><trkpt lat="42.29513645281037" lon="13.989281438308208"><ele>126.0</ele><time>2026-05-02T07:58:46.997Z</time></trkpt><trkpt lat="42.29505474566434" lon="13.989322908816169"><ele>126.0</ele><time>2026-05-02T07:58:48.997Z</time></trkpt><trkpt lat="42.295033276618035" lon="13.989415856218294"><ele>126.0</ele><time>2026-05-02T07:58:51.997Z</time></trkpt><trkpt lat="42.29496386917654" lon="13.989433607845717"><ele>126.0</ele><time>2026-05-02T07:58:52.997Z</time></trkpt><trkpt lat="42.29496697102959" lon="13.98955466161066"><ele>126.0</ele><time>2026-05-02T07:58:54.996Z</time></trkpt><trkpt lat="42.29507617079778" lon="13.989513869311379"><ele>126.0</ele><time>2026-05-02T07:59:02.996Z</time></trkpt><trkpt lat="42.29507899079442" lon="13.989374410424057"><ele>126.0</ele><time>2026-05-02T07:59:04.996Z</time></trkpt><trkpt lat="42.2950062873068" lon="13.989273253474584"><ele>126.8</ele><time>2026-05-02T07:59:13.996Z</time></trkpt><trkpt lat="42.29496377584434" lon="13.98917509399002"><ele>127.6</ele><time>2026-05-02T07:59:15.996Z</time></trkpt><trkpt lat="42.29494783036737" lon="13.989061250394435"><ele>128.4</ele><time>2026-05-02T07:59:16.996Z</time></trkpt><trkpt lat="42.29492844305502" lon="13.988946899609342"><ele>129.2</ele><time>2026-05-02T07:59:17.996Z</time></trkpt><trkpt lat="42.294898137803926" lon="13.988818741713333"><ele>130.0</ele><time>2026-05-02T07:59:18.996Z</time></trkpt><trkpt lat="42.29486277060175" lon="13.988677387129636"><ele>130.0</ele><time>2026-05-02T07:59:19.996Z</time></trkpt><trkpt lat="42.29481990108865" lon="13.988526812900542"><ele>130.0</ele><time>2026-05-02T07:59:20.996Z</time></trkpt><trkpt lat="42.2947887041375" lon="13.988353340906214"><ele>130.0</ele><time>2026-05-02T07:59:21.996Z</time></trkpt><trkpt lat="42.29474811396371" lon="13.988157010570754"><ele>130.0</ele><time>2026-05-02T07:59:22.996Z</time></trkpt><trkpt lat="42.29470562421031" lon="13.987971945346999"><ele>131.0</ele><time>2026-05-02T07:59:23.996Z</time></trkpt><trkpt lat="42.29464601278119" lon="13.987768733172498"><ele>132.0</ele><time>2026-05-02T07:59:24.996Z</time></trkpt><trkpt lat="42.29458155533002" lon="13.987564296009896"><ele>133.0</ele><time>2026-05-02T07:59:25.996Z</time></trkpt><trkpt lat="42.294519046740895" lon="13.987399640778978"><ele>133.4</ele><time>2026-05-02T07:59:26.996Z</time></trkpt><trkpt lat="42.29447535132187" lon="13.987229885149524"><ele>133.8</ele><time>2026-05-02T07:59:27.996Z</time></trkpt><trkpt lat="42.29442984046716" lon="13.987080683710476"><ele>134.2</ele><time>2026-05-02T07:59:28.996Z</time></trkpt><trkpt lat="42.294395000516516" lon="13.986951662271666"><ele>134.6</ele><time>2026-05-02T07:59:29.996Z</time></trkpt><trkpt lat="42.29437716535625" lon="13.986840579599617"><ele>135.0</ele><time>2026-05-02T07:59:30.996Z</time></trkpt><trkpt lat="42.294392688171285" lon="13.986726024714457"><ele>135.5</ele><time>2026-05-02T07:59:32.996Z</time></trkpt><trkpt lat="42.29439421545929" lon="13.986626356310474"><ele>136.0</ele><time>2026-05-02T07:59:35.996Z</time></trkpt><trkpt lat="42.29436811352536" lon="13.98654530574546"><ele>136.5</ele><time>2026-05-02T07:59:38.996Z</time></trkpt><trkpt lat="42.294340574554816" lon="13.986465039359475"><ele>137.0</ele><time>2026-05-02T07:59:40.996Z</time></trkpt><trkpt lat="42.29428249306044" lon="13.986331930078482"><ele>137.5</ele><time>2026-05-02T07:59:42.996Z</time></trkpt><trkpt lat="42.29426108853593" lon="13.986165777216453"><ele>138.0</ele><time>2026-05-02T07:59:43.996Z</time></trkpt><trkpt lat="42.29422674622937" lon="13.986017697807945"><ele>138.0</ele><time>2026-05-02T07:59:44.996Z</time></trkpt><trkpt lat="42.29417055760874" lon="13.985887297337712"><ele>138.0</ele><time>2026-05-02T07:59:45.996Z</time></trkpt><trkpt lat="42.29411332112274" lon="13.985740325535769"><ele>138.0</ele><time>2026-05-02T07:59:46.996Z</time></trkpt><trkpt lat="42.29406878252186" lon="13.985581892002227"><ele>138.0</ele><time>2026-05-02T07:59:47.996Z</time></trkpt><trkpt lat="42.294027160351625" lon="13.985421641224418"><ele>138.6</ele><time>2026-05-02T07:59:48.996Z</time></trkpt><trkpt lat="42.293981989856896" lon="13.985265827318225"><ele>139.20000000000002</ele><time>2026-05-02T07:59:49.996Z</time></trkpt><trkpt lat="42.2939414641493" lon="13.985127043603983"><ele>139.8</ele><time>2026-05-02T07:59:50.996Z</time></trkpt><trkpt lat="42.29389300604483" lon="13.985012642708304"><ele>140.4</ele><time>2026-05-02T07:59:51.996Z</time></trkpt><trkpt lat="42.29385758516845" lon="13.984879152909313"><ele>141.0</ele><time>2026-05-02T07:59:52.996Z</time></trkpt><trkpt lat="42.293819152496404" lon="13.984740470840539"><ele>142.75</ele><time>2026-05-02T07:59:53.996Z</time></trkpt><trkpt lat="42.29375450871057" lon="13.984648820820388"><ele>144.5</ele><time>2026-05-02T07:59:54.996Z</time></trkpt><trkpt lat="42.29369109921886" lon="13.98452015290967"><ele>146.25</ele><time>2026-05-02T07:59:55.996Z</time></trkpt><trkpt lat="42.29360791751377" lon="13.984386844721937"><ele>148.0</ele><time>2026-05-02T07:59:56.996Z</time></trkpt><trkpt lat="42.29353492386859" lon="13.984270123607859"><ele>148.4</ele><time>2026-05-02T07:59:57.996Z</time></trkpt><trkpt lat="42.29346126434195" lon="13.984148302495084"><ele>148.8</ele><time>2026-05-02T07:59:58.996Z</time></trkpt><trkpt lat="42.29338313142152" lon="13.984036705692533"><ele>149.2</ele><time>2026-05-02T07:59:59.996Z</time></trkpt><trkpt lat="42.29331437072846" lon="13.983932759357304"><ele>149.6</ele><time>2026-05-02T08:00:00.996Z</time></trkpt><trkpt lat="42.29322531000732" lon="13.983874421704098"><ele>150.0</ele><time>2026-05-02T08:00:01.996Z</time></trkpt><trkpt lat="42.29314271389445" lon="13.983790547258378"><ele>152.5</ele><time>2026-05-02T08:00:02.996Z</time></trkpt><trkpt lat="42.293046169919705" lon="13.98371526167621"><ele>155.0</ele><time>2026-05-02T08:00:03.996Z</time></trkpt><trkpt lat="42.29297362189316" lon="13.983602151960334"><ele>157.5</ele><time>2026-05-02T08:00:04.996Z</time></trkpt><trkpt lat="42.29289324494364" lon="13.983469525597693"><ele>160.0</ele><time>2026-05-02T08:00:05.996Z</time></trkpt><trkpt lat="42.292813727080464" lon="13.983314463116384"><ele>160.0</ele><time>2026-05-02T08:00:06.996Z</time></trkpt><trkpt lat="42.29275480033871" lon="13.983158818016644"><ele>160.0</ele><time>2026-05-02T08:00:07.996Z</time></trkpt><trkpt lat="42.29267677778492" lon="13.983046623972944"><ele>160.0</ele><time>2026-05-02T08:00:08.996Z</time></trkpt><trkpt lat="42.29262061116627" lon="13.982914427954908"><ele>160.0</ele><time>2026-05-02T08:00:09.996Z</time></trkpt><trkpt lat="42.29254149081698" lon="13.982799670919862"><ele>160.0</ele><time>2026-05-02T08:00:10.996Z</time></trkpt><trkpt lat="42.292485778772814" lon="13.982659052240114"><ele>160.0</ele><time>2026-05-02T08:00:11.996Z</time></trkpt><trkpt lat="42.29242715348442" lon="13.982553822118987"><ele>160.0</ele><time>2026-05-02T08:00:12.995Z</time></trkpt><trkpt lat="42.292359600140976" lon="13.982443208139541"><ele>160.0</ele><time>2026-05-02T08:00:13.995Z</time></trkpt><trkpt lat="42.29228965527316" lon="13.982338699819195"><ele>160.0</ele><time>2026-05-02T08:00:14.995Z</time></trkpt><trkpt lat="42.292222160141606" lon="13.982215722603776"><ele>161.4</ele><time>2026-05-02T08:00:15.995Z</time></trkpt><trkpt lat="42.292146899370444" lon="13.982107053794559"><ele>162.8</ele><time>2026-05-02T08:00:16.995Z</time></trkpt><trkpt lat="42.29208849320925" lon="13.98198978452471"><ele>164.2</ele><time>2026-05-02T08:00:17.995Z</time></trkpt><trkpt lat="42.292011159948665" lon="13.981894986738748"><ele>165.6</ele><time>2026-05-02T08:00:18.995Z</time></trkpt><trkpt lat="42.291948660380434" lon="13.981766699769496"><ele>167.0</ele><time>2026-05-02T08:00:19.995Z</time></trkpt><trkpt lat="42.291870551639" lon="13.981648685756753"><ele>167.0</ele><time>2026-05-02T08:00:20.995Z</time></trkpt><trkpt lat="42.291778413111174" lon="13.981543310935782"><ele>167.0</ele><time>2026-05-02T08:00:21.995Z</time></trkpt><trkpt lat="42.29170050350672" lon="13.981436045861852"><ele>167.0</ele><time>2026-05-02T08:00:22.995Z</time></trkpt><trkpt lat="42.2916294560395" lon="13.981319065191927"><ele>167.0</ele><time>2026-05-02T08:00:23.995Z</time></trkpt><trkpt lat="42.29156496065352" lon="13.981224719017906"><ele>167.0</ele><time>2026-05-02T08:00:24.995Z</time></trkpt><trkpt lat="42.29150065986306" lon="13.98114260156554"><ele>167.0</ele><time>2026-05-02T08:00:25.995Z</time></trkpt><trkpt lat="42.29144054330884" lon="13.981099552955005"><ele>167.0</ele><time>2026-05-02T08:00:26.995Z</time></trkpt><trkpt lat="42.291373663597135" lon="13.981081848541443"><ele>167.0</ele><time>2026-05-02T08:00:27.995Z</time></trkpt><trkpt lat="42.291257360239236" lon="13.98106620213285"><ele>167.0</ele><time>2026-05-02T08:00:29.995Z</time></trkpt><trkpt lat="42.29119379016092" lon="13.981060026366617"><ele>167.0</ele><time>2026-05-02T08:00:30.995Z</time></trkpt><trkpt lat="42.29110052785545" lon="13.981057507512366"><ele>167.0</ele><time>2026-05-02T08:00:32.995Z</time></trkpt><trkpt lat="42.291037142643226" lon="13.981021020154882"><ele>167.33333333333331</ele><time>2026-05-02T08:00:33.995Z</time></trkpt><trkpt lat="42.29097378053664" lon="13.980996211786659"><ele>167.66666666666666</ele><time>2026-05-02T08:00:34.995Z</time></trkpt><trkpt lat="42.2909089628797" lon="13.98088836077174"><ele>168.0</ele><time>2026-05-02T08:00:36.995Z</time></trkpt><trkpt lat="42.290890918518336" lon="13.980788117856303"><ele>168.33333333333334</ele><time>2026-05-02T08:00:37.995Z</time></trkpt><trkpt lat="42.290894413371106" lon="13.980670670117638"><ele>168.66666666666669</ele><time>2026-05-02T08:00:38.995Z</time></trkpt><trkpt lat="42.29088896235001" lon="13.980531289133836"><ele>169.0</ele><time>2026-05-02T08:00:39.995Z</time></trkpt><trkpt lat="42.29089775889084" lon="13.980399645872872"><ele>169.0</ele><time>2026-05-02T08:00:40.995Z</time></trkpt><trkpt lat="42.290880971359925" lon="13.980284350945173"><ele>169.0</ele><time>2026-05-02T08:00:41.995Z</time></trkpt><trkpt lat="42.29084567388708" lon="13.980178369162303"><ele>169.0</ele><time>2026-05-02T08:00:42.995Z</time></trkpt><trkpt lat="42.29081825255431" lon="13.98004333845144"><ele>169.0</ele><time>2026-05-02T08:00:43.995Z</time></trkpt><trkpt lat="42.29076301551639" lon="13.979929337354845"><ele>169.0</ele><time>2026-05-02T08:00:44.995Z</time></trkpt><trkpt lat="42.29068299801317" lon="13.979793028153521"><ele>172.2</ele><time>2026-05-02T08:00:45.995Z</time></trkpt><trkpt lat="42.29058254702098" lon="13.979701549527643"><ele>175.39999999999998</ele><time>2026-05-02T08:00:46.995Z</time></trkpt><trkpt lat="42.29048441787255" lon="13.979590658252915"><ele>178.6</ele><time>2026-05-02T08:00:47.995Z</time></trkpt><trkpt lat="42.29039412410162" lon="13.979520272910172"><ele>181.8</ele><time>2026-05-02T08:00:48.995Z</time></trkpt><trkpt lat="42.29033154928724" lon="13.979453778018172"><ele>185.0</ele><time>2026-05-02T08:00:49.995Z</time></trkpt><trkpt lat="42.29029713966922" lon="13.979366430278132"><ele>185.0</ele><time>2026-05-02T08:00:50.995Z</time></trkpt><trkpt lat="42.290306781889534" lon="13.979201452057021"><ele>185.0</ele><time>2026-05-02T08:00:52.995Z</time></trkpt><trkpt lat="42.29033994196249" lon="13.979096606450602"><ele>185.0</ele><time>2026-05-02T08:00:53.995Z</time></trkpt><trkpt lat="42.290373632985904" lon="13.97898796097483"><ele>185.0</ele><time>2026-05-02T08:00:54.995Z</time></trkpt><trkpt lat="42.29039290039546" lon="13.978872346076487"><ele>185.0</ele><time>2026-05-02T08:00:55.995Z</time></trkpt><trkpt lat="42.29043676988144" lon="13.97877066186771"><ele>185.0</ele><time>2026-05-02T08:00:56.995Z</time></trkpt><trkpt lat="42.29044809458735" lon="13.978668785922975"><ele>185.0</ele><time>2026-05-02T08:00:57.995Z</time></trkpt><trkpt lat="42.29039048898905" lon="13.978560730196186"><ele>185.0</ele><time>2026-05-02T08:00:59.995Z</time></trkpt><trkpt lat="42.29024521704147" lon="13.978590042723077"><ele>185.0</ele><time>2026-05-02T08:01:01.995Z</time></trkpt><trkpt lat="42.29015946355685" lon="13.978628911041854"><ele>185.0</ele><time>2026-05-02T08:01:02.995Z</time></trkpt><trkpt lat="42.29007726297574" lon="13.978687744582857"><ele>185.0</ele><time>2026-05-02T08:01:03.995Z</time></trkpt><trkpt lat="42.289991089150796" lon="13.978740218850621"><ele>185.0</ele><time>2026-05-02T08:01:04.995Z</time></trkpt><trkpt lat="42.289911294994205" lon="13.978786102548774"><ele>185.0</ele><time>2026-05-02T08:01:05.995Z</time></trkpt><trkpt lat="42.28984245938042" lon="13.978822765082915"><ele>185.0</ele><time>2026-05-02T08:01:06.995Z</time></trkpt><trkpt lat="42.28977385898544" lon="13.978858042344601"><ele>185.0</ele><time>2026-05-02T08:01:07.995Z</time></trkpt><trkpt lat="42.289635429215224" lon="13.978849634824751"><ele>187.6</ele><time>2026-05-02T08:01:09.995Z</time></trkpt><trkpt lat="42.28956287079786" lon="13.978715885705"><ele>190.2</ele><time>2026-05-02T08:01:11.995Z</time></trkpt><trkpt lat="42.28952591672577" lon="13.978610852646986"><ele>192.8</ele><time>2026-05-02T08:01:12.995Z</time></trkpt><trkpt lat="42.28951666207388" lon="13.97848785496655"><ele>195.4</ele><time>2026-05-02T08:01:13.995Z</time></trkpt><trkpt lat="42.28950098737889" lon="13.97838084350529"><ele>198.0</ele><time>2026-05-02T08:01:14.995Z</time></trkpt><trkpt lat="42.289488638751386" lon="13.978262119822256"><ele>198.60000000000002</ele><time>2026-05-02T08:01:15.995Z</time></trkpt><trkpt lat="42.289474961021284" lon="13.978137288907538"><ele>199.20000000000002</ele><time>2026-05-02T08:01:16.995Z</time></trkpt><trkpt lat="42.289450487263046" lon="13.978013064855729"><ele>199.8</ele><time>2026-05-02T08:01:17.995Z</time></trkpt><trkpt lat="42.289416503591006" lon="13.977925348564241"><ele>200.4</ele><time>2026-05-02T08:01:18.995Z</time></trkpt><trkpt lat="42.28931024153725" lon="13.977843605410987"><ele>201.0</ele><time>2026-05-02T08:01:20.995Z</time></trkpt><trkpt lat="42.28921500116971" lon="13.977847402908491"><ele>201.0</ele><time>2026-05-02T08:01:22.995Z</time></trkpt><trkpt lat="42.28910939476695" lon="13.977903660138072"><ele>201.0</ele><time>2026-05-02T08:01:24.995Z</time></trkpt><trkpt lat="42.28904167337078" lon="13.977932412642268"><ele>201.0</ele><time>2026-05-02T08:01:25.995Z</time></trkpt><trkpt lat="42.28895250101076" lon="13.978007171867157"><ele>201.0</ele><time>2026-05-02T08:01:26.995Z</time></trkpt><trkpt lat="42.288856013174275" lon="13.978092088370621"><ele>201.0</ele><time>2026-05-02T08:01:27.995Z</time></trkpt><trkpt lat="42.28879970480267" lon="13.97819906390939"><ele>203.16666666666666</ele><time>2026-05-02T08:01:28.995Z</time></trkpt><trkpt lat="42.28875458214518" lon="13.978286313356945"><ele>205.33333333333331</ele><time>2026-05-02T08:01:29.995Z</time></trkpt><trkpt lat="42.28872721787721" lon="13.978373009292062"><ele>207.5</ele><time>2026-05-02T08:01:30.995Z</time></trkpt><trkpt lat="42.288680733293745" lon="13.97843943626362"><ele>209.66666666666666</ele><time>2026-05-02T08:01:31.995Z</time></trkpt><trkpt lat="42.288610939513575" lon="13.978587554469934"><ele>211.83333333333331</ele><time>2026-05-02T08:01:33.999Z</time></trkpt><trkpt lat="42.28855522036651" lon="13.978687276221175"><ele>214.0</ele><time>2026-05-02T08:01:34.999Z</time></trkpt><trkpt lat="42.288502218055136" lon="13.97878244118462"><ele>214.0</ele><time>2026-05-02T08:01:35.999Z</time></trkpt><trkpt lat="42.288474304245526" lon="13.978866261485585"><ele>213.99999999999997</ele><time>2026-05-02T08:01:36.999Z</time></trkpt><trkpt lat="42.28839948175075" lon="13.978995261658735"><ele>213.99999999999997</ele><time>2026-05-02T08:01:39Z</time></trkpt><trkpt lat="42.28837509231665" lon="13.979149641181474"><ele>214.0</ele><time>2026-05-02T08:01:41Z</time></trkpt><trkpt lat="42.288366131793495" lon="13.97925288763948"><ele>214.0</ele><time>2026-05-02T08:01:42Z</time></trkpt><trkpt lat="42.288356177966435" lon="13.97936757895451"><ele>214.66666666666666</ele><time>2026-05-02T08:01:43Z</time></trkpt><trkpt lat="42.28834769234547" lon="13.97948026725099"><ele>215.33333333333331</ele><time>2026-05-02T08:01:44Z</time></trkpt><trkpt lat="42.288340318664304" lon="13.979584046449077"><ele>216.0</ele><time>2026-05-02T08:01:45Z</time></trkpt><trkpt lat="42.288332335279414" lon="13.979696406648277"><ele>216.66666666666669</ele><time>2026-05-02T08:01:46Z</time></trkpt><trkpt lat="42.2883243775396" lon="13.979808406036524"><ele>217.33333333333334</ele><time>2026-05-02T08:01:47Z</time></trkpt><trkpt lat="42.28831868188592" lon="13.979902386815878"><ele>218.0</ele><time>2026-05-02T08:01:48Z</time></trkpt><trkpt lat="42.288314193452806" lon="13.980000259351195"><ele>218.42857142857144</ele><time>2026-05-02T08:01:49Z</time></trkpt><trkpt lat="42.28832432287056" lon="13.98010681817328"><ele>218.85714285714286</ele><time>2026-05-02T08:01:50Z</time></trkpt><trkpt lat="42.288358863723666" lon="13.980200999085612"><ele>219.28571428571428</ele><time>2026-05-02T08:01:51Z</time></trkpt><trkpt lat="42.288409371554444" lon="13.980272993651376"><ele>219.71428571428572</ele><time>2026-05-02T08:01:52Z</time></trkpt><trkpt lat="42.288431833594416" lon="13.980368680622353"><ele>220.14285714285714</ele><time>2026-05-02T08:01:53Z</time></trkpt><trkpt lat="42.288456409453" lon="13.980453017111373"><ele>220.57142857142858</ele><time>2026-05-02T08:01:54Z</time></trkpt><trkpt lat="42.28847477984717" lon="13.980539488556827"><ele>221.0</ele><time>2026-05-02T08:01:55Z</time></trkpt><trkpt lat="42.28846704008247" lon="13.980631570175264"><ele>221.00000000000003</ele><time>2026-05-02T08:01:56Z</time></trkpt><trkpt lat="42.28844120471826" lon="13.980731609886815"><ele>221.0</ele><time>2026-05-02T08:01:57Z</time></trkpt><trkpt lat="42.28838313915221" lon="13.98077332595051"><ele>221.0</ele><time>2026-05-02T08:01:58Z</time></trkpt><trkpt lat="42.288319893813174" lon="13.980774775222098"><ele>221.0</ele><time>2026-05-02T08:01:59Z</time></trkpt><trkpt lat="42.28825468517101" lon="13.98074951748405"><ele>221.00000000000003</ele><time>2026-05-02T08:02:00Z</time></trkpt><trkpt lat="42.28817413514588" lon="13.980631469658956"><ele>221.0</ele><time>2026-05-02T08:02:02Z</time></trkpt><trkpt lat="42.28812197657924" lon="13.980519734774573"><ele>225.8</ele><time>2026-05-02T08:02:04Z</time></trkpt><trkpt lat="42.28802273536324" lon="13.980468948553408"><ele>230.60000000000002</ele><time>2026-05-02T08:02:06Z</time></trkpt><trkpt lat="42.287949751322685" lon="13.980501449066782"><ele>235.4</ele><time>2026-05-02T08:02:07Z</time></trkpt><trkpt lat="42.28791102136503" lon="13.980588837430242"><ele>240.2</ele><time>2026-05-02T08:02:08Z</time></trkpt><trkpt lat="42.287915709994955" lon="13.980762241010927"><ele>245.0</ele><time>2026-05-02T08:02:10Z</time></trkpt><trkpt lat="42.28792819943631" lon="13.980866070472695"><ele>246.33333333333334</ele><time>2026-05-02T08:02:11Z</time></trkpt><trkpt lat="42.28794520281718" lon="13.980989552746752"><ele>247.66666666666669</ele><time>2026-05-02T08:02:12Z</time></trkpt><trkpt lat="42.28796406793904" lon="13.981109773553573"><ele>249.0</ele><time>2026-05-02T08:02:13Z</time></trkpt><trkpt lat="42.28798143363125" lon="13.981220439485414"><ele>250.33333333333331</ele><time>2026-05-02T08:02:14Z</time></trkpt><trkpt lat="42.287984165837734" lon="13.981312160467393"><ele>251.66666666666666</ele><time>2026-05-02T08:02:15Z</time></trkpt><trkpt lat="42.287964227377856" lon="13.981463788630716"><ele>253.0</ele><time>2026-05-02T08:02:18Z</time></trkpt><trkpt lat="42.28788586975915" lon="13.98139796083012"><ele>253.0</ele><time>2026-05-02T08:02:20Z</time></trkpt><trkpt lat="42.287838778383446" lon="13.981269782955446"><ele>253.0</ele><time>2026-05-02T08:02:22Z</time></trkpt><trkpt lat="42.28776944717873" lon="13.981162519165354"><ele>253.0</ele><time>2026-05-02T08:02:24Z</time></trkpt><trkpt lat="42.28765810750882" lon="13.981123880611456"><ele>253.0</ele><time>2026-05-02T08:02:26Z</time></trkpt><trkpt lat="42.28758459208928" lon="13.981093888895048"><ele>253.0</ele><time>2026-05-02T08:02:27Z</time></trkpt><trkpt lat="42.287500532589156" lon="13.981067017343562"><ele>253.0</ele><time>2026-05-02T08:02:28Z</time></trkpt><trkpt lat="42.287410244907086" lon="13.98104967664918"><ele>253.0</ele><time>2026-05-02T08:02:29Z</time></trkpt><trkpt lat="42.28731315998065" lon="13.981019497342674"><ele>253.0</ele><time>2026-05-02T08:02:30Z</time></trkpt><trkpt lat="42.287217441421156" lon="13.980978527463092"><ele>253.0</ele><time>2026-05-02T08:02:31Z</time></trkpt><trkpt lat="42.287141695193704" lon="13.980864292407277"><ele>253.0</ele><time>2026-05-02T08:02:32Z</time></trkpt><trkpt lat="42.2870622630461" lon="13.980902715864039"><ele>253.8</ele><time>2026-05-02T08:02:33Z</time></trkpt><trkpt lat="42.28700769533314" lon="13.980842651875323"><ele>254.60000000000002</ele><time>2026-05-02T08:02:34Z</time></trkpt><trkpt lat="42.28696541352872" lon="13.980709271197902"><ele>255.39999999999998</ele><time>2026-05-02T08:02:36Z</time></trkpt><trkpt lat="42.2869537916118" lon="13.980606448934124"><ele>256.2</ele><time>2026-05-02T08:02:36.999Z</time></trkpt><trkpt lat="42.28695680592901" lon="13.980470282821726"><ele>257.0</ele><time>2026-05-02T08:02:37.999Z</time></trkpt><trkpt lat="42.28697059624102" lon="13.980336466587097"><ele>257.0</ele><time>2026-05-02T08:02:38.999Z</time></trkpt><trkpt lat="42.2869837894552" lon="13.980213653450686"><ele>257.0</ele><time>2026-05-02T08:02:39.999Z</time></trkpt><trkpt lat="42.28699092720683" lon="13.980101504841409"><ele>257.0</ele><time>2026-05-02T08:02:40.999Z</time></trkpt><trkpt lat="42.286994363398975" lon="13.979993708998997"><ele>257.0</ele><time>2026-05-02T08:02:41.999Z</time></trkpt><trkpt lat="42.286987623529726" lon="13.979889752831296"><ele>257.0</ele><time>2026-05-02T08:02:42.999Z</time></trkpt><trkpt lat="42.28696528067754" lon="13.979804288198862"><ele>257.0</ele><time>2026-05-02T08:02:43.999Z</time></trkpt><trkpt lat="42.286919960363136" lon="13.979695995864363"><ele>257.1666666666667</ele><time>2026-05-02T08:02:44.999Z</time></trkpt><trkpt lat="42.28688417912569" lon="13.979588250228575"><ele>257.33333333333337</ele><time>2026-05-02T08:02:45.999Z</time></trkpt><trkpt lat="42.286863616642535" lon="13.9794875585087"><ele>257.5</ele><time>2026-05-02T08:02:46.999Z</time></trkpt><trkpt lat="42.286854255999344" lon="13.979396772187245"><ele>257.6666666666667</ele><time>2026-05-02T08:02:47.999Z</time></trkpt><trkpt lat="42.28685240312216" lon="13.97927012625314"><ele>257.8333333333333</ele><time>2026-05-02T08:02:48.999Z</time></trkpt><trkpt lat="42.286839104221336" lon="13.979120413691096"><ele>258.0</ele><time>2026-05-02T08:02:49.999Z</time></trkpt><trkpt lat="42.28681341234032" lon="13.978964835369194"><ele>257.6</ele><time>2026-05-02T08:02:50.999Z</time></trkpt><trkpt lat="42.286785558076446" lon="13.978815829401565"><ele>257.20000000000005</ele><time>2026-05-02T08:02:51.999Z</time></trkpt><trkpt lat="42.28675179593917" lon="13.978685137474002"><ele>256.8</ele><time>2026-05-02T08:02:52.999Z</time></trkpt><trkpt lat="42.28672295272253" lon="13.978567386202297"><ele>256.40000000000003</ele><time>2026-05-02T08:02:53.999Z</time></trkpt><trkpt lat="42.28669623853258" lon="13.978470308116213"><ele>256.0</ele><time>2026-05-02T08:02:54.999Z</time></trkpt><trkpt lat="42.2866521357739" lon="13.978369812574906"><ele>256.2</ele><time>2026-05-02T08:02:55.999Z</time></trkpt><trkpt lat="42.28659089096572" lon="13.978265786975205"><ele>256.40000000000003</ele><time>2026-05-02T08:02:56.999Z</time></trkpt><trkpt lat="42.286517844118165" lon="13.978162086417555"><ele>256.6</ele><time>2026-05-02T08:02:57.999Z</time></trkpt><trkpt lat="42.286432931544006" lon="13.978080025562484"><ele>256.8</ele><time>2026-05-02T08:02:58.999Z</time></trkpt><trkpt lat="42.286341039449674" lon="13.977985207895017"><ele>257.0</ele><time>2026-05-02T08:02:59.999Z</time></trkpt><trkpt lat="42.28625618635252" lon="13.977887791726195"><ele>258.4</ele><time>2026-05-02T08:03:00.999Z</time></trkpt><trkpt lat="42.28618351289822" lon="13.977796582309608"><ele>259.79999999999995</ele><time>2026-05-02T08:03:01.999Z</time></trkpt><trkpt lat="42.28612920481522" lon="13.977691794494492"><ele>261.2</ele><time>2026-05-02T08:03:02.999Z</time></trkpt><trkpt lat="42.28607393154891" lon="13.977586993191055"><ele>262.59999999999997</ele><time>2026-05-02T08:03:03.999Z</time></trkpt><trkpt lat="42.286028593936116" lon="13.977475748330033"><ele>264.0</ele><time>2026-05-02T08:03:04.999Z</time></trkpt><trkpt lat="42.28597297896339" lon="13.97737505166972"><ele>264.0</ele><time>2026-05-02T08:03:05.999Z</time></trkpt><trkpt lat="42.28592030389914" lon="13.97727110314005"><ele>264.0</ele><time>2026-05-02T08:03:06.999Z</time></trkpt><trkpt lat="42.28584705316052" lon="13.977187267258017"><ele>264.0</ele><time>2026-05-02T08:03:07.999Z</time></trkpt><trkpt lat="42.28576420066066" lon="13.977112884952925"><ele>264.0</ele><time>2026-05-02T08:03:08.999Z</time></trkpt><trkpt lat="42.28568143811426" lon="13.977045762362426"><ele>264.0</ele><time>2026-05-02T08:03:09.999Z</time></trkpt><trkpt lat="42.28560252746473" lon="13.976982521147804"><ele>265.0</ele><time>2026-05-02T08:03:10.999Z</time></trkpt><trkpt lat="42.28553525176174" lon="13.976931468345914"><ele>266.0</ele><time>2026-05-02T08:03:11.999Z</time></trkpt><trkpt lat="42.2854400312884" lon="13.976845525052186"><ele>267.0</ele><time>2026-05-02T08:03:13.999Z</time></trkpt><trkpt lat="42.28539076987126" lon="13.976787148950232"><ele>268.0</ele><time>2026-05-02T08:03:14.999Z</time></trkpt><trkpt lat="42.28536159360426" lon="13.976633293265083"><ele>269.0</ele><time>2026-05-02T08:03:16.999Z</time></trkpt><trkpt lat="42.28535200662099" lon="13.976509042600085"><ele>269.0</ele><time>2026-05-02T08:03:17.999Z</time></trkpt><trkpt lat="42.28537854982674" lon="13.976368743662164"><ele>269.0</ele><time>2026-05-02T08:03:18.999Z</time></trkpt><trkpt lat="42.285400339047065" lon="13.976263138700483"><ele>269.0</ele><time>2026-05-02T08:03:19.999Z</time></trkpt><trkpt lat="42.28542016808148" lon="13.976093287061303"><ele>269.0</ele><time>2026-05-02T08:03:21.999Z</time></trkpt><trkpt lat="42.28543247629843" lon="13.976008965561421"><ele>269.0</ele><time>2026-05-02T08:03:22.999Z</time></trkpt><trkpt lat="42.28543394856578" lon="13.975906515329845"><ele>270.0</ele><time>2026-05-02T08:03:23.999Z</time></trkpt><trkpt lat="42.28542619561532" lon="13.975793826856657"><ele>271.0</ele><time>2026-05-02T08:03:24.999Z</time></trkpt><trkpt lat="42.28541270875569" lon="13.975670483430969"><ele>272.0</ele><time>2026-05-02T08:03:25.999Z</time></trkpt><trkpt lat="42.285395235576416" lon="13.975533198275304"><ele>273.0</ele><time>2026-05-02T08:03:26.999Z</time></trkpt><trkpt lat="42.28536947977849" lon="13.97538296065965"><ele>274.0</ele><time>2026-05-02T08:03:27.999Z</time></trkpt><trkpt lat="42.285346548735866" lon="13.975238776349068"><ele>274.0</ele><time>2026-05-02T08:03:28.999Z</time></trkpt><trkpt lat="42.285318534779755" lon="13.975084951656903"><ele>274.0</ele><time>2026-05-02T08:03:29.999Z</time></trkpt><trkpt lat="42.28527810580589" lon="13.974944988394178"><ele>274.0</ele><time>2026-05-02T08:03:30.999Z</time></trkpt><trkpt lat="42.2852283602588" lon="13.974810502148213"><ele>274.0</ele><time>2026-05-02T08:03:31.999Z</time></trkpt><trkpt lat="42.285166514745306" lon="13.974671851105569"><ele>274.5</ele><time>2026-05-02T08:03:32.999Z</time></trkpt><trkpt lat="42.2851006147536" lon="13.974530618140747"><ele>275.0</ele><time>2026-05-02T08:03:33.999Z</time></trkpt><trkpt lat="42.285034433314365" lon="13.974392307777872"><ele>275.5</ele><time>2026-05-02T08:03:34.999Z</time></trkpt><trkpt lat="42.28495588403231" lon="13.974259224721768"><ele>276.0</ele><time>2026-05-02T08:03:35.999Z</time></trkpt><trkpt lat="42.284886473605496" lon="13.974116902195416"><ele>276.25</ele><time>2026-05-02T08:03:36.999Z</time></trkpt><trkpt lat="42.28483435008509" lon="13.97396286403954"><ele>276.5</ele><time>2026-05-02T08:03:37.999Z</time></trkpt><trkpt lat="42.28478319206296" lon="13.973814609215397"><ele>276.75</ele><time>2026-05-02T08:03:38.999Z</time></trkpt><trkpt lat="42.28473736212539" lon="13.9736670511351"><ele>277.0</ele><time>2026-05-02T08:03:39.999Z</time></trkpt><trkpt lat="42.28467189331946" lon="13.973534072986702"><ele>279.2</ele><time>2026-05-02T08:03:40.999Z</time></trkpt><trkpt lat="42.284615331454596" lon="13.973401366080266"><ele>281.4</ele><time>2026-05-02T08:03:41.999Z</time></trkpt><trkpt lat="42.28456181276393" lon="13.973277030539954"><ele>283.6</ele><time>2026-05-02T08:03:42.999Z</time></trkpt><trkpt lat="42.284494369325486" lon="13.97316829592835"><ele>285.8</ele><time>2026-05-02T08:03:43.999Z</time></trkpt><trkpt lat="42.28440629352906" lon="13.973081783169985"><ele>288.0</ele><time>2026-05-02T08:03:44.999Z</time></trkpt><trkpt lat="42.28431600299356" lon="13.97298166762413"><ele>288.75</ele><time>2026-05-02T08:03:45.999Z</time></trkpt><trkpt lat="42.28420269715727" lon="13.97289892071662"><ele>289.5</ele><time>2026-05-02T08:03:46.999Z</time></trkpt><trkpt lat="42.28408563338906" lon="13.972823746678863"><ele>290.25</ele><time>2026-05-02T08:03:47.999Z</time></trkpt><trkpt lat="42.28396634655405" lon="13.972751127744425"><ele>291.0</ele><time>2026-05-02T08:03:48.999Z</time></trkpt><trkpt lat="42.283852325487715" lon="13.972685342272195"><ele>291.40000000000003</ele><time>2026-05-02T08:03:49.999Z</time></trkpt><trkpt lat="42.28375127415796" lon="13.972631814924636"><ele>291.8</ele><time>2026-05-02T08:03:50.999Z</time></trkpt><trkpt lat="42.28366161148526" lon="13.972584989725064"><ele>292.20000000000005</ele><time>2026-05-02T08:03:51.999Z</time></trkpt><trkpt lat="42.28356628564003" lon="13.972535629698537"><ele>292.6</ele><time>2026-05-02T08:03:52.999Z</time></trkpt><trkpt lat="42.28344950121561" lon="13.97248557619651"><ele>293.0</ele><time>2026-05-02T08:03:53.999Z</time></trkpt><trkpt lat="42.28334020703583" lon="13.972477651531472"><ele>293.0</ele><time>2026-05-02T08:03:54.999Z</time></trkpt><trkpt lat="42.283256539993516" lon="13.972499406002829"><ele>293.0</ele><time>2026-05-02T08:03:55.999Z</time></trkpt><trkpt lat="42.28318780530529" lon="13.972462573140085"><ele>293.0</ele><time>2026-05-02T08:03:56.999Z</time></trkpt><trkpt lat="42.283138558587794" lon="13.972379925951087"><ele>293.0</ele><time>2026-05-02T08:03:57.999Z</time></trkpt><trkpt lat="42.28309146976507" lon="13.97229584905238"><ele>293.0</ele><time>2026-05-02T08:03:58.999Z</time></trkpt><trkpt lat="42.28304665288376" lon="13.97222722862331"><ele>293.0</ele><time>2026-05-02T08:03:59.999Z</time></trkpt><trkpt lat="42.28298995367845" lon="13.97211427667086"><ele>294.6</ele><time>2026-05-02T08:04:01.999Z</time></trkpt><trkpt lat="42.28293914425762" lon="13.972046626347009"><ele>296.20000000000005</ele><time>2026-05-02T08:04:03.999Z</time></trkpt><trkpt lat="42.28295269172239" lon="13.971896643639761"><ele>297.8</ele><time>2026-05-02T08:04:05.999Z</time></trkpt><trkpt lat="42.28298466954195" lon="13.971798582706068"><ele>299.40000000000003</ele><time>2026-05-02T08:04:06.999Z</time></trkpt><trkpt lat="42.28302904747261" lon="13.971684158798404"><ele>301.0</ele><time>2026-05-02T08:04:07.998Z</time></trkpt><trkpt lat="42.28307855227907" lon="13.971562231563544"><ele>299.0</ele><time>2026-05-02T08:04:08.998Z</time></trkpt><trkpt lat="42.28311295268317" lon="13.971446738461678"><ele>297.0</ele><time>2026-05-02T08:04:09.998Z</time></trkpt><trkpt lat="42.28314265044263" lon="13.97133480143079"><ele>295.0</ele><time>2026-05-02T08:04:10.998Z</time></trkpt><trkpt lat="42.28318519593838" lon="13.971225245878514"><ele>293.0</ele><time>2026-05-02T08:04:11.998Z</time></trkpt><trkpt lat="42.28325206330681" lon="13.971139573459865"><ele>291.0</ele><time>2026-05-02T08:04:12.998Z</time></trkpt><trkpt lat="42.28331946100141" lon="13.971042529633262"><ele>291.0</ele><time>2026-05-02T08:04:13.998Z</time></trkpt><trkpt lat="42.283395449037265" lon="13.970930845531468"><ele>291.0</ele><time>2026-05-02T08:04:14.998Z</time></trkpt><trkpt lat="42.283487422339405" lon="13.970826002445476"><ele>291.0</ele><time>2026-05-02T08:04:15.998Z</time></trkpt><trkpt lat="42.28357206711049" lon="13.970732272218429"><ele>291.0</ele><time>2026-05-02T08:04:16.998Z</time></trkpt><trkpt lat="42.28364895751385" lon="13.970643029012765"><ele>291.0</ele><time>2026-05-02T08:04:17.998Z</time></trkpt><trkpt lat="42.283729861245895" lon="13.970579523271843"><ele>290.8</ele><time>2026-05-02T08:04:18.998Z</time></trkpt><trkpt lat="42.283815043013995" lon="13.970543358893377"><ele>290.6</ele><time>2026-05-02T08:04:19.998Z</time></trkpt><trkpt lat="42.283915097922474" lon="13.970533227830934"><ele>290.4</ele><time>2026-05-02T08:04:20.998Z</time></trkpt><trkpt lat="42.28402498023994" lon="13.970528489364762"><ele>290.2</ele><time>2026-05-02T08:04:21.998Z</time></trkpt><trkpt lat="42.2841315081918" lon="13.970525302316805"><ele>290.0</ele><time>2026-05-02T08:04:22.998Z</time></trkpt><trkpt lat="42.284234380065804" lon="13.970528096486985"><ele>289.25</ele><time>2026-05-02T08:04:23.998Z</time></trkpt><trkpt lat="42.28434985679893" lon="13.970501322030227"><ele>288.5</ele><time>2026-05-02T08:04:24.998Z</time></trkpt><trkpt lat="42.28447664663693" lon="13.970461040803567"><ele>287.75</ele><time>2026-05-02T08:04:25.998Z</time></trkpt><trkpt lat="42.28460816484132" lon="13.97043040605301"><ele>287.0</ele><time>2026-05-02T08:04:26.998Z</time></trkpt><trkpt lat="42.284733338678244" lon="13.97039919565329"><ele>287.2</ele><time>2026-05-02T08:04:27.998Z</time></trkpt><trkpt lat="42.284847574533416" lon="13.97037402448397"><ele>287.4</ele><time>2026-05-02T08:04:28.998Z</time></trkpt><trkpt lat="42.28494610846161" lon="13.97033320420589"><ele>287.6</ele><time>2026-05-02T08:04:29.998Z</time></trkpt><trkpt lat="42.28503440746562" lon="13.970304120997747"><ele>287.8</ele><time>2026-05-02T08:04:30.998Z</time></trkpt><trkpt lat="42.28511450518046" lon="13.97028405980854"><ele>288.0</ele><time>2026-05-02T08:04:31.998Z</time></trkpt><trkpt lat="42.28518475369267" lon="13.970249351001625"><ele>288.0</ele><time>2026-05-02T08:04:32.998Z</time></trkpt><trkpt lat="42.285248008743885" lon="13.97019144946273"><ele>288.0</ele><time>2026-05-02T08:04:33.998Z</time></trkpt><trkpt lat="42.285303252462896" lon="13.970122246462697"><ele>288.0</ele><time>2026-05-02T08:04:34.998Z</time></trkpt><trkpt lat="42.28536435041361" lon="13.970056151601637"><ele>288.0</ele><time>2026-05-02T08:04:35.998Z</time></trkpt><trkpt lat="42.2854112791797" lon="13.969958243442013"><ele>288.0</ele><time>2026-05-02T08:04:36.998Z</time></trkpt><trkpt lat="42.28546205763434" lon="13.969838835405817"><ele>288.0</ele><time>2026-05-02T08:04:37.998Z</time></trkpt><trkpt lat="42.28552008034815" lon="13.969691481889358"><ele>288.0</ele><time>2026-05-02T08:04:38.998Z</time></trkpt><trkpt lat="42.285571583696075" lon="13.969513771315196"><ele>288.0</ele><time>2026-05-02T08:04:39.997Z</time></trkpt><trkpt lat="42.28564921840863" lon="13.969365497663913"><ele>288.0</ele><time>2026-05-02T08:04:40.997Z</time></trkpt><trkpt lat="42.28568899353127" lon="13.969216343262314"><ele>288.0</ele><time>2026-05-02T08:04:41.997Z</time></trkpt><trkpt lat="42.285748053529446" lon="13.96910221188329"><ele>289.6</ele><time>2026-05-02T08:04:42.997Z</time></trkpt><trkpt lat="42.28578857574781" lon="13.968977833254236"><ele>291.20000000000005</ele><time>2026-05-02T08:04:43.997Z</time></trkpt><trkpt lat="42.285815580029286" lon="13.968854604065712"><ele>292.8</ele><time>2026-05-02T08:04:44.997Z</time></trkpt><trkpt lat="42.28586372502865" lon="13.968746590329548"><ele>294.40000000000003</ele><time>2026-05-02T08:04:45.997Z</time></trkpt><trkpt lat="42.28592799421521" lon="13.968641334176676"><ele>296.0</ele><time>2026-05-02T08:04:46.997Z</time></trkpt><trkpt lat="42.28600639406992" lon="13.968544121046623"><ele>296.0</ele><time>2026-05-02T08:04:47.997Z</time></trkpt><trkpt lat="42.28608640233065" lon="13.968440510212652"><ele>296.0</ele><time>2026-05-02T08:04:48.997Z</time></trkpt><trkpt lat="42.28617868926004" lon="13.968345833076452"><ele>296.0</ele><time>2026-05-02T08:04:49.997Z</time></trkpt><trkpt lat="42.286230782617864" lon="13.968221058174793"><ele>296.0</ele><time>2026-05-02T08:04:50.997Z</time></trkpt><trkpt lat="42.28629331143144" lon="13.96810672212061"><ele>296.0</ele><time>2026-05-02T08:04:51.997Z</time></trkpt><trkpt lat="42.286361795995255" lon="13.967997897724938"><ele>296.0</ele><time>2026-05-02T08:04:52.997Z</time></trkpt><trkpt lat="42.28642183160933" lon="13.967879932692894"><ele>296.0</ele><time>2026-05-02T08:04:53.997Z</time></trkpt><trkpt lat="42.28648235861858" lon="13.967752477119392"><ele>296.0</ele><time>2026-05-02T08:04:54.997Z</time></trkpt><trkpt lat="42.28655291147186" lon="13.967626822689192"><ele>296.0</ele><time>2026-05-02T08:04:55.997Z</time></trkpt><trkpt lat="42.28662094133406" lon="13.967510030955177"><ele>296.0</ele><time>2026-05-02T08:04:56.997Z</time></trkpt><trkpt lat="42.28667869823627" lon="13.967402435149179"><ele>296.0</ele><time>2026-05-02T08:04:57.997Z</time></trkpt><trkpt lat="42.28675396436908" lon="13.967312676689456"><ele>296.0</ele><time>2026-05-02T08:04:58.997Z</time></trkpt><trkpt lat="42.286821024386704" lon="13.967205183234661"><ele>296.0</ele><time>2026-05-02T08:04:59.997Z</time></trkpt><trkpt lat="42.28687733272121" lon="13.967108687041828"><ele>296.0</ele><time>2026-05-02T08:05:00.997Z</time></trkpt><trkpt lat="42.28692187692441" lon="13.967029854424199"><ele>296.0</ele><time>2026-05-02T08:05:01.997Z</time></trkpt><trkpt lat="42.286968036263715" lon="13.966936362835245"><ele>296.0</ele><time>2026-05-02T08:05:02.997Z</time></trkpt><trkpt lat="42.287002245846104" lon="13.9668093794657"><ele>296.0</ele><time>2026-05-02T08:05:03.997Z</time></trkpt><trkpt lat="42.286995023486675" lon="13.966678346246669"><ele>296.0</ele><time>2026-05-02T08:05:04.997Z</time></trkpt><trkpt lat="42.28696669733061" lon="13.966540321430063"><ele>296.0</ele><time>2026-05-02T08:05:05.997Z</time></trkpt><trkpt lat="42.28692868803432" lon="13.966388477380475"><ele>296.0</ele><time>2026-05-02T08:05:06.997Z</time></trkpt><trkpt lat="42.28687850578451" lon="13.96620887872214"><ele>298.75</ele><time>2026-05-02T08:05:07.997Z</time></trkpt><trkpt lat="42.286822033527855" lon="13.966015083139315"><ele>301.5</ele><time>2026-05-02T08:05:08.997Z</time></trkpt><trkpt lat="42.28676911733976" lon="13.965830300219398"><ele>304.25</ele><time>2026-05-02T08:05:09.997Z</time></trkpt><trkpt lat="42.286722289365564" lon="13.965666776647849"><ele>307.0</ele><time>2026-05-02T08:05:10.997Z</time></trkpt><trkpt lat="42.28666392482445" lon="13.965520157300382"><ele>308.0</ele><time>2026-05-02T08:05:11.997Z</time></trkpt><trkpt lat="42.2866226186754" lon="13.965376381491865"><ele>309.0</ele><time>2026-05-02T08:05:12.997Z</time></trkpt><trkpt lat="42.28658920590899" lon="13.96525158242873"><ele>310.0</ele><time>2026-05-02T08:05:13.997Z</time></trkpt><trkpt lat="42.286564992204084" lon="13.965139019630286"><ele>311.0</ele><time>2026-05-02T08:05:14.997Z</time></trkpt><trkpt lat="42.286545332838124" lon="13.96501625276732"><ele>312.0</ele><time>2026-05-02T08:05:15.997Z</time></trkpt><trkpt lat="42.28654383599678" lon="13.964888115928245"><ele>312.14285714285717</ele><time>2026-05-02T08:05:16.997Z</time></trkpt><trkpt lat="42.28654815459829" lon="13.964767745997815"><ele>312.2857142857143</ele><time>2026-05-02T08:05:17.997Z</time></trkpt><trkpt lat="42.286552948351776" lon="13.964661395150143"><ele>312.42857142857144</ele><time>2026-05-02T08:05:18.997Z</time></trkpt><trkpt lat="42.28656426774378" lon="13.964569104339102"><ele>312.57142857142856</ele><time>2026-05-02T08:05:19.997Z</time></trkpt><trkpt lat="42.28657199932803" lon="13.964482450232047"><ele>312.7142857142857</ele><time>2026-05-02T08:05:20.997Z</time></trkpt><trkpt lat="42.28658688484485" lon="13.964393850970911"><ele>312.85714285714283</ele><time>2026-05-02T08:05:21.997Z</time></trkpt><trkpt lat="42.286620418069404" lon="13.964302425737426"><ele>313.0</ele><time>2026-05-02T08:05:22.997Z</time></trkpt><trkpt lat="42.28665963283502" lon="13.964207522453698"><ele>313.3333333333333</ele><time>2026-05-02T08:05:23.997Z</time></trkpt><trkpt lat="42.28669753571155" lon="13.964111615514208"><ele>313.66666666666663</ele><time>2026-05-02T08:05:24.997Z</time></trkpt><trkpt lat="42.28674896863325" lon="13.964040458483266"><ele>314.0</ele><time>2026-05-02T08:05:25.997Z</time></trkpt><trkpt lat="42.286792199686865" lon="13.963972259191669"><ele>314.3333333333333</ele><time>2026-05-02T08:05:26.997Z</time></trkpt><trkpt lat="42.28685484942382" lon="13.96383076056586"><ele>314.6666666666667</ele><time>2026-05-02T08:05:28.997Z</time></trkpt><trkpt lat="42.28691416263187" lon="13.96376630906433"><ele>315.0</ele><time>2026-05-02T08:05:29.997Z</time></trkpt><trkpt lat="42.286935107687405" lon="13.963669776382739"><ele>315.0</ele><time>2026-05-02T08:05:30.997Z</time></trkpt><trkpt lat="42.28693122417318" lon="13.963566157619459"><ele>315.0</ele><time>2026-05-02T08:05:31.997Z</time></trkpt><trkpt lat="42.28690903811101" lon="13.963444686772197"><ele>315.0</ele><time>2026-05-02T08:05:32.997Z</time></trkpt><trkpt lat="42.28686071827571" lon="13.96330321157286"><ele>315.0</ele><time>2026-05-02T08:05:33.997Z</time></trkpt><trkpt lat="42.2867917178273" lon="13.963158957145057"><ele>315.0</ele><time>2026-05-02T08:05:34.997Z</time></trkpt><trkpt lat="42.286726939474924" lon="13.96300356805713"><ele>313.3333333333333</ele><time>2026-05-02T08:05:35.997Z</time></trkpt><trkpt lat="42.28665873486316" lon="13.962830485392466"><ele>311.66666666666663</ele><time>2026-05-02T08:05:36.997Z</time></trkpt><trkpt lat="42.28660153039214" lon="13.962631249412441"><ele>310.0</ele><time>2026-05-02T08:05:37.997Z</time></trkpt><trkpt lat="42.2865315833395" lon="13.962431736118338"><ele>310.0</ele><time>2026-05-02T08:05:38.997Z</time></trkpt><trkpt lat="42.286469129502024" lon="13.962225276784977"><ele>310.0</ele><time>2026-05-02T08:05:39.997Z</time></trkpt><trkpt lat="42.286422676769966" lon="13.962012458153527"><ele>310.0</ele><time>2026-05-02T08:05:40.997Z</time></trkpt><trkpt lat="42.28635188175631" lon="13.961833448181933"><ele>309.0</ele><time>2026-05-02T08:05:41.996Z</time></trkpt><trkpt lat="42.286289369059745" lon="13.961657405602065"><ele>308.0</ele><time>2026-05-02T08:05:42.996Z</time></trkpt><trkpt lat="42.28624921552114" lon="13.961484885153393"><ele>307.0</ele><time>2026-05-02T08:05:43.996Z</time></trkpt><trkpt lat="42.286185945625895" lon="13.961349937377792"><ele>306.0</ele><time>2026-05-02T08:05:44.996Z</time></trkpt><trkpt lat="42.286151071095055" lon="13.96120591361526"><ele>306.0</ele><time>2026-05-02T08:05:45.996Z</time></trkpt><trkpt lat="42.28613158777124" lon="13.961049834703568"><ele>306.0</ele><time>2026-05-02T08:05:46.996Z</time></trkpt><trkpt lat="42.286124663153515" lon="13.960914086427952"><ele>306.0</ele><time>2026-05-02T08:05:47.996Z</time></trkpt><trkpt lat="42.2861261743287" lon="13.960744937910988"><ele>306.0</ele><time>2026-05-02T08:05:48.996Z</time></trkpt><trkpt lat="42.286142466115564" lon="13.960591917758848"><ele>305.5</ele><time>2026-05-02T08:05:49.996Z</time></trkpt><trkpt lat="42.28616822545459" lon="13.960441863487084"><ele>305.0</ele><time>2026-05-02T08:05:50.996Z</time></trkpt><trkpt lat="42.28618480446665" lon="13.960279484053986"><ele>304.5</ele><time>2026-05-02T08:05:51.996Z</time></trkpt><trkpt lat="42.28620939779627" lon="13.96012815174852"><ele>304.0</ele><time>2026-05-02T08:05:52.996Z</time></trkpt><trkpt lat="42.28625572000243" lon="13.959986719063131"><ele>304.0</ele><time>2026-05-02T08:05:53.996Z</time></trkpt><trkpt lat="42.28627396165981" lon="13.95988037436758"><ele>304.0</ele><time>2026-05-02T08:05:54.996Z</time></trkpt><trkpt lat="42.28626349261318" lon="13.959790255271878"><ele>304.0</ele><time>2026-05-02T08:05:56.996Z</time></trkpt><trkpt lat="42.28618327722799" lon="13.959711712139539"><ele>304.0</ele><time>2026-05-02T08:05:57.996Z</time></trkpt><trkpt lat="42.286103750002155" lon="13.959619427586846"><ele>304.0</ele><time>2026-05-02T08:05:59.996Z</time></trkpt><trkpt lat="42.286022656625796" lon="13.95955473368031"><ele>304.0</ele><time>2026-05-02T08:06:01.996Z</time></trkpt><trkpt lat="42.28592968085862" lon="13.959527264892"><ele>304.0</ele><time>2026-05-02T08:06:03.996Z</time></trkpt><trkpt lat="42.28585927665013" lon="13.959478241444913"><ele>304.0</ele><time>2026-05-02T08:06:04.996Z</time></trkpt><trkpt lat="42.2857640922326" lon="13.959472722119925"><ele>304.0</ele><time>2026-05-02T08:06:06.996Z</time></trkpt><trkpt lat="42.2862040275975" lon="13.959755642061676"><ele>304.0</ele><time>2026-05-02T08:06:26.996Z</time></trkpt><trkpt lat="42.286246144161744" lon="13.95965647129916"><ele>304.0</ele><time>2026-05-02T08:06:29.996Z</time></trkpt><trkpt lat="42.28625144747854" lon="13.959534691403716"><ele>304.0</ele><time>2026-05-02T08:06:31.996Z</time></trkpt><trkpt lat="42.28627932972086" lon="13.959444376361004"><ele>304.0</ele><time>2026-05-02T08:06:32.996Z</time></trkpt><trkpt lat="42.28625253682291" lon="13.959355712730575"><ele>304.0</ele><time>2026-05-02T08:06:33.996Z</time></trkpt><trkpt lat="42.28623151568554" lon="13.959248782719337"><ele>304.0</ele><time>2026-05-02T08:06:34.996Z</time></trkpt><trkpt lat="42.28619074111606" lon="13.959150671534948"><ele>302.66666666666663</ele><time>2026-05-02T08:06:35.996Z</time></trkpt><trkpt lat="42.28614810663143" lon="13.959071436156199"><ele>301.3333333333333</ele><time>2026-05-02T08:06:36.996Z</time></trkpt><trkpt lat="42.286088654841116" lon="13.958993591496112"><ele>300.0</ele><time>2026-05-02T08:06:37.996Z</time></trkpt><trkpt lat="42.286023594023284" lon="13.95890843631991"><ele>298.6666666666667</ele><time>2026-05-02T08:06:38.996Z</time></trkpt><trkpt lat="42.285947964885274" lon="13.958824798362539"><ele>297.33333333333337</ele><time>2026-05-02T08:06:39.996Z</time></trkpt><trkpt lat="42.285909354978074" lon="13.958749525456497"><ele>296.0</ele><time>2026-05-02T08:06:40.996Z</time></trkpt><trkpt lat="42.2858314725243" lon="13.958657628952707"><ele>296.0</ele><time>2026-05-02T08:06:41.996Z</time></trkpt><trkpt lat="42.28575627843061" lon="13.958568043034441"><ele>296.0</ele><time>2026-05-02T08:06:42.996Z</time></trkpt><trkpt lat="42.28569690018642" lon="13.958488880344081"><ele>296.0</ele><time>2026-05-02T08:06:43.996Z</time></trkpt><trkpt lat="42.285653223938354" lon="13.95842109964198"><ele>296.0</ele><time>2026-05-02T08:06:44.996Z</time></trkpt><trkpt lat="42.28561562756594" lon="13.958287449504093"><ele>296.0</ele><time>2026-05-02T08:06:46.996Z</time></trkpt><trkpt lat="42.28553061143362" lon="13.958178636358793"><ele>295.40000000000003</ele><time>2026-05-02T08:06:48.996Z</time></trkpt><trkpt lat="42.28545937786466" lon="13.95814222924408"><ele>294.8</ele><time>2026-05-02T08:06:49.996Z</time></trkpt><trkpt lat="42.28537960148001" lon="13.958107296319993"><ele>294.20000000000005</ele><time>2026-05-02T08:06:50.996Z</time></trkpt><trkpt lat="42.285311541623386" lon="13.958094246766409"><ele>293.6</ele><time>2026-05-02T08:06:51.996Z</time></trkpt><trkpt lat="42.28521972900562" lon="13.958016586385709"><ele>293.0</ele><time>2026-05-02T08:06:53.996Z</time></trkpt><trkpt lat="42.285120042864314" lon="13.957860689468303"><ele>293.0</ele><time>2026-05-02T08:06:55.996Z</time></trkpt><trkpt lat="42.285085033736316" lon="13.957747349628411"><ele>293.0</ele><time>2026-05-02T08:06:56.996Z</time></trkpt><trkpt lat="42.28503514646641" lon="13.957660812744031"><ele>293.0</ele><time>2026-05-02T08:06:57.996Z</time></trkpt><trkpt lat="42.28498591248414" lon="13.957567079738386"><ele>293.0</ele><time>2026-05-02T08:06:58.996Z</time></trkpt><trkpt lat="42.28495622658677" lon="13.957447208367622"><ele>293.0</ele><time>2026-05-02T08:06:59.996Z</time></trkpt><trkpt lat="42.284898016916074" lon="13.957369952174469"><ele>293.0</ele><time>2026-05-02T08:07:00.996Z</time></trkpt><trkpt lat="42.284832788106335" lon="13.957244006019915"><ele>293.0</ele><time>2026-05-02T08:07:02.996Z</time></trkpt><trkpt lat="42.28476318251203" lon="13.957377254678928"><ele>293.0</ele><time>2026-05-02T08:07:09.995Z</time></trkpt><trkpt lat="42.28485540247895" lon="13.957455829495814"><ele>293.0</ele><time>2026-05-02T08:07:10.995Z</time></trkpt><trkpt lat="42.28493426512266" lon="13.957568323639714"><ele>293.0</ele><time>2026-05-02T08:07:11.995Z</time></trkpt><trkpt lat="42.285012410559894" lon="13.95766628971218"><ele>293.0</ele><time>2026-05-02T08:07:12.995Z</time></trkpt><trkpt lat="42.28505234709854" lon="13.957781642414876"><ele>293.0</ele><time>2026-05-02T08:07:13.995Z</time></trkpt><trkpt lat="42.285099142808924" lon="13.957875420379882"><ele>293.0</ele><time>2026-05-02T08:07:14.995Z</time></trkpt><trkpt lat="42.28513512273343" lon="13.957948784577134"><ele>293.0</ele><time>2026-05-02T08:07:15.995Z</time></trkpt><trkpt lat="42.28506815095693" lon="13.957852923737786"><ele>293.0</ele><time>2026-05-02T08:07:19.995Z</time></trkpt><trkpt lat="42.28494577866335" lon="13.957823985397573"><ele>293.0</ele><time>2026-05-02T08:07:20.995Z</time></trkpt><trkpt lat="42.284852110371176" lon="13.95777527010078"><ele>293.0</ele><time>2026-05-02T08:07:21.995Z</time></trkpt><trkpt lat="42.284750170695204" lon="13.95776835760404"><ele>293.0</ele><time>2026-05-02T08:07:22.995Z</time></trkpt><trkpt lat="42.284656578958874" lon="13.957702043116772"><ele>293.0</ele><time>2026-05-02T08:07:23.995Z</time></trkpt><trkpt lat="42.284587198192206" lon="13.957607807378064"><ele>293.0</ele><time>2026-05-02T08:07:24.995Z</time></trkpt><trkpt lat="42.28448617238666" lon="13.957541970036976"><ele>291.0</ele><time>2026-05-02T08:07:25.995Z</time></trkpt><trkpt lat="42.28437572271293" lon="13.957459926400842"><ele>289.0</ele><time>2026-05-02T08:07:26.995Z</time></trkpt><trkpt lat="42.284285838362806" lon="13.957390662372436"><ele>287.0</ele><time>2026-05-02T08:07:27.995Z</time></trkpt><trkpt lat="42.284195667433366" lon="13.957311237307945"><ele>285.0</ele><time>2026-05-02T08:07:28.995Z</time></trkpt><trkpt lat="42.28410912596972" lon="13.957206042994349"><ele>285.0</ele><time>2026-05-02T08:07:29.995Z</time></trkpt><trkpt lat="42.284009909884226" lon="13.95707273130928"><ele>285.0</ele><time>2026-05-02T08:07:30.995Z</time></trkpt><trkpt lat="42.283907636820395" lon="13.956937765240362"><ele>285.0</ele><time>2026-05-02T08:07:31.995Z</time></trkpt><trkpt lat="42.28378665301078" lon="13.956783437398814"><ele>285.0</ele><time>2026-05-02T08:07:32.995Z</time></trkpt><trkpt lat="42.28367402391793" lon="13.956636283166592"><ele>283.0</ele><time>2026-05-02T08:07:33.995Z</time></trkpt><trkpt lat="42.283594511625104" lon="13.956486106593458"><ele>281.0</ele><time>2026-05-02T08:07:34.995Z</time></trkpt><trkpt lat="42.28352115104697" lon="13.956360830375546"><ele>279.0</ele><time>2026-05-02T08:07:35.995Z</time></trkpt><trkpt lat="42.28343388981005" lon="13.956257862217505"><ele>277.0</ele><time>2026-05-02T08:07:36.995Z</time></trkpt><trkpt lat="42.28336009052625" lon="13.95615070464517"><ele>277.0</ele><time>2026-05-02T08:07:37.995Z</time></trkpt><trkpt lat="42.28330168854804" lon="13.956057434386762"><ele>277.0</ele><time>2026-05-02T08:07:38.995Z</time></trkpt><trkpt lat="42.28320105612106" lon="13.955954695388805"><ele>277.0</ele><time>2026-05-02T08:07:39.995Z</time></trkpt><trkpt lat="42.283083777343755" lon="13.955814358471446"><ele>277.0</ele><time>2026-05-02T08:07:40.995Z</time></trkpt><trkpt lat="42.28295363902439" lon="13.955667377906588"><ele>274.3333333333333</ele><time>2026-05-02T08:07:41.995Z</time></trkpt><trkpt lat="42.282828586262525" lon="13.955529725425178"><ele>271.6666666666667</ele><time>2026-05-02T08:07:42.995Z</time></trkpt><trkpt lat="42.282714218599324" lon="13.955385690394625"><ele>269.0</ele><time>2026-05-02T08:07:43.995Z</time></trkpt><trkpt lat="42.28260898695834" lon="13.955242629469264"><ele>269.0</ele><time>2026-05-02T08:07:44.995Z</time></trkpt><trkpt lat="42.28253853648837" lon="13.95511914521695"><ele>269.0</ele><time>2026-05-02T08:07:45.995Z</time></trkpt><trkpt lat="42.28245694914813" lon="13.9550482252491"><ele>269.0</ele><time>2026-05-02T08:07:46.995Z</time></trkpt><trkpt lat="42.28236926694715" lon="13.954997461213472"><ele>269.0</ele><time>2026-05-02T08:07:47.995Z</time></trkpt><trkpt lat="42.2822759022816" lon="13.95495223854474"><ele>269.0</ele><time>2026-05-02T08:07:48.995Z</time></trkpt><trkpt lat="42.282153724231144" lon="13.954918283708196"><ele>267.0</ele><time>2026-05-02T08:07:49.995Z</time></trkpt><trkpt lat="42.28200360350166" lon="13.954887015787573"><ele>265.0</ele><time>2026-05-02T08:07:50.995Z</time></trkpt><trkpt lat="42.28186529957367" lon="13.954901554263047"><ele>263.0</ele><time>2026-05-02T08:07:51.995Z</time></trkpt><trkpt lat="42.28175149856035" lon="13.954913196408071"><ele>261.0</ele><time>2026-05-02T08:07:52.995Z</time></trkpt><trkpt lat="42.28162999987324" lon="13.954904612223668"><ele>261.0</ele><time>2026-05-02T08:07:53.995Z</time></trkpt><trkpt lat="42.28151664256401" lon="13.954891070822837"><ele>261.0</ele><time>2026-05-02T08:07:54.995Z</time></trkpt><trkpt lat="42.28143403097375" lon="13.95485656537437"><ele>261.0</ele><time>2026-05-02T08:07:55.995Z</time></trkpt><trkpt lat="42.28135309506801" lon="13.954783346961827"><ele>261.0</ele><time>2026-05-02T08:07:56.995Z</time></trkpt><trkpt lat="42.28126611323055" lon="13.954669529862723"><ele>261.0</ele><time>2026-05-02T08:07:57.995Z</time></trkpt><trkpt lat="42.281151527230875" lon="13.954542203524005"><ele>260.0</ele><time>2026-05-02T08:07:58.995Z</time></trkpt><trkpt lat="42.28104488460999" lon="13.954433164467806"><ele>259.0</ele><time>2026-05-02T08:07:59.995Z</time></trkpt><trkpt lat="42.28089666679876" lon="13.954356835671026"><ele>258.0</ele><time>2026-05-02T08:08:00.995Z</time></trkpt><trkpt lat="42.28073691334073" lon="13.95429305303859"><ele>254.5</ele><time>2026-05-02T08:08:01.995Z</time></trkpt><trkpt lat="42.28059336199966" lon="13.954186216847917"><ele>251.0</ele><time>2026-05-02T08:08:02.995Z</time></trkpt><trkpt lat="42.280470305024615" lon="13.954084057037893"><ele>247.5</ele><time>2026-05-02T08:08:03.995Z</time></trkpt><trkpt lat="42.28036194945081" lon="13.954010110831637"><ele>244.0</ele><time>2026-05-02T08:08:04.995Z</time></trkpt><trkpt lat="42.28026744565847" lon="13.95395902114045"><ele>244.0</ele><time>2026-05-02T08:08:05.995Z</time></trkpt><trkpt lat="42.280168713646596" lon="13.953913093084436"><ele>243.99999999999997</ele><time>2026-05-02T08:08:06.995Z</time></trkpt><trkpt lat="42.28007386869681" lon="13.953884759047092"><ele>243.99999999999997</ele><time>2026-05-02T08:08:07.995Z</time></trkpt><trkpt lat="42.279974688518266" lon="13.953878177676573"><ele>244.0</ele><time>2026-05-02T08:08:08.995Z</time></trkpt><trkpt lat="42.27986650480702" lon="13.953881999951214"><ele>244.0</ele><time>2026-05-02T08:08:09.995Z</time></trkpt><trkpt lat="42.27974971818304" lon="13.95388744947221"><ele>243.75</ele><time>2026-05-02T08:08:10.995Z</time></trkpt><trkpt lat="42.279626790496685" lon="13.953831320395961"><ele>243.5</ele><time>2026-05-02T08:08:11.995Z</time></trkpt><trkpt lat="42.27950710096936" lon="13.9537509676632"><ele>243.25</ele><time>2026-05-02T08:08:12.995Z</time></trkpt><trkpt lat="42.279367318255375" lon="13.953691598673391"><ele>243.0</ele><time>2026-05-02T08:08:13.995Z</time></trkpt><trkpt lat="42.279245327626974" lon="13.95365159570836"><ele>243.0</ele><time>2026-05-02T08:08:14.995Z</time></trkpt><trkpt lat="42.2791081811435" lon="13.953614983921"><ele>243.0</ele><time>2026-05-02T08:08:15.995Z</time></trkpt><trkpt lat="42.27897437594223" lon="13.95358016888125"><ele>243.0</ele><time>2026-05-02T08:08:16.995Z</time></trkpt><trkpt lat="42.27885505956214" lon="13.953526246845716"><ele>243.0</ele><time>2026-05-02T08:08:17.995Z</time></trkpt><trkpt lat="42.27873537473963" lon="13.953505625203633"><ele>244.25</ele><time>2026-05-02T08:08:18.995Z</time></trkpt><trkpt lat="42.27861723857249" lon="13.953442611710008"><ele>245.5</ele><time>2026-05-02T08:08:19.995Z</time></trkpt><trkpt lat="42.278480903349056" lon="13.95340043014103"><ele>246.75</ele><time>2026-05-02T08:08:20.995Z</time></trkpt><trkpt lat="42.278355697515124" lon="13.953356497109409"><ele>248.0</ele><time>2026-05-02T08:08:21.995Z</time></trkpt><trkpt lat="42.27821970935686" lon="13.953331686357586"><ele>245.25</ele><time>2026-05-02T08:08:22.995Z</time></trkpt><trkpt lat="42.27810412282476" lon="13.9532799623275"><ele>242.5</ele><time>2026-05-02T08:08:23.995Z</time></trkpt><trkpt lat="42.277976222911114" lon="13.953244942515454"><ele>239.75</ele><time>2026-05-02T08:08:24.995Z</time></trkpt><trkpt lat="42.2778411985153" lon="13.95320991867716"><ele>237.0</ele><time>2026-05-02T08:08:25.995Z</time></trkpt><trkpt lat="42.2777090477981" lon="13.95317565051052"><ele>237.0</ele><time>2026-05-02T08:08:26.995Z</time></trkpt><trkpt lat="42.27759401863643" lon="13.953162963246347"><ele>237.0</ele><time>2026-05-02T08:08:27.995Z</time></trkpt><trkpt lat="42.27750963696052" lon="13.953121345714669"><ele>237.0</ele><time>2026-05-02T08:08:28.995Z</time></trkpt><trkpt lat="42.2774422997749" lon="13.953102891412694"><ele>237.0</ele><time>2026-05-02T08:08:29.995Z</time></trkpt><trkpt lat="42.277369065677966" lon="13.953080911631664"><ele>237.0</ele><time>2026-05-02T08:08:30.995Z</time></trkpt><trkpt lat="42.27730090605383" lon="13.953076568518272"><ele>237.0</ele><time>2026-05-02T08:08:31.995Z</time></trkpt><trkpt lat="42.27724084209567" lon="13.95303614828203"><ele>237.0</ele><time>2026-05-02T08:08:32.995Z</time></trkpt><trkpt lat="42.27737526530212" lon="13.95305579438734"><ele>237.0</ele><time>2026-05-02T08:08:39.999Z</time></trkpt><trkpt lat="42.277467508465755" lon="13.953083436314259"><ele>237.0</ele><time>2026-05-02T08:08:40.999Z</time></trkpt><trkpt lat="42.277534475269334" lon="13.953066901540218"><ele>237.0</ele><time>2026-05-02T08:08:41.999Z</time></trkpt><trkpt lat="42.27765986634901" lon="13.95297820917159"><ele>237.0</ele><time>2026-05-02T08:08:43.999Z</time></trkpt><trkpt lat="42.27773037861574" lon="13.952927790228857"><ele>237.0</ele><time>2026-05-02T08:08:44.999Z</time></trkpt><trkpt lat="42.277789134805836" lon="13.952862172440685"><ele>237.0</ele><time>2026-05-02T08:08:45.999Z</time></trkpt><trkpt lat="42.277839109669515" lon="13.95270918384549"><ele>237.0</ele><time>2026-05-02T08:08:47.999Z</time></trkpt><trkpt lat="42.27783113139719" lon="13.952620538052932"><ele>237.0</ele><time>2026-05-02T08:08:48.999Z</time></trkpt><trkpt lat="42.27783243876676" lon="13.952531916690436"><ele>237.0</ele><time>2026-05-02T08:08:49.999Z</time></trkpt><trkpt lat="42.27776801579099" lon="13.952397264725457"><ele>234.6</ele><time>2026-05-02T08:08:51.999Z</time></trkpt><trkpt lat="42.27766948108759" lon="13.95231789400183"><ele>232.2</ele><time>2026-05-02T08:08:53.999Z</time></trkpt><trkpt lat="42.277596335040215" lon="13.952262462120368"><ele>229.8</ele><time>2026-05-02T08:08:54.999Z</time></trkpt><trkpt lat="42.277518215344905" lon="13.952249276899336"><ele>227.4</ele><time>2026-05-02T08:08:55.999Z</time></trkpt><trkpt lat="42.27744937823128" lon="13.952221168720383"><ele>225.0</ele><time>2026-05-02T08:08:56.999Z</time></trkpt><trkpt lat="42.27735595218102" lon="13.952171507041875"><ele>225.0</ele><time>2026-05-02T08:08:58.999Z</time></trkpt><trkpt lat="42.277354649589114" lon="13.952041134638318"><ele>225.0</ele><time>2026-05-02T08:09:00.999Z</time></trkpt><trkpt lat="42.27735596948903" lon="13.95195074739835"><ele>225.0</ele><time>2026-05-02T08:09:01.999Z</time></trkpt><trkpt lat="42.27737397111091" lon="13.951806611285418"><ele>225.0</ele><time>2026-05-02T08:09:03.999Z</time></trkpt><trkpt lat="42.277387525486255" lon="13.951681434447"><ele>225.0</ele><time>2026-05-02T08:09:05.999Z</time></trkpt><trkpt lat="42.277398833094985" lon="13.951594986725867"><ele>225.0</ele><time>2026-05-02T08:09:06.999Z</time></trkpt><trkpt lat="42.27743958704326" lon="13.951457483607381"><ele>222.6</ele><time>2026-05-02T08:09:08.999Z</time></trkpt><trkpt lat="42.27754463275916" lon="13.951473908916228"><ele>220.2</ele><time>2026-05-02T08:09:10.999Z</time></trkpt><trkpt lat="42.277654658019145" lon="13.95151663279695"><ele>217.8</ele><time>2026-05-02T08:09:12.999Z</time></trkpt><trkpt lat="42.277717175524074" lon="13.951526920463186"><ele>215.4</ele><time>2026-05-02T08:09:14.999Z</time></trkpt><trkpt lat="42.27773893655724" lon="13.95141712330089"><ele>213.0</ele><time>2026-05-02T08:09:17.999Z</time></trkpt><trkpt lat="42.277677193116276" lon="13.951318184298367"><ele>213.0</ele><time>2026-05-02T08:09:19.999Z</time></trkpt><trkpt lat="42.27763421032381" lon="13.951227314979679"><ele>213.0</ele><time>2026-05-02T08:09:20.999Z</time></trkpt><trkpt lat="42.277577098337595" lon="13.951132056712435"><ele>213.0</ele><time>2026-05-02T08:09:21.999Z</time></trkpt><trkpt lat="42.27753802702291" lon="13.951033979255099"><ele>213.0</ele><time>2026-05-02T08:09:22.999Z</time></trkpt><trkpt lat="42.27752150041759" lon="13.950913220000828"><ele>213.0</ele><time>2026-05-02T08:09:23.999Z</time></trkpt><trkpt lat="42.277496836256404" lon="13.950819781994271"><ele>213.0</ele><time>2026-05-02T08:09:24.999Z</time></trkpt><trkpt lat="42.27746427687819" lon="13.95074469255406"><ele>210.60000000000002</ele><time>2026-05-02T08:09:25.999Z</time></trkpt><trkpt lat="42.277405447837545" lon="13.950641635562345"><ele>208.20000000000002</ele><time>2026-05-02T08:09:26.999Z</time></trkpt><trkpt lat="42.277345462378584" lon="13.950543463564427"><ele>205.8</ele><time>2026-05-02T08:09:27.999Z</time></trkpt><trkpt lat="42.27727832966815" lon="13.950425622983074"><ele>203.4</ele><time>2026-05-02T08:09:28.999Z</time></trkpt><trkpt lat="42.27721191099731" lon="13.950323445625894"><ele>201.0</ele><time>2026-05-02T08:09:29.999Z</time></trkpt><trkpt lat="42.27713846455098" lon="13.950228917592574"><ele>201.0</ele><time>2026-05-02T08:09:30.999Z</time></trkpt><trkpt lat="42.277077539771504" lon="13.950188787645594"><ele>201.0</ele><time>2026-05-02T08:09:31.999Z</time></trkpt><trkpt lat="42.277024270006955" lon="13.950139113466138"><ele>201.0</ele><time>2026-05-02T08:09:32.999Z</time></trkpt><trkpt lat="42.27693093063339" lon="13.950091809407079"><ele>201.0</ele><time>2026-05-02T08:09:34.999Z</time></trkpt><trkpt lat="42.27688120282673" lon="13.95000361501212"><ele>201.0</ele><time>2026-05-02T08:09:36.999Z</time></trkpt><trkpt lat="42.2768847031642" lon="13.94988228666029"><ele>201.0</ele><time>2026-05-02T08:09:38.999Z</time></trkpt><trkpt lat="42.27699489343937" lon="13.949855144192092"><ele>199.66666666666666</ele><time>2026-05-02T08:09:40.999Z</time></trkpt><trkpt lat="42.27709217702641" lon="13.94987334993657"><ele>198.33333333333331</ele><time>2026-05-02T08:09:41.999Z</time></trkpt><trkpt lat="42.2771756332765" lon="13.94987185333155"><ele>197.0</ele><time>2026-05-02T08:09:42.999Z</time></trkpt><trkpt lat="42.27724479405931" lon="13.949872632842238"><ele>195.66666666666666</ele><time>2026-05-02T08:09:43.999Z</time></trkpt><trkpt lat="42.277334613267044" lon="13.949811148855362"><ele>194.33333333333331</ele><time>2026-05-02T08:09:45.999Z</time></trkpt><trkpt lat="42.27735844163749" lon="13.949723459260817"><ele>193.0</ele><time>2026-05-02T08:09:46.999Z</time></trkpt><trkpt lat="42.277374938908366" lon="13.949625173168222"><ele>192.99999999999997</ele><time>2026-05-02T08:09:47.999Z</time></trkpt><trkpt lat="42.27737315339343" lon="13.94952280705008"><ele>193.0</ele><time>2026-05-02T08:09:48.999Z</time></trkpt><trkpt lat="42.27736270800278" lon="13.949402255414876"><ele>193.0</ele><time>2026-05-02T08:09:49.999Z</time></trkpt><trkpt lat="42.27729869575816" lon="13.949342466927064"><ele>193.0</ele><time>2026-05-02T08:09:51.999Z</time></trkpt><trkpt lat="42.27723839997392" lon="13.949312105871973"><ele>192.99999999999997</ele><time>2026-05-02T08:09:52.999Z</time></trkpt><trkpt lat="42.27710488985772" lon="13.949285135908578"><ele>193.0</ele><time>2026-05-02T08:09:54.999Z</time></trkpt><trkpt lat="42.27698899822847" lon="13.949219654785582"><ele>191.60000000000002</ele><time>2026-05-02T08:09:56.999Z</time></trkpt><trkpt lat="42.276927116260914" lon="13.949154136776864"><ele>190.20000000000002</ele><time>2026-05-02T08:09:57.999Z</time></trkpt><trkpt lat="42.276837472818315" lon="13.94903747511607"><ele>188.8</ele><time>2026-05-02T08:09:58.999Z</time></trkpt><trkpt lat="42.27675219851256" lon="13.948943750489912"><ele>187.4</ele><time>2026-05-02T08:09:59.999Z</time></trkpt><trkpt lat="42.27668674956069" lon="13.948852949554814"><ele>186.0</ele><time>2026-05-02T08:10:00.999Z</time></trkpt><trkpt lat="42.276638575107064" lon="13.948761268319233"><ele>186.0</ele><time>2026-05-02T08:10:01.999Z</time></trkpt><trkpt lat="42.27660122447742" lon="13.948633576725229"><ele>186.0</ele><time>2026-05-02T08:10:02.999Z</time></trkpt><trkpt lat="42.276580861548965" lon="13.94848127004158"><ele>186.0</ele><time>2026-05-02T08:10:03.999Z</time></trkpt><trkpt lat="42.27655114974174" lon="13.9483591455472"><ele>186.0</ele><time>2026-05-02T08:10:04.999Z</time></trkpt><trkpt lat="42.2765296977795" lon="13.948232318430323"><ele>186.0</ele><time>2026-05-02T08:10:05.999Z</time></trkpt><trkpt lat="42.27652365840662" lon="13.948117944017298"><ele>187.0</ele><time>2026-05-02T08:10:06.999Z</time></trkpt><trkpt lat="42.27650439617782" lon="13.947970460675513"><ele>188.0</ele><time>2026-05-02T08:10:07.999Z</time></trkpt><trkpt lat="42.27648557119876" lon="13.947816715038174"><ele>189.0</ele><time>2026-05-02T08:10:08.999Z</time></trkpt><trkpt lat="42.276466254577684" lon="13.947673918996617"><ele>190.0</ele><time>2026-05-02T08:10:09.999Z</time></trkpt><trkpt lat="42.27644648082766" lon="13.947543104274539"><ele>191.0</ele><time>2026-05-02T08:10:10.999Z</time></trkpt><trkpt lat="42.27642429282333" lon="13.94740445667438"><ele>191.60000000000002</ele><time>2026-05-02T08:10:11.999Z</time></trkpt><trkpt lat="42.27640202677536" lon="13.94725015392647"><ele>192.2</ele><time>2026-05-02T08:10:12.999Z</time></trkpt><trkpt lat="42.276384491689846" lon="13.947099070249413"><ele>192.8</ele><time>2026-05-02T08:10:13.999Z</time></trkpt><trkpt lat="42.27636823253166" lon="13.946948576693263"><ele>193.39999999999998</ele><time>2026-05-02T08:10:14.999Z</time></trkpt><trkpt lat="42.27633968497862" lon="13.946823143879358"><ele>194.0</ele><time>2026-05-02T08:10:15.999Z</time></trkpt><trkpt lat="42.27630680376188" lon="13.946683179222212"><ele>194.00000000000003</ele><time>2026-05-02T08:10:16.999Z</time></trkpt><trkpt lat="42.27627850814197" lon="13.94653437078816"><ele>194.0</ele><time>2026-05-02T08:10:17.999Z</time></trkpt><trkpt lat="42.27625649015788" lon="13.946425235076706"><ele>194.0</ele><time>2026-05-02T08:10:18.999Z</time></trkpt><trkpt lat="42.27623695233043" lon="13.946340634561224"><ele>194.0</ele><time>2026-05-02T08:10:19.999Z</time></trkpt><trkpt lat="42.27619969242277" lon="13.946233029866605"><ele>194.00000000000003</ele><time>2026-05-02T08:10:21.999Z</time></trkpt><trkpt lat="42.27614755772822" lon="13.946163733311973"><ele>194.0</ele><time>2026-05-02T08:10:22.999Z</time></trkpt><trkpt lat="42.27606693491851" lon="13.946103765371586"><ele>194.0</ele><time>2026-05-02T08:10:23.999Z</time></trkpt><trkpt lat="42.27597267691913" lon="13.946048894939368"><ele>194.0</ele><time>2026-05-02T08:10:24.999Z</time></trkpt><trkpt lat="42.27587852415984" lon="13.945984231691506"><ele>194.0</ele><time>2026-05-02T08:10:25.999Z</time></trkpt><trkpt lat="42.27578831967083" lon="13.945927421673408"><ele>194.0</ele><time>2026-05-02T08:10:26.999Z</time></trkpt><trkpt lat="42.27570416522741" lon="13.945869828228076"><ele>194.0</ele><time>2026-05-02T08:10:27.999Z</time></trkpt><trkpt lat="42.275629192689564" lon="13.945815397111472"><ele>193.79999999999998</ele><time>2026-05-02T08:10:28.999Z</time></trkpt><trkpt lat="42.27556274473442" lon="13.945754387423213"><ele>193.6</ele><time>2026-05-02T08:10:29.999Z</time></trkpt><trkpt lat="42.275510217468955" lon="13.94569720350666"><ele>193.4</ele><time>2026-05-02T08:10:30.999Z</time></trkpt><trkpt lat="42.27546371287612" lon="13.945556760173549"><ele>193.2</ele><time>2026-05-02T08:10:32.999Z</time></trkpt><trkpt lat="42.275498428169264" lon="13.945414248342752"><ele>193.0</ele><time>2026-05-02T08:10:34.999Z</time></trkpt><trkpt lat="42.27559124452454" lon="13.945369457416701"><ele>196.2</ele><time>2026-05-02T08:10:36.999Z</time></trkpt><trkpt lat="42.27566766018721" lon="13.945358257897755"><ele>199.4</ele><time>2026-05-02T08:10:37.999Z</time></trkpt><trkpt lat="42.27574457258353" lon="13.945343488159335"><ele>202.6</ele><time>2026-05-02T08:10:38.999Z</time></trkpt><trkpt lat="42.27583860748335" lon="13.945320840614063"><ele>205.79999999999998</ele><time>2026-05-02T08:10:39.999Z</time></trkpt><trkpt lat="42.27593936179142" lon="13.945306122085384"><ele>209.0</ele><time>2026-05-02T08:10:40.999Z</time></trkpt><trkpt lat="42.27603873748368" lon="13.945284150183552"><ele>209.0</ele><time>2026-05-02T08:10:41.999Z</time></trkpt><trkpt lat="42.27615667478915" lon="13.945261571519785"><ele>209.0</ele><time>2026-05-02T08:10:42.999Z</time></trkpt><trkpt lat="42.276295780899495" lon="13.945238792568711"><ele>209.0</ele><time>2026-05-02T08:10:43.999Z</time></trkpt><trkpt lat="42.27641925663705" lon="13.945204765456058"><ele>209.0</ele><time>2026-05-02T08:10:44.999Z</time></trkpt><trkpt lat="42.27655558039749" lon="13.945174675829488"><ele>210.6</ele><time>2026-05-02T08:10:45.999Z</time></trkpt><trkpt lat="42.27666237073684" lon="13.945155059433"><ele>212.2</ele><time>2026-05-02T08:10:46.999Z</time></trkpt><trkpt lat="42.27675855427311" lon="13.945123753950687"><ele>213.79999999999998</ele><time>2026-05-02T08:10:47.999Z</time></trkpt><trkpt lat="42.276852042353504" lon="13.945086740154457"><ele>215.39999999999998</ele><time>2026-05-02T08:10:48.999Z</time></trkpt><trkpt lat="42.27691925942458" lon="13.945032157833884"><ele>217.0</ele><time>2026-05-02T08:10:49.999Z</time></trkpt><trkpt lat="42.27699156500638" lon="13.94491121514116"><ele>217.83333333333331</ele><time>2026-05-02T08:10:51.999Z</time></trkpt><trkpt lat="42.27702006688174" lon="13.944818610430941"><ele>218.66666666666666</ele><time>2026-05-02T08:10:52.999Z</time></trkpt><trkpt lat="42.27705123656664" lon="13.944712776154093"><ele>219.5</ele><time>2026-05-02T08:10:53.999Z</time></trkpt><trkpt lat="42.277078527925426" lon="13.944620811652634"><ele>220.33333333333331</ele><time>2026-05-02T08:10:54.999Z</time></trkpt><trkpt lat="42.27710598496015" lon="13.944474756200362"><ele>221.16666666666666</ele><time>2026-05-02T08:10:56.998Z</time></trkpt><trkpt lat="42.27712595942506" lon="13.944350400241959"><ele>222.0</ele><time>2026-05-02T08:10:58.998Z</time></trkpt><trkpt lat="42.2771565876332" lon="13.944206060173364"><ele>222.16666666666666</ele><time>2026-05-02T08:11:00.998Z</time></trkpt><trkpt lat="42.277171999824496" lon="13.944117197901754"><ele>222.33333333333331</ele><time>2026-05-02T08:11:01.998Z</time></trkpt><trkpt lat="42.27718689490054" lon="13.944015071840074"><ele>222.5</ele><time>2026-05-02T08:11:02.998Z</time></trkpt><trkpt lat="42.27720220393658" lon="13.943900168473975"><ele>222.66666666666666</ele><time>2026-05-02T08:11:03.998Z</time></trkpt><trkpt lat="42.27722300207516" lon="13.943784582869881"><ele>222.83333333333331</ele><time>2026-05-02T08:11:04.998Z</time></trkpt><trkpt lat="42.27722670129669" lon="13.943663199132557"><ele>223.0</ele><time>2026-05-02T08:11:05.998Z</time></trkpt><trkpt lat="42.27720314114865" lon="13.943547377246466"><ele>223.0</ele><time>2026-05-02T08:11:06.998Z</time></trkpt><trkpt lat="42.277188936490965" lon="13.943436604031358"><ele>223.0</ele><time>2026-05-02T08:11:07.998Z</time></trkpt><trkpt lat="42.27716914805241" lon="13.943343998389889"><ele>223.0</ele><time>2026-05-02T08:11:08.998Z</time></trkpt><trkpt lat="42.27712823265866" lon="13.9432679187863"><ele>223.0</ele><time>2026-05-02T08:11:09.998Z</time></trkpt><trkpt lat="42.277079207000156" lon="13.943192931592344"><ele>223.0</ele><time>2026-05-02T08:11:10.998Z</time></trkpt><trkpt lat="42.27702637835673" lon="13.943129127632126"><ele>223.0</ele><time>2026-05-02T08:11:11.998Z</time></trkpt><trkpt lat="42.27696044987448" lon="13.943090794684444"><ele>223.0</ele><time>2026-05-02T08:11:12.998Z</time></trkpt><trkpt lat="42.27685594428368" lon="13.943034810740548"><ele>224.2</ele><time>2026-05-02T08:11:14.998Z</time></trkpt><trkpt lat="42.2767768639258" lon="13.943004710181922"><ele>225.4</ele><time>2026-05-02T08:11:16.998Z</time></trkpt><trkpt lat="42.276682646711286" lon="13.942963053006986"><ele>226.59999999999997</ele><time>2026-05-02T08:11:18.998Z</time></trkpt><trkpt lat="42.27656061801781" lon="13.942925240535267"><ele>227.79999999999998</ele><time>2026-05-02T08:11:20.998Z</time></trkpt><trkpt lat="42.27647516410437" lon="13.942885700166084"><ele>229.0</ele><time>2026-05-02T08:11:21.998Z</time></trkpt><trkpt lat="42.276379157214244" lon="13.942868382581896"><ele>229.6</ele><time>2026-05-02T08:11:22.998Z</time></trkpt><trkpt lat="42.27626815449215" lon="13.942854558576178"><ele>230.2</ele><time>2026-05-02T08:11:23.998Z</time></trkpt><trkpt lat="42.27619910693125" lon="13.942835169743956"><ele>230.79999999999998</ele><time>2026-05-02T08:11:24.998Z</time></trkpt><trkpt lat="42.276121516899515" lon="13.942709833266571"><ele>231.39999999999998</ele><time>2026-05-02T08:11:26.998Z</time></trkpt><trkpt lat="42.276092184507725" lon="13.942586932305101"><ele>232.0</ele><time>2026-05-02T08:11:27.998Z</time></trkpt><trkpt lat="42.276055848488916" lon="13.94247094807868"><ele>232.0</ele><time>2026-05-02T08:11:28.998Z</time></trkpt><trkpt lat="42.27600681610048" lon="13.942317188609763"><ele>232.0</ele><time>2026-05-02T08:11:29.998Z</time></trkpt><trkpt lat="42.275955278119476" lon="13.942178360212182"><ele>232.0</ele><time>2026-05-02T08:11:30.998Z</time></trkpt><trkpt lat="42.27590642196697" lon="13.94203481020114"><ele>232.0</ele><time>2026-05-02T08:11:31.998Z</time></trkpt><trkpt lat="42.27586953471163" lon="13.941894086433983"><ele>231.99999999999997</ele><time>2026-05-02T08:11:32.998Z</time></trkpt><trkpt lat="42.27583387687522" lon="13.941790541403458"><ele>232.0</ele><time>2026-05-02T08:11:33.998Z</time></trkpt><trkpt lat="42.275790239943476" lon="13.941708695530215"><ele>232.0</ele><time>2026-05-02T08:11:34.998Z</time></trkpt><trkpt lat="42.27575455794978" lon="13.941636690198912"><ele>232.0</ele><time>2026-05-02T08:11:35.998Z</time></trkpt><trkpt lat="42.27572618600981" lon="13.94147183357096"><ele>231.99999999999997</ele><time>2026-05-02T08:11:37.998Z</time></trkpt><trkpt lat="42.27571547059477" lon="13.941356941167424"><ele>232.0</ele><time>2026-05-02T08:11:38.998Z</time></trkpt><trkpt lat="42.27568955435223" lon="13.941218964114457"><ele>234.6</ele><time>2026-05-02T08:11:39.998Z</time></trkpt><trkpt lat="42.27566494936471" lon="13.941078480152136"><ele>237.2</ele><time>2026-05-02T08:11:40.998Z</time></trkpt><trkpt lat="42.27564207295799" lon="13.940947896264653"><ele>239.8</ele><time>2026-05-02T08:11:41.998Z</time></trkpt><trkpt lat="42.27562394331392" lon="13.940829640067156"><ele>242.4</ele><time>2026-05-02T08:11:42.998Z</time></trkpt><trkpt lat="42.27561695900317" lon="13.940720612140046"><ele>245.0</ele><time>2026-05-02T08:11:43.998Z</time></trkpt><trkpt lat="42.27561492991439" lon="13.940614146726706"><ele>245.50000000000003</ele><time>2026-05-02T08:11:44.998Z</time></trkpt><trkpt lat="42.27561682985315" lon="13.940509949517702"><ele>246.0</ele><time>2026-05-02T08:11:45.998Z</time></trkpt><trkpt lat="42.275623690470724" lon="13.940403686930466"><ele>246.5</ele><time>2026-05-02T08:11:46.998Z</time></trkpt><trkpt lat="42.27563109960053" lon="13.940310116765287"><ele>247.0</ele><time>2026-05-02T08:11:47.998Z</time></trkpt><trkpt lat="42.27563808189631" lon="13.940157229269575"><ele>247.50000000000003</ele><time>2026-05-02T08:11:49.998Z</time></trkpt><trkpt lat="42.27563878685113" lon="13.94006567892655"><ele>248.0</ele><time>2026-05-02T08:11:51.998Z</time></trkpt><trkpt lat="42.27554258948051" lon="13.940128342837644"><ele>244.8</ele><time>2026-05-02T08:11:55.998Z</time></trkpt><trkpt lat="42.275444942029125" lon="13.940145517672375"><ele>241.60000000000002</ele><time>2026-05-02T08:11:56.998Z</time></trkpt><trkpt lat="42.275334289835136" lon="13.940153820482582"><ele>238.39999999999998</ele><time>2026-05-02T08:11:57.998Z</time></trkpt><trkpt lat="42.27523738090983" lon="13.940214046790777"><ele>235.2</ele><time>2026-05-02T08:11:58.998Z</time></trkpt><trkpt lat="42.27515229096401" lon="13.940270355416109"><ele>232.0</ele><time>2026-05-02T08:11:59.998Z</time></trkpt><trkpt lat="42.27506976404325" lon="13.940325761930026"><ele>232.0</ele><time>2026-05-02T08:12:00.998Z</time></trkpt><trkpt lat="42.2749893488903" lon="13.940404091418007"><ele>232.0</ele><time>2026-05-02T08:12:01.998Z</time></trkpt><trkpt lat="42.2748892457551" lon="13.940450750587585"><ele>232.0</ele><time>2026-05-02T08:12:02.998Z</time></trkpt><trkpt lat="42.27478830121714" lon="13.940516366159521"><ele>232.0</ele><time>2026-05-02T08:12:03.998Z</time></trkpt><trkpt lat="42.27468894220758" lon="13.940587853805127"><ele>232.0</ele><time>2026-05-02T08:12:04.998Z</time></trkpt><trkpt lat="42.274586933692525" lon="13.94064251698832"><ele>230.0</ele><time>2026-05-02T08:12:05.998Z</time></trkpt><trkpt lat="42.274480690065246" lon="13.940693432688777"><ele>228.0</ele><time>2026-05-02T08:12:06.998Z</time></trkpt><trkpt lat="42.27436838365208" lon="13.940718769848457"><ele>226.0</ele><time>2026-05-02T08:12:07.998Z</time></trkpt><trkpt lat="42.27427341680401" lon="13.940750281735916"><ele>224.0</ele><time>2026-05-02T08:12:08.998Z</time></trkpt><trkpt lat="42.27418429488246" lon="13.9407680963638"><ele>222.0</ele><time>2026-05-02T08:12:09.998Z</time></trkpt><trkpt lat="42.27409878867069" lon="13.940772877698695"><ele>222.0</ele><time>2026-05-02T08:12:10.998Z</time></trkpt><trkpt lat="42.27400843724827" lon="13.940766104563334"><ele>222.0</ele><time>2026-05-02T08:12:11.998Z</time></trkpt><trkpt lat="42.27391572507046" lon="13.940748828162285"><ele>222.0</ele><time>2026-05-02T08:12:12.998Z</time></trkpt><trkpt lat="42.27382073029379" lon="13.940727837290108"><ele>222.0</ele><time>2026-05-02T08:12:13.998Z</time></trkpt><trkpt lat="42.2737227450625" lon="13.940704013831342"><ele>222.0</ele><time>2026-05-02T08:12:14.998Z</time></trkpt><trkpt lat="42.27362042754324" lon="13.940678353951734"><ele>219.2</ele><time>2026-05-02T08:12:15.998Z</time></trkpt><trkpt lat="42.27351526075539" lon="13.94067434737319"><ele>216.39999999999998</ele><time>2026-05-02T08:12:16.998Z</time></trkpt><trkpt lat="42.27340746435051" lon="13.940642080694595"><ele>213.60000000000002</ele><time>2026-05-02T08:12:17.998Z</time></trkpt><trkpt lat="42.27329371412801" lon="13.94061309646392"><ele>210.8</ele><time>2026-05-02T08:12:18.998Z</time></trkpt><trkpt lat="42.27317826143931" lon="13.940593442579301"><ele>208.0</ele><time>2026-05-02T08:12:19.998Z</time></trkpt><trkpt lat="42.27307199076559" lon="13.94055102107179"><ele>205.8</ele><time>2026-05-02T08:12:20.998Z</time></trkpt><trkpt lat="42.272965324805845" lon="13.940529835865172"><ele>203.60000000000002</ele><time>2026-05-02T08:12:21.998Z</time></trkpt><trkpt lat="42.272856243430084" lon="13.940508612181299"><ele>201.39999999999998</ele><time>2026-05-02T08:12:22.998Z</time></trkpt><trkpt lat="42.272746630888705" lon="13.940487463200512"><ele>199.2</ele><time>2026-05-02T08:12:23.998Z</time></trkpt><trkpt lat="42.27264926771521" lon="13.940472843353739"><ele>197.0</ele><time>2026-05-02T08:12:24.998Z</time></trkpt><trkpt lat="42.272569521603195" lon="13.940459187399457"><ele>197.00000000000003</ele><time>2026-05-02T08:12:25.998Z</time></trkpt><trkpt lat="42.27250291594625" lon="13.94044802992984"><ele>197.0</ele><time>2026-05-02T08:12:26.998Z</time></trkpt><trkpt lat="42.272402726123026" lon="13.940463863557513"><ele>197.0</ele><time>2026-05-02T08:12:28.998Z</time></trkpt><trkpt lat="42.272396432032316" lon="13.940353592988433"><ele>197.0</ele><time>2026-05-02T08:12:30.998Z</time></trkpt><trkpt lat="42.2724292404073" lon="13.940277837839695"><ele>197.00000000000003</ele><time>2026-05-02T08:12:31.998Z</time></trkpt><trkpt lat="42.2724908301311" lon="13.940209520115166"><ele>197.0</ele><time>2026-05-02T08:12:32.998Z</time></trkpt><trkpt lat="42.27255819548675" lon="13.94011778522029"><ele>196.83333333333334</ele><time>2026-05-02T08:12:33.997Z</time></trkpt><trkpt lat="42.272625047160176" lon="13.940012767512197"><ele>196.66666666666669</ele><time>2026-05-02T08:12:34.997Z</time></trkpt><trkpt lat="42.272686565982205" lon="13.939926626864562"><ele>196.5</ele><time>2026-05-02T08:12:35.997Z</time></trkpt><trkpt lat="42.27273731533404" lon="13.939849426968387"><ele>196.33333333333331</ele><time>2026-05-02T08:12:36.997Z</time></trkpt><trkpt lat="42.272795609345046" lon="13.939780893520737"><ele>196.16666666666666</ele><time>2026-05-02T08:12:37.997Z</time></trkpt><trkpt lat="42.272852331092835" lon="13.939717805087598"><ele>196.0</ele><time>2026-05-02T08:12:38.997Z</time></trkpt><trkpt lat="42.27290023459905" lon="13.939659604702625"><ele>195.99999999999997</ele><time>2026-05-02T08:12:39.997Z</time></trkpt><trkpt lat="42.27294549746369" lon="13.939523984636136"><ele>196.0</ele><time>2026-05-02T08:12:41.997Z</time></trkpt><trkpt lat="42.27296759986874" lon="13.93937655587005"><ele>196.0</ele><time>2026-05-02T08:12:43.997Z</time></trkpt><trkpt lat="42.2729584768903" lon="13.939289355506576"><ele>196.0</ele><time>2026-05-02T08:12:44.997Z</time></trkpt><trkpt lat="42.27293475920053" lon="13.939205501186986"><ele>195.99999999999997</ele><time>2026-05-02T08:12:45.997Z</time></trkpt><trkpt lat="42.2728978829078" lon="13.939113072782694"><ele>196.0</ele><time>2026-05-02T08:12:46.997Z</time></trkpt><trkpt lat="42.27284400663768" lon="13.939023242617196"><ele>194.60000000000002</ele><time>2026-05-02T08:12:47.997Z</time></trkpt><trkpt lat="42.272773556302944" lon="13.93892460491406"><ele>193.2</ele><time>2026-05-02T08:12:48.997Z</time></trkpt><trkpt lat="42.2727006720462" lon="13.9388283694524"><ele>191.8</ele><time>2026-05-02T08:12:49.997Z</time></trkpt><trkpt lat="42.27263090248788" lon="13.938733363741726"><ele>190.39999999999998</ele><time>2026-05-02T08:12:50.997Z</time></trkpt><trkpt lat="42.27256124398396" lon="13.93864768810086"><ele>189.0</ele><time>2026-05-02T08:12:51.997Z</time></trkpt><trkpt lat="42.272484888045426" lon="13.938582876040352"><ele>189.0</ele><time>2026-05-02T08:12:52.997Z</time></trkpt><trkpt lat="42.27240069975404" lon="13.93853384703795"><ele>189.0</ele><time>2026-05-02T08:12:53.997Z</time></trkpt><trkpt lat="42.27230763731494" lon="13.93848381549526"><ele>189.0</ele><time>2026-05-02T08:12:54.997Z</time></trkpt><trkpt lat="42.27220683014208" lon="13.938437237748385"><ele>189.0</ele><time>2026-05-02T08:12:55.997Z</time></trkpt><trkpt lat="42.27210919763507" lon="13.938401989308103"><ele>189.0</ele><time>2026-05-02T08:12:56.997Z</time></trkpt><trkpt lat="42.27203088888" lon="13.93838082361356"><ele>186.0</ele><time>2026-05-02T08:12:57.997Z</time></trkpt><trkpt lat="42.2719652581095" lon="13.93836308467174"><ele>183.0</ele><time>2026-05-02T08:12:58.997Z</time></trkpt><trkpt lat="42.271860958897705" lon="13.938330619332234"><ele>180.0</ele><time>2026-05-02T08:13:00.997Z</time></trkpt><trkpt lat="42.271749894457336" lon="13.93834320370172"><ele>177.0</ele><time>2026-05-02T08:13:02.997Z</time></trkpt><trkpt lat="42.27170437208831" lon="13.938172021683547"><ele>174.0</ele><time>2026-05-02T08:13:04.997Z</time></trkpt><trkpt lat="42.271672075198" lon="13.938075088413607"><ele>174.0</ele><time>2026-05-02T08:13:05.997Z</time></trkpt><trkpt lat="42.27162511752636" lon="13.937991749695325"><ele>174.0</ele><time>2026-05-02T08:13:06.997Z</time></trkpt><trkpt lat="42.271563154271945" lon="13.937933993367356"><ele>174.0</ele><time>2026-05-02T08:13:07.997Z</time></trkpt><trkpt lat="42.271482117981606" lon="13.93789998996635"><ele>174.0</ele><time>2026-05-02T08:13:08.997Z</time></trkpt><trkpt lat="42.27139941942081" lon="13.93788200765263"><ele>174.0</ele><time>2026-05-02T08:13:09.997Z</time></trkpt><trkpt lat="42.271312453982716" lon="13.937877062977954"><ele>174.0</ele><time>2026-05-02T08:13:10.997Z</time></trkpt><trkpt lat="42.27123416414507" lon="13.937895952298499"><ele>173.5</ele><time>2026-05-02T08:13:11.997Z</time></trkpt><trkpt lat="42.27116711822508" lon="13.937928320687675"><ele>173.0</ele><time>2026-05-02T08:13:12.997Z</time></trkpt><trkpt lat="42.27110687547962" lon="13.937967642726635"><ele>172.5</ele><time>2026-05-02T08:13:13.997Z</time></trkpt><trkpt lat="42.27101450379481" lon="13.938083026429828"><ele>172.0</ele><time>2026-05-02T08:13:15.997Z</time></trkpt><trkpt lat="42.270970349775666" lon="13.938172396265102"><ele>171.5</ele><time>2026-05-02T08:13:16.997Z</time></trkpt><trkpt lat="42.27093047120836" lon="13.938272279723149"><ele>171.0</ele><time>2026-05-02T08:13:17.997Z</time></trkpt><trkpt lat="42.27089259294379" lon="13.938395017435173"><ele>171.0</ele><time>2026-05-02T08:13:18.997Z</time></trkpt><trkpt lat="42.27085475769159" lon="13.938522715598689"><ele>171.0</ele><time>2026-05-02T08:13:19.997Z</time></trkpt><trkpt lat="42.27082473742673" lon="13.938646871523256"><ele>171.0</ele><time>2026-05-02T08:13:20.997Z</time></trkpt><trkpt lat="42.2707950902247" lon="13.938763354952622"><ele>171.0</ele><time>2026-05-02T08:13:21.997Z</time></trkpt><trkpt lat="42.27076356784033" lon="13.938889399444745"><ele>171.0</ele><time>2026-05-02T08:13:22.997Z</time></trkpt><trkpt lat="42.27072217985083" lon="13.93903044947714"><ele>171.0</ele><time>2026-05-02T08:13:23.997Z</time></trkpt><trkpt lat="42.27068084476956" lon="13.939184660852629"><ele>171.0</ele><time>2026-05-02T08:13:24.997Z</time></trkpt><trkpt lat="42.270662367659924" lon="13.939360436954603"><ele>171.0</ele><time>2026-05-02T08:13:25.997Z</time></trkpt><trkpt lat="42.27064091145232" lon="13.93954571066555"><ele>171.0</ele><time>2026-05-02T08:13:26.997Z</time></trkpt><trkpt lat="42.2706105876887" lon="13.939704096622314"><ele>167.5</ele><time>2026-05-02T08:13:27.997Z</time></trkpt><trkpt lat="42.270561693209594" lon="13.939854335070578"><ele>164.0</ele><time>2026-05-02T08:13:28.997Z</time></trkpt><trkpt lat="42.27049851420543" lon="13.94002333333839"><ele>160.5</ele><time>2026-05-02T08:13:29.997Z</time></trkpt><trkpt lat="42.270441293398946" lon="13.940186263159772"><ele>157.0</ele><time>2026-05-02T08:13:30.997Z</time></trkpt><trkpt lat="42.27038623102217" lon="13.940340213030197"><ele>157.0</ele><time>2026-05-02T08:13:31.997Z</time></trkpt><trkpt lat="42.27034225773697" lon="13.9405077902161"><ele>157.0</ele><time>2026-05-02T08:13:32.997Z</time></trkpt><trkpt lat="42.27029095278999" lon="13.940656949556173"><ele>157.0</ele><time>2026-05-02T08:13:33.997Z</time></trkpt><trkpt lat="42.270234778329076" lon="13.940785285001267"><ele>157.0</ele><time>2026-05-02T08:13:34.997Z</time></trkpt><trkpt lat="42.27017843977459" lon="13.940874430304886"><ele>157.0</ele><time>2026-05-02T08:13:35.997Z</time></trkpt><trkpt lat="42.270146513785846" lon="13.940969543924115"><ele>157.0</ele><time>2026-05-02T08:13:36.997Z</time></trkpt><trkpt lat="42.270109593815036" lon="13.941070007250568"><ele>157.0</ele><time>2026-05-02T08:13:37.997Z</time></trkpt><trkpt lat="42.27007088174961" lon="13.94115179183081"><ele>157.0</ele><time>2026-05-02T08:13:38.997Z</time></trkpt><trkpt lat="42.270027728009914" lon="13.941217370647617"><ele>157.0</ele><time>2026-05-02T08:13:39.997Z</time></trkpt><trkpt lat="42.26996660095543" lon="13.941287818136358"><ele>157.0</ele><time>2026-05-02T08:13:40.997Z</time></trkpt><trkpt lat="42.269918981295234" lon="13.941366963103905"><ele>157.0</ele><time>2026-05-02T08:13:41.997Z</time></trkpt><trkpt lat="42.269882417323764" lon="13.941507707165846"><ele>157.0</ele><time>2026-05-02T08:13:43.997Z</time></trkpt><trkpt lat="42.26988241209881" lon="13.941616820783496"><ele>157.0</ele><time>2026-05-02T08:13:44.997Z</time></trkpt><trkpt lat="42.26989257773321" lon="13.941735612450339"><ele>157.0</ele><time>2026-05-02T08:13:45.997Z</time></trkpt><trkpt lat="42.26994430234399" lon="13.941824723765272"><ele>157.0</ele><time>2026-05-02T08:13:46.997Z</time></trkpt><trkpt lat="42.26994675165974" lon="13.941919530010779"><ele>157.0</ele><time>2026-05-02T08:13:47.997Z</time></trkpt><trkpt lat="42.269938388974204" lon="13.942023226345972"><ele>156.33333333333334</ele><time>2026-05-02T08:13:48.997Z</time></trkpt><trkpt lat="42.26990894991451" lon="13.94211137617842"><ele>155.66666666666669</ele><time>2026-05-02T08:13:49.997Z</time></trkpt><trkpt lat="42.26985755081993" lon="13.942183932969039"><ele>155.0</ele><time>2026-05-02T08:13:50.997Z</time></trkpt><trkpt lat="42.26978281429648" lon="13.942238752850146"><ele>154.33333333333334</ele><time>2026-05-02T08:13:51.997Z</time></trkpt><trkpt lat="42.26971383740877" lon="13.942284101044537"><ele>153.66666666666666</ele><time>2026-05-02T08:13:52.997Z</time></trkpt><trkpt lat="42.26963593957412" lon="13.942325940322666"><ele>153.0</ele><time>2026-05-02T08:13:53.997Z</time></trkpt><trkpt lat="42.26952531384881" lon="13.942361424874084"><ele>152.0</ele><time>2026-05-02T08:13:54.997Z</time></trkpt><trkpt lat="42.26941187687793" lon="13.942402276859738"><ele>151.0</ele><time>2026-05-02T08:13:55.997Z</time></trkpt><trkpt lat="42.26928161402216" lon="13.94245195267909"><ele>150.0</ele><time>2026-05-02T08:13:56.997Z</time></trkpt><trkpt lat="42.269142305775006" lon="13.942504476755209"><ele>149.0</ele><time>2026-05-02T08:13:57.997Z</time></trkpt><trkpt lat="42.26902853243373" lon="13.942552607179039"><ele>148.5</ele><time>2026-05-02T08:13:58.997Z</time></trkpt><trkpt lat="42.26893402397293" lon="13.94259133243486"><ele>148.0</ele><time>2026-05-02T08:13:59.997Z</time></trkpt><trkpt lat="42.268854176271475" lon="13.942623422410897"><ele>147.5</ele><time>2026-05-02T08:14:00.997Z</time></trkpt><trkpt lat="42.26878443515088" lon="13.9426582483969"><ele>147.0</ele><time>2026-05-02T08:14:01.997Z</time></trkpt><trkpt lat="42.26867418879061" lon="13.942687799559314"><ele>146.5</ele><time>2026-05-02T08:14:03.997Z</time></trkpt><trkpt lat="42.268610540599205" lon="13.94268293435612"><ele>146.0</ele><time>2026-05-02T08:14:04.997Z</time></trkpt><trkpt lat="42.268521604311424" lon="13.942668023021897"><ele>146.0</ele><time>2026-05-02T08:14:05.997Z</time></trkpt><trkpt lat="42.26842851858326" lon="13.942644881908754"><ele>146.0</ele><time>2026-05-02T08:14:06.997Z</time></trkpt><trkpt lat="42.26836079112931" lon="13.94259985943963"><ele>146.0</ele><time>2026-05-02T08:14:07.997Z</time></trkpt><trkpt lat="42.26829151824686" lon="13.942536381564105"><ele>146.0</ele><time>2026-05-02T08:14:08.997Z</time></trkpt><trkpt lat="42.26820960233989" lon="13.942453223737783"><ele>146.0</ele><time>2026-05-02T08:14:09.997Z</time></trkpt><trkpt lat="42.26814846745461" lon="13.942389556325143"><ele>146.0</ele><time>2026-05-02T08:14:10.997Z</time></trkpt><trkpt lat="42.26808846693639" lon="13.942356130952787"><ele>148.6</ele><time>2026-05-02T08:14:11.997Z</time></trkpt><trkpt lat="42.267993404379006" lon="13.94234232758765"><ele>151.2</ele><time>2026-05-02T08:14:13.997Z</time></trkpt><trkpt lat="42.267907554360654" lon="13.942324709479058"><ele>153.8</ele><time>2026-05-02T08:14:14.996Z</time></trkpt><trkpt lat="42.26783662106716" lon="13.942316448213464"><ele>156.4</ele><time>2026-05-02T08:14:15.996Z</time></trkpt><trkpt lat="42.26774886537791" lon="13.942295012178102"><ele>159.0</ele><time>2026-05-02T08:14:17.996Z</time></trkpt><trkpt lat="42.26771873363622" lon="13.942143097539857"><ele>159.0</ele><time>2026-05-02T08:14:19.996Z</time></trkpt><trkpt lat="42.26771489287999" lon="13.94203866852711"><ele>159.0</ele><time>2026-05-02T08:14:20.996Z</time></trkpt><trkpt lat="42.26770720052092" lon="13.941936059380282"><ele>159.0</ele><time>2026-05-02T08:14:21.996Z</time></trkpt><trkpt lat="42.2676970866656" lon="13.941832103138513"><ele>159.0</ele><time>2026-05-02T08:14:22.996Z</time></trkpt><trkpt lat="42.26765457885255" lon="13.941653657846118"><ele>159.0</ele><time>2026-05-02T08:14:24.996Z</time></trkpt><trkpt lat="42.26760142279034" lon="13.94150225038692"><ele>158.83333333333334</ele><time>2026-05-02T08:14:26.996Z</time></trkpt><trkpt lat="42.267571331254075" lon="13.941422927187686"><ele>158.66666666666666</ele><time>2026-05-02T08:14:27.996Z</time></trkpt><trkpt lat="42.26751981340475" lon="13.94135843090335"><ele>158.5</ele><time>2026-05-02T08:14:28.996Z</time></trkpt><trkpt lat="42.267472054768724" lon="13.94127799703241"><ele>158.33333333333331</ele><time>2026-05-02T08:14:29.996Z</time></trkpt><trkpt lat="42.267409125985054" lon="13.941179130409708"><ele>158.16666666666666</ele><time>2026-05-02T08:14:30.996Z</time></trkpt><trkpt lat="42.26735016074127" lon="13.941082766153155"><ele>158.0</ele><time>2026-05-02T08:14:31.996Z</time></trkpt><trkpt lat="42.26729162203074" lon="13.940973595564621"><ele>161.2</ele><time>2026-05-02T08:14:32.996Z</time></trkpt><trkpt lat="42.267226307344366" lon="13.940881101463068"><ele>164.4</ele><time>2026-05-02T08:14:33.996Z</time></trkpt><trkpt lat="42.267163503448266" lon="13.940784736290068"><ele>167.6</ele><time>2026-05-02T08:14:34.996Z</time></trkpt><trkpt lat="42.26712312022079" lon="13.940679086337516"><ele>170.79999999999998</ele><time>2026-05-02T08:14:35.996Z</time></trkpt><trkpt lat="42.267073113845" lon="13.940572313845703"><ele>174.0</ele><time>2026-05-02T08:14:36.996Z</time></trkpt><trkpt lat="42.26702777483423" lon="13.94048335823298"><ele>174.0</ele><time>2026-05-02T08:14:37.996Z</time></trkpt><trkpt lat="42.266980689517666" lon="13.940398262277533"><ele>174.0</ele><time>2026-05-02T08:14:38.996Z</time></trkpt><trkpt lat="42.26694940839797" lon="13.940316181265745"><ele>174.0</ele><time>2026-05-02T08:14:39.996Z</time></trkpt><trkpt lat="42.266923242367206" lon="13.940228242826752"><ele>174.0</ele><time>2026-05-02T08:14:40.996Z</time></trkpt><trkpt lat="42.266854623112025" lon="13.940125607846976"><ele>174.0</ele><time>2026-05-02T08:14:42.996Z</time></trkpt><trkpt lat="42.26677967286903" lon="13.940172701272761"><ele>174.0</ele><time>2026-05-02T08:14:44.996Z</time></trkpt><trkpt lat="42.266736362790475" lon="13.940293481411842"><ele>174.0</ele><time>2026-05-02T08:14:46.996Z</time></trkpt><trkpt lat="42.2667122087224" lon="13.940372555344835"><ele>174.0</ele><time>2026-05-02T08:14:47.996Z</time></trkpt><trkpt lat="42.26667301733506" lon="13.940464180984632"><ele>174.0</ele><time>2026-05-02T08:14:48.996Z</time></trkpt><trkpt lat="42.26664082727396" lon="13.940581800088298"><ele>174.0</ele><time>2026-05-02T08:14:49.996Z</time></trkpt><trkpt lat="42.26659893299612" lon="13.940688018933853"><ele>174.0</ele><time>2026-05-02T08:14:50.996Z</time></trkpt><trkpt lat="42.266557370152974" lon="13.94080669468177"><ele>174.0</ele><time>2026-05-02T08:14:51.996Z</time></trkpt><trkpt lat="42.266511088458294" lon="13.940930747662438"><ele>173.79999999999998</ele><time>2026-05-02T08:14:52.996Z</time></trkpt><trkpt lat="42.26646731735242" lon="13.941046758953078"><ele>173.6</ele><time>2026-05-02T08:14:53.996Z</time></trkpt><trkpt lat="42.26643256417818" lon="13.941173472365108"><ele>173.4</ele><time>2026-05-02T08:14:54.996Z</time></trkpt><trkpt lat="42.26639409950993" lon="13.941314511949443"><ele>173.2</ele><time>2026-05-02T08:14:55.996Z</time></trkpt><trkpt lat="42.26635638452832" lon="13.941436529318738"><ele>173.0</ele><time>2026-05-02T08:14:56.996Z</time></trkpt><trkpt lat="42.266332543174684" lon="13.941548622367932"><ele>176.33333333333331</ele><time>2026-05-02T08:14:57.996Z</time></trkpt><trkpt lat="42.266325232514546" lon="13.94164860407687"><ele>179.66666666666666</ele><time>2026-05-02T08:14:58.996Z</time></trkpt><trkpt lat="42.26633321849784" lon="13.941741536465564"><ele>183.0</ele><time>2026-05-02T08:14:59.996Z</time></trkpt><trkpt lat="42.266346745322714" lon="13.941849574683232"><ele>186.33333333333331</ele><time>2026-05-02T08:15:00.996Z</time></trkpt><trkpt lat="42.26636337563802" lon="13.941974634244591"><ele>189.66666666666666</ele><time>2026-05-02T08:15:01.996Z</time></trkpt><trkpt lat="42.26638134004663" lon="13.942113893744981"><ele>193.0</ele><time>2026-05-02T08:15:02.996Z</time></trkpt><trkpt lat="42.266406796156495" lon="13.942251675966634"><ele>193.8</ele><time>2026-05-02T08:15:03.996Z</time></trkpt><trkpt lat="42.266426094917236" lon="13.942380937849059"><ele>194.60000000000002</ele><time>2026-05-02T08:15:04.996Z</time></trkpt><trkpt lat="42.266445806647646" lon="13.942502741853565"><ele>195.39999999999998</ele><time>2026-05-02T08:15:05.996Z</time></trkpt><trkpt lat="42.26645995813611" lon="13.942613061503408"><ele>196.2</ele><time>2026-05-02T08:15:06.996Z</time></trkpt><trkpt lat="42.26648018330179" lon="13.942731857135056"><ele>197.0</ele><time>2026-05-02T08:15:07.996Z</time></trkpt><trkpt lat="42.26650955304661" lon="13.942862302742045"><ele>196.85714285714286</ele><time>2026-05-02T08:15:08.996Z</time></trkpt><trkpt lat="42.26652229515188" lon="13.942985563704214"><ele>196.71428571428572</ele><time>2026-05-02T08:15:09.996Z</time></trkpt><trkpt lat="42.26652391331906" lon="13.943081129928483"><ele>196.57142857142856</ele><time>2026-05-02T08:15:10.996Z</time></trkpt><trkpt lat="42.266523243314445" lon="13.943182629199649"><ele>196.42857142857144</ele><time>2026-05-02T08:15:12.996Z</time></trkpt><trkpt lat="42.2664736277011" lon="13.943246551097571"><ele>196.28571428571428</ele><time>2026-05-02T08:15:15.996Z</time></trkpt><trkpt lat="42.26640865200739" lon="13.943285801203418"><ele>196.14285714285714</ele><time>2026-05-02T08:15:24.996Z</time></trkpt><trkpt lat="42.2663439087544" lon="13.943273666104739"><ele>196.0</ele><time>2026-05-02T08:15:25.996Z</time></trkpt><trkpt lat="42.266240741592796" lon="13.943275856564496"><ele>195.99999999999997</ele><time>2026-05-02T08:15:26.996Z</time></trkpt><trkpt lat="42.266143679201136" lon="13.943291636881359"><ele>196.0</ele><time>2026-05-02T08:15:27.996Z</time></trkpt><trkpt lat="42.266061321250604" lon="13.943318841493236"><ele>196.0</ele><time>2026-05-02T08:15:28.996Z</time></trkpt><trkpt lat="42.265992748628165" lon="13.943343631474013"><ele>196.0</ele><time>2026-05-02T08:15:29.996Z</time></trkpt><trkpt lat="42.26592147731654" lon="13.943365326036794"><ele>195.99999999999997</ele><time>2026-05-02T08:15:30.996Z</time></trkpt><trkpt lat="42.26584193688839" lon="13.943367838696416"><ele>196.0</ele><time>2026-05-02T08:15:31.996Z</time></trkpt><trkpt lat="42.26576142310353" lon="13.943349434368994"><ele>195.99999999999997</ele><time>2026-05-02T08:15:32.996Z</time></trkpt><trkpt lat="42.26568631298288" lon="13.94332247920018"><ele>196.0</ele><time>2026-05-02T08:15:33.996Z</time></trkpt><trkpt lat="42.26562070223552" lon="13.94326890236666"><ele>196.0</ele><time>2026-05-02T08:15:34.996Z</time></trkpt><trkpt lat="42.26554529404867" lon="13.943202468028614"><ele>196.0</ele><time>2026-05-02T08:15:35.996Z</time></trkpt><trkpt lat="42.265468775364376" lon="13.943109765623836"><ele>195.99999999999997</ele><time>2026-05-02T08:15:36.996Z</time></trkpt><trkpt lat="42.265397926831014" lon="13.943036017680562"><ele>196.0</ele><time>2026-05-02T08:15:37.996Z</time></trkpt><trkpt lat="42.265352732711115" lon="13.942967587366224"><ele>195.20000000000002</ele><time>2026-05-02T08:15:38.996Z</time></trkpt><trkpt lat="42.26531889082022" lon="13.942879708065126"><ele>194.4</ele><time>2026-05-02T08:15:39.995Z</time></trkpt><trkpt lat="42.2652939374639" lon="13.942772845582901"><ele>193.6</ele><time>2026-05-02T08:15:40.995Z</time></trkpt><trkpt lat="42.2652662034702" lon="13.942665223597345"><ele>192.8</ele><time>2026-05-02T08:15:41.995Z</time></trkpt><trkpt lat="42.26523147529587" lon="13.94255697337226"><ele>192.0</ele><time>2026-05-02T08:15:42.995Z</time></trkpt><trkpt lat="42.265153222261205" lon="13.942388226709419"><ele>195.0</ele><time>2026-05-02T08:15:44.998Z</time></trkpt><trkpt lat="42.265104751369115" lon="13.942262917936455"><ele>198.0</ele><time>2026-05-02T08:15:45.998Z</time></trkpt><trkpt lat="42.265052596106145" lon="13.942126372058327"><ele>201.0</ele><time>2026-05-02T08:15:46.998Z</time></trkpt><trkpt lat="42.26499950379602" lon="13.942000722111652"><ele>204.0</ele><time>2026-05-02T08:15:47.999Z</time></trkpt><trkpt lat="42.26494972625256" lon="13.94188211581776"><ele>207.0</ele><time>2026-05-02T08:15:48.999Z</time></trkpt><trkpt lat="42.264898147244175" lon="13.941760779846195"><ele>207.6</ele><time>2026-05-02T08:15:49.999Z</time></trkpt><trkpt lat="42.26484989169102" lon="13.94165157850624"><ele>208.2</ele><time>2026-05-02T08:15:50.999Z</time></trkpt><trkpt lat="42.264807104528074" lon="13.94153065015203"><ele>208.8</ele><time>2026-05-02T08:15:51.999Z</time></trkpt><trkpt lat="42.26478324650137" lon="13.941412929628733"><ele>209.4</ele><time>2026-05-02T08:15:52.999Z</time></trkpt><trkpt lat="42.26476523639239" lon="13.94129938082083"><ele>210.0</ele><time>2026-05-02T08:15:53.999Z</time></trkpt><trkpt lat="42.264757042138996" lon="13.941179993123056"><ele>210.0</ele><time>2026-05-02T08:15:54.999Z</time></trkpt><trkpt lat="42.26475952613269" lon="13.941057787389106"><ele>210.0</ele><time>2026-05-02T08:15:55.999Z</time></trkpt><trkpt lat="42.264755583035374" lon="13.940941250940035"><ele>210.0</ele><time>2026-05-02T08:15:56.999Z</time></trkpt><trkpt lat="42.26473997509884" lon="13.940824633708727"><ele>210.0</ele><time>2026-05-02T08:15:57.999Z</time></trkpt><trkpt lat="42.264721448118806" lon="13.940693627235104"><ele>210.0</ele><time>2026-05-02T08:15:58.999Z</time></trkpt><trkpt lat="42.26469411589326" lon="13.940554494324308"><ele>213.0</ele><time>2026-05-02T08:15:59.999Z</time></trkpt><trkpt lat="42.26466775424746" lon="13.94041241220963"><ele>216.0</ele><time>2026-05-02T08:16:00.999Z</time></trkpt><trkpt lat="42.26463716093803" lon="13.940262361317094"><ele>219.0</ele><time>2026-05-02T08:16:01.999Z</time></trkpt><trkpt lat="42.264608855633185" lon="13.940109547538427"><ele>222.0</ele><time>2026-05-02T08:16:02.999Z</time></trkpt><trkpt lat="42.264586797210505" lon="13.939964707935872"><ele>222.83333333333334</ele><time>2026-05-02T08:16:03.999Z</time></trkpt><trkpt lat="42.2645698163726" lon="13.939829097280288"><ele>223.66666666666669</ele><time>2026-05-02T08:16:04.999Z</time></trkpt><trkpt lat="42.26455900117578" lon="13.939704965477784"><ele>224.5</ele><time>2026-05-02T08:16:05.999Z</time></trkpt><trkpt lat="42.26454622482953" lon="13.939599672863547"><ele>225.33333333333334</ele><time>2026-05-02T08:16:06.999Z</time></trkpt><trkpt lat="42.264544125237585" lon="13.939508532585334"><ele>226.16666666666669</ele><time>2026-05-02T08:16:07.999Z</time></trkpt><trkpt lat="42.26451709852549" lon="13.939421450857262"><ele>227.0</ele><time>2026-05-02T08:16:08.999Z</time></trkpt><trkpt lat="42.26448416842695" lon="13.939323015764385"><ele>227.00000000000003</ele><time>2026-05-02T08:16:09.999Z</time></trkpt><trkpt lat="42.26444446381871" lon="13.939227303404577"><ele>227.0</ele><time>2026-05-02T08:16:10.999Z</time></trkpt><trkpt lat="42.264414141828745" lon="13.939145148435781"><ele>227.0</ele><time>2026-05-02T08:16:11.999Z</time></trkpt><trkpt lat="42.264378645776134" lon="13.939062903906224"><ele>227.0</ele><time>2026-05-02T08:16:12.999Z</time></trkpt><trkpt lat="42.26431861497812" lon="13.938980828582212"><ele>227.00000000000003</ele><time>2026-05-02T08:16:13.999Z</time></trkpt><trkpt lat="42.26424893046816" lon="13.938882407497461"><ele>227.0</ele><time>2026-05-02T08:16:14.999Z</time></trkpt><trkpt lat="42.26417994097771" lon="13.93877842764341"><ele>225.0</ele><time>2026-05-02T08:16:15.999Z</time></trkpt><trkpt lat="42.26411001611014" lon="13.938672953818292"><ele>223.0</ele><time>2026-05-02T08:16:16.999Z</time></trkpt><trkpt lat="42.26403095890734" lon="13.938574040613027"><ele>221.0</ele><time>2026-05-02T08:16:17.999Z</time></trkpt><trkpt lat="42.26394646516993" lon="13.938462991611203"><ele>219.0</ele><time>2026-05-02T08:16:18.999Z</time></trkpt><trkpt lat="42.26385693191337" lon="13.938348884069198"><ele>224.0</ele><time>2026-05-02T08:16:19.999Z</time></trkpt><trkpt lat="42.26378823590665" lon="13.93824794181128"><ele>229.0</ele><time>2026-05-02T08:16:20.999Z</time></trkpt><trkpt lat="42.263717951172325" lon="13.938129145566897"><ele>234.0</ele><time>2026-05-02T08:16:21.999Z</time></trkpt><trkpt lat="42.26363492158947" lon="13.937990378011051"><ele>239.0</ele><time>2026-05-02T08:16:22.999Z</time></trkpt><trkpt lat="42.263569405335495" lon="13.937842902813498"><ele>239.0</ele><time>2026-05-02T08:16:23.999Z</time></trkpt><trkpt lat="42.26349518426409" lon="13.937693766347847"><ele>239.0</ele><time>2026-05-02T08:16:24.999Z</time></trkpt><trkpt lat="42.26342708509643" lon="13.93753482450608"><ele>239.0</ele><time>2026-05-02T08:16:25.999Z</time></trkpt><trkpt lat="42.263378834958374" lon="13.937366865253596"><ele>239.0</ele><time>2026-05-02T08:16:26.999Z</time></trkpt><trkpt lat="42.26334143298004" lon="13.937192661802708"><ele>242.79999999999998</ele><time>2026-05-02T08:16:27.999Z</time></trkpt><trkpt lat="42.26331567227936" lon="13.937031068968315"><ele>246.59999999999997</ele><time>2026-05-02T08:16:28.999Z</time></trkpt><trkpt lat="42.26329356313609" lon="13.936884788248447"><ele>250.4</ele><time>2026-05-02T08:16:29.999Z</time></trkpt><trkpt lat="42.26327522110016" lon="13.9367618448013"><ele>254.2</ele><time>2026-05-02T08:16:30.999Z</time></trkpt><trkpt lat="42.26324528325065" lon="13.936661810841303"><ele>258.0</ele><time>2026-05-02T08:16:31.999Z</time></trkpt><trkpt lat="42.26320594624753" lon="13.936570625421842"><ele>259.1666666666667</ele><time>2026-05-02T08:16:32.999Z</time></trkpt><trkpt lat="42.26315367040151" lon="13.936503336198408"><ele>260.3333333333333</ele><time>2026-05-02T08:16:33.999Z</time></trkpt><trkpt lat="42.263091654705285" lon="13.936466787828733"><ele>261.5</ele><time>2026-05-02T08:16:34.999Z</time></trkpt><trkpt lat="42.26301756294613" lon="13.936447889330065"><ele>262.66666666666663</ele><time>2026-05-02T08:16:35.999Z</time></trkpt><trkpt lat="42.262926439353215" lon="13.936436372989075"><ele>263.8333333333333</ele><time>2026-05-02T08:16:36.999Z</time></trkpt><trkpt lat="42.26283845856529" lon="13.9364074490254"><ele>265.0</ele><time>2026-05-02T08:16:37.999Z</time></trkpt><trkpt lat="42.26277017772138" lon="13.936386253567097"><ele>265.0</ele><time>2026-05-02T08:16:38.999Z</time></trkpt><trkpt lat="42.26271675372555" lon="13.936339112620201"><ele>265.0</ele><time>2026-05-02T08:16:39.999Z</time></trkpt><trkpt lat="42.26264525504057" lon="13.936269955333554"><ele>265.0</ele><time>2026-05-02T08:16:40.999Z</time></trkpt><trkpt lat="42.262580687821206" lon="13.93615226884003"><ele>265.0</ele><time>2026-05-02T08:16:41.999Z</time></trkpt><trkpt lat="42.26250432818492" lon="13.93604419671285"><ele>265.0</ele><time>2026-05-02T08:16:42.999Z</time></trkpt><trkpt lat="42.26241964090644" lon="13.935934561694522"><ele>267.0</ele><time>2026-05-02T08:16:43.999Z</time></trkpt><trkpt lat="42.26232965494687" lon="13.935825892034572"><ele>269.0</ele><time>2026-05-02T08:16:44.999Z</time></trkpt><trkpt lat="42.2622496561275" lon="13.935732301555111"><ele>271.0</ele><time>2026-05-02T08:16:45.999Z</time></trkpt><trkpt lat="42.26217597249444" lon="13.935678356013474"><ele>273.0</ele><time>2026-05-02T08:16:46.999Z</time></trkpt><trkpt lat="42.26212606036219" lon="13.935602654287248"><ele>275.0</ele><time>2026-05-02T08:16:47.999Z</time></trkpt><trkpt lat="42.26209506437358" lon="13.935513074581241"><ele>275.0</ele><time>2026-05-02T08:16:48.999Z</time></trkpt><trkpt lat="42.26210130805632" lon="13.935416902963384"><ele>275.0</ele><time>2026-05-02T08:16:49.999Z</time></trkpt><trkpt lat="42.26210932083859" lon="13.9352993778226"><ele>275.0</ele><time>2026-05-02T08:16:50.999Z</time></trkpt><trkpt lat="42.262112068428586" lon="13.935144846978044"><ele>275.0</ele><time>2026-05-02T08:16:51.999Z</time></trkpt><trkpt lat="42.26210950819802" lon="13.934973640790421"><ele>275.0</ele><time>2026-05-02T08:16:52.999Z</time></trkpt><trkpt lat="42.262109078862004" lon="13.93480310147132"><ele>276.4</ele><time>2026-05-02T08:16:53.999Z</time></trkpt><trkpt lat="42.26210371940674" lon="13.93464620383148"><ele>277.8</ele><time>2026-05-02T08:16:54.999Z</time></trkpt><trkpt lat="42.26210237378181" lon="13.934517095708513"><ele>279.2</ele><time>2026-05-02T08:16:55.999Z</time></trkpt><trkpt lat="42.2620991716359" lon="13.934406003265238"><ele>280.6</ele><time>2026-05-02T08:16:56.999Z</time></trkpt><trkpt lat="42.26210532915352" lon="13.934306806756538"><ele>282.0</ele><time>2026-05-02T08:16:57.999Z</time></trkpt><trkpt lat="42.2621105556225" lon="13.934173748747911"><ele>283.4</ele><time>2026-05-02T08:16:59.999Z</time></trkpt><trkpt lat="42.26206625691307" lon="13.934050732073404"><ele>284.79999999999995</ele><time>2026-05-02T08:17:00.999Z</time></trkpt><trkpt lat="42.261996580076875" lon="13.934055519321374"><ele>286.2</ele><time>2026-05-02T08:17:02.999Z</time></trkpt><trkpt lat="42.26190263145317" lon="13.934061974191795"><ele>287.59999999999997</ele><time>2026-05-02T08:17:04.999Z</time></trkpt><trkpt lat="42.26176864613464" lon="13.934037227411103"><ele>289.0</ele><time>2026-05-02T08:17:06.999Z</time></trkpt><trkpt lat="42.261674417469365" lon="13.934012352742148"><ele>289.0</ele><time>2026-05-02T08:17:07.999Z</time></trkpt><trkpt lat="42.26155778023451" lon="13.93397727544431"><ele>289.0</ele><time>2026-05-02T08:17:08.999Z</time></trkpt><trkpt lat="42.26140319512329" lon="13.933958811235533"><ele>289.0</ele><time>2026-05-02T08:17:09.999Z</time></trkpt><trkpt lat="42.261270163016384" lon="13.933887872052168"><ele>289.0</ele><time>2026-05-02T08:17:10.999Z</time></trkpt><trkpt lat="42.261155544423474" lon="13.933840492645801"><ele>287.59999999999997</ele><time>2026-05-02T08:17:11.999Z</time></trkpt><trkpt lat="42.26105860656344" lon="13.933791806748173"><ele>286.2</ele><time>2026-05-02T08:17:12.999Z</time></trkpt><trkpt lat="42.260968347955775" lon="13.933750564873256"><ele>284.79999999999995</ele><time>2026-05-02T08:17:13.999Z</time></trkpt><trkpt lat="42.26088159283598" lon="13.933694221072177"><ele>283.4</ele><time>2026-05-02T08:17:14.999Z</time></trkpt><trkpt lat="42.26079568697545" lon="13.93365583451319"><ele>282.0</ele><time>2026-05-02T08:17:15.999Z</time></trkpt><trkpt lat="42.260715018290966" lon="13.93362057697963"><ele>282.0</ele><time>2026-05-02T08:17:16.999Z</time></trkpt><trkpt lat="42.26064073182802" lon="13.933553750152832"><ele>282.0</ele><time>2026-05-02T08:17:17.999Z</time></trkpt><trkpt lat="42.26056411285219" lon="13.93350749234726"><ele>282.0</ele><time>2026-05-02T08:17:18.999Z</time></trkpt><trkpt lat="42.26048323769038" lon="13.933496216223583"><ele>282.0</ele><time>2026-05-02T08:17:19.999Z</time></trkpt><trkpt lat="42.26039859136232" lon="13.93350226252242"><ele>282.0</ele><time>2026-05-02T08:17:20.999Z</time></trkpt><trkpt lat="42.260306911805976" lon="13.933517615725581"><ele>282.0</ele><time>2026-05-02T08:17:21.999Z</time></trkpt><trkpt lat="42.260212315619086" lon="13.933503489365268"><ele>282.4</ele><time>2026-05-02T08:17:22.999Z</time></trkpt><trkpt lat="42.26011377867299" lon="13.933513795198017"><ele>282.79999999999995</ele><time>2026-05-02T08:17:23.999Z</time></trkpt><trkpt lat="42.2600173898238" lon="13.933527028631625"><ele>283.2</ele><time>2026-05-02T08:17:24.999Z</time></trkpt><trkpt lat="42.259922369024075" lon="13.933536349604223"><ele>283.59999999999997</ele><time>2026-05-02T08:17:25.999Z</time></trkpt><trkpt lat="42.25982808948565" lon="13.93356030924752"><ele>284.0</ele><time>2026-05-02T08:17:26.999Z</time></trkpt><trkpt lat="42.2597343461652" lon="13.933537119309122"><ele>283.0</ele><time>2026-05-02T08:17:27.999Z</time></trkpt><trkpt lat="42.25965436164427" lon="13.933537161635634"><ele>282.0</ele><time>2026-05-02T08:17:28.999Z</time></trkpt><trkpt lat="42.259573126526796" lon="13.933534760509836"><ele>281.0</ele><time>2026-05-02T08:17:29.999Z</time></trkpt><trkpt lat="42.259494689811426" lon="13.933475070285008"><ele>280.0</ele><time>2026-05-02T08:17:30.999Z</time></trkpt><trkpt lat="42.25940708212902" lon="13.933412480700179"><ele>279.0</ele><time>2026-05-02T08:17:31.999Z</time></trkpt><trkpt lat="42.25930656915463" lon="13.933365346345221"><ele>282.0</ele><time>2026-05-02T08:17:32.999Z</time></trkpt><trkpt lat="42.25920805469738" lon="13.933312232712368"><ele>285.0</ele><time>2026-05-02T08:17:33.999Z</time></trkpt><trkpt lat="42.259117156957366" lon="13.93325351100929"><ele>288.0</ele><time>2026-05-02T08:17:34.999Z</time></trkpt><trkpt lat="42.25902683125556" lon="13.933184842278346"><ele>291.0</ele><time>2026-05-02T08:17:35.999Z</time></trkpt><trkpt lat="42.25893575790821" lon="13.933101308835985"><ele>294.0</ele><time>2026-05-02T08:17:36.999Z</time></trkpt><trkpt lat="42.258829858014884" lon="13.933071076064532"><ele>294.0</ele><time>2026-05-02T08:17:37.999Z</time></trkpt><trkpt lat="42.258714203606175" lon="13.933053076581285"><ele>294.0</ele><time>2026-05-02T08:17:38.999Z</time></trkpt><trkpt lat="42.25859704236488" lon="13.933037808187926"><ele>294.0</ele><time>2026-05-02T08:17:39.999Z</time></trkpt><trkpt lat="42.25848863583354" lon="13.933047673776137"><ele>294.0</ele><time>2026-05-02T08:17:40.999Z</time></trkpt><trkpt lat="42.25840146220009" lon="13.933066006859406"><ele>294.0</ele><time>2026-05-02T08:17:41.999Z</time></trkpt><trkpt lat="42.25832560665834" lon="13.933075121469855"><ele>294.0</ele><time>2026-05-02T08:17:42.999Z</time></trkpt><trkpt lat="42.25824333013239" lon="13.93308338383251"><ele>294.0</ele><time>2026-05-02T08:17:43.999Z</time></trkpt><trkpt lat="42.25814431125598" lon="13.93309475936086"><ele>294.0</ele><time>2026-05-02T08:17:44.999Z</time></trkpt><trkpt lat="42.25803988935354" lon="13.933104371694336"><ele>294.0</ele><time>2026-05-02T08:17:45.999Z</time></trkpt><trkpt lat="42.2579454813862" lon="13.933123928953387"><ele>294.0</ele><time>2026-05-02T08:17:46.999Z</time></trkpt><trkpt lat="42.25785071149909" lon="13.933102413086237"><ele>295.25</ele><time>2026-05-02T08:17:47.999Z</time></trkpt><trkpt lat="42.2577443704828" lon="13.933062852917654"><ele>296.5</ele><time>2026-05-02T08:17:48.998Z</time></trkpt><trkpt lat="42.2576216383489" lon="13.933080685129225"><ele>297.75</ele><time>2026-05-02T08:17:49.998Z</time></trkpt><trkpt lat="42.257482275512444" lon="13.933116964700872"><ele>299.0</ele><time>2026-05-02T08:17:50.998Z</time></trkpt><trkpt lat="42.25734228639388" lon="13.93315761280572"><ele>300.25</ele><time>2026-05-02T08:17:51.998Z</time></trkpt><trkpt lat="42.25721469712021" lon="13.933188883106329"><ele>301.5</ele><time>2026-05-02T08:17:52.998Z</time></trkpt><trkpt lat="42.257090242374495" lon="13.933205467510703"><ele>302.75</ele><time>2026-05-02T08:17:53.998Z</time></trkpt><trkpt lat="42.256978352322335" lon="13.933249993465711"><ele>304.0</ele><time>2026-05-02T08:17:54.998Z</time></trkpt><trkpt lat="42.25686598337728" lon="13.933290454341533"><ele>304.0</ele><time>2026-05-02T08:17:55.998Z</time></trkpt><trkpt lat="42.25676420166572" lon="13.933315303533103"><ele>304.0</ele><time>2026-05-02T08:17:56.998Z</time></trkpt><trkpt lat="42.2566696811309" lon="13.93332517250139"><ele>304.0</ele><time>2026-05-02T08:17:57.998Z</time></trkpt><trkpt lat="42.25656056579305" lon="13.933302843940846"><ele>304.0</ele><time>2026-05-02T08:17:58.998Z</time></trkpt><trkpt lat="42.2564395585823" lon="13.933266910432877"><ele>304.0</ele><time>2026-05-02T08:17:59.998Z</time></trkpt><trkpt lat="42.25632166141638" lon="13.933224135798977"><ele>303.8</ele><time>2026-05-02T08:18:00.998Z</time></trkpt><trkpt lat="42.25620728079436" lon="13.933178146593226"><ele>303.59999999999997</ele><time>2026-05-02T08:18:01.998Z</time></trkpt><trkpt lat="42.25609869293522" lon="13.933137529342401"><ele>303.4</ele><time>2026-05-02T08:18:02.998Z</time></trkpt><trkpt lat="42.255999037546594" lon="13.933094287916202"><ele>303.2</ele><time>2026-05-02T08:18:03.998Z</time></trkpt><trkpt lat="42.255906497920485" lon="13.933055036186849"><ele>303.0</ele><time>2026-05-02T08:18:04.998Z</time></trkpt><trkpt lat="42.25583003388723" lon="13.93300703366876"><ele>303.0</ele><time>2026-05-02T08:18:05.998Z</time></trkpt><trkpt lat="42.25575599502847" lon="13.932977132865576"><ele>303.0</ele><time>2026-05-02T08:18:06.998Z</time></trkpt><trkpt lat="42.25569872370317" lon="13.9328873568088"><ele>303.0</ele><time>2026-05-02T08:18:07.998Z</time></trkpt><trkpt lat="42.25567533948626" lon="13.93276350011026"><ele>303.0</ele><time>2026-05-02T08:18:08.998Z</time></trkpt><trkpt lat="42.25566795607902" lon="13.932626085595414"><ele>303.0</ele><time>2026-05-02T08:18:09.998Z</time></trkpt><trkpt lat="42.2556693425514" lon="13.932499987306175"><ele>303.4</ele><time>2026-05-02T08:18:10.998Z</time></trkpt><trkpt lat="42.255662692275706" lon="13.932394549638405"><ele>303.8</ele><time>2026-05-02T08:18:11.998Z</time></trkpt><trkpt lat="42.25565138424739" lon="13.932277414414438"><ele>304.2</ele><time>2026-05-02T08:18:12.998Z</time></trkpt><trkpt lat="42.25559858845997" lon="13.932168741141396"><ele>304.6</ele><time>2026-05-02T08:18:13.998Z</time></trkpt><trkpt lat="42.25554273983946" lon="13.932055142591187"><ele>305.0</ele><time>2026-05-02T08:18:14.998Z</time></trkpt><trkpt lat="42.25548279168926" lon="13.931956855862628"><ele>303.2</ele><time>2026-05-02T08:18:15.998Z</time></trkpt><trkpt lat="42.255414810923206" lon="13.931883861330977"><ele>301.4</ele><time>2026-05-02T08:18:16.998Z</time></trkpt><trkpt lat="42.25534457272417" lon="13.931816377726411"><ele>299.6</ele><time>2026-05-02T08:18:17.998Z</time></trkpt><trkpt lat="42.255268619984285" lon="13.931755989641896"><ele>297.8</ele><time>2026-05-02T08:18:18.998Z</time></trkpt><trkpt lat="42.25518067277892" lon="13.93171101678396"><ele>296.0</ele><time>2026-05-02T08:18:19.998Z</time></trkpt><trkpt lat="42.25508492077291" lon="13.931684021044688"><ele>296.0</ele><time>2026-05-02T08:18:20.998Z</time></trkpt><trkpt lat="42.25499679430746" lon="13.931674473182328"><ele>296.0</ele><time>2026-05-02T08:18:21.998Z</time></trkpt><trkpt lat="42.25491676188797" lon="13.931666769010375"><ele>296.0</ele><time>2026-05-02T08:18:22.998Z</time></trkpt><trkpt lat="42.25484841383708" lon="13.931595221843226"><ele>296.0</ele><time>2026-05-02T08:18:23.998Z</time></trkpt><trkpt lat="42.25479033769886" lon="13.931528255140115"><ele>296.0</ele><time>2026-05-02T08:18:24.998Z</time></trkpt><trkpt lat="42.25472866990506" lon="13.931424447700177"><ele>296.0</ele><time>2026-05-02T08:18:25.998Z</time></trkpt><trkpt lat="42.25464928747212" lon="13.931421948409646"><ele>295.0</ele><time>2026-05-02T08:18:26.998Z</time></trkpt><trkpt lat="42.25455304361588" lon="13.931432437477518"><ele>294.0</ele><time>2026-05-02T08:18:27.998Z</time></trkpt><trkpt lat="42.254452964102605" lon="13.931465081119207"><ele>293.0</ele><time>2026-05-02T08:18:28.998Z</time></trkpt><trkpt lat="42.25434433227951" lon="13.93152262820322"><ele>292.0</ele><time>2026-05-02T08:18:29.998Z</time></trkpt><trkpt lat="42.25422324407289" lon="13.931550242174113"><ele>291.0</ele><time>2026-05-02T08:18:30.998Z</time></trkpt><trkpt lat="42.25410577047974" lon="13.93157749359682"><ele>291.0</ele><time>2026-05-02T08:18:31.998Z</time></trkpt><trkpt lat="42.25399715037033" lon="13.931600297130785"><ele>291.0</ele><time>2026-05-02T08:18:32.998Z</time></trkpt><trkpt lat="42.25389568749582" lon="13.931612024119369"><ele>291.0</ele><time>2026-05-02T08:18:33.998Z</time></trkpt><trkpt lat="42.25379688641867" lon="13.931600966803009"><ele>291.0</ele><time>2026-05-02T08:18:34.998Z</time></trkpt><trkpt lat="42.25370255748674" lon="13.931587002751108"><ele>291.0</ele><time>2026-05-02T08:18:35.998Z</time></trkpt><trkpt lat="42.253615429950216" lon="13.931559243833183"><ele>290.40000000000003</ele><time>2026-05-02T08:18:36.998Z</time></trkpt><trkpt lat="42.25354227563745" lon="13.931487959458563"><ele>289.8</ele><time>2026-05-02T08:18:37.998Z</time></trkpt><trkpt lat="42.253453729106035" lon="13.93142092540544"><ele>289.20000000000005</ele><time>2026-05-02T08:18:38.998Z</time></trkpt><trkpt lat="42.25335135353147" lon="13.931352170142233"><ele>288.6</ele><time>2026-05-02T08:18:39.998Z</time></trkpt><trkpt lat="42.253247109086374" lon="13.931299849687498"><ele>288.0</ele><time>2026-05-02T08:18:40.998Z</time></trkpt><trkpt lat="42.25315001628111" lon="13.931251859229587"><ele>286.8</ele><time>2026-05-02T08:18:41.998Z</time></trkpt><trkpt lat="42.2530483443375" lon="13.931207272568356"><ele>285.6</ele><time>2026-05-02T08:18:42.998Z</time></trkpt><trkpt lat="42.25293916198504" lon="13.93116946918396"><ele>284.4</ele><time>2026-05-02T08:18:43.998Z</time></trkpt><trkpt lat="42.252825120933295" lon="13.93113829071709"><ele>283.2</ele><time>2026-05-02T08:18:44.998Z</time></trkpt><trkpt lat="42.252716592508484" lon="13.931111792565384"><ele>282.0</ele><time>2026-05-02T08:18:45.998Z</time></trkpt><trkpt lat="42.25261944886823" lon="13.93109514741529"><ele>282.0</ele><time>2026-05-02T08:18:46.998Z</time></trkpt><trkpt lat="42.25254020594575" lon="13.931082796003583"><ele>282.0</ele><time>2026-05-02T08:18:47.998Z</time></trkpt><trkpt lat="42.252468394180994" lon="13.931055078496081"><ele>282.0</ele><time>2026-05-02T08:18:48.998Z</time></trkpt><trkpt lat="42.25239818472986" lon="13.931030130986887"><ele>282.0</ele><time>2026-05-02T08:18:49.998Z</time></trkpt><trkpt lat="42.252345904663144" lon="13.93096728799463"><ele>282.0</ele><time>2026-05-02T08:18:50.998Z</time></trkpt><trkpt lat="42.252328590717156" lon="13.930867755426693"><ele>282.0</ele><time>2026-05-02T08:18:51.998Z</time></trkpt><trkpt lat="42.252308579831706" lon="13.930752438744301"><ele>280.8333333333333</ele><time>2026-05-02T08:18:52.998Z</time></trkpt><trkpt lat="42.252292575519185" lon="13.93063057620481"><ele>279.6666666666667</ele><time>2026-05-02T08:18:53.998Z</time></trkpt><trkpt lat="42.252274718000365" lon="13.9305152208444"><ele>278.5</ele><time>2026-05-02T08:18:54.998Z</time></trkpt><trkpt lat="42.252248940822646" lon="13.930407620489621"><ele>277.33333333333337</ele><time>2026-05-02T08:18:55.998Z</time></trkpt><trkpt lat="42.25220955043465" lon="13.93030269503048"><ele>276.1666666666667</ele><time>2026-05-02T08:18:56.998Z</time></trkpt><trkpt lat="42.25215751056949" lon="13.93021186115463"><ele>275.0</ele><time>2026-05-02T08:18:57.998Z</time></trkpt><trkpt lat="42.25209601349976" lon="13.930122406901388"><ele>275.0</ele><time>2026-05-02T08:18:58.998Z</time></trkpt><trkpt lat="42.25203649181013" lon="13.930044689150106"><ele>275.0</ele><time>2026-05-02T08:18:59.998Z</time></trkpt><trkpt lat="42.25197086815782" lon="13.9299724318186"><ele>275.0</ele><time>2026-05-02T08:19:00.998Z</time></trkpt><trkpt lat="42.25189295332815" lon="13.929926219496176"><ele>275.0</ele><time>2026-05-02T08:19:01.998Z</time></trkpt><trkpt lat="42.251809895712526" lon="13.929900945629841"><ele>275.0</ele><time>2026-05-02T08:19:02.998Z</time></trkpt><trkpt lat="42.251725325953004" lon="13.929881729310187"><ele>275.0</ele><time>2026-05-02T08:19:03.998Z</time></trkpt><trkpt lat="42.251646726049955" lon="13.92986363658477"><ele>275.0</ele><time>2026-05-02T08:19:04.998Z</time></trkpt><trkpt lat="42.25157131111164" lon="13.929844043380616"><ele>275.0</ele><time>2026-05-02T08:19:05.998Z</time></trkpt><trkpt lat="42.25150262339322" lon="13.929823194843227"><ele>275.0</ele><time>2026-05-02T08:19:06.998Z</time></trkpt><trkpt lat="42.25143863049055" lon="13.929799158038625"><ele>275.0</ele><time>2026-05-02T08:19:07.998Z</time></trkpt><trkpt lat="42.2513818244519" lon="13.929744869462597"><ele>275.0</ele><time>2026-05-02T08:19:08.998Z</time></trkpt><trkpt lat="42.251327709081735" lon="13.929671980042626"><ele>275.0</ele><time>2026-05-02T08:19:09.998Z</time></trkpt><trkpt lat="42.25125820515216" lon="13.929635692061773"><ele>275.0</ele><time>2026-05-02T08:19:10.998Z</time></trkpt><trkpt lat="42.25118003361285" lon="13.929641566508165"><ele>271.2</ele><time>2026-05-02T08:19:11.998Z</time></trkpt><trkpt lat="42.25107843846968" lon="13.929736563638153"><ele>267.4</ele><time>2026-05-02T08:19:13.998Z</time></trkpt><trkpt lat="42.25101618451536" lon="13.929828536555842"><ele>263.6</ele><time>2026-05-02T08:19:15.998Z</time></trkpt><trkpt lat="42.250960670335644" lon="13.929872013365642"><ele>259.8</ele><time>2026-05-02T08:19:17.998Z</time></trkpt><trkpt lat="42.25089941140326" lon="13.929833589671501"><ele>256.0</ele><time>2026-05-02T08:21:51.996Z</time></trkpt><trkpt lat="42.25094087420557" lon="13.929684522337329"><ele>255.99999999999997</ele><time>2026-05-02T08:21:53.996Z</time></trkpt><trkpt lat="42.250968374941635" lon="13.92959323814124"><ele>256.0</ele><time>2026-05-02T08:21:54.996Z</time></trkpt><trkpt lat="42.25100256399508" lon="13.929501955788332"><ele>256.0</ele><time>2026-05-02T08:21:55.996Z</time></trkpt><trkpt lat="42.251031484700675" lon="13.929406724812864"><ele>256.0</ele><time>2026-05-02T08:21:56.996Z</time></trkpt><trkpt lat="42.25105811913942" lon="13.929320400759913"><ele>255.99999999999997</ele><time>2026-05-02T08:21:57.996Z</time></trkpt><trkpt lat="42.251101244852585" lon="13.929178590403174"><ele>256.0</ele><time>2026-05-02T08:21:59.996Z</time></trkpt><trkpt lat="42.25114919336994" lon="13.929072414377302"><ele>256.0</ele><time>2026-05-02T08:22:01.996Z</time></trkpt><trkpt lat="42.25116847083618" lon="13.9289841449615"><ele>256.0</ele><time>2026-05-02T08:22:03.996Z</time></trkpt><trkpt lat="42.25105308445679" lon="13.92898673867362"><ele>256.0</ele><time>2026-05-02T08:22:07.996Z</time></trkpt><trkpt lat="42.25099057185677" lon="13.929148836398095"><ele>256.0</ele><time>2026-05-02T08:22:09.996Z</time></trkpt><trkpt lat="42.25092832356676" lon="13.92924128091559"><ele>256.0</ele><time>2026-05-02T08:22:10.996Z</time></trkpt><trkpt lat="42.250855416064134" lon="13.929316419333222"><ele>256.0</ele><time>2026-05-02T08:22:11.996Z</time></trkpt><trkpt lat="42.250779441293716" lon="13.929376555576843"><ele>256.0</ele><time>2026-05-02T08:22:12.996Z</time></trkpt><trkpt lat="42.25070568158684" lon="13.929445090807063"><ele>256.0</ele><time>2026-05-02T08:22:13.996Z</time></trkpt><trkpt lat="42.250627505030515" lon="13.929530643447594"><ele>256.0</ele><time>2026-05-02T08:22:14.996Z</time></trkpt><trkpt lat="42.25057967538521" lon="13.929632454684809"><ele>256.0</ele><time>2026-05-02T08:22:15.996Z</time></trkpt><trkpt lat="42.25054087529263" lon="13.92975256875898"><ele>254.60000000000002</ele><time>2026-05-02T08:22:16.996Z</time></trkpt><trkpt lat="42.25052248545988" lon="13.929876107867015"><ele>253.20000000000002</ele><time>2026-05-02T08:22:17.996Z</time></trkpt><trkpt lat="42.25051498629227" lon="13.930009583388975"><ele>251.79999999999998</ele><time>2026-05-02T08:22:18.996Z</time></trkpt><trkpt lat="42.25052970463791" lon="13.930156879823281"><ele>250.39999999999998</ele><time>2026-05-02T08:22:19.996Z</time></trkpt><trkpt lat="42.25057249533827" lon="13.930300451168012"><ele>249.0</ele><time>2026-05-02T08:22:20.996Z</time></trkpt><trkpt lat="42.25064666336956" lon="13.930422475892694"><ele>249.0</ele><time>2026-05-02T08:22:21.996Z</time></trkpt><trkpt lat="42.250704020416194" lon="13.930555202968295"><ele>248.99999999999997</ele><time>2026-05-02T08:22:22.996Z</time></trkpt><trkpt lat="42.2507514475741" lon="13.930684137552351"><ele>248.99999999999997</ele><time>2026-05-02T08:22:23.996Z</time></trkpt><trkpt lat="42.25077500260311" lon="13.930825861037574"><ele>249.0</ele><time>2026-05-02T08:22:24.996Z</time></trkpt><trkpt lat="42.250771809174594" lon="13.930980282120128"><ele>249.0</ele><time>2026-05-02T08:22:25.996Z</time></trkpt><trkpt lat="42.25076690051668" lon="13.931148849595703"><ele>249.25</ele><time>2026-05-02T08:22:26.996Z</time></trkpt><trkpt lat="42.25073203537049" lon="13.93131167276683"><ele>249.5</ele><time>2026-05-02T08:22:27.996Z</time></trkpt><trkpt lat="42.25070452553844" lon="13.93147301017805"><ele>249.75</ele><time>2026-05-02T08:22:28.996Z</time></trkpt><trkpt lat="42.25064690920086" lon="13.931628046233874"><ele>250.0</ele><time>2026-05-02T08:22:29.996Z</time></trkpt><trkpt lat="42.250580843109915" lon="13.931780318960332"><ele>245.0</ele><time>2026-05-02T08:22:30.996Z</time></trkpt><trkpt lat="42.25052444650042" lon="13.93192570641961"><ele>240.0</ele><time>2026-05-02T08:22:31.996Z</time></trkpt><trkpt lat="42.25047278984242" lon="13.932054946262593"><ele>235.0</ele><time>2026-05-02T08:22:32.996Z</time></trkpt><trkpt lat="42.25042994071218" lon="13.932174818724729"><ele>230.0</ele><time>2026-05-02T08:22:33.996Z</time></trkpt><trkpt lat="42.250394370296895" lon="13.932284462054838"><ele>225.0</ele><time>2026-05-02T08:22:34.996Z</time></trkpt><trkpt lat="42.25035880616762" lon="13.93238371006886"><ele>225.0</ele><time>2026-05-02T08:22:35.996Z</time></trkpt><trkpt lat="42.25032763036186" lon="13.93247686280564"><ele>225.0</ele><time>2026-05-02T08:22:36.996Z</time></trkpt><trkpt lat="42.25031316413935" lon="13.932568514783105"><ele>225.0</ele><time>2026-05-02T08:22:37.996Z</time></trkpt><trkpt lat="42.25028737559383" lon="13.932726707965815"><ele>225.0</ele><time>2026-05-02T08:22:39.996Z</time></trkpt><trkpt lat="42.2502567284554" lon="13.9328471365286"><ele>225.0</ele><time>2026-05-02T08:22:41.996Z</time></trkpt><trkpt lat="42.25031956976421" lon="13.932970393441352"><ele>223.8</ele><time>2026-05-02T08:22:43.996Z</time></trkpt><trkpt lat="42.250394797510765" lon="13.933020981925992"><ele>222.6</ele><time>2026-05-02T08:22:44.996Z</time></trkpt><trkpt lat="42.25047236391692" lon="13.933099323972897"><ele>221.39999999999998</ele><time>2026-05-02T08:22:45.996Z</time></trkpt><trkpt lat="42.25055087311572" lon="13.933167146444358"><ele>220.2</ele><time>2026-05-02T08:22:46.996Z</time></trkpt><trkpt lat="42.25062478807339" lon="13.933233502657899"><ele>219.0</ele><time>2026-05-02T08:22:47.996Z</time></trkpt><trkpt lat="42.25070613228002" lon="13.933297254588645"><ele>217.75</ele><time>2026-05-02T08:22:48.996Z</time></trkpt><trkpt lat="42.250803202216304" lon="13.933357473111565"><ele>216.5</ele><time>2026-05-02T08:22:49.999Z</time></trkpt><trkpt lat="42.25091496741172" lon="13.93341744320494"><ele>215.25</ele><time>2026-05-02T08:22:50.999Z</time></trkpt><trkpt lat="42.251048204966956" lon="13.933464386361903"><ele>214.0</ele><time>2026-05-02T08:22:51.999Z</time></trkpt><trkpt lat="42.251173247390895" lon="13.933505587875102"><ele>214.0</ele><time>2026-05-02T08:22:52.999Z</time></trkpt><trkpt lat="42.25128925867825" lon="13.933571313560114"><ele>214.0</ele><time>2026-05-02T08:22:53.999Z</time></trkpt><trkpt lat="42.25140144224129" lon="13.93364747716746"><ele>214.0</ele><time>2026-05-02T08:22:54.999Z</time></trkpt><trkpt lat="42.25150710277319" lon="13.933717695088287"><ele>214.0</ele><time>2026-05-02T08:22:55.999Z</time></trkpt><trkpt lat="42.25161818302624" lon="13.933762019435571"><ele>217.5</ele><time>2026-05-02T08:22:56.999Z</time></trkpt><trkpt lat="42.25171927339048" lon="13.93384354027057"><ele>221.0</ele><time>2026-05-02T08:22:57.999Z</time></trkpt><trkpt lat="42.251830226705614" lon="13.933902291225785"><ele>224.5</ele><time>2026-05-02T08:22:58.999Z</time></trkpt><trkpt lat="42.25194815994745" lon="13.933943800440504"><ele>228.0</ele><time>2026-05-02T08:22:59.999Z</time></trkpt><trkpt lat="42.2520572813938" lon="13.934011096869902"><ele>228.0</ele><time>2026-05-02T08:23:00.999Z</time></trkpt><trkpt lat="42.25216514493112" lon="13.934063518074776"><ele>228.0</ele><time>2026-05-02T08:23:01.999Z</time></trkpt><trkpt lat="42.2522629596305" lon="13.934113242109516"><ele>228.0</ele><time>2026-05-02T08:23:03Z</time></trkpt><trkpt lat="42.25234212248738" lon="13.934181242269968"><ele>228.0</ele><time>2026-05-02T08:23:04Z</time></trkpt><trkpt lat="42.25240766743956" lon="13.934232988908265"><ele>228.0</ele><time>2026-05-02T08:23:05Z</time></trkpt><trkpt lat="42.2524655647285" lon="13.934285831900919"><ele>230.83333333333334</ele><time>2026-05-02T08:23:06Z</time></trkpt><trkpt lat="42.25248160494798" lon="13.934378980798929"><ele>233.66666666666669</ele><time>2026-05-02T08:23:07Z</time></trkpt><trkpt lat="42.252471781190835" lon="13.934488611037288"><ele>236.5</ele><time>2026-05-02T08:23:08Z</time></trkpt><trkpt lat="42.25246287253398" lon="13.934598732775608"><ele>239.33333333333334</ele><time>2026-05-02T08:23:09Z</time></trkpt><trkpt lat="42.25243617253773" lon="13.934710093036998"><ele>242.16666666666669</ele><time>2026-05-02T08:23:10Z</time></trkpt><trkpt lat="42.25243106149598" lon="13.934832346531968"><ele>245.0</ele><time>2026-05-02T08:23:11Z</time></trkpt><trkpt lat="42.2524247495711" lon="13.934950507311132"><ele>244.4</ele><time>2026-05-02T08:23:12Z</time></trkpt><trkpt lat="42.252395230430025" lon="13.935061643224248"><ele>243.8</ele><time>2026-05-02T08:23:13Z</time></trkpt><trkpt lat="42.25234376560646" lon="13.935160672892902"><ele>243.2</ele><time>2026-05-02T08:23:14Z</time></trkpt><trkpt lat="42.25226610170826" lon="13.935255275607854"><ele>242.6</ele><time>2026-05-02T08:23:15Z</time></trkpt><trkpt lat="42.25218864939264" lon="13.935339733584208"><ele>242.0</ele><time>2026-05-02T08:23:16Z</time></trkpt><trkpt lat="42.25213357019394" lon="13.93539932772838"><ele>242.00000000000003</ele><time>2026-05-02T08:23:17Z</time></trkpt><trkpt lat="42.25207621861645" lon="13.935459205619823"><ele>242.0</ele><time>2026-05-02T08:23:19Z</time></trkpt><trkpt lat="42.25217184761941" lon="13.93538707415093"><ele>242.0</ele><time>2026-05-02T08:23:31Z</time></trkpt><trkpt lat="42.25223380869209" lon="13.935312150963963"><ele>242.0</ele><time>2026-05-02T08:23:32Z</time></trkpt><trkpt lat="42.25228214970607" lon="13.935247345401056"><ele>242.00000000000003</ele><time>2026-05-02T08:23:33Z</time></trkpt><trkpt lat="42.25233056101621" lon="13.935180382969852"><ele>242.0</ele><time>2026-05-02T08:23:34Z</time></trkpt><trkpt lat="42.25241280332429" lon="13.9351262368895"><ele>242.75</ele><time>2026-05-02T08:23:35Z</time></trkpt><trkpt lat="42.2524413861713" lon="13.93503386729175"><ele>243.5</ele><time>2026-05-02T08:23:36Z</time></trkpt><trkpt lat="42.252458045531334" lon="13.93494470886413"><ele>244.25</ele><time>2026-05-02T08:23:37Z</time></trkpt><trkpt lat="42.25246415412027" lon="13.934840028072315"><ele>245.0</ele><time>2026-05-02T08:23:39Z</time></trkpt><trkpt lat="42.25245659042288" lon="13.934286813076184"><ele>235.5</ele><time>2026-05-02T08:23:46Z</time></trkpt><trkpt lat="42.252221451153204" lon="13.934786987218745"><ele>226.0</ele><time>2026-05-02T08:23:48Z</time></trkpt><trkpt lat="42.25213137277627" lon="13.934819484442784"><ele>226.0</ele><time>2026-05-02T08:23:51Z</time></trkpt><trkpt lat="42.252057439538014" lon="13.934814885782949"><ele>226.0</ele><time>2026-05-02T08:23:53Z</time></trkpt><trkpt lat="42.25198953109189" lon="13.934803793622477"><ele>226.0</ele><time>2026-05-02T08:23:55Z</time></trkpt><trkpt lat="42.2519265380372" lon="13.934809690048985"><ele>226.0</ele><time>2026-05-02T08:23:57Z</time></trkpt><trkpt lat="42.25183570715244" lon="13.934814763475432"><ele>226.0</ele><time>2026-05-02T08:24:00Z</time></trkpt><trkpt lat="42.251765666501626" lon="13.934812936483002"><ele>226.0</ele><time>2026-05-02T08:24:02Z</time></trkpt><trkpt lat="42.25169196301379" lon="13.934802226984843"><ele>226.0</ele><time>2026-05-02T08:24:04Z</time></trkpt><trkpt lat="42.25161864302174" lon="13.934791012079776"><ele>225.99999999999997</ele><time>2026-05-02T08:24:06Z</time></trkpt><trkpt lat="42.251544285042996" lon="13.934821203199391"><ele>226.0</ele><time>2026-05-02T08:24:08Z</time></trkpt><trkpt lat="42.25146202180892" lon="13.9348198938486"><ele>226.0</ele><time>2026-05-02T08:24:10Z</time></trkpt><trkpt lat="42.2513817565151" lon="13.934830763581822"><ele>226.0</ele><time>2026-05-02T08:24:12Z</time></trkpt><trkpt lat="42.251299018291604" lon="13.9348372738177"><ele>225.99999999999997</ele><time>2026-05-02T08:24:14Z</time></trkpt><trkpt lat="42.25122065360907" lon="13.934850810943832"><ele>226.0</ele><time>2026-05-02T08:24:16Z</time></trkpt><trkpt lat="42.25114198906143" lon="13.934866588738721"><ele>222.20000000000002</ele><time>2026-05-02T08:24:18Z</time></trkpt><trkpt lat="42.251043508685996" lon="13.934908953595524"><ele>218.40000000000003</ele><time>2026-05-02T08:24:20Z</time></trkpt><trkpt lat="42.25093697693578" lon="13.934948620538384"><ele>214.6</ele><time>2026-05-02T08:24:22Z</time></trkpt><trkpt lat="42.25082024344157" lon="13.934961804985393"><ele>210.8</ele><time>2026-05-02T08:24:24Z</time></trkpt><trkpt lat="42.250725240795" lon="13.934952315749555"><ele>207.0</ele><time>2026-05-02T08:24:26Z</time></trkpt><trkpt lat="42.25063488877529" lon="13.934930743819052"><ele>204.2</ele><time>2026-05-02T08:24:28Z</time></trkpt><trkpt lat="42.25054192960881" lon="13.934911007299931"><ele>201.39999999999998</ele><time>2026-05-02T08:24:29.999Z</time></trkpt><trkpt lat="42.25046371480433" lon="13.934890132721906"><ele>198.60000000000002</ele><time>2026-05-02T08:24:31.999Z</time></trkpt><trkpt lat="42.25035280896963" lon="13.934876652266677"><ele>195.8</ele><time>2026-05-02T08:24:33.999Z</time></trkpt><trkpt lat="42.25025305767118" lon="13.934926198180973"><ele>193.0</ele><time>2026-05-02T08:24:35.999Z</time></trkpt><trkpt lat="42.25018868157402" lon="13.93496295343304"><ele>192.99999999999997</ele><time>2026-05-02T08:24:36.999Z</time></trkpt><trkpt lat="42.250092608040546" lon="13.934970694062146"><ele>193.0</ele><time>2026-05-02T08:24:38.999Z</time></trkpt><trkpt lat="42.25001514723382" lon="13.9349614936198"><ele>193.0</ele><time>2026-05-02T08:24:40.999Z</time></trkpt><trkpt lat="42.249945068984665" lon="13.934953480759797"><ele>193.0</ele><time>2026-05-02T08:24:42.999Z</time></trkpt><trkpt lat="42.24986846377276" lon="13.934924599464455"><ele>192.99999999999997</ele><time>2026-05-02T08:24:44.999Z</time></trkpt><trkpt lat="42.2497908035458" lon="13.93488943663827"><ele>193.0</ele><time>2026-05-02T08:24:46.999Z</time></trkpt><trkpt lat="42.24972160512849" lon="13.934861327283144"><ele>190.83333333333331</ele><time>2026-05-02T08:24:48.999Z</time></trkpt><trkpt lat="42.24965551217674" lon="13.934867712803882"><ele>188.66666666666666</ele><time>2026-05-02T08:24:50.999Z</time></trkpt><trkpt lat="42.24957305910254" lon="13.934913023605256"><ele>186.5</ele><time>2026-05-02T08:24:52.999Z</time></trkpt><trkpt lat="42.2494927041093" lon="13.934949215586714"><ele>184.33333333333331</ele><time>2026-05-02T08:24:54.999Z</time></trkpt><trkpt lat="42.24941385308762" lon="13.934994654951193"><ele>182.16666666666666</ele><time>2026-05-02T08:24:56.999Z</time></trkpt><trkpt lat="42.24932225929903" lon="13.934999782341379"><ele>180.0</ele><time>2026-05-02T08:24:58.999Z</time></trkpt><trkpt lat="42.24924310760433" lon="13.935016493685474"><ele>180.0</ele><time>2026-05-02T08:25:00.999Z</time></trkpt><trkpt lat="42.24915382225503" lon="13.935013452290697"><ele>180.0</ele><time>2026-05-02T08:25:02.999Z</time></trkpt><trkpt lat="42.24907377631872" lon="13.935014061420619"><ele>180.0</ele><time>2026-05-02T08:25:04.999Z</time></trkpt><trkpt lat="42.249007157757404" lon="13.93496885278823"><ele>180.0</ele><time>2026-05-02T08:25:07.999Z</time></trkpt><trkpt lat="42.24892252685514" lon="13.934947674569878"><ele>180.0</ele><time>2026-05-02T08:25:10.999Z</time></trkpt><trkpt lat="42.24882769842676" lon="13.934981113717368"><ele>180.0</ele><time>2026-05-02T08:25:12.999Z</time></trkpt><trkpt lat="42.248731867783064" lon="13.935023045467922"><ele>178.2</ele><time>2026-05-02T08:25:14.999Z</time></trkpt><trkpt lat="42.24864199907441" lon="13.935032680493435"><ele>176.4</ele><time>2026-05-02T08:25:16.999Z</time></trkpt><trkpt lat="42.248597877603956" lon="13.93514150703801"><ele>174.60000000000002</ele><time>2026-05-02T08:25:18.999Z</time></trkpt><trkpt lat="42.248532692044854" lon="13.935253883697074"><ele>172.8</ele><time>2026-05-02T08:25:20.999Z</time></trkpt><trkpt lat="42.24845049051341" lon="13.935354194060906"><ele>171.0</ele><time>2026-05-02T08:25:22.999Z</time></trkpt><trkpt lat="42.248353313553814" lon="13.935412063178774"><ele>168.8</ele><time>2026-05-02T08:25:24.999Z</time></trkpt><trkpt lat="42.248285743658585" lon="13.935439885726382"><ele>166.60000000000002</ele><time>2026-05-02T08:25:25.999Z</time></trkpt><trkpt lat="42.24819600125289" lon="13.935500982078237"><ele>164.4</ele><time>2026-05-02T08:25:27.999Z</time></trkpt><trkpt lat="42.24817613794283" lon="13.935634195498771"><ele>162.2</ele><time>2026-05-02T08:25:29.999Z</time></trkpt><trkpt lat="42.24820463459036" lon="13.935820149811647"><ele>160.0</ele><time>2026-05-02T08:25:31.999Z</time></trkpt><trkpt lat="42.24821698883231" lon="13.935942188144274"><ele>159.5</ele><time>2026-05-02T08:25:32.999Z</time></trkpt><trkpt lat="42.24822882231826" lon="13.936054689686832"><ele>159.0</ele><time>2026-05-02T08:25:33.999Z</time></trkpt><trkpt lat="42.248235866505176" lon="13.936171317204442"><ele>158.5</ele><time>2026-05-02T08:25:34.999Z</time></trkpt><trkpt lat="42.24823656208632" lon="13.936258561095181"><ele>158.0</ele><time>2026-05-02T08:25:35.999Z</time></trkpt><trkpt lat="42.248218514467354" lon="13.936408679928093"><ele>157.5</ele><time>2026-05-02T08:25:37.999Z</time></trkpt><trkpt lat="42.24819628728074" lon="13.936497145112588"><ele>157.0</ele><time>2026-05-02T08:25:38.999Z</time></trkpt><trkpt lat="42.24816932292965" lon="13.936599241152633"><ele>156.99999999999997</ele><time>2026-05-02T08:25:39.999Z</time></trkpt><trkpt lat="42.24814207144711" lon="13.936687409959218"><ele>157.0</ele><time>2026-05-02T08:25:40.999Z</time></trkpt><trkpt lat="42.24811275470052" lon="13.93676293022065"><ele>157.0</ele><time>2026-05-02T08:25:41.999Z</time></trkpt><trkpt lat="42.24807545249929" lon="13.936836582404036"><ele>157.0</ele><time>2026-05-02T08:25:42.999Z</time></trkpt><trkpt lat="42.248031489587255" lon="13.93689812349943"><ele>157.0</ele><time>2026-05-02T08:25:43.999Z</time></trkpt><trkpt lat="42.24797187362859" lon="13.936962185235938"><ele>156.99999999999997</ele><time>2026-05-02T08:25:44.999Z</time></trkpt><trkpt lat="42.24790773092425" lon="13.937014588833485"><ele>157.0</ele><time>2026-05-02T08:25:45.999Z</time></trkpt><trkpt lat="42.2478519402899" lon="13.937059876310878"><ele>154.33333333333334</ele><time>2026-05-02T08:25:46.999Z</time></trkpt><trkpt lat="42.24778643427662" lon="13.937108070317304"><ele>151.66666666666669</ele><time>2026-05-02T08:25:47.999Z</time></trkpt><trkpt lat="42.24770720764847" lon="13.937153437287947"><ele>149.0</ele><time>2026-05-02T08:25:48.999Z</time></trkpt><trkpt lat="42.24762582886206" lon="13.937208202253853"><ele>146.33333333333334</ele><time>2026-05-02T08:25:49.999Z</time></trkpt><trkpt lat="42.24754172329363" lon="13.937269077603196"><ele>143.66666666666666</ele><time>2026-05-02T08:25:50.999Z</time></trkpt><trkpt lat="42.24748497056747" lon="13.937306727795859"><ele>141.0</ele><time>2026-05-02T08:25:51.999Z</time></trkpt><trkpt lat="42.24742125469584" lon="13.937305880371019"><ele>141.0</ele><time>2026-05-02T08:25:52.999Z</time></trkpt><trkpt lat="42.24733869439169" lon="13.93729293201532"><ele>141.0</ele><time>2026-05-02T08:25:53.999Z</time></trkpt><trkpt lat="42.24727224225828" lon="13.937275287420876"><ele>141.0</ele><time>2026-05-02T08:25:54.999Z</time></trkpt><trkpt lat="42.24716350456044" lon="13.937171207247433"><ele>141.0</ele><time>2026-05-02T08:25:56.999Z</time></trkpt><trkpt lat="42.24709543311445" lon="13.93709067084086"><ele>141.0</ele><time>2026-05-02T08:25:58.999Z</time></trkpt><trkpt lat="42.24702688702257" lon="13.9370773470787"><ele>141.0</ele><time>2026-05-02T08:26:20.999Z</time></trkpt><trkpt lat="42.24695505276617" lon="13.937029592654197"><ele>141.16666666666666</ele><time>2026-05-02T08:26:23.999Z</time></trkpt><trkpt lat="42.24689059587809" lon="13.936970646085692"><ele>141.33333333333334</ele><time>2026-05-02T08:26:26.999Z</time></trkpt><trkpt lat="42.24685095077611" lon="13.936893729673388"><ele>141.5</ele><time>2026-05-02T08:26:30.999Z</time></trkpt><trkpt lat="42.246808680960974" lon="13.936765578127632"><ele>141.66666666666669</ele><time>2026-05-02T08:26:32.999Z</time></trkpt><trkpt lat="42.24678480922512" lon="13.9366697939661"><ele>141.83333333333334</ele><time>2026-05-02T08:26:35.999Z</time></trkpt><trkpt lat="42.24674909630259" lon="13.936599031927"><ele>142.0</ele><time>2026-05-02T08:26:40.998Z</time></trkpt><trkpt lat="42.24670517849286" lon="13.936504656981516"><ele>142.0</ele><time>2026-05-02T08:26:46.998Z</time></trkpt><trkpt lat="42.246662420553236" lon="13.936414915191714"><ele>142.0</ele><time>2026-05-02T08:26:47.998Z</time></trkpt><trkpt lat="42.24661240130344" lon="13.936332550041682"><ele>142.0</ele><time>2026-05-02T08:26:48.998Z</time></trkpt><trkpt lat="42.246540768422626" lon="13.936195200718574"><ele>142.0</ele><time>2026-05-02T08:26:49.998Z</time></trkpt><trkpt lat="42.246472217863264" lon="13.936216387071303"><ele>142.0</ele><time>2026-05-02T08:26:50.998Z</time></trkpt><trkpt lat="42.24638782695105" lon="13.936337527508876"><ele>143.42857142857142</ele><time>2026-05-02T08:26:52.998Z</time></trkpt><trkpt lat="42.24640192207084" lon="13.93644455923483"><ele>144.85714285714283</ele><time>2026-05-02T08:26:53.998Z</time></trkpt><trkpt lat="42.24636864176064" lon="13.936517643638455"><ele>146.28571428571428</ele><time>2026-05-02T08:26:54.998Z</time></trkpt><trkpt lat="42.246318979981176" lon="13.936598035514955"><ele>147.71428571428572</ele><time>2026-05-02T08:26:56.998Z</time></trkpt><trkpt lat="42.24625838385326" lon="13.936621513537757"><ele>149.14285714285717</ele><time>2026-05-02T08:27:02.998Z</time></trkpt><trkpt lat="42.24623467680943" lon="13.936710622333527"><ele>150.57142857142856</ele><time>2026-05-02T08:27:14.997Z</time></trkpt><trkpt lat="42.246224564559945" lon="13.936809054607643"><ele>152.0</ele><time>2026-05-02T08:27:15.997Z</time></trkpt><trkpt lat="42.246246264756294" lon="13.936916296334868"><ele>152.33333333333331</ele><time>2026-05-02T08:27:16.997Z</time></trkpt><trkpt lat="42.24624954198975" lon="13.937040168441118"><ele>152.66666666666666</ele><time>2026-05-02T08:27:17.997Z</time></trkpt><trkpt lat="42.24628880887693" lon="13.937116651989433"><ele>153.0</ele><time>2026-05-02T08:27:18.997Z</time></trkpt><trkpt lat="42.24631614890319" lon="13.937220510928707"><ele>153.33333333333334</ele><time>2026-05-02T08:27:20.997Z</time></trkpt><trkpt lat="42.24623339055351" lon="13.937293863798955"><ele>153.66666666666669</ele><time>2026-05-02T08:27:21.997Z</time></trkpt><trkpt lat="42.24618907614749" lon="13.937356863826825"><ele>154.0</ele><time>2026-05-02T08:27:22.997Z</time></trkpt><trkpt lat="42.246142107708074" lon="13.937422540581519"><ele>154.0</ele><time>2026-05-02T08:27:23.997Z</time></trkpt><trkpt lat="42.24612856228135" lon="13.937549635973845"><ele>154.0</ele><time>2026-05-02T08:27:24.997Z</time></trkpt><trkpt lat="42.24607272118255" lon="13.937626151037573"><ele>154.0</ele><time>2026-05-02T08:27:25.997Z</time></trkpt><trkpt lat="42.24602266460427" lon="13.937696049334445"><ele>154.0</ele><time>2026-05-02T08:27:26.997Z</time></trkpt><trkpt lat="42.245968117437" lon="13.937754638217932"><ele>154.0</ele><time>2026-05-02T08:27:27.997Z</time></trkpt><trkpt lat="42.24591405318633" lon="13.937802463005482"><ele>154.0</ele><time>2026-05-02T08:27:29.997Z</time></trkpt><trkpt lat="42.24586723229453" lon="13.937740697128753"><ele>154.0</ele><time>2026-05-02T08:27:31.997Z</time></trkpt><trkpt lat="42.245825415743646" lon="13.937608581802772"><ele>154.0</ele><time>2026-05-02T08:27:33.997Z</time></trkpt><trkpt lat="42.2457902607538" lon="13.93748512139"><ele>154.0</ele><time>2026-05-02T08:27:34.997Z</time></trkpt><trkpt lat="42.24575391496964" lon="13.937365003319677"><ele>154.0</ele><time>2026-05-02T08:27:35.997Z</time></trkpt><trkpt lat="42.245693738340876" lon="13.937212019217888"><ele>154.0</ele><time>2026-05-02T08:27:36.997Z</time></trkpt><trkpt lat="42.24562198640134" lon="13.937071414591784"><ele>154.0</ele><time>2026-05-02T08:27:37.997Z</time></trkpt><trkpt lat="42.24555547151397" lon="13.936903091825432"><ele>155.0</ele><time>2026-05-02T08:27:38.997Z</time></trkpt><trkpt lat="42.245486219196316" lon="13.936711188245154"><ele>156.0</ele><time>2026-05-02T08:27:39.997Z</time></trkpt><trkpt lat="42.24541169316566" lon="13.936504171675438"><ele>157.0</ele><time>2026-05-02T08:27:40.997Z</time></trkpt><trkpt lat="42.245337500330116" lon="13.936305943290229"><ele>157.0</ele><time>2026-05-02T08:27:41.997Z</time></trkpt><trkpt lat="42.24526235172607" lon="13.936104909213833"><ele>157.0</ele><time>2026-05-02T08:27:42.997Z</time></trkpt><trkpt lat="42.24520532832573" lon="13.935902209916835"><ele>157.0</ele><time>2026-05-02T08:27:43.997Z</time></trkpt><trkpt lat="42.24514837125993" lon="13.93571692589718"><ele>157.6</ele><time>2026-05-02T08:27:44.997Z</time></trkpt><trkpt lat="42.24510024839538" lon="13.935550013695316"><ele>158.2</ele><time>2026-05-02T08:27:45.997Z</time></trkpt><trkpt lat="42.245052237042856" lon="13.935434143329264"><ele>158.8</ele><time>2026-05-02T08:27:46.997Z</time></trkpt><trkpt lat="42.2450285886787" lon="13.935345749698103"><ele>159.4</ele><time>2026-05-02T08:27:47.997Z</time></trkpt><trkpt lat="42.24498739189961" lon="13.935205850819617"><ele>160.0</ele><time>2026-05-02T08:27:49.997Z</time></trkpt><trkpt lat="42.244917321062196" lon="13.935147940531806"><ele>160.0</ele><time>2026-05-02T08:27:50.997Z</time></trkpt><trkpt lat="42.24485461846422" lon="13.935103756685725"><ele>160.0</ele><time>2026-05-02T08:27:51.997Z</time></trkpt><trkpt lat="42.244787119136646" lon="13.935078427854837"><ele>160.0</ele><time>2026-05-02T08:27:54.997Z</time></trkpt><trkpt lat="42.24469832304779" lon="13.935157484174063"><ele>160.0</ele><time>2026-05-02T08:27:56.997Z</time></trkpt><trkpt lat="42.24464079232622" lon="13.93536431957647"><ele>160.0</ele><time>2026-05-02T08:27:57.997Z</time></trkpt><trkpt lat="42.24457751641569" lon="13.935554280015525"><ele>160.5</ele><time>2026-05-02T08:27:58.997Z</time></trkpt><trkpt lat="42.24452025988585" lon="13.935770090602785"><ele>161.0</ele><time>2026-05-02T08:27:59.997Z</time></trkpt><trkpt lat="42.24446680929807" lon="13.935965545825498"><ele>161.5</ele><time>2026-05-02T08:28:00.997Z</time></trkpt><trkpt lat="42.24442242017266" lon="13.936107219617137"><ele>162.0</ele><time>2026-05-02T08:28:01.997Z</time></trkpt><trkpt lat="42.244362466028065" lon="13.936264869019816"><ele>162.0</ele><time>2026-05-02T08:28:02.997Z</time></trkpt><trkpt lat="42.2442952839206" lon="13.936410978302067"><ele>162.0</ele><time>2026-05-02T08:28:03.997Z</time></trkpt><trkpt lat="42.24424912769272" lon="13.936523730441374"><ele>162.0</ele><time>2026-05-02T08:28:04.997Z</time></trkpt><trkpt lat="42.244189973917045" lon="13.936653006426274"><ele>162.0</ele><time>2026-05-02T08:28:05.997Z</time></trkpt><trkpt lat="42.244142351559454" lon="13.9367563739599"><ele>162.0</ele><time>2026-05-02T08:28:06.997Z</time></trkpt><trkpt lat="42.24407672086864" lon="13.936889258716855"><ele>161.66666666666666</ele><time>2026-05-02T08:28:07.997Z</time></trkpt><trkpt lat="42.2440298387305" lon="13.936966565348722"><ele>161.33333333333334</ele><time>2026-05-02T08:28:08.997Z</time></trkpt><trkpt lat="42.243962198992826" lon="13.936973082779277"><ele>161.0</ele><time>2026-05-02T08:28:10.997Z</time></trkpt><trkpt lat="42.243889405759134" lon="13.936806219121264"><ele>160.66666666666669</ele><time>2026-05-02T08:28:12.997Z</time></trkpt><trkpt lat="42.243865180627225" lon="13.936720831384196"><ele>160.33333333333334</ele><time>2026-05-02T08:28:13.997Z</time></trkpt><trkpt lat="42.243827109269255" lon="13.936633778957615"><ele>160.0</ele><time>2026-05-02T08:28:14.997Z</time></trkpt><trkpt lat="42.24381973811945" lon="13.936544624189445"><ele>161.0</ele><time>2026-05-02T08:28:15.997Z</time></trkpt><trkpt lat="42.24376654335021" lon="13.9364551105146"><ele>162.0</ele><time>2026-05-02T08:28:16.997Z</time></trkpt><trkpt lat="42.243746152004086" lon="13.936313807773857"><ele>163.0</ele><time>2026-05-02T08:28:17.997Z</time></trkpt><trkpt lat="42.24371187986843" lon="13.936176728125378"><ele>164.0</ele><time>2026-05-02T08:28:18.997Z</time></trkpt><trkpt lat="42.24369398976863" lon="13.936001378937814"><ele>165.0</ele><time>2026-05-02T08:28:19.997Z</time></trkpt><trkpt lat="42.24366101331219" lon="13.935792974133767"><ele>165.66666666666666</ele><time>2026-05-02T08:28:20.997Z</time></trkpt><trkpt lat="42.24355595358434" lon="13.935566461200894"><ele>166.33333333333331</ele><time>2026-05-02T08:28:21.997Z</time></trkpt><trkpt lat="42.24350409730875" lon="13.935361547490261"><ele>167.0</ele><time>2026-05-02T08:28:22.997Z</time></trkpt><trkpt lat="42.24345683843893" lon="13.935174800788051"><ele>167.66666666666666</ele><time>2026-05-02T08:28:23.997Z</time></trkpt><trkpt lat="42.24340026077842" lon="13.93500111076193"><ele>168.33333333333334</ele><time>2026-05-02T08:28:24.997Z</time></trkpt><trkpt lat="42.243386982923745" lon="13.934772642838213"><ele>169.0</ele><time>2026-05-02T08:28:25.997Z</time></trkpt><trkpt lat="42.24334246631738" lon="13.934580594088935"><ele>169.0</ele><time>2026-05-02T08:28:26.997Z</time></trkpt><trkpt lat="42.24328534987163" lon="13.934401453687183"><ele>169.0</ele><time>2026-05-02T08:28:27.997Z</time></trkpt><trkpt lat="42.243241514392885" lon="13.934194715205129"><ele>169.0</ele><time>2026-05-02T08:28:28.997Z</time></trkpt><trkpt lat="42.24320979696626" lon="13.9339894207336"><ele>171.0</ele><time>2026-05-02T08:28:29.997Z</time></trkpt><trkpt lat="42.24310043922377" lon="13.933802863039457"><ele>173.0</ele><time>2026-05-02T08:28:30.997Z</time></trkpt><trkpt lat="42.24305028945827" lon="13.93359077117998"><ele>175.0</ele><time>2026-05-02T08:28:31.997Z</time></trkpt><trkpt lat="42.2429983345997" lon="13.933406343286281"><ele>175.5</ele><time>2026-05-02T08:28:32.997Z</time></trkpt><trkpt lat="42.24296526773983" lon="13.93321692623038"><ele>176.0</ele><time>2026-05-02T08:28:33.997Z</time></trkpt><trkpt lat="42.2429147392934" lon="13.93303122138204"><ele>176.5</ele><time>2026-05-02T08:28:34.997Z</time></trkpt><trkpt lat="42.24285927187439" lon="13.93284155398989"><ele>177.0</ele><time>2026-05-02T08:28:35.997Z</time></trkpt><trkpt lat="42.24281399706693" lon="13.932657255863365"><ele>177.5</ele><time>2026-05-02T08:28:36.997Z</time></trkpt><trkpt lat="42.24276833367532" lon="13.932463520108326"><ele>178.0</ele><time>2026-05-02T08:28:37.997Z</time></trkpt><trkpt lat="42.24275077776502" lon="13.932261768953271"><ele>178.5</ele><time>2026-05-02T08:28:38.997Z</time></trkpt><trkpt lat="42.242739853091585" lon="13.932112117286001"><ele>179.0</ele><time>2026-05-02T08:28:39.997Z</time></trkpt><trkpt lat="42.24270014143147" lon="13.931957738943293"><ele>179.0</ele><time>2026-05-02T08:28:40.997Z</time></trkpt><trkpt lat="42.24265733080874" lon="13.931816341267533"><ele>179.0</ele><time>2026-05-02T08:28:41.997Z</time></trkpt><trkpt lat="42.242611357715035" lon="13.93169435204609"><ele>179.0</ele><time>2026-05-02T08:28:42.997Z</time></trkpt><trkpt lat="42.24258214718321" lon="13.9315744734009"><ele>179.0</ele><time>2026-05-02T08:28:43.997Z</time></trkpt><trkpt lat="42.24251721488312" lon="13.931477986083046"><ele>179.0</ele><time>2026-05-02T08:28:44.997Z</time></trkpt><trkpt lat="42.242499777143756" lon="13.93137192391917"><ele>179.39999999999998</ele><time>2026-05-02T08:28:45.997Z</time></trkpt><trkpt lat="42.24246488360047" lon="13.931265603508676"><ele>179.8</ele><time>2026-05-02T08:28:46.997Z</time></trkpt><trkpt lat="42.24245207935467" lon="13.931132527076782"><ele>180.2</ele><time>2026-05-02T08:28:47.997Z</time></trkpt><trkpt lat="42.24242778629194" lon="13.930994062898154"><ele>180.60000000000002</ele><time>2026-05-02T08:28:48.997Z</time></trkpt><trkpt lat="42.24241363084173" lon="13.93083791038392"><ele>181.0</ele><time>2026-05-02T08:28:49.997Z</time></trkpt><trkpt lat="42.24237013674795" lon="13.93066145547576"><ele>181.25</ele><time>2026-05-02T08:28:50.997Z</time></trkpt><trkpt lat="42.24227647269609" lon="13.93050463177398"><ele>181.5</ele><time>2026-05-02T08:28:51.997Z</time></trkpt><trkpt lat="42.24222456324787" lon="13.930292468429961"><ele>181.75</ele><time>2026-05-02T08:28:52.997Z</time></trkpt><trkpt lat="42.24217836246665" lon="13.930131236507165"><ele>182.0</ele><time>2026-05-02T08:28:53.997Z</time></trkpt><trkpt lat="42.242142059197754" lon="13.92994391912344"><ele>182.0</ele><time>2026-05-02T08:28:54.997Z</time></trkpt><trkpt lat="42.242087626873825" lon="13.929780891264329"><ele>182.0</ele><time>2026-05-02T08:28:55.997Z</time></trkpt><trkpt lat="42.24206160815536" lon="13.92962027872848"><ele>182.0</ele><time>2026-05-02T08:28:56.997Z</time></trkpt><trkpt lat="42.242023745395855" lon="13.929468649739517"><ele>182.0</ele><time>2026-05-02T08:28:57.997Z</time></trkpt><trkpt lat="42.24198418841987" lon="13.929310223178353"><ele>182.0</ele><time>2026-05-02T08:28:58.997Z</time></trkpt><trkpt lat="42.2419371916019" lon="13.929151910550475"><ele>182.0</ele><time>2026-05-02T08:28:59.997Z</time></trkpt><trkpt lat="42.24190096709838" lon="13.92897413762368"><ele>182.0</ele><time>2026-05-02T08:29:00.997Z</time></trkpt><trkpt lat="42.24187239112684" lon="13.928797919105216"><ele>182.0</ele><time>2026-05-02T08:29:01.997Z</time></trkpt><trkpt lat="42.24185707338386" lon="13.928640136521167"><ele>182.0</ele><time>2026-05-02T08:29:02.997Z</time></trkpt><trkpt lat="42.24182095631506" lon="13.92848094867533"><ele>182.0</ele><time>2026-05-02T08:29:03.997Z</time></trkpt><trkpt lat="42.241785401597525" lon="13.928335529006372"><ele>182.0</ele><time>2026-05-02T08:29:04.997Z</time></trkpt><trkpt lat="42.24174442795499" lon="13.928171017324365"><ele>182.0</ele><time>2026-05-02T08:29:05.997Z</time></trkpt><trkpt lat="42.24171518902818" lon="13.927995890667232"><ele>183.0</ele><time>2026-05-02T08:29:06.997Z</time></trkpt><trkpt lat="42.24164043662492" lon="13.927824723272744"><ele>184.0</ele><time>2026-05-02T08:29:07.997Z</time></trkpt><trkpt lat="42.241564239615805" lon="13.927682977150395"><ele>185.0</ele><time>2026-05-02T08:29:08.997Z</time></trkpt><trkpt lat="42.24152645118669" lon="13.927520658669035"><ele>186.0</ele><time>2026-05-02T08:29:09.997Z</time></trkpt><trkpt lat="42.24148885465442" lon="13.927378096634747"><ele>186.0</ele><time>2026-05-02T08:29:10.997Z</time></trkpt><trkpt lat="42.24145642259427" lon="13.92724650996866"><ele>186.0</ele><time>2026-05-02T08:29:11.997Z</time></trkpt><trkpt lat="42.24143901904127" lon="13.92711745156437"><ele>186.0</ele><time>2026-05-02T08:29:12.997Z</time></trkpt><trkpt lat="42.24141214533641" lon="13.927009243954465"><ele>186.0</ele><time>2026-05-02T08:29:13.997Z</time></trkpt><trkpt lat="42.24138026820137" lon="13.926905360372544"><ele>186.0</ele><time>2026-05-02T08:29:14.997Z</time></trkpt><trkpt lat="42.24137449726164" lon="13.926741929211639"><ele>186.66666666666666</ele><time>2026-05-02T08:29:16.997Z</time></trkpt><trkpt lat="42.24136578738532" lon="13.926645822578868"><ele>187.33333333333334</ele><time>2026-05-02T08:29:18.997Z</time></trkpt><trkpt lat="42.24129762726123" lon="13.92654814231301"><ele>188.0</ele><time>2026-05-02T08:30:14.001Z</time></trkpt><trkpt lat="42.241221466521345" lon="13.926411479371117"><ele>188.66666666666669</ele><time>2026-05-02T08:30:16.001Z</time></trkpt><trkpt lat="42.241278777853715" lon="13.926333141383205"><ele>189.33333333333334</ele><time>2026-05-02T08:30:17.001Z</time></trkpt><trkpt lat="42.24134764864535" lon="13.92634657253919"><ele>190.0</ele><time>2026-05-02T08:30:18.001Z</time></trkpt><trkpt lat="42.241431527386574" lon="13.926332723989997"><ele>189.25</ele><time>2026-05-02T08:30:19.001Z</time></trkpt><trkpt lat="42.24154964657314" lon="13.92636801870222"><ele>188.5</ele><time>2026-05-02T08:30:20.001Z</time></trkpt><trkpt lat="42.24164854246986" lon="13.926382059303105"><ele>187.75</ele><time>2026-05-02T08:30:21.001Z</time></trkpt><trkpt lat="42.24175259494852" lon="13.926396832031076"><ele>187.0</ele><time>2026-05-02T08:30:22.001Z</time></trkpt><trkpt lat="42.24187825164196" lon="13.926417451851732"><ele>187.0</ele><time>2026-05-02T08:30:23Z</time></trkpt><trkpt lat="42.24200316082551" lon="13.926462751753158"><ele>187.0</ele><time>2026-05-02T08:30:24Z</time></trkpt><trkpt lat="42.242108329631485" lon="13.926519890262698"><ele>187.0</ele><time>2026-05-02T08:30:25Z</time></trkpt><trkpt lat="42.242198923433115" lon="13.926583899546962"><ele>187.0</ele><time>2026-05-02T08:30:26Z</time></trkpt><trkpt lat="42.242287733257115" lon="13.926661966954358"><ele>186.5</ele><time>2026-05-02T08:30:27Z</time></trkpt><trkpt lat="42.2423658300786" lon="13.926743117882472"><ele>186.0</ele><time>2026-05-02T08:30:28Z</time></trkpt><trkpt lat="42.24246361987034" lon="13.926857128581185"><ele>185.5</ele><time>2026-05-02T08:30:29Z</time></trkpt><trkpt lat="42.2425543698413" lon="13.926970283614946"><ele>185.0</ele><time>2026-05-02T08:30:30Z</time></trkpt><trkpt lat="42.24264553850466" lon="13.92708739264255"><ele>185.0</ele><time>2026-05-02T08:30:31Z</time></trkpt><trkpt lat="42.242732907245376" lon="13.927201165657769"><ele>185.0</ele><time>2026-05-02T08:30:32Z</time></trkpt><trkpt lat="42.24280160779055" lon="13.927297155149645"><ele>185.0</ele><time>2026-05-02T08:30:33Z</time></trkpt><trkpt lat="42.242869366454876" lon="13.927390893151017"><ele>185.0</ele><time>2026-05-02T08:30:34Z</time></trkpt><trkpt lat="42.24293868676131" lon="13.927486791036173"><ele>185.0</ele><time>2026-05-02T08:30:35Z</time></trkpt><trkpt lat="42.242999899365074" lon="13.927571472889602"><ele>184.6</ele><time>2026-05-02T08:30:36Z</time></trkpt><trkpt lat="42.243063781198416" lon="13.927659022812131"><ele>184.2</ele><time>2026-05-02T08:30:37Z</time></trkpt><trkpt lat="42.24312805502423" lon="13.927746971881062"><ele>183.8</ele><time>2026-05-02T08:30:38Z</time></trkpt><trkpt lat="42.24321280347787" lon="13.927810351566452"><ele>183.4</ele><time>2026-05-02T08:30:39Z</time></trkpt><trkpt lat="42.24328444775719" lon="13.927884757575987"><ele>183.0</ele><time>2026-05-02T08:30:40Z</time></trkpt><trkpt lat="42.24334697638199" lon="13.927964796763758"><ele>182.66666666666666</ele><time>2026-05-02T08:30:41Z</time></trkpt><trkpt lat="42.243407574958525" lon="13.928054557791187"><ele>182.33333333333334</ele><time>2026-05-02T08:30:42Z</time></trkpt><trkpt lat="42.24344181355477" lon="13.928170169932022"><ele>182.0</ele><time>2026-05-02T08:30:43Z</time></trkpt><trkpt lat="42.24350027770233" lon="13.928243930234574"><ele>181.66666666666669</ele><time>2026-05-02T08:30:44Z</time></trkpt><trkpt lat="42.24356465242473" lon="13.928289664395106"><ele>181.33333333333334</ele><time>2026-05-02T08:30:45Z</time></trkpt><trkpt lat="42.24361719777195" lon="13.928348451281213"><ele>181.0</ele><time>2026-05-02T08:30:46Z</time></trkpt><trkpt lat="42.24367295485821" lon="13.928406597931833"><ele>181.0</ele><time>2026-05-02T08:30:47Z</time></trkpt><trkpt lat="42.24374114276221" lon="13.92843602010616"><ele>181.0</ele><time>2026-05-02T08:30:48Z</time></trkpt><trkpt lat="42.24380461566448" lon="13.928433927173229"><ele>181.0</ele><time>2026-05-02T08:30:49Z</time></trkpt><trkpt lat="42.2439199069793" lon="13.92838152896077"><ele>181.0</ele><time>2026-05-02T08:30:51Z</time></trkpt><trkpt lat="42.244022614657325" lon="13.928302084776051"><ele>181.0</ele><time>2026-05-02T08:30:53Z</time></trkpt><trkpt lat="42.24410389144596" lon="13.928339375860185"><ele>180.5</ele><time>2026-05-02T08:30:54Z</time></trkpt><trkpt lat="42.24417489241125" lon="13.928310594157965"><ele>180.0</ele><time>2026-05-02T08:30:55Z</time></trkpt><trkpt lat="42.24424577191126" lon="13.928264466240213"><ele>179.5</ele><time>2026-05-02T08:30:56Z</time></trkpt><trkpt lat="42.244295713729194" lon="13.928210892065005"><ele>179.0</ele><time>2026-05-02T08:30:58Z</time></trkpt><trkpt lat="42.244351111238956" lon="13.928125394068662"><ele>178.5</ele><time>2026-05-02T08:31:00Z</time></trkpt><trkpt lat="42.24441541608241" lon="13.92800040049557"><ele>178.0</ele><time>2026-05-02T08:31:02Z</time></trkpt><trkpt lat="42.2443934856423" lon="13.927782013512221"><ele>178.0</ele><time>2026-05-02T08:31:04Z</time></trkpt><trkpt lat="42.24440857519543" lon="13.927616696896123"><ele>178.0</ele><time>2026-05-02T08:31:06Z</time></trkpt><trkpt lat="42.24441764914591" lon="13.927531131319258"><ele>178.0</ele><time>2026-05-02T08:31:07Z</time></trkpt><trkpt lat="42.244501008257096" lon="13.92746768474425"><ele>178.0</ele><time>2026-05-02T08:31:08Z</time></trkpt><trkpt lat="42.244515334521616" lon="13.927345468804614"><ele>178.0</ele><time>2026-05-02T08:31:10Z</time></trkpt><trkpt lat="42.24453210424842" lon="13.92722385719784"><ele>179.16666666666669</ele><time>2026-05-02T08:31:13Z</time></trkpt><trkpt lat="42.244554630340886" lon="13.927126813609528"><ele>180.33333333333334</ele><time>2026-05-02T08:31:15Z</time></trkpt><trkpt lat="42.2446035104461" lon="13.927003411546268"><ele>181.5</ele><time>2026-05-02T08:31:17Z</time></trkpt><trkpt lat="42.24458454889351" lon="13.92690887583688"><ele>182.66666666666666</ele><time>2026-05-02T08:31:18Z</time></trkpt><trkpt lat="42.244649749881525" lon="13.926948453972596"><ele>183.83333333333331</ele><time>2026-05-02T08:31:19Z</time></trkpt><trkpt lat="42.24460913924557" lon="13.926828666757716"><ele>185.0</ele><time>2026-05-02T08:31:20Z</time></trkpt><trkpt lat="42.24463413801902" lon="13.926747126291206"><ele>186.33333333333331</ele><time>2026-05-02T08:31:22Z</time></trkpt><trkpt lat="42.24466360411522" lon="13.926651983460626"><ele>187.66666666666666</ele><time>2026-05-02T08:31:24Z</time></trkpt><trkpt lat="42.244699413823" lon="13.926543995573939"><ele>189.0</ele><time>2026-05-02T08:31:27Z</time></trkpt><trkpt lat="42.24471777275705" lon="13.926451355905437"><ele>190.33333333333331</ele><time>2026-05-02T08:31:30Z</time></trkpt><trkpt lat="42.244755700860175" lon="13.926374255930732"><ele>191.66666666666666</ele><time>2026-05-02T08:31:40.999Z</time></trkpt><trkpt lat="42.244804304818224" lon="13.926227685070014"><ele>193.0</ele><time>2026-05-02T08:32:23.999Z</time></trkpt><trkpt lat="42.24476553951116" lon="13.926299917886018"><ele>192.99999999999997</ele><time>2026-05-02T08:37:49.999Z</time></trkpt><trkpt lat="42.24476633662645" lon="13.926389204999102"><ele>193.0</ele><time>2026-05-02T08:37:52.999Z</time></trkpt><trkpt lat="42.24474152885332" lon="13.926495134064997"><ele>193.0</ele><time>2026-05-02T08:37:55.999Z</time></trkpt><trkpt lat="42.24470042888097" lon="13.926582171538326"><ele>193.0</ele><time>2026-05-02T08:37:58.999Z</time></trkpt><trkpt lat="42.244675582441445" lon="13.926668325760437"><ele>192.99999999999997</ele><time>2026-05-02T08:38:01.999Z</time></trkpt><trkpt lat="42.24468271031259" lon="13.926811115824888"><ele>193.0</ele><time>2026-05-02T08:38:05.999Z</time></trkpt><trkpt lat="42.244801890828604" lon="13.926965997862752"><ele>188.66666666666666</ele><time>2026-05-02T08:38:07.999Z</time></trkpt><trkpt lat="42.24488191295131" lon="13.926945546493586"><ele>184.33333333333331</ele><time>2026-05-02T08:38:08.999Z</time></trkpt><trkpt lat="42.24495980818278" lon="13.926925639194758"><ele>180.0</ele><time>2026-05-02T08:38:09.999Z</time></trkpt><trkpt lat="42.24505737116838" lon="13.926905855239834"><ele>175.66666666666666</ele><time>2026-05-02T08:38:11.999Z</time></trkpt><trkpt lat="42.24513052885459" lon="13.926893662474594"><ele>171.33333333333331</ele><time>2026-05-02T08:38:16.999Z</time></trkpt><trkpt lat="42.24521558886646" lon="13.92688075967571"><ele>167.0</ele><time>2026-05-02T08:38:19.999Z</time></trkpt><trkpt lat="42.24530554257665" lon="13.926873447137861"><ele>167.0</ele><time>2026-05-02T08:38:21.999Z</time></trkpt><trkpt lat="42.24543054371388" lon="13.926848644798696"><ele>167.0</ele><time>2026-05-02T08:38:23.999Z</time></trkpt><trkpt lat="42.24549893530565" lon="13.926854554837833"><ele>167.0</ele><time>2026-05-02T08:38:24.999Z</time></trkpt><trkpt lat="42.24556806212193" lon="13.926859916164638"><ele>167.0</ele><time>2026-05-02T08:38:25.999Z</time></trkpt><trkpt lat="42.245631578183556" lon="13.926859201747838"><ele>167.0</ele><time>2026-05-02T08:38:26.999Z</time></trkpt><trkpt lat="42.24569801267471" lon="13.926853649722634"><ele>167.0</ele><time>2026-05-02T08:38:27.999Z</time></trkpt><trkpt lat="42.24577427626951" lon="13.926846133624519"><ele>166.0</ele><time>2026-05-02T08:38:28.999Z</time></trkpt><trkpt lat="42.24585087202005" lon="13.92683906338456"><ele>165.0</ele><time>2026-05-02T08:38:29.999Z</time></trkpt><trkpt lat="42.24592063431989" lon="13.926837769478777"><ele>164.0</ele><time>2026-05-02T08:38:30.999Z</time></trkpt><trkpt lat="42.24602904108602" lon="13.926865526646905"><ele>163.0</ele><time>2026-05-02T08:38:32.999Z</time></trkpt><trkpt lat="42.246132035441306" lon="13.926875973038092"><ele>162.0</ele><time>2026-05-02T08:38:34.999Z</time></trkpt><trkpt lat="42.24617100730367" lon="13.926801697617044"><ele>161.0</ele><time>2026-05-02T08:38:36.999Z</time></trkpt><trkpt lat="42.246216115923716" lon="13.92667665306743"><ele>160.83333333333331</ele><time>2026-05-02T08:38:38.999Z</time></trkpt><trkpt lat="42.24617531677172" lon="13.92658955356921"><ele>160.66666666666666</ele><time>2026-05-02T08:38:39.999Z</time></trkpt><trkpt lat="42.24604505287882" lon="13.926570323756325"><ele>160.5</ele><time>2026-05-02T08:38:41.999Z</time></trkpt><trkpt lat="42.24598148919667" lon="13.92656903035272"><ele>160.33333333333334</ele><time>2026-05-02T08:38:42.999Z</time></trkpt><trkpt lat="42.2459130243016" lon="13.926568246662656"><ele>160.16666666666669</ele><time>2026-05-02T08:38:43.999Z</time></trkpt><trkpt lat="42.245848376554015" lon="13.92656814355837"><ele>160.0</ele><time>2026-05-02T08:38:44.999Z</time></trkpt><trkpt lat="42.24575475772284" lon="13.926542637748845"><ele>160.0</ele><time>2026-05-02T08:38:46.999Z</time></trkpt><trkpt lat="42.245691020949934" lon="13.926454714798023"><ele>160.0</ele><time>2026-05-02T08:38:48.999Z</time></trkpt><trkpt lat="42.245641830413625" lon="13.926396712090952"><ele>160.0</ele><time>2026-05-02T08:38:49.999Z</time></trkpt><trkpt lat="42.245654673594515" lon="13.92622303565028"><ele>160.0</ele><time>2026-05-02T08:38:50.999Z</time></trkpt><trkpt lat="42.24564478559533" lon="13.926075246319597"><ele>160.0</ele><time>2026-05-02T08:38:51.999Z</time></trkpt><trkpt lat="42.245620756186476" lon="13.925911544941181"><ele>162.4</ele><time>2026-05-02T08:38:52.999Z</time></trkpt><trkpt lat="42.24560680147657" lon="13.925759470974453"><ele>164.8</ele><time>2026-05-02T08:38:53.999Z</time></trkpt><trkpt lat="42.24561536273561" lon="13.92561418152904"><ele>167.2</ele><time>2026-05-02T08:38:54.999Z</time></trkpt><trkpt lat="42.24560870173675" lon="13.925467644186043"><ele>169.6</ele><time>2026-05-02T08:38:55.999Z</time></trkpt><trkpt lat="42.24560605508409" lon="13.92532416631125"><ele>172.0</ele><time>2026-05-02T08:38:56.999Z</time></trkpt><trkpt lat="42.24561865356042" lon="13.92518230263592"><ele>170.39999999999998</ele><time>2026-05-02T08:38:57.999Z</time></trkpt><trkpt lat="42.24564426184266" lon="13.925036170750902"><ele>168.79999999999998</ele><time>2026-05-02T08:38:58.999Z</time></trkpt><trkpt lat="42.245666992832874" lon="13.924887276278543"><ele>167.2</ele><time>2026-05-02T08:38:59.999Z</time></trkpt><trkpt lat="42.245702465085515" lon="13.924747776129685"><ele>165.6</ele><time>2026-05-02T08:39:00.999Z</time></trkpt><trkpt lat="42.24572363600186" lon="13.924619685344096"><ele>164.0</ele><time>2026-05-02T08:39:01.999Z</time></trkpt><trkpt lat="42.2457538713656" lon="13.924509591664657"><ele>164.0</ele><time>2026-05-02T08:39:02.999Z</time></trkpt><trkpt lat="42.24578854916852" lon="13.924413764980438"><ele>164.0</ele><time>2026-05-02T08:39:03.999Z</time></trkpt><trkpt lat="42.24583614206514" lon="13.924322275575747"><ele>164.0</ele><time>2026-05-02T08:39:04.999Z</time></trkpt><trkpt lat="42.24591573774758" lon="13.924255859563484"><ele>164.0</ele><time>2026-05-02T08:39:05.999Z</time></trkpt><trkpt lat="42.24599624386258" lon="13.924169830862411"><ele>164.0</ele><time>2026-05-02T08:39:06.999Z</time></trkpt><trkpt lat="42.24605088653143" lon="13.92406929399462"><ele>164.0</ele><time>2026-05-02T08:39:07.999Z</time></trkpt><trkpt lat="42.2460926087445" lon="13.923970405351463"><ele>164.0</ele><time>2026-05-02T08:39:08.999Z</time></trkpt><trkpt lat="42.2461295485098" lon="13.923874191834514"><ele>164.0</ele><time>2026-05-02T08:39:09.999Z</time></trkpt><trkpt lat="42.246158581931105" lon="13.923762011709066"><ele>164.0</ele><time>2026-05-02T08:39:10.999Z</time></trkpt><trkpt lat="42.24617136255379" lon="13.923636561910312"><ele>164.0</ele><time>2026-05-02T08:39:11.999Z</time></trkpt><trkpt lat="42.24617261112021" lon="13.923491065323006"><ele>164.5</ele><time>2026-05-02T08:39:12.999Z</time></trkpt><trkpt lat="42.24616923698212" lon="13.923341502504563"><ele>165.0</ele><time>2026-05-02T08:39:13.999Z</time></trkpt><trkpt lat="42.24616923698194" lon="13.923177906218024"><ele>165.5</ele><time>2026-05-02T08:39:14.999Z</time></trkpt><trkpt lat="42.2461665474999" lon="13.923006703723205"><ele>166.0</ele><time>2026-05-02T08:39:15.999Z</time></trkpt><trkpt lat="42.24615858889948" lon="13.922833395534424"><ele>166.0</ele><time>2026-05-02T08:39:16.998Z</time></trkpt><trkpt lat="42.24614550215983" lon="13.92266059917415"><ele>166.0</ele><time>2026-05-02T08:39:17.998Z</time></trkpt><trkpt lat="42.24612053232973" lon="13.922495217088366"><ele>166.0</ele><time>2026-05-02T08:39:18.998Z</time></trkpt><trkpt lat="42.24611492405189" lon="13.922337479299907"><ele>166.0</ele><time>2026-05-02T08:39:19.998Z</time></trkpt><trkpt lat="42.24613088769461" lon="13.922187980684019"><ele>166.20000000000002</ele><time>2026-05-02T08:39:20.998Z</time></trkpt><trkpt lat="42.24611958392039" lon="13.922043414701081"><ele>166.4</ele><time>2026-05-02T08:39:21.998Z</time></trkpt><trkpt lat="42.24609894415945" lon="13.921907605380811"><ele>166.6</ele><time>2026-05-02T08:39:22.998Z</time></trkpt><trkpt lat="42.246070423658864" lon="13.921769454334596"><ele>166.8</ele><time>2026-05-02T08:39:23.998Z</time></trkpt><trkpt lat="42.24602739685121" lon="13.92162394110853"><ele>167.0</ele><time>2026-05-02T08:39:24.998Z</time></trkpt><trkpt lat="42.24598802269502" lon="13.921475722455238"><ele>167.39999999999998</ele><time>2026-05-02T08:39:25.998Z</time></trkpt><trkpt lat="42.245951175247534" lon="13.921342042526012"><ele>167.79999999999998</ele><time>2026-05-02T08:39:26.998Z</time></trkpt><trkpt lat="42.245932907436014" lon="13.921213056825456"><ele>168.2</ele><time>2026-05-02T08:39:27.998Z</time></trkpt><trkpt lat="42.2459089015012" lon="13.921089472670362"><ele>168.6</ele><time>2026-05-02T08:39:28.998Z</time></trkpt><trkpt lat="42.245872638099506" lon="13.92096970362051"><ele>169.0</ele><time>2026-05-02T08:39:29.998Z</time></trkpt><trkpt lat="42.245829266807085" lon="13.920856875383892"><ele>169.2</ele><time>2026-05-02T08:39:30.998Z</time></trkpt><trkpt lat="42.24577044202455" lon="13.920749150144601"><ele>169.39999999999998</ele><time>2026-05-02T08:39:31.998Z</time></trkpt><trkpt lat="42.245708693411636" lon="13.920633524424067"><ele>169.6</ele><time>2026-05-02T08:39:32.998Z</time></trkpt><trkpt lat="42.245651323221445" lon="13.920512203941014"><ele>169.8</ele><time>2026-05-02T08:39:33.998Z</time></trkpt><trkpt lat="42.2455888364274" lon="13.920419092667684"><ele>170.0</ele><time>2026-05-02T08:39:34.998Z</time></trkpt><trkpt lat="42.24554639959409" lon="13.92031742109883"><ele>171.16666666666666</ele><time>2026-05-02T08:39:35.998Z</time></trkpt><trkpt lat="42.2455280756985" lon="13.920199986655222"><ele>172.33333333333331</ele><time>2026-05-02T08:39:36.998Z</time></trkpt><trkpt lat="42.24551331697801" lon="13.920079340709721"><ele>173.5</ele><time>2026-05-02T08:39:37.998Z</time></trkpt><trkpt lat="42.245506093693926" lon="13.919968985178704"><ele>174.66666666666666</ele><time>2026-05-02T08:39:38.998Z</time></trkpt><trkpt lat="42.24550037858215" lon="13.91986813834546"><ele>175.83333333333334</ele><time>2026-05-02T08:39:39.998Z</time></trkpt><trkpt lat="42.24546414949675" lon="13.919783608043948"><ele>177.0</ele><time>2026-05-02T08:39:40.998Z</time></trkpt><trkpt lat="42.24540394692378" lon="13.919696847248913"><ele>177.0</ele><time>2026-05-02T08:39:41.998Z</time></trkpt><trkpt lat="42.24536034875655" lon="13.91957820885455"><ele>177.0</ele><time>2026-05-02T08:39:42.998Z</time></trkpt><trkpt lat="42.24532782659671" lon="13.91946466876342"><ele>177.0</ele><time>2026-05-02T08:39:43.998Z</time></trkpt><trkpt lat="42.245310935714336" lon="13.919354083213817"><ele>177.0</ele><time>2026-05-02T08:39:44.998Z</time></trkpt><trkpt lat="42.245274014206515" lon="13.919234587954346"><ele>177.0</ele><time>2026-05-02T08:39:45.998Z</time></trkpt><trkpt lat="42.2452758139587" lon="13.919108027173815"><ele>176.6</ele><time>2026-05-02T08:39:46.998Z</time></trkpt><trkpt lat="42.24530703499752" lon="13.918971280088003"><ele>176.2</ele><time>2026-05-02T08:39:47.998Z</time></trkpt><trkpt lat="42.24531732797364" lon="13.91882714170217"><ele>175.8</ele><time>2026-05-02T08:39:48.998Z</time></trkpt><trkpt lat="42.245326147509196" lon="13.91868437896433"><ele>175.4</ele><time>2026-05-02T08:39:49.998Z</time></trkpt><trkpt lat="42.24534668145638" lon="13.918551382464278"><ele>175.0</ele><time>2026-05-02T08:39:50.998Z</time></trkpt><trkpt lat="42.24537389628468" lon="13.91841877076035"><ele>174.83333333333334</ele><time>2026-05-02T08:39:51.998Z</time></trkpt><trkpt lat="42.24539929717548" lon="13.918296583752463"><ele>174.66666666666669</ele><time>2026-05-02T08:39:52.998Z</time></trkpt><trkpt lat="42.245426075513016" lon="13.918186760541381"><ele>174.5</ele><time>2026-05-02T08:39:53.998Z</time></trkpt><trkpt lat="42.24543998428771" lon="13.918081986574055"><ele>174.33333333333334</ele><time>2026-05-02T08:39:54.998Z</time></trkpt><trkpt lat="42.24544773495525" lon="13.91798431662226"><ele>174.16666666666666</ele><time>2026-05-02T08:39:55.998Z</time></trkpt><trkpt lat="42.24546626578191" lon="13.917869575950784"><ele>174.0</ele><time>2026-05-02T08:39:56.998Z</time></trkpt><trkpt lat="42.245465224623445" lon="13.9177064181333"><ele>174.0</ele><time>2026-05-02T08:39:57.998Z</time></trkpt><trkpt lat="42.2454250360693" lon="13.91758165662578"><ele>174.0</ele><time>2026-05-02T08:39:58.998Z</time></trkpt><trkpt lat="42.245376242795416" lon="13.917467797876123"><ele>174.0</ele><time>2026-05-02T08:39:59.998Z</time></trkpt><trkpt lat="42.24531234887355" lon="13.917348741917323"><ele>174.0</ele><time>2026-05-02T08:40:00.998Z</time></trkpt><trkpt lat="42.24523833301468" lon="13.917240375008287"><ele>174.0</ele><time>2026-05-02T08:40:01.998Z</time></trkpt><trkpt lat="42.24514392636518" lon="13.917154714399455"><ele>174.0</ele><time>2026-05-02T08:40:02.998Z</time></trkpt><trkpt lat="42.245074987005935" lon="13.91703727064423"><ele>174.0</ele><time>2026-05-02T08:40:03.998Z</time></trkpt><trkpt lat="42.24501577113768" lon="13.916907499416576"><ele>174.0</ele><time>2026-05-02T08:40:04.998Z</time></trkpt><trkpt lat="42.24496019580282" lon="13.916782551690794"><ele>174.0</ele><time>2026-05-02T08:40:05.998Z</time></trkpt><trkpt lat="42.24491533899062" lon="13.916659272542914"><ele>174.0</ele><time>2026-05-02T08:40:06.998Z</time></trkpt><trkpt lat="42.24487190531495" lon="13.916563588423106"><ele>175.0</ele><time>2026-05-02T08:40:07.998Z</time></trkpt><trkpt lat="42.24479909517968" lon="13.91637315703224"><ele>176.0</ele><time>2026-05-02T08:40:09.998Z</time></trkpt><trkpt lat="42.24473467952222" lon="13.916351403890658"><ele>177.0</ele><time>2026-05-02T08:40:10.998Z</time></trkpt><trkpt lat="42.244653519771944" lon="13.916331641191807"><ele>178.0</ele><time>2026-05-02T08:40:11.998Z</time></trkpt><trkpt lat="42.244576267723595" lon="13.916320197395269"><ele>179.0</ele><time>2026-05-02T08:40:12.998Z</time></trkpt><trkpt lat="42.24450917143329" lon="13.916327805892555"><ele>179.0</ele><time>2026-05-02T08:40:13.998Z</time></trkpt><trkpt lat="42.244452227650555" lon="13.916281570704964"><ele>179.0</ele><time>2026-05-02T08:40:14.998Z</time></trkpt><trkpt lat="42.244400947494896" lon="13.91621922705335"><ele>179.0</ele><time>2026-05-02T08:40:15.998Z</time></trkpt><trkpt lat="42.24435639567276" lon="13.91613770687789"><ele>179.0</ele><time>2026-05-02T08:40:16.998Z</time></trkpt><trkpt lat="42.2442956501352" lon="13.916040541610956"><ele>179.0</ele><time>2026-05-02T08:40:17.998Z</time></trkpt><trkpt lat="42.2442665123546" lon="13.915910831897694"><ele>179.0</ele><time>2026-05-02T08:40:18.998Z</time></trkpt><trkpt lat="42.24426070230555" lon="13.915788217985089"><ele>179.16666666666666</ele><time>2026-05-02T08:40:19.998Z</time></trkpt><trkpt lat="42.244227204689025" lon="13.9156711606325"><ele>179.33333333333331</ele><time>2026-05-02T08:40:20.998Z</time></trkpt><trkpt lat="42.24417503490771" lon="13.915556265095915"><ele>179.5</ele><time>2026-05-02T08:40:21.998Z</time></trkpt><trkpt lat="42.244124218875506" lon="13.915451317696244"><ele>179.66666666666666</ele><time>2026-05-02T08:40:22.998Z</time></trkpt><trkpt lat="42.24407998338748" lon="13.915367834320163"><ele>179.83333333333334</ele><time>2026-05-02T08:40:23.998Z</time></trkpt><trkpt lat="42.24404473057203" lon="13.915275328715607"><ele>180.0</ele><time>2026-05-02T08:40:24.998Z</time></trkpt><trkpt lat="42.243972630253104" lon="13.91519258813895"><ele>180.5</ele><time>2026-05-02T08:40:25.998Z</time></trkpt><trkpt lat="42.24388327861191" lon="13.91513810070381"><ele>181.0</ele><time>2026-05-02T08:40:26.998Z</time></trkpt><trkpt lat="42.243799180370765" lon="13.91509476070416"><ele>181.5</ele><time>2026-05-02T08:40:27.998Z</time></trkpt><trkpt lat="42.2437161535412" lon="13.915072668456055"><ele>182.0</ele><time>2026-05-02T08:40:28.998Z</time></trkpt><trkpt lat="42.24365461352455" lon="13.91499129022519"><ele>182.5</ele><time>2026-05-02T08:40:29.998Z</time></trkpt><trkpt lat="42.24359521702539" lon="13.91489988453159"><ele>183.0</ele><time>2026-05-02T08:40:30.998Z</time></trkpt><trkpt lat="42.24353332728277" lon="13.91481550522374"><ele>183.5</ele><time>2026-05-02T08:40:31.998Z</time></trkpt><trkpt lat="42.243481385713785" lon="13.91471413237212"><ele>184.0</ele><time>2026-05-02T08:40:32.998Z</time></trkpt><trkpt lat="42.24341420053909" lon="13.914664875630075"><ele>184.5</ele><time>2026-05-02T08:40:33.998Z</time></trkpt><trkpt lat="42.24336304281761" lon="13.914559159612569"><ele>185.0</ele><time>2026-05-02T08:40:35.998Z</time></trkpt><trkpt lat="42.243304694546545" lon="13.91443499244351"><ele>185.5</ele><time>2026-05-02T08:40:37.998Z</time></trkpt><trkpt lat="42.24329519325563" lon="13.914348225293827"><ele>186.0</ele><time>2026-05-02T08:40:41.998Z</time></trkpt><trkpt lat="42.243284873503946" lon="13.914244084364217"><ele>187.0</ele><time>2026-05-02T08:40:43.998Z</time></trkpt><trkpt lat="42.243247921144814" lon="13.914101322018235"><ele>188.0</ele><time>2026-05-02T08:40:44.998Z</time></trkpt><trkpt lat="42.243231374398995" lon="13.913973750689456"><ele>189.0</ele><time>2026-05-02T08:40:45.998Z</time></trkpt><trkpt lat="42.243204936858824" lon="13.91383724950387"><ele>190.0</ele><time>2026-05-02T08:40:46.998Z</time></trkpt><trkpt lat="42.243200877628944" lon="13.91370932308764"><ele>191.0</ele><time>2026-05-02T08:40:47.998Z</time></trkpt><trkpt lat="42.24320835882552" lon="13.913589311816374"><ele>191.0</ele><time>2026-05-02T08:40:48.998Z</time></trkpt><trkpt lat="42.243176643228026" lon="13.91349544937543"><ele>191.0</ele><time>2026-05-02T08:40:49.998Z</time></trkpt><trkpt lat="42.24315876480002" lon="13.91338922461169"><ele>191.0</ele><time>2026-05-02T08:40:50.998Z</time></trkpt><trkpt lat="42.24313320890499" lon="13.913274352695195"><ele>191.0</ele><time>2026-05-02T08:40:51.998Z</time></trkpt><trkpt lat="42.24308870838211" lon="13.913142217110055"><ele>191.0</ele><time>2026-05-02T08:40:52.998Z</time></trkpt><trkpt lat="42.2430299118041" lon="13.913027933183033"><ele>191.0</ele><time>2026-05-02T08:40:53.998Z</time></trkpt><trkpt lat="42.242976848651566" lon="13.9129434210491"><ele>191.0</ele><time>2026-05-02T08:40:54.998Z</time></trkpt><trkpt lat="42.24292503774116" lon="13.912871135550786"><ele>191.0</ele><time>2026-05-02T08:40:55.998Z</time></trkpt><trkpt lat="42.242876107406985" lon="13.912786783494598"><ele>191.0</ele><time>2026-05-02T08:40:56.998Z</time></trkpt><trkpt lat="42.24283623247504" lon="13.912690495026725"><ele>191.0</ele><time>2026-05-02T08:40:57.998Z</time></trkpt><trkpt lat="42.24279869094994" lon="13.912604511222066"><ele>191.0</ele><time>2026-05-02T08:40:58.998Z</time></trkpt><trkpt lat="42.242763891189725" lon="13.912469279515927"><ele>191.33333333333331</ele><time>2026-05-02T08:41:00.998Z</time></trkpt><trkpt lat="42.24273846475309" lon="13.912383715806632"><ele>191.66666666666666</ele><time>2026-05-02T08:41:02.998Z</time></trkpt><trkpt lat="42.24243411512574" lon="13.91214904317653"><ele>192.0</ele><time>2026-05-02T08:41:04.998Z</time></trkpt><trkpt lat="42.24233476878974" lon="13.912267334058457"><ele>194.5</ele><time>2026-05-02T08:41:06.997Z</time></trkpt><trkpt lat="42.242269357716715" lon="13.912346875697363"><ele>197.0</ele><time>2026-05-02T08:41:07.997Z</time></trkpt><trkpt lat="42.242196947273364" lon="13.912435794023148"><ele>199.5</ele><time>2026-05-02T08:41:08.997Z</time></trkpt><trkpt lat="42.24209009885105" lon="13.912649616249054"><ele>202.0</ele><time>2026-05-02T08:41:09.997Z</time></trkpt><trkpt lat="42.24206367922956" lon="13.912785754558888"><ele>202.33333333333331</ele><time>2026-05-02T08:41:10.997Z</time></trkpt><trkpt lat="42.24204737243011" lon="13.912876845805547"><ele>202.66666666666666</ele><time>2026-05-02T08:41:11.997Z</time></trkpt><trkpt lat="42.24202592320214" lon="13.912998060768714"><ele>203.0</ele><time>2026-05-02T08:41:13.997Z</time></trkpt><trkpt lat="42.24200746956714" lon="13.913102242904872"><ele>203.33333333333331</ele><time>2026-05-02T08:42:00.997Z</time></trkpt><trkpt lat="42.24199120092396" lon="13.913193911926236"><ele>203.66666666666666</ele><time>2026-05-02T08:42:01.997Z</time></trkpt><trkpt lat="42.24197082550643" lon="13.913308721501071"><ele>204.0</ele><time>2026-05-02T08:42:02.997Z</time></trkpt><trkpt lat="42.24194699331212" lon="13.913443009330566"><ele>204.0</ele><time>2026-05-02T08:42:03.997Z</time></trkpt><trkpt lat="42.241939627591634" lon="13.913588538235164"><ele>204.0</ele><time>2026-05-02T08:42:04.997Z</time></trkpt><trkpt lat="42.24191627171975" lon="13.91371441487571"><ele>204.0</ele><time>2026-05-02T08:42:05.997Z</time></trkpt><trkpt lat="42.24190558140751" lon="13.91383376207625"><ele>204.0</ele><time>2026-05-02T08:42:06.997Z</time></trkpt><trkpt lat="42.24188552448143" lon="13.913943811198504"><ele>204.0</ele><time>2026-05-02T08:42:07.997Z</time></trkpt><trkpt lat="42.24188469772115" lon="13.914063971594784"><ele>204.0</ele><time>2026-05-02T08:42:08.997Z</time></trkpt><trkpt lat="42.241888396819284" lon="13.914181398052712"><ele>204.0</ele><time>2026-05-02T08:42:09.997Z</time></trkpt><trkpt lat="42.24189018065583" lon="13.914288753222426"><ele>204.0</ele><time>2026-05-02T08:42:10.997Z</time></trkpt><trkpt lat="42.24189018065573" lon="13.914455054287197"><ele>204.0</ele><time>2026-05-02T08:42:12.997Z</time></trkpt><trkpt lat="42.241875961489534" lon="13.914538153240134"><ele>204.0</ele><time>2026-05-02T08:42:13.997Z</time></trkpt><trkpt lat="42.24183469033426" lon="13.914618336770847"><ele>204.0</ele><time>2026-05-02T08:42:14.997Z</time></trkpt><trkpt lat="42.24176757850491" lon="13.914754930680754"><ele>203.6</ele><time>2026-05-02T08:42:16.997Z</time></trkpt><trkpt lat="42.24170000218248" lon="13.914759733919286"><ele>203.2</ele><time>2026-05-02T08:42:17.997Z</time></trkpt><trkpt lat="42.24156059796699" lon="13.914788370440736"><ele>202.79999999999998</ele><time>2026-05-02T08:42:18.997Z</time></trkpt><trkpt lat="42.24151725494429" lon="13.914699034861856"><ele>202.39999999999998</ele><time>2026-05-02T08:42:19.997Z</time></trkpt><trkpt lat="42.24147685146205" lon="13.91461507289365"><ele>202.0</ele><time>2026-05-02T08:42:20.997Z</time></trkpt><trkpt lat="42.241398164846615" lon="13.91449079238683"><ele>203.99999999999997</ele><time>2026-05-02T08:42:22.997Z</time></trkpt><trkpt lat="42.2413374446211" lon="13.914425581998985"><ele>206.0</ele><time>2026-05-02T08:42:23.997Z</time></trkpt><trkpt lat="42.241262960163255" lon="13.914349508166078"><ele>208.0</ele><time>2026-05-02T08:42:24.997Z</time></trkpt><trkpt lat="42.2412301372364" lon="13.914264161313442"><ele>210.0</ele><time>2026-05-02T08:42:25.997Z</time></trkpt><trkpt lat="42.241195641850034" lon="13.914173948535744"><ele>211.99999999999997</ele><time>2026-05-02T08:42:26.996Z</time></trkpt><trkpt lat="42.241162078158176" lon="13.914080989402944"><ele>214.0</ele><time>2026-05-02T08:42:27.996Z</time></trkpt><trkpt lat="42.24112643677609" lon="13.913975779358205"><ele>214.79999999999998</ele><time>2026-05-02T08:42:28.996Z</time></trkpt><trkpt lat="42.24108650850869" lon="13.913844830512485"><ele>215.59999999999997</ele><time>2026-05-02T08:42:29.996Z</time></trkpt><trkpt lat="42.241071542537064" lon="13.913717729137687"><ele>216.4</ele><time>2026-05-02T08:42:30.996Z</time></trkpt><trkpt lat="42.24105529820944" lon="13.913591299876776"><ele>217.2</ele><time>2026-05-02T08:42:31.996Z</time></trkpt><trkpt lat="42.241017821798" lon="13.91349407011691"><ele>218.0</ele><time>2026-05-02T08:42:32.996Z</time></trkpt><trkpt lat="42.2409753095175" lon="13.913393623081829"><ele>219.8</ele><time>2026-05-02T08:42:33.996Z</time></trkpt><trkpt lat="42.240921232377524" lon="13.91329880236811"><ele>221.60000000000002</ele><time>2026-05-02T08:42:34.996Z</time></trkpt><trkpt lat="42.240860474563405" lon="13.91319434477215"><ele>223.39999999999998</ele><time>2026-05-02T08:42:35.996Z</time></trkpt><trkpt lat="42.24080373552711" lon="13.913065780174144"><ele>225.2</ele><time>2026-05-02T08:42:36.996Z</time></trkpt><trkpt lat="42.24072915242257" lon="13.912975049343128"><ele>227.0</ele><time>2026-05-02T08:42:37.996Z</time></trkpt><trkpt lat="42.24067267442619" lon="13.91288602990068"><ele>226.8</ele><time>2026-05-02T08:42:38.996Z</time></trkpt><trkpt lat="42.240617046453295" lon="13.91278452152503"><ele>226.6</ele><time>2026-05-02T08:42:39.996Z</time></trkpt><trkpt lat="42.240551364017236" lon="13.912707165140395"><ele>226.40000000000003</ele><time>2026-05-02T08:42:40.996Z</time></trkpt><trkpt lat="42.24048237801767" lon="13.912627393747186"><ele>226.20000000000002</ele><time>2026-05-02T08:42:41.996Z</time></trkpt><trkpt lat="42.240406406358375" lon="13.912528594584213"><ele>226.0</ele><time>2026-05-02T08:42:42.996Z</time></trkpt><trkpt lat="42.2403223557896" lon="13.912433081429956"><ele>227.99999999999997</ele><time>2026-05-02T08:42:43.996Z</time></trkpt><trkpt lat="42.24024713391066" lon="13.912345314515035"><ele>230.0</ele><time>2026-05-02T08:42:44.996Z</time></trkpt><trkpt lat="42.24018678044424" lon="13.912277141353151"><ele>232.0</ele><time>2026-05-02T08:42:45.996Z</time></trkpt><trkpt lat="42.24014978984058" lon="13.912200039520345"><ele>234.0</ele><time>2026-05-02T08:42:46.996Z</time></trkpt><trkpt lat="42.24011095183168" lon="13.912130791663104"><ele>235.99999999999997</ele><time>2026-05-02T08:42:47.996Z</time></trkpt><trkpt lat="42.24004128352272" lon="13.912010816943592"><ele>238.0</ele><time>2026-05-02T08:42:49.996Z</time></trkpt><trkpt lat="42.23996349982435" lon="13.911889092123076"><ele>238.0</ele><time>2026-05-02T08:42:51.996Z</time></trkpt><trkpt lat="42.239922244311565" lon="13.911823941218922"><ele>238.0</ele><time>2026-05-02T08:42:52.996Z</time></trkpt><trkpt lat="42.23983608369229" lon="13.911729253293501"><ele>238.0</ele><time>2026-05-02T08:42:54.996Z</time></trkpt><trkpt lat="42.239756605284114" lon="13.911678140340323"><ele>238.0</ele><time>2026-05-02T08:42:56.996Z</time></trkpt><trkpt lat="42.239672231469264" lon="13.911614413477945"><ele>238.0</ele><time>2026-05-02T08:42:58.996Z</time></trkpt><trkpt lat="42.239806712597534" lon="13.91115166269732"><ele>239.83333333333331</ele><time>2026-05-02T08:42:59.996Z</time></trkpt><trkpt lat="42.23978048472788" lon="13.911071686137921"><ele>241.66666666666666</ele><time>2026-05-02T08:43:00.996Z</time></trkpt><trkpt lat="42.23972125121577" lon="13.910951378061242"><ele>243.5</ele><time>2026-05-02T08:43:02.996Z</time></trkpt><trkpt lat="42.23962633392819" lon="13.910833659147531"><ele>245.33333333333331</ele><time>2026-05-02T08:43:04.996Z</time></trkpt><trkpt lat="42.239578278613166" lon="13.910767171854276"><ele>247.16666666666666</ele><time>2026-05-02T08:43:05.996Z</time></trkpt><trkpt lat="42.23953576577924" lon="13.91069425293711"><ele>249.0</ele><time>2026-05-02T08:43:06.996Z</time></trkpt><trkpt lat="42.23948411350339" lon="13.910616650583435"><ele>249.16666666666666</ele><time>2026-05-02T08:43:07.996Z</time></trkpt><trkpt lat="42.239431099253" lon="13.910525772348876"><ele>249.33333333333331</ele><time>2026-05-02T08:43:08.996Z</time></trkpt><trkpt lat="42.239376675770245" lon="13.910445507732165"><ele>249.5</ele><time>2026-05-02T08:43:09.996Z</time></trkpt><trkpt lat="42.2393231579314" lon="13.910360885671967"><ele>249.66666666666666</ele><time>2026-05-02T08:43:10.996Z</time></trkpt><trkpt lat="42.23927514195646" lon="13.910267812577729"><ele>249.83333333333331</ele><time>2026-05-02T08:43:11.996Z</time></trkpt><trkpt lat="42.23922352931726" lon="13.910182717137232"><ele>250.0</ele><time>2026-05-02T08:43:12.996Z</time></trkpt><trkpt lat="42.23917195147057" lon="13.910117596005447"><ele>250.16666666666666</ele><time>2026-05-02T08:43:13.996Z</time></trkpt><trkpt lat="42.239122153320295" lon="13.91006288708645"><ele>250.33333333333331</ele><time>2026-05-02T08:43:14.996Z</time></trkpt><trkpt lat="42.23905982124609" lon="13.910026788333663"><ele>250.5</ele><time>2026-05-02T08:43:15.996Z</time></trkpt><trkpt lat="42.23899551287448" lon="13.909995252087734"><ele>250.66666666666669</ele><time>2026-05-02T08:43:16.996Z</time></trkpt><trkpt lat="42.23893517599609" lon="13.909942630661824"><ele>250.83333333333334</ele><time>2026-05-02T08:43:17.996Z</time></trkpt><trkpt lat="42.238824467323525" lon="13.909849692924794"><ele>251.0</ele><time>2026-05-02T08:43:19.996Z</time></trkpt><trkpt lat="42.238765575183756" lon="13.909796742226929"><ele>253.33333333333334</ele><time>2026-05-02T08:43:20.996Z</time></trkpt><trkpt lat="42.23870713590271" lon="13.909728037191199"><ele>255.66666666666669</ele><time>2026-05-02T08:43:21.996Z</time></trkpt><trkpt lat="42.23864801497362" lon="13.909656117760784"><ele>258.0</ele><time>2026-05-02T08:43:22.996Z</time></trkpt><trkpt lat="42.23858889408095" lon="13.909575722401284"><ele>260.3333333333333</ele><time>2026-05-02T08:43:23.996Z</time></trkpt><trkpt lat="42.238523749025404" lon="13.909497834543037"><ele>262.66666666666663</ele><time>2026-05-02T08:43:24.996Z</time></trkpt><trkpt lat="42.238454148730895" lon="13.909433292657862"><ele>265.0</ele><time>2026-05-02T08:43:25.996Z</time></trkpt><trkpt lat="42.23835804965466" lon="13.909361270416367"><ele>265.0</ele><time>2026-05-02T08:43:26.996Z</time></trkpt><trkpt lat="42.23827086435348" lon="13.909344983862105"><ele>265.0</ele><time>2026-05-02T08:43:27.996Z</time></trkpt><trkpt lat="42.238195216354974" lon="13.909348336113844"><ele>265.0</ele><time>2026-05-02T08:43:28.996Z</time></trkpt><trkpt lat="42.23812399677512" lon="13.909345130385676"><ele>265.0</ele><time>2026-05-02T08:43:29.996Z</time></trkpt><trkpt lat="42.23805986833782" lon="13.90933943599261"><ele>265.0</ele><time>2026-05-02T08:43:30.996Z</time></trkpt><trkpt lat="42.23796721094709" lon="13.90932451321338"><ele>265.0</ele><time>2026-05-02T08:43:32.996Z</time></trkpt><trkpt lat="42.23790005972557" lon="13.909223678069889"><ele>267.2</ele><time>2026-05-02T08:43:34.996Z</time></trkpt><trkpt lat="42.23786896578304" lon="13.909136123466816"><ele>269.4</ele><time>2026-05-02T08:43:35.996Z</time></trkpt><trkpt lat="42.237830134144" lon="13.909034727981826"><ele>271.6</ele><time>2026-05-02T08:43:36.996Z</time></trkpt><trkpt lat="42.23778006601704" lon="13.908913497145049"><ele>273.8</ele><time>2026-05-02T08:43:37.996Z</time></trkpt><trkpt lat="42.23772583849162" lon="13.908791863253636"><ele>276.0</ele><time>2026-05-02T08:43:38.996Z</time></trkpt><trkpt lat="42.2376636115253" lon="13.908652468906174"><ele>276.0</ele><time>2026-05-02T08:43:39.996Z</time></trkpt><trkpt lat="42.23761998930101" lon="13.908529629911884"><ele>276.0</ele><time>2026-05-02T08:43:40.996Z</time></trkpt><trkpt lat="42.23756878006483" lon="13.90842368135639"><ele>276.0</ele><time>2026-05-02T08:43:41.996Z</time></trkpt><trkpt lat="42.23751913546837" lon="13.908330160907434"><ele>276.0</ele><time>2026-05-02T08:43:42.996Z</time></trkpt><trkpt lat="42.23745810051709" lon="13.908214564206386"><ele>276.0</ele><time>2026-05-02T08:43:43.996Z</time></trkpt><trkpt lat="42.23740924456299" lon="13.90812098692227"><ele>276.6</ele><time>2026-05-02T08:43:44.996Z</time></trkpt><trkpt lat="42.23735362161725" lon="13.908016210478818"><ele>277.20000000000005</ele><time>2026-05-02T08:43:45.996Z</time></trkpt><trkpt lat="42.23728789746101" lon="13.907896363930819"><ele>277.79999999999995</ele><time>2026-05-02T08:43:46.996Z</time></trkpt><trkpt lat="42.23723355717921" lon="13.90779363264898"><ele>278.4</ele><time>2026-05-02T08:43:47.996Z</time></trkpt><trkpt lat="42.23718429368531" lon="13.907696836546538"><ele>279.0</ele><time>2026-05-02T08:43:48.996Z</time></trkpt><trkpt lat="42.23713450557434" lon="13.907592598399685"><ele>279.0</ele><time>2026-05-02T08:43:49.996Z</time></trkpt><trkpt lat="42.237078614575886" lon="13.907490606181959"><ele>279.0</ele><time>2026-05-02T08:43:50.996Z</time></trkpt><trkpt lat="42.23702755900132" lon="13.9073942645558"><ele>279.0</ele><time>2026-05-02T08:43:51.996Z</time></trkpt><trkpt lat="42.236983807645" lon="13.907297812331691"><ele>279.0</ele><time>2026-05-02T08:43:52.996Z</time></trkpt><trkpt lat="42.236941729701556" lon="13.907201852674646"><ele>279.0</ele><time>2026-05-02T08:43:53.996Z</time></trkpt><trkpt lat="42.23689431595864" lon="13.907104032608215"><ele>279.0</ele><time>2026-05-02T08:43:54.996Z</time></trkpt><trkpt lat="42.23685592258554" lon="13.907013804774046"><ele>279.0</ele><time>2026-05-02T08:43:55.996Z</time></trkpt><trkpt lat="42.236819890389825" lon="13.90693414323626"><ele>279.0</ele><time>2026-05-02T08:43:56.996Z</time></trkpt><trkpt lat="42.23677614264045" lon="13.906851996757295"><ele>279.0</ele><time>2026-05-02T08:43:57.996Z</time></trkpt><trkpt lat="42.23673309661477" lon="13.906759263462526"><ele>279.0</ele><time>2026-05-02T08:43:58.996Z</time></trkpt><trkpt lat="42.2366841700462" lon="13.906675748696038"><ele>279.0</ele><time>2026-05-02T08:43:59.996Z</time></trkpt><trkpt lat="42.23662557325549" lon="13.906588248160288"><ele>279.0</ele><time>2026-05-02T08:44:00.996Z</time></trkpt><trkpt lat="42.23657041375448" lon="13.906503939971376"><ele>278.5</ele><time>2026-05-02T08:44:01.996Z</time></trkpt><trkpt lat="42.23651530418342" lon="13.906446563938164"><ele>278.0</ele><time>2026-05-02T08:44:02.996Z</time></trkpt><trkpt lat="42.236439821559934" lon="13.906358049712102"><ele>277.5</ele><time>2026-05-02T08:44:04.996Z</time></trkpt><trkpt lat="42.23639322779554" lon="13.906297976997466"><ele>277.0</ele><time>2026-05-02T08:44:07.001Z</time></trkpt><trkpt lat="42.236353624375205" lon="13.906202122859703"><ele>276.5</ele><time>2026-05-02T08:44:09.002Z</time></trkpt><trkpt lat="42.236286538021325" lon="13.906112504780408"><ele>276.0</ele><time>2026-05-02T08:44:10.001Z</time></trkpt><trkpt lat="42.23625257758207" lon="13.90597558734368"><ele>279.0</ele><time>2026-05-02T08:44:11.001Z</time></trkpt><trkpt lat="42.23619968677977" lon="13.905830668492635"><ele>282.0</ele><time>2026-05-02T08:44:12.001Z</time></trkpt><trkpt lat="42.23616201987306" lon="13.905687957264231"><ele>285.0</ele><time>2026-05-02T08:44:13.001Z</time></trkpt><trkpt lat="42.23612120009261" lon="13.905546574265072"><ele>288.0</ele><time>2026-05-02T08:44:14.001Z</time></trkpt><trkpt lat="42.23607179095027" lon="13.905414224709217"><ele>288.0</ele><time>2026-05-02T08:44:15.001Z</time></trkpt><trkpt lat="42.236014439188665" lon="13.905284751136811"><ele>288.0</ele><time>2026-05-02T08:44:16.001Z</time></trkpt><trkpt lat="42.23596049799883" lon="13.905150591248493"><ele>288.0</ele><time>2026-05-02T08:44:17.001Z</time></trkpt><trkpt lat="42.23590567164712" lon="13.905014778378591"><ele>288.0</ele><time>2026-05-02T08:44:18.001Z</time></trkpt><trkpt lat="42.235849474592754" lon="13.904878862085098"><ele>287.5</ele><time>2026-05-02T08:44:19.001Z</time></trkpt><trkpt lat="42.23579006336667" lon="13.904739051976362"><ele>287.0</ele><time>2026-05-02T08:44:20.001Z</time></trkpt><trkpt lat="42.23573261868204" lon="13.904595077846384"><ele>286.5</ele><time>2026-05-02T08:44:21.001Z</time></trkpt><trkpt lat="42.23566871977311" lon="13.904455764031624"><ele>286.0</ele><time>2026-05-02T08:44:22.001Z</time></trkpt><trkpt lat="42.2356045324467" lon="13.90431498710116"><ele>287.75</ele><time>2026-05-02T08:44:23.001Z</time></trkpt><trkpt lat="42.235538222640635" lon="13.90417163370412"><ele>289.5</ele><time>2026-05-02T08:44:24.001Z</time></trkpt><trkpt lat="42.235458454149814" lon="13.904023287405819"><ele>291.25</ele><time>2026-05-02T08:44:25.001Z</time></trkpt><trkpt lat="42.23541610587355" lon="13.903852236508142"><ele>293.0</ele><time>2026-05-02T08:44:26.001Z</time></trkpt><trkpt lat="42.23539593511665" lon="13.903660160969729"><ele>293.0</ele><time>2026-05-02T08:44:27.001Z</time></trkpt><trkpt lat="42.23537221044753" lon="13.903458022342422"><ele>293.0</ele><time>2026-05-02T08:44:28.001Z</time></trkpt><trkpt lat="42.235345603597196" lon="13.903260649491699"><ele>293.0</ele><time>2026-05-02T08:44:29.001Z</time></trkpt><trkpt lat="42.23532403067455" lon="13.903091362478309"><ele>293.0</ele><time>2026-05-02T08:44:30.001Z</time></trkpt><trkpt lat="42.23530430595379" lon="13.902965542072169"><ele>293.4</ele><time>2026-05-02T08:44:31.001Z</time></trkpt><trkpt lat="42.2352609021954" lon="13.90285801145239"><ele>293.8</ele><time>2026-05-02T08:44:32Z</time></trkpt><trkpt lat="42.235312817707694" lon="13.90275235395095"><ele>294.2</ele><time>2026-05-02T08:44:33Z</time></trkpt><trkpt lat="42.23538282383239" lon="13.902846960859646"><ele>294.6</ele><time>2026-05-02T08:44:35Z</time></trkpt><trkpt lat="42.23541798660104" lon="13.903016433143396"><ele>295.0</ele><time>2026-05-02T08:44:37Z</time></trkpt><trkpt lat="42.23544937103298" lon="13.903159417358976"><ele>295.0</ele><time>2026-05-02T08:44:38Z</time></trkpt><trkpt lat="42.23548595916518" lon="13.903319940495951"><ele>295.0</ele><time>2026-05-02T08:44:39Z</time></trkpt><trkpt lat="42.23553601492553" lon="13.903482212248344"><ele>295.0</ele><time>2026-05-02T08:44:40Z</time></trkpt><trkpt lat="42.2355901096327" lon="13.903625497909806"><ele>295.0</ele><time>2026-05-02T08:44:41Z</time></trkpt><trkpt lat="42.235639778730935" lon="13.90374819632785"><ele>296.4</ele><time>2026-05-02T08:44:42Z</time></trkpt><trkpt lat="42.23569605176324" lon="13.903847690043065"><ele>297.8</ele><time>2026-05-02T08:44:43Z</time></trkpt><trkpt lat="42.23576008996538" lon="13.903884255995658"><ele>299.2</ele><time>2026-05-02T08:44:44Z</time></trkpt><trkpt lat="42.235845524719274" lon="13.903900879474264"><ele>300.6</ele><time>2026-05-02T08:44:46Z</time></trkpt><trkpt lat="42.235915890727505" lon="13.903771278956716"><ele>302.0</ele><time>2026-05-02T08:44:48Z</time></trkpt><trkpt lat="42.23591145080353" lon="13.903651383405744"><ele>302.0</ele><time>2026-05-02T08:44:49Z</time></trkpt><trkpt lat="42.23590160128656" lon="13.903492433798343"><ele>302.0</ele><time>2026-05-02T08:44:50Z</time></trkpt><trkpt lat="42.23588840180297" lon="13.903271795708022"><ele>302.0</ele><time>2026-05-02T08:44:51Z</time></trkpt><trkpt lat="42.23587266332428" lon="13.902999969894596"><ele>304.0</ele><time>2026-05-02T08:44:52Z</time></trkpt><trkpt lat="42.2358571608708" lon="13.902723608001356"><ele>306.0</ele><time>2026-05-02T08:44:53Z</time></trkpt><trkpt lat="42.23585520580789" lon="13.902456570489683"><ele>308.0</ele><time>2026-05-02T08:44:54Z</time></trkpt><trkpt lat="42.235840870835304" lon="13.902222579711287"><ele>310.6666666666667</ele><time>2026-05-02T08:44:55Z</time></trkpt><trkpt lat="42.23582554526044" lon="13.901988881312025"><ele>313.3333333333333</ele><time>2026-05-02T08:44:56Z</time></trkpt><trkpt lat="42.235799677976324" lon="13.901775807680457"><ele>316.0</ele><time>2026-05-02T08:44:57Z</time></trkpt><trkpt lat="42.23578760522008" lon="13.901563039256093"><ele>317.5</ele><time>2026-05-02T08:44:58Z</time></trkpt><trkpt lat="42.235771248894" lon="13.901355990352519"><ele>319.0</ele><time>2026-05-02T08:44:59Z</time></trkpt><trkpt lat="42.235752762627854" lon="13.901167458089503"><ele>320.5</ele><time>2026-05-02T08:45:00Z</time></trkpt><trkpt lat="42.23574340182876" lon="13.900978859289737"><ele>322.0</ele><time>2026-05-02T08:45:01Z</time></trkpt><trkpt lat="42.23572940572622" lon="13.900789882812536"><ele>323.75</ele><time>2026-05-02T08:45:02Z</time></trkpt><trkpt lat="42.23571898344807" lon="13.900600752145435"><ele>325.5</ele><time>2026-05-02T08:45:03Z</time></trkpt><trkpt lat="42.23571138396172" lon="13.900428128663398"><ele>327.25</ele><time>2026-05-02T08:45:04Z</time></trkpt><trkpt lat="42.23570169812372" lon="13.90023075580959"><ele>329.0</ele><time>2026-05-02T08:45:05Z</time></trkpt><trkpt lat="42.23569477333682" lon="13.900029853071489"><ele>329.6</ele><time>2026-05-02T08:45:06Z</time></trkpt><trkpt lat="42.23571033315171" lon="13.899852105626024"><ele>330.2</ele><time>2026-05-02T08:45:07Z</time></trkpt><trkpt lat="42.23572892037077" lon="13.899722579199157"><ele>330.8</ele><time>2026-05-02T08:45:08Z</time></trkpt><trkpt lat="42.235746805414344" lon="13.899610205628543"><ele>331.40000000000003</ele><time>2026-05-02T08:45:09Z</time></trkpt><trkpt lat="42.235763745662275" lon="13.899493271029964"><ele>332.0</ele><time>2026-05-02T08:45:10Z</time></trkpt><trkpt lat="42.235771747730574" lon="13.899391355703676"><ele>332.0</ele><time>2026-05-02T08:45:11Z</time></trkpt><trkpt lat="42.23577391339061" lon="13.899273788974957"><ele>332.0</ele><time>2026-05-02T08:45:12Z</time></trkpt><trkpt lat="42.23576904487361" lon="13.899168251431174"><ele>332.0</ele><time>2026-05-02T08:45:13Z</time></trkpt><trkpt lat="42.2357630249651" lon="13.899024610533498"><ele>332.0</ele><time>2026-05-02T08:45:14Z</time></trkpt><trkpt lat="42.23575946356101" lon="13.89890969803183"><ele>332.0</ele><time>2026-05-02T08:45:15Z</time></trkpt><trkpt lat="42.2357569464708" lon="13.898787988291483"><ele>332.0</ele><time>2026-05-02T08:45:16Z</time></trkpt><trkpt lat="42.235756084324855" lon="13.898647358573458"><ele>333.33333333333337</ele><time>2026-05-02T08:45:17Z</time></trkpt><trkpt lat="42.23581650739127" lon="13.898515371023393"><ele>334.6666666666667</ele><time>2026-05-02T08:45:18Z</time></trkpt><trkpt lat="42.23582090776874" lon="13.89840941983072"><ele>336.0</ele><time>2026-05-02T08:45:19Z</time></trkpt><trkpt lat="42.23582877059291" lon="13.89831333164701"><ele>337.3333333333333</ele><time>2026-05-02T08:45:20Z</time></trkpt><trkpt lat="42.23583859724504" lon="13.898222356046372"><ele>338.66666666666663</ele><time>2026-05-02T08:45:21Z</time></trkpt><trkpt lat="42.235836808644144" lon="13.89811938119371"><ele>340.0</ele><time>2026-05-02T08:45:23Z</time></trkpt><trkpt lat="42.235821846390934" lon="13.89802592741696"><ele>341.6</ele><time>2026-05-02T08:45:25Z</time></trkpt><trkpt lat="42.23574188817691" lon="13.897963467693334"><ele>343.2</ele><time>2026-05-02T08:45:28.999Z</time></trkpt><trkpt lat="42.235671667188626" lon="13.897891353132886"><ele>344.79999999999995</ele><time>2026-05-02T08:45:29.999Z</time></trkpt><trkpt lat="42.235732459498045" lon="13.897721256044735"><ele>346.4</ele><time>2026-05-02T08:45:30.999Z</time></trkpt><trkpt lat="42.235735101243" lon="13.897569247620815"><ele>348.0</ele><time>2026-05-02T08:45:31.999Z</time></trkpt><trkpt lat="42.235756347052615" lon="13.897421667036125"><ele>349.25</ele><time>2026-05-02T08:45:32.999Z</time></trkpt><trkpt lat="42.235766181216405" lon="13.897229498818046"><ele>350.5</ele><time>2026-05-02T08:45:33.999Z</time></trkpt><trkpt lat="42.235788731649116" lon="13.89708231646587"><ele>351.75</ele><time>2026-05-02T08:45:34.999Z</time></trkpt><trkpt lat="42.23581517958031" lon="13.896945218973464"><ele>353.0</ele><time>2026-05-02T08:45:35.999Z</time></trkpt><trkpt lat="42.23583769155959" lon="13.896804708842865"><ele>353.0</ele><time>2026-05-02T08:45:36.999Z</time></trkpt><trkpt lat="42.23588174359858" lon="13.896681546005146"><ele>353.0</ele><time>2026-05-02T08:45:37.999Z</time></trkpt><trkpt lat="42.23591080795927" lon="13.896559880393966"><ele>353.0</ele><time>2026-05-02T08:45:38.999Z</time></trkpt><trkpt lat="42.235931645527856" lon="13.896444796632544"><ele>353.0</ele><time>2026-05-02T08:45:39.999Z</time></trkpt><trkpt lat="42.23595133392607" lon="13.896306235809107"><ele>353.0</ele><time>2026-05-02T08:45:40.999Z</time></trkpt><trkpt lat="42.235964430583806" lon="13.896166626603842"><ele>353.0</ele><time>2026-05-02T08:45:41.999Z</time></trkpt><trkpt lat="42.23597487942726" lon="13.896024448336716"><ele>353.0</ele><time>2026-05-02T08:45:42.999Z</time></trkpt><trkpt lat="42.23598638277923" lon="13.89586901774883"><ele>353.0</ele><time>2026-05-02T08:45:43.999Z</time></trkpt><trkpt lat="42.23601322100614" lon="13.89569155276451"><ele>353.0</ele><time>2026-05-02T08:45:44.999Z</time></trkpt><trkpt lat="42.23603977659581" lon="13.895539958026047"><ele>352.2</ele><time>2026-05-02T08:45:45.999Z</time></trkpt><trkpt lat="42.236063090422235" lon="13.895404919093203"><ele>351.4</ele><time>2026-05-02T08:45:46.999Z</time></trkpt><trkpt lat="42.2360848018434" lon="13.895279156754048"><ele>350.59999999999997</ele><time>2026-05-02T08:45:47.999Z</time></trkpt><trkpt lat="42.23609658161672" lon="13.895162673964094"><ele>349.79999999999995</ele><time>2026-05-02T08:45:48.999Z</time></trkpt><trkpt lat="42.23610902397488" lon="13.895021608355815"><ele>349.0</ele><time>2026-05-02T08:45:49.999Z</time></trkpt><trkpt lat="42.236119130132906" lon="13.894869201714398"><ele>348.6</ele><time>2026-05-02T08:45:50.999Z</time></trkpt><trkpt lat="42.2360944111861" lon="13.894739846787411"><ele>348.2</ele><time>2026-05-02T08:45:51.999Z</time></trkpt><trkpt lat="42.23610491073524" lon="13.89461373955071"><ele>347.8</ele><time>2026-05-02T08:45:52.999Z</time></trkpt><trkpt lat="42.236129975631144" lon="13.894477031262001"><ele>347.40000000000003</ele><time>2026-05-02T08:45:53.999Z</time></trkpt><trkpt lat="42.23614048266428" lon="13.894359403156646"><ele>347.0</ele><time>2026-05-02T08:45:54.999Z</time></trkpt><trkpt lat="42.23617287900624" lon="13.894240248574748"><ele>346.6</ele><time>2026-05-02T08:45:56.999Z</time></trkpt><trkpt lat="42.23627196209339" lon="13.894105369718835"><ele>346.20000000000005</ele><time>2026-05-02T08:45:58.999Z</time></trkpt><trkpt lat="42.236274261721505" lon="13.893957590625153"><ele>345.8</ele><time>2026-05-02T08:46:00.999Z</time></trkpt><trkpt lat="42.23629578363348" lon="13.893861771196438"><ele>345.4</ele><time>2026-05-02T08:46:02.999Z</time></trkpt><trkpt lat="42.23629005137778" lon="13.89377444372369"><ele>345.0</ele><time>2026-05-02T08:46:03.999Z</time></trkpt><trkpt lat="42.236288432815115" lon="13.893642568033613"><ele>345.0</ele><time>2026-05-02T08:46:05.999Z</time></trkpt><trkpt lat="42.23626558909866" lon="13.893551546430926"><ele>345.0</ele><time>2026-05-02T08:46:07.999Z</time></trkpt><trkpt lat="42.23622323275582" lon="13.893446555341994"><ele>345.0</ele><time>2026-05-02T08:46:09.999Z</time></trkpt><trkpt lat="42.23622044590736" lon="13.893333738910531"><ele>345.0</ele><time>2026-05-02T08:46:11.999Z</time></trkpt><trkpt lat="42.23623701244435" lon="13.893230665366731"><ele>345.0</ele><time>2026-05-02T08:46:12.999Z</time></trkpt><trkpt lat="42.236275181492516" lon="13.893080104491974"><ele>345.0</ele><time>2026-05-02T08:46:13.999Z</time></trkpt><trkpt lat="42.23626941062068" lon="13.892957824327281"><ele>345.2</ele><time>2026-05-02T08:46:14.999Z</time></trkpt><trkpt lat="42.236273523121824" lon="13.892859511982302"><ele>345.4</ele><time>2026-05-02T08:46:15.999Z</time></trkpt><trkpt lat="42.236257978913216" lon="13.89271076976047"><ele>345.6</ele><time>2026-05-02T08:46:16.999Z</time></trkpt><trkpt lat="42.23625102400803" lon="13.892589993417921"><ele>345.8</ele><time>2026-05-02T08:46:17.999Z</time></trkpt><trkpt lat="42.23625844059812" lon="13.892468077047049"><ele>346.0</ele><time>2026-05-02T08:46:18.999Z</time></trkpt><trkpt lat="42.23624900294039" lon="13.892322633710412"><ele>347.20000000000005</ele><time>2026-05-02T08:46:19.999Z</time></trkpt><trkpt lat="42.23622565980752" lon="13.892174663035188"><ele>348.40000000000003</ele><time>2026-05-02T08:46:20.999Z</time></trkpt><trkpt lat="42.236190607142646" lon="13.892028758731989"><ele>349.6</ele><time>2026-05-02T08:46:21.999Z</time></trkpt><trkpt lat="42.236153075693935" lon="13.89189096835943"><ele>350.8</ele><time>2026-05-02T08:46:22.999Z</time></trkpt><trkpt lat="42.236103681439744" lon="13.891758541246283"><ele>352.0</ele><time>2026-05-02T08:46:23.999Z</time></trkpt><trkpt lat="42.23605370892985" lon="13.891625864604775"><ele>354.0</ele><time>2026-05-02T08:46:24.999Z</time></trkpt><trkpt lat="42.236023506516716" lon="13.891463774114747"><ele>356.0</ele><time>2026-05-02T08:46:25.999Z</time></trkpt><trkpt lat="42.23594319565204" lon="13.891339044140596"><ele>358.0</ele><time>2026-05-02T08:46:26.999Z</time></trkpt><trkpt lat="42.23586150939704" lon="13.891235201536187"><ele>360.0</ele><time>2026-05-02T08:46:27.999Z</time></trkpt><trkpt lat="42.235811429257645" lon="13.891074685265016"><ele>360.0</ele><time>2026-05-02T08:46:28.999Z</time></trkpt><trkpt lat="42.23575404360422" lon="13.890944518296191"><ele>360.0</ele><time>2026-05-02T08:46:29.999Z</time></trkpt><trkpt lat="42.23574121941159" lon="13.890796119246406"><ele>360.0</ele><time>2026-05-02T08:46:30.999Z</time></trkpt><trkpt lat="42.235728556012255" lon="13.890644614761026"><ele>360.0</ele><time>2026-05-02T08:46:31.999Z</time></trkpt><trkpt lat="42.235700595749975" lon="13.890507575261301"><ele>360.0</ele><time>2026-05-02T08:46:32.999Z</time></trkpt><trkpt lat="42.235685402744956" lon="13.890363060735408"><ele>361.2</ele><time>2026-05-02T08:46:33.999Z</time></trkpt><trkpt lat="42.235671938111096" lon="13.89023134472046"><ele>362.4</ele><time>2026-05-02T08:46:34.999Z</time></trkpt><trkpt lat="42.23567198622209" lon="13.890095594836739"><ele>363.6</ele><time>2026-05-02T08:46:35.999Z</time></trkpt><trkpt lat="42.23563998668519" lon="13.889982504247543"><ele>364.8</ele><time>2026-05-02T08:46:36.999Z</time></trkpt><trkpt lat="42.235580050686124" lon="13.889876785300892"><ele>366.0</ele><time>2026-05-02T08:46:37.999Z</time></trkpt><trkpt lat="42.2355299144886" lon="13.88975755574614"><ele>366.0</ele><time>2026-05-02T08:46:38.999Z</time></trkpt><trkpt lat="42.23548596881529" lon="13.889610257196075"><ele>366.0</ele><time>2026-05-02T08:46:39.999Z</time></trkpt><trkpt lat="42.23540653440409" lon="13.889471717086343"><ele>366.0</ele><time>2026-05-02T08:46:40.999Z</time></trkpt><trkpt lat="42.23533611779954" lon="13.88929733710783"><ele>366.0</ele><time>2026-05-02T08:46:41.999Z</time></trkpt><trkpt lat="42.23524706412223" lon="13.88912532530652"><ele>369.3333333333333</ele><time>2026-05-02T08:46:42.999Z</time></trkpt><trkpt lat="42.23516439021456" lon="13.888940271180129"><ele>372.66666666666663</ele><time>2026-05-02T08:46:43.999Z</time></trkpt><trkpt lat="42.23509349665672" lon="13.888738398222715"><ele>376.0</ele><time>2026-05-02T08:46:44.999Z</time></trkpt><trkpt lat="42.23497118294394" lon="13.888560688331307"><ele>378.0</ele><time>2026-05-02T08:46:45.999Z</time></trkpt><trkpt lat="42.234852327648376" lon="13.888366296592563"><ele>380.0</ele><time>2026-05-02T08:46:46.999Z</time></trkpt><trkpt lat="42.23474033429948" lon="13.888181116548353"><ele>382.0</ele><time>2026-05-02T08:46:47.999Z</time></trkpt><trkpt lat="42.234633630296265" lon="13.888004684394144"><ele>382.0</ele><time>2026-05-02T08:46:48.999Z</time></trkpt><trkpt lat="42.234529059860556" lon="13.887832129245325"><ele>382.0</ele><time>2026-05-02T08:46:49.999Z</time></trkpt><trkpt lat="42.23442522141853" lon="13.88766096802579"><ele>382.0</ele><time>2026-05-02T08:46:50.999Z</time></trkpt><trkpt lat="42.23433161678444" lon="13.887507986201689"><ele>386.75</ele><time>2026-05-02T08:46:51.999Z</time></trkpt><trkpt lat="42.23424012010244" lon="13.88735865167851"><ele>391.5</ele><time>2026-05-02T08:46:52.999Z</time></trkpt><trkpt lat="42.23414788736088" lon="13.887208115725345"><ele>396.25</ele><time>2026-05-02T08:46:53.999Z</time></trkpt><trkpt lat="42.23408811995511" lon="13.887110567412483"><ele>401.0</ele><time>2026-05-02T08:46:54.999Z</time></trkpt><trkpt lat="42.234026319527175" lon="13.887009700933755"><ele>401.20000000000005</ele><time>2026-05-02T08:46:55.999Z</time></trkpt><trkpt lat="42.23395973075936" lon="13.886908632027554"><ele>401.40000000000003</ele><time>2026-05-02T08:46:56.999Z</time></trkpt><trkpt lat="42.233899803298954" lon="13.886806557068448"><ele>401.6</ele><time>2026-05-02T08:46:57.999Z</time></trkpt><trkpt lat="42.2338393798757" lon="13.886747223226727"><ele>401.8</ele><time>2026-05-02T08:46:58.999Z</time></trkpt><trkpt lat="42.23375035615147" lon="13.886674758033427"><ele>402.0</ele><time>2026-05-02T08:46:59.999Z</time></trkpt><trkpt lat="42.23366537874267" lon="13.886604135894945"><ele>402.0</ele><time>2026-05-02T08:47:00.999Z</time></trkpt><trkpt lat="42.23357086958989" lon="13.886557795557913"><ele>402.0</ele><time>2026-05-02T08:47:01.999Z</time></trkpt><trkpt lat="42.23350985500642" lon="13.886487709086486"><ele>402.0</ele><time>2026-05-02T08:47:02.998Z</time></trkpt><trkpt lat="42.23348306100851" lon="13.88640204868484"><ele>402.0</ele><time>2026-05-02T08:47:03.998Z</time></trkpt><trkpt lat="42.2335340547236" lon="13.886279522574121"><ele>402.0</ele><time>2026-05-02T08:47:05.998Z</time></trkpt><trkpt lat="42.23360308393737" lon="13.886232711717643"><ele>402.0</ele><time>2026-05-02T08:47:06.998Z</time></trkpt><trkpt lat="42.233693572632276" lon="13.886278922771696"><ele>402.0</ele><time>2026-05-02T08:47:07.998Z</time></trkpt><trkpt lat="42.233785067021294" lon="13.886309914006864"><ele>402.0</ele><time>2026-05-02T08:47:08.998Z</time></trkpt><trkpt lat="42.23388147694174" lon="13.886338303925127"><ele>402.0</ele><time>2026-05-02T08:47:09.998Z</time></trkpt><trkpt lat="42.2339788084943" lon="13.886428902678363"><ele>402.0</ele><time>2026-05-02T08:47:10.998Z</time></trkpt><trkpt lat="42.23407615063764" lon="13.88652564658531"><ele>402.0</ele><time>2026-05-02T08:47:11.998Z</time></trkpt><trkpt lat="42.234174147218056" lon="13.886638758058567"><ele>401.75</ele><time>2026-05-02T08:47:12.998Z</time></trkpt><trkpt lat="42.23428621954948" lon="13.886782021231062"><ele>401.5</ele><time>2026-05-02T08:47:13.998Z</time></trkpt><trkpt lat="42.23439582970069" lon="13.88692408118371"><ele>401.25</ele><time>2026-05-02T08:47:14.998Z</time></trkpt><trkpt lat="42.234493024789494" lon="13.887025045078412"><ele>401.0</ele><time>2026-05-02T08:47:15.998Z</time></trkpt><trkpt lat="42.23456448828251" lon="13.887063222196412"><ele>401.0</ele><time>2026-05-02T08:47:16.998Z</time></trkpt><trkpt lat="42.23463777657743" lon="13.887050369664495"><ele>401.0</ele><time>2026-05-02T08:47:17.998Z</time></trkpt><trkpt lat="42.23471832238892" lon="13.886906326842714"><ele>401.0</ele><time>2026-05-02T08:47:19.998Z</time></trkpt><trkpt lat="42.23472863850836" lon="13.886807863217673"><ele>401.0</ele><time>2026-05-02T08:47:20.998Z</time></trkpt><trkpt lat="42.23470026876703" lon="13.88671008907876"><ele>401.0</ele><time>2026-05-02T08:47:21.998Z</time></trkpt><trkpt lat="42.234643495718814" lon="13.886612158054778"><ele>405.0</ele><time>2026-05-02T08:47:22.998Z</time></trkpt><trkpt lat="42.23454357591571" lon="13.88649359621814"><ele>409.0</ele><time>2026-05-02T08:47:23.998Z</time></trkpt><trkpt lat="42.23442828711976" lon="13.886390291652683"><ele>413.0</ele><time>2026-05-02T08:47:24.998Z</time></trkpt><trkpt lat="42.23431715559861" lon="13.886255462873997"><ele>417.0</ele><time>2026-05-02T08:47:25.998Z</time></trkpt><trkpt lat="42.23424029729191" lon="13.886074121292168"><ele>420.25</ele><time>2026-05-02T08:47:26.998Z</time></trkpt><trkpt lat="42.234165549482036" lon="13.885893410149855"><ele>423.5</ele><time>2026-05-02T08:47:27.998Z</time></trkpt><trkpt lat="42.23409819672445" lon="13.885733771321915"><ele>426.75</ele><time>2026-05-02T08:47:28.998Z</time></trkpt><trkpt lat="42.23404666793016" lon="13.885572291567795"><ele>430.0</ele><time>2026-05-02T08:47:29.998Z</time></trkpt><trkpt lat="42.23400110982236" lon="13.885373811407863"><ele>430.0</ele><time>2026-05-02T08:47:30.998Z</time></trkpt><trkpt lat="42.233979557598225" lon="13.885158274871703"><ele>430.0</ele><time>2026-05-02T08:47:31.998Z</time></trkpt><trkpt lat="42.23395476940313" lon="13.88495612404438"><ele>430.0</ele><time>2026-05-02T08:47:32.998Z</time></trkpt><trkpt lat="42.23392716152668" lon="13.884743492949404"><ele>429.33333333333337</ele><time>2026-05-02T08:47:33.998Z</time></trkpt><trkpt lat="42.23390346556506" lon="13.884525848402049"><ele>428.66666666666663</ele><time>2026-05-02T08:47:34.998Z</time></trkpt><trkpt lat="42.233857925214714" lon="13.884325975629315"><ele>428.0</ele><time>2026-05-02T08:47:35.998Z</time></trkpt><trkpt lat="42.23384159683492" lon="13.884124100000662"><ele>433.66666666666663</ele><time>2026-05-02T08:47:36.998Z</time></trkpt><trkpt lat="42.23378266971919" lon="13.883924342235467"><ele>439.33333333333337</ele><time>2026-05-02T08:47:37.998Z</time></trkpt><trkpt lat="42.233738698839296" lon="13.883731003678479"><ele>445.0</ele><time>2026-05-02T08:47:38.998Z</time></trkpt><trkpt lat="42.233693529997616" lon="13.883533247256565"><ele>449.0</ele><time>2026-05-02T08:47:39.998Z</time></trkpt><trkpt lat="42.23365875315176" lon="13.8833318167639"><ele>453.0</ele><time>2026-05-02T08:47:40.998Z</time></trkpt><trkpt lat="42.233617988369865" lon="13.883151357295798"><ele>457.0</ele><time>2026-05-02T08:47:41.998Z</time></trkpt><trkpt lat="42.2335738364963" lon="13.882954857280955"><ele>461.0</ele><time>2026-05-02T08:47:42.998Z</time></trkpt><trkpt lat="42.23356463746246" lon="13.882727192624596"><ele>465.66666666666663</ele><time>2026-05-02T08:47:43.998Z</time></trkpt><trkpt lat="42.23358066946846" lon="13.882504961487786"><ele>470.33333333333337</ele><time>2026-05-02T08:47:44.998Z</time></trkpt><trkpt lat="42.23360801940864" lon="13.882298023711959"><ele>475.0</ele><time>2026-05-02T08:47:45.998Z</time></trkpt><trkpt lat="42.23361307513057" lon="13.882084102096995"><ele>475.0</ele><time>2026-05-02T08:47:46.998Z</time></trkpt><trkpt lat="42.2336197329884" lon="13.881893642554498"><ele>475.0</ele><time>2026-05-02T08:47:47.998Z</time></trkpt><trkpt lat="42.23364976516816" lon="13.881716304248403"><ele>475.0</ele><time>2026-05-02T08:47:48.998Z</time></trkpt><trkpt lat="42.233677939218495" lon="13.881533368225654"><ele>475.0</ele><time>2026-05-02T08:47:49.998Z</time></trkpt><trkpt lat="42.23371608405663" lon="13.88133208214425"><ele>475.75</ele><time>2026-05-02T08:47:50.998Z</time></trkpt><trkpt lat="42.23375631140351" lon="13.881135462953083"><ele>476.5</ele><time>2026-05-02T08:47:51.998Z</time></trkpt><trkpt lat="42.23379638054751" lon="13.880949916231454"><ele>477.25</ele><time>2026-05-02T08:47:52.998Z</time></trkpt><trkpt lat="42.233828829234255" lon="13.880778718980087"><ele>478.0</ele><time>2026-05-02T08:47:53.998Z</time></trkpt><trkpt lat="42.23384236419477" lon="13.880574397465907"><ele>478.0</ele><time>2026-05-02T08:47:54.998Z</time></trkpt><trkpt lat="42.23385575026505" lon="13.880405417237295"><ele>478.0</ele><time>2026-05-02T08:47:55.998Z</time></trkpt><trkpt lat="42.2338306265531" lon="13.880198449023645"><ele>478.0</ele><time>2026-05-02T08:47:56.998Z</time></trkpt><trkpt lat="42.23379977325641" lon="13.880017654004558"><ele>478.0</ele><time>2026-05-02T08:47:57.998Z</time></trkpt><trkpt lat="42.23375448993193" lon="13.879844372250345"><ele>477.5</ele><time>2026-05-02T08:47:58.998Z</time></trkpt><trkpt lat="42.23374580467768" lon="13.879703853940326"><ele>477.0</ele><time>2026-05-02T08:47:59.998Z</time></trkpt><trkpt lat="42.233713093014906" lon="13.879547285331846"><ele>476.5</ele><time>2026-05-02T08:48:00.998Z</time></trkpt><trkpt lat="42.23373978075831" lon="13.879351009348326"><ele>476.0</ele><time>2026-05-02T08:48:01.998Z</time></trkpt><trkpt lat="42.233751778280606" lon="13.879142924657788"><ele>475.66666666666663</ele><time>2026-05-02T08:48:02.998Z</time></trkpt><trkpt lat="42.233795871939186" lon="13.878938272000633"><ele>475.33333333333337</ele><time>2026-05-02T08:48:03.998Z</time></trkpt><trkpt lat="42.23383314606419" lon="13.878743018202723"><ele>475.0</ele><time>2026-05-02T08:48:04.998Z</time></trkpt><trkpt lat="42.23388654865239" lon="13.878535732552473"><ele>474.6666666666667</ele><time>2026-05-02T08:48:05.998Z</time></trkpt><trkpt lat="42.23392375213236" lon="13.878346649471101"><ele>474.33333333333337</ele><time>2026-05-02T08:48:06.998Z</time></trkpt><trkpt lat="42.23396575005697" lon="13.878134032778915"><ele>474.0</ele><time>2026-05-02T08:48:07.998Z</time></trkpt><trkpt lat="42.23402325927426" lon="13.877929818653211"><ele>470.66666666666663</ele><time>2026-05-02T08:48:08.998Z</time></trkpt><trkpt lat="42.23406463941372" lon="13.877708143198083"><ele>467.3333333333333</ele><time>2026-05-02T08:48:09.998Z</time></trkpt><trkpt lat="42.23409832097166" lon="13.877469560734085"><ele>464.0</ele><time>2026-05-02T08:48:10.998Z</time></trkpt><trkpt lat="42.234104079099026" lon="13.877223482711228"><ele>464.0</ele><time>2026-05-02T08:48:11.998Z</time></trkpt><trkpt lat="42.234149521708346" lon="13.877008364915671"><ele>464.0</ele><time>2026-05-02T08:48:12.998Z</time></trkpt><trkpt lat="42.23415312682639" lon="13.876810974222854"><ele>464.0</ele><time>2026-05-02T08:48:13.998Z</time></trkpt><trkpt lat="42.234185608480026" lon="13.876630521742422"><ele>464.0</ele><time>2026-05-02T08:48:14.998Z</time></trkpt><trkpt lat="42.23420858202891" lon="13.87648839870787"><ele>464.5</ele><time>2026-05-02T08:48:15.998Z</time></trkpt><trkpt lat="42.23424710319885" lon="13.87634008766395"><ele>465.0</ele><time>2026-05-02T08:48:16.998Z</time></trkpt><trkpt lat="42.23430824526216" lon="13.876207282602076"><ele>465.5</ele><time>2026-05-02T08:48:17.998Z</time></trkpt><trkpt lat="42.2343919347768" lon="13.876064098525637"><ele>466.0</ele><time>2026-05-02T08:48:18.998Z</time></trkpt><trkpt lat="42.23446844770509" lon="13.875929076853192"><ele>464.0</ele><time>2026-05-02T08:48:19.998Z</time></trkpt><trkpt lat="42.23454867716223" lon="13.875777853926106"><ele>462.0</ele><time>2026-05-02T08:48:20.998Z</time></trkpt><trkpt lat="42.23462534561316" lon="13.875623268994243"><ele>460.0</ele><time>2026-05-02T08:48:21.998Z</time></trkpt><trkpt lat="42.234735077035346" lon="13.875469978187096"><ele>458.0</ele><time>2026-05-02T08:48:22.998Z</time></trkpt><trkpt lat="42.23484754937896" lon="13.875317416388642"><ele>458.0</ele><time>2026-05-02T08:48:23.998Z</time></trkpt><trkpt lat="42.23495812729875" lon="13.875183289110455"><ele>458.0</ele><time>2026-05-02T08:48:24.998Z</time></trkpt><trkpt lat="42.23507851490077" lon="13.875093319868556"><ele>458.0</ele><time>2026-05-02T08:48:25.998Z</time></trkpt><trkpt lat="42.235198374352265" lon="13.874990728020487"><ele>458.0</ele><time>2026-05-02T08:48:26.998Z</time></trkpt><trkpt lat="42.235335928863776" lon="13.8748643620331"><ele>456.0</ele><time>2026-05-02T08:48:27.997Z</time></trkpt><trkpt lat="42.23543205107739" lon="13.874767444684098"><ele>454.0</ele><time>2026-05-02T08:48:28.997Z</time></trkpt><trkpt lat="42.235529927900494" lon="13.874665869454676"><ele>452.0</ele><time>2026-05-02T08:48:29.997Z</time></trkpt><trkpt lat="42.23562130274573" lon="13.874576142186926"><ele>450.0</ele><time>2026-05-02T08:48:30.997Z</time></trkpt><trkpt lat="42.23568859950109" lon="13.874470275279316"><ele>450.0</ele><time>2026-05-02T08:48:31.997Z</time></trkpt><trkpt lat="42.235737571777676" lon="13.87439832005404"><ele>450.0</ele><time>2026-05-02T08:48:32.997Z</time></trkpt><trkpt lat="42.235736094441904" lon="13.874231131428882"><ele>450.0</ele><time>2026-05-02T08:48:34.997Z</time></trkpt><trkpt lat="42.23566242866903" lon="13.874122956106481"><ele>450.0</ele><time>2026-05-02T08:48:35.997Z</time></trkpt><trkpt lat="42.23555687594711" lon="13.87399813302019"><ele>450.0</ele><time>2026-05-02T08:48:36.997Z</time></trkpt><trkpt lat="42.23545813436551" lon="13.873888131987357"><ele>455.4</ele><time>2026-05-02T08:48:37.997Z</time></trkpt><trkpt lat="42.2353987137391" lon="13.873804735828632"><ele>460.8</ele><time>2026-05-02T08:48:38.997Z</time></trkpt><trkpt lat="42.235351021579746" lon="13.873639192874194"><ele>466.20000000000005</ele><time>2026-05-02T08:48:40.997Z</time></trkpt><trkpt lat="42.235401063114686" lon="13.873515942729826"><ele>471.6</ele><time>2026-05-02T08:48:41.997Z</time></trkpt><trkpt lat="42.23546059162789" lon="13.873411570165839"><ele>477.0</ele><time>2026-05-02T08:48:42.997Z</time></trkpt><trkpt lat="42.23550797360399" lon="13.873293372448632"><ele>477.0</ele><time>2026-05-02T08:48:43.997Z</time></trkpt><trkpt lat="42.23558753853607" lon="13.873225526493355"><ele>477.0</ele><time>2026-05-02T08:48:44.997Z</time></trkpt><trkpt lat="42.23569069865714" lon="13.873188209172978"><ele>477.0</ele><time>2026-05-02T08:48:45.997Z</time></trkpt><trkpt lat="42.235832462111624" lon="13.873188602196556"><ele>477.0</ele><time>2026-05-02T08:48:46.997Z</time></trkpt><trkpt lat="42.23598622741212" lon="13.873229693652624"><ele>471.66666666666663</ele><time>2026-05-02T08:48:47.997Z</time></trkpt><trkpt lat="42.2361418918214" lon="13.873279948090186"><ele>466.3333333333333</ele><time>2026-05-02T08:48:48.997Z</time></trkpt><trkpt lat="42.23629903878284" lon="13.873319829177117"><ele>461.0</ele><time>2026-05-02T08:48:49.996Z</time></trkpt><trkpt lat="42.236438411373435" lon="13.873375976253428"><ele>461.3333333333333</ele><time>2026-05-02T08:48:50.996Z</time></trkpt><trkpt lat="42.23659073127269" lon="13.873412818184237"><ele>461.66666666666663</ele><time>2026-05-02T08:48:51.996Z</time></trkpt><trkpt lat="42.23675277593738" lon="13.873418550701908"><ele>462.0</ele><time>2026-05-02T08:48:52.996Z</time></trkpt><trkpt lat="42.23691696878564" lon="13.87341272055683"><ele>462.0</ele><time>2026-05-02T08:48:53.996Z</time></trkpt><trkpt lat="42.23705872190393" lon="13.873348748306492"><ele>462.0</ele><time>2026-05-02T08:48:54.996Z</time></trkpt><trkpt lat="42.23718217778437" lon="13.873265553191105"><ele>462.0</ele><time>2026-05-02T08:48:55.996Z</time></trkpt><trkpt lat="42.2373132273891" lon="13.8731711108149"><ele>462.0</ele><time>2026-05-02T08:48:56.996Z</time></trkpt><trkpt lat="42.23744570157237" lon="13.873056087289005"><ele>460.75</ele><time>2026-05-02T08:48:57.996Z</time></trkpt><trkpt lat="42.23758309231268" lon="13.872985940381481"><ele>459.5</ele><time>2026-05-02T08:48:58.996Z</time></trkpt><trkpt lat="42.23769224715918" lon="13.872889490132488"><ele>458.25</ele><time>2026-05-02T08:48:59.996Z</time></trkpt><trkpt lat="42.23777900507784" lon="13.872766584020745"><ele>457.0</ele><time>2026-05-02T08:49:00.996Z</time></trkpt><trkpt lat="42.237847885009124" lon="13.8725897750836"><ele>462.33333333333337</ele><time>2026-05-02T08:49:01.996Z</time></trkpt><trkpt lat="42.237890757690465" lon="13.872385456756577"><ele>467.66666666666663</ele><time>2026-05-02T08:49:02.996Z</time></trkpt><trkpt lat="42.23794577254467" lon="13.87217973326702"><ele>473.0</ele><time>2026-05-02T08:49:03.996Z</time></trkpt><trkpt lat="42.23801729591312" lon="13.871990444749914"><ele>473.0</ele><time>2026-05-02T08:49:04.996Z</time></trkpt><trkpt lat="42.238081357374895" lon="13.87181680068594"><ele>473.0</ele><time>2026-05-02T08:49:05.996Z</time></trkpt><trkpt lat="42.238148386988186" lon="13.871648642065534"><ele>473.0</ele><time>2026-05-02T08:49:06.996Z</time></trkpt><trkpt lat="42.23819348670175" lon="13.871491440776072"><ele>473.0</ele><time>2026-05-02T08:49:07.996Z</time></trkpt><trkpt lat="42.238282520938185" lon="13.8713380154271"><ele>473.25</ele><time>2026-05-02T08:49:08.996Z</time></trkpt><trkpt lat="42.23838259613975" lon="13.871214397745849"><ele>473.5</ele><time>2026-05-02T08:49:09.996Z</time></trkpt><trkpt lat="42.23847618338059" lon="13.871078524773337"><ele>473.75</ele><time>2026-05-02T08:49:10.996Z</time></trkpt><trkpt lat="42.238550848432894" lon="13.870943593714552"><ele>474.0</ele><time>2026-05-02T08:49:11.996Z</time></trkpt><trkpt lat="42.23862378693144" lon="13.870846740416377"><ele>476.6666666666667</ele><time>2026-05-02T08:49:12.996Z</time></trkpt><trkpt lat="42.238676290554615" lon="13.870780412956329"><ele>479.33333333333337</ele><time>2026-05-02T08:49:13.996Z</time></trkpt><trkpt lat="42.238748607460856" lon="13.870657408439955"><ele>482.0</ele><time>2026-05-02T08:49:15.996Z</time></trkpt><trkpt lat="42.23874661587174" lon="13.870562497526572"><ele>484.6666666666667</ele><time>2026-05-02T08:49:17.996Z</time></trkpt><trkpt lat="42.23866948173898" lon="13.870587532811118"><ele>487.33333333333337</ele><time>2026-05-02T08:49:19.996Z</time></trkpt><trkpt lat="42.23857856065803" lon="13.870603362450879"><ele>490.0</ele><time>2026-05-02T08:49:20.996Z</time></trkpt><trkpt lat="42.23846197689005" lon="13.870606498051142"><ele>490.0</ele><time>2026-05-02T08:49:21.996Z</time></trkpt><trkpt lat="42.23834315887583" lon="13.870625457632551"><ele>490.0</ele><time>2026-05-02T08:49:22.996Z</time></trkpt><trkpt lat="42.2382246936208" lon="13.870644360884203"><ele>490.0</ele><time>2026-05-02T08:49:23.996Z</time></trkpt><trkpt lat="42.23810288705777" lon="13.870668931619688"><ele>490.0</ele><time>2026-05-02T08:49:24.996Z</time></trkpt><trkpt lat="42.238002772896245" lon="13.870697347981315"><ele>489.33333333333337</ele><time>2026-05-02T08:49:25.996Z</time></trkpt><trkpt lat="42.237913451268845" lon="13.870745712062877"><ele>488.6666666666667</ele><time>2026-05-02T08:49:26.996Z</time></trkpt><trkpt lat="42.23783483633204" lon="13.870816444741914"><ele>488.0</ele><time>2026-05-02T08:49:27.996Z</time></trkpt><trkpt lat="42.237763182248415" lon="13.870882658006632"><ele>487.33333333333337</ele><time>2026-05-02T08:49:28.996Z</time></trkpt><trkpt lat="42.237691231511775" lon="13.870932297724224"><ele>486.6666666666667</ele><time>2026-05-02T08:49:29.996Z</time></trkpt><trkpt lat="42.23763228573914" lon="13.87096491571234"><ele>486.0</ele><time>2026-05-02T08:49:30.996Z</time></trkpt><trkpt lat="42.237563795917225" lon="13.87099421708102"><ele>488.8</ele><time>2026-05-02T08:49:31.996Z</time></trkpt><trkpt lat="42.23752538402608" lon="13.870876330025737"><ele>491.6</ele><time>2026-05-02T08:49:33.996Z</time></trkpt><trkpt lat="42.23755967192617" lon="13.870764994248061"><ele>494.4</ele><time>2026-05-02T08:49:34.996Z</time></trkpt><trkpt lat="42.23762762887617" lon="13.870671731833482"><ele>497.2</ele><time>2026-05-02T08:49:35.996Z</time></trkpt><trkpt lat="42.23768652789124" lon="13.870545473634152"><ele>500.0</ele><time>2026-05-02T08:49:36.996Z</time></trkpt><trkpt lat="42.23776752637946" lon="13.870425181889155"><ele>500.0</ele><time>2026-05-02T08:49:37.996Z</time></trkpt><trkpt lat="42.2378546179012" lon="13.87029828510285"><ele>500.0</ele><time>2026-05-02T08:49:38.996Z</time></trkpt><trkpt lat="42.237949249041094" lon="13.870211159588944"><ele>500.0</ele><time>2026-05-02T08:49:39.996Z</time></trkpt><trkpt lat="42.23801470350661" lon="13.870100258575402"><ele>500.0</ele><time>2026-05-02T08:49:40.996Z</time></trkpt><trkpt lat="42.23804171851969" lon="13.869999138699972"><ele>500.0</ele><time>2026-05-02T08:49:41.996Z</time></trkpt><trkpt lat="42.23803852764532" lon="13.869901014970749"><ele>503.0</ele><time>2026-05-02T08:49:43.996Z</time></trkpt><trkpt lat="42.237968062081826" lon="13.86979680624655"><ele>506.0</ele><time>2026-05-02T08:49:45.996Z</time></trkpt><trkpt lat="42.23786964162127" lon="13.869739837453302"><ele>509.0</ele><time>2026-05-02T08:49:46.996Z</time></trkpt><trkpt lat="42.237781721981854" lon="13.869681505614023"><ele>512.0</ele><time>2026-05-02T08:49:47.996Z</time></trkpt><trkpt lat="42.23768707374238" lon="13.86965805699656"><ele>515.0</ele><time>2026-05-02T08:49:48.996Z</time></trkpt><trkpt lat="42.237588075408816" lon="13.869615091175074"><ele>515.0</ele><time>2026-05-02T08:49:49.996Z</time></trkpt><trkpt lat="42.23748942203771" lon="13.869567893897493"><ele>515.0</ele><time>2026-05-02T08:49:50.996Z</time></trkpt><trkpt lat="42.2374351175868" lon="13.86947408992088"><ele>515.0</ele><time>2026-05-02T08:49:51.996Z</time></trkpt><trkpt lat="42.237346555805644" lon="13.869404757294772"><ele>515.0</ele><time>2026-05-02T08:49:52.996Z</time></trkpt><trkpt lat="42.237268777930204" lon="13.869371309450063"><ele>515.0</ele><time>2026-05-02T08:49:53.995Z</time></trkpt><trkpt lat="42.237189697268185" lon="13.86934145973457"><ele>514.75</ele><time>2026-05-02T08:49:54.995Z</time></trkpt><trkpt lat="42.23709444361804" lon="13.86929077181058"><ele>514.5</ele><time>2026-05-02T08:49:55.995Z</time></trkpt><trkpt lat="42.236981944957556" lon="13.869236715788505"><ele>514.25</ele><time>2026-05-02T08:49:56.995Z</time></trkpt><trkpt lat="42.236866708322424" lon="13.869181512946653"><ele>514.0</ele><time>2026-05-02T08:49:57.995Z</time></trkpt><trkpt lat="42.23674225330065" lon="13.869101474080356"><ele>517.5</ele><time>2026-05-02T08:49:58.995Z</time></trkpt><trkpt lat="42.23665358221163" lon="13.868983143980671"><ele>521.0</ele><time>2026-05-02T08:49:59.995Z</time></trkpt><trkpt lat="42.236545476972495" lon="13.868901379037872"><ele>524.5</ele><time>2026-05-02T08:50:00.995Z</time></trkpt><trkpt lat="42.236436738074026" lon="13.868812602343999"><ele>528.0</ele><time>2026-05-02T08:50:01.995Z</time></trkpt><trkpt lat="42.23632428388728" lon="13.868759429793837"><ele>528.0</ele><time>2026-05-02T08:50:02.995Z</time></trkpt><trkpt lat="42.23623272242255" lon="13.868694390005055"><ele>528.0</ele><time>2026-05-02T08:50:03.995Z</time></trkpt><trkpt lat="42.23618537518535" lon="13.868602631699028"><ele>528.0</ele><time>2026-05-02T08:50:04.995Z</time></trkpt><trkpt lat="42.23620536196881" lon="13.868521339916096"><ele>528.0</ele><time>2026-05-02T08:50:07.995Z</time></trkpt><trkpt lat="42.236284611023244" lon="13.868474836468259"><ele>528.0</ele><time>2026-05-02T08:50:08.995Z</time></trkpt><trkpt lat="42.23636206928318" lon="13.868438219552528"><ele>528.0</ele><time>2026-05-02T08:50:09.995Z</time></trkpt><trkpt lat="42.23645769299906" lon="13.86840071798995"><ele>532.4</ele><time>2026-05-02T08:50:10.995Z</time></trkpt><trkpt lat="42.23654762129941" lon="13.868374841624794"><ele>536.8</ele><time>2026-05-02T08:50:11.995Z</time></trkpt><trkpt lat="42.23664770445742" lon="13.868320027866732"><ele>541.2</ele><time>2026-05-02T08:50:12.995Z</time></trkpt><trkpt lat="42.23674427026315" lon="13.868254590248522"><ele>545.6</ele><time>2026-05-02T08:50:13.995Z</time></trkpt><trkpt lat="42.236851890203475" lon="13.86820642635134"><ele>550.0</ele><time>2026-05-02T08:50:14.995Z</time></trkpt><trkpt lat="42.236949901312244" lon="13.868163017965976"><ele>550.0</ele><time>2026-05-02T08:50:15.995Z</time></trkpt><trkpt lat="42.2370182560975" lon="13.868113744872376"><ele>550.0</ele><time>2026-05-02T08:50:16.995Z</time></trkpt><trkpt lat="42.23707033856685" lon="13.86806439378361"><ele>550.0</ele><time>2026-05-02T08:50:17.995Z</time></trkpt><trkpt lat="42.23711766602151" lon="13.86799693427487"><ele>550.0</ele><time>2026-05-02T08:50:33.995Z</time></trkpt><trkpt lat="42.237109664473635" lon="13.867895422671783"><ele>550.0</ele><time>2026-05-02T08:50:45.995Z</time></trkpt><trkpt lat="42.23709576129589" lon="13.867989325297039"><ele>550.0</ele><time>2026-05-02T08:50:54.995Z</time></trkpt><trkpt lat="42.237160210569286" lon="13.868053391445933"><ele>550.0</ele><time>2026-05-02T08:50:55.995Z</time></trkpt><trkpt lat="42.237124176650845" lon="13.86788544408147"><ele>550.0</ele><time>2026-05-02T08:53:11.999Z</time></trkpt><trkpt lat="42.23704164672261" lon="13.867855507672516"><ele>550.0</ele><time>2026-05-02T08:53:12.999Z</time></trkpt><trkpt lat="42.236955562935826" lon="13.867830145991553"><ele>550.0</ele><time>2026-05-02T08:53:13.999Z</time></trkpt><trkpt lat="42.236890461834804" lon="13.867780059313283"><ele>550.0</ele><time>2026-05-02T08:53:14.999Z</time></trkpt><trkpt lat="42.23683316395627" lon="13.867723751454966"><ele>550.0</ele><time>2026-05-02T08:53:15.999Z</time></trkpt><trkpt lat="42.236771901499374" lon="13.867664143017164"><ele>550.0</ele><time>2026-05-02T08:53:16.999Z</time></trkpt><trkpt lat="42.23668742420317" lon="13.86763357632664"><ele>551.4</ele><time>2026-05-02T08:53:17.998Z</time></trkpt><trkpt lat="42.23659259430227" lon="13.867564032959594"><ele>552.8</ele><time>2026-05-02T08:53:18.998Z</time></trkpt><trkpt lat="42.23651242973654" lon="13.867458641834174"><ele>554.2</ele><time>2026-05-02T08:53:19.998Z</time></trkpt><trkpt lat="42.23643828333352" lon="13.867327468275267"><ele>555.6</ele><time>2026-05-02T08:53:20.998Z</time></trkpt><trkpt lat="42.23638940882625" lon="13.867216364973832"><ele>557.0</ele><time>2026-05-02T08:53:21.998Z</time></trkpt><trkpt lat="42.236351288833205" lon="13.867118345064831"><ele>557.0</ele><time>2026-05-02T08:53:22.998Z</time></trkpt><trkpt lat="42.23632412101901" lon="13.8670368369703"><ele>557.0</ele><time>2026-05-02T08:53:23.998Z</time></trkpt><trkpt lat="42.236302821233366" lon="13.866954075072579"><ele>557.0</ele><time>2026-05-02T08:53:24.998Z</time></trkpt><trkpt lat="42.236169203856896" lon="13.866779547964239"><ele>557.0</ele><time>2026-05-02T08:53:26.998Z</time></trkpt><trkpt lat="42.236034681941575" lon="13.866721492157758"><ele>557.0</ele><time>2026-05-02T08:53:27.998Z</time></trkpt><trkpt lat="42.235904905843" lon="13.866727206541828"><ele>557.0</ele><time>2026-05-02T08:53:28.998Z</time></trkpt><trkpt lat="42.23578651644665" lon="13.866766474703462"><ele>557.0</ele><time>2026-05-02T08:53:29.998Z</time></trkpt><trkpt lat="42.235706984109704" lon="13.866793779168638"><ele>557.0</ele><time>2026-05-02T08:53:30.998Z</time></trkpt><trkpt lat="42.23565163352865" lon="13.866939951444522"><ele>556.0</ele><time>2026-05-02T08:53:32.998Z</time></trkpt><trkpt lat="42.23558125740448" lon="13.866837480993198"><ele>555.0</ele><time>2026-05-02T08:53:34.998Z</time></trkpt><trkpt lat="42.235659314381785" lon="13.86677473994603"><ele>554.0</ele><time>2026-05-02T08:53:36.998Z</time></trkpt><trkpt lat="42.23572938017228" lon="13.866763559753434"><ele>553.0</ele><time>2026-05-02T08:53:38.998Z</time></trkpt><trkpt lat="42.235615235022955" lon="13.866799656893544"><ele>552.0</ele><time>2026-05-02T08:53:42.998Z</time></trkpt><trkpt lat="42.2354438124378" lon="13.866815902457654"><ele>558.0</ele><time>2026-05-02T08:53:43.998Z</time></trkpt><trkpt lat="42.235342553886554" lon="13.866733054356622"><ele>564.0</ele><time>2026-05-02T08:53:44.998Z</time></trkpt><trkpt lat="42.23527969593925" lon="13.86656171530993"><ele>570.0</ele><time>2026-05-02T08:53:45.998Z</time></trkpt><trkpt lat="42.23526358805686" lon="13.866412398759255"><ele>576.0</ele><time>2026-05-02T08:53:46.998Z</time></trkpt><trkpt lat="42.2354404836814" lon="13.86611760683263"><ele>576.0</ele><time>2026-05-02T08:53:47.998Z</time></trkpt><trkpt lat="42.23522966700502" lon="13.866157307113319"><ele>576.0</ele><time>2026-05-02T08:53:48.998Z</time></trkpt><trkpt lat="42.23517605221239" lon="13.866047499864699"><ele>576.0</ele><time>2026-05-02T08:53:49.998Z</time></trkpt><trkpt lat="42.23511360419558" lon="13.865952431300585"><ele>576.0</ele><time>2026-05-02T08:53:50.998Z</time></trkpt><trkpt lat="42.23505396818448" lon="13.865866463470232"><ele>575.0</ele><time>2026-05-02T08:53:51.998Z</time></trkpt><trkpt lat="42.23500169012361" lon="13.865783369760303"><ele>574.0</ele><time>2026-05-02T08:53:52.998Z</time></trkpt><trkpt lat="42.234957800776634" lon="13.865689889556645"><ele>573.0</ele><time>2026-05-02T08:53:53.998Z</time></trkpt><trkpt lat="42.23489798103048" lon="13.865599651439014"><ele>572.0</ele><time>2026-05-02T08:53:54.998Z</time></trkpt><trkpt lat="42.23484336449332" lon="13.865479329100006"><ele>571.0</ele><time>2026-05-02T08:53:55.998Z</time></trkpt><trkpt lat="42.234765933067806" lon="13.865394267108668"><ele>571.0</ele><time>2026-05-02T08:53:56.998Z</time></trkpt><trkpt lat="42.234685550650326" lon="13.865312819071946"><ele>571.0</ele><time>2026-05-02T08:53:57.998Z</time></trkpt><trkpt lat="42.23461211472961" lon="13.865240694931124"><ele>571.0</ele><time>2026-05-02T08:53:58.998Z</time></trkpt><trkpt lat="42.234533577629485" lon="13.865155778674342"><ele>571.0</ele><time>2026-05-02T08:53:59.998Z</time></trkpt><trkpt lat="42.23446189750943" lon="13.865028399847718"><ele>571.0</ele><time>2026-05-02T08:54:00.998Z</time></trkpt><trkpt lat="42.23441619902023" lon="13.864908686945641"><ele>575.5</ele><time>2026-05-02T08:54:01.998Z</time></trkpt><trkpt lat="42.234362962959885" lon="13.86477549636619"><ele>580.0</ele><time>2026-05-02T08:54:02.998Z</time></trkpt><trkpt lat="42.23430996356784" lon="13.864642319611733"><ele>584.5</ele><time>2026-05-02T08:54:03.998Z</time></trkpt><trkpt lat="42.23424953505273" lon="13.864518836047871"><ele>589.0</ele><time>2026-05-02T08:54:04.998Z</time></trkpt><trkpt lat="42.234153086973585" lon="13.864398103480138"><ele>588.75</ele><time>2026-05-02T08:54:05.998Z</time></trkpt><trkpt lat="42.234097879938524" lon="13.864240299739869"><ele>588.5</ele><time>2026-05-02T08:54:06.998Z</time></trkpt><trkpt lat="42.23405222048034" lon="13.864095010530502"><ele>588.25</ele><time>2026-05-02T08:54:07.998Z</time></trkpt><trkpt lat="42.233978994250364" lon="13.863946337468013"><ele>588.0</ele><time>2026-05-02T08:54:08.998Z</time></trkpt><trkpt lat="42.23394634772019" lon="13.863815388202651"><ele>588.0</ele><time>2026-05-02T08:54:09.998Z</time></trkpt><trkpt lat="42.23391405498601" lon="13.863680376136948"><ele>588.0</ele><time>2026-05-02T08:54:10.998Z</time></trkpt><trkpt lat="42.23386194876472" lon="13.863541057736008"><ele>588.0</ele><time>2026-05-02T08:54:11.998Z</time></trkpt><trkpt lat="42.233801142869666" lon="13.863409658943326"><ele>588.0</ele><time>2026-05-02T08:54:12.998Z</time></trkpt><trkpt lat="42.23372550704813" lon="13.863284246083245"><ele>591.5</ele><time>2026-05-02T08:54:13.998Z</time></trkpt><trkpt lat="42.23362951185218" lon="13.863182296783359"><ele>595.0</ele><time>2026-05-02T08:54:14.998Z</time></trkpt><trkpt lat="42.2335548800841" lon="13.863051560722191"><ele>598.5</ele><time>2026-05-02T08:54:15.998Z</time></trkpt><trkpt lat="42.2334748997991" lon="13.862917505267063"><ele>602.0</ele><time>2026-05-02T08:54:16.998Z</time></trkpt><trkpt lat="42.23338379692704" lon="13.862807441031661"><ele>602.0</ele><time>2026-05-02T08:54:17.998Z</time></trkpt><trkpt lat="42.23328783145195" lon="13.862726861660645"><ele>602.0</ele><time>2026-05-02T08:54:18.998Z</time></trkpt><trkpt lat="42.233207690918704" lon="13.862646675715396"><ele>602.0</ele><time>2026-05-02T08:54:19.998Z</time></trkpt><trkpt lat="42.2331346268185" lon="13.862578323041207"><ele>602.0</ele><time>2026-05-02T08:54:20.998Z</time></trkpt><trkpt lat="42.23305659830927" lon="13.862508726701876"><ele>602.0</ele><time>2026-05-02T08:54:21.998Z</time></trkpt><trkpt lat="42.2330145374683" lon="13.862399718949447"><ele>602.0</ele><time>2026-05-02T08:54:22.998Z</time></trkpt><trkpt lat="42.232954748801305" lon="13.862290273941834"><ele>602.0</ele><time>2026-05-02T08:54:23.998Z</time></trkpt><trkpt lat="42.23290993828887" lon="13.862170428709886"><ele>602.0</ele><time>2026-05-02T08:54:24.998Z</time></trkpt><trkpt lat="42.23287029837835" lon="13.862041710814426"><ele>602.0</ele><time>2026-05-02T08:54:25.998Z</time></trkpt><trkpt lat="42.23279713223523" lon="13.861910285234533"><ele>602.0</ele><time>2026-05-02T08:54:26.998Z</time></trkpt><trkpt lat="42.23275977782612" lon="13.861783017040665"><ele>605.0</ele><time>2026-05-02T08:54:27.998Z</time></trkpt><trkpt lat="42.232731741442834" lon="13.861646607802168"><ele>608.0</ele><time>2026-05-02T08:54:28.998Z</time></trkpt><trkpt lat="42.232680887679614" lon="13.861518563096915"><ele>611.0</ele><time>2026-05-02T08:54:29.998Z</time></trkpt><trkpt lat="42.23264302720499" lon="13.861389223246661"><ele>614.0</ele><time>2026-05-02T08:54:30.998Z</time></trkpt><trkpt lat="42.23259272068477" lon="13.861280599542573"><ele>617.0</ele><time>2026-05-02T08:54:31.998Z</time></trkpt><trkpt lat="42.23254646746607" lon="13.861169756660411"><ele>617.0</ele><time>2026-05-02T08:54:32.998Z</time></trkpt><trkpt lat="42.232498479157165" lon="13.861048829902131"><ele>617.0</ele><time>2026-05-02T08:54:33.998Z</time></trkpt><trkpt lat="42.2324526039085" lon="13.860922682447233"><ele>617.0</ele><time>2026-05-02T08:54:34.998Z</time></trkpt><trkpt lat="42.2324237119505" lon="13.860795139513899"><ele>617.0</ele><time>2026-05-02T08:54:35.998Z</time></trkpt><trkpt lat="42.23239914128036" lon="13.860666539943171"><ele>617.0</ele><time>2026-05-02T08:54:36.998Z</time></trkpt><trkpt lat="42.23239776617491" lon="13.860544892733229"><ele>619.0</ele><time>2026-05-02T08:54:37.998Z</time></trkpt><trkpt lat="42.232407580366946" lon="13.860432789479924"><ele>621.0</ele><time>2026-05-02T08:54:38.998Z</time></trkpt><trkpt lat="42.232401887704555" lon="13.860328557486218"><ele>623.0</ele><time>2026-05-02T08:54:39.998Z</time></trkpt><trkpt lat="42.23249686794435" lon="13.860064699556009"><ele>625.0</ele><time>2026-05-02T08:54:41.998Z</time></trkpt><trkpt lat="42.23245090375261" lon="13.859990303974262"><ele>626.2</ele><time>2026-05-02T08:54:42.998Z</time></trkpt><trkpt lat="42.23236202235698" lon="13.859866717178761"><ele>627.4</ele><time>2026-05-02T08:54:43.997Z</time></trkpt><trkpt lat="42.23225726466018" lon="13.85982268393527"><ele>628.6</ele><time>2026-05-02T08:54:44.997Z</time></trkpt><trkpt lat="42.232141584070376" lon="13.85981680425274"><ele>629.8</ele><time>2026-05-02T08:54:45.997Z</time></trkpt><trkpt lat="42.23207273459166" lon="13.859838118857084"><ele>631.0</ele><time>2026-05-02T08:54:46.997Z</time></trkpt><trkpt lat="42.23200200150739" lon="13.859837997205274"><ele>631.75</ele><time>2026-05-02T08:54:47.997Z</time></trkpt><trkpt lat="42.231908939244846" lon="13.859811536434517"><ele>632.5</ele><time>2026-05-02T08:54:48.997Z</time></trkpt><trkpt lat="42.231812709016374" lon="13.859736257092239"><ele>633.25</ele><time>2026-05-02T08:54:49.997Z</time></trkpt><trkpt lat="42.23167308960058" lon="13.859727177849837"><ele>634.0</ele><time>2026-05-02T08:54:50.997Z</time></trkpt><trkpt lat="42.23155252132354" lon="13.859758348189409"><ele>636.0</ele><time>2026-05-02T08:54:51.997Z</time></trkpt><trkpt lat="42.231444459886724" lon="13.859807108078506"><ele>638.0</ele><time>2026-05-02T08:54:52.997Z</time></trkpt><trkpt lat="42.231349999703546" lon="13.859864073328646"><ele>640.0</ele><time>2026-05-02T08:54:53.997Z</time></trkpt><trkpt lat="42.231279495970234" lon="13.859909282791032"><ele>642.0</ele><time>2026-05-02T08:54:54.997Z</time></trkpt><trkpt lat="42.231175893808704" lon="13.859956957438426"><ele>644.0</ele><time>2026-05-02T08:54:56.997Z</time></trkpt><trkpt lat="42.23110307013981" lon="13.859997158928504"><ele>644.0</ele><time>2026-05-02T08:54:58.997Z</time></trkpt><trkpt lat="42.231012484465595" lon="13.859906568083426"><ele>644.0</ele><time>2026-05-02T08:55:00.997Z</time></trkpt><trkpt lat="42.23094536591985" lon="13.859793261292404"><ele>644.0</ele><time>2026-05-02T08:55:02.997Z</time></trkpt><trkpt lat="42.23092181212967" lon="13.85965349182722"><ele>644.0</ele><time>2026-05-02T08:55:03.997Z</time></trkpt><trkpt lat="42.2308559360819" lon="13.859596136665093"><ele>644.0</ele><time>2026-05-02T08:55:04.997Z</time></trkpt><trkpt lat="42.23073713657712" lon="13.859529689423185"><ele>644.0</ele><time>2026-05-02T08:55:06.997Z</time></trkpt><trkpt lat="42.23067243365987" lon="13.859493499006632"><ele>644.0</ele><time>2026-05-02T08:55:07.997Z</time></trkpt><trkpt lat="42.23060585839833" lon="13.859466579207862"><ele>644.0</ele><time>2026-05-02T08:55:08.997Z</time></trkpt><trkpt lat="42.23049558797412" lon="13.859396809055639"><ele>644.0</ele><time>2026-05-02T08:55:10.997Z</time></trkpt><trkpt lat="42.23042413412177" lon="13.859331087651123"><ele>644.0</ele><time>2026-05-02T08:55:11.997Z</time></trkpt><trkpt lat="42.23035188332057" lon="13.859244796632698"><ele>644.0</ele><time>2026-05-02T08:55:12.997Z</time></trkpt><trkpt lat="42.230286949779504" lon="13.859185673494851"><ele>648.5</ele><time>2026-05-02T08:55:13.997Z</time></trkpt><trkpt lat="42.230226284553865" lon="13.859139903177013"><ele>653.0</ele><time>2026-05-02T08:55:14.997Z</time></trkpt><trkpt lat="42.230146095037455" lon="13.859082659920935"><ele>657.5</ele><time>2026-05-02T08:55:33.997Z</time></trkpt><trkpt lat="42.229999418878705" lon="13.858998946939316"><ele>662.0</ele><time>2026-05-02T08:55:35.997Z</time></trkpt><trkpt lat="42.22985124011449" lon="13.858972095682631"><ele>664.75</ele><time>2026-05-02T08:55:37.997Z</time></trkpt><trkpt lat="42.229781517381795" lon="13.858954975036532"><ele>667.5</ele><time>2026-05-02T08:55:38.997Z</time></trkpt><trkpt lat="42.22971043628524" lon="13.858937520857785"><ele>670.25</ele><time>2026-05-02T08:55:39.997Z</time></trkpt><trkpt lat="42.229592744037724" lon="13.859224050185885"><ele>673.0</ele><time>2026-05-02T08:55:40.997Z</time></trkpt><trkpt lat="42.22952026071181" lon="13.859174955383184"><ele>673.0</ele><time>2026-05-02T08:55:41.997Z</time></trkpt><trkpt lat="42.22946539365398" lon="13.859126137081043"><ele>673.0</ele><time>2026-05-02T08:55:42.997Z</time></trkpt><trkpt lat="42.229401204889804" lon="13.859056925874382"><ele>673.0</ele><time>2026-05-02T08:55:44.997Z</time></trkpt><trkpt lat="42.22934025346318" lon="13.858964476046385"><ele>673.0</ele><time>2026-05-02T08:55:46.997Z</time></trkpt><trkpt lat="42.229272705980904" lon="13.858860554338083"><ele>673.0</ele><time>2026-05-02T08:55:48.997Z</time></trkpt><trkpt lat="42.22920151469755" lon="13.858730713546825"><ele>673.0</ele><time>2026-05-02T08:55:50.997Z</time></trkpt><trkpt lat="42.22915810102782" lon="13.85865110350713"><ele>673.0</ele><time>2026-05-02T08:55:51.997Z</time></trkpt><trkpt lat="42.22910396100436" lon="13.858558747601492"><ele>673.0</ele><time>2026-05-02T08:55:52.997Z</time></trkpt><trkpt lat="42.22904339846266" lon="13.858460418733742"><ele>673.0</ele><time>2026-05-02T08:55:53.997Z</time></trkpt><trkpt lat="42.2289924034197" lon="13.858360303507508"><ele>673.0</ele><time>2026-05-02T08:55:54.997Z</time></trkpt><trkpt lat="42.228957689271624" lon="13.85824341697782"><ele>673.0</ele><time>2026-05-02T08:55:55.997Z</time></trkpt><trkpt lat="42.2289321973456" lon="13.858156271303965"><ele>676.5</ele><time>2026-05-02T08:55:56.997Z</time></trkpt><trkpt lat="42.228890871057345" lon="13.858076045795192"><ele>680.0</ele><time>2026-05-02T08:55:57.997Z</time></trkpt><trkpt lat="42.22881626270853" lon="13.858003652893208"><ele>683.5</ele><time>2026-05-02T08:55:58.997Z</time></trkpt><trkpt lat="42.22875580413599" lon="13.857935528788953"><ele>687.0</ele><time>2026-05-02T08:55:59.997Z</time></trkpt><trkpt lat="42.22866636553587" lon="13.857853088795435"><ele>690.5</ele><time>2026-05-02T08:56:01.997Z</time></trkpt><trkpt lat="42.228579546544026" lon="13.85783028423976"><ele>694.0</ele><time>2026-05-02T08:56:03.997Z</time></trkpt><trkpt lat="42.22851721048209" lon="13.857847016212071"><ele>694.0</ele><time>2026-05-02T08:56:04.997Z</time></trkpt><trkpt lat="42.22845459593649" lon="13.85786713340616"><ele>694.0</ele><time>2026-05-02T08:56:05.996Z</time></trkpt><trkpt lat="42.22829729795962" lon="13.857796353067783"><ele>694.0</ele><time>2026-05-02T08:56:07.996Z</time></trkpt><trkpt lat="42.22819551966984" lon="13.857710298252206"><ele>694.0</ele><time>2026-05-02T08:56:08.996Z</time></trkpt><trkpt lat="42.228088789577114" lon="13.8576044964314"><ele>699.5</ele><time>2026-05-02T08:56:09.996Z</time></trkpt><trkpt lat="42.227992996115645" lon="13.85752292400567"><ele>705.0</ele><time>2026-05-02T08:56:10.996Z</time></trkpt><trkpt lat="42.227931137011545" lon="13.857461980351802"><ele>710.5</ele><time>2026-05-02T08:56:11.996Z</time></trkpt><trkpt lat="42.22788771083335" lon="13.85739599007129"><ele>716.0</ele><time>2026-05-02T08:56:12.996Z</time></trkpt><trkpt lat="42.22783951642288" lon="13.85732731809785"><ele>721.5</ele><time>2026-05-02T08:56:13.996Z</time></trkpt><trkpt lat="42.22778519448412" lon="13.857256310434611"><ele>727.0</ele><time>2026-05-02T08:56:14.996Z</time></trkpt><trkpt lat="42.22774099359065" lon="13.857189036458905"><ele>727.0</ele><time>2026-05-02T08:56:15.996Z</time></trkpt><trkpt lat="42.227700818703894" lon="13.857086647075008"><ele>727.0</ele><time>2026-05-02T08:56:16.996Z</time></trkpt><trkpt lat="42.22765950206955" lon="13.856983037209375"><ele>727.0</ele><time>2026-05-02T08:56:17.996Z</time></trkpt><trkpt lat="42.227628256882" lon="13.85690042832118"><ele>727.0</ele><time>2026-05-02T08:56:18.996Z</time></trkpt><trkpt lat="42.22754424207733" lon="13.85678523630083"><ele>727.0</ele><time>2026-05-02T08:56:20.996Z</time></trkpt><trkpt lat="42.22748209846721" lon="13.85676238859607"><ele>727.0</ele><time>2026-05-02T08:56:21.996Z</time></trkpt><trkpt lat="42.2274207288169" lon="13.856734757386194"><ele>732.2</ele><time>2026-05-02T08:56:22.996Z</time></trkpt><trkpt lat="42.227264886524154" lon="13.856735649193846"><ele>737.4000000000001</ele><time>2026-05-02T08:56:24.996Z</time></trkpt><trkpt lat="42.2271633806386" lon="13.856735887332668"><ele>742.5999999999999</ele><time>2026-05-02T08:56:25.996Z</time></trkpt><trkpt lat="42.22707463517196" lon="13.856718045329412"><ele>747.8</ele><time>2026-05-02T08:56:26.996Z</time></trkpt><trkpt lat="42.226993421722305" lon="13.85666935264456"><ele>753.0</ele><time>2026-05-02T08:56:27.996Z</time></trkpt><trkpt lat="42.22690259531295" lon="13.856597007987476"><ele>753.0</ele><time>2026-05-02T08:56:28.996Z</time></trkpt><trkpt lat="42.22681891501213" lon="13.856525843489393"><ele>753.0</ele><time>2026-05-02T08:56:29.996Z</time></trkpt><trkpt lat="42.226736119936035" lon="13.856457712345154"><ele>753.0</ele><time>2026-05-02T08:56:30.996Z</time></trkpt><trkpt lat="42.22668332591536" lon="13.856390908361506"><ele>753.0</ele><time>2026-05-02T08:56:31.996Z</time></trkpt><trkpt lat="42.22663045904104" lon="13.856297220459563"><ele>753.0</ele><time>2026-05-02T08:56:32.996Z</time></trkpt><trkpt lat="42.22658303786726" lon="13.85618557614377"><ele>753.0</ele><time>2026-05-02T08:56:33.996Z</time></trkpt><trkpt lat="42.22653433554633" lon="13.856072678942988"><ele>753.0</ele><time>2026-05-02T08:56:34.996Z</time></trkpt><trkpt lat="42.226489269971935" lon="13.855971772067464"><ele>753.0</ele><time>2026-05-02T08:56:35.996Z</time></trkpt><trkpt lat="42.226415695837765" lon="13.8558856095716"><ele>753.0</ele><time>2026-05-02T08:56:36.996Z</time></trkpt><trkpt lat="42.226345157260695" lon="13.855784343969484"><ele>753.0</ele><time>2026-05-02T08:56:37.996Z</time></trkpt><trkpt lat="42.22628186373095" lon="13.855687653508742"><ele>756.2</ele><time>2026-05-02T08:56:38.996Z</time></trkpt><trkpt lat="42.22621819389647" lon="13.855591029813016"><ele>759.4</ele><time>2026-05-02T08:56:39.996Z</time></trkpt><trkpt lat="42.22615684604636" lon="13.855511206156828"><ele>762.6</ele><time>2026-05-02T08:56:40.996Z</time></trkpt><trkpt lat="42.226086656229704" lon="13.855446092083396"><ele>765.8000000000001</ele><time>2026-05-02T08:56:41.996Z</time></trkpt><trkpt lat="42.226005840240084" lon="13.855387370529241"><ele>769.0</ele><time>2026-05-02T08:56:42.996Z</time></trkpt><trkpt lat="42.22592025702429" lon="13.8553292637933"><ele>768.9999999999999</ele><time>2026-05-02T08:56:43.996Z</time></trkpt><trkpt lat="42.225838062924076" lon="13.85528811606792"><ele>769.0</ele><time>2026-05-02T08:56:44.996Z</time></trkpt><trkpt lat="42.22576430607007" lon="13.855268698052997"><ele>769.0</ele><time>2026-05-02T08:56:45.996Z</time></trkpt><trkpt lat="42.2256945431879" lon="13.855260420280453"><ele>769.0</ele><time>2026-05-02T08:56:46.996Z</time></trkpt><trkpt lat="42.22559551365434" lon="13.855228856654517"><ele>768.9999999999999</ele><time>2026-05-02T08:56:48.996Z</time></trkpt><trkpt lat="42.225508680700564" lon="13.855198205015505"><ele>769.0</ele><time>2026-05-02T08:56:50.996Z</time></trkpt><trkpt lat="42.2254548456117" lon="13.855252001927557"><ele>771.3333333333333</ele><time>2026-05-02T08:56:56.996Z</time></trkpt><trkpt lat="42.22537844750483" lon="13.855243324800336"><ele>773.6666666666666</ele><time>2026-05-02T08:56:59.996Z</time></trkpt><trkpt lat="42.22549050262233" lon="13.855247497599704"><ele>776.0</ele><time>2026-05-02T08:59:43Z</time></trkpt><trkpt lat="42.225473323609265" lon="13.855165595232087"><ele>778.3333333333333</ele><time>2026-05-02T09:01:17.998Z</time></trkpt><trkpt lat="42.225461335850824" lon="13.855034573057278"><ele>780.6666666666666</ele><time>2026-05-02T09:01:25.997Z</time></trkpt><trkpt lat="42.225423610971006" lon="13.85495294013945"><ele>783.0</ele><time>2026-05-02T09:01:27.997Z</time></trkpt><trkpt lat="42.22538379954121" lon="13.854843509234192"><ele>783.0</ele><time>2026-05-02T09:01:30.997Z</time></trkpt><trkpt lat="42.22535857782438" lon="13.854744733878304"><ele>783.0</ele><time>2026-05-02T09:01:32.997Z</time></trkpt><trkpt lat="42.22530423938449" lon="13.854627579535064"><ele>783.0</ele><time>2026-05-02T09:01:34.997Z</time></trkpt><trkpt lat="42.22527917171952" lon="13.854499475410046"><ele>783.0</ele><time>2026-05-02T09:01:36.997Z</time></trkpt><trkpt lat="42.22525575847077" lon="13.85438734610606"><ele>783.0</ele><time>2026-05-02T09:01:41.997Z</time></trkpt><trkpt lat="42.22522542993936" lon="13.8542677353033"><ele>784.2</ele><time>2026-05-02T09:01:43.997Z</time></trkpt><trkpt lat="42.225193811578706" lon="13.854141495983763"><ele>785.4</ele><time>2026-05-02T09:01:45.997Z</time></trkpt><trkpt lat="42.22516687562663" lon="13.854013124777214"><ele>786.6</ele><time>2026-05-02T09:01:47.997Z</time></trkpt><trkpt lat="42.22514761872614" lon="13.853897897624352"><ele>787.8000000000001</ele><time>2026-05-02T09:01:48.997Z</time></trkpt><trkpt lat="42.22514426218932" lon="13.853791746988433"><ele>789.0</ele><time>2026-05-02T09:01:49.997Z</time></trkpt><trkpt lat="42.22513737372211" lon="13.85366779236271"><ele>789.0</ele><time>2026-05-02T09:01:50.997Z</time></trkpt><trkpt lat="42.22512377978819" lon="13.853543372819619"><ele>789.0</ele><time>2026-05-02T09:01:51.997Z</time></trkpt><trkpt lat="42.225111283875144" lon="13.853409061481585"><ele>789.0</ele><time>2026-05-02T09:01:52.997Z</time></trkpt><trkpt lat="42.22512001425608" lon="13.853308378779538"><ele>789.0</ele><time>2026-05-02T09:01:53.997Z</time></trkpt><trkpt lat="42.225146834480455" lon="13.853189997638289"><ele>789.0</ele><time>2026-05-02T09:01:54.997Z</time></trkpt><trkpt lat="42.22518564456966" lon="13.853082587660365"><ele>789.0</ele><time>2026-05-02T09:01:55.997Z</time></trkpt><trkpt lat="42.22522892058371" lon="13.852958044104415"><ele>789.2</ele><time>2026-05-02T09:01:56.997Z</time></trkpt><trkpt lat="42.22527978312905" lon="13.852844809583644"><ele>789.4000000000001</ele><time>2026-05-02T09:01:57.997Z</time></trkpt><trkpt lat="42.225344596160106" lon="13.852727445168938"><ele>789.6</ele><time>2026-05-02T09:01:58.997Z</time></trkpt><trkpt lat="42.22540828616892" lon="13.852634715090298"><ele>789.8</ele><time>2026-05-02T09:01:59.997Z</time></trkpt><trkpt lat="42.22547345168296" lon="13.852540219341739"><ele>790.0</ele><time>2026-05-02T09:02:00.997Z</time></trkpt><trkpt lat="42.22553148189034" lon="13.852452162642061"><ele>790.3333333333333</ele><time>2026-05-02T09:02:01.997Z</time></trkpt><trkpt lat="42.225570513937484" lon="13.852366177861137"><ele>790.6666666666666</ele><time>2026-05-02T09:02:02.997Z</time></trkpt><trkpt lat="42.22560381251696" lon="13.852259974470337"><ele>791.0</ele><time>2026-05-02T09:02:04.997Z</time></trkpt><trkpt lat="42.22561931152952" lon="13.852147754718926"><ele>791.3333333333333</ele><time>2026-05-02T09:02:06.997Z</time></trkpt><trkpt lat="42.22564866190737" lon="13.85201828147164"><ele>791.6666666666666</ele><time>2026-05-02T09:02:08.997Z</time></trkpt><trkpt lat="42.22566584667718" lon="13.851933781223945"><ele>792.0</ele><time>2026-05-02T09:02:09.997Z</time></trkpt><trkpt lat="42.225685407647006" lon="13.851833548861988"><ele>795.6666666666666</ele><time>2026-05-02T09:02:10.997Z</time></trkpt><trkpt lat="42.22569434750566" lon="13.851725624365491"><ele>799.3333333333333</ele><time>2026-05-02T09:02:11.997Z</time></trkpt><trkpt lat="42.2257071320181" lon="13.851612612868278"><ele>803.0</ele><time>2026-05-02T09:02:12.997Z</time></trkpt><trkpt lat="42.22572157160093" lon="13.851499962893046"><ele>806.6666666666666</ele><time>2026-05-02T09:02:13.997Z</time></trkpt><trkpt lat="42.22573460470586" lon="13.85138608310049"><ele>810.3333333333333</ele><time>2026-05-02T09:02:14.997Z</time></trkpt><trkpt lat="42.225739769847095" lon="13.851281282898501"><ele>814.0</ele><time>2026-05-02T09:02:15.997Z</time></trkpt><trkpt lat="42.22574662498077" lon="13.851188666331701"><ele>813.9999999999999</ele><time>2026-05-02T09:02:16.997Z</time></trkpt><trkpt lat="42.22575065354655" lon="13.851090226470804"><ele>814.0</ele><time>2026-05-02T09:02:17.997Z</time></trkpt><trkpt lat="42.22574745226256" lon="13.850983143826495"><ele>814.0</ele><time>2026-05-02T09:02:18.997Z</time></trkpt><trkpt lat="42.22574274795456" lon="13.850873495697414"><ele>814.0</ele><time>2026-05-02T09:02:19.997Z</time></trkpt><trkpt lat="42.225740648814536" lon="13.850752567294332"><ele>813.9999999999999</ele><time>2026-05-02T09:02:20.997Z</time></trkpt><trkpt lat="42.22573155882651" lon="13.850613833419224"><ele>814.0</ele><time>2026-05-02T09:02:21.997Z</time></trkpt><trkpt lat="42.22571283806931" lon="13.850461371696621"><ele>816.4000000000001</ele><time>2026-05-02T09:02:22.997Z</time></trkpt><trkpt lat="42.22569584350819" lon="13.850316348487505"><ele>818.8</ele><time>2026-05-02T09:02:23.997Z</time></trkpt><trkpt lat="42.22568711406056" lon="13.850168273821653"><ele>821.2</ele><time>2026-05-02T09:02:24.997Z</time></trkpt><trkpt lat="42.225678380765416" lon="13.850042313835495"><ele>823.5999999999999</ele><time>2026-05-02T09:02:25.997Z</time></trkpt><trkpt lat="42.22566295259037" lon="13.849927677411921"><ele>826.0</ele><time>2026-05-02T09:02:26.997Z</time></trkpt><trkpt lat="42.225643012212636" lon="13.849799948594297"><ele>827.9999999999999</ele><time>2026-05-02T09:02:27.997Z</time></trkpt><trkpt lat="42.22561371948988" lon="13.849667846246195"><ele>830.0</ele><time>2026-05-02T09:02:28.997Z</time></trkpt><trkpt lat="42.22559676444885" lon="13.849545547959837"><ele>832.0</ele><time>2026-05-02T09:02:29.997Z</time></trkpt><trkpt lat="42.2255951587708" lon="13.84943684373724"><ele>834.0</ele><time>2026-05-02T09:02:30.997Z</time></trkpt><trkpt lat="42.22562228307436" lon="13.849347827803816"><ele>835.9999999999999</ele><time>2026-05-02T09:02:31.997Z</time></trkpt><trkpt lat="42.225670835060875" lon="13.84929140519905"><ele>838.0</ele><time>2026-05-02T09:02:32.997Z</time></trkpt><trkpt lat="42.22578850696974" lon="13.849249356829711"><ele>845.4</ele><time>2026-05-02T09:02:34.997Z</time></trkpt><trkpt lat="42.22586439939867" lon="13.849235591026238"><ele>852.8</ele><time>2026-05-02T09:02:35.997Z</time></trkpt><trkpt lat="42.225941211493016" lon="13.849189311253093"><ele>860.2</ele><time>2026-05-02T09:02:36.997Z</time></trkpt><trkpt lat="42.226023118068184" lon="13.849137027208508"><ele>867.6</ele><time>2026-05-02T09:02:37.997Z</time></trkpt><trkpt lat="42.22612198987303" lon="13.849091602900952"><ele>875.0</ele><time>2026-05-02T09:02:38.997Z</time></trkpt><trkpt lat="42.22622426683597" lon="13.849065618521747"><ele>875.0</ele><time>2026-05-02T09:02:39.997Z</time></trkpt><trkpt lat="42.22635164205835" lon="13.849043150639096"><ele>875.0</ele><time>2026-05-02T09:02:40.997Z</time></trkpt><trkpt lat="42.22647092610911" lon="13.849029184847874"><ele>875.0</ele><time>2026-05-02T09:02:41.997Z</time></trkpt><trkpt lat="42.22660153287832" lon="13.849003864471138"><ele>875.0</ele><time>2026-05-02T09:02:42.997Z</time></trkpt><trkpt lat="42.22670691624616" lon="13.848971043118055"><ele>874.0</ele><time>2026-05-02T09:02:43.997Z</time></trkpt><trkpt lat="42.226798914163304" lon="13.848950824658544"><ele>873.0</ele><time>2026-05-02T09:02:44.997Z</time></trkpt><trkpt lat="42.226874673804254" lon="13.848941374477942"><ele>872.0</ele><time>2026-05-02T09:02:45.997Z</time></trkpt><trkpt lat="42.22695917993557" lon="13.848925032575067"><ele>871.0</ele><time>2026-05-02T09:02:46.997Z</time></trkpt><trkpt lat="42.227031101650496" lon="13.848903100475049"><ele>870.0</ele><time>2026-05-02T09:02:47.997Z</time></trkpt><trkpt lat="42.22715186669911" lon="13.848862777344465"><ele>870.0</ele><time>2026-05-02T09:02:49.997Z</time></trkpt><trkpt lat="42.2272298528105" lon="13.848840762384055"><ele>870.0</ele><time>2026-05-02T09:02:50.997Z</time></trkpt><trkpt lat="42.22730872560694" lon="13.848816135457405"><ele>870.0</ele><time>2026-05-02T09:02:51.997Z</time></trkpt><trkpt lat="42.22739108930115" lon="13.84879302095718"><ele>870.0</ele><time>2026-05-02T09:02:52.997Z</time></trkpt><trkpt lat="42.22747339129542" lon="13.848777875697191"><ele>870.0</ele><time>2026-05-02T09:02:53.997Z</time></trkpt><trkpt lat="42.22755458613959" lon="13.848767940601284"><ele>870.0</ele><time>2026-05-02T09:02:54.997Z</time></trkpt><trkpt lat="42.22763868957827" lon="13.848792273042974"><ele>868.2</ele><time>2026-05-02T09:02:55.997Z</time></trkpt><trkpt lat="42.22772068250072" lon="13.8488273634941"><ele>866.4</ele><time>2026-05-02T09:02:56.997Z</time></trkpt><trkpt lat="42.22780722720679" lon="13.848860463837571"><ele>864.5999999999999</ele><time>2026-05-02T09:02:57.997Z</time></trkpt><trkpt lat="42.227903968850526" lon="13.848895807475827"><ele>862.8</ele><time>2026-05-02T09:02:58.997Z</time></trkpt><trkpt lat="42.22800330599362" lon="13.84893719322132"><ele>861.0</ele><time>2026-05-02T09:02:59.997Z</time></trkpt><trkpt lat="42.2281050733419" lon="13.848963073756966"><ele>862.6666666666666</ele><time>2026-05-02T09:03:00.997Z</time></trkpt><trkpt lat="42.22820969058063" lon="13.84898712605291"><ele>864.3333333333333</ele><time>2026-05-02T09:03:01.996Z</time></trkpt><trkpt lat="42.22830081512099" lon="13.849007604111684"><ele>866.0</ele><time>2026-05-02T09:03:02.996Z</time></trkpt><trkpt lat="42.228365373116645" lon="13.84901181226117"><ele>867.6666666666666</ele><time>2026-05-02T09:03:03.996Z</time></trkpt><trkpt lat="42.22842832814792" lon="13.848985067144941"><ele>869.3333333333333</ele><time>2026-05-02T09:03:04.996Z</time></trkpt><trkpt lat="42.22849893305356" lon="13.84894642277822"><ele>871.0</ele><time>2026-05-02T09:03:05.996Z</time></trkpt><trkpt lat="42.228606024089046" lon="13.848919627581964"><ele>871.0</ele><time>2026-05-02T09:03:06.996Z</time></trkpt><trkpt lat="42.22869507294731" lon="13.848909015054065"><ele>870.9999999999999</ele><time>2026-05-02T09:03:07.996Z</time></trkpt><trkpt lat="42.22878883157604" lon="13.848930881321731"><ele>870.9999999999999</ele><time>2026-05-02T09:03:08.996Z</time></trkpt><trkpt lat="42.22888173047593" lon="13.849042519660491"><ele>871.0</ele><time>2026-05-02T09:03:09.996Z</time></trkpt><trkpt lat="42.22899194025313" lon="13.849138597866732"><ele>871.0</ele><time>2026-05-02T09:03:10.996Z</time></trkpt><trkpt lat="42.229119255315766" lon="13.849203791424618"><ele>873.75</ele><time>2026-05-02T09:03:11.996Z</time></trkpt><trkpt lat="42.229252012181824" lon="13.849279198249123"><ele>876.5</ele><time>2026-05-02T09:03:12.996Z</time></trkpt><trkpt lat="42.22936886625324" lon="13.849361836306542"><ele>879.25</ele><time>2026-05-02T09:03:13.996Z</time></trkpt><trkpt lat="42.229447269542824" lon="13.849421446082927"><ele>882.0</ele><time>2026-05-02T09:03:14.996Z</time></trkpt><trkpt lat="42.229548675763745" lon="13.84938715167164"><ele>882.0</ele><time>2026-05-02T09:03:16.996Z</time></trkpt><trkpt lat="42.22966974836918" lon="13.849301051656996"><ele>882.0</ele><time>2026-05-02T09:03:18.996Z</time></trkpt><trkpt lat="42.22973767145101" lon="13.849244683159673"><ele>882.0</ele><time>2026-05-02T09:03:19.996Z</time></trkpt><trkpt lat="42.229808980432416" lon="13.849179841679627"><ele>882.0</ele><time>2026-05-02T09:03:20.996Z</time></trkpt><trkpt lat="42.22987884697404" lon="13.849136856526147"><ele>882.0</ele><time>2026-05-02T09:03:21.996Z</time></trkpt><trkpt lat="42.229940575088406" lon="13.84910360615855"><ele>882.0</ele><time>2026-05-02T09:03:22.996Z</time></trkpt><trkpt lat="42.23003147363652" lon="13.84909531581283"><ele>882.8</ele><time>2026-05-02T09:03:23.996Z</time></trkpt><trkpt lat="42.23011944892436" lon="13.849076284060164"><ele>883.6</ele><time>2026-05-02T09:03:24.996Z</time></trkpt><trkpt lat="42.23020653947825" lon="13.84902458342763"><ele>884.3999999999999</ele><time>2026-05-02T09:03:25.996Z</time></trkpt><trkpt lat="42.230317677684944" lon="13.84896160154016"><ele>885.1999999999999</ele><time>2026-05-02T09:03:26.996Z</time></trkpt><trkpt lat="42.2304278995664" lon="13.848912698207897"><ele>886.0</ele><time>2026-05-02T09:03:27.996Z</time></trkpt><trkpt lat="42.23054409441681" lon="13.848862314670004"><ele>886.0</ele><time>2026-05-02T09:03:28.996Z</time></trkpt><trkpt lat="42.23067591232856" lon="13.848818861678158"><ele>886.0</ele><time>2026-05-02T09:03:29.996Z</time></trkpt><trkpt lat="42.23081636357756" lon="13.848753500379026"><ele>886.0</ele><time>2026-05-02T09:03:30.996Z</time></trkpt><trkpt lat="42.23093825669091" lon="13.848694099777541"><ele>886.0</ele><time>2026-05-02T09:03:31.996Z</time></trkpt><trkpt lat="42.23106032708623" lon="13.84862747675788"><ele>886.0</ele><time>2026-05-02T09:03:32.996Z</time></trkpt><trkpt lat="42.231179359161295" lon="13.848565995431109"><ele>885.9999999999999</ele><time>2026-05-02T09:03:33.996Z</time></trkpt><trkpt lat="42.231292351604154" lon="13.848519774726794"><ele>885.9999999999999</ele><time>2026-05-02T09:03:34.996Z</time></trkpt><trkpt lat="42.23137853296245" lon="13.848492878899545"><ele>886.0</ele><time>2026-05-02T09:03:35.996Z</time></trkpt><trkpt lat="42.231480583432806" lon="13.848474804856217"><ele>886.0</ele><time>2026-05-02T09:03:36.996Z</time></trkpt><trkpt lat="42.2315725312735" lon="13.848461923397776"><ele>890.0</ele><time>2026-05-02T09:03:37.996Z</time></trkpt><trkpt lat="42.23168034613211" lon="13.848443326663716"><ele>893.9999999999999</ele><time>2026-05-02T09:03:38.996Z</time></trkpt><trkpt lat="42.231775406154526" lon="13.848429385672713"><ele>897.9999999999999</ele><time>2026-05-02T09:03:39.996Z</time></trkpt><trkpt lat="42.23187097764994" lon="13.848391782044578"><ele>902.0</ele><time>2026-05-02T09:03:40.996Z</time></trkpt><trkpt lat="42.23195836173014" lon="13.848321235644876"><ele>906.0</ele><time>2026-05-02T09:03:41.996Z</time></trkpt><trkpt lat="42.232016430162815" lon="13.848240232665987"><ele>906.0</ele><time>2026-05-02T09:03:42.996Z</time></trkpt><trkpt lat="42.23207849076202" lon="13.848162990482155"><ele>905.9999999999999</ele><time>2026-05-02T09:03:43.996Z</time></trkpt><trkpt lat="42.232146006857874" lon="13.84811318499159"><ele>905.9999999999999</ele><time>2026-05-02T09:03:44.996Z</time></trkpt><trkpt lat="42.23228227171421" lon="13.848069128135277"><ele>906.0</ele><time>2026-05-02T09:03:46.996Z</time></trkpt><trkpt lat="42.23236537622338" lon="13.848080547922244"><ele>906.0</ele><time>2026-05-02T09:03:47.996Z</time></trkpt><trkpt lat="42.23245260840512" lon="13.848095696678328"><ele>905.8</ele><time>2026-05-02T09:03:48.996Z</time></trkpt><trkpt lat="42.23253302876719" lon="13.84810807321168"><ele>905.5999999999999</ele><time>2026-05-02T09:03:50.996Z</time></trkpt><trkpt lat="42.23256308233557" lon="13.8480319798988"><ele>905.4</ele><time>2026-05-02T09:03:58.996Z</time></trkpt><trkpt lat="42.23245439041834" lon="13.847946602215023"><ele>905.2</ele><time>2026-05-02T09:04:00.996Z</time></trkpt><trkpt lat="42.232381830767395" lon="13.847880794559746"><ele>905.0</ele><time>2026-05-02T09:04:01.996Z</time></trkpt><trkpt lat="42.23233734293268" lon="13.8477150705685"><ele>905.25</ele><time>2026-05-02T09:04:02.996Z</time></trkpt><trkpt lat="42.23224026918854" lon="13.847653737082545"><ele>905.5</ele><time>2026-05-02T09:04:03.996Z</time></trkpt><trkpt lat="42.23213636594939" lon="13.847586671165862"><ele>905.75</ele><time>2026-05-02T09:04:04.996Z</time></trkpt><trkpt lat="42.232032206438575" lon="13.847486868721926"><ele>906.0</ele><time>2026-05-02T09:04:05.996Z</time></trkpt><trkpt lat="42.231901411962" lon="13.847451682401966"><ele>910.1666666666666</ele><time>2026-05-02T09:04:06.996Z</time></trkpt><trkpt lat="42.23181030328713" lon="13.847398834042524"><ele>914.3333333333333</ele><time>2026-05-02T09:04:07.996Z</time></trkpt><trkpt lat="42.23174226847077" lon="13.847375526413002"><ele>918.5</ele><time>2026-05-02T09:04:08.996Z</time></trkpt><trkpt lat="42.231663311514424" lon="13.847351988349923"><ele>922.6666666666666</ele><time>2026-05-02T09:04:09.996Z</time></trkpt><trkpt lat="42.2315808893335" lon="13.847318743653474"><ele>926.8333333333333</ele><time>2026-05-02T09:04:10.996Z</time></trkpt><trkpt lat="42.23148818878483" lon="13.847291436437049"><ele>931.0</ele><time>2026-05-02T09:04:11.996Z</time></trkpt><trkpt lat="42.23140208465446" lon="13.847220650199256"><ele>931.0</ele><time>2026-05-02T09:04:12.996Z</time></trkpt><trkpt lat="42.23133516747689" lon="13.847134881328065"><ele>930.9999999999999</ele><time>2026-05-02T09:04:13.996Z</time></trkpt><trkpt lat="42.23126867655768" lon="13.847061868126515"><ele>930.9999999999999</ele><time>2026-05-02T09:04:14.996Z</time></trkpt><trkpt lat="42.23118679355844" lon="13.84700876563151"><ele>931.0</ele><time>2026-05-02T09:04:15.996Z</time></trkpt><trkpt lat="42.231094387878784" lon="13.846978231861408"><ele>931.0</ele><time>2026-05-02T09:04:16.996Z</time></trkpt><trkpt lat="42.2310025330323" lon="13.846961597514932"><ele>931.0</ele><time>2026-05-02T09:04:17.996Z</time></trkpt><trkpt lat="42.23092641702477" lon="13.846966550739838"><ele>930.9999999999999</ele><time>2026-05-02T09:04:18.996Z</time></trkpt><trkpt lat="42.230816998266725" lon="13.84699296240109"><ele>930.9999999999999</ele><time>2026-05-02T09:04:19.996Z</time></trkpt><trkpt lat="42.230703675098226" lon="13.847032455440974"><ele>931.0</ele><time>2026-05-02T09:04:20.996Z</time></trkpt><trkpt lat="42.23057703816361" lon="13.847063043534497"><ele>931.0</ele><time>2026-05-02T09:04:21.996Z</time></trkpt><trkpt lat="42.2304424009192" lon="13.84709806207154"><ele>931.75</ele><time>2026-05-02T09:04:22.996Z</time></trkpt><trkpt lat="42.23031028974301" lon="13.84714107819658"><ele>932.5</ele><time>2026-05-02T09:04:23.996Z</time></trkpt><trkpt lat="42.23016956306198" lon="13.847200087521298"><ele>933.25</ele><time>2026-05-02T09:04:24.996Z</time></trkpt><trkpt lat="42.23001574864987" lon="13.847268733892962"><ele>934.0</ele><time>2026-05-02T09:04:25.996Z</time></trkpt><trkpt lat="42.22985062245878" lon="13.8472734872379"><ele>935.5</ele><time>2026-05-02T09:04:26.996Z</time></trkpt><trkpt lat="42.22971970229783" lon="13.847336160578534"><ele>937.0</ele><time>2026-05-02T09:04:27.996Z</time></trkpt><trkpt lat="42.22960347332551" lon="13.847391801087056"><ele>938.5</ele><time>2026-05-02T09:04:28.996Z</time></trkpt><trkpt lat="42.22950364510248" lon="13.847459728258928"><ele>940.0</ele><time>2026-05-02T09:04:29.996Z</time></trkpt><trkpt lat="42.22938752923068" lon="13.84748894298367"><ele>940.0</ele><time>2026-05-02T09:04:30.996Z</time></trkpt><trkpt lat="42.22927305775041" lon="13.847530024263666"><ele>940.0</ele><time>2026-05-02T09:04:31.996Z</time></trkpt><trkpt lat="42.22915956507481" lon="13.84757710660841"><ele>940.0</ele><time>2026-05-02T09:04:32.996Z</time></trkpt><trkpt lat="42.22904144856304" lon="13.847597791252545"><ele>940.0</ele><time>2026-05-02T09:04:33.996Z</time></trkpt><trkpt lat="42.22892787096944" lon="13.847621698563769"><ele>941.4</ele><time>2026-05-02T09:04:34.996Z</time></trkpt><trkpt lat="42.228814262527756" lon="13.847623921964034"><ele>942.8</ele><time>2026-05-02T09:04:35.996Z</time></trkpt><trkpt lat="42.22870704445684" lon="13.847657826181099"><ele>944.2</ele><time>2026-05-02T09:04:36.996Z</time></trkpt><trkpt lat="42.228600193191085" lon="13.847691011821654"><ele>945.6</ele><time>2026-05-02T09:04:37.996Z</time></trkpt><trkpt lat="42.228488666701466" lon="13.847718325501093"><ele>947.0</ele><time>2026-05-02T09:04:38.995Z</time></trkpt><trkpt lat="42.22838017665772" lon="13.847737709866891"><ele>938.8</ele><time>2026-05-02T09:04:39.995Z</time></trkpt><trkpt lat="42.228273708696534" lon="13.847749165074173"><ele>930.6</ele><time>2026-05-02T09:04:40.995Z</time></trkpt><trkpt lat="42.228172604508686" lon="13.847757698825419"><ele>922.3999999999999</ele><time>2026-05-02T09:04:41.995Z</time></trkpt><trkpt lat="42.228081943119825" lon="13.847761362823231"><ele>914.1999999999999</ele><time>2026-05-02T09:04:42.995Z</time></trkpt><trkpt lat="42.22799304984128" lon="13.847763654964991"><ele>906.0</ele><time>2026-05-02T09:04:43.995Z</time></trkpt><trkpt lat="42.22789788945738" lon="13.847776144893807"><ele>904.8</ele><time>2026-05-02T09:04:44.995Z</time></trkpt><trkpt lat="42.22779703492828" lon="13.847747089506528"><ele>903.5999999999999</ele><time>2026-05-02T09:04:45.995Z</time></trkpt><trkpt lat="42.22770033738277" lon="13.847727255674865"><ele>902.4</ele><time>2026-05-02T09:04:46.995Z</time></trkpt><trkpt lat="42.22761302478545" lon="13.847737185928658"><ele>901.2</ele><time>2026-05-02T09:04:47.995Z</time></trkpt><trkpt lat="42.22750109079077" lon="13.84775631115645"><ele>900.0</ele><time>2026-05-02T09:04:48.995Z</time></trkpt><trkpt lat="42.227402240543164" lon="13.8477534050296"><ele>900.75</ele><time>2026-05-02T09:04:49.995Z</time></trkpt><trkpt lat="42.22729062233474" lon="13.847750104226554"><ele>901.5</ele><time>2026-05-02T09:04:50.995Z</time></trkpt><trkpt lat="42.22716526245951" lon="13.847746397048448"><ele>902.25</ele><time>2026-05-02T09:04:51.995Z</time></trkpt><trkpt lat="42.22703013872409" lon="13.847744621718856"><ele>903.0</ele><time>2026-05-02T09:04:52.995Z</time></trkpt><trkpt lat="42.22688579934505" lon="13.847743276823682"><ele>903.0</ele><time>2026-05-02T09:04:53.995Z</time></trkpt><trkpt lat="42.2267447613925" lon="13.847743659327644"><ele>903.0</ele><time>2026-05-02T09:04:54.995Z</time></trkpt><trkpt lat="42.22660022228897" lon="13.847744051327"><ele>903.0</ele><time>2026-05-02T09:04:55.995Z</time></trkpt><trkpt lat="42.22645290244338" lon="13.847744450868499"><ele>903.0</ele><time>2026-05-02T09:04:56.995Z</time></trkpt><trkpt lat="42.226309548494946" lon="13.847747214320632"><ele>903.5</ele><time>2026-05-02T09:04:57.995Z</time></trkpt><trkpt lat="42.22618402865275" lon="13.847750593207696"><ele>904.0</ele><time>2026-05-02T09:04:58.995Z</time></trkpt><trkpt lat="42.22606427896336" lon="13.847753411136408"><ele>904.5</ele><time>2026-05-02T09:04:59.995Z</time></trkpt><trkpt lat="42.22594600792167" lon="13.847752698472586"><ele>905.0</ele><time>2026-05-02T09:05:00.995Z</time></trkpt><trkpt lat="42.22581561475031" lon="13.84775119647821"><ele>905.0</ele><time>2026-05-02T09:05:01.995Z</time></trkpt><trkpt lat="42.22570948146358" lon="13.847740402293091"><ele>905.0</ele><time>2026-05-02T09:05:02.995Z</time></trkpt><trkpt lat="42.225593182048875" lon="13.847711641053982"><ele>905.0</ele><time>2026-05-02T09:05:03.995Z</time></trkpt><trkpt lat="42.22546824112228" lon="13.847664822696943"><ele>905.0</ele><time>2026-05-02T09:05:04.995Z</time></trkpt><trkpt lat="42.22535004712777" lon="13.84756213112165"><ele>908.0</ele><time>2026-05-02T09:05:05.995Z</time></trkpt><trkpt lat="42.22521558426726" lon="13.847489557200522"><ele>911.0</ele><time>2026-05-02T09:05:06.995Z</time></trkpt><trkpt lat="42.225096168571376" lon="13.847444825644503"><ele>914.0</ele><time>2026-05-02T09:05:07.995Z</time></trkpt><trkpt lat="42.22500361378868" lon="13.847418744547827"><ele>917.0</ele><time>2026-05-02T09:05:08.995Z</time></trkpt><trkpt lat="42.224926521871055" lon="13.847398729137803"><ele>920.0</ele><time>2026-05-02T09:05:09.995Z</time></trkpt><trkpt lat="42.224826402702355" lon="13.847408559992537"><ele>915.25</ele><time>2026-05-02T09:05:10.995Z</time></trkpt><trkpt lat="42.224746843894515" lon="13.847342348586153"><ele>910.5</ele><time>2026-05-02T09:05:11.995Z</time></trkpt><trkpt lat="42.22468198110957" lon="13.847202230329799"><ele>905.75</ele><time>2026-05-02T09:05:12.995Z</time></trkpt><trkpt lat="42.2246641530958" lon="13.84706170101344"><ele>901.0</ele><time>2026-05-02T09:05:13.995Z</time></trkpt><trkpt lat="42.22466717584392" lon="13.846875011067597"><ele>904.8</ele><time>2026-05-02T09:05:14.995Z</time></trkpt><trkpt lat="42.22471035717254" lon="13.84673106910967"><ele>908.5999999999999</ele><time>2026-05-02T09:05:15.995Z</time></trkpt><trkpt lat="42.224760419901074" lon="13.846630288844858"><ele>912.4</ele><time>2026-05-02T09:05:16.995Z</time></trkpt><trkpt lat="42.22482270853043" lon="13.846518224699636"><ele>916.2</ele><time>2026-05-02T09:05:17.995Z</time></trkpt><trkpt lat="42.22490752169133" lon="13.846385488755935"><ele>920.0</ele><time>2026-05-02T09:05:18.995Z</time></trkpt><trkpt lat="42.22499484486274" lon="13.846272850458226"><ele>924.25</ele><time>2026-05-02T09:05:19.995Z</time></trkpt><trkpt lat="42.225082659278904" lon="13.846168761573441"><ele>928.5</ele><time>2026-05-02T09:05:20.995Z</time></trkpt><trkpt lat="42.22518769163456" lon="13.846064751976702"><ele>932.75</ele><time>2026-05-02T09:05:21.995Z</time></trkpt><trkpt lat="42.22529068928233" lon="13.845984326870246"><ele>937.0</ele><time>2026-05-02T09:05:22.998Z</time></trkpt><trkpt lat="42.22539690606376" lon="13.845917564003901"><ele>939.2</ele><time>2026-05-02T09:05:23.998Z</time></trkpt><trkpt lat="42.225499484503445" lon="13.84586609885532"><ele>941.4000000000001</ele><time>2026-05-02T09:05:24.998Z</time></trkpt><trkpt lat="42.225594188215354" lon="13.845786521943246"><ele>943.5999999999999</ele><time>2026-05-02T09:05:25.998Z</time></trkpt><trkpt lat="42.22569107089711" lon="13.845705869607608"><ele>945.8</ele><time>2026-05-02T09:05:26.998Z</time></trkpt><trkpt lat="42.22578754360379" lon="13.845622258373828"><ele>948.0</ele><time>2026-05-02T09:05:27.998Z</time></trkpt><trkpt lat="42.22589234433193" lon="13.845542195947107"><ele>948.5</ele><time>2026-05-02T09:05:28.999Z</time></trkpt><trkpt lat="42.22601095869658" lon="13.84546131796785"><ele>949.0</ele><time>2026-05-02T09:05:29.999Z</time></trkpt><trkpt lat="42.226117750337664" lon="13.845366111230211"><ele>949.5</ele><time>2026-05-02T09:05:30.999Z</time></trkpt><trkpt lat="42.22621667497844" lon="13.845273624267515"><ele>950.0</ele><time>2026-05-02T09:05:31.999Z</time></trkpt><trkpt lat="42.22631111537579" lon="13.845181517572062"><ele>953.5</ele><time>2026-05-02T09:05:32.999Z</time></trkpt><trkpt lat="42.226406815240956" lon="13.845087614652162"><ele>957.0</ele><time>2026-05-02T09:05:33.999Z</time></trkpt><trkpt lat="42.226503891551246" lon="13.844992649965498"><ele>960.5</ele><time>2026-05-02T09:05:34.999Z</time></trkpt><trkpt lat="42.2266062205588" lon="13.844895237256491"><ele>964.0</ele><time>2026-05-02T09:05:35.999Z</time></trkpt><trkpt lat="42.22671992192245" lon="13.84479324585037"><ele>964.0</ele><time>2026-05-02T09:05:36.999Z</time></trkpt><trkpt lat="42.22684302227663" lon="13.844690479767241"><ele>964.0</ele><time>2026-05-02T09:05:37.999Z</time></trkpt><trkpt lat="42.22696673616738" lon="13.844588521457394"><ele>964.0</ele><time>2026-05-02T09:05:38.999Z</time></trkpt><trkpt lat="42.2270857964775" lon="13.844490828448942"><ele>964.0</ele><time>2026-05-02T09:05:39.999Z</time></trkpt><trkpt lat="42.22720568475166" lon="13.844393448573301"><ele>965.2</ele><time>2026-05-02T09:05:40.999Z</time></trkpt><trkpt lat="42.227317704186596" lon="13.84430367515993"><ele>966.4000000000001</ele><time>2026-05-02T09:05:41.999Z</time></trkpt><trkpt lat="42.227415046639834" lon="13.844229859192936"><ele>967.6</ele><time>2026-05-02T09:05:42.999Z</time></trkpt><trkpt lat="42.2274927513283" lon="13.8441751356484"><ele>968.8</ele><time>2026-05-02T09:05:43.999Z</time></trkpt><trkpt lat="42.22756524637034" lon="13.844119460684169"><ele>970.0</ele><time>2026-05-02T09:05:44.999Z</time></trkpt><trkpt lat="42.227631638786484" lon="13.84404993354126"><ele>971.8</ele><time>2026-05-02T09:05:45.999Z</time></trkpt><trkpt lat="42.2276768978036" lon="13.84392465453069"><ele>973.6</ele><time>2026-05-02T09:05:46.999Z</time></trkpt><trkpt lat="42.22765410724737" lon="13.843824119833466"><ele>975.4000000000001</ele><time>2026-05-02T09:05:47.999Z</time></trkpt><trkpt lat="42.22760455146043" lon="13.843763307609198"><ele>977.2</ele><time>2026-05-02T09:05:48.999Z</time></trkpt><trkpt lat="42.22747897140271" lon="13.84374378192075"><ele>979.0</ele><time>2026-05-02T09:05:50.999Z</time></trkpt><trkpt lat="42.22740254711205" lon="13.843761181986244"><ele>978.9999999999999</ele><time>2026-05-02T09:05:51.999Z</time></trkpt><trkpt lat="42.227323779969495" lon="13.843780441705489"><ele>979.0</ele><time>2026-05-02T09:05:52.999Z</time></trkpt><trkpt lat="42.227237225157545" lon="13.843799935932667"><ele>979.0</ele><time>2026-05-02T09:05:53.999Z</time></trkpt><trkpt lat="42.22714744505938" lon="13.843802629118342"><ele>979.0</ele><time>2026-05-02T09:05:54.999Z</time></trkpt><trkpt lat="42.22705916741484" lon="13.84380675358718"><ele>978.9999999999999</ele><time>2026-05-02T09:05:55.999Z</time></trkpt><trkpt lat="42.226977043715266" lon="13.843783926014892"><ele>979.0</ele><time>2026-05-02T09:05:56.999Z</time></trkpt><trkpt lat="42.22690369264443" lon="13.843778712450858"><ele>980.2</ele><time>2026-05-02T09:05:57.999Z</time></trkpt><trkpt lat="42.226838106818896" lon="13.843777101789382"><ele>981.4000000000001</ele><time>2026-05-02T09:05:58.999Z</time></trkpt><trkpt lat="42.226745986917464" lon="13.843792361909907"><ele>982.6</ele><time>2026-05-02T09:06:00.999Z</time></trkpt><trkpt lat="42.226657747027524" lon="13.843749276778965"><ele>983.8</ele><time>2026-05-02T09:06:03.999Z</time></trkpt><trkpt lat="42.22656917346732" lon="13.843686446280708"><ele>985.0</ele><time>2026-05-02T09:06:05.999Z</time></trkpt><trkpt lat="42.22644155902833" lon="13.843604363918628"><ele>985.0</ele><time>2026-05-02T09:06:07.999Z</time></trkpt><trkpt lat="42.2263700619968" lon="13.84356701696823"><ele>985.0000000000001</ele><time>2026-05-02T09:06:08.999Z</time></trkpt><trkpt lat="42.226308252504616" lon="13.843547577748929"><ele>985.0</ele><time>2026-05-02T09:06:09.999Z</time></trkpt><trkpt lat="42.22624472270598" lon="13.843521595714444"><ele>985.0</ele><time>2026-05-02T09:06:11.999Z</time></trkpt><trkpt lat="42.2262534901886" lon="13.843618328220519"><ele>985.0000000000001</ele><time>2026-05-02T09:06:27.999Z</time></trkpt><trkpt lat="42.226312370071085" lon="13.84365632741443"><ele>985.0</ele><time>2026-05-02T09:06:28.999Z</time></trkpt><trkpt lat="42.2264110829253" lon="13.843705327873991"><ele>985.0</ele><time>2026-05-02T09:06:30.999Z</time></trkpt><trkpt lat="42.22648886626854" lon="13.843755276967043"><ele>986.0</ele><time>2026-05-02T09:06:32.999Z</time></trkpt><trkpt lat="42.22643460767929" lon="13.843846207466642"><ele>987.0</ele><time>2026-05-02T09:06:37.999Z</time></trkpt><trkpt lat="42.22636855919879" lon="13.84386729137125"><ele>988.0</ele><time>2026-05-02T09:06:38.999Z</time></trkpt><trkpt lat="42.226285092991944" lon="13.843888621118221"><ele>989.0</ele><time>2026-05-02T09:06:39.999Z</time></trkpt><trkpt lat="42.22620049264497" lon="13.843976322749644"><ele>990.0</ele><time>2026-05-02T09:06:40.999Z</time></trkpt><trkpt lat="42.22609385222423" lon="13.844025862685243"><ele>990.0</ele><time>2026-05-02T09:06:41.999Z</time></trkpt><trkpt lat="42.22596736996181" lon="13.844084620178688"><ele>990.0</ele><time>2026-05-02T09:06:42.999Z</time></trkpt><trkpt lat="42.225831686417656" lon="13.84417160297634"><ele>990.0</ele><time>2026-05-02T09:06:43.999Z</time></trkpt><trkpt lat="42.225733942508704" lon="13.8442186846743"><ele>990.0</ele><time>2026-05-02T09:06:44.999Z</time></trkpt><trkpt lat="42.22564472780256" lon="13.844263443205241"><ele>986.4</ele><time>2026-05-02T09:06:45.999Z</time></trkpt><trkpt lat="42.22556115745756" lon="13.84430783092877"><ele>982.8</ele><time>2026-05-02T09:06:46.999Z</time></trkpt><trkpt lat="42.225488143304815" lon="13.844365460493199"><ele>979.2</ele><time>2026-05-02T09:06:47.999Z</time></trkpt><trkpt lat="42.22540236729391" lon="13.844401320240955"><ele>975.6</ele><time>2026-05-02T09:06:48.999Z</time></trkpt><trkpt lat="42.22530604064984" lon="13.844458560281254"><ele>972.0</ele><time>2026-05-02T09:06:49.999Z</time></trkpt><trkpt lat="42.22519582814704" lon="13.84451883448696"><ele>972.0</ele><time>2026-05-02T09:06:50.999Z</time></trkpt><trkpt lat="42.2250986165726" lon="13.844555588733096"><ele>972.0</ele><time>2026-05-02T09:06:51.999Z</time></trkpt><trkpt lat="42.22498723190839" lon="13.844570670746892"><ele>972.0</ele><time>2026-05-02T09:06:52.999Z</time></trkpt><trkpt lat="42.224897819407744" lon="13.844591927534003"><ele>972.0</ele><time>2026-05-02T09:06:53.999Z</time></trkpt><trkpt lat="42.224826468524284" lon="13.844563435440476"><ele>972.0</ele><time>2026-05-02T09:06:54.999Z</time></trkpt><trkpt lat="42.22476213764953" lon="13.844565038438757"><ele>972.0</ele><time>2026-05-02T09:06:55.999Z</time></trkpt><trkpt lat="42.224705808249176" lon="13.84452378500419"><ele>969.8</ele><time>2026-05-02T09:06:56.999Z</time></trkpt><trkpt lat="42.22461415752217" lon="13.844457611023422"><ele>967.6</ele><time>2026-05-02T09:06:58.999Z</time></trkpt><trkpt lat="42.22462455194249" lon="13.8442774592761"><ele>965.3999999999999</ele><time>2026-05-02T09:06:59.999Z</time></trkpt><trkpt lat="42.2246629932205" lon="13.844167200142813"><ele>963.1999999999999</ele><time>2026-05-02T09:07:00.999Z</time></trkpt><trkpt lat="42.224700794572485" lon="13.84403471680152"><ele>961.0</ele><time>2026-05-02T09:07:01.999Z</time></trkpt><trkpt lat="42.22473411306218" lon="13.843879322904765"><ele>960.0</ele><time>2026-05-02T09:07:02.999Z</time></trkpt><trkpt lat="42.2247826787736" lon="13.843736381397203"><ele>958.9999999999999</ele><time>2026-05-02T09:07:03.999Z</time></trkpt><trkpt lat="42.22483595880263" lon="13.84360486601159"><ele>957.9999999999999</ele><time>2026-05-02T09:07:04.999Z</time></trkpt><trkpt lat="42.22489635692856" lon="13.843482783048838"><ele>957.0</ele><time>2026-05-02T09:07:05.999Z</time></trkpt><trkpt lat="42.22496245334098" lon="13.843369852890184"><ele>956.0</ele><time>2026-05-02T09:07:06.999Z</time></trkpt><trkpt lat="42.22503486221398" lon="13.843261265833963"><ele>959.75</ele><time>2026-05-02T09:07:07.999Z</time></trkpt><trkpt lat="42.22511418820469" lon="13.843156740856795"><ele>963.5</ele><time>2026-05-02T09:07:08.999Z</time></trkpt><trkpt lat="42.22519832162613" lon="13.843048453407588"><ele>967.25</ele><time>2026-05-02T09:07:09.999Z</time></trkpt><trkpt lat="42.22528146432826" lon="13.842928840125586"><ele>971.0</ele><time>2026-05-02T09:07:10.999Z</time></trkpt><trkpt lat="42.22536326075312" lon="13.842810722644387"><ele>971.0</ele><time>2026-05-02T09:07:11.999Z</time></trkpt><trkpt lat="42.22544455968105" lon="13.842700022854457"><ele>971.0</ele><time>2026-05-02T09:07:12.999Z</time></trkpt><trkpt lat="42.22552680583772" lon="13.842590924414873"><ele>971.0</ele><time>2026-05-02T09:07:13.999Z</time></trkpt><trkpt lat="42.22561137790391" lon="13.842482935419088"><ele>971.0</ele><time>2026-05-02T09:07:14.999Z</time></trkpt><trkpt lat="42.2256932880151" lon="13.842369952910595"><ele>970.4</ele><time>2026-05-02T09:07:15.999Z</time></trkpt><trkpt lat="42.225764312240564" lon="13.842269012962085"><ele>969.8</ele><time>2026-05-02T09:07:16.999Z</time></trkpt><trkpt lat="42.22585823242745" lon="13.842221676351889"><ele>969.1999999999999</ele><time>2026-05-02T09:07:17.999Z</time></trkpt><trkpt lat="42.22594675036222" lon="13.842170333220807"><ele>968.5999999999999</ele><time>2026-05-02T09:07:18.999Z</time></trkpt><trkpt lat="42.22603008390118" lon="13.842130895883496"><ele>968.0</ele><time>2026-05-02T09:07:19.999Z</time></trkpt><trkpt lat="42.2261075442614" lon="13.842100125605802"><ele>968.0</ele><time>2026-05-02T09:07:20.999Z</time></trkpt><trkpt lat="42.22619217882129" lon="13.84208438401312"><ele>968.0</ele><time>2026-05-02T09:07:21.999Z</time></trkpt><trkpt lat="42.22628579620506" lon="13.842086602325947"><ele>968.0</ele><time>2026-05-02T09:07:22.999Z</time></trkpt><trkpt lat="42.22637789560791" lon="13.842076291315703"><ele>968.0</ele><time>2026-05-02T09:07:23.999Z</time></trkpt><trkpt lat="42.22647457502482" lon="13.842102173098485"><ele>968.0</ele><time>2026-05-02T09:07:24.999Z</time></trkpt><trkpt lat="42.22659230391216" lon="13.842095210504269"><ele>969.0</ele><time>2026-05-02T09:07:25.999Z</time></trkpt><trkpt lat="42.22671933342159" lon="13.842085354533896"><ele>970.0</ele><time>2026-05-02T09:07:26.999Z</time></trkpt><trkpt lat="42.22683740030973" lon="13.842074601318526"><ele>971.0</ele><time>2026-05-02T09:07:27.999Z</time></trkpt><trkpt lat="42.226953699327055" lon="13.842052076009201"><ele>972.0</ele><time>2026-05-02T09:07:28.999Z</time></trkpt><trkpt lat="42.22707270084264" lon="13.842053170779222"><ele>972.0</ele><time>2026-05-02T09:07:29.999Z</time></trkpt><trkpt lat="42.227191632026084" lon="13.842025422486298"><ele>972.0</ele><time>2026-05-02T09:07:30.999Z</time></trkpt><trkpt lat="42.22731106758283" lon="13.842031460969222"><ele>972.0</ele><time>2026-05-02T09:07:31.999Z</time></trkpt><trkpt lat="42.22742290562933" lon="13.84200321649397"><ele>972.0</ele><time>2026-05-02T09:07:32.999Z</time></trkpt><trkpt lat="42.22753032486907" lon="13.84201092043825"><ele>970.4000000000001</ele><time>2026-05-02T09:07:33.999Z</time></trkpt><trkpt lat="42.227637225943006" lon="13.841980766407701"><ele>968.8000000000001</ele><time>2026-05-02T09:07:34.999Z</time></trkpt><trkpt lat="42.22774908202801" lon="13.841971389536226"><ele>967.2</ele><time>2026-05-02T09:07:35.999Z</time></trkpt><trkpt lat="42.22786062874898" lon="13.841955279334217"><ele>965.6</ele><time>2026-05-02T09:07:36.999Z</time></trkpt><trkpt lat="42.2279581199957" lon="13.841911072697709"><ele>964.0</ele><time>2026-05-02T09:07:37.999Z</time></trkpt><trkpt lat="42.22806524654847" lon="13.841898296360128"><ele>964.8333333333333</ele><time>2026-05-02T09:07:38.999Z</time></trkpt><trkpt lat="42.228157021931715" lon="13.841847531342182"><ele>965.6666666666666</ele><time>2026-05-02T09:07:39.999Z</time></trkpt><trkpt lat="42.228248434768304" lon="13.841835144466234"><ele>966.5</ele><time>2026-05-02T09:07:40.999Z</time></trkpt><trkpt lat="42.228319781523375" lon="13.841786142013637"><ele>967.3333333333333</ele><time>2026-05-02T09:07:41.999Z</time></trkpt><trkpt lat="42.22839880869039" lon="13.841764463941788"><ele>968.1666666666666</ele><time>2026-05-02T09:07:42.999Z</time></trkpt><trkpt lat="42.22848754676079" lon="13.84171086896247"><ele>969.0</ele><time>2026-05-02T09:07:43.999Z</time></trkpt><trkpt lat="42.22857469936311" lon="13.84161787340339"><ele>959.75</ele><time>2026-05-02T09:07:44.999Z</time></trkpt><trkpt lat="42.22864637404821" lon="13.841491128163884"><ele>950.5</ele><time>2026-05-02T09:07:45.999Z</time></trkpt><trkpt lat="42.228715669470525" lon="13.84135501075016"><ele>941.25</ele><time>2026-05-02T09:07:46.999Z</time></trkpt><trkpt lat="42.22877972784596" lon="13.841204835512597"><ele>932.0</ele><time>2026-05-02T09:07:47.999Z</time></trkpt><trkpt lat="42.22883973932582" lon="13.841045651829457"><ele>933.25</ele><time>2026-05-02T09:07:48.999Z</time></trkpt><trkpt lat="42.228884513427275" lon="13.840880853129056"><ele>934.5</ele><time>2026-05-02T09:07:49.999Z</time></trkpt><trkpt lat="42.22895074789181" lon="13.840733213641666"><ele>935.75</ele><time>2026-05-02T09:07:50.999Z</time></trkpt><trkpt lat="42.22900368914886" lon="13.840576638265626"><ele>937.0</ele><time>2026-05-02T09:07:51.999Z</time></trkpt><trkpt lat="42.22905777014148" lon="13.840416692479499"><ele>937.0</ele><time>2026-05-02T09:07:52.999Z</time></trkpt><trkpt lat="42.22911133112884" lon="13.840262807447791"><ele>937.0</ele><time>2026-05-02T09:07:53.999Z</time></trkpt><trkpt lat="42.22916663385335" lon="13.840113973725849"><ele>937.0</ele><time>2026-05-02T09:07:54.999Z</time></trkpt><trkpt lat="42.229220133792964" lon="13.839976196499828"><ele>937.0</ele><time>2026-05-02T09:07:55.999Z</time></trkpt><trkpt lat="42.22927481577384" lon="13.839841549220372"><ele>931.25</ele><time>2026-05-02T09:07:56.999Z</time></trkpt><trkpt lat="42.2293392969755" lon="13.839698593685743"><ele>925.5</ele><time>2026-05-02T09:07:57.999Z</time></trkpt><trkpt lat="42.2293998833424" lon="13.839573369027123"><ele>919.75</ele><time>2026-05-02T09:07:58.999Z</time></trkpt><trkpt lat="42.2294559670254" lon="13.839441191464816"><ele>914.0</ele><time>2026-05-02T09:07:59.999Z</time></trkpt><trkpt lat="42.229544402487875" lon="13.83931861735321"><ele>918.0</ele><time>2026-05-02T09:08:00.999Z</time></trkpt><trkpt lat="42.22962988812399" lon="13.839189547048798"><ele>922.0</ele><time>2026-05-02T09:08:01.999Z</time></trkpt><trkpt lat="42.229715730629344" lon="13.839058065732837"><ele>926.0</ele><time>2026-05-02T09:08:02.999Z</time></trkpt><trkpt lat="42.22980040315415" lon="13.838935618182429"><ele>930.0</ele><time>2026-05-02T09:08:03.999Z</time></trkpt><trkpt lat="42.229886851537145" lon="13.838816235546611"><ele>930.0</ele><time>2026-05-02T09:08:04.999Z</time></trkpt><trkpt lat="42.22994239567018" lon="13.838672537540502"><ele>930.0</ele><time>2026-05-02T09:08:05.999Z</time></trkpt><trkpt lat="42.23001904481718" lon="13.838545528628604"><ele>930.0</ele><time>2026-05-02T09:08:06.999Z</time></trkpt><trkpt lat="42.230071644212515" lon="13.838415016911318"><ele>930.0</ele><time>2026-05-02T09:08:07.999Z</time></trkpt><trkpt lat="42.23012614689977" lon="13.838287621412707"><ele>921.5</ele><time>2026-05-02T09:08:08.999Z</time></trkpt><trkpt lat="42.230189918091455" lon="13.838160013822536"><ele>913.0</ele><time>2026-05-02T09:08:09.999Z</time></trkpt><trkpt lat="42.23027665528496" lon="13.838071313592595"><ele>904.5</ele><time>2026-05-02T09:08:10.999Z</time></trkpt><trkpt lat="42.2303478933798" lon="13.837942139903076"><ele>896.0</ele><time>2026-05-02T09:08:11.999Z</time></trkpt><trkpt lat="42.23044435355299" lon="13.837825246083568"><ele>896.0</ele><time>2026-05-02T09:08:12.999Z</time></trkpt><trkpt lat="42.23054791410258" lon="13.837734721817549"><ele>896.0</ele><time>2026-05-02T09:08:13.999Z</time></trkpt><trkpt lat="42.23067057297617" lon="13.837639064095555"><ele>896.0</ele><time>2026-05-02T09:08:14.999Z</time></trkpt><trkpt lat="42.230768368269864" lon="13.837564972040722"><ele>896.0</ele><time>2026-05-02T09:08:15.999Z</time></trkpt><trkpt lat="42.23087579352041" lon="13.837487557244584"><ele>894.5</ele><time>2026-05-02T09:08:16.999Z</time></trkpt><trkpt lat="42.23098188715005" lon="13.837421666260738"><ele>893.0</ele><time>2026-05-02T09:08:17.999Z</time></trkpt><trkpt lat="42.231121873311174" lon="13.83736315759217"><ele>891.5</ele><time>2026-05-02T09:08:18.999Z</time></trkpt><trkpt lat="42.23122234506151" lon="13.837329098305544"><ele>890.0</ele><time>2026-05-02T09:08:19.999Z</time></trkpt><trkpt lat="42.23134518819908" lon="13.837258901598672"><ele>892.5</ele><time>2026-05-02T09:08:20.999Z</time></trkpt><trkpt lat="42.23147444246374" lon="13.83722178324012"><ele>895.0</ele><time>2026-05-02T09:08:21.999Z</time></trkpt><trkpt lat="42.23161336356092" lon="13.837197885384636"><ele>897.5</ele><time>2026-05-02T09:08:22.999Z</time></trkpt><trkpt lat="42.23175991946678" lon="13.837160549872358"><ele>900.0</ele><time>2026-05-02T09:08:23.999Z</time></trkpt><trkpt lat="42.23188855523324" lon="13.837130422466004"><ele>900.0</ele><time>2026-05-02T09:08:24.999Z</time></trkpt><trkpt lat="42.232007937267355" lon="13.8371123828702"><ele>900.0</ele><time>2026-05-02T09:08:25.999Z</time></trkpt><trkpt lat="42.23209871817185" lon="13.837107463532753"><ele>900.0</ele><time>2026-05-02T09:08:26.999Z</time></trkpt><trkpt lat="42.232175967809184" lon="13.837110321926122"><ele>900.0</ele><time>2026-05-02T09:08:27.999Z</time></trkpt><trkpt lat="42.23227250600767" lon="13.837102904153658"><ele>900.0</ele><time>2026-05-02T09:08:28.999Z</time></trkpt><trkpt lat="42.232356933837174" lon="13.837114451336936"><ele>900.0</ele><time>2026-05-02T09:08:29.999Z</time></trkpt><trkpt lat="42.232444312450006" lon="13.837155804101203"><ele>900.0</ele><time>2026-05-02T09:08:30.999Z</time></trkpt><trkpt lat="42.232534948945414" lon="13.837095802645296"><ele>900.0</ele><time>2026-05-02T09:08:31.999Z</time></trkpt><trkpt lat="42.2325346196934" lon="13.8370005654765"><ele>900.0</ele><time>2026-05-02T09:08:32.999Z</time></trkpt><trkpt lat="42.2324608112022" lon="13.836972531856974"><ele>900.0</ele><time>2026-05-02T09:08:33.999Z</time></trkpt><trkpt lat="42.232363933863404" lon="13.836935613006583"><ele>900.0</ele><time>2026-05-02T09:08:35.999Z</time></trkpt><trkpt lat="42.232278584364316" lon="13.836920119782881"><ele>900.0</ele><time>2026-05-02T09:08:36.999Z</time></trkpt><trkpt lat="42.232178647327586" lon="13.836861745912516"><ele>900.0</ele><time>2026-05-02T09:08:37.999Z</time></trkpt><trkpt lat="42.23206324037143" lon="13.836823634710202"><ele>900.0</ele><time>2026-05-02T09:08:38.998Z</time></trkpt><trkpt lat="42.23192304059292" lon="13.836784599887869"><ele>900.0</ele><time>2026-05-02T09:08:39.998Z</time></trkpt><trkpt lat="42.23178504941909" lon="13.836752377949718"><ele>890.5</ele><time>2026-05-02T09:08:40.998Z</time></trkpt><trkpt lat="42.23165183258821" lon="13.836721213165212"><ele>881.0</ele><time>2026-05-02T09:08:41.998Z</time></trkpt><trkpt lat="42.231518675273136" lon="13.836689325627045"><ele>871.5</ele><time>2026-05-02T09:08:42.998Z</time></trkpt><trkpt lat="42.23138897342495" lon="13.836677450412282"><ele>862.0</ele><time>2026-05-02T09:08:43.998Z</time></trkpt><trkpt lat="42.231268347596874" lon="13.836626356607972"><ele>860.2</ele><time>2026-05-02T09:08:44.998Z</time></trkpt><trkpt lat="42.23116306100427" lon="13.836588837460795"><ele>858.4000000000001</ele><time>2026-05-02T09:08:45.998Z</time></trkpt><trkpt lat="42.231057188711596" lon="13.836585185473973"><ele>856.5999999999999</ele><time>2026-05-02T09:08:46.998Z</time></trkpt><trkpt lat="42.2309459190085" lon="13.836595841404263"><ele>854.8</ele><time>2026-05-02T09:08:47.998Z</time></trkpt><trkpt lat="42.23083215888241" lon="13.836631775104927"><ele>853.0</ele><time>2026-05-02T09:08:48.998Z</time></trkpt><trkpt lat="42.230708008943864" lon="13.836689436547331"><ele>855.5</ele><time>2026-05-02T09:08:49.998Z</time></trkpt><trkpt lat="42.2305726852064" lon="13.836762013994086"><ele>858.0</ele><time>2026-05-02T09:08:50.998Z</time></trkpt><trkpt lat="42.2304357081445" lon="13.836822160414224"><ele>860.5</ele><time>2026-05-02T09:08:51.998Z</time></trkpt><trkpt lat="42.23030283064599" lon="13.836891067159158"><ele>863.0</ele><time>2026-05-02T09:08:52.998Z</time></trkpt><trkpt lat="42.23016555952429" lon="13.836962252238603"><ele>863.0</ele><time>2026-05-02T09:08:53.998Z</time></trkpt><trkpt lat="42.2300178839812" lon="13.837039994857722"><ele>863.0</ele><time>2026-05-02T09:08:54.998Z</time></trkpt><trkpt lat="42.229869968321104" lon="13.837119584091111"><ele>863.0</ele><time>2026-05-02T09:08:55.998Z</time></trkpt><trkpt lat="42.22972630524013" lon="13.837196885117761"><ele>856.75</ele><time>2026-05-02T09:08:56.998Z</time></trkpt><trkpt lat="42.22959524029353" lon="13.837265130968618"><ele>850.5</ele><time>2026-05-02T09:08:57.998Z</time></trkpt><trkpt lat="42.22947330736361" lon="13.837324227129356"><ele>844.25</ele><time>2026-05-02T09:08:58.998Z</time></trkpt><trkpt lat="42.22935411527548" lon="13.83738199501786"><ele>838.0</ele><time>2026-05-02T09:08:59.998Z</time></trkpt><trkpt lat="42.229260424840376" lon="13.837429328744388"><ele>838.0</ele><time>2026-05-02T09:09:00.998Z</time></trkpt><trkpt lat="42.229176815475384" lon="13.837471735754411"><ele>838.0</ele><time>2026-05-02T09:09:01.998Z</time></trkpt><trkpt lat="42.22908557097026" lon="13.837518666015075"><ele>838.0</ele><time>2026-05-02T09:09:02.998Z</time></trkpt><trkpt lat="42.2289824801524" lon="13.837572606589195"><ele>838.0</ele><time>2026-05-02T09:09:03.998Z</time></trkpt><trkpt lat="42.22887397585465" lon="13.837632656192522"><ele>838.0</ele><time>2026-05-02T09:09:04.998Z</time></trkpt><trkpt lat="42.228779649066766" lon="13.837687368469435"><ele>836.5999999999999</ele><time>2026-05-02T09:09:05.998Z</time></trkpt><trkpt lat="42.22868725321537" lon="13.837742271400018"><ele>835.1999999999999</ele><time>2026-05-02T09:09:06.998Z</time></trkpt><trkpt lat="42.2286252458019" lon="13.837774811705167"><ele>833.8</ele><time>2026-05-02T09:09:07.998Z</time></trkpt><trkpt lat="42.22854829226942" lon="13.837817549497572"><ele>832.4</ele><time>2026-05-02T09:09:09.998Z</time></trkpt><trkpt lat="42.22861180377005" lon="13.837683374230435"><ele>831.0</ele><time>2026-05-02T09:09:13.998Z</time></trkpt><trkpt lat="42.22868319257315" lon="13.837631843716185"><ele>831.0</ele><time>2026-05-02T09:09:14.998Z</time></trkpt><trkpt lat="42.228777483552534" lon="13.837555549463605"><ele>831.0</ele><time>2026-05-02T09:09:15.998Z</time></trkpt><trkpt lat="42.22887215783045" lon="13.837471220998255"><ele>831.0</ele><time>2026-05-02T09:09:16.998Z</time></trkpt><trkpt lat="42.22898779206815" lon="13.83736345414879"><ele>831.0</ele><time>2026-05-02T09:09:17.998Z</time></trkpt><trkpt lat="42.22910537913468" lon="13.837228247706317"><ele>832.75</ele><time>2026-05-02T09:09:18.998Z</time></trkpt><trkpt lat="42.22921639826127" lon="13.83711575867776"><ele>834.5</ele><time>2026-05-02T09:09:19.998Z</time></trkpt><trkpt lat="42.22932581564799" lon="13.83701012626082"><ele>836.25</ele><time>2026-05-02T09:09:20.998Z</time></trkpt><trkpt lat="42.229427235638596" lon="13.836914895455562"><ele>838.0</ele><time>2026-05-02T09:09:21.998Z</time></trkpt><trkpt lat="42.229524675933106" lon="13.836831774818817"><ele>836.0</ele><time>2026-05-02T09:09:22.998Z</time></trkpt><trkpt lat="42.229623563398505" lon="13.836729697935787"><ele>834.0</ele><time>2026-05-02T09:09:23.998Z</time></trkpt><trkpt lat="42.229709159135055" lon="13.836620198107248"><ele>832.0</ele><time>2026-05-02T09:09:24.998Z</time></trkpt><trkpt lat="42.22979352835188" lon="13.836511792133425"><ele>830.0</ele><time>2026-05-02T09:09:25.998Z</time></trkpt><trkpt lat="42.22988893829391" lon="13.836410499018262"><ele>830.0</ele><time>2026-05-02T09:09:26.998Z</time></trkpt><trkpt lat="42.2299730289271" lon="13.836294380511195"><ele>830.0</ele><time>2026-05-02T09:09:27.998Z</time></trkpt><trkpt lat="42.23006466964404" lon="13.836178987979395"><ele>830.0</ele><time>2026-05-02T09:09:28.998Z</time></trkpt><trkpt lat="42.23016849770249" lon="13.836084955034499"><ele>830.0</ele><time>2026-05-02T09:09:29.998Z</time></trkpt><trkpt lat="42.23027036918167" lon="13.835978100777071"><ele>827.75</ele><time>2026-05-02T09:09:30.998Z</time></trkpt><trkpt lat="42.23036855681177" lon="13.835876353089004"><ele>825.5</ele><time>2026-05-02T09:09:31.998Z</time></trkpt><trkpt lat="42.230478542475375" lon="13.835764480414351"><ele>823.25</ele><time>2026-05-02T09:09:32.998Z</time></trkpt><trkpt lat="42.2305797843598" lon="13.835668604113215"><ele>821.0</ele><time>2026-05-02T09:09:33.998Z</time></trkpt><trkpt lat="42.2306785814065" lon="13.835582856850559"><ele>821.0</ele><time>2026-05-02T09:09:34.998Z</time></trkpt><trkpt lat="42.23077202221774" lon="13.835513809010035"><ele>821.0</ele><time>2026-05-02T09:09:35.998Z</time></trkpt><trkpt lat="42.230863647216765" lon="13.835455383479676"><ele>821.0</ele><time>2026-05-02T09:09:36.998Z</time></trkpt><trkpt lat="42.23096500192465" lon="13.835398466755128"><ele>821.0</ele><time>2026-05-02T09:09:37.998Z</time></trkpt><trkpt lat="42.231063666804346" lon="13.835347418094589"><ele>821.0</ele><time>2026-05-02T09:09:38.998Z</time></trkpt><trkpt lat="42.231152074724086" lon="13.83529170457912"><ele>821.0</ele><time>2026-05-02T09:09:39.998Z</time></trkpt><trkpt lat="42.231282572502764" lon="13.835294910564624"><ele>821.0</ele><time>2026-05-02T09:09:40.998Z</time></trkpt><trkpt lat="42.23140845075313" lon="13.83527611475285"><ele>821.0</ele><time>2026-05-02T09:09:41.998Z</time></trkpt><trkpt lat="42.231537301444895" lon="13.83525881683434"><ele>821.0</ele><time>2026-05-02T09:09:42.998Z</time></trkpt><trkpt lat="42.23164954313445" lon="13.83522706857078"><ele>822.6666666666667</ele><time>2026-05-02T09:09:43.998Z</time></trkpt><trkpt lat="42.23174034873673" lon="13.835219388829005"><ele>824.3333333333334</ele><time>2026-05-02T09:09:44.998Z</time></trkpt><trkpt lat="42.23181209548763" lon="13.835207227934648"><ele>826.0</ele><time>2026-05-02T09:09:45.998Z</time></trkpt><trkpt lat="42.23188284397973" lon="13.835169358118245"><ele>827.6666666666667</ele><time>2026-05-02T09:09:46.998Z</time></trkpt><trkpt lat="42.23195556030483" lon="13.835139386137906"><ele>829.3333333333334</ele><time>2026-05-02T09:09:48.998Z</time></trkpt><trkpt lat="42.23199825685747" lon="13.835013009086035"><ele>831.0</ele><time>2026-05-02T09:09:49.998Z</time></trkpt><trkpt lat="42.23189548654258" lon="13.834945355490802"><ele>826.3333333333334</ele><time>2026-05-02T09:09:50.998Z</time></trkpt><trkpt lat="42.23182671550612" lon="13.834951630911881"><ele>821.6666666666667</ele><time>2026-05-02T09:09:51.998Z</time></trkpt><trkpt lat="42.2317436549651" lon="13.834956090450078"><ele>817.0</ele><time>2026-05-02T09:09:52.998Z</time></trkpt><trkpt lat="42.23165886618503" lon="13.834952718518586"><ele>812.3333333333334</ele><time>2026-05-02T09:09:53.998Z</time></trkpt><trkpt lat="42.23158376171774" lon="13.834948906151551"><ele>807.6666666666667</ele><time>2026-05-02T09:09:54.998Z</time></trkpt><trkpt lat="42.23149443142081" lon="13.834942077206136"><ele>803.0</ele><time>2026-05-02T09:09:55.998Z</time></trkpt><trkpt lat="42.2314181759273" lon="13.834926394186029"><ele>801.1666666666667</ele><time>2026-05-02T09:09:56.998Z</time></trkpt><trkpt lat="42.23134491050371" lon="13.834905259072798"><ele>799.3333333333334</ele><time>2026-05-02T09:09:57.998Z</time></trkpt><trkpt lat="42.231271241052035" lon="13.834890860953177"><ele>797.5</ele><time>2026-05-02T09:09:58.998Z</time></trkpt><trkpt lat="42.23118720392523" lon="13.834862460236582"><ele>795.6666666666667</ele><time>2026-05-02T09:09:59.998Z</time></trkpt><trkpt lat="42.23110180526393" lon="13.834846937227677"><ele>793.8333333333334</ele><time>2026-05-02T09:10:00.998Z</time></trkpt><trkpt lat="42.2310053862913" lon="13.83485021450721"><ele>792.0</ele><time>2026-05-02T09:10:01.998Z</time></trkpt><trkpt lat="42.230880996847155" lon="13.834871558368892"><ele>792.0</ele><time>2026-05-02T09:10:02.998Z</time></trkpt><trkpt lat="42.23076321252211" lon="13.834893754574844"><ele>792.0</ele><time>2026-05-02T09:10:03.998Z</time></trkpt><trkpt lat="42.23062925841524" lon="13.834940766543937"><ele>792.0</ele><time>2026-05-02T09:10:04.998Z</time></trkpt><trkpt lat="42.23055265251254" lon="13.834965658142403"><ele>792.0</ele><time>2026-05-02T09:10:05.998Z</time></trkpt><trkpt lat="42.23047296600382" lon="13.834977699451308"><ele>792.0</ele><time>2026-05-02T09:10:06.998Z</time></trkpt><trkpt lat="42.230384029346865" lon="13.83501176377065"><ele>794.0</ele><time>2026-05-02T09:10:07.998Z</time></trkpt><trkpt lat="42.23027329166488" lon="13.835030906882217"><ele>796.0</ele><time>2026-05-02T09:10:08.998Z</time></trkpt><trkpt lat="42.23015896350518" lon="13.835089788569366"><ele>798.0</ele><time>2026-05-02T09:10:09.998Z</time></trkpt><trkpt lat="42.23003735223434" lon="13.835134043049012"><ele>800.0</ele><time>2026-05-02T09:10:10.998Z</time></trkpt><trkpt lat="42.22993270985795" lon="13.835174813647058"><ele>800.0</ele><time>2026-05-02T09:10:11.998Z</time></trkpt><trkpt lat="42.229825729526944" lon="13.835211172750359"><ele>800.0</ele><time>2026-05-02T09:10:12.998Z</time></trkpt><trkpt lat="42.229707460451095" lon="13.835253859801885"><ele>800.0</ele><time>2026-05-02T09:10:13.998Z</time></trkpt><trkpt lat="42.22958680919432" lon="13.835289020405643"><ele>800.0</ele><time>2026-05-02T09:10:14.998Z</time></trkpt><trkpt lat="42.22946989036219" lon="13.835343759355448"><ele>795.0</ele><time>2026-05-02T09:10:15.998Z</time></trkpt><trkpt lat="42.229329228967266" lon="13.835409309105325"><ele>790.0</ele><time>2026-05-02T09:10:16.998Z</time></trkpt><trkpt lat="42.22920982048727" lon="13.835486496617033"><ele>785.0</ele><time>2026-05-02T09:10:17.998Z</time></trkpt><trkpt lat="42.22908143605509" lon="13.835580261689362"><ele>780.0</ele><time>2026-05-02T09:10:18.998Z</time></trkpt><trkpt lat="42.22896039294236" lon="13.83567773018698"><ele>778.1666666666666</ele><time>2026-05-02T09:10:19.998Z</time></trkpt><trkpt lat="42.22885900303318" lon="13.835745748157391"><ele>776.3333333333333</ele><time>2026-05-02T09:10:20.998Z</time></trkpt><trkpt lat="42.22876927904983" lon="13.835813539754152"><ele>774.5</ele><time>2026-05-02T09:10:21.998Z</time></trkpt><trkpt lat="42.22869210187662" lon="13.835841359801828"><ele>772.6666666666666</ele><time>2026-05-02T09:10:22.998Z</time></trkpt><trkpt lat="42.22862714291675" lon="13.835876192553144"><ele>770.8333333333333</ele><time>2026-05-02T09:10:23.998Z</time></trkpt><trkpt lat="42.22856291364315" lon="13.835925266037973"><ele>769.0</ele><time>2026-05-02T09:10:24.998Z</time></trkpt><trkpt lat="42.22843951206917" lon="13.836003694193256"><ele>770.0</ele><time>2026-05-02T09:10:26.998Z</time></trkpt><trkpt lat="42.228364615752014" lon="13.836037324403991"><ele>771.0</ele><time>2026-05-02T09:10:27.998Z</time></trkpt><trkpt lat="42.22824706361642" lon="13.835999926844533"><ele>772.0</ele><time>2026-05-02T09:10:28.998Z</time></trkpt><trkpt lat="42.22811947888537" lon="13.835913354344699"><ele>773.0</ele><time>2026-05-02T09:10:29.998Z</time></trkpt><trkpt lat="42.227979672871506" lon="13.835844648550731"><ele>773.0</ele><time>2026-05-02T09:10:30.998Z</time></trkpt><trkpt lat="42.22784393449752" lon="13.835778913547744"><ele>773.0</ele><time>2026-05-02T09:10:31.998Z</time></trkpt><trkpt lat="42.227737985004865" lon="13.835684297548205"><ele>773.0</ele><time>2026-05-02T09:10:32.998Z</time></trkpt><trkpt lat="42.22765819943175" lon="13.83564667796482"><ele>773.0</ele><time>2026-05-02T09:10:33.998Z</time></trkpt><trkpt lat="42.22755480568802" lon="13.83556384615267"><ele>773.0</ele><time>2026-05-02T09:10:34.998Z</time></trkpt><trkpt lat="42.22743899510828" lon="13.835514514751331"><ele>773.0</ele><time>2026-05-02T09:10:35.998Z</time></trkpt><trkpt lat="42.22732598386556" lon="13.835437641428955"><ele>773.0</ele><time>2026-05-02T09:10:36.998Z</time></trkpt><trkpt lat="42.22721042583651" lon="13.835389290301373"><ele>773.0</ele><time>2026-05-02T09:10:37.998Z</time></trkpt><trkpt lat="42.22710392835458" lon="13.835340626485868"><ele>772.0</ele><time>2026-05-02T09:10:38.998Z</time></trkpt><trkpt lat="42.22702378021253" lon="13.835337316194863"><ele>771.0</ele><time>2026-05-02T09:10:39.998Z</time></trkpt><trkpt lat="42.22695791941871" lon="13.835305387647596"><ele>770.0</ele><time>2026-05-02T09:10:40.998Z</time></trkpt><trkpt lat="42.22685757225824" lon="13.835326082634666"><ele>769.0</ele><time>2026-05-02T09:10:41.998Z</time></trkpt><trkpt lat="42.22676165144579" lon="13.835349989764962"><ele>768.0</ele><time>2026-05-02T09:10:42.998Z</time></trkpt><trkpt lat="42.22665962516651" lon="13.83538302539141"><ele>768.0</ele><time>2026-05-02T09:10:43.998Z</time></trkpt><trkpt lat="42.226558874222306" lon="13.835394782037415"><ele>768.0</ele><time>2026-05-02T09:10:44.998Z</time></trkpt><trkpt lat="42.22646635319012" lon="13.835420218172008"><ele>768.0</ele><time>2026-05-02T09:10:45.998Z</time></trkpt><trkpt lat="42.22638103005527" lon="13.835448193142726"><ele>768.0</ele><time>2026-05-02T09:10:46.998Z</time></trkpt><trkpt lat="42.22629551257387" lon="13.835479417212204"><ele>768.0</ele><time>2026-05-02T09:10:47.998Z</time></trkpt><trkpt lat="42.22621883722216" lon="13.83550946158754"><ele>764.4</ele><time>2026-05-02T09:10:48.998Z</time></trkpt><trkpt lat="42.22615007507866" lon="13.835557450891217"><ele>760.8</ele><time>2026-05-02T09:10:49.998Z</time></trkpt><trkpt lat="42.226057496973056" lon="13.835575037577923"><ele>757.2</ele><time>2026-05-02T09:10:50.998Z</time></trkpt><trkpt lat="42.225961990995266" lon="13.835637212083602"><ele>753.6</ele><time>2026-05-02T09:10:51.998Z</time></trkpt><trkpt lat="42.22584585972656" lon="13.835692568913963"><ele>750.0</ele><time>2026-05-02T09:10:52.998Z</time></trkpt><trkpt lat="42.22573042528549" lon="13.835734240813334"><ele>748.4</ele><time>2026-05-02T09:10:53.998Z</time></trkpt><trkpt lat="42.22562478685741" lon="13.835796514715282"><ele>746.8</ele><time>2026-05-02T09:10:54.997Z</time></trkpt><trkpt lat="42.225525047346316" lon="13.83586112456789"><ele>745.2</ele><time>2026-05-02T09:10:55.997Z</time></trkpt><trkpt lat="42.22542003970501" lon="13.835944733160234"><ele>743.6</ele><time>2026-05-02T09:10:56.997Z</time></trkpt><trkpt lat="42.225342655573044" lon="13.836024465554805"><ele>742.0</ele><time>2026-05-02T09:10:57.997Z</time></trkpt><trkpt lat="42.225236532024624" lon="13.83610677157964"><ele>742.0</ele><time>2026-05-02T09:10:58.997Z</time></trkpt><trkpt lat="42.22514773897126" lon="13.83619158648055"><ele>742.0</ele><time>2026-05-02T09:10:59.997Z</time></trkpt><trkpt lat="42.22504979868846" lon="13.836279232094356"><ele>742.0</ele><time>2026-05-02T09:11:00.997Z</time></trkpt><trkpt lat="42.22495255273931" lon="13.836361767515136"><ele>742.0</ele><time>2026-05-02T09:11:01.997Z</time></trkpt><trkpt lat="42.22485204967281" lon="13.836441851279528"><ele>738.4000000000001</ele><time>2026-05-02T09:11:02.996Z</time></trkpt><trkpt lat="42.224753771218424" lon="13.836520970249657"><ele>734.8000000000001</ele><time>2026-05-02T09:11:03.996Z</time></trkpt><trkpt lat="42.22465745503551" lon="13.83660314496243"><ele>731.2</ele><time>2026-05-02T09:11:04.996Z</time></trkpt><trkpt lat="42.22458829619303" lon="13.836715302035353"><ele>727.6</ele><time>2026-05-02T09:11:05.996Z</time></trkpt><trkpt lat="42.224528248776906" lon="13.83682968580246"><ele>724.0</ele><time>2026-05-02T09:11:06.996Z</time></trkpt><trkpt lat="42.22446321281011" lon="13.836957193708589"><ele>724.0</ele><time>2026-05-02T09:11:07.996Z</time></trkpt><trkpt lat="42.224398293444345" lon="13.837083908844864"><ele>724.0</ele><time>2026-05-02T09:11:08.996Z</time></trkpt><trkpt lat="42.224330700461955" lon="13.83719609459941"><ele>724.0</ele><time>2026-05-02T09:11:09.996Z</time></trkpt><trkpt lat="42.22425392394939" lon="13.837303745954936"><ele>724.0</ele><time>2026-05-02T09:11:10.996Z</time></trkpt><trkpt lat="42.22417330273291" lon="13.837430990039056"><ele>724.0</ele><time>2026-05-02T09:11:11.996Z</time></trkpt><trkpt lat="42.22410903580987" lon="13.837565630667791"><ele>724.0</ele><time>2026-05-02T09:11:12.996Z</time></trkpt><trkpt lat="42.224047935591734" lon="13.837702013172317"><ele>724.0</ele><time>2026-05-02T09:11:13.996Z</time></trkpt><trkpt lat="42.22399174354372" lon="13.837822994101412"><ele>724.0</ele><time>2026-05-02T09:11:14.996Z</time></trkpt><trkpt lat="42.22394037379019" lon="13.83793388658033"><ele>724.0</ele><time>2026-05-02T09:11:15.996Z</time></trkpt><trkpt lat="42.223888133849954" lon="13.838046246023959"><ele>720.6</ele><time>2026-05-02T09:11:16.996Z</time></trkpt><trkpt lat="42.22381080108983" lon="13.838127237781041"><ele>717.2</ele><time>2026-05-02T09:11:17.996Z</time></trkpt><trkpt lat="42.22372566425146" lon="13.838204432038392"><ele>713.8000000000001</ele><time>2026-05-02T09:11:18.996Z</time></trkpt><trkpt lat="42.22363568954758" lon="13.838274585532616"><ele>710.4000000000001</ele><time>2026-05-02T09:11:19.996Z</time></trkpt><trkpt lat="42.22355107095" lon="13.838345022861843"><ele>707.0</ele><time>2026-05-02T09:11:20.996Z</time></trkpt><trkpt lat="42.22345386381024" lon="13.83841327606541"><ele>707.75</ele><time>2026-05-02T09:11:21.996Z</time></trkpt><trkpt lat="42.223352230610374" lon="13.838477310562764"><ele>708.5</ele><time>2026-05-02T09:11:22.996Z</time></trkpt><trkpt lat="42.22324600343843" lon="13.83854816498538"><ele>709.25</ele><time>2026-05-02T09:11:23.996Z</time></trkpt><trkpt lat="42.22312941830019" lon="13.838598259165044"><ele>710.0</ele><time>2026-05-02T09:11:24.996Z</time></trkpt><trkpt lat="42.22300962121264" lon="13.838652043127317"><ele>710.0</ele><time>2026-05-02T09:11:25.996Z</time></trkpt><trkpt lat="42.22288992729782" lon="13.838710304343033"><ele>710.0</ele><time>2026-05-02T09:11:26.996Z</time></trkpt><trkpt lat="42.222774060380786" lon="13.838758127153556"><ele>710.0</ele><time>2026-05-02T09:11:27.996Z</time></trkpt><trkpt lat="42.22266507653896" lon="13.838797359662664"><ele>710.0</ele><time>2026-05-02T09:11:28.996Z</time></trkpt><trkpt lat="42.2225631353288" lon="13.838833719644974"><ele>710.0</ele><time>2026-05-02T09:11:29.996Z</time></trkpt><trkpt lat="42.22246612051743" lon="13.838876825475365"><ele>710.0</ele><time>2026-05-02T09:11:30.996Z</time></trkpt><trkpt lat="42.222375742537814" lon="13.838935736924142"><ele>710.0</ele><time>2026-05-02T09:11:31.996Z</time></trkpt><trkpt lat="42.22229731782198" lon="13.839009219090762"><ele>710.0</ele><time>2026-05-02T09:11:32.996Z</time></trkpt><trkpt lat="42.22222696302134" lon="13.839080058631913"><ele>710.0</ele><time>2026-05-02T09:11:33.996Z</time></trkpt><trkpt lat="42.222176115405674" lon="13.839144177260064"><ele>705.8333333333333</ele><time>2026-05-02T09:11:34.996Z</time></trkpt><trkpt lat="42.22210650842689" lon="13.839224717154211"><ele>701.6666666666666</ele><time>2026-05-02T09:11:36.996Z</time></trkpt><trkpt lat="42.22203450244672" lon="13.839290253048409"><ele>697.5</ele><time>2026-05-02T09:11:37.996Z</time></trkpt><trkpt lat="42.221978978040205" lon="13.839222016327742"><ele>693.3333333333334</ele><time>2026-05-02T09:11:38.996Z</time></trkpt><trkpt lat="42.22198177384323" lon="13.839074588290163"><ele>689.1666666666667</ele><time>2026-05-02T09:11:40.996Z</time></trkpt><trkpt lat="42.222018013862275" lon="13.838975369805354"><ele>685.0</ele><time>2026-05-02T09:11:41.996Z</time></trkpt><trkpt lat="42.22205816834569" lon="13.838862363369643"><ele>685.0</ele><time>2026-05-02T09:11:42.996Z</time></trkpt><trkpt lat="42.22210255250536" lon="13.838757409449514"><ele>685.0</ele><time>2026-05-02T09:11:43.996Z</time></trkpt><trkpt lat="42.22214607943875" lon="13.838650622191942"><ele>685.0</ele><time>2026-05-02T09:11:44.996Z</time></trkpt><trkpt lat="42.22218747117476" lon="13.838533362748796"><ele>685.0</ele><time>2026-05-02T09:11:45.996Z</time></trkpt><trkpt lat="42.22225096462051" lon="13.838439583991455"><ele>685.0</ele><time>2026-05-02T09:11:46.996Z</time></trkpt><trkpt lat="42.222291493844736" lon="13.838330857717112"><ele>686.8</ele><time>2026-05-02T09:11:47.996Z</time></trkpt><trkpt lat="42.22235256131656" lon="13.838240177726659"><ele>688.6</ele><time>2026-05-02T09:11:48.996Z</time></trkpt><trkpt lat="42.22242526176118" lon="13.83815076214518"><ele>690.4000000000001</ele><time>2026-05-02T09:11:49.996Z</time></trkpt><trkpt lat="42.22251625794704" lon="13.83806760110592"><ele>692.2</ele><time>2026-05-02T09:11:50.996Z</time></trkpt><trkpt lat="42.22260578150775" lon="13.837959180164592"><ele>694.0</ele><time>2026-05-02T09:11:51.996Z</time></trkpt><trkpt lat="42.22268977520657" lon="13.83784674342692"><ele>694.0</ele><time>2026-05-02T09:11:52.996Z</time></trkpt><trkpt lat="42.22276055072365" lon="13.837725209872207"><ele>694.0</ele><time>2026-05-02T09:11:53.996Z</time></trkpt><trkpt lat="42.22283062165286" lon="13.837621585403499"><ele>694.0</ele><time>2026-05-02T09:11:54.996Z</time></trkpt><trkpt lat="42.22289465880856" lon="13.83751533549068"><ele>694.0</ele><time>2026-05-02T09:11:55.996Z</time></trkpt><trkpt lat="42.22294666070104" lon="13.837396667256668"><ele>694.0</ele><time>2026-05-02T09:11:56.996Z</time></trkpt><trkpt lat="42.22297831551728" lon="13.837263174250753"><ele>689.2</ele><time>2026-05-02T09:11:57.996Z</time></trkpt><trkpt lat="42.22300611259638" lon="13.837125169604281"><ele>684.4000000000001</ele><time>2026-05-02T09:11:58.996Z</time></trkpt><trkpt lat="42.22303269308299" lon="13.836990616228151"><ele>679.6</ele><time>2026-05-02T09:11:59.996Z</time></trkpt><trkpt lat="42.22304591214563" lon="13.83685332183669"><ele>674.8</ele><time>2026-05-02T09:12:00.996Z</time></trkpt><trkpt lat="42.223075372903445" lon="13.836719737469386"><ele>670.0</ele><time>2026-05-02T09:12:01.996Z</time></trkpt><trkpt lat="42.22308490363054" lon="13.836578880586002"><ele>667.6</ele><time>2026-05-02T09:12:02.996Z</time></trkpt><trkpt lat="42.22309159415575" lon="13.836441337223437"><ele>665.2</ele><time>2026-05-02T09:12:03.996Z</time></trkpt><trkpt lat="42.223095169703754" lon="13.836323026356306"><ele>662.8</ele><time>2026-05-02T09:12:04.996Z</time></trkpt><trkpt lat="42.22307899282939" lon="13.836229497956865"><ele>660.4</ele><time>2026-05-02T09:12:05.996Z</time></trkpt><trkpt lat="42.22312750550213" lon="13.836039232387217"><ele>658.0</ele><time>2026-05-02T09:12:07.996Z</time></trkpt><trkpt lat="42.223038766779204" lon="13.835941074710513"><ele>658.0</ele><time>2026-05-02T09:12:08.996Z</time></trkpt><trkpt lat="42.22295719068567" lon="13.835979478090312"><ele>658.0</ele><time>2026-05-02T09:12:09.996Z</time></trkpt><trkpt lat="42.22288806060808" lon="13.836069903524727"><ele>658.0</ele><time>2026-05-02T09:12:10.996Z</time></trkpt><trkpt lat="42.222830453453845" lon="13.836178799778747"><ele>658.0</ele><time>2026-05-02T09:12:11.996Z</time></trkpt><trkpt lat="42.222776580024885" lon="13.836299457935999"><ele>658.0</ele><time>2026-05-02T09:12:12.996Z</time></trkpt><trkpt lat="42.222724157706644" lon="13.836411344382265"><ele>658.0</ele><time>2026-05-02T09:12:13.996Z</time></trkpt><trkpt lat="42.2226708843077" lon="13.8365140565569"><ele>658.0</ele><time>2026-05-02T09:12:14.996Z</time></trkpt><trkpt lat="42.22262067784077" lon="13.836597592533012"><ele>658.0</ele><time>2026-05-02T09:12:15.996Z</time></trkpt><trkpt lat="42.22256335020229" lon="13.836674268337728"><ele>658.0</ele><time>2026-05-02T09:12:16.996Z</time></trkpt><trkpt lat="42.22249319690771" lon="13.836745913195248"><ele>658.0</ele><time>2026-05-02T09:12:17.996Z</time></trkpt><trkpt lat="42.22241227581926" lon="13.83680528388618"><ele>658.0</ele><time>2026-05-02T09:12:18.996Z</time></trkpt><trkpt lat="42.22230737569847" lon="13.836859765954125"><ele>657.75</ele><time>2026-05-02T09:12:19.996Z</time></trkpt><trkpt lat="42.222176147031576" lon="13.836934509887424"><ele>657.5</ele><time>2026-05-02T09:12:20.996Z</time></trkpt><trkpt lat="42.22205066986272" lon="13.837011035558481"><ele>657.25</ele><time>2026-05-02T09:12:21.996Z</time></trkpt><trkpt lat="42.221926020178024" lon="13.837088825330559"><ele>657.0</ele><time>2026-05-02T09:12:22.996Z</time></trkpt><trkpt lat="42.221803261692955" lon="13.837165889703504"><ele>657.0</ele><time>2026-05-02T09:12:23.996Z</time></trkpt><trkpt lat="42.22168485764627" lon="13.837241254793943"><ele>657.0</ele><time>2026-05-02T09:12:24.996Z</time></trkpt><trkpt lat="42.221568519221385" lon="13.837325594975992"><ele>657.0</ele><time>2026-05-02T09:12:25.996Z</time></trkpt><trkpt lat="42.22145624113123" lon="13.837384531879536"><ele>657.0</ele><time>2026-05-02T09:12:26.996Z</time></trkpt><trkpt lat="42.22136728354939" lon="13.837433167098183"><ele>652.3333333333334</ele><time>2026-05-02T09:12:27.996Z</time></trkpt><trkpt lat="42.22130175290556" lon="13.837468425372311"><ele>647.6666666666666</ele><time>2026-05-02T09:12:28.999Z</time></trkpt><trkpt lat="42.221208716123456" lon="13.837503605692955"><ele>643.0</ele><time>2026-05-02T09:12:30.999Z</time></trkpt><trkpt lat="42.22121357332528" lon="13.837380334368492"><ele>638.3333333333333</ele><time>2026-05-02T09:12:33.999Z</time></trkpt><trkpt lat="42.22128390789203" lon="13.837314713783133"><ele>633.6666666666666</ele><time>2026-05-02T09:12:34.999Z</time></trkpt><trkpt lat="42.22135537359983" lon="13.837213554922283"><ele>629.0</ele><time>2026-05-02T09:12:35.999Z</time></trkpt><trkpt lat="42.221448679601025" lon="13.837129762657653"><ele>631.4</ele><time>2026-05-02T09:12:36.999Z</time></trkpt><trkpt lat="42.22153062482646" lon="13.837028025227298"><ele>633.8</ele><time>2026-05-02T09:12:37.999Z</time></trkpt><trkpt lat="42.221607983126894" lon="13.836923367640338"><ele>636.1999999999999</ele><time>2026-05-02T09:12:38.999Z</time></trkpt><trkpt lat="42.221683791140194" lon="13.836817108298007"><ele>638.5999999999999</ele><time>2026-05-02T09:12:39.999Z</time></trkpt><trkpt lat="42.22175316582051" lon="13.836716829486685"><ele>641.0</ele><time>2026-05-02T09:12:40.999Z</time></trkpt><trkpt lat="42.22182029257991" lon="13.836614648129231"><ele>641.0</ele><time>2026-05-02T09:12:41.999Z</time></trkpt><trkpt lat="42.22188984467865" lon="13.836503383418219"><ele>641.0</ele><time>2026-05-02T09:12:42.999Z</time></trkpt><trkpt lat="42.221951909374695" lon="13.836391848891541"><ele>641.0</ele><time>2026-05-02T09:12:43.999Z</time></trkpt><trkpt lat="42.222001502742536" lon="13.836290772697847"><ele>641.0</ele><time>2026-05-02T09:12:44.999Z</time></trkpt><trkpt lat="42.222028761794235" lon="13.836195641479533"><ele>641.0</ele><time>2026-05-02T09:12:45.999Z</time></trkpt><trkpt lat="42.222148867335854" lon="13.836073106453107"><ele>641.0</ele><time>2026-05-02T09:12:47.999Z</time></trkpt><trkpt lat="42.22214833994422" lon="13.835964751483859"><ele>641.0</ele><time>2026-05-02T09:12:48.999Z</time></trkpt><trkpt lat="42.22209271213694" lon="13.835898218991234"><ele>641.0</ele><time>2026-05-02T09:12:49.999Z</time></trkpt><trkpt lat="42.221979585466514" lon="13.83593080762434"><ele>641.0</ele><time>2026-05-02T09:12:50.999Z</time></trkpt><trkpt lat="42.22187484774944" lon="13.836042202090674"><ele>641.0</ele><time>2026-05-02T09:12:52.999Z</time></trkpt><trkpt lat="42.221797187891596" lon="13.836136477840768"><ele>641.0</ele><time>2026-05-02T09:12:53.999Z</time></trkpt><trkpt lat="42.221711482078064" lon="13.836232266408727"><ele>641.0</ele><time>2026-05-02T09:12:54.999Z</time></trkpt><trkpt lat="42.221615672186445" lon="13.836334297035332"><ele>641.0</ele><time>2026-05-02T09:12:55.999Z</time></trkpt><trkpt lat="42.22151184736986" lon="13.836437145457184"><ele>641.0</ele><time>2026-05-02T09:12:56.999Z</time></trkpt><trkpt lat="42.22141270445637" lon="13.836525312223259"><ele>638.0</ele><time>2026-05-02T09:12:57.999Z</time></trkpt><trkpt lat="42.22129519026491" lon="13.83662345749283"><ele>635.0</ele><time>2026-05-02T09:12:58.999Z</time></trkpt><trkpt lat="42.22118682991092" lon="13.836728481253317"><ele>632.0</ele><time>2026-05-02T09:12:59.999Z</time></trkpt><trkpt lat="42.22107358200374" lon="13.836807746753513"><ele>629.0</ele><time>2026-05-02T09:13:00.999Z</time></trkpt><trkpt lat="42.22095779913448" lon="13.836903111142936"><ele>629.0</ele><time>2026-05-02T09:13:01.999Z</time></trkpt><trkpt lat="42.22086505821642" lon="13.836992458056049"><ele>629.0</ele><time>2026-05-02T09:13:02.999Z</time></trkpt><trkpt lat="42.220769953621556" lon="13.837105858201548"><ele>629.0</ele><time>2026-05-02T09:13:03.999Z</time></trkpt><trkpt lat="42.22068018762369" lon="13.837220804612972"><ele>629.0</ele><time>2026-05-02T09:13:04.999Z</time></trkpt><trkpt lat="42.2205938052453" lon="13.83734024398797"><ele>620.4</ele><time>2026-05-02T09:13:05.999Z</time></trkpt><trkpt lat="42.22054710153677" lon="13.837473341093554"><ele>611.8</ele><time>2026-05-02T09:13:06.999Z</time></trkpt><trkpt lat="42.22049473399239" lon="13.837587932737017"><ele>603.2</ele><time>2026-05-02T09:13:07.999Z</time></trkpt><trkpt lat="42.2204455255402" lon="13.837707908634394"><ele>594.6</ele><time>2026-05-02T09:13:08.999Z</time></trkpt><trkpt lat="42.22039822036215" lon="13.837845314891814"><ele>586.0</ele><time>2026-05-02T09:13:09.999Z</time></trkpt><trkpt lat="42.22037301499075" lon="13.83800072389301"><ele>586.0</ele><time>2026-05-02T09:13:10.999Z</time></trkpt><trkpt lat="42.22034125597411" lon="13.838144231503138"><ele>586.0</ele><time>2026-05-02T09:13:11.999Z</time></trkpt><trkpt lat="42.220299554006466" lon="13.838286441769572"><ele>586.0</ele><time>2026-05-02T09:13:12.999Z</time></trkpt><trkpt lat="42.22026922139254" lon="13.838398918502346"><ele>586.0</ele><time>2026-05-02T09:13:13.999Z</time></trkpt><trkpt lat="42.22024538132528" lon="13.838513027736846"><ele>586.0</ele><time>2026-05-02T09:13:14.999Z</time></trkpt><trkpt lat="42.22023919422347" lon="13.838638358072286"><ele>588.1666666666667</ele><time>2026-05-02T09:13:15.999Z</time></trkpt><trkpt lat="42.22027202707093" lon="13.838725411740395"><ele>590.3333333333334</ele><time>2026-05-02T09:13:16.999Z</time></trkpt><trkpt lat="42.220263890318705" lon="13.8388217736248"><ele>592.5</ele><time>2026-05-02T09:13:17.999Z</time></trkpt><trkpt lat="42.22023862072593" lon="13.83891903955865"><ele>594.6666666666666</ele><time>2026-05-02T09:13:18.999Z</time></trkpt><trkpt lat="42.220187455411015" lon="13.839017045125296"><ele>596.8333333333333</ele><time>2026-05-02T09:13:19.999Z</time></trkpt><trkpt lat="42.22011535732448" lon="13.839130437995701"><ele>599.0</ele><time>2026-05-02T09:13:20.999Z</time></trkpt><trkpt lat="42.22005837390044" lon="13.839250610229138"><ele>604.75</ele><time>2026-05-02T09:13:21.999Z</time></trkpt><trkpt lat="42.219999040239074" lon="13.839373105154715"><ele>610.5</ele><time>2026-05-02T09:13:22.999Z</time></trkpt><trkpt lat="42.219922045129024" lon="13.839494429274156"><ele>616.25</ele><time>2026-05-02T09:13:23.999Z</time></trkpt><trkpt lat="42.21982670327544" lon="13.839630774825471"><ele>622.0</ele><time>2026-05-02T09:13:24.999Z</time></trkpt><trkpt lat="42.21972565835731" lon="13.839775107605341"><ele>617.0</ele><time>2026-05-02T09:13:25.999Z</time></trkpt><trkpt lat="42.21962148873851" lon="13.839902718421754"><ele>612.0</ele><time>2026-05-02T09:13:26.999Z</time></trkpt><trkpt lat="42.21952619386266" lon="13.840030040290573"><ele>607.0</ele><time>2026-05-02T09:13:27.999Z</time></trkpt><trkpt lat="42.21944351406454" lon="13.840152114062784"><ele>602.0</ele><time>2026-05-02T09:13:28.999Z</time></trkpt><trkpt lat="42.21937098447766" lon="13.840268411615233"><ele>602.0</ele><time>2026-05-02T09:13:29.999Z</time></trkpt><trkpt lat="42.21930861875792" lon="13.840368670760807"><ele>602.0</ele><time>2026-05-02T09:13:30.999Z</time></trkpt><trkpt lat="42.21925552083419" lon="13.840460137161703"><ele>602.0</ele><time>2026-05-02T09:13:31.999Z</time></trkpt><trkpt lat="42.21919504453549" lon="13.840522080471358"><ele>602.0</ele><time>2026-05-02T09:13:32.999Z</time></trkpt><trkpt lat="42.21914667270797" lon="13.840590544859136"><ele>602.0</ele><time>2026-05-02T09:13:33.999Z</time></trkpt><trkpt lat="42.219091539643465" lon="13.84066835903271"><ele>602.0</ele><time>2026-05-02T09:13:35.999Z</time></trkpt><trkpt lat="42.21902148180109" lon="13.840600265231883"><ele>602.0</ele><time>2026-05-02T09:13:37.999Z</time></trkpt><trkpt lat="42.219034392988846" lon="13.840512179560541"><ele>602.0</ele><time>2026-05-02T09:13:38.999Z</time></trkpt><trkpt lat="42.21908662285568" lon="13.840431748690913"><ele>602.0</ele><time>2026-05-02T09:13:39.999Z</time></trkpt><trkpt lat="42.21915476813013" lon="13.84033003106807"><ele>602.0</ele><time>2026-05-02T09:13:40.999Z</time></trkpt><trkpt lat="42.21921449128596" lon="13.840203506928056"><ele>602.0</ele><time>2026-05-02T09:13:41.999Z</time></trkpt><trkpt lat="42.21927677167753" lon="13.840061847593162"><ele>594.75</ele><time>2026-05-02T09:13:42.999Z</time></trkpt><trkpt lat="42.21933744849261" lon="13.839914063568582"><ele>587.5</ele><time>2026-05-02T09:13:43.999Z</time></trkpt><trkpt lat="42.219395716328194" lon="13.839771091555846"><ele>580.25</ele><time>2026-05-02T09:13:44.999Z</time></trkpt><trkpt lat="42.2194491911244" lon="13.839633292843146"><ele>573.0</ele><time>2026-05-02T09:13:45.999Z</time></trkpt><trkpt lat="42.219500862352184" lon="13.839500140908804"><ele>573.0</ele><time>2026-05-02T09:13:46.999Z</time></trkpt><trkpt lat="42.219537199711354" lon="13.839362881590239"><ele>573.0</ele><time>2026-05-02T09:13:47.999Z</time></trkpt><trkpt lat="42.21960126418404" lon="13.839253255721589"><ele>573.0</ele><time>2026-05-02T09:13:48.999Z</time></trkpt><trkpt lat="42.21964995039995" lon="13.839141031107406"><ele>573.0</ele><time>2026-05-02T09:13:49.999Z</time></trkpt><trkpt lat="42.21969507666891" lon="13.839032876365387"><ele>573.0</ele><time>2026-05-02T09:13:50.999Z</time></trkpt><trkpt lat="42.21973161405911" lon="13.838934400014516"><ele>569.0</ele><time>2026-05-02T09:13:51.999Z</time></trkpt><trkpt lat="42.21977009133574" lon="13.838842463097942"><ele>565.0</ele><time>2026-05-02T09:13:52.999Z</time></trkpt><trkpt lat="42.21978357619597" lon="13.838735528518598"><ele>561.0</ele><time>2026-05-02T09:13:53.999Z</time></trkpt><trkpt lat="42.21978045924136" lon="13.838606579503288"><ele>557.0</ele><time>2026-05-02T09:13:54.999Z</time></trkpt><trkpt lat="42.21975690359259" lon="13.838474439323459"><ele>553.0</ele><time>2026-05-02T09:13:55.999Z</time></trkpt><trkpt lat="42.21972988622759" lon="13.838344950870566"><ele>549.1999999999999</ele><time>2026-05-02T09:13:56.999Z</time></trkpt><trkpt lat="42.21970477345571" lon="13.838213926811743"><ele>545.4</ele><time>2026-05-02T09:13:57.999Z</time></trkpt><trkpt lat="42.21969122175244" lon="13.838067431670417"><ele>541.5999999999999</ele><time>2026-05-02T09:13:58.999Z</time></trkpt><trkpt lat="42.2196828057766" lon="13.837916052904621"><ele>537.8</ele><time>2026-05-02T09:13:59.999Z</time></trkpt><trkpt lat="42.21968033602864" lon="13.837765665794628"><ele>534.0</ele><time>2026-05-02T09:14:00.999Z</time></trkpt><trkpt lat="42.219676443353926" lon="13.83761155346955"><ele>531.75</ele><time>2026-05-02T09:14:01.999Z</time></trkpt><trkpt lat="42.21968883622388" lon="13.837454402964433"><ele>529.5</ele><time>2026-05-02T09:14:02.999Z</time></trkpt><trkpt lat="42.21969941618591" lon="13.837290423363974"><ele>527.25</ele><time>2026-05-02T09:14:03.999Z</time></trkpt><trkpt lat="42.219715978591765" lon="13.83712839230292"><ele>525.0</ele><time>2026-05-02T09:14:04.999Z</time></trkpt><trkpt lat="42.219739173862344" lon="13.836982381302965"><ele>525.0</ele><time>2026-05-02T09:14:05.999Z</time></trkpt><trkpt lat="42.21976825295283" lon="13.83684013470486"><ele>525.0</ele><time>2026-05-02T09:14:06.999Z</time></trkpt><trkpt lat="42.219803630791084" lon="13.83669692965051"><ele>525.0</ele><time>2026-05-02T09:14:07.999Z</time></trkpt><trkpt lat="42.219845820687375" lon="13.836551703623481"><ele>525.0</ele><time>2026-05-02T09:14:08.999Z</time></trkpt><trkpt lat="42.21989210333851" lon="13.8364154715032"><ele>525.0</ele><time>2026-05-02T09:14:09.999Z</time></trkpt><trkpt lat="42.21993703362176" lon="13.836300020822918"><ele>526.8333333333334</ele><time>2026-05-02T09:14:10.999Z</time></trkpt><trkpt lat="42.21997995313652" lon="13.836200254847991"><ele>528.6666666666666</ele><time>2026-05-02T09:14:11.999Z</time></trkpt><trkpt lat="42.22002083945111" lon="13.83611557085747"><ele>530.5</ele><time>2026-05-02T09:14:12.999Z</time></trkpt><trkpt lat="42.22006644127049" lon="13.836048502563832"><ele>532.3333333333333</ele><time>2026-05-02T09:14:13.999Z</time></trkpt><trkpt lat="42.22011541028756" lon="13.83598329346559"><ele>534.1666666666666</ele><time>2026-05-02T09:14:14.999Z</time></trkpt><trkpt lat="42.22014766546216" lon="13.835795538271002"><ele>536.0</ele><time>2026-05-02T09:14:16.999Z</time></trkpt><trkpt lat="42.220056805639295" lon="13.835776515745422"><ele>536.0</ele><time>2026-05-02T09:14:17.999Z</time></trkpt><trkpt lat="42.21995361406241" lon="13.835862722941528"><ele>536.0</ele><time>2026-05-02T09:14:19.999Z</time></trkpt><trkpt lat="42.21989641185661" lon="13.835932722638589"><ele>536.0</ele><time>2026-05-02T09:14:20.999Z</time></trkpt><trkpt lat="42.219821922739804" lon="13.836035499901799"><ele>536.0</ele><time>2026-05-02T09:14:21.999Z</time></trkpt><trkpt lat="42.219745140912664" lon="13.836151741360151"><ele>536.0</ele><time>2026-05-02T09:14:22.999Z</time></trkpt><trkpt lat="42.219670062958265" lon="13.83627056392944"><ele>529.75</ele><time>2026-05-02T09:14:23.999Z</time></trkpt><trkpt lat="42.21959578174922" lon="13.836390122507224"><ele>523.5</ele><time>2026-05-02T09:14:24.999Z</time></trkpt><trkpt lat="42.21951796895012" lon="13.836511160854597"><ele>517.25</ele><time>2026-05-02T09:14:25.999Z</time></trkpt><trkpt lat="42.219461913835524" lon="13.836652899665006"><ele>511.0</ele><time>2026-05-02T09:14:26.999Z</time></trkpt><trkpt lat="42.21940142468055" lon="13.83678847201318"><ele>514.5</ele><time>2026-05-02T09:14:27.999Z</time></trkpt><trkpt lat="42.21934291554899" lon="13.836930354651065"><ele>518.0</ele><time>2026-05-02T09:14:28.999Z</time></trkpt><trkpt lat="42.2192817080738" lon="13.837068994569666"><ele>521.5</ele><time>2026-05-02T09:14:29.999Z</time></trkpt><trkpt lat="42.219218911084276" lon="13.837209193180554"><ele>525.0</ele><time>2026-05-02T09:14:30.999Z</time></trkpt><trkpt lat="42.219156831592684" lon="13.83733951575345"><ele>525.0</ele><time>2026-05-02T09:14:31.999Z</time></trkpt><trkpt lat="42.219093753273775" lon="13.83746354937598"><ele>525.0</ele><time>2026-05-02T09:14:32.999Z</time></trkpt><trkpt lat="42.21904976319032" lon="13.837599047416054"><ele>525.0</ele><time>2026-05-02T09:14:33.999Z</time></trkpt><trkpt lat="42.21901272092334" lon="13.837733667835215"><ele>525.0</ele><time>2026-05-02T09:14:34.999Z</time></trkpt><trkpt lat="42.21900126386014" lon="13.837869971881153"><ele>525.0</ele><time>2026-05-02T09:14:35.999Z</time></trkpt><trkpt lat="42.218983844173536" lon="13.838003953574804"><ele>521.0</ele><time>2026-05-02T09:14:36.999Z</time></trkpt><trkpt lat="42.21897376189145" lon="13.838137687038918"><ele>517.0</ele><time>2026-05-02T09:14:37.999Z</time></trkpt><trkpt lat="42.21895823170022" lon="13.838272067292307"><ele>513.0</ele><time>2026-05-02T09:14:38.999Z</time></trkpt><trkpt lat="42.21891946163272" lon="13.838386450078307"><ele>509.0</ele><time>2026-05-02T09:14:39.999Z</time></trkpt><trkpt lat="42.21885723209884" lon="13.838481205173572"><ele>505.0</ele><time>2026-05-02T09:14:40.999Z</time></trkpt><trkpt lat="42.218777191710245" lon="13.83857401652088"><ele>505.0</ele><time>2026-05-02T09:14:41.999Z</time></trkpt><trkpt lat="42.2186898790292" lon="13.838659184346442"><ele>505.0</ele><time>2026-05-02T09:14:42.999Z</time></trkpt><trkpt lat="42.218590763036595" lon="13.838728508605831"><ele>505.0</ele><time>2026-05-02T09:14:43.999Z</time></trkpt><trkpt lat="42.218503217870186" lon="13.838826840248514"><ele>505.0</ele><time>2026-05-02T09:14:44.999Z</time></trkpt><trkpt lat="42.2184269960853" lon="13.83894551910088"><ele>505.0</ele><time>2026-05-02T09:14:45.999Z</time></trkpt><trkpt lat="42.21834478492489" lon="13.839069701316458"><ele>505.0</ele><time>2026-05-02T09:14:46.999Z</time></trkpt><trkpt lat="42.21825906142621" lon="13.839195107185436"><ele>505.0</ele><time>2026-05-02T09:14:47.999Z</time></trkpt><trkpt lat="42.218169305408644" lon="13.839319192866675"><ele>505.0</ele><time>2026-05-02T09:14:48.999Z</time></trkpt><trkpt lat="42.21807680564089" lon="13.839436150626309"><ele>501.5</ele><time>2026-05-02T09:14:49.999Z</time></trkpt><trkpt lat="42.21798717858192" lon="13.839546558530559"><ele>498.0</ele><time>2026-05-02T09:14:50.999Z</time></trkpt><trkpt lat="42.21790269277028" lon="13.839653461552198"><ele>494.5</ele><time>2026-05-02T09:14:51.999Z</time></trkpt><trkpt lat="42.21781727784829" lon="13.839766627005448"><ele>491.0</ele><time>2026-05-02T09:14:52.999Z</time></trkpt><trkpt lat="42.21771402416947" lon="13.839857374656665"><ele>491.0</ele><time>2026-05-02T09:14:53.999Z</time></trkpt><trkpt lat="42.21761800709026" lon="13.83996070611271"><ele>491.0</ele><time>2026-05-02T09:14:54.999Z</time></trkpt><trkpt lat="42.217519862308755" lon="13.840067181725997"><ele>491.0</ele><time>2026-05-02T09:14:55.999Z</time></trkpt><trkpt lat="42.217403714691415" lon="13.840160534957693"><ele>491.0</ele><time>2026-05-02T09:14:56.999Z</time></trkpt><trkpt lat="42.2172916445782" lon="13.840256259674767"><ele>488.25</ele><time>2026-05-02T09:14:57.999Z</time></trkpt><trkpt lat="42.217188834938284" lon="13.84034716578118"><ele>485.5</ele><time>2026-05-02T09:14:58.999Z</time></trkpt><trkpt lat="42.217091691279116" lon="13.840447644133953"><ele>482.75</ele><time>2026-05-02T09:14:59.999Z</time></trkpt><trkpt lat="42.21699312796141" lon="13.840535460924198"><ele>480.0</ele><time>2026-05-02T09:15:00.999Z</time></trkpt><trkpt lat="42.21688752667886" lon="13.840594017060353"><ele>480.0</ele><time>2026-05-02T09:15:01.999Z</time></trkpt><trkpt lat="42.2167933176434" lon="13.840665955456371"><ele>480.0</ele><time>2026-05-02T09:15:02.999Z</time></trkpt><trkpt lat="42.2166921522301" lon="13.84073003837683"><ele>480.0</ele><time>2026-05-02T09:15:03.999Z</time></trkpt><trkpt lat="42.21657869958697" lon="13.840805458740348"><ele>480.0</ele><time>2026-05-02T09:15:04.999Z</time></trkpt><trkpt lat="42.21648930349432" lon="13.840862247677673"><ele>480.0</ele><time>2026-05-02T09:15:05.999Z</time></trkpt><trkpt lat="42.21639005671744" lon="13.840924324245188"><ele>478.0</ele><time>2026-05-02T09:15:06.999Z</time></trkpt><trkpt lat="42.216283138698" lon="13.840967878582404"><ele>476.0</ele><time>2026-05-02T09:15:07.999Z</time></trkpt><trkpt lat="42.2161781526083" lon="13.841031279656766"><ele>474.0</ele><time>2026-05-02T09:15:08.999Z</time></trkpt><trkpt lat="42.21608659536073" lon="13.841086571017467"><ele>472.0</ele><time>2026-05-02T09:15:09.999Z</time></trkpt><trkpt lat="42.215993217855015" lon="13.841139018003428"><ele>470.0</ele><time>2026-05-02T09:15:10.999Z</time></trkpt><trkpt lat="42.21589073597115" lon="13.84119176299105"><ele>469.99999999999994</ele><time>2026-05-02T09:15:11.999Z</time></trkpt><trkpt lat="42.2157934464508" lon="13.841228719794675"><ele>470.0</ele><time>2026-05-02T09:15:12.999Z</time></trkpt><trkpt lat="42.21569920450333" lon="13.841247334750285"><ele>470.0</ele><time>2026-05-02T09:15:13.999Z</time></trkpt><trkpt lat="42.21563060345602" lon="13.841253352497437"><ele>470.0</ele><time>2026-05-02T09:15:14.999Z</time></trkpt><trkpt lat="42.21555186090553" lon="13.841250336691632"><ele>469.99999999999994</ele><time>2026-05-02T09:15:15.999Z</time></trkpt><trkpt lat="42.215477160981784" lon="13.841231853989171"><ele>470.0</ele><time>2026-05-02T09:15:16.999Z</time></trkpt><trkpt lat="42.21540775493558" lon="13.841153101330116"><ele>464.5</ele><time>2026-05-02T09:15:18.999Z</time></trkpt><trkpt lat="42.215332618314605" lon="13.840994613454798"><ele>459.0</ele><time>2026-05-02T09:15:20.999Z</time></trkpt><trkpt lat="42.2152806452087" lon="13.840850129287071"><ele>453.5</ele><time>2026-05-02T09:15:21.999Z</time></trkpt><trkpt lat="42.215228830638345" lon="13.840713796378276"><ele>448.0</ele><time>2026-05-02T09:15:22.999Z</time></trkpt><trkpt lat="42.21518728457848" lon="13.840592032678233"><ele>446.59999999999997</ele><time>2026-05-02T09:15:23.999Z</time></trkpt><trkpt lat="42.21516326393707" lon="13.840496623026059"><ele>445.19999999999993</ele><time>2026-05-02T09:15:24.999Z</time></trkpt><trkpt lat="42.215148587691935" lon="13.840366831664493"><ele>443.8</ele><time>2026-05-02T09:15:26.999Z</time></trkpt><trkpt lat="42.2151950250557" lon="13.840286792382884"><ele>442.4</ele><time>2026-05-02T09:15:27.999Z</time></trkpt><trkpt lat="42.215268452597094" lon="13.840197449321785"><ele>441.0</ele><time>2026-05-02T09:15:28.999Z</time></trkpt><trkpt lat="42.21536690493291" lon="13.840104646800851"><ele>440.6</ele><time>2026-05-02T09:15:29.999Z</time></trkpt><trkpt lat="42.21545548790462" lon="13.840004568081685"><ele>440.20000000000005</ele><time>2026-05-02T09:15:30.999Z</time></trkpt><trkpt lat="42.21555886953155" lon="13.839923544412407"><ele>439.79999999999995</ele><time>2026-05-02T09:15:31.999Z</time></trkpt><trkpt lat="42.215652279572346" lon="13.839843529338363"><ele>439.4</ele><time>2026-05-02T09:15:32.999Z</time></trkpt><trkpt lat="42.215731409104286" lon="13.83976108786272"><ele>439.0</ele><time>2026-05-02T09:15:33.999Z</time></trkpt><trkpt lat="42.21580139441624" lon="13.839687510753343"><ele>438.0</ele><time>2026-05-02T09:15:34.999Z</time></trkpt><trkpt lat="42.215860421739116" lon="13.839589221829875"><ele>437.0</ele><time>2026-05-02T09:15:35.999Z</time></trkpt><trkpt lat="42.21591272559081" lon="13.839460097035246"><ele>436.0</ele><time>2026-05-02T09:15:36.999Z</time></trkpt><trkpt lat="42.215980393361754" lon="13.83931894868689"><ele>435.0</ele><time>2026-05-02T09:15:37.999Z</time></trkpt><trkpt lat="42.21604029251273" lon="13.839175795820532"><ele>434.0</ele><time>2026-05-02T09:15:38.999Z</time></trkpt><trkpt lat="42.21609888753476" lon="13.83903342220749"><ele>434.0</ele><time>2026-05-02T09:15:39.999Z</time></trkpt><trkpt lat="42.216154985814164" lon="13.83889022167142"><ele>434.0</ele><time>2026-05-02T09:15:40.999Z</time></trkpt><trkpt lat="42.21619311837213" lon="13.838736364956405"><ele>434.0</ele><time>2026-05-02T09:15:41.999Z</time></trkpt><trkpt lat="42.21625749116927" lon="13.838601642314527"><ele>434.0</ele><time>2026-05-02T09:15:42.999Z</time></trkpt><trkpt lat="42.21630307270749" lon="13.838450005711785"><ele>431.25</ele><time>2026-05-02T09:15:43.999Z</time></trkpt><trkpt lat="42.216344920712466" lon="13.838294312688856"><ele>428.5</ele><time>2026-05-02T09:15:44.999Z</time></trkpt><trkpt lat="42.21638617922852" lon="13.838130051390818"><ele>425.75</ele><time>2026-05-02T09:15:45.999Z</time></trkpt><trkpt lat="42.21642568147477" lon="13.837964574989284"><ele>423.0</ele><time>2026-05-02T09:15:46.999Z</time></trkpt><trkpt lat="42.21646266090809" lon="13.837800136021393"><ele>423.0</ele><time>2026-05-02T09:15:47.999Z</time></trkpt><trkpt lat="42.21648597383966" lon="13.837635850569688"><ele>423.0</ele><time>2026-05-02T09:15:48.999Z</time></trkpt><trkpt lat="42.2165242123166" lon="13.837485436099692"><ele>423.0</ele><time>2026-05-02T09:15:49.998Z</time></trkpt><trkpt lat="42.21656540090635" lon="13.837342890659006"><ele>423.0</ele><time>2026-05-02T09:15:50.998Z</time></trkpt><trkpt lat="42.216595139050774" lon="13.837191378519536"><ele>423.0</ele><time>2026-05-02T09:15:51.998Z</time></trkpt><trkpt lat="42.21664568268246" lon="13.837043025801169"><ele>423.0</ele><time>2026-05-02T09:15:52.998Z</time></trkpt><trkpt lat="42.21668181156593" lon="13.836890584150332"><ele>423.0</ele><time>2026-05-02T09:15:53.998Z</time></trkpt><trkpt lat="42.21670769388051" lon="13.8367332468104"><ele>423.0</ele><time>2026-05-02T09:15:54.998Z</time></trkpt><trkpt lat="42.21676191480392" lon="13.836587252654025"><ele>420.0</ele><time>2026-05-02T09:15:55.998Z</time></trkpt><trkpt lat="42.21681277075094" lon="13.83643287039368"><ele>417.0</ele><time>2026-05-02T09:15:56.998Z</time></trkpt><trkpt lat="42.21687389027952" lon="13.83627725604445"><ele>414.0</ele><time>2026-05-02T09:15:57.998Z</time></trkpt><trkpt lat="42.21694341493082" lon="13.836125337787605"><ele>411.0</ele><time>2026-05-02T09:15:58.998Z</time></trkpt><trkpt lat="42.2170067564594" lon="13.835956851802402"><ele>411.0</ele><time>2026-05-02T09:15:59.998Z</time></trkpt><trkpt lat="42.21708938727985" lon="13.835799501048479"><ele>411.0</ele><time>2026-05-02T09:16:00.998Z</time></trkpt><trkpt lat="42.217186200687536" lon="13.835658051578571"><ele>411.0</ele><time>2026-05-02T09:16:01.998Z</time></trkpt><trkpt lat="42.21727068503142" lon="13.835512343352587"><ele>411.0</ele><time>2026-05-02T09:16:02.998Z</time></trkpt><trkpt lat="42.217349871929294" lon="13.835376658461543"><ele>411.0</ele><time>2026-05-02T09:16:03.998Z</time></trkpt><trkpt lat="42.21741855075898" lon="13.835257379695015"><ele>411.0</ele><time>2026-05-02T09:16:04.998Z</time></trkpt><trkpt lat="42.21747685225586" lon="13.835155697013352"><ele>411.0</ele><time>2026-05-02T09:16:05.998Z</time></trkpt><trkpt lat="42.21752916900512" lon="13.835056829544216"><ele>411.0</ele><time>2026-05-02T09:16:06.998Z</time></trkpt><trkpt lat="42.21756961663905" lon="13.834938262494651"><ele>411.0</ele><time>2026-05-02T09:16:07.998Z</time></trkpt><trkpt lat="42.21758436442334" lon="13.834799342542054"><ele>408.0</ele><time>2026-05-02T09:16:08.998Z</time></trkpt><trkpt lat="42.21757579727668" lon="13.834647707942729"><ele>405.0</ele><time>2026-05-02T09:16:09.998Z</time></trkpt><trkpt lat="42.217557997736556" lon="13.83449196996559"><ele>402.0</ele><time>2026-05-02T09:16:10.998Z</time></trkpt><trkpt lat="42.2175400694141" lon="13.834328910718693"><ele>399.0</ele><time>2026-05-02T09:16:11.998Z</time></trkpt><trkpt lat="42.21752151469167" lon="13.834159054335869"><ele>397.0</ele><time>2026-05-02T09:16:12.998Z</time></trkpt><trkpt lat="42.217503046742934" lon="13.833989992266325"><ele>395.0</ele><time>2026-05-02T09:16:13.998Z</time></trkpt><trkpt lat="42.21748268189873" lon="13.833823340597775"><ele>393.0</ele><time>2026-05-02T09:16:14.998Z</time></trkpt><trkpt lat="42.21746192208461" lon="13.833662496468367"><ele>391.0</ele><time>2026-05-02T09:16:15.998Z</time></trkpt><trkpt lat="42.21744524047138" lon="13.833505629955464"><ele>389.0</ele><time>2026-05-02T09:16:16.998Z</time></trkpt><trkpt lat="42.217432209664345" lon="13.833352072083056"><ele>387.0</ele><time>2026-05-02T09:16:17.998Z</time></trkpt><trkpt lat="42.21742212722335" lon="13.833195175146649"><ele>385.0</ele><time>2026-05-02T09:16:18.998Z</time></trkpt><trkpt lat="42.21741850291073" lon="13.833041680447167"><ele>383.0</ele><time>2026-05-02T09:16:19.998Z</time></trkpt><trkpt lat="42.217422928126545" lon="13.832879919945752"><ele>383.0</ele><time>2026-05-02T09:16:20.998Z</time></trkpt><trkpt lat="42.21743120094645" lon="13.832708174135341"><ele>383.0</ele><time>2026-05-02T09:16:21.998Z</time></trkpt><trkpt lat="42.217443645392414" lon="13.832527427776341"><ele>383.0</ele><time>2026-05-02T09:16:22.998Z</time></trkpt><trkpt lat="42.2174580198415" lon="13.832345930128499"><ele>383.0</ele><time>2026-05-02T09:16:23.998Z</time></trkpt><trkpt lat="42.21747523224174" lon="13.832164276906457"><ele>381.25</ele><time>2026-05-02T09:16:24.998Z</time></trkpt><trkpt lat="42.21749178849979" lon="13.831989652638642"><ele>379.5</ele><time>2026-05-02T09:16:25.998Z</time></trkpt><trkpt lat="42.2175073880949" lon="13.831825118612134"><ele>377.75</ele><time>2026-05-02T09:16:26.998Z</time></trkpt><trkpt lat="42.217508497622006" lon="13.83166520450083"><ele>376.0</ele><time>2026-05-02T09:16:27.998Z</time></trkpt><trkpt lat="42.21753741501308" lon="13.831520839926602"><ele>375.0</ele><time>2026-05-02T09:16:28.998Z</time></trkpt><trkpt lat="42.21755133247379" lon="13.831366770633768"><ele>374.0</ele><time>2026-05-02T09:16:29.998Z</time></trkpt><trkpt lat="42.217576332005784" lon="13.831211212277882"><ele>373.0</ele><time>2026-05-02T09:16:30.998Z</time></trkpt><trkpt lat="42.21761874397812" lon="13.83104638252253"><ele>372.0</ele><time>2026-05-02T09:16:31.998Z</time></trkpt><trkpt lat="42.217663565930955" lon="13.83088896221023"><ele>371.25</ele><time>2026-05-02T09:16:32.998Z</time></trkpt><trkpt lat="42.21769666704473" lon="13.83072467507223"><ele>370.5</ele><time>2026-05-02T09:16:33.998Z</time></trkpt><trkpt lat="42.21775493628118" lon="13.830591963894756"><ele>369.75</ele><time>2026-05-02T09:16:34.998Z</time></trkpt><trkpt lat="42.21779958811296" lon="13.830459445918468"><ele>369.0</ele><time>2026-05-02T09:16:35.998Z</time></trkpt><trkpt lat="42.21784849287713" lon="13.830329585986874"><ele>369.0</ele><time>2026-05-02T09:16:36.998Z</time></trkpt><trkpt lat="42.2179011556496" lon="13.830206898437982"><ele>369.0</ele><time>2026-05-02T09:16:37.998Z</time></trkpt><trkpt lat="42.21795266113927" lon="13.830078944303246"><ele>369.0</ele><time>2026-05-02T09:16:38.998Z</time></trkpt><trkpt lat="42.218003250623816" lon="13.829911177362261"><ele>369.0</ele><time>2026-05-02T09:16:39.998Z</time></trkpt><trkpt lat="42.21802958823721" lon="13.82972345869443"><ele>367.3333333333333</ele><time>2026-05-02T09:16:40.998Z</time></trkpt><trkpt lat="42.21803457741939" lon="13.829514914593808"><ele>365.66666666666663</ele><time>2026-05-02T09:16:41.998Z</time></trkpt><trkpt lat="42.2180217933036" lon="13.82930556372027"><ele>364.0</ele><time>2026-05-02T09:16:42.998Z</time></trkpt><trkpt lat="42.2180027554813" lon="13.829078898870705"><ele>363.0</ele><time>2026-05-02T09:16:43.998Z</time></trkpt><trkpt lat="42.2179824322249" lon="13.82884278915454"><ele>362.0</ele><time>2026-05-02T09:16:44.998Z</time></trkpt><trkpt lat="42.21796230681285" lon="13.828613099837499"><ele>361.0</ele><time>2026-05-02T09:16:45.998Z</time></trkpt><trkpt lat="42.21794096139439" lon="13.828359223363618"><ele>359.3333333333333</ele><time>2026-05-02T09:16:46.998Z</time></trkpt><trkpt lat="42.21792145336023" lon="13.828114255712203"><ele>357.6666666666667</ele><time>2026-05-02T09:16:47.998Z</time></trkpt><trkpt lat="42.217904509690925" lon="13.827890446012077"><ele>356.0</ele><time>2026-05-02T09:16:48.998Z</time></trkpt><trkpt lat="42.21789251680511" lon="13.827692604420637"><ele>354.25</ele><time>2026-05-02T09:16:49.998Z</time></trkpt><trkpt lat="42.217881916215326" lon="13.827498822816816"><ele>352.5</ele><time>2026-05-02T09:16:50.998Z</time></trkpt><trkpt lat="42.21787719880109" lon="13.827351447452454"><ele>350.75</ele><time>2026-05-02T09:16:51.998Z</time></trkpt><trkpt lat="42.21787640599555" lon="13.827185133150373"><ele>349.0</ele><time>2026-05-02T09:16:52.998Z</time></trkpt><trkpt lat="42.21787640599642" lon="13.827041431300357"><ele>349.0</ele><time>2026-05-02T09:16:53.998Z</time></trkpt><trkpt lat="42.217871680606" lon="13.826933932394292"><ele>349.0</ele><time>2026-05-02T09:16:54.998Z</time></trkpt><trkpt lat="42.21783921933848" lon="13.82685271789088"><ele>349.0</ele><time>2026-05-02T09:16:55.998Z</time></trkpt><trkpt lat="42.21777137936564" lon="13.826717874411312"><ele>349.0</ele><time>2026-05-02T09:16:57.998Z</time></trkpt><trkpt lat="42.217700343105015" lon="13.8266873126885"><ele>349.0</ele><time>2026-05-02T09:16:58.998Z</time></trkpt><trkpt lat="42.21762880873926" lon="13.826625423483417"><ele>349.0</ele><time>2026-05-02T09:16:59.998Z</time></trkpt><trkpt lat="42.21753304318474" lon="13.826563297894888"><ele>347.6</ele><time>2026-05-02T09:17:00.998Z</time></trkpt><trkpt lat="42.2174544016424" lon="13.826508701638705"><ele>346.2</ele><time>2026-05-02T09:17:01.998Z</time></trkpt><trkpt lat="42.21739389116316" lon="13.826461012620644"><ele>344.8</ele><time>2026-05-02T09:17:02.998Z</time></trkpt><trkpt lat="42.21733721631388" lon="13.826358072681083"><ele>343.40000000000003</ele><time>2026-05-02T09:17:04.998Z</time></trkpt><trkpt lat="42.21738886733458" lon="13.826250436894867"><ele>342.0</ele><time>2026-05-02T09:17:05.998Z</time></trkpt><trkpt lat="42.217457019143524" lon="13.826141134983205"><ele>342.0</ele><time>2026-05-02T09:17:06.998Z</time></trkpt><trkpt lat="42.21754599046038" lon="13.826026216627012"><ele>342.0</ele><time>2026-05-02T09:17:07.998Z</time></trkpt><trkpt lat="42.21761778283012" lon="13.825910417059236"><ele>342.0</ele><time>2026-05-02T09:17:08.998Z</time></trkpt><trkpt lat="42.21767638269262" lon="13.82582590363898"><ele>342.0</ele><time>2026-05-02T09:17:09.998Z</time></trkpt><trkpt lat="42.21773480016855" lon="13.825740041891013"><ele>342.0</ele><time>2026-05-02T09:17:10.998Z</time></trkpt><trkpt lat="42.217782215288" lon="13.825645568564406"><ele>339.8</ele><time>2026-05-02T09:17:11.998Z</time></trkpt><trkpt lat="42.21778012637199" lon="13.82554729582202"><ele>337.6</ele><time>2026-05-02T09:17:12.998Z</time></trkpt><trkpt lat="42.21777864166205" lon="13.82545620663397"><ele>335.40000000000003</ele><time>2026-05-02T09:17:13.998Z</time></trkpt><trkpt lat="42.21773223533931" lon="13.825358434904606"><ele>333.20000000000005</ele><time>2026-05-02T09:17:14.998Z</time></trkpt><trkpt lat="42.217672171604804" lon="13.825210695130238"><ele>331.0</ele><time>2026-05-02T09:17:15.998Z</time></trkpt><trkpt lat="42.217575989910365" lon="13.825154445459232"><ele>329.6</ele><time>2026-05-02T09:17:16.998Z</time></trkpt><trkpt lat="42.217463068742234" lon="13.825125709887915"><ele>328.20000000000005</ele><time>2026-05-02T09:17:17.998Z</time></trkpt><trkpt lat="42.21735543280476" lon="13.825106396771497"><ele>326.79999999999995</ele><time>2026-05-02T09:17:18.998Z</time></trkpt><trkpt lat="42.21725260533046" lon="13.825096195650849"><ele>325.4</ele><time>2026-05-02T09:17:19.998Z</time></trkpt><trkpt lat="42.21717769233118" lon="13.825073821826182"><ele>324.0</ele><time>2026-05-02T09:17:20.998Z</time></trkpt><trkpt lat="42.21710272066431" lon="13.82499189531294"><ele>323.5</ele><time>2026-05-02T09:17:22.998Z</time></trkpt><trkpt lat="42.217061308585194" lon="13.824911691721582"><ele>323.0</ele><time>2026-05-02T09:17:23.998Z</time></trkpt><trkpt lat="42.216999103294185" lon="13.824788474140458"><ele>322.5</ele><time>2026-05-02T09:17:24.998Z</time></trkpt><trkpt lat="42.21691932376222" lon="13.824640298032591"><ele>322.0</ele><time>2026-05-02T09:17:25.998Z</time></trkpt><trkpt lat="42.2168489565346" lon="13.82447358977216"><ele>322.0</ele><time>2026-05-02T09:17:26.998Z</time></trkpt><trkpt lat="42.21677510414253" lon="13.824342770093436"><ele>322.0</ele><time>2026-05-02T09:17:27.998Z</time></trkpt><trkpt lat="42.21672446737362" lon="13.824204276426768"><ele>322.0</ele><time>2026-05-02T09:17:28.998Z</time></trkpt><trkpt lat="42.21667416499196" lon="13.824068206714117"><ele>322.0</ele><time>2026-05-02T09:17:29.998Z</time></trkpt><trkpt lat="42.21661275330343" lon="13.82392453361544"><ele>321.25</ele><time>2026-05-02T09:17:30.998Z</time></trkpt><trkpt lat="42.21655610424228" lon="13.823768467231794"><ele>320.5</ele><time>2026-05-02T09:17:31.998Z</time></trkpt><trkpt lat="42.21649863045438" lon="13.823620433993463"><ele>319.75</ele><time>2026-05-02T09:17:32.998Z</time></trkpt><trkpt lat="42.21643062683268" lon="13.823452413271104"><ele>319.0</ele><time>2026-05-02T09:17:33.998Z</time></trkpt><trkpt lat="42.216369228837195" lon="13.823311015102156"><ele>317.5</ele><time>2026-05-02T09:17:34.998Z</time></trkpt><trkpt lat="42.21630932994619" lon="13.823163440112358"><ele>316.0</ele><time>2026-05-02T09:17:35.998Z</time></trkpt><trkpt lat="42.21625008699528" lon="13.8230100952351"><ele>314.5</ele><time>2026-05-02T09:17:36.998Z</time></trkpt><trkpt lat="42.2161886138192" lon="13.82284018589254"><ele>313.0</ele><time>2026-05-02T09:17:37.998Z</time></trkpt><trkpt lat="42.21612946315244" lon="13.822703163517408"><ele>313.4</ele><time>2026-05-02T09:17:38.998Z</time></trkpt><trkpt lat="42.21606445094399" lon="13.822580581766896"><ele>313.8</ele><time>2026-05-02T09:17:39.998Z</time></trkpt><trkpt lat="42.21599479776528" lon="13.82248176855032"><ele>314.2</ele><time>2026-05-02T09:17:40.998Z</time></trkpt><trkpt lat="42.21593420637102" lon="13.822398593098056"><ele>314.6</ele><time>2026-05-02T09:17:41.998Z</time></trkpt><trkpt lat="42.21584038567195" lon="13.822344964399868"><ele>315.0</ele><time>2026-05-02T09:17:42.998Z</time></trkpt><trkpt lat="42.215746874206964" lon="13.822316918565349"><ele>315.5</ele><time>2026-05-02T09:17:43.998Z</time></trkpt><trkpt lat="42.215623952186995" lon="13.822285845779339"><ele>316.0</ele><time>2026-05-02T09:17:44.998Z</time></trkpt><trkpt lat="42.21549565455987" lon="13.822314719729357"><ele>316.5</ele><time>2026-05-02T09:17:45.998Z</time></trkpt><trkpt lat="42.21537896595079" lon="13.822360967953113"><ele>317.0</ele><time>2026-05-02T09:17:46.998Z</time></trkpt><trkpt lat="42.215255080320425" lon="13.822424990517591"><ele>317.0</ele><time>2026-05-02T09:17:47.998Z</time></trkpt><trkpt lat="42.21513381636178" lon="13.82252134414087"><ele>317.0</ele><time>2026-05-02T09:17:48.998Z</time></trkpt><trkpt lat="42.215030527445414" lon="13.822557743740962"><ele>317.0</ele><time>2026-05-02T09:17:49.998Z</time></trkpt><trkpt lat="42.21492487430537" lon="13.822618526480067"><ele>317.0</ele><time>2026-05-02T09:17:50.998Z</time></trkpt><trkpt lat="42.21481843472858" lon="13.822679761693072"><ele>317.0</ele><time>2026-05-02T09:17:51.998Z</time></trkpt><trkpt lat="42.214726312022364" lon="13.822731449123038"><ele>317.0</ele><time>2026-05-02T09:17:52.998Z</time></trkpt><trkpt lat="42.21461031110559" lon="13.822783589897192"><ele>317.0</ele><time>2026-05-02T09:17:54.998Z</time></trkpt><trkpt lat="42.2145307457081" lon="13.822798465523963"><ele>317.0</ele><time>2026-05-02T09:17:55.998Z</time></trkpt><trkpt lat="42.2144464194333" lon="13.822773206250321"><ele>317.0</ele><time>2026-05-02T09:17:56.998Z</time></trkpt><trkpt lat="42.21435645859038" lon="13.822682077154708"><ele>317.0</ele><time>2026-05-02T09:17:57.998Z</time></trkpt><trkpt lat="42.2142678635749" lon="13.82263815729502"><ele>317.0</ele><time>2026-05-02T09:17:58.998Z</time></trkpt><trkpt lat="42.214223751482464" lon="13.822567024378456"><ele>317.0</ele><time>2026-05-02T09:17:59.998Z</time></trkpt><trkpt lat="42.21416317251194" lon="13.822425514204264"><ele>317.0</ele><time>2026-05-02T09:18:01.998Z</time></trkpt><trkpt lat="42.214133765855514" lon="13.822349067251794"><ele>317.0</ele><time>2026-05-02T09:18:02.998Z</time></trkpt><trkpt lat="42.21410082078421" lon="13.822232345304121"><ele>317.0</ele><time>2026-05-02T09:18:04.998Z</time></trkpt><trkpt lat="42.21405096225686" lon="13.822176684417256"><ele>317.0</ele><time>2026-05-02T09:18:07.998Z</time></trkpt><trkpt lat="42.21410225710847" lon="13.821987476107694"><ele>317.0</ele><time>2026-05-02T09:18:12.998Z</time></trkpt><trkpt lat="42.214178996706465" lon="13.821937393092835"><ele>317.0</ele><time>2026-05-02T09:18:13.998Z</time></trkpt><trkpt lat="42.21423704597419" lon="13.821850062815546"><ele>317.0</ele><time>2026-05-02T09:18:14.998Z</time></trkpt><trkpt lat="42.21430137945442" lon="13.821790836463084"><ele>317.0</ele><time>2026-05-02T09:18:15.998Z</time></trkpt><trkpt lat="42.21438364010391" lon="13.821720240897655"><ele>317.33333333333337</ele><time>2026-05-02T09:18:16.998Z</time></trkpt><trkpt lat="42.214435594393066" lon="13.821629725962874"><ele>317.6666666666667</ele><time>2026-05-02T09:18:17.998Z</time></trkpt><trkpt lat="42.2144827225079" lon="13.821559089499717"><ele>318.0</ele><time>2026-05-02T09:18:18.998Z</time></trkpt><trkpt lat="42.214572673659355" lon="13.821535491605232"><ele>318.3333333333333</ele><time>2026-05-02T09:18:19.998Z</time></trkpt><trkpt lat="42.21463797710145" lon="13.821455789605313"><ele>318.66666666666663</ele><time>2026-05-02T09:18:20.998Z</time></trkpt><trkpt lat="42.214679292136054" lon="13.821359955581912"><ele>319.0</ele><time>2026-05-02T09:18:21.998Z</time></trkpt><trkpt lat="42.214733079567885" lon="13.821262867150194"><ele>319.0</ele><time>2026-05-02T09:18:22.998Z</time></trkpt><trkpt lat="42.214769007575825" lon="13.821166740618844"><ele>319.0</ele><time>2026-05-02T09:18:23.998Z</time></trkpt><trkpt lat="42.214873841141426" lon="13.821083030954847"><ele>319.0</ele><time>2026-05-02T09:18:25.998Z</time></trkpt><trkpt lat="42.21496590474182" lon="13.820987568956447"><ele>319.0</ele><time>2026-05-02T09:18:27.998Z</time></trkpt><trkpt lat="42.21502631706721" lon="13.820859440963527"><ele>319.0</ele><time>2026-05-02T09:18:29.998Z</time></trkpt><trkpt lat="42.21503552110649" lon="13.820739620505291"><ele>319.0</ele><time>2026-05-02T09:18:31.998Z</time></trkpt><trkpt lat="42.215086535625026" lon="13.820562854095591"><ele>319.0</ele><time>2026-05-02T09:19:46Z</time></trkpt><trkpt lat="42.21507214302908" lon="13.820475577484993"><ele>319.0</ele><time>2026-05-02T09:20:37Z</time></trkpt><trkpt lat="42.21500597934159" lon="13.82045207654377"><ele>319.0</ele><time>2026-05-02T09:20:45Z</time></trkpt><trkpt lat="42.21512978328453" lon="13.820393949327926"><ele>319.0</ele><time>2026-05-02T09:22:58.998Z</time></trkpt><trkpt lat="42.21521100927272" lon="13.820444438343065"><ele>319.0</ele><time>2026-05-02T09:24:00.998Z</time></trkpt><trkpt lat="42.215291529574095" lon="13.82044426560308"><ele>319.0</ele><time>2026-05-02T09:24:03.998Z</time></trkpt><trkpt lat="42.215369296421116" lon="13.820419801559181"><ele>319.0</ele><time>2026-05-02T09:24:06.998Z</time></trkpt><trkpt lat="42.215419303485284" lon="13.820349093666104"><ele>319.0</ele><time>2026-05-02T09:24:07.998Z</time></trkpt><trkpt lat="42.21550987391548" lon="13.820249486478906"><ele>319.0</ele><time>2026-05-02T09:24:08.998Z</time></trkpt><trkpt lat="42.215591336591885" lon="13.820146244985787"><ele>319.0</ele><time>2026-05-02T09:24:09.998Z</time></trkpt><trkpt lat="42.215658107108915" lon="13.820047359777487"><ele>319.0</ele><time>2026-05-02T09:24:10.998Z</time></trkpt><trkpt lat="42.21572439226161" lon="13.819949322048327"><ele>319.0</ele><time>2026-05-02T09:24:11.998Z</time></trkpt><trkpt lat="42.21579391366418" lon="13.819852660469762"><ele>319.0</ele><time>2026-05-02T09:24:12.998Z</time></trkpt><trkpt lat="42.21586918698797" lon="13.819761642469851"><ele>319.0</ele><time>2026-05-02T09:24:13.998Z</time></trkpt><trkpt lat="42.215940363256145" lon="13.819663641266327"><ele>319.0</ele><time>2026-05-02T09:24:14.998Z</time></trkpt><trkpt lat="42.216011813284155" lon="13.819559246836302"><ele>319.0</ele><time>2026-05-02T09:24:15.998Z</time></trkpt><trkpt lat="42.216081350420055" lon="13.819455470892086"><ele>319.0</ele><time>2026-05-02T09:24:16.998Z</time></trkpt><trkpt lat="42.21614164473757" lon="13.819363490640013"><ele>319.0</ele><time>2026-05-02T09:24:17.998Z</time></trkpt><trkpt lat="42.21619601528148" lon="13.819289349818918"><ele>319.0</ele><time>2026-05-02T09:24:18.998Z</time></trkpt><trkpt lat="42.21623161696474" lon="13.81920477603077"><ele>319.0</ele><time>2026-05-02T09:24:19.998Z</time></trkpt><trkpt lat="42.21624643846398" lon="13.819103939158907"><ele>319.16666666666663</ele><time>2026-05-02T09:24:20.998Z</time></trkpt><trkpt lat="42.21624667701115" lon="13.818984383524269"><ele>319.3333333333333</ele><time>2026-05-02T09:24:21.998Z</time></trkpt><trkpt lat="42.216222426252216" lon="13.818870777540313"><ele>319.5</ele><time>2026-05-02T09:24:22.998Z</time></trkpt><trkpt lat="42.21621691185248" lon="13.81876888031982"><ele>319.6666666666667</ele><time>2026-05-02T09:24:23.998Z</time></trkpt><trkpt lat="42.216228228321626" lon="13.818664227147355"><ele>319.83333333333337</ele><time>2026-05-02T09:24:24.998Z</time></trkpt><trkpt lat="42.21626743129598" lon="13.818551138103969"><ele>320.0</ele><time>2026-05-02T09:24:25.998Z</time></trkpt><trkpt lat="42.21634297873218" lon="13.818437696947914"><ele>319.5</ele><time>2026-05-02T09:24:26.998Z</time></trkpt><trkpt lat="42.216441115387845" lon="13.818313448358593"><ele>319.0</ele><time>2026-05-02T09:24:27.998Z</time></trkpt><trkpt lat="42.21655334580487" lon="13.81818133314748"><ele>318.5</ele><time>2026-05-02T09:24:28.998Z</time></trkpt><trkpt lat="42.21668738855882" lon="13.818052190567167"><ele>318.0</ele><time>2026-05-02T09:24:29.998Z</time></trkpt><trkpt lat="42.216835427932715" lon="13.817926641282451"><ele>318.0</ele><time>2026-05-02T09:24:30.998Z</time></trkpt><trkpt lat="42.21699602658472" lon="13.817734341416038"><ele>318.0</ele><time>2026-05-02T09:24:31.998Z</time></trkpt><trkpt lat="42.217176476149625" lon="13.817604267553605"><ele>318.0</ele><time>2026-05-02T09:24:32.998Z</time></trkpt><trkpt lat="42.217374185021356" lon="13.817499587833593"><ele>318.3333333333333</ele><time>2026-05-02T09:24:33.998Z</time></trkpt><trkpt lat="42.217574217602014" lon="13.817409406885401"><ele>318.66666666666663</ele><time>2026-05-02T09:24:34.998Z</time></trkpt><trkpt lat="42.217753605567516" lon="13.817338840802403"><ele>319.0</ele><time>2026-05-02T09:24:35.998Z</time></trkpt><trkpt lat="42.217925111109444" lon="13.81730664135725"><ele>319.0</ele><time>2026-05-02T09:24:36.998Z</time></trkpt><trkpt lat="42.21808213559259" lon="13.817277072661543"><ele>319.0</ele><time>2026-05-02T09:24:37.998Z</time></trkpt><trkpt lat="42.21824090881026" lon="13.817261635649617"><ele>319.0</ele><time>2026-05-02T09:24:38.998Z</time></trkpt><trkpt lat="42.21841321417456" lon="13.817210935202976"><ele>319.0</ele><time>2026-05-02T09:24:39.998Z</time></trkpt><trkpt lat="42.21858954174993" lon="13.817187199222808"><ele>319.0</ele><time>2026-05-02T09:24:40.998Z</time></trkpt><trkpt lat="42.21878101904615" lon="13.817164069157883"><ele>319.0</ele><time>2026-05-02T09:24:41.998Z</time></trkpt><trkpt lat="42.21898522537907" lon="13.817158815039907"><ele>319.0</ele><time>2026-05-02T09:24:42.998Z</time></trkpt><trkpt lat="42.21918424171248" lon="13.81713166092707"><ele>319.0</ele><time>2026-05-02T09:24:43.998Z</time></trkpt><trkpt lat="42.21937348549253" lon="13.817087495242474"><ele>319.0</ele><time>2026-05-02T09:24:44.998Z</time></trkpt><trkpt lat="42.219557815523764" lon="13.817016908775768"><ele>319.0</ele><time>2026-05-02T09:24:45.998Z</time></trkpt><trkpt lat="42.21975906480641" lon="13.816989582915447"><ele>319.0</ele><time>2026-05-02T09:24:46.998Z</time></trkpt><trkpt lat="42.219943765252104" lon="13.816994493021928"><ele>319.0</ele><time>2026-05-02T09:24:47.998Z</time></trkpt><trkpt lat="42.220123319878944" lon="13.81703930428745"><ele>318.66666666666663</ele><time>2026-05-02T09:24:48.998Z</time></trkpt><trkpt lat="42.2202977552189" lon="13.817065384489828"><ele>318.3333333333333</ele><time>2026-05-02T09:24:49.998Z</time></trkpt><trkpt lat="42.220470068292265" lon="13.817105882443398"><ele>318.0</ele><time>2026-05-02T09:24:50.998Z</time></trkpt><trkpt lat="42.220644785181406" lon="13.81717164001248"><ele>317.6666666666667</ele><time>2026-05-02T09:24:51.998Z</time></trkpt><trkpt lat="42.22081949623907" lon="13.817222947703902"><ele>317.33333333333337</ele><time>2026-05-02T09:24:52.998Z</time></trkpt><trkpt lat="42.22099510346134" lon="13.817281819971395"><ele>317.0</ele><time>2026-05-02T09:24:53.998Z</time></trkpt><trkpt lat="42.22117354319148" lon="13.817343625784211"><ele>317.0</ele><time>2026-05-02T09:24:54.998Z</time></trkpt><trkpt lat="42.22135600518503" lon="13.817424467961471"><ele>317.0</ele><time>2026-05-02T09:24:55.998Z</time></trkpt><trkpt lat="42.22154391314802" lon="13.817451227230729"><ele>317.0</ele><time>2026-05-02T09:24:56.998Z</time></trkpt><trkpt lat="42.221745101071605" lon="13.817470083582156"><ele>317.0</ele><time>2026-05-02T09:24:57.998Z</time></trkpt><trkpt lat="42.22194124244178" lon="13.817468756654721"><ele>317.0</ele><time>2026-05-02T09:24:58.998Z</time></trkpt><trkpt lat="42.22213499538107" lon="13.817446287318274"><ele>317.0</ele><time>2026-05-02T09:24:59.998Z</time></trkpt><trkpt lat="42.22232152199197" lon="13.817407011824416"><ele>318.0</ele><time>2026-05-02T09:25:00.998Z</time></trkpt><trkpt lat="42.22250256744976" lon="13.817346138623364"><ele>319.0</ele><time>2026-05-02T09:25:01.998Z</time></trkpt><trkpt lat="42.222684633197105" lon="13.817270924293686"><ele>320.0</ele><time>2026-05-02T09:25:02.998Z</time></trkpt><trkpt lat="42.222853929523225" lon="13.817197442966094"><ele>320.0</ele><time>2026-05-02T09:25:03.998Z</time></trkpt><trkpt lat="42.22304980015115" lon="13.81710534182531"><ele>320.0</ele><time>2026-05-02T09:25:04.998Z</time></trkpt><trkpt lat="42.223239269968765" lon="13.816986142743515"><ele>320.0</ele><time>2026-05-02T09:25:05.998Z</time></trkpt><trkpt lat="42.2234184742366" lon="13.816856262133381"><ele>320.33333333333337</ele><time>2026-05-02T09:25:06.998Z</time></trkpt><trkpt lat="42.223612215689954" lon="13.816729724173468"><ele>320.6666666666667</ele><time>2026-05-02T09:25:07.998Z</time></trkpt><trkpt lat="42.22378397984867" lon="13.8165745566905"><ele>321.0</ele><time>2026-05-02T09:25:08.998Z</time></trkpt><trkpt lat="42.22393432572091" lon="13.81642863896008"><ele>319.3333333333333</ele><time>2026-05-02T09:25:09.998Z</time></trkpt><trkpt lat="42.22407849551804" lon="13.816265999476743"><ele>317.66666666666663</ele><time>2026-05-02T09:25:10.998Z</time></trkpt><trkpt lat="42.22425053848717" lon="13.816143841338201"><ele>316.0</ele><time>2026-05-02T09:25:11.998Z</time></trkpt><trkpt lat="42.22442645918778" lon="13.816033343835231"><ele>316.3333333333333</ele><time>2026-05-02T09:25:12.998Z</time></trkpt><trkpt lat="42.22457835969571" lon="13.81588845184187"><ele>316.6666666666667</ele><time>2026-05-02T09:25:13.998Z</time></trkpt><trkpt lat="42.22474555621208" lon="13.815767091814985"><ele>317.0</ele><time>2026-05-02T09:25:14.998Z</time></trkpt><trkpt lat="42.22493298664474" lon="13.815662077955674"><ele>317.0</ele><time>2026-05-02T09:25:15.998Z</time></trkpt><trkpt lat="42.22509789499789" lon="13.815558473007702"><ele>317.0</ele><time>2026-05-02T09:25:16.998Z</time></trkpt><trkpt lat="42.22526316237174" lon="13.81544781690343"><ele>317.0</ele><time>2026-05-02T09:25:17.998Z</time></trkpt><trkpt lat="42.2254422695422" lon="13.81536604782008"><ele>317.0</ele><time>2026-05-02T09:25:18.998Z</time></trkpt><trkpt lat="42.225649651330436" lon="13.815338360012582"><ele>317.0</ele><time>2026-05-02T09:25:19.998Z</time></trkpt><trkpt lat="42.225855701634615" lon="13.815278979055044"><ele>317.0</ele><time>2026-05-02T09:25:20.998Z</time></trkpt><trkpt lat="42.22606312452282" lon="13.815217858086204"><ele>317.0</ele><time>2026-05-02T09:25:21.998Z</time></trkpt><trkpt lat="42.22627268092894" lon="13.815169801813322"><ele>317.0</ele><time>2026-05-02T09:25:22.998Z</time></trkpt><trkpt lat="42.226473557032485" lon="13.81515664166949"><ele>317.0</ele><time>2026-05-02T09:25:23.998Z</time></trkpt><trkpt lat="42.22668230551372" lon="13.815097090591573"><ele>319.0</ele><time>2026-05-02T09:25:24.998Z</time></trkpt><trkpt lat="42.22687767861116" lon="13.8150513738106"><ele>321.0</ele><time>2026-05-02T09:25:25.998Z</time></trkpt><trkpt lat="42.22707841967054" lon="13.814999807358259"><ele>323.0</ele><time>2026-05-02T09:25:26.998Z</time></trkpt><trkpt lat="42.22727181999859" lon="13.814945214999952"><ele>321.6666666666667</ele><time>2026-05-02T09:25:27.998Z</time></trkpt><trkpt lat="42.22745956055557" lon="13.81489240997778"><ele>320.3333333333333</ele><time>2026-05-02T09:25:28.998Z</time></trkpt><trkpt lat="42.22765392301119" lon="13.814869880268573"><ele>319.0</ele><time>2026-05-02T09:25:29.998Z</time></trkpt><trkpt lat="42.22784427378557" lon="13.81483150913157"><ele>319.0</ele><time>2026-05-02T09:25:30.998Z</time></trkpt><trkpt lat="42.22803236865726" lon="13.814806409835164"><ele>319.0</ele><time>2026-05-02T09:25:31.998Z</time></trkpt><trkpt lat="42.22823307100724" lon="13.814807176281947"><ele>319.0</ele><time>2026-05-02T09:25:32.998Z</time></trkpt><trkpt lat="42.22841123569851" lon="13.814800740773958"><ele>319.0</ele><time>2026-05-02T09:25:33.998Z</time></trkpt><trkpt lat="42.22854901202559" lon="13.81474367076984"><ele>319.0</ele><time>2026-05-02T09:25:34.998Z</time></trkpt><trkpt lat="42.228670394529225" lon="13.814745590438"><ele>319.0</ele><time>2026-05-02T09:25:35.998Z</time></trkpt><trkpt lat="42.228781724505744" lon="13.814751329649887"><ele>319.0</ele><time>2026-05-02T09:25:36.998Z</time></trkpt><trkpt lat="42.22885998833764" lon="13.81480722722798"><ele>319.0</ele><time>2026-05-02T09:25:37.998Z</time></trkpt><trkpt lat="42.22895082366469" lon="13.814855509238335"><ele>319.0</ele><time>2026-05-02T09:25:38.998Z</time></trkpt><trkpt lat="42.229015789483796" lon="13.814933337495848"><ele>319.0</ele><time>2026-05-02T09:25:39.998Z</time></trkpt><trkpt lat="42.22909039789646" lon="13.814977570330614"><ele>319.0</ele><time>2026-05-02T09:25:40.998Z</time></trkpt><trkpt lat="42.2291577008926" lon="13.815030493556687"><ele>319.0</ele><time>2026-05-02T09:25:41.998Z</time></trkpt><trkpt lat="42.22921352258193" lon="13.815111505592993"><ele>319.0</ele><time>2026-05-02T09:25:42.998Z</time></trkpt><trkpt lat="42.229311499498756" lon="13.815105064516606"><ele>318.8333333333333</ele><time>2026-05-02T09:25:43.998Z</time></trkpt><trkpt lat="42.22937872668769" lon="13.815112037491069"><ele>318.66666666666663</ele><time>2026-05-02T09:25:44.998Z</time></trkpt><trkpt lat="42.229438327668795" lon="13.815142119969947"><ele>318.5</ele><time>2026-05-02T09:25:45.998Z</time></trkpt><trkpt lat="42.22950965320723" lon="13.815155029789166"><ele>318.3333333333333</ele><time>2026-05-02T09:25:47.997Z</time></trkpt><trkpt lat="42.22955641813644" lon="13.81524042884619"><ele>318.1666666666667</ele><time>2026-05-02T09:25:51.997Z</time></trkpt><trkpt lat="42.22961769168199" lon="13.815330834400088"><ele>318.0</ele><time>2026-05-02T09:25:53.997Z</time></trkpt><trkpt lat="42.22971149270184" lon="13.815455513451314"><ele>318.0</ele><time>2026-05-02T09:25:55.997Z</time></trkpt><trkpt lat="42.22977170442623" lon="13.815595301428127"><ele>318.0</ele><time>2026-05-02T09:25:57.997Z</time></trkpt><trkpt lat="42.22984206142022" lon="13.815736337704678"><ele>318.0</ele><time>2026-05-02T09:25:59.997Z</time></trkpt><trkpt lat="42.22988823615143" lon="13.815798952290214"><ele>318.0</ele><time>2026-05-02T09:26:00.997Z</time></trkpt><trkpt lat="42.229914028280795" lon="13.815877752163894"><ele>318.0</ele><time>2026-05-02T09:26:01.997Z</time></trkpt><trkpt lat="42.22995407338616" lon="13.816025963615543"><ele>317.6</ele><time>2026-05-02T09:26:03.997Z</time></trkpt><trkpt lat="42.22992933148197" lon="13.81618887601409"><ele>317.20000000000005</ele><time>2026-05-02T09:26:05.997Z</time></trkpt><trkpt lat="42.22990571458397" lon="13.816326855118723"><ele>316.8</ele><time>2026-05-02T09:26:06.997Z</time></trkpt><trkpt lat="42.22990277232817" lon="13.816459213192976"><ele>316.40000000000003</ele><time>2026-05-02T09:26:07.997Z</time></trkpt><trkpt lat="42.22990389970192" lon="13.816597933504593"><ele>316.0</ele><time>2026-05-02T09:26:08.997Z</time></trkpt><trkpt lat="42.22992261086793" lon="13.816702668501318"><ele>316.0</ele><time>2026-05-02T09:26:09.997Z</time></trkpt><trkpt lat="42.229937205817826" lon="13.81681414088394"><ele>316.0</ele><time>2026-05-02T09:26:10.997Z</time></trkpt><trkpt lat="42.2299376260547" lon="13.816941529919967"><ele>316.0</ele><time>2026-05-02T09:26:11.997Z</time></trkpt><trkpt lat="42.22995367058041" lon="13.817065492522325"><ele>316.0</ele><time>2026-05-02T09:26:12.997Z</time></trkpt><trkpt lat="42.229968808748126" lon="13.817210256813112"><ele>316.0</ele><time>2026-05-02T09:26:13.997Z</time></trkpt><trkpt lat="42.23000553188117" lon="13.817334373248112"><ele>315.75</ele><time>2026-05-02T09:26:14.997Z</time></trkpt><trkpt lat="42.23002549484775" lon="13.81749144543994"><ele>315.5</ele><time>2026-05-02T09:26:15.997Z</time></trkpt><trkpt lat="42.23005231000936" lon="13.81765640063129"><ele>315.25</ele><time>2026-05-02T09:26:16.997Z</time></trkpt><trkpt lat="42.23008250162699" lon="13.817821709803052"><ele>315.0</ele><time>2026-05-02T09:26:17.997Z</time></trkpt><trkpt lat="42.23008659397353" lon="13.817994616042727"><ele>315.0</ele><time>2026-05-02T09:26:18.997Z</time></trkpt><trkpt lat="42.23008613235588" lon="13.81817161241365"><ele>315.0</ele><time>2026-05-02T09:26:19.997Z</time></trkpt><trkpt lat="42.23012215577879" lon="13.818340896211318"><ele>315.0</ele><time>2026-05-02T09:26:20.997Z</time></trkpt><trkpt lat="42.230133882833535" lon="13.818533100905702"><ele>315.0</ele><time>2026-05-02T09:26:21.997Z</time></trkpt><trkpt lat="42.2301355075937" lon="13.818726326265635"><ele>315.0</ele><time>2026-05-02T09:26:22.997Z</time></trkpt><trkpt lat="42.230128306635784" lon="13.818907919924898"><ele>315.0</ele><time>2026-05-02T09:26:23.997Z</time></trkpt><trkpt lat="42.2301347706799" lon="13.819070325726416"><ele>315.0</ele><time>2026-05-02T09:26:24.997Z</time></trkpt><trkpt lat="42.23015043116727" lon="13.819219448448042"><ele>315.0</ele><time>2026-05-02T09:26:25.997Z</time></trkpt><trkpt lat="42.23015645795606" lon="13.81935337762181"><ele>315.5</ele><time>2026-05-02T09:26:26.997Z</time></trkpt><trkpt lat="42.230163797362366" lon="13.8194750050919"><ele>316.0</ele><time>2026-05-02T09:26:27.997Z</time></trkpt><trkpt lat="42.23017196968712" lon="13.819572344257393"><ele>316.5</ele><time>2026-05-02T09:26:28.997Z</time></trkpt><trkpt lat="42.2301794963631" lon="13.81972269485532"><ele>317.0</ele><time>2026-05-02T09:26:30.997Z</time></trkpt><trkpt lat="42.230244035552396" lon="13.819745034397288"><ele>317.5</ele><time>2026-05-02T09:26:32.997Z</time></trkpt><trkpt lat="42.230335424371994" lon="13.81971581248641"><ele>318.0</ele><time>2026-05-02T09:26:34.997Z</time></trkpt><trkpt lat="42.230424703320196" lon="13.819702478548026"><ele>318.0</ele><time>2026-05-02T09:26:35.997Z</time></trkpt><trkpt lat="42.23054543914324" lon="13.819658072487018"><ele>318.0</ele><time>2026-05-02T09:26:36.997Z</time></trkpt><trkpt lat="42.23067670987868" lon="13.819637543809614"><ele>318.0</ele><time>2026-05-02T09:26:37.997Z</time></trkpt><trkpt lat="42.23082665087007" lon="13.819643547392724"><ele>318.0</ele><time>2026-05-02T09:26:38.997Z</time></trkpt><trkpt lat="42.23097978430185" lon="13.819624315503892"><ele>319.75</ele><time>2026-05-02T09:26:40.001Z</time></trkpt><trkpt lat="42.23112101018012" lon="13.819580382194685"><ele>321.5</ele><time>2026-05-02T09:26:41.001Z</time></trkpt><trkpt lat="42.23123522940376" lon="13.819513554274831"><ele>323.25</ele><time>2026-05-02T09:26:42.001Z</time></trkpt><trkpt lat="42.23134373385499" lon="13.819425156882147"><ele>325.0</ele><time>2026-05-02T09:26:43.001Z</time></trkpt><trkpt lat="42.231467610899706" lon="13.81936714693784"><ele>323.75</ele><time>2026-05-02T09:26:44.001Z</time></trkpt><trkpt lat="42.23157413217343" lon="13.819307987727711"><ele>322.5</ele><time>2026-05-02T09:26:45.001Z</time></trkpt><trkpt lat="42.23168349166284" lon="13.819258274417765"><ele>321.25</ele><time>2026-05-02T09:26:46.001Z</time></trkpt><trkpt lat="42.23178211613448" lon="13.819203667890744"><ele>320.0</ele><time>2026-05-02T09:26:47.001Z</time></trkpt><trkpt lat="42.23189517181124" lon="13.819177423664446"><ele>320.0</ele><time>2026-05-02T09:26:48.001Z</time></trkpt><trkpt lat="42.232022125702244" lon="13.819167396717111"><ele>320.0</ele><time>2026-05-02T09:26:49.001Z</time></trkpt><trkpt lat="42.23214262693021" lon="13.819175260981682"><ele>320.0</ele><time>2026-05-02T09:26:50.001Z</time></trkpt><trkpt lat="42.23227638777649" lon="13.819153740634084"><ele>320.0</ele><time>2026-05-02T09:26:51.001Z</time></trkpt><trkpt lat="42.23243298381477" lon="13.819145443466507"><ele>320.25</ele><time>2026-05-02T09:26:52.001Z</time></trkpt><trkpt lat="42.232579473913624" lon="13.819124591262776"><ele>320.5</ele><time>2026-05-02T09:26:53.001Z</time></trkpt><trkpt lat="42.23273113338022" lon="13.819133723228989"><ele>320.75</ele><time>2026-05-02T09:26:54.001Z</time></trkpt><trkpt lat="42.23287885023406" lon="13.819118212798807"><ele>321.0</ele><time>2026-05-02T09:26:55.001Z</time></trkpt><trkpt lat="42.23301051621358" lon="13.819074022985278"><ele>321.0</ele><time>2026-05-02T09:26:56.001Z</time></trkpt><trkpt lat="42.233137234751325" lon="13.819004485904028"><ele>321.0</ele><time>2026-05-02T09:26:57Z</time></trkpt><trkpt lat="42.233270949696724" lon="13.81894189151064"><ele>321.0</ele><time>2026-05-02T09:26:58Z</time></trkpt><trkpt lat="42.233410572560544" lon="13.818847471211011"><ele>321.0</ele><time>2026-05-02T09:26:59Z</time></trkpt><trkpt lat="42.23355019849425" lon="13.818784657712905"><ele>323.5</ele><time>2026-05-02T09:27:00Z</time></trkpt><trkpt lat="42.23367867697766" lon="13.818708594413826"><ele>326.0</ele><time>2026-05-02T09:27:01Z</time></trkpt><trkpt lat="42.23380035754646" lon="13.818630644734519"><ele>328.5</ele><time>2026-05-02T09:27:02Z</time></trkpt><trkpt lat="42.23392590173884" lon="13.81860022627689"><ele>331.0</ele><time>2026-05-02T09:27:03Z</time></trkpt><trkpt lat="42.23403989773323" lon="13.81852766197005"><ele>329.75</ele><time>2026-05-02T09:27:04Z</time></trkpt><trkpt lat="42.234162737116144" lon="13.818465648528408"><ele>328.5</ele><time>2026-05-02T09:27:05Z</time></trkpt><trkpt lat="42.234275870443994" lon="13.818394252654166"><ele>327.25</ele><time>2026-05-02T09:27:06Z</time></trkpt><trkpt lat="42.23439068386825" lon="13.818318593556516"><ele>326.0</ele><time>2026-05-02T09:27:07Z</time></trkpt><trkpt lat="42.234506501558094" lon="13.818231220527432"><ele>326.0</ele><time>2026-05-02T09:27:08Z</time></trkpt><trkpt lat="42.23462374093079" lon="13.818108037488088"><ele>326.0</ele><time>2026-05-02T09:27:09Z</time></trkpt><trkpt lat="42.23472817577901" lon="13.817970478110944"><ele>326.0</ele><time>2026-05-02T09:27:10Z</time></trkpt><trkpt lat="42.23485342860042" lon="13.817844032894046"><ele>325.0</ele><time>2026-05-02T09:27:11Z</time></trkpt><trkpt lat="42.23494035733404" lon="13.817704237524643"><ele>324.0</ele><time>2026-05-02T09:27:12Z</time></trkpt><trkpt lat="42.23498540851147" lon="13.81756458724982"><ele>323.0</ele><time>2026-05-02T09:27:13Z</time></trkpt><trkpt lat="42.23501315781362" lon="13.817427974671569"><ele>322.0</ele><time>2026-05-02T09:27:14Z</time></trkpt><trkpt lat="42.23507693550542" lon="13.817339082109255"><ele>321.0</ele><time>2026-05-02T09:27:15Z</time></trkpt><trkpt lat="42.23512659342371" lon="13.817271814908887"><ele>321.0</ele><time>2026-05-02T09:27:16Z</time></trkpt><trkpt lat="42.235125274754765" lon="13.817179235115127"><ele>321.0</ele><time>2026-05-02T09:27:17Z</time></trkpt><trkpt lat="42.23520029994191" lon="13.817085959387892"><ele>321.0</ele><time>2026-05-02T09:27:19Z</time></trkpt><trkpt lat="42.235237756763254" lon="13.816989073941171"><ele>321.0</ele><time>2026-05-02T09:27:22Z</time></trkpt><trkpt lat="42.23531760454852" lon="13.81687558099864"><ele>321.0</ele><time>2026-05-02T09:27:25Z</time></trkpt><trkpt lat="42.23538023973763" lon="13.816777785299196"><ele>321.20000000000005</ele><time>2026-05-02T09:27:26Z</time></trkpt><trkpt lat="42.235426363798645" lon="13.816654035799106"><ele>321.40000000000003</ele><time>2026-05-02T09:27:27Z</time></trkpt><trkpt lat="42.23549524357361" lon="13.816566242718755"><ele>321.6</ele><time>2026-05-02T09:27:28Z</time></trkpt><trkpt lat="42.23555779814003" lon="13.816488223173625"><ele>321.8</ele><time>2026-05-02T09:27:29Z</time></trkpt><trkpt lat="42.23564010740908" lon="13.816430134886241"><ele>322.0</ele><time>2026-05-02T09:27:30Z</time></trkpt><trkpt lat="42.235720573929115" lon="13.816385701869104"><ele>322.0</ele><time>2026-05-02T09:27:31Z</time></trkpt><trkpt lat="42.23580913038367" lon="13.816327344289265"><ele>322.0</ele><time>2026-05-02T09:27:32Z</time></trkpt><trkpt lat="42.23589315017704" lon="13.816304745782828"><ele>322.0</ele><time>2026-05-02T09:27:33Z</time></trkpt><trkpt lat="42.23598957375332" lon="13.816324605120515"><ele>322.0</ele><time>2026-05-02T09:27:34Z</time></trkpt><trkpt lat="42.236081365965504" lon="13.816373661250488"><ele>322.0</ele><time>2026-05-02T09:27:35Z</time></trkpt><trkpt lat="42.23617558754216" lon="13.816460423173764"><ele>322.0</ele><time>2026-05-02T09:27:36Z</time></trkpt><trkpt lat="42.2362834707477" lon="13.816543760711493"><ele>322.0</ele><time>2026-05-02T09:27:37Z</time></trkpt><trkpt lat="42.236397503875736" lon="13.816635185933512"><ele>322.0</ele><time>2026-05-02T09:27:38Z</time></trkpt><trkpt lat="42.23652352023017" lon="13.81670823769516"><ele>322.0</ele><time>2026-05-02T09:27:39Z</time></trkpt><trkpt lat="42.23664305951465" lon="13.816765765880628"><ele>321.5</ele><time>2026-05-02T09:27:40Z</time></trkpt><trkpt lat="42.2367518406914" lon="13.816801182952712"><ele>321.0</ele><time>2026-05-02T09:27:41Z</time></trkpt><trkpt lat="42.23685999068385" lon="13.816817663573746"><ele>320.5</ele><time>2026-05-02T09:27:42Z</time></trkpt><trkpt lat="42.236986309016274" lon="13.816813432866374"><ele>320.0</ele><time>2026-05-02T09:27:43Z</time></trkpt><trkpt lat="42.23711316187221" lon="13.816786470932232"><ele>320.0</ele><time>2026-05-02T09:27:44Z</time></trkpt><trkpt lat="42.23724317658156" lon="13.816730515513557"><ele>320.0</ele><time>2026-05-02T09:27:45Z</time></trkpt><trkpt lat="42.23738714160333" lon="13.816668660241351"><ele>320.0</ele><time>2026-05-02T09:27:46Z</time></trkpt><trkpt lat="42.23755533990696" lon="13.816578090274012"><ele>319.5</ele><time>2026-05-02T09:27:47Z</time></trkpt><trkpt lat="42.23776648703544" lon="13.816491297334322"><ele>319.0</ele><time>2026-05-02T09:27:48Z</time></trkpt><trkpt lat="42.2379840161409" lon="13.816391237373871"><ele>319.0</ele><time>2026-05-02T09:27:49Z</time></trkpt><trkpt lat="42.23816569570313" lon="13.816339481121517"><ele>319.0</ele><time>2026-05-02T09:27:50Z</time></trkpt><trkpt lat="42.23832106947025" lon="13.816291612830291"><ele>319.0</ele><time>2026-05-02T09:27:51Z</time></trkpt><trkpt lat="42.23844071138287" lon="13.816224724605453"><ele>319.0</ele><time>2026-05-02T09:27:52Z</time></trkpt><trkpt lat="42.238549776630364" lon="13.816180137334099"><ele>319.0</ele><time>2026-05-02T09:27:53Z</time></trkpt><trkpt lat="42.23864758114905" lon="13.816122894063591"><ele>319.0</ele><time>2026-05-02T09:27:54Z</time></trkpt><trkpt lat="42.23876085887739" lon="13.816086223638834"><ele>319.0</ele><time>2026-05-02T09:27:55Z</time></trkpt><trkpt lat="42.23887510760544" lon="13.816073746424104"><ele>319.79999999999995</ele><time>2026-05-02T09:27:56Z</time></trkpt><trkpt lat="42.239003523314" lon="13.816132115643523"><ele>320.59999999999997</ele><time>2026-05-02T09:27:57Z</time></trkpt><trkpt lat="42.239106367907645" lon="13.816165580404805"><ele>321.4</ele><time>2026-05-02T09:27:58Z</time></trkpt><trkpt lat="42.23919323313119" lon="13.816198815464032"><ele>322.2</ele><time>2026-05-02T09:27:59Z</time></trkpt><trkpt lat="42.23927419758826" lon="13.816241878660888"><ele>323.0</ele><time>2026-05-02T09:28:00Z</time></trkpt><trkpt lat="42.239344211517405" lon="13.816266027203234"><ele>323.0</ele><time>2026-05-02T09:28:01Z</time></trkpt><trkpt lat="42.23940381037411" lon="13.81631071379248"><ele>323.0</ele><time>2026-05-02T09:28:02Z</time></trkpt><trkpt lat="42.239453355484386" lon="13.816388250392956"><ele>323.0</ele><time>2026-05-02T09:28:04Z</time></trkpt><trkpt lat="42.23950193369933" lon="13.816481073409184"><ele>323.0</ele><time>2026-05-02T09:28:06Z</time></trkpt><trkpt lat="42.23961641141515" lon="13.816492698241738"><ele>323.0</ele><time>2026-05-02T09:28:08Z</time></trkpt><trkpt lat="42.239693661940734" lon="13.816503131841632"><ele>323.0</ele><time>2026-05-02T09:28:09Z</time></trkpt><trkpt lat="42.239802528984505" lon="13.816465035610708"><ele>323.79999999999995</ele><time>2026-05-02T09:28:10Z</time></trkpt><trkpt lat="42.2398936691054" lon="13.81644114491017"><ele>324.6</ele><time>2026-05-02T09:28:11Z</time></trkpt><trkpt lat="42.23999937662905" lon="13.816441096203013"><ele>325.4</ele><time>2026-05-02T09:28:12Z</time></trkpt><trkpt lat="42.24009106784806" lon="13.81642889884037"><ele>326.20000000000005</ele><time>2026-05-02T09:28:13Z</time></trkpt><trkpt lat="42.240167582941076" lon="13.816395965891408"><ele>327.0</ele><time>2026-05-02T09:28:14Z</time></trkpt><trkpt lat="42.240267599836805" lon="13.816412269315663"><ele>327.0</ele><time>2026-05-02T09:28:15Z</time></trkpt><trkpt lat="42.24040165049" lon="13.81643337638227"><ele>327.0</ele><time>2026-05-02T09:28:16Z</time></trkpt><trkpt lat="42.2405215240606" lon="13.816418271875953"><ele>327.0</ele><time>2026-05-02T09:28:17Z</time></trkpt><trkpt lat="42.24065360956133" lon="13.81642298530897"><ele>327.0</ele><time>2026-05-02T09:28:18Z</time></trkpt><trkpt lat="42.24077935790608" lon="13.816441004796822"><ele>327.3333333333333</ele><time>2026-05-02T09:28:19Z</time></trkpt><trkpt lat="42.240895642677195" lon="13.816457987138952"><ele>327.6666666666667</ele><time>2026-05-02T09:28:19.999Z</time></trkpt><trkpt lat="42.24099108502461" lon="13.816440852056525"><ele>328.0</ele><time>2026-05-02T09:28:20.999Z</time></trkpt><trkpt lat="42.24107727262622" lon="13.816447604748129"><ele>328.33333333333337</ele><time>2026-05-02T09:28:21.999Z</time></trkpt><trkpt lat="42.24114688360584" lon="13.816422298014544"><ele>328.6666666666667</ele><time>2026-05-02T09:28:22.999Z</time></trkpt><trkpt lat="42.24121771308706" lon="13.81639482615256"><ele>329.0</ele><time>2026-05-02T09:28:23.999Z</time></trkpt><trkpt lat="42.24127375729901" lon="13.816270880384824"><ele>329.0</ele><time>2026-05-02T09:28:24.999Z</time></trkpt><trkpt lat="42.241345280046176" lon="13.816202081532854"><ele>329.0</ele><time>2026-05-02T09:28:25.999Z</time></trkpt><trkpt lat="42.241443945205305" lon="13.816123416503954"><ele>329.0</ele><time>2026-05-02T09:28:26.999Z</time></trkpt><trkpt lat="42.24152188115008" lon="13.816021425994972"><ele>329.0</ele><time>2026-05-02T09:28:27.999Z</time></trkpt><trkpt lat="42.241592792572554" lon="13.815945690678648"><ele>329.0</ele><time>2026-05-02T09:28:28.999Z</time></trkpt><trkpt lat="42.2416503481553" lon="13.815864740767461"><ele>327.6666666666667</ele><time>2026-05-02T09:28:29.999Z</time></trkpt><trkpt lat="42.24168743294161" lon="13.81579072704092"><ele>326.33333333333337</ele><time>2026-05-02T09:28:30.999Z</time></trkpt><trkpt lat="42.241673522676344" lon="13.81570178852543"><ele>325.0</ele><time>2026-05-02T09:28:31.999Z</time></trkpt><trkpt lat="42.24167016616128" lon="13.815593261453097"><ele>323.6666666666667</ele><time>2026-05-02T09:28:32.999Z</time></trkpt><trkpt lat="42.24167803258042" lon="13.815464965843832"><ele>322.3333333333333</ele><time>2026-05-02T09:28:33.999Z</time></trkpt><trkpt lat="42.24171868589017" lon="13.8153316629064"><ele>321.0</ele><time>2026-05-02T09:28:34.999Z</time></trkpt><trkpt lat="42.24175587162024" lon="13.815219155996823"><ele>320.6</ele><time>2026-05-02T09:28:35.999Z</time></trkpt><trkpt lat="42.24178321102737" lon="13.81508483245274"><ele>320.20000000000005</ele><time>2026-05-02T09:28:36.999Z</time></trkpt><trkpt lat="42.24182931952434" lon="13.8149824237785"><ele>319.79999999999995</ele><time>2026-05-02T09:28:37.999Z</time></trkpt><trkpt lat="42.24191653131197" lon="13.814883442572937"><ele>319.4</ele><time>2026-05-02T09:28:39.999Z</time></trkpt><trkpt lat="42.24195126534207" lon="13.8147480322305"><ele>319.0</ele><time>2026-05-02T09:28:41.999Z</time></trkpt><trkpt lat="42.241983676570165" lon="13.814663625045485"><ele>319.0</ele><time>2026-05-02T09:28:42.999Z</time></trkpt><trkpt lat="42.24206828421656" lon="13.814561396467257"><ele>319.0</ele><time>2026-05-02T09:28:44.999Z</time></trkpt><trkpt lat="42.24213361627526" lon="13.814559078391111"><ele>319.0</ele><time>2026-05-02T09:28:45.999Z</time></trkpt><trkpt lat="42.242199493917475" lon="13.814552633009646"><ele>319.0</ele><time>2026-05-02T09:28:46.999Z</time></trkpt><trkpt lat="42.242271021952114" lon="13.814519920111756"><ele>319.0</ele><time>2026-05-02T09:28:47.999Z</time></trkpt><trkpt lat="42.24235659968986" lon="13.814484311297184"><ele>319.0</ele><time>2026-05-02T09:28:48.999Z</time></trkpt><trkpt lat="42.24242848877395" lon="13.814416507546209"><ele>319.2</ele><time>2026-05-02T09:28:49.999Z</time></trkpt><trkpt lat="42.242522127083454" lon="13.814341465687994"><ele>319.4</ele><time>2026-05-02T09:28:50.999Z</time></trkpt><trkpt lat="42.2426142483562" lon="13.81423002219093"><ele>319.6</ele><time>2026-05-02T09:28:51.999Z</time></trkpt><trkpt lat="42.24270094090528" lon="13.814154547631913"><ele>319.8</ele><time>2026-05-02T09:28:52.999Z</time></trkpt><trkpt lat="42.2427873577494" lon="13.814082749569122"><ele>320.0</ele><time>2026-05-02T09:28:53.999Z</time></trkpt><trkpt lat="42.24289736457469" lon="13.813998914201882"><ele>320.0</ele><time>2026-05-02T09:28:54.999Z</time></trkpt><trkpt lat="42.24299571310031" lon="13.813887480053014"><ele>320.0</ele><time>2026-05-02T09:28:55.999Z</time></trkpt><trkpt lat="42.24309679230967" lon="13.813776535178938"><ele>320.0</ele><time>2026-05-02T09:28:56.999Z</time></trkpt><trkpt lat="42.243186752228716" lon="13.813669006336488"><ele>320.0</ele><time>2026-05-02T09:28:57.999Z</time></trkpt><trkpt lat="42.24326303781947" lon="13.813538406506783"><ele>321.0</ele><time>2026-05-02T09:28:58.999Z</time></trkpt><trkpt lat="42.24331909464244" lon="13.81341142766783"><ele>322.0</ele><time>2026-05-02T09:28:59.999Z</time></trkpt><trkpt lat="42.24338958669074" lon="13.813305608326498"><ele>323.0</ele><time>2026-05-02T09:29:00.999Z</time></trkpt><trkpt lat="42.243456833619774" lon="13.813203908192731"><ele>324.0</ele><time>2026-05-02T09:29:01.999Z</time></trkpt><trkpt lat="42.24353919476091" lon="13.813138025665053"><ele>325.0</ele><time>2026-05-02T09:29:02.999Z</time></trkpt><trkpt lat="42.24363874962262" lon="13.813086507912773"><ele>325.0</ele><time>2026-05-02T09:29:03.999Z</time></trkpt><trkpt lat="42.24372488553133" lon="13.81301406349399"><ele>325.0</ele><time>2026-05-02T09:29:04.999Z</time></trkpt><trkpt lat="42.243823998148386" lon="13.812966459133241"><ele>325.0</ele><time>2026-05-02T09:29:05.999Z</time></trkpt><trkpt lat="42.24391654882498" lon="13.812915148650067"><ele>325.0</ele><time>2026-05-02T09:29:06.999Z</time></trkpt><trkpt lat="42.24402953125465" lon="13.812922055227615"><ele>325.0</ele><time>2026-05-02T09:29:07.999Z</time></trkpt><trkpt lat="42.24412677093495" lon="13.812895249747449"><ele>326.2</ele><time>2026-05-02T09:29:08.999Z</time></trkpt><trkpt lat="42.24424391890134" lon="13.812876573824775"><ele>327.4</ele><time>2026-05-02T09:29:09.999Z</time></trkpt><trkpt lat="42.24432258402963" lon="13.81283336881298"><ele>328.6</ele><time>2026-05-02T09:29:10.999Z</time></trkpt><trkpt lat="42.24441934151292" lon="13.812819435376383"><ele>329.8</ele><time>2026-05-02T09:29:11.999Z</time></trkpt><trkpt lat="42.24450936556729" lon="13.812784504566764"><ele>331.0</ele><time>2026-05-02T09:29:12.999Z</time></trkpt><trkpt lat="42.24461942738883" lon="13.812758313317358"><ele>331.0</ele><time>2026-05-02T09:29:13.999Z</time></trkpt><trkpt lat="42.24471544223229" lon="13.81270407946378"><ele>331.0</ele><time>2026-05-02T09:29:14.999Z</time></trkpt><trkpt lat="42.244802298770225" lon="13.812644834984152"><ele>331.0</ele><time>2026-05-02T09:29:15.999Z</time></trkpt><trkpt lat="42.24488024089049" lon="13.812578220229314"><ele>331.0</ele><time>2026-05-02T09:29:16.999Z</time></trkpt><trkpt lat="42.244943103147996" lon="13.812490461722348"><ele>331.0</ele><time>2026-05-02T09:29:17.999Z</time></trkpt><trkpt lat="42.244985728850544" lon="13.812361927336482"><ele>330.4</ele><time>2026-05-02T09:29:18.999Z</time></trkpt><trkpt lat="42.245032904599356" lon="13.81224070384786"><ele>329.8</ele><time>2026-05-02T09:29:19.999Z</time></trkpt><trkpt lat="42.24506442249672" lon="13.812117695694218"><ele>329.2</ele><time>2026-05-02T09:29:20.999Z</time></trkpt><trkpt lat="42.24506947156251" lon="13.811978238999654"><ele>328.59999999999997</ele><time>2026-05-02T09:29:21.999Z</time></trkpt><trkpt lat="42.24507992626634" lon="13.811829275828329"><ele>328.0</ele><time>2026-05-02T09:29:22.999Z</time></trkpt><trkpt lat="42.24512235675267" lon="13.811702227975998"><ele>327.0</ele><time>2026-05-02T09:29:23.999Z</time></trkpt><trkpt lat="42.245187972924334" lon="13.811581480259267"><ele>326.0</ele><time>2026-05-02T09:29:24.999Z</time></trkpt><trkpt lat="42.24526130677349" lon="13.811476208195568"><ele>325.0</ele><time>2026-05-02T09:29:25.999Z</time></trkpt><trkpt lat="42.24535671016017" lon="13.811400420553724"><ele>324.0</ele><time>2026-05-02T09:29:26.999Z</time></trkpt><trkpt lat="42.245455670951884" lon="13.81130000180758"><ele>324.0</ele><time>2026-05-02T09:29:27.999Z</time></trkpt><trkpt lat="42.245548364491086" lon="13.811207525894051"><ele>324.0</ele><time>2026-05-02T09:29:28.999Z</time></trkpt><trkpt lat="42.2456337577535" lon="13.811082875365708"><ele>324.0</ele><time>2026-05-02T09:29:29.999Z</time></trkpt><trkpt lat="42.24573273143687" lon="13.810989464536586"><ele>324.0</ele><time>2026-05-02T09:29:30.999Z</time></trkpt><trkpt lat="42.24581633164217" lon="13.810862058180009"><ele>324.2</ele><time>2026-05-02T09:29:31.999Z</time></trkpt><trkpt lat="42.24591890506832" lon="13.810790914158902"><ele>324.4</ele><time>2026-05-02T09:29:32.999Z</time></trkpt><trkpt lat="42.245989051282905" lon="13.810692842389662"><ele>324.6</ele><time>2026-05-02T09:29:33.999Z</time></trkpt><trkpt lat="42.24608123995253" lon="13.810621815714375"><ele>324.8</ele><time>2026-05-02T09:29:34.999Z</time></trkpt><trkpt lat="42.24615295660001" lon="13.810549619998023"><ele>325.0</ele><time>2026-05-02T09:29:35.999Z</time></trkpt><trkpt lat="42.246215536887036" lon="13.810456640495447"><ele>325.0</ele><time>2026-05-02T09:29:36.999Z</time></trkpt><trkpt lat="42.24631324855057" lon="13.810331272630664"><ele>325.0</ele><time>2026-05-02T09:29:37.999Z</time></trkpt><trkpt lat="42.246390532035655" lon="13.810225626293134"><ele>325.0</ele><time>2026-05-02T09:29:38.999Z</time></trkpt><trkpt lat="42.246446256365424" lon="13.8101010173314"><ele>325.0</ele><time>2026-05-02T09:29:39.999Z</time></trkpt><trkpt lat="42.24651991706698" lon="13.80996029640737"><ele>325.0</ele><time>2026-05-02T09:29:40.999Z</time></trkpt><trkpt lat="42.24655590026972" lon="13.809786991425073"><ele>325.0</ele><time>2026-05-02T09:29:41.999Z</time></trkpt><trkpt lat="42.24660641004687" lon="13.809595567290769"><ele>325.0</ele><time>2026-05-02T09:29:42.999Z</time></trkpt><trkpt lat="42.246674796208154" lon="13.809366261707828"><ele>324.75</ele><time>2026-05-02T09:29:43.999Z</time></trkpt><trkpt lat="42.24673485229225" lon="13.809166910773351"><ele>324.5</ele><time>2026-05-02T09:29:44.999Z</time></trkpt><trkpt lat="42.246759629585306" lon="13.8089905328001"><ele>324.25</ele><time>2026-05-02T09:29:45.999Z</time></trkpt><trkpt lat="42.24682697339844" lon="13.808868766330566"><ele>324.0</ele><time>2026-05-02T09:29:46.999Z</time></trkpt><trkpt lat="42.246856123220844" lon="13.808724786205682"><ele>324.0</ele><time>2026-05-02T09:29:47.999Z</time></trkpt><trkpt lat="42.246873575102626" lon="13.808591543314632"><ele>324.0</ele><time>2026-05-02T09:29:48.999Z</time></trkpt><trkpt lat="42.24688828941176" lon="13.808473068775125"><ele>324.0</ele><time>2026-05-02T09:29:49.999Z</time></trkpt><trkpt lat="42.24692375594003" lon="13.808333065693104"><ele>324.0</ele><time>2026-05-02T09:29:50.999Z</time></trkpt><trkpt lat="42.24695034972057" lon="13.808213625156581"><ele>324.0</ele><time>2026-05-02T09:29:51.999Z</time></trkpt><trkpt lat="42.24699559748493" lon="13.808113132788103"><ele>324.2</ele><time>2026-05-02T09:29:52.999Z</time></trkpt><trkpt lat="42.247031322976916" lon="13.808025433387636"><ele>324.4</ele><time>2026-05-02T09:29:53.999Z</time></trkpt><trkpt lat="42.24710136062602" lon="13.807944785648345"><ele>324.6</ele><time>2026-05-02T09:29:54.999Z</time></trkpt><trkpt lat="42.24718539582291" lon="13.8078432540498"><ele>324.8</ele><time>2026-05-02T09:29:55.999Z</time></trkpt><trkpt lat="42.24729218594352" lon="13.80776298345631"><ele>325.0</ele><time>2026-05-02T09:29:56.999Z</time></trkpt><trkpt lat="42.247394051863935" lon="13.807651212245496"><ele>325.5</ele><time>2026-05-02T09:29:57.999Z</time></trkpt><trkpt lat="42.24746386990738" lon="13.807576744420565"><ele>326.0</ele><time>2026-05-02T09:29:58.999Z</time></trkpt><trkpt lat="42.24753866070243" lon="13.807515924469469"><ele>326.5</ele><time>2026-05-02T09:29:59.999Z</time></trkpt><trkpt lat="42.247614759931324" lon="13.807476132512202"><ele>327.0</ele><time>2026-05-02T09:30:00.999Z</time></trkpt><trkpt lat="42.24765748824587" lon="13.807397279224084"><ele>327.5</ele><time>2026-05-02T09:30:01.999Z</time></trkpt><trkpt lat="42.24770949749727" lon="13.80732789902013"><ele>328.0</ele><time>2026-05-02T09:30:03.999Z</time></trkpt><trkpt lat="42.24772898063611" lon="13.807140655635049"><ele>328.0</ele><time>2026-05-02T09:30:05.999Z</time></trkpt><trkpt lat="42.24776319619986" lon="13.806988214552911"><ele>328.0</ele><time>2026-05-02T09:30:06.999Z</time></trkpt><trkpt lat="42.247777909631125" lon="13.806845508010852"><ele>328.0</ele><time>2026-05-02T09:30:07.999Z</time></trkpt><trkpt lat="42.247827368596056" lon="13.806716850089453"><ele>328.0</ele><time>2026-05-02T09:30:08.999Z</time></trkpt><trkpt lat="42.24786849083442" lon="13.806584732793667"><ele>328.0</ele><time>2026-05-02T09:30:09.999Z</time></trkpt><trkpt lat="42.247896525207416" lon="13.80645432054965"><ele>327.66666666666663</ele><time>2026-05-02T09:30:10.999Z</time></trkpt><trkpt lat="42.24796253867357" lon="13.806365886869761"><ele>327.3333333333333</ele><time>2026-05-02T09:30:11.999Z</time></trkpt><trkpt lat="42.24801139776297" lon="13.806280362956805"><ele>327.0</ele><time>2026-05-02T09:30:12.999Z</time></trkpt><trkpt lat="42.248066531238806" lon="13.806188414913668"><ele>326.6666666666667</ele><time>2026-05-02T09:30:13.999Z</time></trkpt><trkpt lat="42.248091951171915" lon="13.806095199303057"><ele>326.33333333333337</ele><time>2026-05-02T09:30:14.999Z</time></trkpt><trkpt lat="42.24814212696245" lon="13.806017165609571"><ele>326.0</ele><time>2026-05-02T09:30:15.999Z</time></trkpt><trkpt lat="42.24816699040911" lon="13.805922052145972"><ele>327.5</ele><time>2026-05-02T09:30:16.999Z</time></trkpt><trkpt lat="42.24822015204747" lon="13.805844267363064"><ele>329.0</ele><time>2026-05-02T09:30:17.999Z</time></trkpt><trkpt lat="42.2482728222554" lon="13.805786397895247"><ele>330.5</ele><time>2026-05-02T09:30:18.999Z</time></trkpt><trkpt lat="42.24832731056975" lon="13.805711758456374"><ele>332.0</ele><time>2026-05-02T09:30:19.999Z</time></trkpt><trkpt lat="42.24837652946283" lon="13.805632514127726"><ele>333.5</ele><time>2026-05-02T09:30:20.999Z</time></trkpt><trkpt lat="42.24841397852294" lon="13.805493081132399"><ele>335.0</ele><time>2026-05-02T09:30:22.999Z</time></trkpt><trkpt lat="42.248467984052205" lon="13.805431062683587"><ele>335.0</ele><time>2026-05-02T09:30:23.999Z</time></trkpt><trkpt lat="42.248534270369774" lon="13.80538378935536"><ele>335.0</ele><time>2026-05-02T09:30:24.999Z</time></trkpt><trkpt lat="42.24861373691748" lon="13.805346837598085"><ele>335.0</ele><time>2026-05-02T09:30:25.999Z</time></trkpt><trkpt lat="42.24869125359257" lon="13.80532131085854"><ele>335.0</ele><time>2026-05-02T09:30:26.999Z</time></trkpt><trkpt lat="42.24876829988336" lon="13.805289244082491"><ele>335.0</ele><time>2026-05-02T09:30:27.999Z</time></trkpt><trkpt lat="42.24885034704465" lon="13.805255949772045"><ele>335.0</ele><time>2026-05-02T09:30:28.999Z</time></trkpt><trkpt lat="42.24894227549608" lon="13.805234988898277"><ele>335.4</ele><time>2026-05-02T09:30:29.999Z</time></trkpt><trkpt lat="42.24900919127379" lon="13.805201377650587"><ele>335.8</ele><time>2026-05-02T09:30:30.999Z</time></trkpt><trkpt lat="42.249084388792056" lon="13.805200393727421"><ele>336.20000000000005</ele><time>2026-05-02T09:30:31.999Z</time></trkpt><trkpt lat="42.24920173013026" lon="13.805162311466738"><ele>336.6</ele><time>2026-05-02T09:30:33.999Z</time></trkpt><trkpt lat="42.24928723508554" lon="13.805034501679323"><ele>337.0</ele><time>2026-05-02T09:30:35.999Z</time></trkpt><trkpt lat="42.24932108987639" lon="13.80494839684228"><ele>337.0</ele><time>2026-05-02T09:30:36.999Z</time></trkpt><trkpt lat="42.249366165528066" lon="13.804888365345942"><ele>337.0</ele><time>2026-05-02T09:30:37.999Z</time></trkpt><trkpt lat="42.24946749222808" lon="13.804840137904531"><ele>337.0</ele><time>2026-05-02T09:30:39.999Z</time></trkpt><trkpt lat="42.249536190727085" lon="13.804878419806313"><ele>337.0</ele><time>2026-05-02T09:30:40.999Z</time></trkpt><trkpt lat="42.24961528080847" lon="13.80494506679044"><ele>337.0</ele><time>2026-05-02T09:30:41.999Z</time></trkpt><trkpt lat="42.24969999343244" lon="13.80501986287353"><ele>337.0</ele><time>2026-05-02T09:30:42.999Z</time></trkpt><trkpt lat="42.24978139436385" lon="13.805075962000139"><ele>337.40000000000003</ele><time>2026-05-02T09:30:43.999Z</time></trkpt><trkpt lat="42.24987000608928" lon="13.805074221976481"><ele>337.8</ele><time>2026-05-02T09:30:44.999Z</time></trkpt><trkpt lat="42.249961914932605" lon="13.80507453828595"><ele>338.2</ele><time>2026-05-02T09:30:45.999Z</time></trkpt><trkpt lat="42.25006326736435" lon="13.8050455430566"><ele>338.6</ele><time>2026-05-02T09:30:46.999Z</time></trkpt><trkpt lat="42.250184342919695" lon="13.805011869514951"><ele>339.0</ele><time>2026-05-02T09:30:47.999Z</time></trkpt><trkpt lat="42.25030913469842" lon="13.805014928533893"><ele>339.0</ele><time>2026-05-02T09:30:48.999Z</time></trkpt><trkpt lat="42.2504310392823" lon="13.805009540326706"><ele>339.0</ele><time>2026-05-02T09:30:49.999Z</time></trkpt><trkpt lat="42.25056006033472" lon="13.80500562717824"><ele>339.0</ele><time>2026-05-02T09:30:50.999Z</time></trkpt><trkpt lat="42.25069003715411" lon="13.8050104101256"><ele>339.0</ele><time>2026-05-02T09:30:51.999Z</time></trkpt><trkpt lat="42.250816972781" lon="13.805012766135565"><ele>340.6666666666667</ele><time>2026-05-02T09:30:52.999Z</time></trkpt><trkpt lat="42.25091913407737" lon="13.805019506367017"><ele>342.3333333333333</ele><time>2026-05-02T09:30:53.999Z</time></trkpt><trkpt lat="42.251007230194304" lon="13.80504370857399"><ele>344.0</ele><time>2026-05-02T09:30:54.999Z</time></trkpt><trkpt lat="42.251080835069864" lon="13.805078566876434"><ele>345.66666666666663</ele><time>2026-05-02T09:30:55.998Z</time></trkpt><trkpt lat="42.25113879119742" lon="13.805139705473763"><ele>347.3333333333333</ele><time>2026-05-02T09:30:56.998Z</time></trkpt><trkpt lat="42.25117457199656" lon="13.805249149058596"><ele>349.0</ele><time>2026-05-02T09:30:57.998Z</time></trkpt><trkpt lat="42.25119800957867" lon="13.80539333514798"><ele>349.0</ele><time>2026-05-02T09:30:58.998Z</time></trkpt><trkpt lat="42.251208779961964" lon="13.805557447317526"><ele>349.0</ele><time>2026-05-02T09:30:59.998Z</time></trkpt><trkpt lat="42.251227133584614" lon="13.80572686582584"><ele>349.0</ele><time>2026-05-02T09:31:00.998Z</time></trkpt><trkpt lat="42.25125202151394" lon="13.80588923214263"><ele>349.0</ele><time>2026-05-02T09:31:01.998Z</time></trkpt><trkpt lat="42.25128315331782" lon="13.806055195173714"><ele>349.0</ele><time>2026-05-02T09:31:02.998Z</time></trkpt><trkpt lat="42.251329137979546" lon="13.806222722710878"><ele>349.0</ele><time>2026-05-02T09:31:03.998Z</time></trkpt><trkpt lat="42.251390929560195" lon="13.806378966883267"><ele>349.0</ele><time>2026-05-02T09:31:04.998Z</time></trkpt><trkpt lat="42.25147699999225" lon="13.80653120493512"><ele>349.0</ele><time>2026-05-02T09:31:05.998Z</time></trkpt><trkpt lat="42.25157589130733" lon="13.80669101137943"><ele>351.66666666666663</ele><time>2026-05-02T09:31:06.998Z</time></trkpt><trkpt lat="42.25165524840026" lon="13.806891108667296"><ele>354.3333333333333</ele><time>2026-05-02T09:31:07.998Z</time></trkpt><trkpt lat="42.25173126866497" lon="13.80708528842717"><ele>357.0</ele><time>2026-05-02T09:31:08.998Z</time></trkpt><trkpt lat="42.25181284121275" lon="13.807282457154836"><ele>357.0</ele><time>2026-05-02T09:31:09.998Z</time></trkpt><trkpt lat="42.251903020433076" lon="13.80748327308538"><ele>357.0</ele><time>2026-05-02T09:31:10.998Z</time></trkpt><trkpt lat="42.252000054515605" lon="13.807680209975087"><ele>357.0</ele><time>2026-05-02T09:31:11.998Z</time></trkpt><trkpt lat="42.25209482512696" lon="13.807860892281399"><ele>357.0</ele><time>2026-05-02T09:31:12.998Z</time></trkpt><trkpt lat="42.2521720573852" lon="13.808014849861385"><ele>357.0</ele><time>2026-05-02T09:31:13.998Z</time></trkpt><trkpt lat="42.25224218038048" lon="13.808151542622799"><ele>357.0</ele><time>2026-05-02T09:31:14.998Z</time></trkpt><trkpt lat="42.25230505860229" lon="13.808284442750418"><ele>357.0</ele><time>2026-05-02T09:31:15.998Z</time></trkpt><trkpt lat="42.25238809172166" lon="13.808422058249882"><ele>359.25</ele><time>2026-05-02T09:31:16.998Z</time></trkpt><trkpt lat="42.25247702205391" lon="13.808568903166918"><ele>361.5</ele><time>2026-05-02T09:31:17.998Z</time></trkpt><trkpt lat="42.25256784505353" lon="13.808704510948377"><ele>363.75</ele><time>2026-05-02T09:31:18.998Z</time></trkpt><trkpt lat="42.25265214453598" lon="13.808836566556028"><ele>366.0</ele><time>2026-05-02T09:31:19.998Z</time></trkpt><trkpt lat="42.252707089685586" lon="13.808964152665013"><ele>366.0</ele><time>2026-05-02T09:31:20.998Z</time></trkpt><trkpt lat="42.25274321059652" lon="13.809069754657141"><ele>366.0</ele><time>2026-05-02T09:31:21.998Z</time></trkpt><trkpt lat="42.25278830892588" lon="13.809196710483782"><ele>366.0</ele><time>2026-05-02T09:31:22.998Z</time></trkpt><trkpt lat="42.252842186936086" lon="13.809311740632774"><ele>366.0</ele><time>2026-05-02T09:31:23.998Z</time></trkpt><trkpt lat="42.252918548747566" lon="13.80942417862605"><ele>366.0</ele><time>2026-05-02T09:31:24.998Z</time></trkpt><trkpt lat="42.253016321714064" lon="13.809530702574687"><ele>366.5</ele><time>2026-05-02T09:31:25.998Z</time></trkpt><trkpt lat="42.253114870646144" lon="13.809639648920609"><ele>367.0</ele><time>2026-05-02T09:31:26.998Z</time></trkpt><trkpt lat="42.253218081714984" lon="13.80976347340485"><ele>367.5</ele><time>2026-05-02T09:31:27.998Z</time></trkpt><trkpt lat="42.25331491854386" lon="13.809902011078437"><ele>368.0</ele><time>2026-05-02T09:31:28.998Z</time></trkpt><trkpt lat="42.25342834301212" lon="13.81002350494978"><ele>369.5</ele><time>2026-05-02T09:31:29.998Z</time></trkpt><trkpt lat="42.253541724253736" lon="13.810132507926701"><ele>371.0</ele><time>2026-05-02T09:31:30.998Z</time></trkpt><trkpt lat="42.25365129031316" lon="13.810231177481874"><ele>372.5</ele><time>2026-05-02T09:31:31.998Z</time></trkpt><trkpt lat="42.25376508930095" lon="13.810328480487819"><ele>374.0</ele><time>2026-05-02T09:31:32.998Z</time></trkpt><trkpt lat="42.25386130788846" lon="13.810434396238847"><ele>374.0</ele><time>2026-05-02T09:31:33.998Z</time></trkpt><trkpt lat="42.25395389338894" lon="13.810551496397075"><ele>374.0</ele><time>2026-05-02T09:31:34.998Z</time></trkpt><trkpt lat="42.25404516869409" lon="13.81069026012088"><ele>374.0</ele><time>2026-05-02T09:31:35.998Z</time></trkpt><trkpt lat="42.25415170820882" lon="13.810826302862887"><ele>374.0</ele><time>2026-05-02T09:31:36.998Z</time></trkpt><trkpt lat="42.25426034755748" lon="13.810954338098195"><ele>375.4</ele><time>2026-05-02T09:31:37.998Z</time></trkpt><trkpt lat="42.254361449531515" lon="13.811057358504133"><ele>376.79999999999995</ele><time>2026-05-02T09:31:38.998Z</time></trkpt><trkpt lat="42.254452543266744" lon="13.811147396736692"><ele>378.20000000000005</ele><time>2026-05-02T09:31:39.998Z</time></trkpt><trkpt lat="42.25452358323019" lon="13.811244851180408"><ele>379.6</ele><time>2026-05-02T09:31:40.998Z</time></trkpt><trkpt lat="42.25457416780279" lon="13.811357742478302"><ele>381.0</ele><time>2026-05-02T09:31:41.998Z</time></trkpt><trkpt lat="42.2546177320786" lon="13.81146459629594"><ele>381.0</ele><time>2026-05-02T09:31:42.998Z</time></trkpt><trkpt lat="42.25466285437067" lon="13.811574948712362"><ele>381.0</ele><time>2026-05-02T09:31:43.998Z</time></trkpt><trkpt lat="42.2546884770623" lon="13.81166902698912"><ele>381.0</ele><time>2026-05-02T09:31:44.998Z</time></trkpt><trkpt lat="42.2546893032318" lon="13.811772309132385"><ele>381.0</ele><time>2026-05-02T09:31:45.998Z</time></trkpt><trkpt lat="42.254743790520976" lon="13.81185953670429"><ele>381.0</ele><time>2026-05-02T09:31:47.998Z</time></trkpt><trkpt lat="42.25478848049787" lon="13.811775088512572"><ele>381.0</ele><time>2026-05-02T09:31:49.998Z</time></trkpt><trkpt lat="42.2548306503502" lon="13.811704894894461"><ele>382.3333333333333</ele><time>2026-05-02T09:31:50.998Z</time></trkpt><trkpt lat="42.25488049381092" lon="13.811632076588163"><ele>383.66666666666663</ele><time>2026-05-02T09:31:51.998Z</time></trkpt><trkpt lat="42.25493955983772" lon="13.811560149381453"><ele>385.0</ele><time>2026-05-02T09:31:52.998Z</time></trkpt><trkpt lat="42.25498471452436" lon="13.811478131787354"><ele>386.3333333333333</ele><time>2026-05-02T09:31:53.998Z</time></trkpt><trkpt lat="42.25503466787524" lon="13.811397539482051"><ele>387.66666666666663</ele><time>2026-05-02T09:31:54.998Z</time></trkpt><trkpt lat="42.255075335680424" lon="13.811314891578657"><ele>389.0</ele><time>2026-05-02T09:31:55.998Z</time></trkpt><trkpt lat="42.2551152050687" lon="13.811212560376106"><ele>389.0</ele><time>2026-05-02T09:31:56.998Z</time></trkpt><trkpt lat="42.25516429045812" lon="13.811109383319144"><ele>389.0</ele><time>2026-05-02T09:31:57.998Z</time></trkpt><trkpt lat="42.255250785365924" lon="13.811018810247038"><ele>389.0</ele><time>2026-05-02T09:31:58.998Z</time></trkpt><trkpt lat="42.255305770159005" lon="13.81091109654939"><ele>389.0</ele><time>2026-05-02T09:31:59.998Z</time></trkpt><trkpt lat="42.25533211365079" lon="13.810794716352046"><ele>389.0</ele><time>2026-05-02T09:32:00.998Z</time></trkpt><trkpt lat="42.255361029442085" lon="13.810667086134305"><ele>388.79999999999995</ele><time>2026-05-02T09:32:01.998Z</time></trkpt><trkpt lat="42.25541786159672" lon="13.810568481624074"><ele>388.59999999999997</ele><time>2026-05-02T09:32:02.998Z</time></trkpt><trkpt lat="42.25547900558319" lon="13.81046808807542"><ele>388.4</ele><time>2026-05-02T09:32:03.998Z</time></trkpt><trkpt lat="42.25553718593758" lon="13.810350912519318"><ele>388.2</ele><time>2026-05-02T09:32:04.998Z</time></trkpt><trkpt lat="42.255613081941505" lon="13.810249906065069"><ele>388.0</ele><time>2026-05-02T09:32:05.998Z</time></trkpt><trkpt lat="42.255691545812155" lon="13.810145911280795"><ele>388.0</ele><time>2026-05-02T09:32:06.998Z</time></trkpt><trkpt lat="42.255784920830095" lon="13.810047702835709"><ele>388.0</ele><time>2026-05-02T09:32:07.998Z</time></trkpt><trkpt lat="42.25586946685813" lon="13.809937100811837"><ele>388.0</ele><time>2026-05-02T09:32:08.998Z</time></trkpt><trkpt lat="42.255957362624684" lon="13.809812570673987"><ele>388.0</ele><time>2026-05-02T09:32:09.998Z</time></trkpt><trkpt lat="42.25603386785839" lon="13.80963699164174"><ele>388.0</ele><time>2026-05-02T09:32:10.998Z</time></trkpt><trkpt lat="42.25612911670544" lon="13.809510193675496"><ele>388.0</ele><time>2026-05-02T09:32:11.998Z</time></trkpt><trkpt lat="42.256214124744226" lon="13.809376165652264"><ele>388.0</ele><time>2026-05-02T09:32:12.998Z</time></trkpt><trkpt lat="42.25626531165969" lon="13.809231380315689"><ele>388.0</ele><time>2026-05-02T09:32:13.998Z</time></trkpt><trkpt lat="42.256343728465644" lon="13.809141263783212"><ele>387.79999999999995</ele><time>2026-05-02T09:32:14.998Z</time></trkpt><trkpt lat="42.25640033120132" lon="13.809035564503343"><ele>387.6</ele><time>2026-05-02T09:32:15.998Z</time></trkpt><trkpt lat="42.25647866539292" lon="13.808950817610372"><ele>387.4</ele><time>2026-05-02T09:32:16.998Z</time></trkpt><trkpt lat="42.25657056886275" lon="13.808841528802756"><ele>387.20000000000005</ele><time>2026-05-02T09:32:17.998Z</time></trkpt><trkpt lat="42.25664147025447" lon="13.808727900390787"><ele>387.0</ele><time>2026-05-02T09:32:18.998Z</time></trkpt><trkpt lat="42.25672046176492" lon="13.808644094021808"><ele>387.0</ele><time>2026-05-02T09:32:19.998Z</time></trkpt><trkpt lat="42.25679028830721" lon="13.80861744551592"><ele>387.0</ele><time>2026-05-02T09:32:20.998Z</time></trkpt><trkpt lat="42.25687286896258" lon="13.80856332302602"><ele>387.0</ele><time>2026-05-02T09:32:21.998Z</time></trkpt><trkpt lat="42.25695857064663" lon="13.808537614880692"><ele>387.0</ele><time>2026-05-02T09:32:22.998Z</time></trkpt><trkpt lat="42.257035899257446" lon="13.80849347757361"><ele>387.0</ele><time>2026-05-02T09:32:23.998Z</time></trkpt><trkpt lat="42.25711714392568" lon="13.808417784899616"><ele>387.0</ele><time>2026-05-02T09:32:24.998Z</time></trkpt><trkpt lat="42.25720826416511" lon="13.808332580964503"><ele>386.40000000000003</ele><time>2026-05-02T09:32:25.998Z</time></trkpt><trkpt lat="42.257303240169534" lon="13.808245938722614"><ele>385.8</ele><time>2026-05-02T09:32:26.998Z</time></trkpt><trkpt lat="42.257396650088694" lon="13.808154726279875"><ele>385.2</ele><time>2026-05-02T09:32:27.998Z</time></trkpt><trkpt lat="42.25749420856596" lon="13.808097604481619"><ele>384.6</ele><time>2026-05-02T09:32:28.998Z</time></trkpt><trkpt lat="42.25758422091314" lon="13.80802819304728"><ele>384.0</ele><time>2026-05-02T09:32:29.998Z</time></trkpt><trkpt lat="42.25767832336344" lon="13.80795286371639"><ele>384.0</ele><time>2026-05-02T09:32:30.998Z</time></trkpt><trkpt lat="42.25778761733809" lon="13.807863870033467"><ele>384.0</ele><time>2026-05-02T09:32:31.998Z</time></trkpt><trkpt lat="42.257893277924396" lon="13.807766289882693"><ele>384.0</ele><time>2026-05-02T09:32:32.998Z</time></trkpt><trkpt lat="42.25800278826551" lon="13.807667524434821"><ele>384.0</ele><time>2026-05-02T09:32:33.998Z</time></trkpt><trkpt lat="42.258090999953545" lon="13.80756376016285"><ele>382.79999999999995</ele><time>2026-05-02T09:32:34.998Z</time></trkpt><trkpt lat="42.25817332448451" lon="13.807471976333675"><ele>381.59999999999997</ele><time>2026-05-02T09:32:35.998Z</time></trkpt><trkpt lat="42.25826627247162" lon="13.807403786151744"><ele>380.4</ele><time>2026-05-02T09:32:36.998Z</time></trkpt><trkpt lat="42.25834220326984" lon="13.8073504171917"><ele>379.2</ele><time>2026-05-02T09:32:37.998Z</time></trkpt><trkpt lat="42.25843128519272" lon="13.807310565805137"><ele>378.0</ele><time>2026-05-02T09:32:38.998Z</time></trkpt><trkpt lat="42.2585478402682" lon="13.807289153768586"><ele>378.0</ele><time>2026-05-02T09:32:39.998Z</time></trkpt><trkpt lat="42.25866152744281" lon="13.807273236856156"><ele>378.0</ele><time>2026-05-02T09:32:40.998Z</time></trkpt><trkpt lat="42.2587566244752" lon="13.807242328604435"><ele>378.0</ele><time>2026-05-02T09:32:41.998Z</time></trkpt><trkpt lat="42.25886301233843" lon="13.807204108716562"><ele>378.0</ele><time>2026-05-02T09:32:42.998Z</time></trkpt><trkpt lat="42.25897452730575" lon="13.807152013257163"><ele>378.0</ele><time>2026-05-02T09:32:43.998Z</time></trkpt><trkpt lat="42.2590838063017" lon="13.807122154230047"><ele>379.0</ele><time>2026-05-02T09:32:44.998Z</time></trkpt><trkpt lat="42.25919920942523" lon="13.807077818943648"><ele>380.0</ele><time>2026-05-02T09:32:45.998Z</time></trkpt><trkpt lat="42.25930747771525" lon="13.80701596717643"><ele>381.0</ele><time>2026-05-02T09:32:46.998Z</time></trkpt><trkpt lat="42.25941119879581" lon="13.806938835005182"><ele>382.0</ele><time>2026-05-02T09:32:47.998Z</time></trkpt><trkpt lat="42.25952656018558" lon="13.806857713533182"><ele>380.75</ele><time>2026-05-02T09:32:48.998Z</time></trkpt><trkpt lat="42.25963110296875" lon="13.806762743988068"><ele>379.5</ele><time>2026-05-02T09:32:49.998Z</time></trkpt><trkpt lat="42.259736656916175" lon="13.806687602045676"><ele>378.25</ele><time>2026-05-02T09:32:50.998Z</time></trkpt><trkpt lat="42.259862003346186" lon="13.806633409141703"><ele>377.0</ele><time>2026-05-02T09:32:51.998Z</time></trkpt><trkpt lat="42.25998809802547" lon="13.806585598952035"><ele>377.0</ele><time>2026-05-02T09:32:52.998Z</time></trkpt><trkpt lat="42.26010835197081" lon="13.806520775802996"><ele>377.0</ele><time>2026-05-02T09:32:53.998Z</time></trkpt><trkpt lat="42.260222113848435" lon="13.806462331040654"><ele>377.0</ele><time>2026-05-02T09:32:54.998Z</time></trkpt><trkpt lat="42.2603322328835" lon="13.806390194474762"><ele>377.0</ele><time>2026-05-02T09:32:55.998Z</time></trkpt><trkpt lat="42.26043104522404" lon="13.806313555242276"><ele>377.0</ele><time>2026-05-02T09:32:56.998Z</time></trkpt><trkpt lat="42.26055593920173" lon="13.806240511532998"><ele>377.0</ele><time>2026-05-02T09:32:57.998Z</time></trkpt><trkpt lat="42.260670964957434" lon="13.806148785103847"><ele>377.0</ele><time>2026-05-02T09:32:58.998Z</time></trkpt><trkpt lat="42.26078378569941" lon="13.80605504737636"><ele>377.0</ele><time>2026-05-02T09:32:59.998Z</time></trkpt><trkpt lat="42.260875441756944" lon="13.805958267103028"><ele>376.40000000000003</ele><time>2026-05-02T09:33:00.998Z</time></trkpt><trkpt lat="42.26097224035884" lon="13.805890043656113"><ele>375.8</ele><time>2026-05-02T09:33:01.997Z</time></trkpt><trkpt lat="42.2610478897833" lon="13.805839772542178"><ele>375.2</ele><time>2026-05-02T09:33:02.997Z</time></trkpt><trkpt lat="42.26110328820562" lon="13.805775764023876"><ele>374.6</ele><time>2026-05-02T09:33:03.997Z</time></trkpt><trkpt lat="42.26115027787156" lon="13.805704808101291"><ele>374.0</ele><time>2026-05-02T09:33:04.997Z</time></trkpt><trkpt lat="42.26126737474265" lon="13.805625925693525"><ele>374.0</ele><time>2026-05-02T09:33:06.997Z</time></trkpt><trkpt lat="42.26136854653002" lon="13.805610424425183"><ele>374.0</ele><time>2026-05-02T09:33:07.997Z</time></trkpt><trkpt lat="42.26151032006088" lon="13.805557496302143"><ele>374.0</ele><time>2026-05-02T09:33:08.997Z</time></trkpt><trkpt lat="42.261672649775015" lon="13.80546490206997"><ele>374.0</ele><time>2026-05-02T09:33:09.997Z</time></trkpt><trkpt lat="42.26181897300893" lon="13.805402750901447"><ele>373.4</ele><time>2026-05-02T09:33:10.997Z</time></trkpt><trkpt lat="42.26193661849182" lon="13.805332746791475"><ele>372.79999999999995</ele><time>2026-05-02T09:33:11.997Z</time></trkpt><trkpt lat="42.26205569600691" lon="13.805292569006925"><ele>372.20000000000005</ele><time>2026-05-02T09:33:12.997Z</time></trkpt><trkpt lat="42.2621487185262" lon="13.80525505780684"><ele>371.6</ele><time>2026-05-02T09:33:13.997Z</time></trkpt><trkpt lat="42.262231307465754" lon="13.805218960597916"><ele>371.0</ele><time>2026-05-02T09:33:14.997Z</time></trkpt><trkpt lat="42.262315747551355" lon="13.80521984816943"><ele>370.83333333333337</ele><time>2026-05-02T09:33:15.997Z</time></trkpt><trkpt lat="42.262387628255766" lon="13.805277831526649"><ele>370.6666666666667</ele><time>2026-05-02T09:33:18.997Z</time></trkpt><trkpt lat="42.26249202405873" lon="13.805304428526217"><ele>370.5</ele><time>2026-05-02T09:33:20.997Z</time></trkpt><trkpt lat="42.26256025373531" lon="13.805301762059171"><ele>370.3333333333333</ele><time>2026-05-02T09:33:21.997Z</time></trkpt><trkpt lat="42.26262348228014" lon="13.80531243743484"><ele>370.16666666666663</ele><time>2026-05-02T09:33:22.997Z</time></trkpt><trkpt lat="42.262700146468866" lon="13.805321954343917"><ele>370.0</ele><time>2026-05-02T09:33:23.997Z</time></trkpt><trkpt lat="42.2628040043841" lon="13.805289129389514"><ele>370.0</ele><time>2026-05-02T09:33:24.997Z</time></trkpt><trkpt lat="42.26293382618103" lon="13.805240894645637"><ele>370.0</ele><time>2026-05-02T09:33:25.997Z</time></trkpt><trkpt lat="42.2630740664596" lon="13.805205383460114"><ele>370.0</ele><time>2026-05-02T09:33:26.997Z</time></trkpt><trkpt lat="42.26321344984783" lon="13.805155739806459"><ele>370.0</ele><time>2026-05-02T09:33:27.997Z</time></trkpt><trkpt lat="42.263343364241" lon="13.805119496429866"><ele>368.75</ele><time>2026-05-02T09:33:28.997Z</time></trkpt><trkpt lat="42.26348178922299" lon="13.805083972044454"><ele>367.5</ele><time>2026-05-02T09:33:29.997Z</time></trkpt><trkpt lat="42.26361194239113" lon="13.805080190170411"><ele>366.25</ele><time>2026-05-02T09:33:30.997Z</time></trkpt><trkpt lat="42.26373819532704" lon="13.805055821590008"><ele>365.0</ele><time>2026-05-02T09:33:31.997Z</time></trkpt><trkpt lat="42.26385784241443" lon="13.8050372852064"><ele>364.25</ele><time>2026-05-02T09:33:32.996Z</time></trkpt><trkpt lat="42.26396513653481" lon="13.805038444306014"><ele>363.5</ele><time>2026-05-02T09:33:33.996Z</time></trkpt><trkpt lat="42.264082986350616" lon="13.80503066124424"><ele>362.75</ele><time>2026-05-02T09:33:34.996Z</time></trkpt><trkpt lat="42.26420750000848" lon="13.805041866973196"><ele>362.0</ele><time>2026-05-02T09:33:35.996Z</time></trkpt><trkpt lat="42.26433965024412" lon="13.805040857158286"><ele>362.0</ele><time>2026-05-02T09:33:36.996Z</time></trkpt><trkpt lat="42.264474186215885" lon="13.805035010357132"><ele>362.0</ele><time>2026-05-02T09:33:37.996Z</time></trkpt><trkpt lat="42.264612675582946" lon="13.805014288827488"><ele>362.0</ele><time>2026-05-02T09:33:38.996Z</time></trkpt><trkpt lat="42.26475582761584" lon="13.804996909376436"><ele>362.0</ele><time>2026-05-02T09:33:39.996Z</time></trkpt><trkpt lat="42.26491857379041" lon="13.804943821850998"><ele>360.6666666666667</ele><time>2026-05-02T09:33:40.996Z</time></trkpt><trkpt lat="42.26508390777654" lon="13.80490770429988"><ele>359.3333333333333</ele><time>2026-05-02T09:33:41.996Z</time></trkpt><trkpt lat="42.265246665092555" lon="13.804845821521551"><ele>358.0</ele><time>2026-05-02T09:33:42.996Z</time></trkpt><trkpt lat="42.26540920799114" lon="13.804779835955353"><ele>358.0</ele><time>2026-05-02T09:33:43.996Z</time></trkpt><trkpt lat="42.26557121768203" lon="13.804737649365542"><ele>358.0</ele><time>2026-05-02T09:33:44.996Z</time></trkpt><trkpt lat="42.26571325390507" lon="13.804674836651326"><ele>358.0</ele><time>2026-05-02T09:33:46.002Z</time></trkpt><trkpt lat="42.26584726817346" lon="13.804630695496222"><ele>357.5</ele><time>2026-05-02T09:33:47.002Z</time></trkpt><trkpt lat="42.26598587167999" lon="13.804583029860659"><ele>357.0</ele><time>2026-05-02T09:33:48.002Z</time></trkpt><trkpt lat="42.266102289663046" lon="13.804518255361675"><ele>356.5</ele><time>2026-05-02T09:33:49.002Z</time></trkpt><trkpt lat="42.266221371383324" lon="13.804464837486131"><ele>356.0</ele><time>2026-05-02T09:33:50.001Z</time></trkpt><trkpt lat="42.2663401864105" lon="13.804424629842217"><ele>356.0</ele><time>2026-05-02T09:33:51.001Z</time></trkpt><trkpt lat="42.26644124085025" lon="13.804362395475522"><ele>356.0</ele><time>2026-05-02T09:33:52.001Z</time></trkpt><trkpt lat="42.266535309931" lon="13.80427849789555"><ele>356.0</ele><time>2026-05-02T09:33:53.001Z</time></trkpt><trkpt lat="42.26663925715694" lon="13.80418945036877"><ele>356.0</ele><time>2026-05-02T09:33:54.001Z</time></trkpt><trkpt lat="42.266731694645316" lon="13.804103192851008"><ele>355.75</ele><time>2026-05-02T09:33:55.001Z</time></trkpt><trkpt lat="42.26682039066733" lon="13.803992807466146"><ele>355.5</ele><time>2026-05-02T09:33:56.001Z</time></trkpt><trkpt lat="42.266892820303916" lon="13.803901142786247"><ele>355.25</ele><time>2026-05-02T09:33:57.001Z</time></trkpt><trkpt lat="42.26695201919512" lon="13.803803632865352"><ele>355.0</ele><time>2026-05-02T09:33:58.001Z</time></trkpt><trkpt lat="42.26700913099537" lon="13.8036234736501"><ele>355.0</ele><time>2026-05-02T09:34:00.001Z</time></trkpt><trkpt lat="42.26704113103405" lon="13.80350446372845"><ele>355.0</ele><time>2026-05-02T09:34:01.001Z</time></trkpt><trkpt lat="42.26707538849748" lon="13.803375886031764"><ele>355.0</ele><time>2026-05-02T09:34:02.001Z</time></trkpt><trkpt lat="42.26710657245999" lon="13.803266751277961"><ele>355.0</ele><time>2026-05-02T09:34:03.001Z</time></trkpt><trkpt lat="42.26715410818003" lon="13.803144709104677"><ele>355.0</ele><time>2026-05-02T09:34:04.001Z</time></trkpt><trkpt lat="42.267213205925955" lon="13.803036083458954"><ele>354.8</ele><time>2026-05-02T09:34:05Z</time></trkpt><trkpt lat="42.26727943260154" lon="13.802949369071213"><ele>354.6</ele><time>2026-05-02T09:34:06Z</time></trkpt><trkpt lat="42.267341988969406" lon="13.802868070834553"><ele>354.4</ele><time>2026-05-02T09:34:07Z</time></trkpt><trkpt lat="42.26739057276599" lon="13.802790570049561"><ele>354.2</ele><time>2026-05-02T09:34:08Z</time></trkpt><trkpt lat="42.267495389219945" lon="13.802713142844084"><ele>354.0</ele><time>2026-05-02T09:34:10Z</time></trkpt><trkpt lat="42.267483591797" lon="13.802607152618908"><ele>354.0</ele><time>2026-05-02T09:34:12Z</time></trkpt><trkpt lat="42.26757061911819" lon="13.802500025147868"><ele>354.0</ele><time>2026-05-02T09:34:14Z</time></trkpt><trkpt lat="42.26762315325605" lon="13.802387177941192"><ele>354.0</ele><time>2026-05-02T09:34:15Z</time></trkpt><trkpt lat="42.26770983766744" lon="13.802278891455652"><ele>354.0</ele><time>2026-05-02T09:34:16Z</time></trkpt><trkpt lat="42.26778547399843" lon="13.80213284633771"><ele>354.0</ele><time>2026-05-02T09:34:17Z</time></trkpt><trkpt lat="42.2678915150886" lon="13.802011817026573"><ele>354.0</ele><time>2026-05-02T09:34:18Z</time></trkpt><trkpt lat="42.26801163143697" lon="13.801903557797983"><ele>354.0</ele><time>2026-05-02T09:34:19Z</time></trkpt><trkpt lat="42.2681244814122" lon="13.801779743432004"><ele>354.0</ele><time>2026-05-02T09:34:20Z</time></trkpt><trkpt lat="42.26823774930426" lon="13.801666050971937"><ele>353.75</ele><time>2026-05-02T09:34:21Z</time></trkpt><trkpt lat="42.26835000381667" lon="13.80153456503175"><ele>353.5</ele><time>2026-05-02T09:34:22Z</time></trkpt><trkpt lat="42.26846660104711" lon="13.80143412448951"><ele>353.25</ele><time>2026-05-02T09:34:23Z</time></trkpt><trkpt lat="42.26855140516259" lon="13.8013166317248"><ele>353.0</ele><time>2026-05-02T09:34:24Z</time></trkpt><trkpt lat="42.26865886128686" lon="13.801221095681555"><ele>353.0</ele><time>2026-05-02T09:34:25Z</time></trkpt><trkpt lat="42.26876941981404" lon="13.80112248367109"><ele>353.0</ele><time>2026-05-02T09:34:26Z</time></trkpt><trkpt lat="42.268858209200566" lon="13.801032668939278"><ele>353.0</ele><time>2026-05-02T09:34:27Z</time></trkpt><trkpt lat="42.26894698757683" lon="13.80092583071464"><ele>353.0</ele><time>2026-05-02T09:34:28Z</time></trkpt><trkpt lat="42.26905726618128" lon="13.80085018959331"><ele>352.79999999999995</ele><time>2026-05-02T09:34:29Z</time></trkpt><trkpt lat="42.26915669783984" lon="13.800774414024342"><ele>352.6</ele><time>2026-05-02T09:34:30Z</time></trkpt><trkpt lat="42.26925440050639" lon="13.800711839084416"><ele>352.4</ele><time>2026-05-02T09:34:31Z</time></trkpt><trkpt lat="42.269356615992166" lon="13.800668292655232"><ele>352.20000000000005</ele><time>2026-05-02T09:34:32Z</time></trkpt><trkpt lat="42.26944360984039" lon="13.80064860341058"><ele>352.0</ele><time>2026-05-02T09:34:33Z</time></trkpt><trkpt lat="42.269524477211895" lon="13.8006176939621"><ele>352.0</ele><time>2026-05-02T09:34:34Z</time></trkpt><trkpt lat="42.26961773356798" lon="13.800575868071677"><ele>352.0</ele><time>2026-05-02T09:34:35Z</time></trkpt><trkpt lat="42.269675783190856" lon="13.800498540004014"><ele>352.0</ele><time>2026-05-02T09:34:36Z</time></trkpt><trkpt lat="42.269754741943295" lon="13.800419235802002"><ele>352.0</ele><time>2026-05-02T09:34:37Z</time></trkpt><trkpt lat="42.26983778443192" lon="13.800320368778106"><ele>352.0</ele><time>2026-05-02T09:34:38Z</time></trkpt><trkpt lat="42.2699216939568" lon="13.800189676853893"><ele>350.75</ele><time>2026-05-02T09:34:39Z</time></trkpt><trkpt lat="42.270015395094646" lon="13.800069881493618"><ele>349.5</ele><time>2026-05-02T09:34:39.999Z</time></trkpt><trkpt lat="42.27010372711302" lon="13.79995033140958"><ele>348.25</ele><time>2026-05-02T09:34:40.999Z</time></trkpt><trkpt lat="42.27018889207174" lon="13.799820816822562"><ele>347.0</ele><time>2026-05-02T09:34:41.999Z</time></trkpt><trkpt lat="42.270290850506605" lon="13.799732760366547"><ele>347.0</ele><time>2026-05-02T09:34:42.999Z</time></trkpt><trkpt lat="42.27039774012706" lon="13.799661872250155"><ele>347.0</ele><time>2026-05-02T09:34:43.999Z</time></trkpt><trkpt lat="42.270514873846174" lon="13.799614293058049"><ele>347.0</ele><time>2026-05-02T09:34:44.999Z</time></trkpt><trkpt lat="42.27061965769422" lon="13.799553404071657"><ele>347.0</ele><time>2026-05-02T09:34:45.999Z</time></trkpt><trkpt lat="42.270719274529064" lon="13.799478690349897"><ele>347.75</ele><time>2026-05-02T09:34:46.999Z</time></trkpt><trkpt lat="42.27083318467902" lon="13.79943496983518"><ele>348.5</ele><time>2026-05-02T09:34:47.999Z</time></trkpt><trkpt lat="42.270957240428864" lon="13.799418212193546"><ele>349.25</ele><time>2026-05-02T09:34:48.999Z</time></trkpt><trkpt lat="42.27107344653483" lon="13.799397394484492"><ele>350.0</ele><time>2026-05-02T09:34:49.999Z</time></trkpt><trkpt lat="42.2711964833072" lon="13.799365026855515"><ele>349.5</ele><time>2026-05-02T09:34:50.999Z</time></trkpt><trkpt lat="42.27132169443857" lon="13.799323913709635"><ele>349.0</ele><time>2026-05-02T09:34:51.999Z</time></trkpt><trkpt lat="42.27144736319418" lon="13.799299531345037"><ele>348.5</ele><time>2026-05-02T09:34:52.999Z</time></trkpt><trkpt lat="42.271551570076674" lon="13.799248837212785"><ele>348.0</ele><time>2026-05-02T09:34:53.999Z</time></trkpt><trkpt lat="42.27164998850636" lon="13.799169828253861"><ele>348.0</ele><time>2026-05-02T09:34:54.999Z</time></trkpt><trkpt lat="42.27176583124007" lon="13.799107552679615"><ele>348.0</ele><time>2026-05-02T09:34:55.999Z</time></trkpt><trkpt lat="42.2718941661934" lon="13.799051998263904"><ele>348.0</ele><time>2026-05-02T09:34:56.999Z</time></trkpt><trkpt lat="42.27201223602163" lon="13.798993377374504"><ele>348.0</ele><time>2026-05-02T09:34:57.999Z</time></trkpt><trkpt lat="42.27212400981602" lon="13.798910097563981"><ele>348.0</ele><time>2026-05-02T09:34:58.999Z</time></trkpt><trkpt lat="42.27222728789236" lon="13.79883950537628"><ele>348.0</ele><time>2026-05-02T09:34:59.999Z</time></trkpt><trkpt lat="42.27233400260258" lon="13.798786982876058"><ele>348.0</ele><time>2026-05-02T09:35:00.999Z</time></trkpt><trkpt lat="42.27244407708275" lon="13.798648820284717"><ele>348.0</ele><time>2026-05-02T09:35:01.999Z</time></trkpt><trkpt lat="42.27254149357962" lon="13.798568146913466"><ele>347.79999999999995</ele><time>2026-05-02T09:35:02.999Z</time></trkpt><trkpt lat="42.27264149261643" lon="13.79849330363957"><ele>347.6</ele><time>2026-05-02T09:35:03.999Z</time></trkpt><trkpt lat="42.272719297139" lon="13.798441370503578"><ele>347.4</ele><time>2026-05-02T09:35:04.999Z</time></trkpt><trkpt lat="42.272804715825096" lon="13.798372307003165"><ele>347.20000000000005</ele><time>2026-05-02T09:35:05.999Z</time></trkpt><trkpt lat="42.27289381631135" lon="13.798292277812703"><ele>347.0</ele><time>2026-05-02T09:35:06.999Z</time></trkpt><trkpt lat="42.272970791613126" lon="13.798206165915992"><ele>347.0</ele><time>2026-05-02T09:35:07.999Z</time></trkpt><trkpt lat="42.27308125889359" lon="13.798146415724613"><ele>347.0</ele><time>2026-05-02T09:35:08.999Z</time></trkpt><trkpt lat="42.27319589822723" lon="13.79808170806662"><ele>347.0</ele><time>2026-05-02T09:35:09.999Z</time></trkpt><trkpt lat="42.2733038896976" lon="13.798011598604388"><ele>347.0</ele><time>2026-05-02T09:35:10.999Z</time></trkpt><trkpt lat="42.273407726260224" lon="13.797936536084343"><ele>346.5</ele><time>2026-05-02T09:35:11.999Z</time></trkpt><trkpt lat="42.27351440453379" lon="13.797859172724618"><ele>346.0</ele><time>2026-05-02T09:35:12.999Z</time></trkpt><trkpt lat="42.273636293010746" lon="13.797782525776073"><ele>345.5</ele><time>2026-05-02T09:35:13.999Z</time></trkpt><trkpt lat="42.27375939523105" lon="13.797669982969017"><ele>345.0</ele><time>2026-05-02T09:35:14.999Z</time></trkpt><trkpt lat="42.27388516266883" lon="13.797553394090356"><ele>345.4</ele><time>2026-05-02T09:35:15.999Z</time></trkpt><trkpt lat="42.27400307564828" lon="13.797483452843558"><ele>345.8</ele><time>2026-05-02T09:35:16.999Z</time></trkpt><trkpt lat="42.27411169642599" lon="13.797411835239902"><ele>346.20000000000005</ele><time>2026-05-02T09:35:17.999Z</time></trkpt><trkpt lat="42.27420122245579" lon="13.797332592210882"><ele>346.6</ele><time>2026-05-02T09:35:18.999Z</time></trkpt><trkpt lat="42.27428137154755" lon="13.797272372861427"><ele>347.0</ele><time>2026-05-02T09:35:19.999Z</time></trkpt><trkpt lat="42.27439996069786" lon="13.797189693191648"><ele>347.0</ele><time>2026-05-02T09:35:20.999Z</time></trkpt><trkpt lat="42.274506103530065" lon="13.797096871662418"><ele>347.0</ele><time>2026-05-02T09:35:21.999Z</time></trkpt><trkpt lat="42.27462095879502" lon="13.796989849012688"><ele>347.0</ele><time>2026-05-02T09:35:22.999Z</time></trkpt><trkpt lat="42.27475963322518" lon="13.796881621361564"><ele>347.0</ele><time>2026-05-02T09:35:23.999Z</time></trkpt><trkpt lat="42.27486987898543" lon="13.796790042657678"><ele>347.0</ele><time>2026-05-02T09:35:24.999Z</time></trkpt><trkpt lat="42.27497856331462" lon="13.796716293207426"><ele>347.0</ele><time>2026-05-02T09:35:25.999Z</time></trkpt><trkpt lat="42.27508126690698" lon="13.796646624765632"><ele>347.0</ele><time>2026-05-02T09:35:26.999Z</time></trkpt><trkpt lat="42.275161532561654" lon="13.796585365633982"><ele>347.0</ele><time>2026-05-02T09:35:27.999Z</time></trkpt><trkpt lat="42.27523491887562" lon="13.796542665364962"><ele>347.0</ele><time>2026-05-02T09:35:28.999Z</time></trkpt><trkpt lat="42.275306194981624" lon="13.796419408019405"><ele>347.0</ele><time>2026-05-02T09:35:29.999Z</time></trkpt><trkpt lat="42.27541109272271" lon="13.79633472350652"><ele>347.0</ele><time>2026-05-02T09:35:30.999Z</time></trkpt><trkpt lat="42.27551682507481" lon="13.796288789239123"><ele>347.0</ele><time>2026-05-02T09:35:31.999Z</time></trkpt><trkpt lat="42.27561709923326" lon="13.796250812639686"><ele>347.0</ele><time>2026-05-02T09:35:32.999Z</time></trkpt><trkpt lat="42.27570293285227" lon="13.796198483646991"><ele>347.0</ele><time>2026-05-02T09:35:33.999Z</time></trkpt><trkpt lat="42.27577889056195" lon="13.796158738222012"><ele>347.0</ele><time>2026-05-02T09:35:34.999Z</time></trkpt><trkpt lat="42.275848787135295" lon="13.796067806477637"><ele>347.0</ele><time>2026-05-02T09:35:35.999Z</time></trkpt><trkpt lat="42.27595015748415" lon="13.79598559076404"><ele>347.0</ele><time>2026-05-02T09:35:36.999Z</time></trkpt><trkpt lat="42.27605613416036" lon="13.795898626356523"><ele>347.0</ele><time>2026-05-02T09:35:37.999Z</time></trkpt><trkpt lat="42.27615041890872" lon="13.795789356504532"><ele>347.0</ele><time>2026-05-02T09:35:38.999Z</time></trkpt><trkpt lat="42.27624886775353" lon="13.795675235567087"><ele>347.0</ele><time>2026-05-02T09:35:39.999Z</time></trkpt><trkpt lat="42.2763504912615" lon="13.79554129571519"><ele>347.0</ele><time>2026-05-02T09:35:40.999Z</time></trkpt><trkpt lat="42.27647517506252" lon="13.795460838654405"><ele>347.0</ele><time>2026-05-02T09:35:41.999Z</time></trkpt><trkpt lat="42.276582525483974" lon="13.79539765346016"><ele>349.25</ele><time>2026-05-02T09:35:42.999Z</time></trkpt><trkpt lat="42.276682492033835" lon="13.795332413118413"><ele>351.5</ele><time>2026-05-02T09:35:43.999Z</time></trkpt><trkpt lat="42.27678973551813" lon="13.795272848450232"><ele>353.75</ele><time>2026-05-02T09:35:44.999Z</time></trkpt><trkpt lat="42.27691240756256" lon="13.795217975520318"><ele>356.0</ele><time>2026-05-02T09:35:45.999Z</time></trkpt><trkpt lat="42.27703404902035" lon="13.795181037795771"><ele>354.6</ele><time>2026-05-02T09:35:46.999Z</time></trkpt><trkpt lat="42.27714685103115" lon="13.795164471324052"><ele>353.20000000000005</ele><time>2026-05-02T09:35:47.999Z</time></trkpt><trkpt lat="42.277260514185066" lon="13.795149339308646"><ele>351.79999999999995</ele><time>2026-05-02T09:35:48.999Z</time></trkpt><trkpt lat="42.27737539132414" lon="13.79513108119979"><ele>350.4</ele><time>2026-05-02T09:35:49.999Z</time></trkpt><trkpt lat="42.27747740610229" lon="13.79511156065172"><ele>349.0</ele><time>2026-05-02T09:35:50.999Z</time></trkpt><trkpt lat="42.27756759599663" lon="13.79509556470535"><ele>349.0</ele><time>2026-05-02T09:35:51.999Z</time></trkpt><trkpt lat="42.27766295580034" lon="13.795085496198054"><ele>349.0</ele><time>2026-05-02T09:35:52.999Z</time></trkpt><trkpt lat="42.277763305843315" lon="13.795092895212477"><ele>349.0</ele><time>2026-05-02T09:35:53.999Z</time></trkpt><trkpt lat="42.277866041832404" lon="13.79510796852736"><ele>349.0</ele><time>2026-05-02T09:35:54.999Z</time></trkpt><trkpt lat="42.27797591031111" lon="13.795136667740545"><ele>349.0</ele><time>2026-05-02T09:35:55.999Z</time></trkpt><trkpt lat="42.27809473301809" lon="13.795174613074348"><ele>350.5</ele><time>2026-05-02T09:35:56.999Z</time></trkpt><trkpt lat="42.278227578375315" lon="13.795206445195843"><ele>352.0</ele><time>2026-05-02T09:35:57.999Z</time></trkpt><trkpt lat="42.27836646679446" lon="13.795243061544179"><ele>353.5</ele><time>2026-05-02T09:35:58.999Z</time></trkpt><trkpt lat="42.27849161660991" lon="13.79527664091561"><ele>355.0</ele><time>2026-05-02T09:35:59.999Z</time></trkpt><trkpt lat="42.27859753349441" lon="13.795289412804943"><ele>355.0</ele><time>2026-05-02T09:36:00.999Z</time></trkpt><trkpt lat="42.27867953584152" lon="13.795295600587252"><ele>355.0</ele><time>2026-05-02T09:36:01.999Z</time></trkpt><trkpt lat="42.27875395367719" lon="13.795291558019352"><ele>355.0</ele><time>2026-05-02T09:36:02.999Z</time></trkpt><trkpt lat="42.2788412761603" lon="13.795259092171506"><ele>355.0</ele><time>2026-05-02T09:36:03.999Z</time></trkpt><trkpt lat="42.27894639080321" lon="13.795232216720546"><ele>355.0</ele><time>2026-05-02T09:36:04.999Z</time></trkpt><trkpt lat="42.27904920250346" lon="13.795214155749393"><ele>354.5</ele><time>2026-05-02T09:36:05.999Z</time></trkpt><trkpt lat="42.27913791772" lon="13.795200745203813"><ele>354.0</ele><time>2026-05-02T09:36:06.999Z</time></trkpt><trkpt lat="42.27921331210442" lon="13.795180444660964"><ele>353.5</ele><time>2026-05-02T09:36:07.999Z</time></trkpt><trkpt lat="42.27928581219147" lon="13.795143999220583"><ele>353.0</ele><time>2026-05-02T09:36:08.999Z</time></trkpt><trkpt lat="42.27936615744589" lon="13.795098162156071"><ele>352.5</ele><time>2026-05-02T09:36:09.999Z</time></trkpt><trkpt lat="42.27945192427826" lon="13.795026305091875"><ele>352.0</ele><time>2026-05-02T09:36:10.999Z</time></trkpt><trkpt lat="42.27954390310287" lon="13.794946377034544"><ele>348.66666666666663</ele><time>2026-05-02T09:36:11.999Z</time></trkpt><trkpt lat="42.27965322717622" lon="13.794849369280007"><ele>345.3333333333333</ele><time>2026-05-02T09:36:12.999Z</time></trkpt><trkpt lat="42.279782989124264" lon="13.794738537026559"><ele>342.0</ele><time>2026-05-02T09:36:13.998Z</time></trkpt><trkpt lat="42.279923105947354" lon="13.794619726749373"><ele>342.0</ele><time>2026-05-02T09:36:14.998Z</time></trkpt><trkpt lat="42.280060469879196" lon="13.794495259623908"><ele>342.0</ele><time>2026-05-02T09:36:15.998Z</time></trkpt><trkpt lat="42.28020211841203" lon="13.794384230355806"><ele>342.0</ele><time>2026-05-02T09:36:16.998Z</time></trkpt><trkpt lat="42.2803466501215" lon="13.794275512382123"><ele>342.0</ele><time>2026-05-02T09:36:17.998Z</time></trkpt><trkpt lat="42.28049496362796" lon="13.794152807003082"><ele>342.0</ele><time>2026-05-02T09:36:18.998Z</time></trkpt><trkpt lat="42.28064970539721" lon="13.794033427629698"><ele>342.0</ele><time>2026-05-02T09:36:19.998Z</time></trkpt><trkpt lat="42.280805417907324" lon="13.793921183514376"><ele>342.0</ele><time>2026-05-02T09:36:20.998Z</time></trkpt><trkpt lat="42.280957672066236" lon="13.793837358399404"><ele>342.0</ele><time>2026-05-02T09:36:21.998Z</time></trkpt><trkpt lat="42.281107456636036" lon="13.793766995172385"><ele>342.0</ele><time>2026-05-02T09:36:22.998Z</time></trkpt><trkpt lat="42.28125955236476" lon="13.793700842887826"><ele>342.0</ele><time>2026-05-02T09:36:23.998Z</time></trkpt><trkpt lat="42.28141448580718" lon="13.793620077723755"><ele>342.0</ele><time>2026-05-02T09:36:24.998Z</time></trkpt><trkpt lat="42.28153873496851" lon="13.793526025438386"><ele>342.0</ele><time>2026-05-02T09:36:25.998Z</time></trkpt><trkpt lat="42.28166441986719" lon="13.793465996818812"><ele>342.0</ele><time>2026-05-02T09:36:26.998Z</time></trkpt><trkpt lat="42.28176836356448" lon="13.793397032561794"><ele>342.0</ele><time>2026-05-02T09:36:27.998Z</time></trkpt><trkpt lat="42.28188174052446" lon="13.79332389612631"><ele>342.0</ele><time>2026-05-02T09:36:28.998Z</time></trkpt><trkpt lat="42.28199037749504" lon="13.79323897944241"><ele>342.0</ele><time>2026-05-02T09:36:29.998Z</time></trkpt><trkpt lat="42.28209457176851" lon="13.793152991169242"><ele>342.0</ele><time>2026-05-02T09:36:30.998Z</time></trkpt><trkpt lat="42.28220017585565" lon="13.793055723364516"><ele>342.25</ele><time>2026-05-02T09:36:31.998Z</time></trkpt><trkpt lat="42.28230027756752" lon="13.792956501949094"><ele>342.5</ele><time>2026-05-02T09:36:32.998Z</time></trkpt><trkpt lat="42.28238183240006" lon="13.792842214888948"><ele>342.75</ele><time>2026-05-02T09:36:33.998Z</time></trkpt><trkpt lat="42.28247813863822" lon="13.792754042746129"><ele>343.0</ele><time>2026-05-02T09:36:34.998Z</time></trkpt><trkpt lat="42.28255431758509" lon="13.79264145502414"><ele>343.0</ele><time>2026-05-02T09:36:35.998Z</time></trkpt><trkpt lat="42.28260232948069" lon="13.792513926846313"><ele>343.0</ele><time>2026-05-02T09:36:36.998Z</time></trkpt><trkpt lat="42.282643326658196" lon="13.792402274233108"><ele>343.0</ele><time>2026-05-02T09:36:37.998Z</time></trkpt><trkpt lat="42.282654655779396" lon="13.792306781537611"><ele>343.0</ele><time>2026-05-02T09:36:38.998Z</time></trkpt><trkpt lat="42.28263906200007" lon="13.792182764925473"><ele>343.0</ele><time>2026-05-02T09:36:40.998Z</time></trkpt><trkpt lat="42.282623446763544" lon="13.792050316262166"><ele>343.0</ele><time>2026-05-02T09:36:42.998Z</time></trkpt><trkpt lat="42.2825772766601" lon="13.791948918778907"><ele>343.0</ele><time>2026-05-02T09:36:43.998Z</time></trkpt><trkpt lat="42.2825559624574" lon="13.79186079990535"><ele>343.0</ele><time>2026-05-02T09:36:44.998Z</time></trkpt><trkpt lat="42.282529614194104" lon="13.79176951014056"><ele>343.0</ele><time>2026-05-02T09:36:46.998Z</time></trkpt><trkpt lat="42.282496416218876" lon="13.791859839832735"><ele>343.0</ele><time>2026-05-02T09:36:58.998Z</time></trkpt><trkpt lat="42.282523804637" lon="13.791977617292051"><ele>343.0</ele><time>2026-05-02T09:37:00.998Z</time></trkpt><trkpt lat="42.28259786521077" lon="13.792105904018074"><ele>343.0</ele><time>2026-05-02T09:37:02.998Z</time></trkpt><trkpt lat="42.282697599520134" lon="13.792144277784177"><ele>343.0</ele><time>2026-05-02T09:37:04.998Z</time></trkpt><trkpt lat="42.28281263891688" lon="13.79208902934938"><ele>343.0</ele><time>2026-05-02T09:37:06.998Z</time></trkpt><trkpt lat="42.28287274121864" lon="13.792027535010556"><ele>343.0</ele><time>2026-05-02T09:37:07.998Z</time></trkpt><trkpt lat="42.28295412416142" lon="13.791937314435522"><ele>343.0</ele><time>2026-05-02T09:37:08.998Z</time></trkpt><trkpt lat="42.28305086168306" lon="13.791848972582365"><ele>344.0</ele><time>2026-05-02T09:37:09.998Z</time></trkpt><trkpt lat="42.28316937784596" lon="13.791744230513682"><ele>345.0</ele><time>2026-05-02T09:37:10.998Z</time></trkpt><trkpt lat="42.283284970216926" lon="13.791640144900956"><ele>346.0</ele><time>2026-05-02T09:37:11.998Z</time></trkpt><trkpt lat="42.28338737647954" lon="13.791537283063425"><ele>347.0</ele><time>2026-05-02T09:37:12.998Z</time></trkpt><trkpt lat="42.28350851439643" lon="13.791472080197021"><ele>347.0</ele><time>2026-05-02T09:37:13.998Z</time></trkpt><trkpt lat="42.283603787697594" lon="13.791394830062169"><ele>347.0</ele><time>2026-05-02T09:37:14.998Z</time></trkpt><trkpt lat="42.28367993296076" lon="13.791335486988446"><ele>347.0</ele><time>2026-05-02T09:37:15.998Z</time></trkpt><trkpt lat="42.28373437094235" lon="13.791290920385617"><ele>347.0</ele><time>2026-05-02T09:37:16.998Z</time></trkpt><trkpt lat="42.283745579201174" lon="13.791205258609816"><ele>347.0</ele><time>2026-05-02T09:37:21.998Z</time></trkpt><trkpt lat="42.2836341858509" lon="13.791138799230563"><ele>347.0</ele><time>2026-05-02T09:37:22.998Z</time></trkpt><trkpt lat="42.28352750381816" lon="13.791035481539383"><ele>347.20000000000005</ele><time>2026-05-02T09:37:23.998Z</time></trkpt><trkpt lat="42.28343616962267" lon="13.79093011956239"><ele>347.4</ele><time>2026-05-02T09:37:24.998Z</time></trkpt><trkpt lat="42.28334742841763" lon="13.790845344512615"><ele>347.6</ele><time>2026-05-02T09:37:25.998Z</time></trkpt><trkpt lat="42.28328135326085" lon="13.790756824346293"><ele>347.79999999999995</ele><time>2026-05-02T09:37:26.998Z</time></trkpt><trkpt lat="42.283225686093786" lon="13.79066688770706"><ele>348.0</ele><time>2026-05-02T09:37:27.998Z</time></trkpt><trkpt lat="42.283166715984585" lon="13.790556634779913"><ele>348.0</ele><time>2026-05-02T09:37:28.998Z</time></trkpt><trkpt lat="42.2831076043393" lon="13.790488314333759"><ele>348.0</ele><time>2026-05-02T09:37:29.998Z</time></trkpt><trkpt lat="42.28305291513062" lon="13.790409766759272"><ele>348.0</ele><time>2026-05-02T09:37:30.998Z</time></trkpt><trkpt lat="42.28303421554211" lon="13.790257793630216"><ele>348.0</ele><time>2026-05-02T09:37:32.998Z</time></trkpt><trkpt lat="42.283047104956935" lon="13.790162408802873"><ele>348.0</ele><time>2026-05-02T09:37:33.998Z</time></trkpt><trkpt lat="42.28308715354069" lon="13.790048552912147"><ele>348.0</ele><time>2026-05-02T09:37:34.998Z</time></trkpt><trkpt lat="42.283098051366345" lon="13.789929814683552"><ele>346.5</ele><time>2026-05-02T09:37:36.998Z</time></trkpt><trkpt lat="42.283005479086306" lon="13.78986439692252"><ele>345.0</ele><time>2026-05-02T09:37:39.998Z</time></trkpt><trkpt lat="42.282909896980144" lon="13.789832493499631"><ele>343.5</ele><time>2026-05-02T09:37:40.998Z</time></trkpt><trkpt lat="42.28278507713503" lon="13.789736361439463"><ele>342.0</ele><time>2026-05-02T09:37:41.998Z</time></trkpt><trkpt lat="42.282660526966936" lon="13.789610667883338"><ele>342.0</ele><time>2026-05-02T09:37:42.998Z</time></trkpt><trkpt lat="42.28252064975741" lon="13.789485319280772"><ele>342.0</ele><time>2026-05-02T09:37:43.998Z</time></trkpt><trkpt lat="42.28244057122814" lon="13.789366608406164"><ele>342.0</ele><time>2026-05-02T09:37:44.998Z</time></trkpt><trkpt lat="42.28235839376493" lon="13.789285010415261"><ele>342.0</ele><time>2026-05-02T09:37:45.998Z</time></trkpt><trkpt lat="42.28227352415438" lon="13.789217310453122"><ele>342.0</ele><time>2026-05-02T09:37:47.998Z</time></trkpt><trkpt lat="42.282318411042354" lon="13.789335826971874"><ele>342.0</ele><time>2026-05-02T09:38:08.997Z</time></trkpt><trkpt lat="42.28239968067147" lon="13.78941139489043"><ele>342.0</ele><time>2026-05-02T09:38:09.997Z</time></trkpt><trkpt lat="42.28251188053421" lon="13.78948284827314"><ele>342.0</ele><time>2026-05-02T09:38:10.997Z</time></trkpt><trkpt lat="42.28262554335285" lon="13.789558514491404"><ele>342.0</ele><time>2026-05-02T09:38:11.997Z</time></trkpt><trkpt lat="42.28271855139586" lon="13.789627391137003"><ele>342.0</ele><time>2026-05-02T09:38:12.997Z</time></trkpt><trkpt lat="42.28278595337614" lon="13.789707860391196"><ele>342.0</ele><time>2026-05-02T09:38:13.997Z</time></trkpt><trkpt lat="42.282862511470164" lon="13.789780334940387"><ele>342.0</ele><time>2026-05-02T09:38:14.997Z</time></trkpt><trkpt lat="42.282938232378974" lon="13.78983878070724"><ele>342.0</ele><time>2026-05-02T09:38:15.997Z</time></trkpt><trkpt lat="42.283026901340435" lon="13.789873781688057"><ele>342.0</ele><time>2026-05-02T09:38:17.997Z</time></trkpt><trkpt lat="42.28304589210121" lon="13.78978114916001"><ele>342.0</ele><time>2026-05-02T09:38:19.997Z</time></trkpt><trkpt lat="42.28308834045064" lon="13.78966397138013"><ele>342.6</ele><time>2026-05-02T09:38:21.997Z</time></trkpt><trkpt lat="42.28312872611422" lon="13.789514302352904"><ele>343.20000000000005</ele><time>2026-05-02T09:38:23.997Z</time></trkpt><trkpt lat="42.283149254825936" lon="13.789402003112334"><ele>343.8</ele><time>2026-05-02T09:38:25.997Z</time></trkpt><trkpt lat="42.28316936200361" lon="13.789307306596196"><ele>344.4</ele><time>2026-05-02T09:38:27.997Z</time></trkpt><trkpt lat="42.283200542251585" lon="13.789204811194999"><ele>345.0</ele><time>2026-05-02T09:38:29.997Z</time></trkpt><trkpt lat="42.28325784389021" lon="13.789071572813393"><ele>345.0</ele><time>2026-05-02T09:38:31.997Z</time></trkpt><trkpt lat="42.28328958341182" lon="13.788990804805227"><ele>345.0</ele><time>2026-05-02T09:38:32.997Z</time></trkpt><trkpt lat="42.28331725321084" lon="13.78890528056289"><ele>345.0</ele><time>2026-05-02T09:38:33.997Z</time></trkpt><trkpt lat="42.283334459214814" lon="13.788817817753547"><ele>345.0</ele><time>2026-05-02T09:38:34.997Z</time></trkpt><trkpt lat="42.283351244167726" lon="13.788732402531602"><ele>345.0</ele><time>2026-05-02T09:38:35.997Z</time></trkpt><trkpt lat="42.28337878188605" lon="13.788645007381216"><ele>345.0</ele><time>2026-05-02T09:38:36.997Z</time></trkpt><trkpt lat="42.28340015711106" lon="13.788549333321702"><ele>345.0</ele><time>2026-05-02T09:38:37.997Z</time></trkpt><trkpt lat="42.28341539766212" lon="13.78843745587787"><ele>344.2</ele><time>2026-05-02T09:38:38.997Z</time></trkpt><trkpt lat="42.283404187798716" lon="13.78831934718443"><ele>343.4</ele><time>2026-05-02T09:38:39.997Z</time></trkpt><trkpt lat="42.28337845190563" lon="13.78819847685213"><ele>342.6</ele><time>2026-05-02T09:38:40.997Z</time></trkpt><trkpt lat="42.28334096622036" lon="13.788082979498984"><ele>341.8</ele><time>2026-05-02T09:38:41.997Z</time></trkpt><trkpt lat="42.28328931539355" lon="13.787973701641086"><ele>341.0</ele><time>2026-05-02T09:38:42.997Z</time></trkpt><trkpt lat="42.283234353908036" lon="13.787866419457911"><ele>341.0</ele><time>2026-05-02T09:38:43.997Z</time></trkpt><trkpt lat="42.28317427091763" lon="13.787762632498639"><ele>341.0</ele><time>2026-05-02T09:38:44.997Z</time></trkpt><trkpt lat="42.283117927451514" lon="13.787667521773018"><ele>341.0</ele><time>2026-05-02T09:38:45.997Z</time></trkpt><trkpt lat="42.28307134514599" lon="13.78757736647798"><ele>341.0</ele><time>2026-05-02T09:38:46.997Z</time></trkpt><trkpt lat="42.28302866007551" lon="13.78749676388232"><ele>341.0</ele><time>2026-05-02T09:38:47.997Z</time></trkpt><trkpt lat="42.28298351824881" lon="13.787400944326476"><ele>341.0</ele><time>2026-05-02T09:38:48.997Z</time></trkpt><trkpt lat="42.28293531292371" lon="13.787274695806534"><ele>341.0</ele><time>2026-05-02T09:38:49.997Z</time></trkpt><trkpt lat="42.2828766364174" lon="13.787148063083551"><ele>341.0</ele><time>2026-05-02T09:38:50.997Z</time></trkpt><trkpt lat="42.282821091407826" lon="13.787016808355745"><ele>341.0</ele><time>2026-05-02T09:38:51.997Z</time></trkpt><trkpt lat="42.28276416511794" lon="13.786873478885528"><ele>341.0</ele><time>2026-05-02T09:38:52.997Z</time></trkpt><trkpt lat="42.28270449943054" lon="13.786711234212554"><ele>341.0</ele><time>2026-05-02T09:38:53.997Z</time></trkpt><trkpt lat="42.28264433418808" lon="13.786545137964636"><ele>341.0</ele><time>2026-05-02T09:38:54.997Z</time></trkpt><trkpt lat="42.2825914537988" lon="13.786380163508266"><ele>341.0</ele><time>2026-05-02T09:38:55.997Z</time></trkpt><trkpt lat="42.28254075321872" lon="13.78622545975733"><ele>341.0</ele><time>2026-05-02T09:38:56.997Z</time></trkpt><trkpt lat="42.28248881519214" lon="13.786081372231685"><ele>340.75</ele><time>2026-05-02T09:38:57.997Z</time></trkpt><trkpt lat="42.28243029382508" lon="13.785935697228542"><ele>340.5</ele><time>2026-05-02T09:38:58.997Z</time></trkpt><trkpt lat="42.282388657482656" lon="13.785770630038078"><ele>340.25</ele><time>2026-05-02T09:38:59.997Z</time></trkpt><trkpt lat="42.28235123667168" lon="13.785608022802178"><ele>340.0</ele><time>2026-05-02T09:39:00.997Z</time></trkpt><trkpt lat="42.28231376598497" lon="13.785458596841345"><ele>340.0</ele><time>2026-05-02T09:39:01.997Z</time></trkpt><trkpt lat="42.28227555787878" lon="13.785308583998296"><ele>340.0</ele><time>2026-05-02T09:39:02.997Z</time></trkpt><trkpt lat="42.282226427704956" lon="13.785141773012704"><ele>340.0</ele><time>2026-05-02T09:39:03.997Z</time></trkpt><trkpt lat="42.28217850023346" lon="13.784960783843689"><ele>340.0</ele><time>2026-05-02T09:39:04.997Z</time></trkpt><trkpt lat="42.28212800798338" lon="13.784782290634084"><ele>340.0</ele><time>2026-05-02T09:39:05.997Z</time></trkpt><trkpt lat="42.28208192183598" lon="13.784604139186138"><ele>340.0</ele><time>2026-05-02T09:39:06.997Z</time></trkpt><trkpt lat="42.28203683695017" lon="13.784432343292687"><ele>340.0</ele><time>2026-05-02T09:39:07.997Z</time></trkpt><trkpt lat="42.28199489126116" lon="13.784262952035904"><ele>340.0</ele><time>2026-05-02T09:39:08.997Z</time></trkpt><trkpt lat="42.28195351352189" lon="13.784096311061813"><ele>340.0</ele><time>2026-05-02T09:39:09.997Z</time></trkpt><trkpt lat="42.281915096207186" lon="13.78393250565724"><ele>340.0</ele><time>2026-05-02T09:39:10.997Z</time></trkpt><trkpt lat="42.281874728276385" lon="13.78376696932573"><ele>340.0</ele><time>2026-05-02T09:39:11.997Z</time></trkpt><trkpt lat="42.28183586465295" lon="13.783595029555059"><ele>340.0</ele><time>2026-05-02T09:39:12.997Z</time></trkpt><trkpt lat="42.281784414798686" lon="13.783424980561986"><ele>339.75</ele><time>2026-05-02T09:39:13.997Z</time></trkpt><trkpt lat="42.28173129112775" lon="13.783256541159389"><ele>339.5</ele><time>2026-05-02T09:39:14.997Z</time></trkpt><trkpt lat="42.28167703086394" lon="13.783091797733709"><ele>339.25</ele><time>2026-05-02T09:39:15.997Z</time></trkpt><trkpt lat="42.28161998696985" lon="13.782922031391712"><ele>339.0</ele><time>2026-05-02T09:39:16.997Z</time></trkpt><trkpt lat="42.281556972917606" lon="13.782747368423207"><ele>340.0</ele><time>2026-05-02T09:39:17.997Z</time></trkpt><trkpt lat="42.281491370817655" lon="13.782569690354546"><ele>341.0</ele><time>2026-05-02T09:39:18.997Z</time></trkpt><trkpt lat="42.2814252795523" lon="13.782384574465027"><ele>342.0</ele><time>2026-05-02T09:39:19.997Z</time></trkpt><trkpt lat="42.28136543596762" lon="13.782195041616859"><ele>342.0</ele><time>2026-05-02T09:39:20.997Z</time></trkpt><trkpt lat="42.28130150356467" lon="13.782016101062856"><ele>342.0</ele><time>2026-05-02T09:39:21.997Z</time></trkpt><trkpt lat="42.28124223545452" lon="13.781846417641091"><ele>342.0</ele><time>2026-05-02T09:39:22.997Z</time></trkpt><trkpt lat="42.28118484904682" lon="13.7816806307285"><ele>342.0</ele><time>2026-05-02T09:39:23.997Z</time></trkpt><trkpt lat="42.28112547844643" lon="13.781516944153507"><ele>342.0</ele><time>2026-05-02T09:39:24.997Z</time></trkpt><trkpt lat="42.28107036762422" lon="13.781349111448389"><ele>342.0</ele><time>2026-05-02T09:39:25.997Z</time></trkpt><trkpt lat="42.281016694563" lon="13.78117573581336"><ele>342.0</ele><time>2026-05-02T09:39:26.997Z</time></trkpt><trkpt lat="42.28097292681815" lon="13.781007805557232"><ele>342.0</ele><time>2026-05-02T09:39:27.997Z</time></trkpt><trkpt lat="42.28093391275416" lon="13.780852848504297"><ele>341.8</ele><time>2026-05-02T09:39:28.997Z</time></trkpt><trkpt lat="42.28089832842921" lon="13.780706151946946"><ele>341.6</ele><time>2026-05-02T09:39:29.997Z</time></trkpt><trkpt lat="42.28086842607807" lon="13.780562765420475"><ele>341.40000000000003</ele><time>2026-05-02T09:39:30.997Z</time></trkpt><trkpt lat="42.28084100167316" lon="13.780423822782634"><ele>341.20000000000005</ele><time>2026-05-02T09:39:31.997Z</time></trkpt><trkpt lat="42.28080818388518" lon="13.78028438544759"><ele>341.0</ele><time>2026-05-02T09:39:32.997Z</time></trkpt><trkpt lat="42.280775858141446" lon="13.780142611925397"><ele>341.75</ele><time>2026-05-02T09:39:33.997Z</time></trkpt><trkpt lat="42.28073452970717" lon="13.780007315606474"><ele>342.5</ele><time>2026-05-02T09:39:34.997Z</time></trkpt><trkpt lat="42.28068896098758" lon="13.779863781448993"><ele>343.25</ele><time>2026-05-02T09:39:35.996Z</time></trkpt><trkpt lat="42.280623396523595" lon="13.779723875990234"><ele>344.0</ele><time>2026-05-02T09:39:36.996Z</time></trkpt><trkpt lat="42.280573370749444" lon="13.779560139140623"><ele>344.0</ele><time>2026-05-02T09:39:37.996Z</time></trkpt><trkpt lat="42.28051397759556" lon="13.779417267017475"><ele>344.0</ele><time>2026-05-02T09:39:38.996Z</time></trkpt><trkpt lat="42.28047189440966" lon="13.77926760881472"><ele>344.0</ele><time>2026-05-02T09:39:39.996Z</time></trkpt><trkpt lat="42.280437399998924" lon="13.779104671042052"><ele>344.0</ele><time>2026-05-02T09:39:40.996Z</time></trkpt><trkpt lat="42.28042005634955" lon="13.778931998022733"><ele>344.25</ele><time>2026-05-02T09:39:41.996Z</time></trkpt><trkpt lat="42.280394529537894" lon="13.77875753389133"><ele>344.5</ele><time>2026-05-02T09:39:42.996Z</time></trkpt><trkpt lat="42.280374748904585" lon="13.778582538244644"><ele>344.75</ele><time>2026-05-02T09:39:43.996Z</time></trkpt><trkpt lat="42.28035378601406" lon="13.778402501916336"><ele>345.0</ele><time>2026-05-02T09:39:44.996Z</time></trkpt><trkpt lat="42.280333854120286" lon="13.778220007936206"><ele>345.0</ele><time>2026-05-02T09:39:45.996Z</time></trkpt><trkpt lat="42.280310394347474" lon="13.778036336378536"><ele>345.0</ele><time>2026-05-02T09:39:46.996Z</time></trkpt><trkpt lat="42.28028628875492" lon="13.777855975582048"><ele>345.0</ele><time>2026-05-02T09:39:47.996Z</time></trkpt><trkpt lat="42.28025726663416" lon="13.777682195384005"><ele>345.0</ele><time>2026-05-02T09:39:48.996Z</time></trkpt><trkpt lat="42.2802338709992" lon="13.777509714408943"><ele>345.25</ele><time>2026-05-02T09:39:49.996Z</time></trkpt><trkpt lat="42.28020477432336" lon="13.777338531350523"><ele>345.5</ele><time>2026-05-02T09:39:50.996Z</time></trkpt><trkpt lat="42.2801741650458" lon="13.777161950105514"><ele>345.75</ele><time>2026-05-02T09:39:51.996Z</time></trkpt><trkpt lat="42.28013545463449" lon="13.776981073591221"><ele>346.0</ele><time>2026-05-02T09:39:52.996Z</time></trkpt><trkpt lat="42.28009659946591" lon="13.77680099288928"><ele>346.0</ele><time>2026-05-02T09:39:53.996Z</time></trkpt><trkpt lat="42.28006156019202" lon="13.776617341820685"><ele>346.0</ele><time>2026-05-02T09:39:54.996Z</time></trkpt><trkpt lat="42.2800366885187" lon="13.776436288681172"><ele>346.0</ele><time>2026-05-02T09:39:55.996Z</time></trkpt><trkpt lat="42.280014219343606" lon="13.776261811717635"><ele>346.0</ele><time>2026-05-02T09:39:56.996Z</time></trkpt><trkpt lat="42.2799894790888" lon="13.77609545294838"><ele>346.20000000000005</ele><time>2026-05-02T09:39:57.996Z</time></trkpt><trkpt lat="42.279974933423446" lon="13.77593417299335"><ele>346.40000000000003</ele><time>2026-05-02T09:39:58.996Z</time></trkpt><trkpt lat="42.27997697171877" lon="13.775794913114753"><ele>346.6</ele><time>2026-05-02T09:39:59.996Z</time></trkpt><trkpt lat="42.27998308056472" lon="13.77570309849554"><ele>346.8</ele><time>2026-05-02T09:40:00.996Z</time></trkpt><trkpt lat="42.28000384415059" lon="13.775609340656095"><ele>347.0</ele><time>2026-05-02T09:40:02.996Z</time></trkpt><trkpt lat="42.28008790872711" lon="13.77552053043668"><ele>347.0</ele><time>2026-05-02T09:40:04.996Z</time></trkpt><trkpt lat="42.28015914107532" lon="13.775467555619048"><ele>347.0</ele><time>2026-05-02T09:40:05.996Z</time></trkpt><trkpt lat="42.280247837011274" lon="13.775397434344624"><ele>347.0</ele><time>2026-05-02T09:40:06.996Z</time></trkpt><trkpt lat="42.28036134981712" lon="13.775308423596174"><ele>347.0</ele><time>2026-05-02T09:40:07.996Z</time></trkpt><trkpt lat="42.28048357865952" lon="13.775193097109986"><ele>347.0</ele><time>2026-05-02T09:40:08.996Z</time></trkpt><trkpt lat="42.28060701621505" lon="13.77509583512293"><ele>347.0</ele><time>2026-05-02T09:40:09.996Z</time></trkpt><trkpt lat="42.28072030383914" lon="13.77499081273888"><ele>347.0</ele><time>2026-05-02T09:40:10.996Z</time></trkpt><trkpt lat="42.28083111320132" lon="13.774904059224594"><ele>347.0</ele><time>2026-05-02T09:40:11.996Z</time></trkpt><trkpt lat="42.2809387360047" lon="13.77482457881035"><ele>347.0</ele><time>2026-05-02T09:40:12.996Z</time></trkpt><trkpt lat="42.281036476358665" lon="13.774756554882623"><ele>347.0</ele><time>2026-05-02T09:40:13.996Z</time></trkpt><trkpt lat="42.28112316554661" lon="13.774699750967676"><ele>347.0</ele><time>2026-05-02T09:40:14.996Z</time></trkpt><trkpt lat="42.281200623727116" lon="13.774646280579462"><ele>347.0</ele><time>2026-05-02T09:40:15.996Z</time></trkpt><trkpt lat="42.28126822926989" lon="13.774596200821932"><ele>347.0</ele><time>2026-05-02T09:40:16.996Z</time></trkpt><trkpt lat="42.2813180408126" lon="13.774542138170025"><ele>347.0</ele><time>2026-05-02T09:40:17.996Z</time></trkpt><trkpt lat="42.281386455392926" lon="13.774493428859712"><ele>347.40000000000003</ele><time>2026-05-02T09:40:19.996Z</time></trkpt><trkpt lat="42.281473430848536" lon="13.77443711085952"><ele>347.8</ele><time>2026-05-02T09:40:52Z</time></trkpt><trkpt lat="42.281510929600266" lon="13.774359154576352"><ele>348.2</ele><time>2026-05-02T09:40:55Z</time></trkpt><trkpt lat="42.28144177692503" lon="13.774221734236818"><ele>348.6</ele><time>2026-05-02T09:40:57Z</time></trkpt><trkpt lat="42.28137608304524" lon="13.774128269281418"><ele>349.0</ele><time>2026-05-02T09:40:58Z</time></trkpt><trkpt lat="42.28129076829767" lon="13.774008915425993"><ele>349.5</ele><time>2026-05-02T09:40:59Z</time></trkpt><trkpt lat="42.28119608827044" lon="13.773887194280078"><ele>350.0</ele><time>2026-05-02T09:41:00Z</time></trkpt><trkpt lat="42.28109964560367" lon="13.773761656559676"><ele>350.5</ele><time>2026-05-02T09:41:01Z</time></trkpt><trkpt lat="42.281006887713076" lon="13.773633721286185"><ele>351.0</ele><time>2026-05-02T09:41:02Z</time></trkpt><trkpt lat="42.28092059008276" lon="13.773491356136754"><ele>353.3333333333333</ele><time>2026-05-02T09:41:03Z</time></trkpt><trkpt lat="42.28082887800613" lon="13.773334395093988"><ele>355.66666666666663</ele><time>2026-05-02T09:41:04Z</time></trkpt><trkpt lat="42.28074475200516" lon="13.773158629272332"><ele>358.0</ele><time>2026-05-02T09:41:05Z</time></trkpt><trkpt lat="42.28065668707879" lon="13.772982266594582"><ele>357.0</ele><time>2026-05-02T09:41:06Z</time></trkpt><trkpt lat="42.280564612252746" lon="13.772797532399503"><ele>356.0</ele><time>2026-05-02T09:41:07Z</time></trkpt><trkpt lat="42.280468655644086" lon="13.7726195857048"><ele>355.0</ele><time>2026-05-02T09:41:08Z</time></trkpt><trkpt lat="42.28040141765888" lon="13.772462210718798"><ele>355.0</ele><time>2026-05-02T09:41:09Z</time></trkpt><trkpt lat="42.28034351130125" lon="13.772330727210571"><ele>355.0</ele><time>2026-05-02T09:41:10Z</time></trkpt><trkpt lat="42.2802751649736" lon="13.772222735047494"><ele>355.0</ele><time>2026-05-02T09:41:11Z</time></trkpt><trkpt lat="42.28017375212942" lon="13.772143959921946"><ele>355.0</ele><time>2026-05-02T09:41:12Z</time></trkpt><trkpt lat="42.28003788538629" lon="13.772089963185985"><ele>355.0</ele><time>2026-05-02T09:41:13Z</time></trkpt><trkpt lat="42.27993526082472" lon="13.771977712294087"><ele>355.0</ele><time>2026-05-02T09:41:14Z</time></trkpt><trkpt lat="42.27982730585485" lon="13.77186004683266"><ele>355.0</ele><time>2026-05-02T09:41:15Z</time></trkpt><trkpt lat="42.279741520560655" lon="13.771722716104785"><ele>355.0</ele><time>2026-05-02T09:41:16Z</time></trkpt><trkpt lat="42.27965166778855" lon="13.77157188277513"><ele>355.66666666666663</ele><time>2026-05-02T09:41:17Z</time></trkpt><trkpt lat="42.27958278685749" lon="13.771395582171092"><ele>356.3333333333333</ele><time>2026-05-02T09:41:18Z</time></trkpt><trkpt lat="42.27951536181905" lon="13.771193401008928"><ele>357.0</ele><time>2026-05-02T09:41:19Z</time></trkpt><trkpt lat="42.279460799879075" lon="13.770993488143422"><ele>357.5</ele><time>2026-05-02T09:41:20Z</time></trkpt><trkpt lat="42.27941000402757" lon="13.770813816212733"><ele>358.0</ele><time>2026-05-02T09:41:21Z</time></trkpt><trkpt lat="42.27931293571499" lon="13.770660169610135"><ele>358.5</ele><time>2026-05-02T09:41:22Z</time></trkpt><trkpt lat="42.27926938345363" lon="13.770496341506346"><ele>359.0</ele><time>2026-05-02T09:41:23Z</time></trkpt><trkpt lat="42.279223204021946" lon="13.770348877624683"><ele>359.0</ele><time>2026-05-02T09:41:24Z</time></trkpt><trkpt lat="42.27916018216808" lon="13.770202048661329"><ele>359.0</ele><time>2026-05-02T09:41:25Z</time></trkpt><trkpt lat="42.27911028993187" lon="13.770084862871956"><ele>359.0</ele><time>2026-05-02T09:41:26Z</time></trkpt><trkpt lat="42.27909021040897" lon="13.76996084966448"><ele>359.0</ele><time>2026-05-02T09:41:27Z</time></trkpt><trkpt lat="42.27905253230227" lon="13.76984233889212"><ele>359.0</ele><time>2026-05-02T09:41:28Z</time></trkpt><trkpt lat="42.27898537870253" lon="13.769712908907419"><ele>359.2</ele><time>2026-05-02T09:41:29Z</time></trkpt><trkpt lat="42.27896194663114" lon="13.76957768536621"><ele>359.4</ele><time>2026-05-02T09:41:30Z</time></trkpt><trkpt lat="42.278939906089775" lon="13.76945622413919"><ele>359.6</ele><time>2026-05-02T09:41:31Z</time></trkpt><trkpt lat="42.278928821206776" lon="13.769362626429285"><ele>359.8</ele><time>2026-05-02T09:41:32Z</time></trkpt><trkpt lat="42.27899440367344" lon="13.7692035658492"><ele>360.0</ele><time>2026-05-02T09:41:34Z</time></trkpt><trkpt lat="42.279107083735006" lon="13.769148893217576"><ele>360.75</ele><time>2026-05-02T09:41:35Z</time></trkpt><trkpt lat="42.279220726395266" lon="13.769083307920926"><ele>361.5</ele><time>2026-05-02T09:41:36Z</time></trkpt><trkpt lat="42.279339021800894" lon="13.769009523120488"><ele>362.25</ele><time>2026-05-02T09:41:37Z</time></trkpt><trkpt lat="42.27948531630527" lon="13.768939400765808"><ele>363.0</ele><time>2026-05-02T09:41:38Z</time></trkpt><trkpt lat="42.27963069965008" lon="13.76881387623655"><ele>363.3333333333333</ele><time>2026-05-02T09:41:39Z</time></trkpt><trkpt lat="42.27980469524693" lon="13.768687970146129"><ele>363.66666666666663</ele><time>2026-05-02T09:41:40Z</time></trkpt><trkpt lat="42.27997447791769" lon="13.7685791897876"><ele>364.0</ele><time>2026-05-02T09:41:41Z</time></trkpt><trkpt lat="42.280123907576645" lon="13.768450890048992"><ele>365.0</ele><time>2026-05-02T09:41:42Z</time></trkpt><trkpt lat="42.28025723684717" lon="13.768307409426683"><ele>366.0</ele><time>2026-05-02T09:41:43Z</time></trkpt><trkpt lat="42.28040243056518" lon="13.768151502382509"><ele>367.0</ele><time>2026-05-02T09:41:44Z</time></trkpt><trkpt lat="42.28053593548588" lon="13.767967703992078"><ele>368.0</ele><time>2026-05-02T09:41:45Z</time></trkpt><trkpt lat="42.280665201933196" lon="13.767791657617234"><ele>369.0</ele><time>2026-05-02T09:41:46Z</time></trkpt><trkpt lat="42.280793862107195" lon="13.767628765466757"><ele>370.0</ele><time>2026-05-02T09:41:47Z</time></trkpt><trkpt lat="42.28091662843665" lon="13.767454832179975"><ele>370.3333333333333</ele><time>2026-05-02T09:41:48Z</time></trkpt><trkpt lat="42.281057921146" lon="13.767322327787168"><ele>370.6666666666667</ele><time>2026-05-02T09:41:49Z</time></trkpt><trkpt lat="42.281194602937255" lon="13.767168969302858"><ele>371.0</ele><time>2026-05-02T09:41:50Z</time></trkpt><trkpt lat="42.28134659359619" lon="13.767020392044227"><ele>372.33333333333337</ele><time>2026-05-02T09:41:51Z</time></trkpt><trkpt lat="42.28148409448589" lon="13.766902850325295"><ele>373.6666666666667</ele><time>2026-05-02T09:41:52Z</time></trkpt><trkpt lat="42.281597460740386" lon="13.766756557507554"><ele>375.0</ele><time>2026-05-02T09:41:53Z</time></trkpt><trkpt lat="42.28172516548569" lon="13.76665454300838"><ele>375.3333333333333</ele><time>2026-05-02T09:41:54Z</time></trkpt><trkpt lat="42.28184283506739" lon="13.766545759699229"><ele>375.66666666666663</ele><time>2026-05-02T09:41:55Z</time></trkpt><trkpt lat="42.28192443973967" lon="13.766384817357142"><ele>376.0</ele><time>2026-05-02T09:41:56Z</time></trkpt><trkpt lat="42.282036777043096" lon="13.76621918689596"><ele>376.0</ele><time>2026-05-02T09:41:57Z</time></trkpt><trkpt lat="42.282145082930974" lon="13.766055547927339"><ele>376.0</ele><time>2026-05-02T09:41:58Z</time></trkpt><trkpt lat="42.28224933641119" lon="13.765875501499709"><ele>376.0</ele><time>2026-05-02T09:41:59Z</time></trkpt><trkpt lat="42.28236785286371" lon="13.765701063005501"><ele>377.3333333333333</ele><time>2026-05-02T09:42:00Z</time></trkpt><trkpt lat="42.28246713802744" lon="13.76554627029131"><ele>378.6666666666667</ele><time>2026-05-02T09:42:01Z</time></trkpt><trkpt lat="42.28256671969685" lon="13.765386372585443"><ele>380.0</ele><time>2026-05-02T09:42:02Z</time></trkpt><trkpt lat="42.28267236000432" lon="13.765238379497706"><ele>381.0</ele><time>2026-05-02T09:42:03Z</time></trkpt><trkpt lat="42.282785068489225" lon="13.765109883385366"><ele>382.0</ele><time>2026-05-02T09:42:04Z</time></trkpt><trkpt lat="42.28288965913816" lon="13.764994620374349"><ele>383.0</ele><time>2026-05-02T09:42:05Z</time></trkpt><trkpt lat="42.28298515179287" lon="13.764836217599514"><ele>384.0</ele><time>2026-05-02T09:42:06Z</time></trkpt><trkpt lat="42.283092813831956" lon="13.764689083359224"><ele>384.25</ele><time>2026-05-02T09:42:07Z</time></trkpt><trkpt lat="42.28318760513908" lon="13.764521700661943"><ele>384.5</ele><time>2026-05-02T09:42:08Z</time></trkpt><trkpt lat="42.28329518812418" lon="13.764380528639801"><ele>384.75</ele><time>2026-05-02T09:42:09Z</time></trkpt><trkpt lat="42.28337784618982" lon="13.764246452413785"><ele>385.0</ele><time>2026-05-02T09:42:10Z</time></trkpt><trkpt lat="42.2834421067435" lon="13.764104855302143"><ele>385.4</ele><time>2026-05-02T09:42:11Z</time></trkpt><trkpt lat="42.28351501858862" lon="13.764006063083633"><ele>385.8</ele><time>2026-05-02T09:42:12Z</time></trkpt><trkpt lat="42.283574416337544" lon="13.763919198439531"><ele>386.20000000000005</ele><time>2026-05-02T09:42:13Z</time></trkpt><trkpt lat="42.283619381889615" lon="13.763847319924714"><ele>386.6</ele><time>2026-05-02T09:42:14Z</time></trkpt><trkpt lat="42.28352506922002" lon="13.763794539941111"><ele>387.0</ele><time>2026-05-02T09:42:20Z</time></trkpt><trkpt lat="42.283412987395046" lon="13.763782212115874"><ele>387.0</ele><time>2026-05-02T09:42:21Z</time></trkpt><trkpt lat="42.28329806018263" lon="13.763772672320965"><ele>387.0</ele><time>2026-05-02T09:42:22Z</time></trkpt><trkpt lat="42.28319368389472" lon="13.763773899968557"><ele>387.0</ele><time>2026-05-02T09:42:22.999Z</time></trkpt><trkpt lat="42.283096315352275" lon="13.763772946243131"><ele>387.0</ele><time>2026-05-02T09:42:23.999Z</time></trkpt><trkpt lat="42.2830149974692" lon="13.76377076602133"><ele>387.0</ele><time>2026-05-02T09:42:24.999Z</time></trkpt><trkpt lat="42.282934208332996" lon="13.763767062246174"><ele>387.6666666666667</ele><time>2026-05-02T09:42:25.999Z</time></trkpt><trkpt lat="42.28282039411745" lon="13.76374865832138"><ele>388.33333333333337</ele><time>2026-05-02T09:42:26.999Z</time></trkpt><trkpt lat="42.282757168284505" lon="13.76374895061036"><ele>389.0</ele><time>2026-05-02T09:42:27.999Z</time></trkpt><trkpt lat="42.28266957045465" lon="13.763748816922927"><ele>389.6666666666667</ele><time>2026-05-02T09:42:29.999Z</time></trkpt><trkpt lat="42.28260587847387" lon="13.763681146204984"><ele>390.33333333333337</ele><time>2026-05-02T09:42:43.999Z</time></trkpt><trkpt lat="42.28254092937104" lon="13.763615119372682"><ele>391.0</ele><time>2026-05-02T09:43:27.999Z</time></trkpt><trkpt lat="42.28245596613305" lon="13.763583527820625"><ele>390.99999999999994</ele><time>2026-05-02T09:43:29.999Z</time></trkpt><trkpt lat="42.28239443594583" lon="13.763560067003375"><ele>391.0</ele><time>2026-05-02T09:43:31.999Z</time></trkpt><trkpt lat="42.28231506730667" lon="13.763516859056569"><ele>391.0</ele><time>2026-05-02T09:43:49.999Z</time></trkpt><trkpt lat="42.28224870317492" lon="13.763520492951589"><ele>391.0</ele><time>2026-05-02T09:43:51.999Z</time></trkpt><trkpt lat="42.282183256313445" lon="13.763538078634754"><ele>391.0</ele><time>2026-05-02T09:43:54.999Z</time></trkpt><trkpt lat="42.282117331700306" lon="13.763545038955854"><ele>390.99999999999994</ele><time>2026-05-02T09:44:01.999Z</time></trkpt><trkpt lat="42.28203598743608" lon="13.763580840161442"><ele>391.0</ele><time>2026-05-02T09:44:03.999Z</time></trkpt><trkpt lat="42.28197192391571" lon="13.763587043947323"><ele>393.33333333333337</ele><time>2026-05-02T09:44:04.997Z</time></trkpt><trkpt lat="42.281906531075144" lon="13.763594824834668"><ele>395.6666666666667</ele><time>2026-05-02T09:44:05.997Z</time></trkpt><trkpt lat="42.28178672396453" lon="13.763573286208114"><ele>398.0</ele><time>2026-05-02T09:44:07.997Z</time></trkpt><trkpt lat="42.28171545777186" lon="13.763559571224658"><ele>400.33333333333337</ele><time>2026-05-02T09:44:08.997Z</time></trkpt><trkpt lat="42.28165186372229" lon="13.763548037678603"><ele>402.6666666666667</ele><time>2026-05-02T09:44:09.997Z</time></trkpt><trkpt lat="42.28158161511771" lon="13.763541620678849"><ele>405.0</ele><time>2026-05-02T09:44:10.997Z</time></trkpt><trkpt lat="42.28150912084325" lon="13.76354980925513"><ele>408.1666666666667</ele><time>2026-05-02T09:44:11.997Z</time></trkpt><trkpt lat="42.28142470906221" lon="13.763566591421462"><ele>411.33333333333337</ele><time>2026-05-02T09:44:12.997Z</time></trkpt><trkpt lat="42.281337422344215" lon="13.763597261297713"><ele>414.5</ele><time>2026-05-02T09:44:13.997Z</time></trkpt><trkpt lat="42.2812553857894" lon="13.763617856751132"><ele>417.6666666666667</ele><time>2026-05-02T09:44:14.997Z</time></trkpt><trkpt lat="42.28117177791038" lon="13.76363804166953"><ele>420.83333333333337</ele><time>2026-05-02T09:44:15.997Z</time></trkpt><trkpt lat="42.2810790780279" lon="13.76363726441781"><ele>424.0</ele><time>2026-05-02T09:44:16.997Z</time></trkpt><trkpt lat="42.28100287303661" lon="13.763603644498493"><ele>424.0</ele><time>2026-05-02T09:44:17.997Z</time></trkpt><trkpt lat="42.28093606002893" lon="13.763581549372388"><ele>424.0</ele><time>2026-05-02T09:44:18.997Z</time></trkpt><trkpt lat="42.28081148790171" lon="13.7635454582295"><ele>424.0</ele><time>2026-05-02T09:44:20.997Z</time></trkpt><trkpt lat="42.280744499996935" lon="13.763518319772908"><ele>424.0</ele><time>2026-05-02T09:44:21.997Z</time></trkpt><trkpt lat="42.2806346019446" lon="13.763469156800735"><ele>424.0</ele><time>2026-05-02T09:44:23.997Z</time></trkpt><trkpt lat="42.28054007334795" lon="13.763426452545927"><ele>427.33333333333337</ele><time>2026-05-02T09:44:25.997Z</time></trkpt><trkpt lat="42.28046080137611" lon="13.763393929540856"><ele>430.6666666666667</ele><time>2026-05-02T09:44:27.997Z</time></trkpt><trkpt lat="42.28036829916346" lon="13.763363108208974"><ele>434.0</ele><time>2026-05-02T09:44:29.997Z</time></trkpt><trkpt lat="42.280304393287174" lon="13.763368265840777"><ele>437.33333333333337</ele><time>2026-05-02T09:44:30.997Z</time></trkpt><trkpt lat="42.28023419011584" lon="13.763353912755113"><ele>440.6666666666667</ele><time>2026-05-02T09:44:31.997Z</time></trkpt><trkpt lat="42.28016914863903" lon="13.763327799535075"><ele>444.0</ele><time>2026-05-02T09:44:32.997Z</time></trkpt><trkpt lat="42.28011055932703" lon="13.7632716142823"><ele>444.0</ele><time>2026-05-02T09:44:33.997Z</time></trkpt><trkpt lat="42.2800551303184" lon="13.763203792241542"><ele>444.0</ele><time>2026-05-02T09:44:34.997Z</time></trkpt><trkpt lat="42.28000168118795" lon="13.763128737787097"><ele>444.0</ele><time>2026-05-02T09:44:35.997Z</time></trkpt><trkpt lat="42.27994814300029" lon="13.76306021116254"><ele>444.0</ele><time>2026-05-02T09:44:36.997Z</time></trkpt><trkpt lat="42.279890411356526" lon="13.762994247121272"><ele>444.0</ele><time>2026-05-02T09:44:37.997Z</time></trkpt><trkpt lat="42.279835235845056" lon="13.762920316902449"><ele>444.0</ele><time>2026-05-02T09:44:38.997Z</time></trkpt><trkpt lat="42.27978663795554" lon="13.762852750673963"><ele>444.0</ele><time>2026-05-02T09:44:39.997Z</time></trkpt><trkpt lat="42.27968946524469" lon="13.762745621322923"><ele>446.6666666666667</ele><time>2026-05-02T09:44:41.997Z</time></trkpt><trkpt lat="42.27963261472119" lon="13.762692294365074"><ele>449.33333333333337</ele><time>2026-05-02T09:44:42.997Z</time></trkpt><trkpt lat="42.27957297019213" lon="13.762640580827771"><ele>452.0</ele><time>2026-05-02T09:44:43.997Z</time></trkpt><trkpt lat="42.279495404305656" lon="13.762586874465754"><ele>454.6666666666667</ele><time>2026-05-02T09:44:44.997Z</time></trkpt><trkpt lat="42.279408082116525" lon="13.762553789985501"><ele>457.33333333333337</ele><time>2026-05-02T09:44:45.997Z</time></trkpt><trkpt lat="42.27932166649353" lon="13.762518871915827"><ele>460.0</ele><time>2026-05-02T09:44:46.997Z</time></trkpt><trkpt lat="42.27923901404725" lon="13.762491145539014"><ele>460.0</ele><time>2026-05-02T09:44:47.997Z</time></trkpt><trkpt lat="42.27915375603174" lon="13.76246193759596"><ele>460.0</ele><time>2026-05-02T09:44:48.997Z</time></trkpt><trkpt lat="42.2790672098028" lon="13.762430058106593"><ele>460.0</ele><time>2026-05-02T09:44:49.997Z</time></trkpt><trkpt lat="42.27898036598948" lon="13.76238861224863"><ele>460.0</ele><time>2026-05-02T09:44:50.997Z</time></trkpt><trkpt lat="42.27888309874427" lon="13.762349230885226"><ele>460.0</ele><time>2026-05-02T09:44:51.997Z</time></trkpt><trkpt lat="42.278805425882744" lon="13.762311007995887"><ele>461.50000000000006</ele><time>2026-05-02T09:44:52.997Z</time></trkpt><trkpt lat="42.27871801602766" lon="13.762280509515533"><ele>463.0</ele><time>2026-05-02T09:44:53.997Z</time></trkpt><trkpt lat="42.27862450121859" lon="13.762247892100902"><ele>464.5</ele><time>2026-05-02T09:44:54.997Z</time></trkpt><trkpt lat="42.27853289992394" lon="13.762218346315866"><ele>466.0</ele><time>2026-05-02T09:44:55.997Z</time></trkpt><trkpt lat="42.278461102991194" lon="13.762182493789268"><ele>467.50000000000006</ele><time>2026-05-02T09:44:56.997Z</time></trkpt><trkpt lat="42.27840138581927" lon="13.762128351391125"><ele>469.0</ele><time>2026-05-02T09:44:57.997Z</time></trkpt><trkpt lat="42.27834351782693" lon="13.762055848694292"><ele>469.00000000000006</ele><time>2026-05-02T09:44:58.997Z</time></trkpt><trkpt lat="42.27828686739279" lon="13.76197121748661"><ele>469.0</ele><time>2026-05-02T09:44:59.997Z</time></trkpt><trkpt lat="42.278218736175646" lon="13.761902883043346"><ele>469.0</ele><time>2026-05-02T09:45:00.997Z</time></trkpt><trkpt lat="42.27814795394222" lon="13.761849741044694"><ele>469.0</ele><time>2026-05-02T09:45:01.997Z</time></trkpt><trkpt lat="42.2780664795763" lon="13.761814812624785"><ele>469.00000000000006</ele><time>2026-05-02T09:45:02.997Z</time></trkpt><trkpt lat="42.27797648793255" lon="13.761793686145865"><ele>469.0</ele><time>2026-05-02T09:45:03.997Z</time></trkpt><trkpt lat="42.277882306597945" lon="13.76176689221101"><ele>470.33333333333337</ele><time>2026-05-02T09:45:04.997Z</time></trkpt><trkpt lat="42.27779381343526" lon="13.761744875890926"><ele>471.6666666666667</ele><time>2026-05-02T09:45:05.997Z</time></trkpt><trkpt lat="42.277711378365225" lon="13.761737330921314"><ele>473.0</ele><time>2026-05-02T09:45:06.997Z</time></trkpt><trkpt lat="42.277633103946094" lon="13.76174950701438"><ele>474.33333333333337</ele><time>2026-05-02T09:45:07.997Z</time></trkpt><trkpt lat="42.27754008667735" lon="13.761766351624441"><ele>475.6666666666667</ele><time>2026-05-02T09:45:08.997Z</time></trkpt><trkpt lat="42.27744401410585" lon="13.761786682167104"><ele>477.0</ele><time>2026-05-02T09:45:09.997Z</time></trkpt><trkpt lat="42.27734308919588" lon="13.761800562610716"><ele>478.8</ele><time>2026-05-02T09:45:10.997Z</time></trkpt><trkpt lat="42.27724518820708" lon="13.76180419364561"><ele>480.6</ele><time>2026-05-02T09:45:11.997Z</time></trkpt><trkpt lat="42.277145800024236" lon="13.761780244182162"><ele>482.40000000000003</ele><time>2026-05-02T09:45:12.997Z</time></trkpt><trkpt lat="42.27704435695032" lon="13.761766947897375"><ele>484.20000000000005</ele><time>2026-05-02T09:45:13.997Z</time></trkpt><trkpt lat="42.27695253898307" lon="13.761753963272213"><ele>486.0</ele><time>2026-05-02T09:45:14.997Z</time></trkpt><trkpt lat="42.276879868509475" lon="13.761751629973483"><ele>486.0</ele><time>2026-05-02T09:45:15.997Z</time></trkpt><trkpt lat="42.27677034165069" lon="13.761767554652934"><ele>486.0</ele><time>2026-05-02T09:45:17.997Z</time></trkpt><trkpt lat="42.27666826730607" lon="13.761779793131403"><ele>486.0</ele><time>2026-05-02T09:45:19.997Z</time></trkpt><trkpt lat="42.27659083828638" lon="13.761789816007262"><ele>486.0</ele><time>2026-05-02T09:45:21.997Z</time></trkpt><trkpt lat="42.27653963369191" lon="13.761705438950305"><ele>486.0</ele><time>2026-05-02T09:45:44.997Z</time></trkpt><trkpt lat="42.2764705201147" lon="13.761673232611972"><ele>486.0</ele><time>2026-05-02T09:45:45.997Z</time></trkpt><trkpt lat="42.27639644307151" lon="13.761636164038741"><ele>488.6</ele><time>2026-05-02T09:45:46.997Z</time></trkpt><trkpt lat="42.27631048500989" lon="13.761601506869528"><ele>491.20000000000005</ele><time>2026-05-02T09:45:47.996Z</time></trkpt><trkpt lat="42.27621177101328" lon="13.761559762234734"><ele>493.79999999999995</ele><time>2026-05-02T09:45:48.996Z</time></trkpt><trkpt lat="42.27610738812879" lon="13.761493329148706"><ele>496.4</ele><time>2026-05-02T09:45:49.996Z</time></trkpt><trkpt lat="42.276004026993284" lon="13.76141798712259"><ele>499.0</ele><time>2026-05-02T09:45:50.996Z</time></trkpt><trkpt lat="42.275909912323726" lon="13.761343418153695"><ele>499.0</ele><time>2026-05-02T09:45:51.996Z</time></trkpt><trkpt lat="42.27582444995964" lon="13.76126704130725"><ele>499.0</ele><time>2026-05-02T09:45:52.996Z</time></trkpt><trkpt lat="42.275734907922114" lon="13.76120298246145"><ele>499.0</ele><time>2026-05-02T09:45:53.996Z</time></trkpt><trkpt lat="42.275642425915045" lon="13.761137309440029"><ele>499.0</ele><time>2026-05-02T09:45:54.996Z</time></trkpt><trkpt lat="42.27554170225597" lon="13.761077552121714"><ele>499.0</ele><time>2026-05-02T09:45:55.996Z</time></trkpt><trkpt lat="42.27543208285899" lon="13.761008664535447"><ele>500.0</ele><time>2026-05-02T09:45:56.996Z</time></trkpt><trkpt lat="42.275317117595925" lon="13.760935508703138"><ele>501.0</ele><time>2026-05-02T09:45:57.996Z</time></trkpt><trkpt lat="42.27520263293939" lon="13.7608596858849"><ele>502.0</ele><time>2026-05-02T09:45:58.996Z</time></trkpt><trkpt lat="42.2750893270776" lon="13.760784560930546"><ele>503.0</ele><time>2026-05-02T09:45:59.996Z</time></trkpt><trkpt lat="42.274984335292075" lon="13.760714917587437"><ele>502.99999999999994</ele><time>2026-05-02T09:46:00.996Z</time></trkpt><trkpt lat="42.27489681010606" lon="13.760665290349664"><ele>503.0</ele><time>2026-05-02T09:46:01.996Z</time></trkpt><trkpt lat="42.27482517151161" lon="13.760630900105852"><ele>503.0</ele><time>2026-05-02T09:46:02.996Z</time></trkpt><trkpt lat="42.27476065463874" lon="13.760584299227569"><ele>503.0</ele><time>2026-05-02T09:46:04.996Z</time></trkpt><trkpt lat="42.27481476311541" lon="13.760476669890355"><ele>502.99999999999994</ele><time>2026-05-02T09:46:11.996Z</time></trkpt><trkpt lat="42.27488530864972" lon="13.760368659635965"><ele>503.0</ele><time>2026-05-02T09:46:12.996Z</time></trkpt><trkpt lat="42.274963531002825" lon="13.76026509428651"><ele>503.0</ele><time>2026-05-02T09:46:13.996Z</time></trkpt><trkpt lat="42.27503928150475" lon="13.760157758569807"><ele>502.99999999999994</ele><time>2026-05-02T09:46:14.996Z</time></trkpt><trkpt lat="42.275111517615734" lon="13.760045359353953"><ele>502.99999999999994</ele><time>2026-05-02T09:46:15.996Z</time></trkpt><trkpt lat="42.275185373888384" lon="13.759939188134872"><ele>503.0</ele><time>2026-05-02T09:46:16.996Z</time></trkpt><trkpt lat="42.275205740080885" lon="13.759781482268881"><ele>503.0</ele><time>2026-05-02T09:46:17.996Z</time></trkpt><trkpt lat="42.275269660926035" lon="13.759674137299452"><ele>503.0</ele><time>2026-05-02T09:46:18.996Z</time></trkpt><trkpt lat="42.27534572695147" lon="13.759545090103023"><ele>503.0</ele><time>2026-05-02T09:46:19.996Z</time></trkpt><trkpt lat="42.27542413650598" lon="13.759403958529687"><ele>503.0</ele><time>2026-05-02T09:46:20.996Z</time></trkpt><trkpt lat="42.27549832819041" lon="13.759268042641475"><ele>503.0</ele><time>2026-05-02T09:46:21.996Z</time></trkpt><trkpt lat="42.27557263258811" lon="13.759145861584534"><ele>500.59999999999997</ele><time>2026-05-02T09:46:22.996Z</time></trkpt><trkpt lat="42.275644112535474" lon="13.759036044826324"><ele>498.19999999999993</ele><time>2026-05-02T09:46:23.996Z</time></trkpt><trkpt lat="42.27570763665585" lon="13.758948259982702"><ele>495.8</ele><time>2026-05-02T09:46:24.996Z</time></trkpt><trkpt lat="42.275755529113425" lon="13.758887161548984"><ele>493.4</ele><time>2026-05-02T09:46:25.996Z</time></trkpt><trkpt lat="42.27581882357562" lon="13.758805169710557"><ele>491.0</ele><time>2026-05-02T09:46:27.996Z</time></trkpt><trkpt lat="42.27568505274653" lon="13.758723912782036"><ele>494.0</ele><time>2026-05-02T09:46:32.996Z</time></trkpt><trkpt lat="42.275560420343645" lon="13.758720224926549"><ele>497.0</ele><time>2026-05-02T09:46:34.996Z</time></trkpt><trkpt lat="42.275434854762764" lon="13.758735755509782"><ele>500.0</ele><time>2026-05-02T09:46:36.996Z</time></trkpt><trkpt lat="42.275362428610116" lon="13.75874726382736"><ele>503.0</ele><time>2026-05-02T09:46:37.996Z</time></trkpt><trkpt lat="42.27529283760358" lon="13.75876248667082"><ele>506.0</ele><time>2026-05-02T09:46:38.996Z</time></trkpt><trkpt lat="42.27522288749896" lon="13.758779492805793"><ele>505.99999999999994</ele><time>2026-05-02T09:46:39.996Z</time></trkpt><trkpt lat="42.275148107450306" lon="13.758792006015446"><ele>506.0</ele><time>2026-05-02T09:46:40.996Z</time></trkpt><trkpt lat="42.27506871874228" lon="13.758802325736868"><ele>506.0</ele><time>2026-05-02T09:46:41.996Z</time></trkpt><trkpt lat="42.27499069314515" lon="13.758819980228923"><ele>506.0</ele><time>2026-05-02T09:46:42.996Z</time></trkpt><trkpt lat="42.27491515586441" lon="13.758830730163123"><ele>505.99999999999994</ele><time>2026-05-02T09:46:43.996Z</time></trkpt><trkpt lat="42.274839464579955" lon="13.758841960224371"><ele>506.0</ele><time>2026-05-02T09:46:44.996Z</time></trkpt><trkpt lat="42.27476090977223" lon="13.75885367619947"><ele>507.49999999999994</ele><time>2026-05-02T09:46:45.996Z</time></trkpt><trkpt lat="42.27468948212159" lon="13.75886280855944"><ele>509.0</ele><time>2026-05-02T09:46:46.996Z</time></trkpt><trkpt lat="42.274619325079996" lon="13.758874599212636"><ele>510.5</ele><time>2026-05-02T09:46:47.996Z</time></trkpt><trkpt lat="42.274547765204716" lon="13.758895049620476"><ele>512.0</ele><time>2026-05-02T09:46:48.996Z</time></trkpt><trkpt lat="42.27448080006763" lon="13.758915335067124"><ele>513.5</ele><time>2026-05-02T09:46:49.996Z</time></trkpt><trkpt lat="42.27437813812049" lon="13.758933912985421"><ele>515.0</ele><time>2026-05-02T09:46:51.996Z</time></trkpt><trkpt lat="42.27428406652451" lon="13.758952417279117"><ele>515.0</ele><time>2026-05-02T09:46:53.996Z</time></trkpt><trkpt lat="42.27417425665596" lon="13.7589846581472"><ele>515.0</ele><time>2026-05-02T09:46:55.996Z</time></trkpt><trkpt lat="42.274110005713204" lon="13.759015756569104"><ele>515.0</ele><time>2026-05-02T09:46:56.996Z</time></trkpt><trkpt lat="42.274049369952316" lon="13.759049075679842"><ele>515.0</ele><time>2026-05-02T09:46:57.996Z</time></trkpt><trkpt lat="42.27398880675208" lon="13.759091471894447"><ele>515.0</ele><time>2026-05-02T09:46:58.996Z</time></trkpt><trkpt lat="42.27393379605841" lon="13.759136216272298"><ele>515.0</ele><time>2026-05-02T09:46:59.996Z</time></trkpt><trkpt lat="42.273872221881525" lon="13.759185078284203"><ele>515.0</ele><time>2026-05-02T09:47:01.996Z</time></trkpt><trkpt lat="42.273953998263" lon="13.759180807238296"><ele>515.0</ele><time>2026-05-02T09:47:21.996Z</time></trkpt><trkpt lat="42.2739641893876" lon="13.759274636249252"><ele>515.0</ele><time>2026-05-02T09:47:28.995Z</time></trkpt><trkpt lat="42.27393694820254" lon="13.759397406495165"><ele>515.0</ele><time>2026-05-02T09:47:30.995Z</time></trkpt><trkpt lat="42.27389145554615" lon="13.759526975343656"><ele>515.0</ele><time>2026-05-02T09:47:32.995Z</time></trkpt><trkpt lat="42.27384358798734" lon="13.75963546852945"><ele>515.0</ele><time>2026-05-02T09:47:34.995Z</time></trkpt><trkpt lat="42.27377932842484" lon="13.759727032450002"><ele>516.5</ele><time>2026-05-02T09:47:36.995Z</time></trkpt><trkpt lat="42.27368026736799" lon="13.75977285245001"><ele>518.0</ele><time>2026-05-02T09:47:38.995Z</time></trkpt><trkpt lat="42.273617826879104" lon="13.759760857461062"><ele>519.5</ele><time>2026-05-02T09:47:39.995Z</time></trkpt><trkpt lat="42.27354438376376" lon="13.759740434926101"><ele>521.0</ele><time>2026-05-02T09:47:40.995Z</time></trkpt><trkpt lat="42.273477914284214" lon="13.759719945102471"><ele>522.5</ele><time>2026-05-02T09:47:41.995Z</time></trkpt><trkpt lat="42.273367830550285" lon="13.759689932598729"><ele>524.0</ele><time>2026-05-02T09:47:43.995Z</time></trkpt><trkpt lat="42.27327723367832" lon="13.759706694935373"><ele>524.0</ele><time>2026-05-02T09:47:57.999Z</time></trkpt><trkpt lat="42.27318556868601" lon="13.759720870760537"><ele>524.0</ele><time>2026-05-02T09:47:58.999Z</time></trkpt><trkpt lat="42.273082407568765" lon="13.75975349268114"><ele>524.0</ele><time>2026-05-02T09:47:59.999Z</time></trkpt><trkpt lat="42.27297205139655" lon="13.759769133024596"><ele>524.0</ele><time>2026-05-02T09:48:00.999Z</time></trkpt><trkpt lat="42.27285831741661" lon="13.759762484030478"><ele>524.0</ele><time>2026-05-02T09:48:01.999Z</time></trkpt><trkpt lat="42.27274598202995" lon="13.75972812670038"><ele>524.75</ele><time>2026-05-02T09:48:02.999Z</time></trkpt><trkpt lat="42.27262780188816" lon="13.759678356012968"><ele>525.5</ele><time>2026-05-02T09:48:03.999Z</time></trkpt><trkpt lat="42.27250260240256" lon="13.759616894479395"><ele>526.25</ele><time>2026-05-02T09:48:04.999Z</time></trkpt><trkpt lat="42.27239164308916" lon="13.759565902762667"><ele>527.0</ele><time>2026-05-02T09:48:05.999Z</time></trkpt><trkpt lat="42.27229197713238" lon="13.759523571443918"><ele>527.3333333333333</ele><time>2026-05-02T09:48:06.999Z</time></trkpt><trkpt lat="42.27219455126278" lon="13.759482080732766"><ele>527.6666666666666</ele><time>2026-05-02T09:48:07.999Z</time></trkpt><trkpt lat="42.27211126365089" lon="13.75943796912709"><ele>528.0</ele><time>2026-05-02T09:48:08.999Z</time></trkpt><trkpt lat="42.272045627927646" lon="13.75937972078022"><ele>528.3333333333334</ele><time>2026-05-02T09:48:09.999Z</time></trkpt><trkpt lat="42.27199687010565" lon="13.759305406681147"><ele>528.6666666666667</ele><time>2026-05-02T09:48:10.999Z</time></trkpt><trkpt lat="42.2719653924745" lon="13.75921760703026"><ele>529.0</ele><time>2026-05-02T09:48:11.999Z</time></trkpt><trkpt lat="42.27194270175099" lon="13.759117682101541"><ele>529.8</ele><time>2026-05-02T09:48:12.999Z</time></trkpt><trkpt lat="42.271905747838986" lon="13.759019533590328"><ele>530.5999999999999</ele><time>2026-05-02T09:48:13.999Z</time></trkpt><trkpt lat="42.27184299053347" lon="13.758940384853052"><ele>531.4</ele><time>2026-05-02T09:48:14.999Z</time></trkpt><trkpt lat="42.271764365789956" lon="13.758877266317501"><ele>532.1999999999999</ele><time>2026-05-02T09:48:15.999Z</time></trkpt><trkpt lat="42.27167130492791" lon="13.758826376716433"><ele>533.0</ele><time>2026-05-02T09:48:16.999Z</time></trkpt><trkpt lat="42.27156732665647" lon="13.758759670952413"><ele>533.0</ele><time>2026-05-02T09:48:17.999Z</time></trkpt><trkpt lat="42.271446393503425" lon="13.758722758106115"><ele>533.0</ele><time>2026-05-02T09:48:18.999Z</time></trkpt><trkpt lat="42.27131372998145" lon="13.758699907475211"><ele>533.0</ele><time>2026-05-02T09:48:19.999Z</time></trkpt><trkpt lat="42.271169073559975" lon="13.758688307409955"><ele>533.0</ele><time>2026-05-02T09:48:20.999Z</time></trkpt><trkpt lat="42.27101740424107" lon="13.758682812219678"><ele>532.75</ele><time>2026-05-02T09:48:21.999Z</time></trkpt><trkpt lat="42.27086920009033" lon="13.758703793701516"><ele>532.5</ele><time>2026-05-02T09:48:22.999Z</time></trkpt><trkpt lat="42.27072631431598" lon="13.758707796179454"><ele>532.25</ele><time>2026-05-02T09:48:23.999Z</time></trkpt><trkpt lat="42.270591347450384" lon="13.75871621595197"><ele>532.0</ele><time>2026-05-02T09:48:25Z</time></trkpt><trkpt lat="42.270461209641276" lon="13.758708099484481"><ele>532.0</ele><time>2026-05-02T09:48:26Z</time></trkpt><trkpt lat="42.270336891672706" lon="13.758723959866746"><ele>532.0</ele><time>2026-05-02T09:48:27Z</time></trkpt><trkpt lat="42.270217902760905" lon="13.758742217136124"><ele>532.0</ele><time>2026-05-02T09:48:28Z</time></trkpt><trkpt lat="42.270106152864116" lon="13.758766154859428"><ele>532.0</ele><time>2026-05-02T09:48:29Z</time></trkpt><trkpt lat="42.26999723471247" lon="13.758797181857803"><ele>532.0</ele><time>2026-05-02T09:48:30Z</time></trkpt><trkpt lat="42.26988848701867" lon="13.758833375715326"><ele>532.0</ele><time>2026-05-02T09:48:31Z</time></trkpt><trkpt lat="42.26978216058159" lon="13.758873982122733"><ele>532.0</ele><time>2026-05-02T09:48:32Z</time></trkpt><trkpt lat="42.26967392056126" lon="13.758920917754793"><ele>532.0</ele><time>2026-05-02T09:48:33Z</time></trkpt><trkpt lat="42.26956295905152" lon="13.758986102626423"><ele>532.2</ele><time>2026-05-02T09:48:34Z</time></trkpt><trkpt lat="42.269450641468325" lon="13.759055666525436"><ele>532.4000000000001</ele><time>2026-05-02T09:48:34.999Z</time></trkpt><trkpt lat="42.26933570892906" lon="13.759110590659661"><ele>532.5999999999999</ele><time>2026-05-02T09:48:35.999Z</time></trkpt><trkpt lat="42.26923529378643" lon="13.759152343716057"><ele>532.8</ele><time>2026-05-02T09:48:36.999Z</time></trkpt><trkpt lat="42.269159681119845" lon="13.759205930204349"><ele>533.0</ele><time>2026-05-02T09:48:37.999Z</time></trkpt><trkpt lat="42.269088184626604" lon="13.759213512244958"><ele>533.0</ele><time>2026-05-02T09:48:38.999Z</time></trkpt><trkpt lat="42.26902525928596" lon="13.7592680454375"><ele>533.0</ele><time>2026-05-02T09:48:39.999Z</time></trkpt><trkpt lat="42.26899418803865" lon="13.75934266164641"><ele>533.0</ele><time>2026-05-02T09:48:40.999Z</time></trkpt><trkpt lat="42.26896626769824" lon="13.759434928481966"><ele>533.0</ele><time>2026-05-02T09:48:41.999Z</time></trkpt><trkpt lat="42.26894720923228" lon="13.759521060204774"><ele>533.0</ele><time>2026-05-02T09:48:42.999Z</time></trkpt><trkpt lat="42.26895208215206" lon="13.759620674710417"><ele>533.0</ele><time>2026-05-02T09:48:45.999Z</time></trkpt><trkpt lat="42.268904224644025" lon="13.759691486685194"><ele>533.0</ele><time>2026-05-02T09:48:48.999Z</time></trkpt><trkpt lat="42.26886663947195" lon="13.759796608390978"><ele>533.8</ele><time>2026-05-02T09:48:49.999Z</time></trkpt><trkpt lat="42.268833909184615" lon="13.759923505936301"><ele>534.5999999999999</ele><time>2026-05-02T09:48:50.999Z</time></trkpt><trkpt lat="42.268795514902116" lon="13.760064022816993"><ele>535.4000000000001</ele><time>2026-05-02T09:48:51.999Z</time></trkpt><trkpt lat="42.2687680198212" lon="13.760193992192416"><ele>536.2</ele><time>2026-05-02T09:48:52.999Z</time></trkpt><trkpt lat="42.26873213180038" lon="13.760286128247774"><ele>537.0</ele><time>2026-05-02T09:48:53.999Z</time></trkpt><trkpt lat="42.26869942454098" lon="13.760365644554453"><ele>537.0</ele><time>2026-05-02T09:48:54.999Z</time></trkpt><trkpt lat="42.268667490853446" lon="13.760511658769786"><ele>537.0</ele><time>2026-05-02T09:48:56.999Z</time></trkpt><trkpt lat="42.26863510575203" lon="13.760655794307183"><ele>537.0</ele><time>2026-05-02T09:48:58.999Z</time></trkpt><trkpt lat="42.26859646408182" lon="13.760782262980138"><ele>537.0</ele><time>2026-05-02T09:49:00.999Z</time></trkpt><trkpt lat="42.2685758610029" lon="13.760876264490198"><ele>537.0</ele><time>2026-05-02T09:49:02.999Z</time></trkpt><trkpt lat="42.2686059391655" lon="13.760752007559708"><ele>537.0</ele><time>2026-05-02T09:49:08.999Z</time></trkpt><trkpt lat="42.26863600178362" lon="13.760642320410295"><ele>537.0</ele><time>2026-05-02T09:49:09.999Z</time></trkpt><trkpt lat="42.268671339994654" lon="13.760513384052848"><ele>537.0</ele><time>2026-05-02T09:49:10.999Z</time></trkpt><trkpt lat="42.26870652952891" lon="13.760384990092708"><ele>537.0</ele><time>2026-05-02T09:49:11.999Z</time></trkpt><trkpt lat="42.26874314922897" lon="13.76025360502861"><ele>537.0</ele><time>2026-05-02T09:49:12.999Z</time></trkpt><trkpt lat="42.26877987355358" lon="13.76012065271865"><ele>537.1666666666666</ele><time>2026-05-02T09:49:13.999Z</time></trkpt><trkpt lat="42.268814887143364" lon="13.759993893078523"><ele>537.3333333333334</ele><time>2026-05-02T09:49:14.999Z</time></trkpt><trkpt lat="42.268847889312575" lon="13.759874415350513"><ele>537.5</ele><time>2026-05-02T09:49:15.999Z</time></trkpt><trkpt lat="42.26887679654076" lon="13.759769762346602"><ele>537.6666666666667</ele><time>2026-05-02T09:49:16.999Z</time></trkpt><trkpt lat="42.26889959750366" lon="13.759673996623217"><ele>537.8333333333334</ele><time>2026-05-02T09:49:17.999Z</time></trkpt><trkpt lat="42.26890769010219" lon="13.75954233176098"><ele>538.0</ele><time>2026-05-02T09:49:19.999Z</time></trkpt><trkpt lat="42.2688701066327" lon="13.759441099459735"><ele>538.0</ele><time>2026-05-02T09:49:20.999Z</time></trkpt><trkpt lat="42.26878426980891" lon="13.759373928342555"><ele>538.0</ele><time>2026-05-02T09:49:21.999Z</time></trkpt><trkpt lat="42.26871588598999" lon="13.759359551612901"><ele>538.0</ele><time>2026-05-02T09:49:22.999Z</time></trkpt><trkpt lat="42.268613973442044" lon="13.759353097150205"><ele>538.0</ele><time>2026-05-02T09:49:24.999Z</time></trkpt><trkpt lat="42.268530286307545" lon="13.759352297364359"><ele>538.0</ele><time>2026-05-02T09:49:26.999Z</time></trkpt><trkpt lat="42.268568707450214" lon="13.759485037739863"><ele>538.0</ele><time>2026-05-02T09:49:32.999Z</time></trkpt><trkpt lat="42.26857665101281" lon="13.759355389402488"><ele>538.0</ele><time>2026-05-02T09:49:33.999Z</time></trkpt><trkpt lat="42.26862570503714" lon="13.759428516437552"><ele>538.0</ele><time>2026-05-02T09:49:35.999Z</time></trkpt><trkpt lat="42.26860951787828" lon="13.75952564990176"><ele>538.0</ele><time>2026-05-02T09:49:37.999Z</time></trkpt><trkpt lat="42.268583511059255" lon="13.759606170391836"><ele>538.0</ele><time>2026-05-02T09:49:38.999Z</time></trkpt><trkpt lat="42.26855930980936" lon="13.759695932139559"><ele>538.0</ele><time>2026-05-02T09:49:39.999Z</time></trkpt><trkpt lat="42.26852563099966" lon="13.759777058673869"><ele>538.0</ele><time>2026-05-02T09:49:40.999Z</time></trkpt><trkpt lat="42.26849536029632" lon="13.759861862036852"><ele>538.0</ele><time>2026-05-02T09:49:41.999Z</time></trkpt><trkpt lat="42.268452811878845" lon="13.759947018797522"><ele>538.0</ele><time>2026-05-02T09:49:42.999Z</time></trkpt><trkpt lat="42.268403751132205" lon="13.760030038007924"><ele>538.0</ele><time>2026-05-02T09:49:43.999Z</time></trkpt><trkpt lat="42.26835342196744" lon="13.76011441377664"><ele>538.0</ele><time>2026-05-02T09:49:44.999Z</time></trkpt><trkpt lat="42.26830075585168" lon="13.760201108517748"><ele>538.0</ele><time>2026-05-02T09:49:45.999Z</time></trkpt><trkpt lat="42.26823359206982" lon="13.760285898470912"><ele>538.0</ele><time>2026-05-02T09:49:46.999Z</time></trkpt><trkpt lat="42.2681595627006" lon="13.760372397528107"><ele>538.8</ele><time>2026-05-02T09:49:47.999Z</time></trkpt><trkpt lat="42.26807987968639" lon="13.76045277422722"><ele>539.5999999999999</ele><time>2026-05-02T09:49:48.999Z</time></trkpt><trkpt lat="42.26800570287414" lon="13.760543388068289"><ele>540.4000000000001</ele><time>2026-05-02T09:49:49.999Z</time></trkpt><trkpt lat="42.26793556030737" lon="13.76063555769665"><ele>541.2</ele><time>2026-05-02T09:49:50.999Z</time></trkpt><trkpt lat="42.26787017324344" lon="13.760729610692321"><ele>542.0</ele><time>2026-05-02T09:49:51.999Z</time></trkpt><trkpt lat="42.26779987529923" lon="13.76081501428496"><ele>542.0</ele><time>2026-05-02T09:49:52.999Z</time></trkpt><trkpt lat="42.26772789998542" lon="13.760911120638676"><ele>542.0</ele><time>2026-05-02T09:49:53.999Z</time></trkpt><trkpt lat="42.267653079180064" lon="13.761007794707364"><ele>542.0</ele><time>2026-05-02T09:49:54.999Z</time></trkpt><trkpt lat="42.26758623194673" lon="13.761104229910268"><ele>542.0</ele><time>2026-05-02T09:49:55.999Z</time></trkpt><trkpt lat="42.26752307219553" lon="13.7612057132396"><ele>542.0</ele><time>2026-05-02T09:49:56.999Z</time></trkpt><trkpt lat="42.26746258939971" lon="13.761310874749324"><ele>541.8333333333333</ele><time>2026-05-02T09:49:57.999Z</time></trkpt><trkpt lat="42.26741306767137" lon="13.761405582078988"><ele>541.6666666666666</ele><time>2026-05-02T09:49:58.999Z</time></trkpt><trkpt lat="42.26736634999116" lon="13.761478741188427"><ele>541.5</ele><time>2026-05-02T09:49:59.999Z</time></trkpt><trkpt lat="42.26731050260465" lon="13.761539639356057"><ele>541.3333333333334</ele><time>2026-05-02T09:50:00.999Z</time></trkpt><trkpt lat="42.26724849049597" lon="13.761590519056222"><ele>541.1666666666667</ele><time>2026-05-02T09:50:01.999Z</time></trkpt><trkpt lat="42.26718048070263" lon="13.76163884676952"><ele>541.0</ele><time>2026-05-02T09:50:02.999Z</time></trkpt><trkpt lat="42.267114029082784" lon="13.76168788254335"><ele>540.8571428571429</ele><time>2026-05-02T09:50:03.999Z</time></trkpt><trkpt lat="42.26705564414594" lon="13.761741007098577"><ele>540.7142857142858</ele><time>2026-05-02T09:50:04.999Z</time></trkpt><trkpt lat="42.267004268139054" lon="13.761790779757348"><ele>540.5714285714286</ele><time>2026-05-02T09:50:05.999Z</time></trkpt><trkpt lat="42.26695682409824" lon="13.761852522787986"><ele>540.4285714285714</ele><time>2026-05-02T09:50:06.999Z</time></trkpt><trkpt lat="42.2669153666443" lon="13.761931712541715"><ele>540.2857142857142</ele><time>2026-05-02T09:50:07.999Z</time></trkpt><trkpt lat="42.26688052960037" lon="13.762035413846181"><ele>540.1428571428571</ele><time>2026-05-02T09:50:08.999Z</time></trkpt><trkpt lat="42.266835438826796" lon="13.762145107737695"><ele>540.0</ele><time>2026-05-02T09:50:09.999Z</time></trkpt><trkpt lat="42.26678038501547" lon="13.762269952608095"><ele>541.6</ele><time>2026-05-02T09:50:10.999Z</time></trkpt><trkpt lat="42.266720922250336" lon="13.76239468113426"><ele>543.2</ele><time>2026-05-02T09:50:11.999Z</time></trkpt><trkpt lat="42.26665657234953" lon="13.762522402468061"><ele>544.8</ele><time>2026-05-02T09:50:12.999Z</time></trkpt><trkpt lat="42.26657144640227" lon="13.762618715421423"><ele>546.4</ele><time>2026-05-02T09:50:13.999Z</time></trkpt><trkpt lat="42.26648483073808" lon="13.762690013210468"><ele>548.0</ele><time>2026-05-02T09:50:14.999Z</time></trkpt><trkpt lat="42.26640372407013" lon="13.762763776316724"><ele>549.4</ele><time>2026-05-02T09:50:15.999Z</time></trkpt><trkpt lat="42.266328050598155" lon="13.762852409583756"><ele>550.8</ele><time>2026-05-02T09:50:16.999Z</time></trkpt><trkpt lat="42.26625171299367" lon="13.762941038216107"><ele>552.2</ele><time>2026-05-02T09:50:17.999Z</time></trkpt><trkpt lat="42.26615510098066" lon="13.762982295403516"><ele>553.6</ele><time>2026-05-02T09:50:18.999Z</time></trkpt><trkpt lat="42.266055465047856" lon="13.763031758304233"><ele>555.0</ele><time>2026-05-02T09:50:19.999Z</time></trkpt><trkpt lat="42.265941162932705" lon="13.763067607906155"><ele>555.0</ele><time>2026-05-02T09:50:20.999Z</time></trkpt><trkpt lat="42.26582276702657" lon="13.763093002189269"><ele>555.0</ele><time>2026-05-02T09:50:21.999Z</time></trkpt><trkpt lat="42.26570103240324" lon="13.763119806052805"><ele>555.0</ele><time>2026-05-02T09:50:22.999Z</time></trkpt><trkpt lat="42.26558873174665" lon="13.76317403379785"><ele>555.0</ele><time>2026-05-02T09:50:23.999Z</time></trkpt><trkpt lat="42.26549073065662" lon="13.763239766232207"><ele>557.0</ele><time>2026-05-02T09:50:24.999Z</time></trkpt><trkpt lat="42.26539747178084" lon="13.763309395610307"><ele>559.0</ele><time>2026-05-02T09:50:25.999Z</time></trkpt><trkpt lat="42.265292706573575" lon="13.76334673455529"><ele>561.0</ele><time>2026-05-02T09:50:26.999Z</time></trkpt><trkpt lat="42.26517753372105" lon="13.763344905996625"><ele>563.0</ele><time>2026-05-02T09:50:27.999Z</time></trkpt><trkpt lat="42.26505770709302" lon="13.76333440455224"><ele>563.0</ele><time>2026-05-02T09:50:28.999Z</time></trkpt><trkpt lat="42.264944863195616" lon="13.763322922238793"><ele>563.0</ele><time>2026-05-02T09:50:29.999Z</time></trkpt><trkpt lat="42.26483492128492" lon="13.763311735213744"><ele>563.0</ele><time>2026-05-02T09:50:30.999Z</time></trkpt><trkpt lat="42.26472344689342" lon="13.763303334225032"><ele>563.0</ele><time>2026-05-02T09:50:31.998Z</time></trkpt><trkpt lat="42.26460898523278" lon="13.763315895324837"><ele>563.25</ele><time>2026-05-02T09:50:32.998Z</time></trkpt><trkpt lat="42.26448988970171" lon="13.763356487269322"><ele>563.5</ele><time>2026-05-02T09:50:33.998Z</time></trkpt><trkpt lat="42.26436712084868" lon="13.763409938158947"><ele>563.75</ele><time>2026-05-02T09:50:34.998Z</time></trkpt><trkpt lat="42.264241815056785" lon="13.763473241852381"><ele>564.0</ele><time>2026-05-02T09:50:35.998Z</time></trkpt><trkpt lat="42.26411670122754" lon="13.763542200464666"><ele>568.3333333333334</ele><time>2026-05-02T09:50:36.998Z</time></trkpt><trkpt lat="42.26399028831986" lon="13.763618782282443"><ele>572.6666666666667</ele><time>2026-05-02T09:50:37.998Z</time></trkpt><trkpt lat="42.26386331731066" lon="13.763730789402986"><ele>577.0</ele><time>2026-05-02T09:50:38.998Z</time></trkpt><trkpt lat="42.26370737131349" lon="13.763826018381382"><ele>577.0</ele><time>2026-05-02T09:50:39.998Z</time></trkpt><trkpt lat="42.26354994099475" lon="13.763957574852519"><ele>577.0</ele><time>2026-05-02T09:50:40.998Z</time></trkpt><trkpt lat="42.263383106294015" lon="13.764110814752806"><ele>577.0</ele><time>2026-05-02T09:50:41.998Z</time></trkpt><trkpt lat="42.26319641586679" lon="13.764241705070406"><ele>575.3333333333334</ele><time>2026-05-02T09:50:42.998Z</time></trkpt><trkpt lat="42.26301027091047" lon="13.764332217574102"><ele>573.6666666666666</ele><time>2026-05-02T09:50:43.998Z</time></trkpt><trkpt lat="42.26286296999687" lon="13.76442841216312"><ele>572.0</ele><time>2026-05-02T09:50:44.998Z</time></trkpt><trkpt lat="42.262739614492844" lon="13.76448502737933"><ele>577.0</ele><time>2026-05-02T09:50:45.998Z</time></trkpt><trkpt lat="42.26264287955218" lon="13.764553947402476"><ele>582.0</ele><time>2026-05-02T09:50:46.998Z</time></trkpt><trkpt lat="42.26253209614205" lon="13.764588837202531"><ele>587.0</ele><time>2026-05-02T09:50:47.998Z</time></trkpt><trkpt lat="42.262396518749554" lon="13.764608244910177"><ele>592.0</ele><time>2026-05-02T09:50:48.998Z</time></trkpt><trkpt lat="42.26225422196275" lon="13.764650289210241"><ele>592.3333333333334</ele><time>2026-05-02T09:50:49.998Z</time></trkpt><trkpt lat="42.26210708638462" lon="13.76470971017263"><ele>592.6666666666666</ele><time>2026-05-02T09:50:50.998Z</time></trkpt><trkpt lat="42.26195614903372" lon="13.764774544716284"><ele>593.0</ele><time>2026-05-02T09:50:51.998Z</time></trkpt><trkpt lat="42.26181874424924" lon="13.764835864620832"><ele>593.0</ele><time>2026-05-02T09:50:52.998Z</time></trkpt><trkpt lat="42.26165992974322" lon="13.764887341226522"><ele>593.0</ele><time>2026-05-02T09:50:53.998Z</time></trkpt><trkpt lat="42.26150586780459" lon="13.764923140395535"><ele>593.0</ele><time>2026-05-02T09:50:54.998Z</time></trkpt><trkpt lat="42.26136600020459" lon="13.764957319310408"><ele>591.5</ele><time>2026-05-02T09:50:55.998Z</time></trkpt><trkpt lat="42.261217514716776" lon="13.764998171701528"><ele>590.0</ele><time>2026-05-02T09:50:56.998Z</time></trkpt><trkpt lat="42.26105766368105" lon="13.76504311109885"><ele>588.5</ele><time>2026-05-02T09:50:57.998Z</time></trkpt><trkpt lat="42.26092974350623" lon="13.765079133061034"><ele>587.0</ele><time>2026-05-02T09:50:58.998Z</time></trkpt><trkpt lat="42.26077915674102" lon="13.765132022442106"><ele>587.0</ele><time>2026-05-02T09:50:59.998Z</time></trkpt><trkpt lat="42.260643428729146" lon="13.765181039961602"><ele>587.0</ele><time>2026-05-02T09:51:00.998Z</time></trkpt><trkpt lat="42.260502001009826" lon="13.765232115905633"><ele>587.0</ele><time>2026-05-02T09:51:01.998Z</time></trkpt><trkpt lat="42.2603618176086" lon="13.765280840160443"><ele>587.0</ele><time>2026-05-02T09:51:02.998Z</time></trkpt><trkpt lat="42.26021594435173" lon="13.76533193466279"><ele>592.5</ele><time>2026-05-02T09:51:03.998Z</time></trkpt><trkpt lat="42.26007624425016" lon="13.76539172579594"><ele>598.0</ele><time>2026-05-02T09:51:04.998Z</time></trkpt><trkpt lat="42.25992663076617" lon="13.765465953760224"><ele>603.5</ele><time>2026-05-02T09:51:05.998Z</time></trkpt><trkpt lat="42.259801137952074" lon="13.765530411152037"><ele>609.0</ele><time>2026-05-02T09:51:06.998Z</time></trkpt><trkpt lat="42.25968093790944" lon="13.76558158487479"><ele>609.0</ele><time>2026-05-02T09:51:07.998Z</time></trkpt><trkpt lat="42.25956951257167" lon="13.76560936163933"><ele>609.0</ele><time>2026-05-02T09:51:08.998Z</time></trkpt><trkpt lat="42.25948816052599" lon="13.765613350359537"><ele>609.0</ele><time>2026-05-02T09:51:09.998Z</time></trkpt><trkpt lat="42.25941765352075" lon="13.765601795918986"><ele>609.0</ele><time>2026-05-02T09:51:10.998Z</time></trkpt><trkpt lat="42.25932149473999" lon="13.765570708048473"><ele>609.0</ele><time>2026-05-02T09:51:11.998Z</time></trkpt><trkpt lat="42.25921039312556" lon="13.765526416844857"><ele>609.0</ele><time>2026-05-02T09:51:12.998Z</time></trkpt><trkpt lat="42.25908856238875" lon="13.765487114139496"><ele>609.0</ele><time>2026-05-02T09:51:13.998Z</time></trkpt><trkpt lat="42.2589567903126" lon="13.765452526205497"><ele>609.0</ele><time>2026-05-02T09:51:14.998Z</time></trkpt><trkpt lat="42.25879209238895" lon="13.765424130798058"><ele>609.0</ele><time>2026-05-02T09:51:15.998Z</time></trkpt><trkpt lat="42.25866382394302" lon="13.765404453650318"><ele>608.8</ele><time>2026-05-02T09:51:16.998Z</time></trkpt><trkpt lat="42.25854798637662" lon="13.765387030067862"><ele>608.5999999999999</ele><time>2026-05-02T09:51:17.998Z</time></trkpt><trkpt lat="42.25845048136124" lon="13.765379142656078"><ele>608.4</ele><time>2026-05-02T09:51:18.998Z</time></trkpt><trkpt lat="42.258348061232766" lon="13.765362746932935"><ele>608.1999999999999</ele><time>2026-05-02T09:51:19.998Z</time></trkpt><trkpt lat="42.25825658431298" lon="13.765335844767234"><ele>608.0</ele><time>2026-05-02T09:51:20.998Z</time></trkpt><trkpt lat="42.25817939152809" lon="13.765299167397464"><ele>608.0</ele><time>2026-05-02T09:51:21.998Z</time></trkpt><trkpt lat="42.25810941138274" lon="13.765267221946015"><ele>608.0</ele><time>2026-05-02T09:51:22.998Z</time></trkpt><trkpt lat="42.25803288411259" lon="13.765214757922436"><ele>608.0</ele><time>2026-05-02T09:51:23.998Z</time></trkpt><trkpt lat="42.2579354045982" lon="13.765144046864298"><ele>608.0</ele><time>2026-05-02T09:51:24.998Z</time></trkpt><trkpt lat="42.25784213336226" lon="13.765077124846872"><ele>608.0</ele><time>2026-05-02T09:51:25.998Z</time></trkpt><trkpt lat="42.25774551405245" lon="13.7650177321148"><ele>609.6</ele><time>2026-05-02T09:51:26.998Z</time></trkpt><trkpt lat="42.25765834683026" lon="13.764972089561075"><ele>611.1999999999999</ele><time>2026-05-02T09:51:27.998Z</time></trkpt><trkpt lat="42.25755495924807" lon="13.764921683374935"><ele>612.8</ele><time>2026-05-02T09:51:28.998Z</time></trkpt><trkpt lat="42.25745816732333" lon="13.76487732604711"><ele>614.4</ele><time>2026-05-02T09:51:29.998Z</time></trkpt><trkpt lat="42.25736108346688" lon="13.764835483081313"><ele>616.0</ele><time>2026-05-02T09:51:30.998Z</time></trkpt><trkpt lat="42.25727035735154" lon="13.764799491294298"><ele>616.6666666666667</ele><time>2026-05-02T09:51:31.998Z</time></trkpt><trkpt lat="42.25717650191424" lon="13.764784614894625"><ele>617.3333333333334</ele><time>2026-05-02T09:51:32.998Z</time></trkpt><trkpt lat="42.25708611111575" lon="13.7647439281542"><ele>618.0</ele><time>2026-05-02T09:51:33.998Z</time></trkpt><trkpt lat="42.257008588281025" lon="13.764705053023711"><ele>618.6666666666666</ele><time>2026-05-02T09:51:34.998Z</time></trkpt><trkpt lat="42.2569336816776" lon="13.76464878998129"><ele>619.3333333333333</ele><time>2026-05-02T09:51:35.998Z</time></trkpt><trkpt lat="42.25686672858961" lon="13.764658124857057"><ele>620.0</ele><time>2026-05-02T09:51:36.998Z</time></trkpt><trkpt lat="42.25680654559973" lon="13.764691716630391"><ele>620.0</ele><time>2026-05-02T09:51:37.998Z</time></trkpt><trkpt lat="42.25671579161569" lon="13.76472177060561"><ele>620.0</ele><time>2026-05-02T09:51:38.998Z</time></trkpt><trkpt lat="42.25662503383494" lon="13.764747833757466"><ele>620.0</ele><time>2026-05-02T09:51:39.998Z</time></trkpt><trkpt lat="42.25652902340849" lon="13.76477881636372"><ele>620.0</ele><time>2026-05-02T09:51:40.998Z</time></trkpt><trkpt lat="42.25645689914507" lon="13.764776519027267"><ele>620.0</ele><time>2026-05-02T09:51:41.998Z</time></trkpt><trkpt lat="42.256378194177934" lon="13.764786197649126"><ele>620.0</ele><time>2026-05-02T09:51:42.998Z</time></trkpt><trkpt lat="42.2563055829372" lon="13.764784105930545"><ele>621.3333333333333</ele><time>2026-05-02T09:51:43.998Z</time></trkpt><trkpt lat="42.25622646539467" lon="13.764788154026638"><ele>622.6666666666666</ele><time>2026-05-02T09:51:44.998Z</time></trkpt><trkpt lat="42.256142365970135" lon="13.764784921926774"><ele>624.0</ele><time>2026-05-02T09:51:45.998Z</time></trkpt><trkpt lat="42.25607318537729" lon="13.7647982853263"><ele>625.3333333333334</ele><time>2026-05-02T09:51:46.998Z</time></trkpt><trkpt lat="42.2559848504916" lon="13.7647469247643"><ele>626.6666666666667</ele><time>2026-05-02T09:51:47.998Z</time></trkpt><trkpt lat="42.25588003819713" lon="13.764736612417225"><ele>628.0</ele><time>2026-05-02T09:51:48.998Z</time></trkpt><trkpt lat="42.255770417620326" lon="13.764740151196955"><ele>628.0</ele><time>2026-05-02T09:51:49.998Z</time></trkpt><trkpt lat="42.25563978838663" lon="13.764727325618686"><ele>628.0</ele><time>2026-05-02T09:51:50.998Z</time></trkpt><trkpt lat="42.25551151077039" lon="13.764682787609622"><ele>628.0</ele><time>2026-05-02T09:51:51.998Z</time></trkpt><trkpt lat="42.25541194464415" lon="13.764659279532282"><ele>628.0</ele><time>2026-05-02T09:51:52.998Z</time></trkpt><trkpt lat="42.25532908242545" lon="13.764652848574945"><ele>628.0</ele><time>2026-05-02T09:51:53.998Z</time></trkpt><trkpt lat="42.25525436815395" lon="13.764605609155913"><ele>628.8333333333334</ele><time>2026-05-02T09:51:54.998Z</time></trkpt><trkpt lat="42.25517404881969" lon="13.764581883350136"><ele>629.6666666666667</ele><time>2026-05-02T09:51:55.998Z</time></trkpt><trkpt lat="42.25509118627887" lon="13.764543462735778"><ele>630.5</ele><time>2026-05-02T09:51:56.998Z</time></trkpt><trkpt lat="42.2550099215373" lon="13.764506517573825"><ele>631.3333333333334</ele><time>2026-05-02T09:51:57.998Z</time></trkpt><trkpt lat="42.254935274373025" lon="13.764532754416528"><ele>632.1666666666666</ele><time>2026-05-02T09:51:58.998Z</time></trkpt><trkpt lat="42.25484120099728" lon="13.764549510960734"><ele>633.0</ele><time>2026-05-02T09:51:59.998Z</time></trkpt><trkpt lat="42.25474697775096" lon="13.764558447538409"><ele>634.8333333333334</ele><time>2026-05-02T09:52:00.998Z</time></trkpt><trkpt lat="42.254655806685555" lon="13.764558776679088"><ele>636.6666666666666</ele><time>2026-05-02T09:52:01.998Z</time></trkpt><trkpt lat="42.25458333236586" lon="13.764526463514063"><ele>638.5</ele><time>2026-05-02T09:52:02.998Z</time></trkpt><trkpt lat="42.25450021122103" lon="13.764498238828317"><ele>640.3333333333333</ele><time>2026-05-02T09:52:03.998Z</time></trkpt><trkpt lat="42.25441607213859" lon="13.764491772785235"><ele>642.1666666666666</ele><time>2026-05-02T09:52:04.998Z</time></trkpt><trkpt lat="42.25432227738566" lon="13.764459687661779"><ele>644.0</ele><time>2026-05-02T09:52:05.998Z</time></trkpt><trkpt lat="42.25422345194295" lon="13.764470453196946"><ele>644.0</ele><time>2026-05-02T09:52:06.998Z</time></trkpt><trkpt lat="42.254156456082406" lon="13.764439655802056"><ele>644.0</ele><time>2026-05-02T09:52:07.998Z</time></trkpt><trkpt lat="42.254072652423034" lon="13.764432422640517"><ele>644.0</ele><time>2026-05-02T09:52:08.998Z</time></trkpt><trkpt lat="42.25399162546182" lon="13.764420151024366"><ele>644.0</ele><time>2026-05-02T09:52:09.998Z</time></trkpt><trkpt lat="42.25391822144022" lon="13.76438169775691"><ele>644.0</ele><time>2026-05-02T09:52:10.998Z</time></trkpt><trkpt lat="42.25380142536295" lon="13.764318273114363"><ele>644.0</ele><time>2026-05-02T09:52:12.998Z</time></trkpt><trkpt lat="42.25372255538422" lon="13.764286102343961"><ele>645.1666666666666</ele><time>2026-05-02T09:52:13.998Z</time></trkpt><trkpt lat="42.25365719064363" lon="13.764241168410942"><ele>646.3333333333333</ele><time>2026-05-02T09:52:14.998Z</time></trkpt><trkpt lat="42.2535937341937" lon="13.764208987936797"><ele>647.5</ele><time>2026-05-02T09:52:15.998Z</time></trkpt><trkpt lat="42.253535529059256" lon="13.76414646810176"><ele>648.6666666666666</ele><time>2026-05-02T09:52:16.998Z</time></trkpt><trkpt lat="42.25349324541956" lon="13.764063111122924"><ele>649.8333333333334</ele><time>2026-05-02T09:52:17.998Z</time></trkpt><trkpt lat="42.25341328799507" lon="13.763907991424553"><ele>651.0</ele><time>2026-05-02T09:52:19.998Z</time></trkpt><trkpt lat="42.253374830619734" lon="13.763822725895869"><ele>651.0</ele><time>2026-05-02T09:52:20.998Z</time></trkpt><trkpt lat="42.25331725705058" lon="13.763737165802038"><ele>651.0</ele><time>2026-05-02T09:52:21.998Z</time></trkpt><trkpt lat="42.253243705451794" lon="13.763687391281927"><ele>651.0</ele><time>2026-05-02T09:52:22.998Z</time></trkpt><trkpt lat="42.2531483368343" lon="13.763617441103689"><ele>651.0</ele><time>2026-05-02T09:52:23.998Z</time></trkpt><trkpt lat="42.25303305503514" lon="13.763581392194203"><ele>651.0</ele><time>2026-05-02T09:52:24.998Z</time></trkpt><trkpt lat="42.25294390515241" lon="13.763553787056603"><ele>652.4</ele><time>2026-05-02T09:52:25.998Z</time></trkpt><trkpt lat="42.252861094940265" lon="13.763515129626024"><ele>653.8</ele><time>2026-05-02T09:52:26.998Z</time></trkpt><trkpt lat="42.252778927860554" lon="13.763478638175751"><ele>655.1999999999999</ele><time>2026-05-02T09:52:27.998Z</time></trkpt><trkpt lat="42.25269011887648" lon="13.763437693841958"><ele>656.5999999999999</ele><time>2026-05-02T09:52:28.998Z</time></trkpt><trkpt lat="42.252592690707814" lon="13.763406535119449"><ele>658.0</ele><time>2026-05-02T09:52:29.998Z</time></trkpt><trkpt lat="42.252480859537776" lon="13.763396326981242"><ele>658.0</ele><time>2026-05-02T09:52:30.998Z</time></trkpt><trkpt lat="42.252371708447775" lon="13.763390909647661"><ele>658.0</ele><time>2026-05-02T09:52:31.998Z</time></trkpt><trkpt lat="42.25227248466783" lon="13.76338036830627"><ele>658.0</ele><time>2026-05-02T09:52:32.998Z</time></trkpt><trkpt lat="42.25217669399332" lon="13.763359324929489"><ele>658.0</ele><time>2026-05-02T09:52:33.998Z</time></trkpt><trkpt lat="42.252091777741775" lon="13.763326053801375"><ele>658.0</ele><time>2026-05-02T09:52:34.998Z</time></trkpt><trkpt lat="42.252010668254066" lon="13.763274645936736"><ele>657.4</ele><time>2026-05-02T09:52:35.998Z</time></trkpt><trkpt lat="42.25192721170394" lon="13.763216450889711"><ele>656.8</ele><time>2026-05-02T09:52:36.998Z</time></trkpt><trkpt lat="42.25184976835513" lon="13.763127946674519"><ele>656.2</ele><time>2026-05-02T09:52:37.998Z</time></trkpt><trkpt lat="42.251785716840104" lon="13.763055268493334"><ele>655.6</ele><time>2026-05-02T09:52:38.998Z</time></trkpt><trkpt lat="42.25171957607006" lon="13.762946695452317"><ele>655.0</ele><time>2026-05-02T09:52:39.998Z</time></trkpt><trkpt lat="42.251670823521565" lon="13.762867462166852"><ele>655.0</ele><time>2026-05-02T09:52:40.998Z</time></trkpt><trkpt lat="42.25161057451369" lon="13.762775219368317"><ele>655.0</ele><time>2026-05-02T09:52:41.998Z</time></trkpt><trkpt lat="42.251533143249766" lon="13.762669225894461"><ele>655.0</ele><time>2026-05-02T09:52:42.998Z</time></trkpt><trkpt lat="42.25144027762974" lon="13.762567152693896"><ele>655.0</ele><time>2026-05-02T09:52:43.998Z</time></trkpt><trkpt lat="42.25133392944144" lon="13.762487446332523"><ele>655.0</ele><time>2026-05-02T09:52:44.998Z</time></trkpt><trkpt lat="42.251228446595505" lon="13.762394400511747"><ele>658.6</ele><time>2026-05-02T09:52:45.998Z</time></trkpt><trkpt lat="42.25112294583706" lon="13.762334227170745"><ele>662.2</ele><time>2026-05-02T09:52:46.998Z</time></trkpt><trkpt lat="42.251033728542154" lon="13.76227949746132"><ele>665.8</ele><time>2026-05-02T09:52:47.998Z</time></trkpt><trkpt lat="42.25093618301122" lon="13.762226153425264"><ele>669.4</ele><time>2026-05-02T09:52:48.998Z</time></trkpt><trkpt lat="42.25085289989644" lon="13.762192929974837"><ele>673.0</ele><time>2026-05-02T09:52:49.998Z</time></trkpt><trkpt lat="42.25078508129215" lon="13.762202272130516"><ele>673.0</ele><time>2026-05-02T09:52:50.997Z</time></trkpt><trkpt lat="42.2507200149283" lon="13.762227737730631"><ele>673.0</ele><time>2026-05-02T09:52:52.997Z</time></trkpt><trkpt lat="42.25064138101424" lon="13.762377105252531"><ele>673.0</ele><time>2026-05-02T09:52:55.997Z</time></trkpt><trkpt lat="42.25059175840891" lon="13.762496906669524"><ele>673.0</ele><time>2026-05-02T09:52:56.997Z</time></trkpt><trkpt lat="42.250498933051844" lon="13.76259419975355"><ele>673.0</ele><time>2026-05-02T09:52:57.997Z</time></trkpt><trkpt lat="42.25040606913012" lon="13.762642708547434"><ele>672.0</ele><time>2026-05-02T09:52:58.997Z</time></trkpt><trkpt lat="42.250302659082145" lon="13.762698425861497"><ele>671.0</ele><time>2026-05-02T09:52:59.997Z</time></trkpt><trkpt lat="42.250196687438184" lon="13.762731648238473"><ele>670.0</ele><time>2026-05-02T09:53:00.997Z</time></trkpt><trkpt lat="42.25007573616124" lon="13.762746638244838"><ele>669.0</ele><time>2026-05-02T09:53:01.997Z</time></trkpt><trkpt lat="42.24995720781212" lon="13.762775539622"><ele>669.0</ele><time>2026-05-02T09:53:02.997Z</time></trkpt><trkpt lat="42.24983522773597" lon="13.762802998337106"><ele>669.0</ele><time>2026-05-02T09:53:03.997Z</time></trkpt><trkpt lat="42.24974261914576" lon="13.762829334269503"><ele>669.0</ele><time>2026-05-02T09:53:04.997Z</time></trkpt><trkpt lat="42.249677246472686" lon="13.762876474414261"><ele>669.0</ele><time>2026-05-02T09:53:05.997Z</time></trkpt><trkpt lat="42.2495995664" lon="13.762953749620005"><ele>669.0</ele><time>2026-05-02T09:53:06.997Z</time></trkpt><trkpt lat="42.24951686936997" lon="13.763051081399752"><ele>672.0</ele><time>2026-05-02T09:53:07.997Z</time></trkpt><trkpt lat="42.24945182247337" lon="13.763144579616375"><ele>675.0</ele><time>2026-05-02T09:53:08.997Z</time></trkpt><trkpt lat="42.24937879941869" lon="13.763228507584946"><ele>678.0</ele><time>2026-05-02T09:53:09.997Z</time></trkpt><trkpt lat="42.249290950058736" lon="13.763278972672229"><ele>681.0</ele><time>2026-05-02T09:53:10.997Z</time></trkpt><trkpt lat="42.249202988111314" lon="13.76333886359057"><ele>684.0</ele><time>2026-05-02T09:53:11.997Z</time></trkpt><trkpt lat="42.24911469140292" lon="13.76340734663212"><ele>684.0</ele><time>2026-05-02T09:53:12.997Z</time></trkpt><trkpt lat="42.24902477894235" lon="13.76345242115322"><ele>684.0</ele><time>2026-05-02T09:53:13.997Z</time></trkpt><trkpt lat="42.24893962731696" lon="13.763498558892818"><ele>684.0</ele><time>2026-05-02T09:53:14.997Z</time></trkpt><trkpt lat="42.248856219139256" lon="13.763548341140975"><ele>684.0</ele><time>2026-05-02T09:53:15.997Z</time></trkpt><trkpt lat="42.248770814735984" lon="13.763604431389753"><ele>684.0</ele><time>2026-05-02T09:53:16.997Z</time></trkpt><trkpt lat="42.248695798958906" lon="13.7636715470399"><ele>684.8000000000001</ele><time>2026-05-02T09:53:17.997Z</time></trkpt><trkpt lat="42.2486222161146" lon="13.76374409508266"><ele>685.6</ele><time>2026-05-02T09:53:18.997Z</time></trkpt><trkpt lat="42.248557710026255" lon="13.763820407630353"><ele>686.4</ele><time>2026-05-02T09:53:19.997Z</time></trkpt><trkpt lat="42.24849168777512" lon="13.763903298570925"><ele>687.2</ele><time>2026-05-02T09:53:20.997Z</time></trkpt><trkpt lat="42.24841061547374" lon="13.763991253847736"><ele>688.0</ele><time>2026-05-02T09:53:21.997Z</time></trkpt><trkpt lat="42.24832434080337" lon="13.764077506604307"><ele>688.0</ele><time>2026-05-02T09:53:22.997Z</time></trkpt><trkpt lat="42.2482421952107" lon="13.764159491108765"><ele>688.0</ele><time>2026-05-02T09:53:23.997Z</time></trkpt><trkpt lat="42.24817306515691" lon="13.764264443745788"><ele>688.0</ele><time>2026-05-02T09:53:24.997Z</time></trkpt><trkpt lat="42.24809173913926" lon="13.764354664932677"><ele>688.0</ele><time>2026-05-02T09:53:25.997Z</time></trkpt><trkpt lat="42.248005697572" lon="13.764432260970633"><ele>688.0</ele><time>2026-05-02T09:53:26.997Z</time></trkpt><trkpt lat="42.24793736151539" lon="13.764527957112621"><ele>689.3333333333334</ele><time>2026-05-02T09:53:27.997Z</time></trkpt><trkpt lat="42.247883163043724" lon="13.764630214011877"><ele>690.6666666666667</ele><time>2026-05-02T09:53:28.997Z</time></trkpt><trkpt lat="42.24782460768244" lon="13.764717180796424"><ele>692.0</ele><time>2026-05-02T09:53:29.997Z</time></trkpt><trkpt lat="42.24777255517283" lon="13.764801828419555"><ele>693.3333333333334</ele><time>2026-05-02T09:53:30.997Z</time></trkpt><trkpt lat="42.247730622298214" lon="13.764887530132336"><ele>694.6666666666666</ele><time>2026-05-02T09:53:31.997Z</time></trkpt><trkpt lat="42.24769721080681" lon="13.764962467415009"><ele>696.0</ele><time>2026-05-02T09:53:32.997Z</time></trkpt><trkpt lat="42.24764508276641" lon="13.765016420317979"><ele>696.0</ele><time>2026-05-02T09:53:33.997Z</time></trkpt><trkpt lat="42.247561976692545" lon="13.765140915137902"><ele>696.0</ele><time>2026-05-02T09:53:35.997Z</time></trkpt><trkpt lat="42.247503062349075" lon="13.765190675556328"><ele>696.0</ele><time>2026-05-02T09:53:36.997Z</time></trkpt><trkpt lat="42.24743793717279" lon="13.765233503227526"><ele>696.0</ele><time>2026-05-02T09:53:37.997Z</time></trkpt><trkpt lat="42.247368001718065" lon="13.765272225501018"><ele>696.0</ele><time>2026-05-02T09:53:38.997Z</time></trkpt><trkpt lat="42.24729582148467" lon="13.765315233721536"><ele>696.0</ele><time>2026-05-02T09:53:39.997Z</time></trkpt><trkpt lat="42.24723767163172" lon="13.765405035045205"><ele>698.6666666666666</ele><time>2026-05-02T09:53:40.997Z</time></trkpt><trkpt lat="42.247169531931995" lon="13.765419859347077"><ele>701.3333333333334</ele><time>2026-05-02T09:53:41.997Z</time></trkpt><trkpt lat="42.247115315383944" lon="13.765467430296432"><ele>704.0</ele><time>2026-05-02T09:53:42.997Z</time></trkpt><trkpt lat="42.247002167360726" lon="13.765508503117394"><ele>706.6666666666667</ele><time>2026-05-02T09:53:44.997Z</time></trkpt><trkpt lat="42.246894126263335" lon="13.765578346815245"><ele>709.3333333333334</ele><time>2026-05-02T09:53:46.997Z</time></trkpt><trkpt lat="42.246834448276005" lon="13.765617406698171"><ele>712.0</ele><time>2026-05-02T09:53:47.997Z</time></trkpt><trkpt lat="42.24677436695386" lon="13.765657678239892"><ele>711.9999999999999</ele><time>2026-05-02T09:53:48.997Z</time></trkpt><trkpt lat="42.24671977871031" lon="13.765719976710914"><ele>712.0</ele><time>2026-05-02T09:53:49.997Z</time></trkpt><trkpt lat="42.246651375717796" lon="13.765759147684575"><ele>712.0</ele><time>2026-05-02T09:53:50.997Z</time></trkpt><trkpt lat="42.24658784534412" lon="13.765812725848532"><ele>712.0</ele><time>2026-05-02T09:53:51.997Z</time></trkpt><trkpt lat="42.246525244974514" lon="13.765867170402165"><ele>712.0</ele><time>2026-05-02T09:53:52.997Z</time></trkpt><trkpt lat="42.24646900514047" lon="13.765929362726524"><ele>711.9999999999999</ele><time>2026-05-02T09:53:53.997Z</time></trkpt><trkpt lat="42.24640828995676" lon="13.765990868645543"><ele>712.0</ele><time>2026-05-02T09:53:54.997Z</time></trkpt><trkpt lat="42.24635408212752" lon="13.766069539415708"><ele>713.6</ele><time>2026-05-02T09:53:55.997Z</time></trkpt><trkpt lat="42.246333768427476" lon="13.766178699786469"><ele>715.2</ele><time>2026-05-02T09:53:56.997Z</time></trkpt><trkpt lat="42.24628010758466" lon="13.766255027887448"><ele>716.8</ele><time>2026-05-02T09:53:57.997Z</time></trkpt><trkpt lat="42.246196711471434" lon="13.766334987535727"><ele>718.4</ele><time>2026-05-02T09:53:58.997Z</time></trkpt><trkpt lat="42.24611013769317" lon="13.766409909116904"><ele>720.0</ele><time>2026-05-02T09:53:59.997Z</time></trkpt><trkpt lat="42.24602935425156" lon="13.766447586527047"><ele>720.0</ele><time>2026-05-02T09:54:00.997Z</time></trkpt><trkpt lat="42.245938437867345" lon="13.76645412228341"><ele>720.0</ele><time>2026-05-02T09:54:01.997Z</time></trkpt><trkpt lat="42.24584436553804" lon="13.766466398189936"><ele>720.0</ele><time>2026-05-02T09:54:02.997Z</time></trkpt><trkpt lat="42.24574558905037" lon="13.766514245381062"><ele>720.0</ele><time>2026-05-02T09:54:03.997Z</time></trkpt><trkpt lat="42.24564187550723" lon="13.766558739834494"><ele>720.0</ele><time>2026-05-02T09:54:04.997Z</time></trkpt><trkpt lat="42.245536644486826" lon="13.766614061249227"><ele>719.8</ele><time>2026-05-02T09:54:05.997Z</time></trkpt><trkpt lat="42.24542582039696" lon="13.766686012594164"><ele>719.6</ele><time>2026-05-02T09:54:06.997Z</time></trkpt><trkpt lat="42.24532780532784" lon="13.766754771423528"><ele>719.4000000000001</ele><time>2026-05-02T09:54:07.997Z</time></trkpt><trkpt lat="42.24524922965374" lon="13.766803075819704"><ele>719.2</ele><time>2026-05-02T09:54:08.997Z</time></trkpt><trkpt lat="42.24515102826019" lon="13.766839731603891"><ele>719.0</ele><time>2026-05-02T09:54:09.997Z</time></trkpt><trkpt lat="42.245062403218725" lon="13.766868225949422"><ele>719.0</ele><time>2026-05-02T09:54:10.997Z</time></trkpt><trkpt lat="42.24496855942205" lon="13.766897217393732"><ele>719.0</ele><time>2026-05-02T09:54:11.997Z</time></trkpt><trkpt lat="42.24489451447249" lon="13.766920248959227"><ele>719.0</ele><time>2026-05-02T09:54:12.997Z</time></trkpt><trkpt lat="42.244827017846625" lon="13.766957762915291"><ele>719.0</ele><time>2026-05-02T09:54:22.997Z</time></trkpt><trkpt lat="42.2447031141864" lon="13.766969257276703"><ele>719.0</ele><time>2026-05-02T09:54:24.997Z</time></trkpt><trkpt lat="42.244630179443504" lon="13.766980969383516"><ele>719.0</ele><time>2026-05-02T09:54:25.997Z</time></trkpt><trkpt lat="42.24455853830618" lon="13.767013845356006"><ele>720.6666666666666</ele><time>2026-05-02T09:54:26.997Z</time></trkpt><trkpt lat="42.24447764040651" lon="13.76701996895973"><ele>722.3333333333333</ele><time>2026-05-02T09:54:27.997Z</time></trkpt><trkpt lat="42.244393217263735" lon="13.767020578625791"><ele>724.0</ele><time>2026-05-02T09:54:28.997Z</time></trkpt><trkpt lat="42.24431930841612" lon="13.767029835206298"><ele>725.6666666666666</ele><time>2026-05-02T09:54:29.997Z</time></trkpt><trkpt lat="42.24424570974032" lon="13.767059201151083"><ele>727.3333333333334</ele><time>2026-05-02T09:54:30.997Z</time></trkpt><trkpt lat="42.244165086635576" lon="13.767053944519072"><ele>729.0</ele><time>2026-05-02T09:54:31.997Z</time></trkpt><trkpt lat="42.244086849283505" lon="13.76707501835383"><ele>729.0</ele><time>2026-05-02T09:54:32.997Z</time></trkpt><trkpt lat="42.244012309712325" lon="13.767095736555314"><ele>729.0</ele><time>2026-05-02T09:54:33.997Z</time></trkpt><trkpt lat="42.24393943063947" lon="13.767115993121292"><ele>729.0</ele><time>2026-05-02T09:54:34.997Z</time></trkpt><trkpt lat="42.243864273126" lon="13.76715390022525"><ele>729.0</ele><time>2026-05-02T09:54:35.997Z</time></trkpt><trkpt lat="42.243783178106355" lon="13.767157266611266"><ele>729.0</ele><time>2026-05-02T09:54:36.997Z</time></trkpt><trkpt lat="42.24370563978372" lon="13.767177552251006"><ele>729.0</ele><time>2026-05-02T09:54:37.997Z</time></trkpt><trkpt lat="42.243625374958576" lon="13.76719734383586"><ele>731.1428571428572</ele><time>2026-05-02T09:54:38.997Z</time></trkpt><trkpt lat="42.24354686328413" lon="13.767215450772262"><ele>733.2857142857142</ele><time>2026-05-02T09:54:39.997Z</time></trkpt><trkpt lat="42.243480794008846" lon="13.767229635463957"><ele>735.4285714285714</ele><time>2026-05-02T09:54:40.997Z</time></trkpt><trkpt lat="42.24341453684469" lon="13.767249103740133"><ele>737.5714285714287</ele><time>2026-05-02T09:54:41.997Z</time></trkpt><trkpt lat="42.24335154201645" lon="13.767267506128388"><ele>739.7142857142858</ele><time>2026-05-02T09:54:42.997Z</time></trkpt><trkpt lat="42.243277931815115" lon="13.767264822217872"><ele>741.8571428571429</ele><time>2026-05-02T09:54:43.997Z</time></trkpt><trkpt lat="42.24320811466194" lon="13.767275427993942"><ele>744.0</ele><time>2026-05-02T09:54:44.997Z</time></trkpt><trkpt lat="42.243138950902335" lon="13.767285696775602"><ele>746.1666666666666</ele><time>2026-05-02T09:54:45.997Z</time></trkpt><trkpt lat="42.24301572269954" lon="13.767322141886059"><ele>748.3333333333334</ele><time>2026-05-02T09:54:47.997Z</time></trkpt><trkpt lat="42.24294391605536" lon="13.7673272679077"><ele>750.5</ele><time>2026-05-02T09:54:48.997Z</time></trkpt><trkpt lat="42.24286582626068" lon="13.767334781096208"><ele>752.6666666666667</ele><time>2026-05-02T09:54:49.997Z</time></trkpt><trkpt lat="42.24278741451231" lon="13.76733874211426"><ele>754.8333333333334</ele><time>2026-05-02T09:54:50.997Z</time></trkpt><trkpt lat="42.24271065082398" lon="13.767336608068158"><ele>757.0</ele><time>2026-05-02T09:54:51.997Z</time></trkpt><trkpt lat="42.242623133214856" lon="13.767359004675892"><ele>757.0</ele><time>2026-05-02T09:54:52.996Z</time></trkpt><trkpt lat="42.24253674506836" lon="13.767384075637809"><ele>757.0</ele><time>2026-05-02T09:54:53.996Z</time></trkpt><trkpt lat="42.24245325407692" lon="13.767431684061483"><ele>757.0</ele><time>2026-05-02T09:54:54.996Z</time></trkpt><trkpt lat="42.242355762687005" lon="13.767451124128787"><ele>757.0</ele><time>2026-05-02T09:54:55.996Z</time></trkpt><trkpt lat="42.24224601559389" lon="13.767463232963232"><ele>757.0</ele><time>2026-05-02T09:54:56.996Z</time></trkpt><trkpt lat="42.24214158459491" lon="13.767492608621202"><ele>757.0</ele><time>2026-05-02T09:54:57.996Z</time></trkpt><trkpt lat="42.24204701033391" lon="13.76755140220527"><ele>757.0</ele><time>2026-05-02T09:54:58.996Z</time></trkpt><trkpt lat="42.24194752474101" lon="13.76762913333402"><ele>757.0</ele><time>2026-05-02T09:54:59.996Z</time></trkpt><trkpt lat="42.241849145951704" lon="13.767709558127946"><ele>757.0</ele><time>2026-05-02T09:55:00.996Z</time></trkpt><trkpt lat="42.24174442191968" lon="13.767771914508344"><ele>757.0</ele><time>2026-05-02T09:55:02Z</time></trkpt><trkpt lat="42.24164689546205" lon="13.767859772085584"><ele>757.0</ele><time>2026-05-02T09:55:03Z</time></trkpt><trkpt lat="42.24155891260839" lon="13.767960938103784"><ele>757.0</ele><time>2026-05-02T09:55:04Z</time></trkpt><trkpt lat="42.24147812934333" lon="13.768071325276377"><ele>757.0</ele><time>2026-05-02T09:55:05Z</time></trkpt><trkpt lat="42.2414034778624" lon="13.768187088473807"><ele>757.0</ele><time>2026-05-02T09:55:05.999Z</time></trkpt><trkpt lat="42.241341143623686" lon="13.768297195388739"><ele>757.0</ele><time>2026-05-02T09:55:06.999Z</time></trkpt><trkpt lat="42.24127481869269" lon="13.76841076055601"><ele>760.6</ele><time>2026-05-02T09:55:07.999Z</time></trkpt><trkpt lat="42.2412114820817" lon="13.76853468060291"><ele>764.2</ele><time>2026-05-02T09:55:08.999Z</time></trkpt><trkpt lat="42.24113744803915" lon="13.768633741878089"><ele>767.8</ele><time>2026-05-02T09:55:09.999Z</time></trkpt><trkpt lat="42.24107187307229" lon="13.768722185236905"><ele>771.4</ele><time>2026-05-02T09:55:10.999Z</time></trkpt><trkpt lat="42.24101078372035" lon="13.768805761330679"><ele>775.0</ele><time>2026-05-02T09:55:11.999Z</time></trkpt><trkpt lat="42.240952885074236" lon="13.76889050996433"><ele>775.0</ele><time>2026-05-02T09:55:12.999Z</time></trkpt><trkpt lat="42.24091276180505" lon="13.768983489988019"><ele>775.0</ele><time>2026-05-02T09:55:13.999Z</time></trkpt><trkpt lat="42.240878417583666" lon="13.769068318975188"><ele>775.0</ele><time>2026-05-02T09:55:14.999Z</time></trkpt><trkpt lat="42.24084040369183" lon="13.769235682023497"><ele>775.0</ele><time>2026-05-02T09:55:16.999Z</time></trkpt><trkpt lat="42.24072047414039" lon="13.769308932213468"><ele>775.0</ele><time>2026-05-02T09:55:18.999Z</time></trkpt><trkpt lat="42.240596450887246" lon="13.769305524400078"><ele>777.3333333333333</ele><time>2026-05-02T09:55:20.999Z</time></trkpt><trkpt lat="42.24053477935144" lon="13.769283737697599"><ele>779.6666666666666</ele><time>2026-05-02T09:55:21.999Z</time></trkpt><trkpt lat="42.24040416664349" lon="13.76923390612729"><ele>782.0</ele><time>2026-05-02T09:55:23.999Z</time></trkpt><trkpt lat="42.24033029026272" lon="13.769208866117287"><ele>784.3333333333333</ele><time>2026-05-02T09:55:24.999Z</time></trkpt><trkpt lat="42.240250421974096" lon="13.769187961212607"><ele>786.6666666666666</ele><time>2026-05-02T09:55:25.999Z</time></trkpt><trkpt lat="42.2401610767155" lon="13.76920714947132"><ele>789.0</ele><time>2026-05-02T09:55:26.999Z</time></trkpt><trkpt lat="42.240065567725836" lon="13.769200912172229"><ele>789.0</ele><time>2026-05-02T09:55:27.999Z</time></trkpt><trkpt lat="42.23996080008163" lon="13.76918224112912"><ele>789.0</ele><time>2026-05-02T09:55:28.999Z</time></trkpt><trkpt lat="42.23985361419913" lon="13.769173639075085"><ele>789.0</ele><time>2026-05-02T09:55:29.999Z</time></trkpt><trkpt lat="42.23976550238217" lon="13.76917062403098"><ele>789.0</ele><time>2026-05-02T09:55:30.999Z</time></trkpt><trkpt lat="42.23966890760591" lon="13.769154276048791"><ele>789.0</ele><time>2026-05-02T09:55:31.999Z</time></trkpt><trkpt lat="42.239596232409774" lon="13.769122476511091"><ele>791.6666666666666</ele><time>2026-05-02T09:55:32.999Z</time></trkpt><trkpt lat="42.23952340907902" lon="13.769093848787174"><ele>794.3333333333333</ele><time>2026-05-02T09:55:33.999Z</time></trkpt><trkpt lat="42.23945287079187" lon="13.769086622507166"><ele>797.0</ele><time>2026-05-02T09:55:34.999Z</time></trkpt><trkpt lat="42.239390508067366" lon="13.769104748975629"><ele>799.6666666666666</ele><time>2026-05-02T09:55:35.999Z</time></trkpt><trkpt lat="42.23933562901903" lon="13.769152678945657"><ele>802.3333333333333</ele><time>2026-05-02T09:55:36.999Z</time></trkpt><trkpt lat="42.239235059688625" lon="13.769253637021015"><ele>805.0</ele><time>2026-05-02T09:55:38.999Z</time></trkpt><trkpt lat="42.239180704507646" lon="13.76930393534673"><ele>805.0</ele><time>2026-05-02T09:55:39.999Z</time></trkpt><trkpt lat="42.239120960010034" lon="13.769355735087615"><ele>805.0</ele><time>2026-05-02T09:55:40.999Z</time></trkpt><trkpt lat="42.23904759979991" lon="13.769393397261657"><ele>805.0</ele><time>2026-05-02T09:55:41.999Z</time></trkpt><trkpt lat="42.23898236989579" lon="13.76941786343346"><ele>805.0</ele><time>2026-05-02T09:55:42.999Z</time></trkpt><trkpt lat="42.23891535616433" lon="13.769369533813476"><ele>805.0</ele><time>2026-05-02T09:55:43.999Z</time></trkpt><trkpt lat="42.23886513721895" lon="13.769448467724558"><ele>805.0</ele><time>2026-05-02T09:55:44.999Z</time></trkpt><trkpt lat="42.238801731529556" lon="13.769447426989245"><ele>805.0</ele><time>2026-05-02T09:55:45.999Z</time></trkpt><trkpt lat="42.23873105638238" lon="13.76945492074677"><ele>804.8333333333333</ele><time>2026-05-02T09:55:46.999Z</time></trkpt><trkpt lat="42.2386448991767" lon="13.76944510747726"><ele>804.6666666666666</ele><time>2026-05-02T09:55:47.999Z</time></trkpt><trkpt lat="42.238574299787054" lon="13.769447148331878"><ele>804.5</ele><time>2026-05-02T09:55:48.999Z</time></trkpt><trkpt lat="42.23850732311002" lon="13.769444984381376"><ele>804.3333333333333</ele><time>2026-05-02T09:55:49.999Z</time></trkpt><trkpt lat="42.23842603779984" lon="13.769467567573468"><ele>804.1666666666666</ele><time>2026-05-02T09:55:50.999Z</time></trkpt><trkpt lat="42.23834816259361" lon="13.769510890905504"><ele>804.0</ele><time>2026-05-02T09:55:51.999Z</time></trkpt><trkpt lat="42.238248657950834" lon="13.769554277861387"><ele>804.0</ele><time>2026-05-02T09:55:52.999Z</time></trkpt><trkpt lat="42.238154502951026" lon="13.769589247978388"><ele>804.0</ele><time>2026-05-02T09:55:53.999Z</time></trkpt><trkpt lat="42.238063701161295" lon="13.769633386526857"><ele>804.0</ele><time>2026-05-02T09:55:54.999Z</time></trkpt><trkpt lat="42.23797467401787" lon="13.76967244290641"><ele>804.0</ele><time>2026-05-02T09:55:55.999Z</time></trkpt><trkpt lat="42.237877755985224" lon="13.769725826744125"><ele>804.0</ele><time>2026-05-02T09:55:56.999Z</time></trkpt><trkpt lat="42.23777371070363" lon="13.769782148703284"><ele>807.4000000000001</ele><time>2026-05-02T09:55:57.999Z</time></trkpt><trkpt lat="42.23768615208557" lon="13.769833503096471"><ele>810.8</ele><time>2026-05-02T09:55:58.999Z</time></trkpt><trkpt lat="42.23759126107705" lon="13.76987390197301"><ele>814.2</ele><time>2026-05-02T09:55:59.999Z</time></trkpt><trkpt lat="42.237495023298685" lon="13.76991061697631"><ele>817.5999999999999</ele><time>2026-05-02T09:56:00.999Z</time></trkpt><trkpt lat="42.2374062685527" lon="13.769932574065246"><ele>821.0</ele><time>2026-05-02T09:56:01.999Z</time></trkpt><trkpt lat="42.23733328863973" lon="13.769950552979147"><ele>822.1666666666667</ele><time>2026-05-02T09:56:02.999Z</time></trkpt><trkpt lat="42.237258099894916" lon="13.76997960045056"><ele>823.3333333333334</ele><time>2026-05-02T09:56:03.999Z</time></trkpt><trkpt lat="42.23717364736089" lon="13.7699556016195"><ele>824.5</ele><time>2026-05-02T09:56:04.999Z</time></trkpt><trkpt lat="42.237093990331296" lon="13.769997214191084"><ele>825.6666666666667</ele><time>2026-05-02T09:56:05.999Z</time></trkpt><trkpt lat="42.23702523264325" lon="13.770048807464844"><ele>826.8333333333334</ele><time>2026-05-02T09:56:06.999Z</time></trkpt><trkpt lat="42.23696609156481" lon="13.770131407492826"><ele>828.0</ele><time>2026-05-02T09:56:07.999Z</time></trkpt><trkpt lat="42.23691398582597" lon="13.77020070376077"><ele>828.0</ele><time>2026-05-02T09:56:08.999Z</time></trkpt><trkpt lat="42.23686285993866" lon="13.7702759424758"><ele>828.0</ele><time>2026-05-02T09:56:09.999Z</time></trkpt><trkpt lat="42.23681139964026" lon="13.770339061776074"><ele>828.0</ele><time>2026-05-02T09:56:10.999Z</time></trkpt><trkpt lat="42.23675058430496" lon="13.770383228102524"><ele>828.0</ele><time>2026-05-02T09:56:11.999Z</time></trkpt><trkpt lat="42.23667456454354" lon="13.770414595798176"><ele>828.0</ele><time>2026-05-02T09:56:12.999Z</time></trkpt><trkpt lat="42.23659174490276" lon="13.770449311403192"><ele>828.0</ele><time>2026-05-02T09:56:13.999Z</time></trkpt><trkpt lat="42.236499289886964" lon="13.770484644305052"><ele>829.1666666666666</ele><time>2026-05-02T09:56:14.999Z</time></trkpt><trkpt lat="42.236425218276665" lon="13.77051887637929"><ele>830.3333333333333</ele><time>2026-05-02T09:56:15.999Z</time></trkpt><trkpt lat="42.23634704993809" lon="13.77054962631383"><ele>831.5</ele><time>2026-05-02T09:56:16.999Z</time></trkpt><trkpt lat="42.23625972884192" lon="13.770574625500625"><ele>832.6666666666666</ele><time>2026-05-02T09:56:17.999Z</time></trkpt><trkpt lat="42.2361728721181" lon="13.770597827521387"><ele>833.8333333333333</ele><time>2026-05-02T09:56:18.999Z</time></trkpt><trkpt lat="42.23608961130122" lon="13.770619097032716"><ele>835.0</ele><time>2026-05-02T09:56:19.999Z</time></trkpt><trkpt lat="42.235985033101315" lon="13.770644857950835"><ele>835.0</ele><time>2026-05-02T09:56:21.999Z</time></trkpt><trkpt lat="42.23592586493611" lon="13.77069932051872"><ele>835.0</ele><time>2026-05-02T09:57:24.998Z</time></trkpt><trkpt lat="42.23586752480082" lon="13.770818909171831"><ele>835.0</ele><time>2026-05-02T09:57:27.998Z</time></trkpt><trkpt lat="42.23584241770391" lon="13.770901653512247"><ele>835.0</ele><time>2026-05-02T09:57:28.998Z</time></trkpt><trkpt lat="42.235832357237086" lon="13.771045598520717"><ele>835.0</ele><time>2026-05-02T09:57:30.998Z</time></trkpt><trkpt lat="42.23586063668713" lon="13.77123184029595"><ele>834.8333333333333</ele><time>2026-05-02T09:57:32.998Z</time></trkpt><trkpt lat="42.23587648210287" lon="13.771333275233077"><ele>834.6666666666666</ele><time>2026-05-02T09:57:33.998Z</time></trkpt><trkpt lat="42.235885984474756" lon="13.771445383429993"><ele>834.5</ele><time>2026-05-02T09:57:34.998Z</time></trkpt><trkpt lat="42.23589816256232" lon="13.771623972567044"><ele>834.3333333333333</ele><time>2026-05-02T09:57:36.998Z</time></trkpt><trkpt lat="42.23590699265115" lon="13.771717779486782"><ele>834.1666666666666</ele><time>2026-05-02T09:57:37.998Z</time></trkpt><trkpt lat="42.23590809979001" lon="13.771803577509203"><ele>834.0</ele><time>2026-05-02T09:57:38.998Z</time></trkpt><trkpt lat="42.235853833741984" lon="13.771974357543076"><ele>834.0</ele><time>2026-05-02T09:57:40.998Z</time></trkpt><trkpt lat="42.23581496674213" lon="13.772053469226123"><ele>834.0</ele><time>2026-05-02T09:57:41.998Z</time></trkpt><trkpt lat="42.23574257183645" lon="13.772184385325474"><ele>834.0</ele><time>2026-05-02T09:57:43.998Z</time></trkpt><trkpt lat="42.235642653047606" lon="13.772312063661815"><ele>834.0</ele><time>2026-05-02T09:57:45.998Z</time></trkpt><trkpt lat="42.23555124635295" lon="13.772448055493497"><ele>835.2</ele><time>2026-05-02T09:57:47.998Z</time></trkpt><trkpt lat="42.23550240192384" lon="13.772539375835319"><ele>836.4000000000001</ele><time>2026-05-02T09:57:48.998Z</time></trkpt><trkpt lat="42.235458400887666" lon="13.772632230831176"><ele>837.6</ele><time>2026-05-02T09:57:49.998Z</time></trkpt><trkpt lat="42.23539741821719" lon="13.77271808809383"><ele>838.8</ele><time>2026-05-02T09:57:50.998Z</time></trkpt><trkpt lat="42.235315724058836" lon="13.772805684545423"><ele>840.0</ele><time>2026-05-02T09:57:51.998Z</time></trkpt><trkpt lat="42.235234149412655" lon="13.772893699091423"><ele>840.0</ele><time>2026-05-02T09:57:52.998Z</time></trkpt><trkpt lat="42.23517060786527" lon="13.772966257322551"><ele>840.0</ele><time>2026-05-02T09:57:53.998Z</time></trkpt><trkpt lat="42.235131175773894" lon="13.773038142501685"><ele>840.0</ele><time>2026-05-02T09:57:54.998Z</time></trkpt><trkpt lat="42.23510404478963" lon="13.773129128447302"><ele>840.0</ele><time>2026-05-02T09:57:55.998Z</time></trkpt><trkpt lat="42.23507491140612" lon="13.773221907086615"><ele>840.0</ele><time>2026-05-02T09:57:56.998Z</time></trkpt><trkpt lat="42.235054920467725" lon="13.773315706279947"><ele>840.0</ele><time>2026-05-02T09:57:57.998Z</time></trkpt><trkpt lat="42.23505324674187" lon="13.773493628188776"><ele>840.8</ele><time>2026-05-02T09:57:59.998Z</time></trkpt><trkpt lat="42.235064269809854" lon="13.773611053353877"><ele>841.6</ele><time>2026-05-02T09:58:00.998Z</time></trkpt><trkpt lat="42.23509284797797" lon="13.773763478520118"><ele>842.4000000000001</ele><time>2026-05-02T09:58:01.998Z</time></trkpt><trkpt lat="42.23511781799025" lon="13.773883512576077"><ele>843.2</ele><time>2026-05-02T09:58:02.998Z</time></trkpt><trkpt lat="42.235158783458175" lon="13.773998757801003"><ele>844.0</ele><time>2026-05-02T09:58:03.998Z</time></trkpt><trkpt lat="42.235195511665424" lon="13.774099517632134"><ele>844.0</ele><time>2026-05-02T09:58:04.998Z</time></trkpt><trkpt lat="42.23530812839061" lon="13.774187068379213"><ele>844.0</ele><time>2026-05-02T09:58:06.998Z</time></trkpt><trkpt lat="42.235350283750634" lon="13.77426360250269"><ele>844.0</ele><time>2026-05-02T09:58:07.998Z</time></trkpt><trkpt lat="42.235397966423136" lon="13.774410378450149"><ele>844.0</ele><time>2026-05-02T09:58:09.998Z</time></trkpt><trkpt lat="42.235426964568994" lon="13.774586572097434"><ele>843.6</ele><time>2026-05-02T09:58:11.998Z</time></trkpt><trkpt lat="42.235431050844944" lon="13.774698481226231"><ele>843.2</ele><time>2026-05-02T09:58:12.998Z</time></trkpt><trkpt lat="42.235447385297284" lon="13.774847300203515"><ele>842.8000000000001</ele><time>2026-05-02T09:58:13.998Z</time></trkpt><trkpt lat="42.23547278255725" lon="13.774961804340089"><ele>842.4000000000001</ele><time>2026-05-02T09:58:14.998Z</time></trkpt><trkpt lat="42.235488275174205" lon="13.775122795978316"><ele>842.0</ele><time>2026-05-02T09:58:15.998Z</time></trkpt><trkpt lat="42.23548168508988" lon="13.775285075726975"><ele>842.0</ele><time>2026-05-02T09:58:16.998Z</time></trkpt><trkpt lat="42.23546709126055" lon="13.775443420346404"><ele>842.0</ele><time>2026-05-02T09:58:17.998Z</time></trkpt><trkpt lat="42.235443390678" lon="13.775583266098824"><ele>842.0</ele><time>2026-05-02T09:58:18.998Z</time></trkpt><trkpt lat="42.23541010969412" lon="13.77570676120879"><ele>842.0</ele><time>2026-05-02T09:58:19.998Z</time></trkpt><trkpt lat="42.23536408577733" lon="13.775815216286079"><ele>842.0</ele><time>2026-05-02T09:58:20.998Z</time></trkpt><trkpt lat="42.235287567237144" lon="13.775922829864111"><ele>842.0</ele><time>2026-05-02T09:58:21.998Z</time></trkpt><trkpt lat="42.235216227930735" lon="13.776000565047884"><ele>842.0</ele><time>2026-05-02T09:58:22.998Z</time></trkpt><trkpt lat="42.23513424303346" lon="13.776071480246465"><ele>842.0</ele><time>2026-05-02T09:58:23.998Z</time></trkpt><trkpt lat="42.23503695883497" lon="13.776108752628154"><ele>842.0</ele><time>2026-05-02T09:58:24.998Z</time></trkpt><trkpt lat="42.234929774107606" lon="13.77613996493157"><ele>842.0</ele><time>2026-05-02T09:58:25.998Z</time></trkpt><trkpt lat="42.23482069820938" lon="13.776169014538105"><ele>844.0</ele><time>2026-05-02T09:58:26.998Z</time></trkpt><trkpt lat="42.23471741387702" lon="13.776194756104033"><ele>846.0</ele><time>2026-05-02T09:58:27.998Z</time></trkpt><trkpt lat="42.23461924476843" lon="13.776214471007616"><ele>848.0</ele><time>2026-05-02T09:58:28.998Z</time></trkpt><trkpt lat="42.23454238811783" lon="13.77623305731626"><ele>850.0</ele><time>2026-05-02T09:58:29.998Z</time></trkpt><trkpt lat="42.23445068008267" lon="13.776273750506423"><ele>852.0</ele><time>2026-05-02T09:58:31.998Z</time></trkpt><trkpt lat="42.234416004003904" lon="13.776357498992972"><ele>852.0</ele><time>2026-05-02T09:58:33.998Z</time></trkpt><trkpt lat="42.23443068474155" lon="13.776495638967116"><ele>852.0</ele><time>2026-05-02T09:58:35.998Z</time></trkpt><trkpt lat="42.23446122976836" lon="13.776587783878108"><ele>852.0</ele><time>2026-05-02T09:58:36.998Z</time></trkpt><trkpt lat="42.23451647142317" lon="13.776690004215224"><ele>852.0</ele><time>2026-05-02T09:58:37.998Z</time></trkpt><trkpt lat="42.23456623845589" lon="13.776817140991826"><ele>852.0</ele><time>2026-05-02T09:58:38.998Z</time></trkpt><trkpt lat="42.23461652735797" lon="13.7769531795168"><ele>853.2</ele><time>2026-05-02T09:58:39.998Z</time></trkpt><trkpt lat="42.23466362957669" lon="13.777070244712478"><ele>854.4000000000001</ele><time>2026-05-02T09:58:40.998Z</time></trkpt><trkpt lat="42.234721926036606" lon="13.777151798008873"><ele>855.5999999999999</ele><time>2026-05-02T09:58:41.998Z</time></trkpt><trkpt lat="42.23478402736205" lon="13.777240320316707"><ele>856.8</ele><time>2026-05-02T09:58:42.998Z</time></trkpt><trkpt lat="42.23485208056074" lon="13.777330355844057"><ele>858.0</ele><time>2026-05-02T09:58:43.998Z</time></trkpt><trkpt lat="42.23491652144589" lon="13.777440028566149"><ele>856.4</ele><time>2026-05-02T09:58:44.998Z</time></trkpt><trkpt lat="42.23499009967199" lon="13.77753812811984"><ele>854.8</ele><time>2026-05-02T09:58:45.998Z</time></trkpt><trkpt lat="42.235060067849965" lon="13.777630622949186"><ele>853.2</ele><time>2026-05-02T09:58:46.998Z</time></trkpt><trkpt lat="42.23512219742381" lon="13.777723569924742"><ele>851.6</ele><time>2026-05-02T09:58:47.998Z</time></trkpt><trkpt lat="42.23518204040977" lon="13.777815445914944"><ele>850.0</ele><time>2026-05-02T09:58:48.998Z</time></trkpt><trkpt lat="42.235231215705795" lon="13.777905141189397"><ele>849.9999999999999</ele><time>2026-05-02T09:58:49.998Z</time></trkpt><trkpt lat="42.235258507371995" lon="13.778003262795501"><ele>850.0</ele><time>2026-05-02T09:58:50.998Z</time></trkpt><trkpt lat="42.235286895190114" lon="13.778118507905846"><ele>850.0</ele><time>2026-05-02T09:58:51.998Z</time></trkpt><trkpt lat="42.23529437783277" lon="13.778242239315263"><ele>850.0</ele><time>2026-05-02T09:58:52.998Z</time></trkpt><trkpt lat="42.23529952714778" lon="13.778367538148023"><ele>849.9999999999999</ele><time>2026-05-02T09:58:53.998Z</time></trkpt><trkpt lat="42.235291750041" lon="13.778487352696672"><ele>850.0</ele><time>2026-05-02T09:58:54.998Z</time></trkpt><trkpt lat="42.23527960218753" lon="13.778600686226937"><ele>849.8333333333333</ele><time>2026-05-02T09:58:55.998Z</time></trkpt><trkpt lat="42.23525870968598" lon="13.778712919716773"><ele>849.6666666666666</ele><time>2026-05-02T09:58:56.998Z</time></trkpt><trkpt lat="42.23521863486854" lon="13.778814477840998"><ele>849.5</ele><time>2026-05-02T09:58:57.998Z</time></trkpt><trkpt lat="42.23516550310069" lon="13.77890651049873"><ele>849.3333333333333</ele><time>2026-05-02T09:58:58.998Z</time></trkpt><trkpt lat="42.235104281899964" lon="13.778999114981815"><ele>849.1666666666666</ele><time>2026-05-02T09:58:59.998Z</time></trkpt><trkpt lat="42.23503183876412" lon="13.779091837449522"><ele>849.0</ele><time>2026-05-02T09:59:00.998Z</time></trkpt><trkpt lat="42.234955315579406" lon="13.77917953741429"><ele>849.0</ele><time>2026-05-02T09:59:01.998Z</time></trkpt><trkpt lat="42.23487528346274" lon="13.779264735512552"><ele>849.0</ele><time>2026-05-02T09:59:02.998Z</time></trkpt><trkpt lat="42.2347860003267" lon="13.779347473476626"><ele>849.0</ele><time>2026-05-02T09:59:03.998Z</time></trkpt><trkpt lat="42.23469218044606" lon="13.779433810526543"><ele>849.0</ele><time>2026-05-02T09:59:04.998Z</time></trkpt><trkpt lat="42.23459653499633" lon="13.77951806297304"><ele>849.0</ele><time>2026-05-02T09:59:05.998Z</time></trkpt><trkpt lat="42.23449803260031" lon="13.779600695615573"><ele>848.8000000000001</ele><time>2026-05-02T09:59:06.998Z</time></trkpt><trkpt lat="42.23439936060935" lon="13.779687779486174"><ele>848.6</ele><time>2026-05-02T09:59:07.998Z</time></trkpt><trkpt lat="42.234313519042736" lon="13.779764926521397"><ele>848.4</ele><time>2026-05-02T09:59:08.998Z</time></trkpt><trkpt lat="42.234234015516115" lon="13.77981945534453"><ele>848.2</ele><time>2026-05-02T09:59:09.998Z</time></trkpt><trkpt lat="42.23414846028994" lon="13.779864913819026"><ele>848.0</ele><time>2026-05-02T09:59:10.998Z</time></trkpt><trkpt lat="42.2340683680606" lon="13.779904069936249"><ele>848.0000000000001</ele><time>2026-05-02T09:59:11.998Z</time></trkpt><trkpt lat="42.23400140695977" lon="13.779924101273961"><ele>848.0</ele><time>2026-05-02T09:59:12.998Z</time></trkpt><trkpt lat="42.2339191981272" lon="13.779988910621526"><ele>848.0</ele><time>2026-05-02T09:59:14.998Z</time></trkpt><trkpt lat="42.233903773266796" lon="13.780102375971355"><ele>848.0</ele><time>2026-05-02T09:59:16.998Z</time></trkpt><trkpt lat="42.233924928092925" lon="13.780234699115512"><ele>848.0000000000001</ele><time>2026-05-02T09:59:18.998Z</time></trkpt><trkpt lat="42.23395746168604" lon="13.780313976362464"><ele>848.0</ele><time>2026-05-02T09:59:19.998Z</time></trkpt><trkpt lat="42.23399130859967" lon="13.780396184145333"><ele>847.1666666666667</ele><time>2026-05-02T09:59:20.998Z</time></trkpt><trkpt lat="42.23401964836164" lon="13.780484005469212"><ele>846.3333333333334</ele><time>2026-05-02T09:59:21.998Z</time></trkpt><trkpt lat="42.23403800611491" lon="13.780588454933245"><ele>845.5</ele><time>2026-05-02T09:59:22.998Z</time></trkpt><trkpt lat="42.23404447968543" lon="13.780703578829378"><ele>844.6666666666667</ele><time>2026-05-02T09:59:23.998Z</time></trkpt><trkpt lat="42.23403015511841" lon="13.780822711392366"><ele>843.8333333333334</ele><time>2026-05-02T09:59:24.998Z</time></trkpt><trkpt lat="42.23402994499016" lon="13.780948191922192"><ele>843.0</ele><time>2026-05-02T09:59:25.998Z</time></trkpt><trkpt lat="42.23402099916178" lon="13.78107532303522"><ele>842.6666666666666</ele><time>2026-05-02T09:59:26.998Z</time></trkpt><trkpt lat="42.23402478460875" lon="13.781204985297466"><ele>842.3333333333333</ele><time>2026-05-02T09:59:27.998Z</time></trkpt><trkpt lat="42.234039987990506" lon="13.781327584925187"><ele>842.0</ele><time>2026-05-02T09:59:28.998Z</time></trkpt><trkpt lat="42.23405629277263" lon="13.781442505718234"><ele>841.6666666666666</ele><time>2026-05-02T09:59:29.998Z</time></trkpt><trkpt lat="42.234073217413794" lon="13.781538814146101"><ele>841.3333333333333</ele><time>2026-05-02T09:59:30.998Z</time></trkpt><trkpt lat="42.234091423023926" lon="13.781658932451647"><ele>841.0</ele><time>2026-05-02T09:59:32.998Z</time></trkpt><trkpt lat="42.23414492443199" lon="13.781755518307824"><ele>840.9999999999999</ele><time>2026-05-02T09:59:39.997Z</time></trkpt><trkpt lat="42.23410499494428" lon="13.781821571860084"><ele>841.0</ele><time>2026-05-02T09:59:45.997Z</time></trkpt><trkpt lat="42.234038882621576" lon="13.781715811969326"><ele>841.0</ele><time>2026-05-02T09:59:57.997Z</time></trkpt><trkpt lat="42.233976802250424" lon="13.781579354799804"><ele>841.0</ele><time>2026-05-02T09:59:59.997Z</time></trkpt><trkpt lat="42.233940730369476" lon="13.781504269254944"><ele>840.9999999999999</ele><time>2026-05-02T10:00:00.997Z</time></trkpt><trkpt lat="42.233908800415755" lon="13.781426541179048"><ele>841.0</ele><time>2026-05-02T10:00:01.997Z</time></trkpt><trkpt lat="42.23387649890271" lon="13.78135167564336"><ele>841.4285714285714</ele><time>2026-05-02T10:00:02.997Z</time></trkpt><trkpt lat="42.23381980111285" lon="13.781293119761523"><ele>841.8571428571428</ele><time>2026-05-02T10:00:03.997Z</time></trkpt><trkpt lat="42.23377825921607" lon="13.781216431032163"><ele>842.2857142857142</ele><time>2026-05-02T10:00:04.997Z</time></trkpt><trkpt lat="42.23372791573118" lon="13.78114535333122"><ele>842.7142857142858</ele><time>2026-05-02T10:00:05.997Z</time></trkpt><trkpt lat="42.233679828395765" lon="13.781071103994488"><ele>843.1428571428571</ele><time>2026-05-02T10:00:06.997Z</time></trkpt><trkpt lat="42.23363661590239" lon="13.780984836085075"><ele>843.5714285714286</ele><time>2026-05-02T10:00:07.997Z</time></trkpt><trkpt lat="42.233590655503676" lon="13.780904126335626"><ele>844.0</ele><time>2026-05-02T10:00:08.997Z</time></trkpt><trkpt lat="42.23354273092129" lon="13.78082341284795"><ele>845.8333333333333</ele><time>2026-05-02T10:00:09.997Z</time></trkpt><trkpt lat="42.23348981046259" lon="13.780737498233197"><ele>847.6666666666666</ele><time>2026-05-02T10:00:10.997Z</time></trkpt><trkpt lat="42.23342763482392" lon="13.780648817131759"><ele>849.5</ele><time>2026-05-02T10:00:11.997Z</time></trkpt><trkpt lat="42.23335236895206" lon="13.780579392233788"><ele>851.3333333333333</ele><time>2026-05-02T10:00:12.997Z</time></trkpt><trkpt lat="42.23328570006444" lon="13.78050916085696"><ele>853.1666666666666</ele><time>2026-05-02T10:00:13.997Z</time></trkpt><trkpt lat="42.23321562623195" lon="13.780446881742982"><ele>855.0</ele><time>2026-05-02T10:00:14.997Z</time></trkpt><trkpt lat="42.2331593468495" lon="13.780368029740469"><ele>856.5</ele><time>2026-05-02T10:00:15.997Z</time></trkpt><trkpt lat="42.23310558157748" lon="13.780289797794456"><ele>858.0</ele><time>2026-05-02T10:00:16.997Z</time></trkpt><trkpt lat="42.23305444358513" lon="13.78020615123575"><ele>859.5</ele><time>2026-05-02T10:00:17.997Z</time></trkpt><trkpt lat="42.23300782735698" lon="13.780119524871546"><ele>861.0</ele><time>2026-05-02T10:00:18.997Z</time></trkpt><trkpt lat="42.23295624691016" lon="13.780040307483358"><ele>862.5</ele><time>2026-05-02T10:00:19.997Z</time></trkpt><trkpt lat="42.232914197386805" lon="13.779957136474367"><ele>864.0</ele><time>2026-05-02T10:00:20.997Z</time></trkpt><trkpt lat="42.232855212620926" lon="13.779894589423444"><ele>865.3333333333334</ele><time>2026-05-02T10:00:21.997Z</time></trkpt><trkpt lat="42.23279250748959" lon="13.779833545943553"><ele>866.6666666666667</ele><time>2026-05-02T10:00:22.997Z</time></trkpt><trkpt lat="42.232729446477606" lon="13.779771277210372"><ele>868.0</ele><time>2026-05-02T10:00:23.997Z</time></trkpt><trkpt lat="42.23266003909618" lon="13.779726322373111"><ele>869.3333333333334</ele><time>2026-05-02T10:00:24.997Z</time></trkpt><trkpt lat="42.23259120931514" lon="13.779677187450744"><ele>870.6666666666667</ele><time>2026-05-02T10:00:25.997Z</time></trkpt><trkpt lat="42.232524017600575" lon="13.779638812774822"><ele>872.0</ele><time>2026-05-02T10:00:26.997Z</time></trkpt><trkpt lat="42.232456702945406" lon="13.77960301886044"><ele>872.0000000000001</ele><time>2026-05-02T10:00:27.997Z</time></trkpt><trkpt lat="42.23238310052616" lon="13.779577565105242"><ele>872.0</ele><time>2026-05-02T10:00:28.997Z</time></trkpt><trkpt lat="42.23230367206248" lon="13.77954793297542"><ele>872.0</ele><time>2026-05-02T10:00:29.997Z</time></trkpt><trkpt lat="42.232220058692995" lon="13.779518227020274"><ele>872.0</ele><time>2026-05-02T10:00:30.997Z</time></trkpt><trkpt lat="42.2321381604819" lon="13.779478150707467"><ele>872.0000000000001</ele><time>2026-05-02T10:00:31.997Z</time></trkpt><trkpt lat="42.232053466984894" lon="13.779447710765622"><ele>872.0</ele><time>2026-05-02T10:00:32.997Z</time></trkpt><trkpt lat="42.23196529862581" lon="13.779410949869908"><ele>873.8</ele><time>2026-05-02T10:00:33.997Z</time></trkpt><trkpt lat="42.231877283638255" lon="13.77938204682718"><ele>875.6</ele><time>2026-05-02T10:00:34.997Z</time></trkpt><trkpt lat="42.23179215709068" lon="13.779341528420446"><ele>877.3999999999999</ele><time>2026-05-02T10:00:35.997Z</time></trkpt><trkpt lat="42.231705743532004" lon="13.779290836561874"><ele>879.1999999999999</ele><time>2026-05-02T10:00:36.997Z</time></trkpt><trkpt lat="42.231618381587424" lon="13.779220890187695"><ele>881.0</ele><time>2026-05-02T10:00:37.997Z</time></trkpt><trkpt lat="42.231529348182896" lon="13.779134182944782"><ele>883.1666666666667</ele><time>2026-05-02T10:00:38.997Z</time></trkpt><trkpt lat="42.23145036019324" lon="13.779067733743517"><ele>885.3333333333334</ele><time>2026-05-02T10:00:39.997Z</time></trkpt><trkpt lat="42.23138403114313" lon="13.779013015434934"><ele>887.5</ele><time>2026-05-02T10:00:40.997Z</time></trkpt><trkpt lat="42.23132709771081" lon="13.778952791254834"><ele>889.6666666666667</ele><time>2026-05-02T10:00:41.997Z</time></trkpt><trkpt lat="42.23127074814534" lon="13.778877206460752"><ele>891.8333333333334</ele><time>2026-05-02T10:00:42.997Z</time></trkpt><trkpt lat="42.23123087738449" lon="13.778784623933467"><ele>894.0</ele><time>2026-05-02T10:00:43.997Z</time></trkpt><trkpt lat="42.231189826411814" lon="13.778699691112912"><ele>894.0</ele><time>2026-05-02T10:00:44.997Z</time></trkpt><trkpt lat="42.231132185641364" lon="13.778630847888934"><ele>894.0</ele><time>2026-05-02T10:00:45.997Z</time></trkpt><trkpt lat="42.23107482285477" lon="13.778586156620907"><ele>894.0</ele><time>2026-05-02T10:00:46.997Z</time></trkpt><trkpt lat="42.23094947478112" lon="13.778576933600828"><ele>894.0</ele><time>2026-05-02T10:00:48.997Z</time></trkpt><trkpt lat="42.23087975419228" lon="13.778609559026512"><ele>894.0</ele><time>2026-05-02T10:00:49.997Z</time></trkpt><trkpt lat="42.23080705903201" lon="13.778625712624185"><ele>894.0</ele><time>2026-05-02T10:00:50.997Z</time></trkpt><trkpt lat="42.23068480398349" lon="13.778586339722994"><ele>895.1666666666666</ele><time>2026-05-02T10:00:52.997Z</time></trkpt><trkpt lat="42.23062235565852" lon="13.778547235468933"><ele>896.3333333333333</ele><time>2026-05-02T10:00:53.997Z</time></trkpt><trkpt lat="42.230505632426656" lon="13.778468380149361"><ele>897.5</ele><time>2026-05-02T10:00:55.997Z</time></trkpt><trkpt lat="42.230428888215044" lon="13.778435870412356"><ele>898.6666666666666</ele><time>2026-05-02T10:00:56.997Z</time></trkpt><trkpt lat="42.23034702401485" lon="13.778388646366112"><ele>899.8333333333333</ele><time>2026-05-02T10:00:57.997Z</time></trkpt><trkpt lat="42.23027605246758" lon="13.778353292445773"><ele>901.0</ele><time>2026-05-02T10:00:58.997Z</time></trkpt><trkpt lat="42.23021077229698" lon="13.778337672387885"><ele>903.1666666666666</ele><time>2026-05-02T10:00:59.997Z</time></trkpt><trkpt lat="42.2301460905639" lon="13.778352808811393"><ele>905.3333333333333</ele><time>2026-05-02T10:01:00.997Z</time></trkpt><trkpt lat="42.2300581016281" lon="13.778356972150716"><ele>907.5</ele><time>2026-05-02T10:01:01.997Z</time></trkpt><trkpt lat="42.22997793400947" lon="13.778344319450593"><ele>909.6666666666667</ele><time>2026-05-02T10:01:02.997Z</time></trkpt><trkpt lat="42.22985588957387" lon="13.778283593752919"><ele>911.8333333333334</ele><time>2026-05-02T10:01:04.997Z</time></trkpt><trkpt lat="42.2297936924356" lon="13.778227468365072"><ele>914.0</ele><time>2026-05-02T10:01:05.997Z</time></trkpt><trkpt lat="42.229723777999425" lon="13.778164925272552"><ele>914.6</ele><time>2026-05-02T10:01:06.997Z</time></trkpt><trkpt lat="42.229643254906556" lon="13.778100490241544"><ele>915.2</ele><time>2026-05-02T10:01:07.997Z</time></trkpt><trkpt lat="42.22956003059229" lon="13.778038764756628"><ele>915.8000000000001</ele><time>2026-05-02T10:01:08.997Z</time></trkpt><trkpt lat="42.2294859670142" lon="13.777990762178364"><ele>916.4000000000001</ele><time>2026-05-02T10:01:09.997Z</time></trkpt><trkpt lat="42.22942565847733" lon="13.777949799023531"><ele>917.0</ele><time>2026-05-02T10:01:10.997Z</time></trkpt><trkpt lat="42.229311553654306" lon="13.77790776403666"><ele>917.0000000000001</ele><time>2026-05-02T10:01:12.997Z</time></trkpt><trkpt lat="42.22923731167087" lon="13.77792322679912"><ele>917.0</ele><time>2026-05-02T10:01:14.997Z</time></trkpt><trkpt lat="42.22914013136623" lon="13.777990730965026"><ele>917.0</ele><time>2026-05-02T10:01:16.997Z</time></trkpt><trkpt lat="42.22905836867364" lon="13.778002626434052"><ele>917.0</ele><time>2026-05-02T10:01:17.997Z</time></trkpt><trkpt lat="42.22898487275483" lon="13.777992420742287"><ele>917.0000000000001</ele><time>2026-05-02T10:01:18.997Z</time></trkpt><trkpt lat="42.2289082011572" lon="13.777970197501064"><ele>917.0</ele><time>2026-05-02T10:01:19.997Z</time></trkpt><trkpt lat="42.22884424140558" lon="13.777935387046801"><ele>917.2</ele><time>2026-05-02T10:01:20.997Z</time></trkpt><trkpt lat="42.22874230632052" lon="13.77779600507649"><ele>917.4000000000001</ele><time>2026-05-02T10:01:22.997Z</time></trkpt><trkpt lat="42.22869224587093" lon="13.777701423564746"><ele>917.5999999999999</ele><time>2026-05-02T10:01:23.997Z</time></trkpt><trkpt lat="42.22865001630004" lon="13.77762245731761"><ele>917.8</ele><time>2026-05-02T10:01:24.997Z</time></trkpt><trkpt lat="42.2286082310418" lon="13.777557769396388"><ele>918.0</ele><time>2026-05-02T10:01:25.997Z</time></trkpt><trkpt lat="42.228507210536385" lon="13.77749718221066"><ele>918.0</ele><time>2026-05-02T10:01:27.997Z</time></trkpt><trkpt lat="42.22839586189638" lon="13.777475913386764"><ele>918.0</ele><time>2026-05-02T10:01:29.997Z</time></trkpt><trkpt lat="42.228331954939414" lon="13.77748013027337"><ele>918.0</ele><time>2026-05-02T10:01:30.997Z</time></trkpt><trkpt lat="42.22826666298841" lon="13.777483741637838"><ele>918.0</ele><time>2026-05-02T10:01:31.997Z</time></trkpt><trkpt lat="42.228194884048904" lon="13.777482162334627"><ele>918.0</ele><time>2026-05-02T10:01:32.997Z</time></trkpt><trkpt lat="42.22812112677713" lon="13.777478335942705"><ele>918.0</ele><time>2026-05-02T10:01:33.997Z</time></trkpt><trkpt lat="42.228052760345065" lon="13.77748602253811"><ele>918.0</ele><time>2026-05-02T10:01:34.997Z</time></trkpt><trkpt lat="42.2279809062414" lon="13.7775015163419"><ele>918.0</ele><time>2026-05-02T10:01:35.997Z</time></trkpt><trkpt lat="42.227913361334856" lon="13.777546515843865"><ele>918.0</ele><time>2026-05-02T10:01:36.997Z</time></trkpt><trkpt lat="42.2278417263975" lon="13.777594376716307"><ele>918.0</ele><time>2026-05-02T10:01:37.997Z</time></trkpt><trkpt lat="42.22777052039928" lon="13.777654875414786"><ele>918.0</ele><time>2026-05-02T10:01:38.996Z</time></trkpt><trkpt lat="42.22768813175617" lon="13.777721349793815"><ele>918.0</ele><time>2026-05-02T10:01:39.996Z</time></trkpt><trkpt lat="42.227605954823886" lon="13.777792946931703"><ele>918.2</ele><time>2026-05-02T10:01:40.996Z</time></trkpt><trkpt lat="42.22752898873158" lon="13.77786442244095"><ele>918.4</ele><time>2026-05-02T10:01:41.996Z</time></trkpt><trkpt lat="42.22744653399334" lon="13.777941563901562"><ele>918.6000000000001</ele><time>2026-05-02T10:01:42.996Z</time></trkpt><trkpt lat="42.22736706566072" lon="13.778010323539803"><ele>918.8000000000001</ele><time>2026-05-02T10:01:43.996Z</time></trkpt><trkpt lat="42.227280279084724" lon="13.778102532397313"><ele>919.0</ele><time>2026-05-02T10:01:44.996Z</time></trkpt><trkpt lat="42.22719282408686" lon="13.778191649691793"><ele>919.0</ele><time>2026-05-02T10:01:45.996Z</time></trkpt><trkpt lat="42.22710206583768" lon="13.778282305187213"><ele>919.0</ele><time>2026-05-02T10:01:46.996Z</time></trkpt><trkpt lat="42.227000704193294" lon="13.778348824722626"><ele>919.0</ele><time>2026-05-02T10:01:47.996Z</time></trkpt><trkpt lat="42.226904577297866" lon="13.778428972478036"><ele>919.0</ele><time>2026-05-02T10:01:48.996Z</time></trkpt><trkpt lat="42.22680342952953" lon="13.778511931395899"><ele>919.4000000000001</ele><time>2026-05-02T10:01:49.996Z</time></trkpt><trkpt lat="42.22670759808216" lon="13.7785930957376"><ele>919.8000000000001</ele><time>2026-05-02T10:01:50.996Z</time></trkpt><trkpt lat="42.22661940594449" lon="13.778669587557435"><ele>920.1999999999999</ele><time>2026-05-02T10:01:51.996Z</time></trkpt><trkpt lat="42.22653936745427" lon="13.778741145351747"><ele>920.5999999999999</ele><time>2026-05-02T10:01:52.996Z</time></trkpt><trkpt lat="42.22647659579706" lon="13.77879866299464"><ele>921.0</ele><time>2026-05-02T10:01:53.996Z</time></trkpt><trkpt lat="42.226387326153386" lon="13.778883448354703"><ele>919.0</ele><time>2026-05-02T10:01:55.996Z</time></trkpt><trkpt lat="42.22633200071153" lon="13.778940325748215"><ele>916.9999999999999</ele><time>2026-05-02T10:01:58.996Z</time></trkpt><trkpt lat="42.22623922931647" lon="13.779047112290362"><ele>914.9999999999999</ele><time>2026-05-02T10:02:07.999Z</time></trkpt><trkpt lat="42.22617064118391" lon="13.77914376404628"><ele>913.0</ele><time>2026-05-02T10:02:08.999Z</time></trkpt><trkpt lat="42.22609779835256" lon="13.779239241746517"><ele>911.0</ele><time>2026-05-02T10:02:09.999Z</time></trkpt><trkpt lat="42.226026490537336" lon="13.77934864099039"><ele>912.1999999999999</ele><time>2026-05-02T10:02:10.999Z</time></trkpt><trkpt lat="42.225941272352955" lon="13.779448800869492"><ele>913.3999999999999</ele><time>2026-05-02T10:02:11.999Z</time></trkpt><trkpt lat="42.22587196319769" lon="13.779562745779485"><ele>914.6</ele><time>2026-05-02T10:02:12.999Z</time></trkpt><trkpt lat="42.22580136758297" lon="13.779673213367495"><ele>915.8</ele><time>2026-05-02T10:02:13.999Z</time></trkpt><trkpt lat="42.22573146235648" lon="13.779777798436792"><ele>917.0</ele><time>2026-05-02T10:02:14.999Z</time></trkpt><trkpt lat="42.22566081567652" lon="13.779881043667336"><ele>915.0</ele><time>2026-05-02T10:02:15.999Z</time></trkpt><trkpt lat="42.22559103688683" lon="13.779981676994106"><ele>913.0</ele><time>2026-05-02T10:02:16.999Z</time></trkpt><trkpt lat="42.22552170255951" lon="13.7800792756264"><ele>911.0</ele><time>2026-05-02T10:02:17.999Z</time></trkpt><trkpt lat="42.225454535208534" lon="13.780177806751382"><ele>909.0</ele><time>2026-05-02T10:02:18.999Z</time></trkpt><trkpt lat="42.22538927782383" lon="13.780282868535359"><ele>907.0</ele><time>2026-05-02T10:02:19.999Z</time></trkpt><trkpt lat="42.22532713013739" lon="13.780395995371938"><ele>907.0</ele><time>2026-05-02T10:02:20.999Z</time></trkpt><trkpt lat="42.22526804496744" lon="13.780509531649164"><ele>907.0</ele><time>2026-05-02T10:02:21.999Z</time></trkpt><trkpt lat="42.22521207486076" lon="13.780623065478105"><ele>907.0</ele><time>2026-05-02T10:02:22.999Z</time></trkpt><trkpt lat="42.225161596245016" lon="13.780727505582679"><ele>907.0</ele><time>2026-05-02T10:02:24Z</time></trkpt><trkpt lat="42.22511088002753" lon="13.780820240159793"><ele>907.0</ele><time>2026-05-02T10:02:25Z</time></trkpt><trkpt lat="42.225054430591605" lon="13.780897114878064"><ele>906.9999999999999</ele><time>2026-05-02T10:02:26Z</time></trkpt><trkpt lat="42.22499566930629" lon="13.780971558811846"><ele>907.0</ele><time>2026-05-02T10:02:27Z</time></trkpt><trkpt lat="42.2249407321555" lon="13.781040542806814"><ele>907.0</ele><time>2026-05-02T10:02:28Z</time></trkpt><trkpt lat="42.22488665768896" lon="13.781107881333423"><ele>907.0</ele><time>2026-05-02T10:02:29Z</time></trkpt><trkpt lat="42.22483328234389" lon="13.781174349315409"><ele>906.9999999999999</ele><time>2026-05-02T10:02:30Z</time></trkpt><trkpt lat="42.22477908922248" lon="13.781244365204882"><ele>907.0</ele><time>2026-05-02T10:02:31Z</time></trkpt><trkpt lat="42.224723951635525" lon="13.781322089827784"><ele>903.8333333333333</ele><time>2026-05-02T10:02:32Z</time></trkpt><trkpt lat="42.224679074650275" lon="13.781418857231323"><ele>900.6666666666666</ele><time>2026-05-02T10:02:33Z</time></trkpt><trkpt lat="42.22464545627614" lon="13.781529926886677"><ele>897.5</ele><time>2026-05-02T10:02:34Z</time></trkpt><trkpt lat="42.22461900377197" lon="13.781653260698759"><ele>894.3333333333333</ele><time>2026-05-02T10:02:35Z</time></trkpt><trkpt lat="42.22459870547178" lon="13.781777171860641"><ele>891.1666666666666</ele><time>2026-05-02T10:02:36Z</time></trkpt><trkpt lat="42.22457023188677" lon="13.781884242801432"><ele>888.0</ele><time>2026-05-02T10:02:37Z</time></trkpt><trkpt lat="42.224519766446825" lon="13.78198919679316"><ele>887.5999999999999</ele><time>2026-05-02T10:02:38Z</time></trkpt><trkpt lat="42.22446269710152" lon="13.78208680138127"><ele>887.1999999999999</ele><time>2026-05-02T10:02:39Z</time></trkpt><trkpt lat="42.22441353266994" lon="13.782195967151383"><ele>886.8</ele><time>2026-05-02T10:02:40Z</time></trkpt><trkpt lat="42.22436954691398" lon="13.78230600617736"><ele>886.4</ele><time>2026-05-02T10:02:41Z</time></trkpt><trkpt lat="42.224332427540524" lon="13.78241591675345"><ele>886.0</ele><time>2026-05-02T10:02:42Z</time></trkpt><trkpt lat="42.22430244261308" lon="13.78252349992892"><ele>885.9999999999999</ele><time>2026-05-02T10:02:43Z</time></trkpt><trkpt lat="42.22428277408111" lon="13.78262507364409"><ele>886.0</ele><time>2026-05-02T10:02:44Z</time></trkpt><trkpt lat="42.2242724600055" lon="13.782710869577716"><ele>886.0</ele><time>2026-05-02T10:02:45Z</time></trkpt><trkpt lat="42.22427226003877" lon="13.782840869061424"><ele>886.0</ele><time>2026-05-02T10:02:47Z</time></trkpt><trkpt lat="42.22430242965838" lon="13.782929770236086"><ele>885.9999999999999</ele><time>2026-05-02T10:02:49Z</time></trkpt><trkpt lat="42.22422722005808" lon="13.78292478817971"><ele>886.0</ele><time>2026-05-02T10:02:51Z</time></trkpt><trkpt lat="42.22410874169115" lon="13.782722875752722"><ele>886.0</ele><time>2026-05-02T10:03:54.999Z</time></trkpt><trkpt lat="42.22405958783151" lon="13.782622333741473"><ele>886.0</ele><time>2026-05-02T10:03:55.999Z</time></trkpt><trkpt lat="42.22401553777538" lon="13.782529695275478"><ele>886.0</ele><time>2026-05-02T10:03:56.999Z</time></trkpt><trkpt lat="42.22396534068824" lon="13.78241428492488"><ele>886.0</ele><time>2026-05-02T10:03:58.999Z</time></trkpt><trkpt lat="42.22354491944965" lon="13.782525350193373"><ele>879.0</ele><time>2026-05-02T10:04:04.999Z</time></trkpt><trkpt lat="42.22355183056218" lon="13.782708566970873"><ele>872.0</ele><time>2026-05-02T10:04:05.999Z</time></trkpt><trkpt lat="42.223507183632925" lon="13.782816046058606"><ele>865.0</ele><time>2026-05-02T10:04:07.999Z</time></trkpt><trkpt lat="42.223511806020824" lon="13.782667815507756"><ele>858.0</ele><time>2026-05-02T10:04:08.999Z</time></trkpt><trkpt lat="42.22361201345546" lon="13.782554278427636"><ele>857.0</ele><time>2026-05-02T10:04:09.999Z</time></trkpt><trkpt lat="42.22380019205623" lon="13.782869443610009"><ele>856.0</ele><time>2026-05-02T10:04:12.999Z</time></trkpt><trkpt lat="42.22371074802587" lon="13.782896434463991"><ele>855.0</ele><time>2026-05-02T10:04:13.999Z</time></trkpt><trkpt lat="42.2236659783029" lon="13.782823886264499"><ele>855.0</ele><time>2026-05-02T10:04:14.999Z</time></trkpt><trkpt lat="42.22359229816462" lon="13.782763487038187"><ele>855.0</ele><time>2026-05-02T10:04:15.999Z</time></trkpt><trkpt lat="42.223554145344515" lon="13.782642663750533"><ele>855.0</ele><time>2026-05-02T10:04:17.999Z</time></trkpt><trkpt lat="42.223594322715535" lon="13.782576668482175"><ele>855.0</ele><time>2026-05-02T10:04:19.999Z</time></trkpt><trkpt lat="42.22350868594024" lon="13.782587180359766"><ele>855.0</ele><time>2026-05-02T10:04:21.999Z</time></trkpt><trkpt lat="42.223437362929204" lon="13.782764437533592"><ele>855.0</ele><time>2026-05-02T10:04:23.999Z</time></trkpt><trkpt lat="42.223332044202714" lon="13.782802898940746"><ele>855.0</ele><time>2026-05-02T10:04:24.999Z</time></trkpt><trkpt lat="42.2232699424798" lon="13.782867829880198"><ele>855.0</ele><time>2026-05-02T10:04:25.999Z</time></trkpt><trkpt lat="42.223209230213556" lon="13.782902921624597"><ele>855.0</ele><time>2026-05-02T10:04:26.999Z</time></trkpt><trkpt lat="42.22309008055454" lon="13.782877076841357"><ele>855.0</ele><time>2026-05-02T10:04:28.999Z</time></trkpt><trkpt lat="42.223025301735156" lon="13.782827495987814"><ele>855.0</ele><time>2026-05-02T10:04:29.999Z</time></trkpt><trkpt lat="42.222954743729346" lon="13.782761525756177"><ele>854.4</ele><time>2026-05-02T10:04:30.999Z</time></trkpt><trkpt lat="42.222875238382514" lon="13.782695791458675"><ele>853.8</ele><time>2026-05-02T10:04:31.999Z</time></trkpt><trkpt lat="42.22279159023386" lon="13.78262790377132"><ele>853.2</ele><time>2026-05-02T10:04:32.999Z</time></trkpt><trkpt lat="42.22269766951154" lon="13.782543950730732"><ele>852.6</ele><time>2026-05-02T10:04:33.999Z</time></trkpt><trkpt lat="42.2225978329883" lon="13.782436324128536"><ele>852.0</ele><time>2026-05-02T10:04:34.999Z</time></trkpt><trkpt lat="42.22248591282818" lon="13.782327130567056"><ele>852.0</ele><time>2026-05-02T10:04:35.999Z</time></trkpt><trkpt lat="42.222378197793574" lon="13.782230372250785"><ele>852.0</ele><time>2026-05-02T10:04:36.999Z</time></trkpt><trkpt lat="42.22230237335327" lon="13.782169956942788"><ele>852.0</ele><time>2026-05-02T10:04:37.999Z</time></trkpt><trkpt lat="42.22223216822685" lon="13.782078317425302"><ele>852.0</ele><time>2026-05-02T10:04:38.999Z</time></trkpt><trkpt lat="42.22217194406556" lon="13.781988677126964"><ele>852.0</ele><time>2026-05-02T10:04:39.999Z</time></trkpt><trkpt lat="42.222124012753035" lon="13.781900803158353"><ele>852.8333333333334</ele><time>2026-05-02T10:04:40.999Z</time></trkpt><trkpt lat="42.22208724879619" lon="13.781809569374586"><ele>853.6666666666667</ele><time>2026-05-02T10:04:41.999Z</time></trkpt><trkpt lat="42.22204473948652" lon="13.781719019751234"><ele>854.5</ele><time>2026-05-02T10:04:42.999Z</time></trkpt><trkpt lat="42.22200600697644" lon="13.781635521753719"><ele>855.3333333333334</ele><time>2026-05-02T10:04:43.999Z</time></trkpt><trkpt lat="42.221968157856054" lon="13.781547120552576"><ele>856.1666666666667</ele><time>2026-05-02T10:04:44.999Z</time></trkpt><trkpt lat="42.22192064130004" lon="13.781433397899686"><ele>857.0</ele><time>2026-05-02T10:04:45.999Z</time></trkpt><trkpt lat="42.221884421635906" lon="13.781302636157509"><ele>857.0000000000001</ele><time>2026-05-02T10:04:46.999Z</time></trkpt><trkpt lat="42.22184843799453" lon="13.781196185723754"><ele>857.0</ele><time>2026-05-02T10:04:47.999Z</time></trkpt><trkpt lat="42.22181844282299" lon="13.781095806001618"><ele>857.0</ele><time>2026-05-02T10:04:48.999Z</time></trkpt><trkpt lat="42.22179158567134" lon="13.781003773643445"><ele>857.0</ele><time>2026-05-02T10:04:49.999Z</time></trkpt><trkpt lat="42.22177132324847" lon="13.780914746248083"><ele>857.0000000000001</ele><time>2026-05-02T10:04:50.999Z</time></trkpt><trkpt lat="42.22172551677183" lon="13.780749231390146"><ele>857.0</ele><time>2026-05-02T10:04:52.999Z</time></trkpt><trkpt lat="42.22171928604735" lon="13.780657198148177"><ele>856.4285714285714</ele><time>2026-05-02T10:04:53.999Z</time></trkpt><trkpt lat="42.22169409390887" lon="13.780579157229623"><ele>855.8571428571429</ele><time>2026-05-02T10:04:54.999Z</time></trkpt><trkpt lat="42.22166288517711" lon="13.78048848930774"><ele>855.2857142857142</ele><time>2026-05-02T10:04:55.999Z</time></trkpt><trkpt lat="42.22163005046679" lon="13.780395225750341"><ele>854.7142857142858</ele><time>2026-05-02T10:04:56.999Z</time></trkpt><trkpt lat="42.221598196375425" lon="13.780311007225077"><ele>854.1428571428572</ele><time>2026-05-02T10:04:57.999Z</time></trkpt><trkpt lat="42.22156881521624" lon="13.780235379732693"><ele>853.5714285714286</ele><time>2026-05-02T10:04:58.999Z</time></trkpt><trkpt lat="42.221538025613775" lon="13.780157024046643"><ele>853.0</ele><time>2026-05-02T10:04:59.999Z</time></trkpt><trkpt lat="42.22150845609502" lon="13.780071543552067"><ele>850.4999999999999</ele><time>2026-05-02T10:05:00.999Z</time></trkpt><trkpt lat="42.22147740181377" lon="13.779979412292212"><ele>848.0</ele><time>2026-05-02T10:05:01.999Z</time></trkpt><trkpt lat="42.2214490278554" lon="13.77989563531422"><ele>845.5</ele><time>2026-05-02T10:05:02.999Z</time></trkpt><trkpt lat="42.221411384128196" lon="13.779784488120917"><ele>843.0</ele><time>2026-05-02T10:05:04.999Z</time></trkpt><trkpt lat="42.22129399653114" lon="13.779729386851258"><ele>840.4999999999999</ele><time>2026-05-02T10:05:06.999Z</time></trkpt><trkpt lat="42.22121753327982" lon="13.7797737750618"><ele>838.0</ele><time>2026-05-02T10:05:09.999Z</time></trkpt><trkpt lat="42.221160193623746" lon="13.779819103198264"><ele>837.9999999999999</ele><time>2026-05-02T10:05:11.999Z</time></trkpt><trkpt lat="42.221101230311824" lon="13.77986513996715"><ele>838.0</ele><time>2026-05-02T10:05:13.999Z</time></trkpt><trkpt lat="42.221016843573885" lon="13.779933097150405"><ele>838.0</ele><time>2026-05-02T10:05:15.999Z</time></trkpt><trkpt lat="42.22091613354041" lon="13.780032372229913"><ele>838.0</ele><time>2026-05-02T10:05:17.999Z</time></trkpt><trkpt lat="42.22085898227422" lon="13.780079310699149"><ele>837.9999999999999</ele><time>2026-05-02T10:05:18.999Z</time></trkpt><trkpt lat="42.220791601756034" lon="13.78011647813744"><ele>838.0</ele><time>2026-05-02T10:05:19.999Z</time></trkpt><trkpt lat="42.220736366561425" lon="13.780179996958902"><ele>837.8571428571428</ele><time>2026-05-02T10:05:20.999Z</time></trkpt><trkpt lat="42.22067162176552" lon="13.780219722448567"><ele>837.7142857142857</ele><time>2026-05-02T10:05:21.999Z</time></trkpt><trkpt lat="42.2206036203734" lon="13.780262142027384"><ele>837.5714285714286</ele><time>2026-05-02T10:05:22.999Z</time></trkpt><trkpt lat="42.220531909974014" lon="13.78030209124172"><ele>837.4285714285713</ele><time>2026-05-02T10:05:23.999Z</time></trkpt><trkpt lat="42.220463100814044" lon="13.780348343549688"><ele>837.2857142857143</ele><time>2026-05-02T10:05:24.999Z</time></trkpt><trkpt lat="42.220390110734684" lon="13.78036664476505"><ele>837.1428571428571</ele><time>2026-05-02T10:05:25.999Z</time></trkpt><trkpt lat="42.220323263348675" lon="13.780404759240584"><ele>837.0</ele><time>2026-05-02T10:05:26.999Z</time></trkpt><trkpt lat="42.22025601712767" lon="13.78042759961752"><ele>837.0</ele><time>2026-05-02T10:05:27.999Z</time></trkpt><trkpt lat="42.220192307405945" lon="13.780444276922584"><ele>837.0</ele><time>2026-05-02T10:05:28.999Z</time></trkpt><trkpt lat="42.22012825767549" lon="13.780459825149459"><ele>837.0</ele><time>2026-05-02T10:05:29.999Z</time></trkpt><trkpt lat="42.22003080333353" lon="13.780428413635878"><ele>837.0</ele><time>2026-05-02T10:05:30.999Z</time></trkpt><trkpt lat="42.219951320446384" lon="13.780409059412598"><ele>837.0</ele><time>2026-05-02T10:05:31.999Z</time></trkpt><trkpt lat="42.2198665119414" lon="13.780388408627648"><ele>837.0</ele><time>2026-05-02T10:05:32.999Z</time></trkpt><trkpt lat="42.219779299534245" lon="13.780344332314112"><ele>835.2</ele><time>2026-05-02T10:05:33.999Z</time></trkpt><trkpt lat="42.21968613725418" lon="13.780322808575631"><ele>833.4000000000001</ele><time>2026-05-02T10:05:34.999Z</time></trkpt><trkpt lat="42.21959886546277" lon="13.780277782114306"><ele>831.5999999999999</ele><time>2026-05-02T10:05:35.999Z</time></trkpt><trkpt lat="42.21951860971262" lon="13.780211570703344"><ele>829.8</ele><time>2026-05-02T10:05:36.999Z</time></trkpt><trkpt lat="42.219453287277446" lon="13.780126096743945"><ele>828.0</ele><time>2026-05-02T10:05:37.999Z</time></trkpt><trkpt lat="42.21938591324717" lon="13.780045722668792"><ele>824.3333333333334</ele><time>2026-05-02T10:05:38.999Z</time></trkpt><trkpt lat="42.219320416178455" lon="13.779970954155322"><ele>820.6666666666667</ele><time>2026-05-02T10:05:39.999Z</time></trkpt><trkpt lat="42.219255717507664" lon="13.779890764259646"><ele>817.0</ele><time>2026-05-02T10:05:40.999Z</time></trkpt><trkpt lat="42.2192024135361" lon="13.779808908249164"><ele>813.3333333333334</ele><time>2026-05-02T10:05:41.999Z</time></trkpt><trkpt lat="42.219147561257344" lon="13.779735156269972"><ele>809.6666666666667</ele><time>2026-05-02T10:05:42.999Z</time></trkpt><trkpt lat="42.2190801573544" lon="13.779681675691663"><ele>806.0</ele><time>2026-05-02T10:05:43.999Z</time></trkpt><trkpt lat="42.21900439512387" lon="13.779633231872042"><ele>803.1999999999999</ele><time>2026-05-02T10:05:44.999Z</time></trkpt><trkpt lat="42.218915470332576" lon="13.779603473546077"><ele>800.4</ele><time>2026-05-02T10:05:45.999Z</time></trkpt><trkpt lat="42.21882375256987" lon="13.779597394542705"><ele>797.6</ele><time>2026-05-02T10:05:46.999Z</time></trkpt><trkpt lat="42.21873118772594" lon="13.779578201965288"><ele>794.8</ele><time>2026-05-02T10:05:47.999Z</time></trkpt><trkpt lat="42.21864384227848" lon="13.779586216137531"><ele>792.0</ele><time>2026-05-02T10:05:48.999Z</time></trkpt><trkpt lat="42.2185495660026" lon="13.779605620799055"><ele>792.0</ele><time>2026-05-02T10:05:49.999Z</time></trkpt><trkpt lat="42.21845390783704" lon="13.779649522565986"><ele>792.0</ele><time>2026-05-02T10:05:50.999Z</time></trkpt><trkpt lat="42.21835753181858" lon="13.77971285727847"><ele>792.0</ele><time>2026-05-02T10:05:51.999Z</time></trkpt><trkpt lat="42.21825143186181" lon="13.779749555415927"><ele>792.0</ele><time>2026-05-02T10:05:52.999Z</time></trkpt><trkpt lat="42.21814671121142" lon="13.779801319895"><ele>792.0</ele><time>2026-05-02T10:05:53.999Z</time></trkpt><trkpt lat="42.21804808403787" lon="13.779833313540305"><ele>791.0</ele><time>2026-05-02T10:05:54.999Z</time></trkpt><trkpt lat="42.217961723891584" lon="13.779872243840634"><ele>790.0</ele><time>2026-05-02T10:05:55.999Z</time></trkpt><trkpt lat="42.21788598906322" lon="13.779893934112016"><ele>789.0</ele><time>2026-05-02T10:05:56.999Z</time></trkpt><trkpt lat="42.21781368978769" lon="13.779880925163768"><ele>788.0</ele><time>2026-05-02T10:05:57.999Z</time></trkpt><trkpt lat="42.2177203753244" lon="13.77987725281946"><ele>787.0</ele><time>2026-05-02T10:05:58.999Z</time></trkpt><trkpt lat="42.21764747242903" lon="13.779816333521637"><ele>786.0</ele><time>2026-05-02T10:05:59.999Z</time></trkpt><trkpt lat="42.21757152593597" lon="13.779722365947764"><ele>786.0</ele><time>2026-05-02T10:06:00.999Z</time></trkpt><trkpt lat="42.217528671238306" lon="13.779584945049308"><ele>786.0</ele><time>2026-05-02T10:06:01.999Z</time></trkpt><trkpt lat="42.21750654996668" lon="13.779457363682683"><ele>786.0</ele><time>2026-05-02T10:06:02.999Z</time></trkpt><trkpt lat="42.217472238427526" lon="13.779300734021891"><ele>786.0</ele><time>2026-05-02T10:06:03.999Z</time></trkpt><trkpt lat="42.21742853000582" lon="13.779153452290798"><ele>786.0</ele><time>2026-05-02T10:06:04.999Z</time></trkpt><trkpt lat="42.21740594745411" lon="13.77899617119431"><ele>783.0</ele><time>2026-05-02T10:06:05.999Z</time></trkpt><trkpt lat="42.21738942673449" lon="13.778840936412386"><ele>780.0</ele><time>2026-05-02T10:06:06.998Z</time></trkpt><trkpt lat="42.21735136080455" lon="13.778701402813113"><ele>777.0</ele><time>2026-05-02T10:06:07.998Z</time></trkpt><trkpt lat="42.217310622805016" lon="13.778560453018134"><ele>774.0</ele><time>2026-05-02T10:06:08.998Z</time></trkpt><trkpt lat="42.21725272302192" lon="13.778421788713993"><ele>769.5</ele><time>2026-05-02T10:06:09.998Z</time></trkpt><trkpt lat="42.21718751259314" lon="13.778279523655184"><ele>765.0</ele><time>2026-05-02T10:06:10.998Z</time></trkpt><trkpt lat="42.21712643281133" lon="13.77814125771355"><ele>760.5</ele><time>2026-05-02T10:06:11.998Z</time></trkpt><trkpt lat="42.217070777247116" lon="13.778010086329793"><ele>756.0</ele><time>2026-05-02T10:06:12.998Z</time></trkpt><trkpt lat="42.21701946095274" lon="13.777887988263435"><ele>756.0</ele><time>2026-05-02T10:06:13.998Z</time></trkpt><trkpt lat="42.2169743882202" lon="13.777770327026829"><ele>756.0</ele><time>2026-05-02T10:06:14.998Z</time></trkpt><trkpt lat="42.21690788692009" lon="13.777690880091242"><ele>756.0</ele><time>2026-05-02T10:06:15.998Z</time></trkpt><trkpt lat="42.21684044774238" lon="13.777610922061307"><ele>756.0</ele><time>2026-05-02T10:06:16.998Z</time></trkpt><trkpt lat="42.216758282283244" lon="13.777537782025911"><ele>756.0</ele><time>2026-05-02T10:06:17.998Z</time></trkpt><trkpt lat="42.21665541760488" lon="13.777457990395536"><ele>750.0</ele><time>2026-05-02T10:06:18.998Z</time></trkpt><trkpt lat="42.21651614558068" lon="13.777390411025207"><ele>744.0</ele><time>2026-05-02T10:06:19.998Z</time></trkpt><trkpt lat="42.21636166951352" lon="13.7773325756972"><ele>738.0</ele><time>2026-05-02T10:06:20.998Z</time></trkpt><trkpt lat="42.21621246557606" lon="13.777237354272689"><ele>735.75</ele><time>2026-05-02T10:06:21.998Z</time></trkpt><trkpt lat="42.216086078018506" lon="13.777150695928487"><ele>733.5</ele><time>2026-05-02T10:06:22.998Z</time></trkpt><trkpt lat="42.21595669537093" lon="13.777060265317935"><ele>731.25</ele><time>2026-05-02T10:06:23.998Z</time></trkpt><trkpt lat="42.21582652196666" lon="13.776970130419556"><ele>729.0</ele><time>2026-05-02T10:06:24.998Z</time></trkpt><trkpt lat="42.21568830083831" lon="13.776881611118203"><ele>724.0</ele><time>2026-05-02T10:06:25.998Z</time></trkpt><trkpt lat="42.21555665853457" lon="13.77681726473027"><ele>719.0</ele><time>2026-05-02T10:06:26.998Z</time></trkpt><trkpt lat="42.21543769229717" lon="13.776759122292049"><ele>714.0</ele><time>2026-05-02T10:06:27.998Z</time></trkpt><trkpt lat="42.21533519280094" lon="13.776712518425533"><ele>709.0</ele><time>2026-05-02T10:06:28.998Z</time></trkpt><trkpt lat="42.2152305256413" lon="13.776678782768332"><ele>709.0</ele><time>2026-05-02T10:06:29.998Z</time></trkpt><trkpt lat="42.21515157471161" lon="13.776658743343706"><ele>709.0</ele><time>2026-05-02T10:06:30.998Z</time></trkpt><trkpt lat="42.215082356134516" lon="13.77664226942033"><ele>709.0</ele><time>2026-05-02T10:06:31.998Z</time></trkpt><trkpt lat="42.214963472046314" lon="13.776709801270627"><ele>709.0</ele><time>2026-05-02T10:06:33.998Z</time></trkpt><trkpt lat="42.21491388172866" lon="13.776798762767465"><ele>709.0</ele><time>2026-05-02T10:06:34.998Z</time></trkpt><trkpt lat="42.21487170162336" lon="13.776895625420778"><ele>709.0</ele><time>2026-05-02T10:06:35.998Z</time></trkpt><trkpt lat="42.21482939861376" lon="13.776992811002408"><ele>709.0</ele><time>2026-05-02T10:06:36.998Z</time></trkpt><trkpt lat="42.21480566235018" lon="13.777072261370785"><ele>709.0</ele><time>2026-05-02T10:06:38.998Z</time></trkpt><trkpt lat="42.214805642532355" lon="13.776919766344873"><ele>709.0</ele><time>2026-05-02T10:06:42.998Z</time></trkpt><trkpt lat="42.21485560775029" lon="13.776769427171155"><ele>709.0</ele><time>2026-05-02T10:06:43.998Z</time></trkpt><trkpt lat="42.21489929874033" lon="13.776629586675467"><ele>709.0</ele><time>2026-05-02T10:06:44.998Z</time></trkpt><trkpt lat="42.21492405870553" lon="13.776522345302569"><ele>709.0</ele><time>2026-05-02T10:06:45.998Z</time></trkpt><trkpt lat="42.214928054021115" lon="13.776385213672857"><ele>709.0</ele><time>2026-05-02T10:06:47.998Z</time></trkpt><trkpt lat="42.21481725994072" lon="13.77631885825013"><ele>709.0</ele><time>2026-05-02T10:06:49.998Z</time></trkpt><trkpt lat="42.21474304020953" lon="13.776397964432736"><ele>709.0</ele><time>2026-05-02T10:06:50.997Z</time></trkpt><trkpt lat="42.21467094118746" lon="13.776540852094309"><ele>709.0</ele><time>2026-05-02T10:06:51.997Z</time></trkpt><trkpt lat="42.21460534127732" lon="13.776695695561292"><ele>707.0</ele><time>2026-05-02T10:06:52.997Z</time></trkpt><trkpt lat="42.214526687830876" lon="13.77688019061123"><ele>705.0</ele><time>2026-05-02T10:06:53.997Z</time></trkpt><trkpt lat="42.214455799509864" lon="13.777042285145589"><ele>703.0</ele><time>2026-05-02T10:06:54.997Z</time></trkpt><trkpt lat="42.21438481322613" lon="13.777207356726104"><ele>701.0</ele><time>2026-05-02T10:06:55.997Z</time></trkpt><trkpt lat="42.21432663254723" lon="13.777344359169486"><ele>701.0</ele><time>2026-05-02T10:06:56.997Z</time></trkpt><trkpt lat="42.21427840635027" lon="13.777450669099771"><ele>701.0</ele><time>2026-05-02T10:06:57.997Z</time></trkpt><trkpt lat="42.21420408781391" lon="13.777521524254535"><ele>701.0</ele><time>2026-05-02T10:06:59.997Z</time></trkpt><trkpt lat="42.21413391239997" lon="13.777470520819342"><ele>701.0</ele><time>2026-05-02T10:07:01.997Z</time></trkpt><trkpt lat="42.214110671822006" lon="13.777377964131515"><ele>701.0</ele><time>2026-05-02T10:07:02.997Z</time></trkpt><trkpt lat="42.214179694453854" lon="13.777261316718395"><ele>701.0</ele><time>2026-05-02T10:07:03.997Z</time></trkpt><trkpt lat="42.21421391598883" lon="13.777095005208215"><ele>701.0</ele><time>2026-05-02T10:07:04.997Z</time></trkpt><trkpt lat="42.21425198236438" lon="13.776936510790902"><ele>701.0</ele><time>2026-05-02T10:07:05.997Z</time></trkpt><trkpt lat="42.21428295058814" lon="13.776794288730239"><ele>701.0</ele><time>2026-05-02T10:07:06.997Z</time></trkpt><trkpt lat="42.21431278005913" lon="13.776657728773335"><ele>701.0</ele><time>2026-05-02T10:07:07.997Z</time></trkpt><trkpt lat="42.21434270932934" lon="13.776564005039354"><ele>701.0</ele><time>2026-05-02T10:07:08.997Z</time></trkpt><trkpt lat="42.214357874690805" lon="13.776477339374557"><ele>700.0</ele><time>2026-05-02T10:07:09.997Z</time></trkpt><trkpt lat="42.21434321741845" lon="13.7765713712423"><ele>699.0</ele><time>2026-05-02T10:07:14.997Z</time></trkpt><trkpt lat="42.21418015508899" lon="13.77657223189082"><ele>698.0</ele><time>2026-05-02T10:07:16.997Z</time></trkpt><trkpt lat="42.21412585570972" lon="13.776643241047196"><ele>697.0</ele><time>2026-05-02T10:07:17.997Z</time></trkpt><trkpt lat="42.214046779852794" lon="13.77668362630817"><ele>696.0</ele><time>2026-05-02T10:07:18.997Z</time></trkpt><trkpt lat="42.21395076772108" lon="13.776728666481988"><ele>694.8</ele><time>2026-05-02T10:07:19.997Z</time></trkpt><trkpt lat="42.21382182425339" lon="13.776697169386834"><ele>693.5999999999999</ele><time>2026-05-02T10:07:20.997Z</time></trkpt><trkpt lat="42.21372108266642" lon="13.776692834395272"><ele>692.4</ele><time>2026-05-02T10:07:21.997Z</time></trkpt><trkpt lat="42.21363101572354" lon="13.776697849502627"><ele>691.2</ele><time>2026-05-02T10:07:22.997Z</time></trkpt><trkpt lat="42.21353654392197" lon="13.776676998479793"><ele>690.0</ele><time>2026-05-02T10:07:23.997Z</time></trkpt><trkpt lat="42.213469041061984" lon="13.776638645303153"><ele>690.0</ele><time>2026-05-02T10:07:24.997Z</time></trkpt><trkpt lat="42.213378265068236" lon="13.776580417697096"><ele>690.0</ele><time>2026-05-02T10:07:25.997Z</time></trkpt><trkpt lat="42.213289750844794" lon="13.776538711069286"><ele>690.0</ele><time>2026-05-02T10:07:26.997Z</time></trkpt><trkpt lat="42.213207488876584" lon="13.776468655433685"><ele>690.0</ele><time>2026-05-02T10:07:27.997Z</time></trkpt><trkpt lat="42.21311234025448" lon="13.776400790131365"><ele>690.0</ele><time>2026-05-02T10:07:28.997Z</time></trkpt><trkpt lat="42.213024358819524" lon="13.776337131051804"><ele>690.0</ele><time>2026-05-02T10:07:29.997Z</time></trkpt><trkpt lat="42.212962583725584" lon="13.776307315914492"><ele>690.0</ele><time>2026-05-02T10:07:30.997Z</time></trkpt><trkpt lat="42.212843823249855" lon="13.776359280212814"><ele>690.0</ele><time>2026-05-02T10:07:32.997Z</time></trkpt><trkpt lat="42.21275343377853" lon="13.776396039331855"><ele>690.0</ele><time>2026-05-02T10:07:33.997Z</time></trkpt><trkpt lat="42.21267088878672" lon="13.776494943064787"><ele>690.0</ele><time>2026-05-02T10:07:34.997Z</time></trkpt><trkpt lat="42.21259651759859" lon="13.776585202253857"><ele>690.0</ele><time>2026-05-02T10:07:35.997Z</time></trkpt><trkpt lat="42.21252796419583" lon="13.776666589904243"><ele>690.0</ele><time>2026-05-02T10:07:36.997Z</time></trkpt><trkpt lat="42.21243913755684" lon="13.776753035001718"><ele>690.0</ele><time>2026-05-02T10:07:37.997Z</time></trkpt><trkpt lat="42.21235733695957" lon="13.776856788824803"><ele>690.0</ele><time>2026-05-02T10:07:38.997Z</time></trkpt><trkpt lat="42.21228678056602" lon="13.776932514278508"><ele>690.0</ele><time>2026-05-02T10:07:39.997Z</time></trkpt><trkpt lat="42.21220187801148" lon="13.776997963429334"><ele>688.6666666666666</ele><time>2026-05-02T10:07:40.997Z</time></trkpt><trkpt lat="42.212126679306806" lon="13.777032142707059"><ele>687.3333333333334</ele><time>2026-05-02T10:07:41.997Z</time></trkpt><trkpt lat="42.21204637612228" lon="13.777093834977906"><ele>686.0</ele><time>2026-05-02T10:07:42.997Z</time></trkpt><trkpt lat="42.211978084244834" lon="13.777134405295104"><ele>684.6666666666667</ele><time>2026-05-02T10:07:43.997Z</time></trkpt><trkpt lat="42.21191181620773" lon="13.777168684725572"><ele>683.3333333333334</ele><time>2026-05-02T10:07:44.997Z</time></trkpt><trkpt lat="42.211843108224066" lon="13.777192071745814"><ele>682.0</ele><time>2026-05-02T10:07:45.997Z</time></trkpt><trkpt lat="42.21175992399316" lon="13.777179034847268"><ele>682.0</ele><time>2026-05-02T10:07:46.997Z</time></trkpt><trkpt lat="42.21165189927823" lon="13.777152239973315"><ele>682.0</ele><time>2026-05-02T10:07:47.997Z</time></trkpt><trkpt lat="42.211563278268045" lon="13.77713325479939"><ele>682.0</ele><time>2026-05-02T10:07:48.997Z</time></trkpt><trkpt lat="42.211492371411765" lon="13.777067089406447"><ele>682.0</ele><time>2026-05-02T10:07:49.997Z</time></trkpt><trkpt lat="42.21141050641814" lon="13.777009831935507"><ele>682.0</ele><time>2026-05-02T10:07:50.997Z</time></trkpt><trkpt lat="42.21132975633777" lon="13.776931121194336"><ele>681.8</ele><time>2026-05-02T10:07:51.997Z</time></trkpt><trkpt lat="42.21124704487859" lon="13.77684808976804"><ele>681.6</ele><time>2026-05-02T10:07:52.997Z</time></trkpt><trkpt lat="42.211166546022405" lon="13.776770469374053"><ele>681.4</ele><time>2026-05-02T10:07:53.997Z</time></trkpt><trkpt lat="42.21108112445099" lon="13.776681703362083"><ele>681.1999999999999</ele><time>2026-05-02T10:07:54.997Z</time></trkpt><trkpt lat="42.211018085195235" lon="13.776599783529992"><ele>681.0</ele><time>2026-05-02T10:07:55.997Z</time></trkpt><trkpt lat="42.210970926224604" lon="13.776505748722377"><ele>681.0</ele><time>2026-05-02T10:07:56.997Z</time></trkpt><trkpt lat="42.210895393069165" lon="13.776445033383153"><ele>681.0</ele><time>2026-05-02T10:07:57.997Z</time></trkpt><trkpt lat="42.21084175370832" lon="13.776373801164798"><ele>681.0</ele><time>2026-05-02T10:07:58.997Z</time></trkpt><trkpt lat="42.21080918790752" lon="13.776295709862913"><ele>681.0</ele><time>2026-05-02T10:07:59.997Z</time></trkpt><trkpt lat="42.21073180026726" lon="13.776285196050665"><ele>681.0</ele><time>2026-05-02T10:08:00.997Z</time></trkpt><trkpt lat="42.21065475459156" lon="13.776225755438105"><ele>681.0</ele><time>2026-05-02T10:08:01.997Z</time></trkpt><trkpt lat="42.21060360013577" lon="13.776122152694784"><ele>680.5999999999999</ele><time>2026-05-02T10:08:02.997Z</time></trkpt><trkpt lat="42.210490388012715" lon="13.776080135699045"><ele>680.2</ele><time>2026-05-02T10:08:03.997Z</time></trkpt><trkpt lat="42.21036741051847" lon="13.776034612109065"><ele>679.8</ele><time>2026-05-02T10:08:04.997Z</time></trkpt><trkpt lat="42.21025994265984" lon="13.775996269410745"><ele>679.4000000000001</ele><time>2026-05-02T10:08:05.997Z</time></trkpt><trkpt lat="42.210177020426116" lon="13.775959668920374"><ele>679.0</ele><time>2026-05-02T10:08:06.997Z</time></trkpt><trkpt lat="42.210095341198546" lon="13.775911728172845"><ele>679.0</ele><time>2026-05-02T10:08:07.997Z</time></trkpt><trkpt lat="42.21001720897239" lon="13.775848250958147"><ele>679.0</ele><time>2026-05-02T10:08:08.997Z</time></trkpt><trkpt lat="42.20993668996337" lon="13.775765338036875"><ele>679.0</ele><time>2026-05-02T10:08:09.997Z</time></trkpt><trkpt lat="42.20983849702203" lon="13.775702354441744"><ele>679.0</ele><time>2026-05-02T10:08:10.997Z</time></trkpt><trkpt lat="42.20973087754759" lon="13.775646367295595"><ele>679.0</ele><time>2026-05-02T10:08:11.997Z</time></trkpt><trkpt lat="42.209613324601186" lon="13.775597153552013"><ele>679.0</ele><time>2026-05-02T10:08:12.997Z</time></trkpt><trkpt lat="42.20950179846694" lon="13.77556086153827"><ele>679.0</ele><time>2026-05-02T10:08:13.997Z</time></trkpt><trkpt lat="42.20936690386683" lon="13.775525715835736"><ele>679.0</ele><time>2026-05-02T10:08:14.997Z</time></trkpt><trkpt lat="42.209235181170286" lon="13.775508707488225"><ele>679.0</ele><time>2026-05-02T10:08:15.997Z</time></trkpt><trkpt lat="42.20912755967594" lon="13.775452635996945"><ele>679.0</ele><time>2026-05-02T10:08:16.997Z</time></trkpt><trkpt lat="42.20902106970712" lon="13.775432581801448"><ele>679.0</ele><time>2026-05-02T10:08:17.997Z</time></trkpt><trkpt lat="42.20893943596692" lon="13.775387455664324"><ele>679.0</ele><time>2026-05-02T10:08:18.997Z</time></trkpt><trkpt lat="42.20883759179517" lon="13.775376134920464"><ele>679.0</ele><time>2026-05-02T10:08:19.997Z</time></trkpt><trkpt lat="42.208737883296905" lon="13.775391637356952"><ele>679.0</ele><time>2026-05-02T10:08:20.997Z</time></trkpt><trkpt lat="42.208650136227824" lon="13.775428199936682"><ele>678.8333333333334</ele><time>2026-05-02T10:08:21.997Z</time></trkpt><trkpt lat="42.208563692252014" lon="13.775500950310004"><ele>678.6666666666667</ele><time>2026-05-02T10:08:22.997Z</time></trkpt><trkpt lat="42.20848657124391" lon="13.77554035005121"><ele>678.5</ele><time>2026-05-02T10:08:23.997Z</time></trkpt><trkpt lat="42.20841881348308" lon="13.775553296697291"><ele>678.3333333333334</ele><time>2026-05-02T10:08:24.997Z</time></trkpt><trkpt lat="42.20835627135254" lon="13.775538610373443"><ele>678.1666666666666</ele><time>2026-05-02T10:08:25.997Z</time></trkpt><trkpt lat="42.20827098759172" lon="13.775492233076893"><ele>678.0</ele><time>2026-05-02T10:08:26.997Z</time></trkpt><trkpt lat="42.20817157451165" lon="13.775410416410725"><ele>678.0</ele><time>2026-05-02T10:08:27.997Z</time></trkpt><trkpt lat="42.208060340449634" lon="13.775316241506877"><ele>678.0</ele><time>2026-05-02T10:08:28.997Z</time></trkpt><trkpt lat="42.20794265724917" lon="13.775222117054952"><ele>678.0</ele><time>2026-05-02T10:08:29.997Z</time></trkpt><trkpt lat="42.20782242552461" lon="13.775114946611072"><ele>678.0</ele><time>2026-05-02T10:08:30.997Z</time></trkpt><trkpt lat="42.2077023701523" lon="13.775010335880056"><ele>678.0</ele><time>2026-05-02T10:08:31.997Z</time></trkpt><trkpt lat="42.207596067746636" lon="13.774913775138225"><ele>678.0</ele><time>2026-05-02T10:08:32.997Z</time></trkpt><trkpt lat="42.207498457834724" lon="13.77482399775001"><ele>678.0</ele><time>2026-05-02T10:08:33.997Z</time></trkpt><trkpt lat="42.20741547960387" lon="13.774729043544081"><ele>678.0</ele><time>2026-05-02T10:08:34.997Z</time></trkpt><trkpt lat="42.207342871668416" lon="13.774650146026776"><ele>678.0</ele><time>2026-05-02T10:08:35.997Z</time></trkpt><trkpt lat="42.20728413625928" lon="13.774591416288839"><ele>678.75</ele><time>2026-05-02T10:08:36.997Z</time></trkpt><trkpt lat="42.20722196764446" lon="13.774500887513538"><ele>679.5</ele><time>2026-05-02T10:08:38.997Z</time></trkpt><trkpt lat="42.20715862980572" lon="13.774410192917932"><ele>680.25</ele><time>2026-05-02T10:08:41.997Z</time></trkpt><trkpt lat="42.20698923211523" lon="13.774551311621305"><ele>681.0</ele><time>2026-05-02T10:08:42.997Z</time></trkpt><trkpt lat="42.206871250856544" lon="13.774634586487862"><ele>681.0</ele><time>2026-05-02T10:08:43.997Z</time></trkpt><trkpt lat="42.20669514891301" lon="13.774742081892322"><ele>681.0</ele><time>2026-05-02T10:08:44.997Z</time></trkpt><trkpt lat="42.20650931308664" lon="13.774849100820076"><ele>681.0</ele><time>2026-05-02T10:08:45.997Z</time></trkpt><trkpt lat="42.206338431796205" lon="13.774947770342877"><ele>681.0</ele><time>2026-05-02T10:08:46.997Z</time></trkpt><trkpt lat="42.20616397202187" lon="13.77504306657622"><ele>681.0</ele><time>2026-05-02T10:08:47.997Z</time></trkpt><trkpt lat="42.20600639742513" lon="13.775143740412403"><ele>681.0</ele><time>2026-05-02T10:08:48.997Z</time></trkpt><trkpt lat="42.20584412188794" lon="13.775230048737468"><ele>681.0</ele><time>2026-05-02T10:08:49.997Z</time></trkpt><trkpt lat="42.20568567628572" lon="13.775323927274535"><ele>681.0</ele><time>2026-05-02T10:08:50.997Z</time></trkpt><trkpt lat="42.20551811121973" lon="13.775416830999037"><ele>681.0</ele><time>2026-05-02T10:08:51.997Z</time></trkpt><trkpt lat="42.20532518695442" lon="13.77548578687983"><ele>682.0</ele><time>2026-05-02T10:08:52.997Z</time></trkpt><trkpt lat="42.20514668234995" lon="13.775571945455347"><ele>683.0</ele><time>2026-05-02T10:08:53.997Z</time></trkpt><trkpt lat="42.20498295357479" lon="13.775672106135925"><ele>684.0</ele><time>2026-05-02T10:08:54.997Z</time></trkpt><trkpt lat="42.204828526469235" lon="13.775775971563563"><ele>684.3333333333334</ele><time>2026-05-02T10:08:55.997Z</time></trkpt><trkpt lat="42.20466646035751" lon="13.77588908149359"><ele>684.6666666666667</ele><time>2026-05-02T10:08:56.997Z</time></trkpt><trkpt lat="42.204511277375445" lon="13.775995991092186"><ele>685.0</ele><time>2026-05-02T10:08:57.997Z</time></trkpt><trkpt lat="42.20434314815805" lon="13.776080031187188"><ele>685.0</ele><time>2026-05-02T10:08:58.997Z</time></trkpt><trkpt lat="42.20417343070346" lon="13.776154118592231"><ele>685.0</ele><time>2026-05-02T10:08:59.997Z</time></trkpt><trkpt lat="42.20402516031546" lon="13.776252110279911"><ele>685.0</ele><time>2026-05-02T10:09:00.997Z</time></trkpt><trkpt lat="42.203866738865464" lon="13.776333703104639"><ele>686.6666666666667</ele><time>2026-05-02T10:09:01.997Z</time></trkpt><trkpt lat="42.20371865911164" lon="13.776443190429992"><ele>688.3333333333334</ele><time>2026-05-02T10:09:02.997Z</time></trkpt><trkpt lat="42.203561596117275" lon="13.776516631025848"><ele>690.0</ele><time>2026-05-02T10:09:03.997Z</time></trkpt><trkpt lat="42.2034021238395" lon="13.776607688201915"><ele>690.0</ele><time>2026-05-02T10:09:04.997Z</time></trkpt><trkpt lat="42.20323575362228" lon="13.776702548623485"><ele>690.0</ele><time>2026-05-02T10:09:05.997Z</time></trkpt><trkpt lat="42.20307547145167" lon="13.776793809821024"><ele>690.0</ele><time>2026-05-02T10:09:06.997Z</time></trkpt><trkpt lat="42.202909603309294" lon="13.776889451307463"><ele>694.6666666666666</ele><time>2026-05-02T10:09:07.997Z</time></trkpt><trkpt lat="42.202764658242394" lon="13.776973205861902"><ele>699.3333333333333</ele><time>2026-05-02T10:09:08.997Z</time></trkpt><trkpt lat="42.20261378792584" lon="13.777071896143184"><ele>704.0</ele><time>2026-05-02T10:09:09.997Z</time></trkpt><trkpt lat="42.20247876521372" lon="13.777134225085069"><ele>704.0</ele><time>2026-05-02T10:09:10.997Z</time></trkpt><trkpt lat="42.2023827905448" lon="13.777224605590112"><ele>704.0</ele><time>2026-05-02T10:09:11.997Z</time></trkpt><trkpt lat="42.202280120363014" lon="13.777275854713228"><ele>704.0</ele><time>2026-05-02T10:09:12.997Z</time></trkpt><trkpt lat="42.20221955429774" lon="13.77736852582021"><ele>704.0</ele><time>2026-05-02T10:09:14Z</time></trkpt><trkpt lat="42.20219644608212" lon="13.777527149184948"><ele>704.0</ele><time>2026-05-02T10:09:15Z</time></trkpt><trkpt lat="42.202174438534456" lon="13.777741379648226"><ele>703.0</ele><time>2026-05-02T10:09:16Z</time></trkpt><trkpt lat="42.202161317160495" lon="13.777984385357762"><ele>702.0</ele><time>2026-05-02T10:09:17Z</time></trkpt><trkpt lat="42.20211368858615" lon="13.778231410670422"><ele>701.0</ele><time>2026-05-02T10:09:18Z</time></trkpt><trkpt lat="42.20205182019697" lon="13.77848007192245"><ele>703.0</ele><time>2026-05-02T10:09:19Z</time></trkpt><trkpt lat="42.20198293995244" lon="13.778741948680976"><ele>705.0</ele><time>2026-05-02T10:09:20Z</time></trkpt><trkpt lat="42.20192744565601" lon="13.77902043269878"><ele>707.0</ele><time>2026-05-02T10:09:21Z</time></trkpt><trkpt lat="42.2018864730709" lon="13.779288094413475"><ele>710.0</ele><time>2026-05-02T10:09:22Z</time></trkpt><trkpt lat="42.201825142723806" lon="13.779546617372056"><ele>713.0</ele><time>2026-05-02T10:09:23Z</time></trkpt><trkpt lat="42.201779294081256" lon="13.7797720816335"><ele>716.0</ele><time>2026-05-02T10:09:24Z</time></trkpt><trkpt lat="42.2017337528559" lon="13.780008212642892"><ele>718.0</ele><time>2026-05-02T10:09:25Z</time></trkpt><trkpt lat="42.20170130089542" lon="13.78026475872469"><ele>720.0</ele><time>2026-05-02T10:09:26Z</time></trkpt><trkpt lat="42.20167460193041" lon="13.780495690813234"><ele>722.0</ele><time>2026-05-02T10:09:27Z</time></trkpt><trkpt lat="42.20164667668855" lon="13.780737308703452"><ele>722.0</ele><time>2026-05-02T10:09:28Z</time></trkpt><trkpt lat="42.20164898464837" lon="13.780986868260513"><ele>722.0</ele><time>2026-05-02T10:09:29Z</time></trkpt><trkpt lat="42.201657922353974" lon="13.781264917205608"><ele>722.0</ele><time>2026-05-02T10:09:30Z</time></trkpt><trkpt lat="42.2016981506249" lon="13.781511995491222"><ele>723.0</ele><time>2026-05-02T10:09:31Z</time></trkpt><trkpt lat="42.20171565630993" lon="13.781725838109287"><ele>724.0</ele><time>2026-05-02T10:09:32Z</time></trkpt><trkpt lat="42.201712860037645" lon="13.781900284675318"><ele>725.0</ele><time>2026-05-02T10:09:33Z</time></trkpt><trkpt lat="42.201715794595124" lon="13.782079809310755"><ele>726.0</ele><time>2026-05-02T10:09:34Z</time></trkpt><trkpt lat="42.201661385818205" lon="13.78224464052391"><ele>728.0</ele><time>2026-05-02T10:09:35Z</time></trkpt><trkpt lat="42.201605762164846" lon="13.782411100289993"><ele>730.0</ele><time>2026-05-02T10:09:36Z</time></trkpt><trkpt lat="42.201543269332966" lon="13.782597928755871"><ele>732.0</ele><time>2026-05-02T10:09:37Z</time></trkpt><trkpt lat="42.201466980314656" lon="13.782818229188923"><ele>732.0</ele><time>2026-05-02T10:09:38Z</time></trkpt><trkpt lat="42.201375993899774" lon="13.783070400030462"><ele>732.0</ele><time>2026-05-02T10:09:39Z</time></trkpt><trkpt lat="42.20128683420868" lon="13.783303932532041"><ele>732.0</ele><time>2026-05-02T10:09:40Z</time></trkpt><trkpt lat="42.20119212200655" lon="13.783524584408461"><ele>737.0</ele><time>2026-05-02T10:09:41Z</time></trkpt><trkpt lat="42.201086492556826" lon="13.783748476409576"><ele>742.0</ele><time>2026-05-02T10:09:42Z</time></trkpt><trkpt lat="42.200981112387325" lon="13.78397005640852"><ele>747.0</ele><time>2026-05-02T10:09:43Z</time></trkpt><trkpt lat="42.20088564907294" lon="13.784172775655474"><ele>747.0</ele><time>2026-05-02T10:09:44Z</time></trkpt><trkpt lat="42.20080533400527" lon="13.784340925418524"><ele>747.0</ele><time>2026-05-02T10:09:45Z</time></trkpt><trkpt lat="42.20073034529421" lon="13.784492537959151"><ele>747.0</ele><time>2026-05-02T10:09:46Z</time></trkpt><trkpt lat="42.200659843100034" lon="13.784631636756254"><ele>747.0</ele><time>2026-05-02T10:09:47Z</time></trkpt><trkpt lat="42.200570339832865" lon="13.78476647668624"><ele>748.75</ele><time>2026-05-02T10:09:48Z</time></trkpt><trkpt lat="42.200488007434096" lon="13.784881396472018"><ele>750.5</ele><time>2026-05-02T10:09:49Z</time></trkpt><trkpt lat="42.20041131479354" lon="13.784994286535571"><ele>752.25</ele><time>2026-05-02T10:09:50Z</time></trkpt><trkpt lat="42.200327961167595" lon="13.785113636422214"><ele>754.0</ele><time>2026-05-02T10:09:51Z</time></trkpt><trkpt lat="42.20025274565069" lon="13.785221333500713"><ele>754.0</ele><time>2026-05-02T10:09:52Z</time></trkpt><trkpt lat="42.200198713022104" lon="13.785300108030116"><ele>754.0</ele><time>2026-05-02T10:09:53Z</time></trkpt><trkpt lat="42.200166381068016" lon="13.785144579740075"><ele>754.0</ele><time>2026-05-02T10:09:56Z</time></trkpt><trkpt lat="42.20016772654746" lon="13.78500903578122"><ele>754.0</ele><time>2026-05-02T10:09:57Z</time></trkpt><trkpt lat="42.20015868813118" lon="13.784857726918258"><ele>754.0</ele><time>2026-05-02T10:09:58Z</time></trkpt><trkpt lat="42.20013065404981" lon="13.784698912620387"><ele>754.3333333333334</ele><time>2026-05-02T10:09:59Z</time></trkpt><trkpt lat="42.20008052400847" lon="13.784514805585601"><ele>754.6666666666666</ele><time>2026-05-02T10:10:00Z</time></trkpt><trkpt lat="42.200018418009726" lon="13.784331364457138"><ele>755.0</ele><time>2026-05-02T10:10:01Z</time></trkpt><trkpt lat="42.199946869785336" lon="13.784136481001314"><ele>755.0</ele><time>2026-05-02T10:10:02Z</time></trkpt><trkpt lat="42.1998600687252" lon="13.783920257871577"><ele>755.0</ele><time>2026-05-02T10:10:03Z</time></trkpt><trkpt lat="42.19979866035204" lon="13.783714120919418"><ele>755.0</ele><time>2026-05-02T10:10:04Z</time></trkpt><trkpt lat="42.19979188372892" lon="13.783509190814963"><ele>757.6</ele><time>2026-05-02T10:10:05Z</time></trkpt><trkpt lat="42.19974784614878" lon="13.783352502354875"><ele>760.2</ele><time>2026-05-02T10:10:06Z</time></trkpt><trkpt lat="42.19972871786366" lon="13.783216707571594"><ele>762.8</ele><time>2026-05-02T10:10:07Z</time></trkpt><trkpt lat="42.19970275368717" lon="13.78312352964152"><ele>765.4</ele><time>2026-05-02T10:10:08Z</time></trkpt><trkpt lat="42.19963780615253" lon="13.783049139415805"><ele>768.0</ele><time>2026-05-02T10:10:09Z</time></trkpt><trkpt lat="42.19953283447723" lon="13.78298299779393"><ele>768.0</ele><time>2026-05-02T10:10:10Z</time></trkpt><trkpt lat="42.199400914291786" lon="13.782908304793676"><ele>768.0</ele><time>2026-05-02T10:10:11Z</time></trkpt><trkpt lat="42.19924839670695" lon="13.782882055802608"><ele>768.0</ele><time>2026-05-02T10:10:12Z</time></trkpt><trkpt lat="42.19910942165463" lon="13.78286182052752"><ele>768.0</ele><time>2026-05-02T10:10:13Z</time></trkpt><trkpt lat="42.19894364120962" lon="13.782861811178213"><ele>769.6666666666667</ele><time>2026-05-02T10:10:14Z</time></trkpt><trkpt lat="42.1987818945739" lon="13.782841319981465"><ele>771.3333333333334</ele><time>2026-05-02T10:10:15Z</time></trkpt><trkpt lat="42.19861995131017" lon="13.782782455530098"><ele>773.0</ele><time>2026-05-02T10:10:16Z</time></trkpt><trkpt lat="42.19845999083798" lon="13.782725029480126"><ele>773.0</ele><time>2026-05-02T10:10:17Z</time></trkpt><trkpt lat="42.19830259464624" lon="13.782687005413827"><ele>773.0</ele><time>2026-05-02T10:10:18Z</time></trkpt><trkpt lat="42.198144697516966" lon="13.782673215704058"><ele>773.0</ele><time>2026-05-02T10:10:19Z</time></trkpt><trkpt lat="42.197969757441335" lon="13.782669702169557"><ele>774.3333333333334</ele><time>2026-05-02T10:10:20Z</time></trkpt><trkpt lat="42.197792583175456" lon="13.782696663949649"><ele>775.6666666666667</ele><time>2026-05-02T10:10:21Z</time></trkpt><trkpt lat="42.19761904369655" lon="13.782741679805964"><ele>777.0</ele><time>2026-05-02T10:10:22Z</time></trkpt><trkpt lat="42.197475477273834" lon="13.782748570159667"><ele>776.25</ele><time>2026-05-02T10:10:23Z</time></trkpt><trkpt lat="42.197334293496304" lon="13.782730889856806"><ele>775.5</ele><time>2026-05-02T10:10:24Z</time></trkpt><trkpt lat="42.19719177683875" lon="13.782679963216623"><ele>774.75</ele><time>2026-05-02T10:10:25Z</time></trkpt><trkpt lat="42.197077769690104" lon="13.782613427917315"><ele>774.0</ele><time>2026-05-02T10:10:26Z</time></trkpt><trkpt lat="42.19700366715943" lon="13.782499685437447"><ele>774.0</ele><time>2026-05-02T10:10:27Z</time></trkpt><trkpt lat="42.196900098921276" lon="13.782350076621126"><ele>774.0</ele><time>2026-05-02T10:10:28Z</time></trkpt><trkpt lat="42.196813219454356" lon="13.782222959105974"><ele>774.0</ele><time>2026-05-02T10:10:29Z</time></trkpt><trkpt lat="42.19672337270078" lon="13.782112383514628"><ele>774.0</ele><time>2026-05-02T10:10:30Z</time></trkpt><trkpt lat="42.19664044139142" lon="13.782030028168831"><ele>778.0</ele><time>2026-05-02T10:10:31Z</time></trkpt><trkpt lat="42.19649617511315" lon="13.781976849959985"><ele>782.0</ele><time>2026-05-02T10:10:32Z</time></trkpt><trkpt lat="42.19634140058233" lon="13.781950454054273"><ele>786.0</ele><time>2026-05-02T10:10:33Z</time></trkpt><trkpt lat="42.196143889598524" lon="13.781906617114023"><ele>786.0</ele><time>2026-05-02T10:10:34Z</time></trkpt><trkpt lat="42.19594229191153" lon="13.78186371203778"><ele>786.0</ele><time>2026-05-02T10:10:35Z</time></trkpt><trkpt lat="42.195742411169476" lon="13.781821807250132"><ele>786.0</ele><time>2026-05-02T10:10:36Z</time></trkpt><trkpt lat="42.19554549529007" lon="13.781780524029898"><ele>784.3333333333333</ele><time>2026-05-02T10:10:37Z</time></trkpt><trkpt lat="42.195353468409536" lon="13.781739881906578"><ele>782.6666666666666</ele><time>2026-05-02T10:10:37.999Z</time></trkpt><trkpt lat="42.19518495338318" lon="13.781714693102698"><ele>781.0</ele><time>2026-05-02T10:10:38.999Z</time></trkpt><trkpt lat="42.19500242195577" lon="13.781681847352031"><ele>781.0</ele><time>2026-05-02T10:10:39.999Z</time></trkpt><trkpt lat="42.19484771168203" lon="13.781699474631735"><ele>781.0</ele><time>2026-05-02T10:10:40.999Z</time></trkpt><trkpt lat="42.19468330687546" lon="13.781711549641749"><ele>781.0</ele><time>2026-05-02T10:10:41.999Z</time></trkpt><trkpt lat="42.194537151347355" lon="13.781747065653407"><ele>782.5</ele><time>2026-05-02T10:10:42.999Z</time></trkpt><trkpt lat="42.19440626243704" lon="13.781706803812298"><ele>784.0</ele><time>2026-05-02T10:10:43.999Z</time></trkpt><trkpt lat="42.194287699847145" lon="13.781664763665725"><ele>785.5</ele><time>2026-05-02T10:10:44.999Z</time></trkpt><trkpt lat="42.19417775154096" lon="13.781589211539037"><ele>787.0</ele><time>2026-05-02T10:10:45.999Z</time></trkpt><trkpt lat="42.194103496281144" lon="13.781496690474423"><ele>787.0</ele><time>2026-05-02T10:10:46.999Z</time></trkpt><trkpt lat="42.19405646626703" lon="13.781402889765676"><ele>787.0</ele><time>2026-05-02T10:10:47.999Z</time></trkpt><trkpt lat="42.1940149381545" lon="13.781253127713587"><ele>787.0</ele><time>2026-05-02T10:10:48.999Z</time></trkpt><trkpt lat="42.1939820334721" lon="13.781054175546148"><ele>787.0</ele><time>2026-05-02T10:10:49.999Z</time></trkpt><trkpt lat="42.193965777771346" lon="13.780853795812954"><ele>793.0</ele><time>2026-05-02T10:10:50.999Z</time></trkpt><trkpt lat="42.19396271825731" lon="13.78063933083737"><ele>799.0</ele><time>2026-05-02T10:10:51.999Z</time></trkpt><trkpt lat="42.19397365103279" lon="13.780424162543358"><ele>805.0</ele><time>2026-05-02T10:10:52.999Z</time></trkpt><trkpt lat="42.19400121915327" lon="13.780199969945752"><ele>800.3333333333333</ele><time>2026-05-02T10:10:53.999Z</time></trkpt><trkpt lat="42.194043669432986" lon="13.77999140788555"><ele>795.6666666666667</ele><time>2026-05-02T10:10:54.999Z</time></trkpt><trkpt lat="42.19408768029516" lon="13.779775614568445"><ele>791.0</ele><time>2026-05-02T10:10:55.999Z</time></trkpt><trkpt lat="42.19412986871948" lon="13.77956790483315"><ele>791.0</ele><time>2026-05-02T10:10:56.999Z</time></trkpt><trkpt lat="42.19416833257249" lon="13.779371968356111"><ele>791.0</ele><time>2026-05-02T10:10:57.999Z</time></trkpt><trkpt lat="42.19419367065582" lon="13.779187603537498"><ele>791.0</ele><time>2026-05-02T10:10:58.999Z</time></trkpt><trkpt lat="42.194194616536684" lon="13.779031575608323"><ele>791.0</ele><time>2026-05-02T10:10:59.999Z</time></trkpt><trkpt lat="42.19417558732849" lon="13.778850483137612"><ele>792.6666666666667</ele><time>2026-05-02T10:11:00.999Z</time></trkpt><trkpt lat="42.19415117908507" lon="13.778648041244793"><ele>794.3333333333333</ele><time>2026-05-02T10:11:01.999Z</time></trkpt><trkpt lat="42.19410896936127" lon="13.77842732380184"><ele>796.0</ele><time>2026-05-02T10:11:02.999Z</time></trkpt><trkpt lat="42.194117336991866" lon="13.778197536831277"><ele>799.0</ele><time>2026-05-02T10:11:03.999Z</time></trkpt><trkpt lat="42.194138213527594" lon="13.7779561769213"><ele>802.0</ele><time>2026-05-02T10:11:04.999Z</time></trkpt><trkpt lat="42.1941674408875" lon="13.777714151360382"><ele>805.0</ele><time>2026-05-02T10:11:05.999Z</time></trkpt><trkpt lat="42.19420250373215" lon="13.777483905992524"><ele>808.3333333333333</ele><time>2026-05-02T10:11:06.999Z</time></trkpt><trkpt lat="42.19424500020948" lon="13.777266104992778"><ele>811.6666666666667</ele><time>2026-05-02T10:11:07.999Z</time></trkpt><trkpt lat="42.19429432507094" lon="13.777041509797806"><ele>815.0</ele><time>2026-05-02T10:11:08.999Z</time></trkpt><trkpt lat="42.19435629260906" lon="13.776840733636117"><ele>817.6666666666667</ele><time>2026-05-02T10:11:09.999Z</time></trkpt><trkpt lat="42.19444158218941" lon="13.776654195499262"><ele>820.3333333333333</ele><time>2026-05-02T10:11:10.999Z</time></trkpt><trkpt lat="42.19453262020434" lon="13.776467232017252"><ele>823.0</ele><time>2026-05-02T10:11:11.999Z</time></trkpt><trkpt lat="42.19463529906967" lon="13.776261726036555"><ele>823.0</ele><time>2026-05-02T10:11:12.999Z</time></trkpt><trkpt lat="42.1947143961725" lon="13.776032180758254"><ele>823.0</ele><time>2026-05-02T10:11:13.999Z</time></trkpt><trkpt lat="42.19476892693403" lon="13.77582249260282"><ele>823.0</ele><time>2026-05-02T10:11:14.999Z</time></trkpt><trkpt lat="42.194835186782626" lon="13.775636745171937"><ele>824.0</ele><time>2026-05-02T10:11:15.999Z</time></trkpt><trkpt lat="42.19494747758043" lon="13.775484802575193"><ele>825.0</ele><time>2026-05-02T10:11:16.999Z</time></trkpt><trkpt lat="42.1950633719094" lon="13.775342267435905"><ele>826.0</ele><time>2026-05-02T10:11:17.999Z</time></trkpt><trkpt lat="42.19517981602999" lon="13.775179121436869"><ele>826.0</ele><time>2026-05-02T10:11:18.999Z</time></trkpt><trkpt lat="42.19530456638205" lon="13.77498081382516"><ele>826.0</ele><time>2026-05-02T10:11:19.999Z</time></trkpt><trkpt lat="42.195418111780896" lon="13.774783866153696"><ele>826.0</ele><time>2026-05-02T10:11:20.999Z</time></trkpt><trkpt lat="42.1955337582625" lon="13.774576178337997"><ele>826.0</ele><time>2026-05-02T10:11:21.999Z</time></trkpt><trkpt lat="42.19565024632552" lon="13.774366979591841"><ele>826.0</ele><time>2026-05-02T10:11:22.999Z</time></trkpt><trkpt lat="42.195766827934854" lon="13.77415761297263"><ele>826.0</ele><time>2026-05-02T10:11:23.999Z</time></trkpt><trkpt lat="42.19585967156703" lon="13.773962801473052"><ele>826.75</ele><time>2026-05-02T10:11:24.999Z</time></trkpt><trkpt lat="42.19594581376838" lon="13.77381332564466"><ele>827.5</ele><time>2026-05-02T10:11:25.999Z</time></trkpt><trkpt lat="42.19602156974194" lon="13.773674539991312"><ele>828.25</ele><time>2026-05-02T10:11:26.999Z</time></trkpt><trkpt lat="42.19607499822352" lon="13.77350952896765"><ele>829.0</ele><time>2026-05-02T10:11:27.999Z</time></trkpt><trkpt lat="42.19607207857724" lon="13.773350471122056"><ele>831.75</ele><time>2026-05-02T10:11:28.999Z</time></trkpt><trkpt lat="42.19607090688223" lon="13.773194574020717"><ele>834.5</ele><time>2026-05-02T10:11:29.999Z</time></trkpt><trkpt lat="42.19606886652606" lon="13.7729966283496"><ele>837.25</ele><time>2026-05-02T10:11:30.999Z</time></trkpt><trkpt lat="42.19607092424449" lon="13.772753569330442"><ele>840.0</ele><time>2026-05-02T10:11:31.999Z</time></trkpt><trkpt lat="42.196080592891704" lon="13.772511143742037"><ele>840.75</ele><time>2026-05-02T10:11:32.999Z</time></trkpt><trkpt lat="42.196106485670015" lon="13.772311932538864"><ele>841.5</ele><time>2026-05-02T10:11:33.999Z</time></trkpt><trkpt lat="42.1961366314291" lon="13.772114910565632"><ele>842.25</ele><time>2026-05-02T10:11:34.999Z</time></trkpt><trkpt lat="42.19614533680295" lon="13.77193119050138"><ele>843.0</ele><time>2026-05-02T10:11:35.999Z</time></trkpt><trkpt lat="42.19613980450103" lon="13.77178730302938"><ele>843.0</ele><time>2026-05-02T10:11:36.999Z</time></trkpt><trkpt lat="42.1961305902822" lon="13.771667530364311"><ele>843.0</ele><time>2026-05-02T10:11:37.999Z</time></trkpt><trkpt lat="42.19611429791115" lon="13.771566741375539"><ele>843.0</ele><time>2026-05-02T10:11:38.999Z</time></trkpt><trkpt lat="42.1960438817784" lon="13.771473106947234"><ele>843.0</ele><time>2026-05-02T10:11:39.999Z</time></trkpt><trkpt lat="42.19592919361784" lon="13.77140131835155"><ele>843.0</ele><time>2026-05-02T10:11:40.999Z</time></trkpt><trkpt lat="42.195786996438656" lon="13.771353392218886"><ele>846.6666666666667</ele><time>2026-05-02T10:11:41.999Z</time></trkpt><trkpt lat="42.19561249453586" lon="13.771337534108524"><ele>850.3333333333334</ele><time>2026-05-02T10:11:42.999Z</time></trkpt><trkpt lat="42.195441231603866" lon="13.77135311395839"><ele>854.0</ele><time>2026-05-02T10:11:43.999Z</time></trkpt><trkpt lat="42.195283889158134" lon="13.771370601539276"><ele>854.0</ele><time>2026-05-02T10:11:44.999Z</time></trkpt><trkpt lat="42.19514948560491" lon="13.771363023989625"><ele>854.0000000000001</ele><time>2026-05-02T10:11:45.999Z</time></trkpt><trkpt lat="42.195035945338006" lon="13.771332500445585"><ele>854.0000000000001</ele><time>2026-05-02T10:11:46.999Z</time></trkpt><trkpt lat="42.19496817862618" lon="13.771258595780708"><ele>854.0</ele><time>2026-05-02T10:11:47.999Z</time></trkpt><trkpt lat="42.194951624852855" lon="13.77117142854043"><ele>854.0</ele><time>2026-05-02T10:11:48.999Z</time></trkpt><trkpt lat="42.19492567123673" lon="13.771035297723738"><ele>853.0</ele><time>2026-05-02T10:11:49.999Z</time></trkpt><trkpt lat="42.194903798240745" lon="13.770863045674771"><ele>852.0</ele><time>2026-05-02T10:11:50.999Z</time></trkpt><trkpt lat="42.19487686957445" lon="13.770676581336124"><ele>851.0</ele><time>2026-05-02T10:11:51.999Z</time></trkpt><trkpt lat="42.19483025195387" lon="13.770458572947708"><ele>850.0</ele><time>2026-05-02T10:11:52.999Z</time></trkpt><trkpt lat="42.194745274112336" lon="13.77023243833148"><ele>852.75</ele><time>2026-05-02T10:11:53.999Z</time></trkpt><trkpt lat="42.194654604276096" lon="13.770031595794691"><ele>855.5</ele><time>2026-05-02T10:11:54.999Z</time></trkpt><trkpt lat="42.19458869652069" lon="13.769872590556263"><ele>858.25</ele><time>2026-05-02T10:11:55.999Z</time></trkpt><trkpt lat="42.19452589152164" lon="13.76972763507981"><ele>861.0</ele><time>2026-05-02T10:11:56.999Z</time></trkpt><trkpt lat="42.19444722162224" lon="13.769634428207642"><ele>861.0</ele><time>2026-05-02T10:11:57.999Z</time></trkpt><trkpt lat="42.19435867416092" lon="13.769589016162417"><ele>861.0</ele><time>2026-05-02T10:11:58.999Z</time></trkpt><trkpt lat="42.194214421675305" lon="13.769540007445716"><ele>861.0</ele><time>2026-05-02T10:11:59.999Z</time></trkpt><trkpt lat="42.194046323150886" lon="13.769540329904402"><ele>861.0</ele><time>2026-05-02T10:12:00.999Z</time></trkpt><trkpt lat="42.19387065772427" lon="13.769601557584767"><ele>864.3333333333333</ele><time>2026-05-02T10:12:01.999Z</time></trkpt><trkpt lat="42.193689651480604" lon="13.76963221634682"><ele>867.6666666666666</ele><time>2026-05-02T10:12:02.999Z</time></trkpt><trkpt lat="42.19350405121116" lon="13.769610079410066"><ele>871.0</ele><time>2026-05-02T10:12:03.999Z</time></trkpt><trkpt lat="42.1932907340176" lon="13.769585603990095"><ele>872.0</ele><time>2026-05-02T10:12:04.999Z</time></trkpt><trkpt lat="42.19307355888225" lon="13.769578191448362"><ele>873.0</ele><time>2026-05-02T10:12:05.999Z</time></trkpt><trkpt lat="42.19285674618684" lon="13.769571188574458"><ele>874.0</ele><time>2026-05-02T10:12:06.999Z</time></trkpt><trkpt lat="42.192635933609814" lon="13.769555891952308"><ele>874.0</ele><time>2026-05-02T10:12:07.999Z</time></trkpt><trkpt lat="42.19242747937893" lon="13.769518659074679"><ele>874.0</ele><time>2026-05-02T10:12:08.999Z</time></trkpt><trkpt lat="42.19225529664509" lon="13.76944840078605"><ele>874.0</ele><time>2026-05-02T10:12:09.999Z</time></trkpt><trkpt lat="42.192086966610596" lon="13.769395799605329"><ele>873.75</ele><time>2026-05-02T10:12:10.999Z</time></trkpt><trkpt lat="42.19192915187732" lon="13.76938165827301"><ele>873.5</ele><time>2026-05-02T10:12:11.999Z</time></trkpt><trkpt lat="42.19179511451079" lon="13.769379338556172"><ele>873.25</ele><time>2026-05-02T10:12:12.999Z</time></trkpt><trkpt lat="42.191660135723815" lon="13.769376388252205"><ele>873.0</ele><time>2026-05-02T10:12:13.999Z</time></trkpt><trkpt lat="42.19153303608184" lon="13.769373513366553"><ele>872.8</ele><time>2026-05-02T10:12:14.999Z</time></trkpt><trkpt lat="42.191419564383615" lon="13.769360542491885"><ele>872.5999999999999</ele><time>2026-05-02T10:12:15.999Z</time></trkpt><trkpt lat="42.191330495924646" lon="13.769334316857593"><ele>872.4000000000001</ele><time>2026-05-02T10:12:16.999Z</time></trkpt><trkpt lat="42.191263328214504" lon="13.769266684144563"><ele>872.2</ele><time>2026-05-02T10:12:17.999Z</time></trkpt><trkpt lat="42.19121678818934" lon="13.769182499388615"><ele>872.0</ele><time>2026-05-02T10:12:18.999Z</time></trkpt><trkpt lat="42.19116732891411" lon="13.769088655583284"><ele>872.0</ele><time>2026-05-02T10:12:19.999Z</time></trkpt><trkpt lat="42.19109347276253" lon="13.768961175183568"><ele>872.0</ele><time>2026-05-02T10:12:20.999Z</time></trkpt><trkpt lat="42.191008163307714" lon="13.7688232505465"><ele>872.0</ele><time>2026-05-02T10:12:21.999Z</time></trkpt><trkpt lat="42.19094062711783" lon="13.768741908762149"><ele>872.0</ele><time>2026-05-02T10:12:22.999Z</time></trkpt><trkpt lat="42.19088743391065" lon="13.768685721971442"><ele>872.0</ele><time>2026-05-02T10:12:23.999Z</time></trkpt><trkpt lat="42.19088477224961" lon="13.768593202467319"><ele>872.0</ele><time>2026-05-02T10:12:26.999Z</time></trkpt><trkpt lat="42.19100086500092" lon="13.768536203811035"><ele>872.0</ele><time>2026-05-02T10:12:28.999Z</time></trkpt><trkpt lat="42.19108653408256" lon="13.768492411050126"><ele>872.0</ele><time>2026-05-02T10:12:29.999Z</time></trkpt><trkpt lat="42.191152999190265" lon="13.768417621350416"><ele>872.0</ele><time>2026-05-02T10:12:30.999Z</time></trkpt><trkpt lat="42.19120319713301" lon="13.768299725140986"><ele>872.0</ele><time>2026-05-02T10:12:31.999Z</time></trkpt><trkpt lat="42.19126567554597" lon="13.768185949172418"><ele>872.2</ele><time>2026-05-02T10:12:32.999Z</time></trkpt><trkpt lat="42.191350203584726" lon="13.768061369350507"><ele>872.4000000000001</ele><time>2026-05-02T10:12:33.999Z</time></trkpt><trkpt lat="42.19142954923384" lon="13.767939370076627"><ele>872.5999999999999</ele><time>2026-05-02T10:12:34.999Z</time></trkpt><trkpt lat="42.19149815866821" lon="13.767832103306409"><ele>872.8</ele><time>2026-05-02T10:12:35.999Z</time></trkpt><trkpt lat="42.191578546412856" lon="13.76776433188753"><ele>873.0</ele><time>2026-05-02T10:12:36.999Z</time></trkpt><trkpt lat="42.19163927463815" lon="13.767695709372248"><ele>875.1428571428571</ele><time>2026-05-02T10:12:37.999Z</time></trkpt><trkpt lat="42.191693564398356" lon="13.76764114311315"><ele>877.2857142857142</ele><time>2026-05-02T10:12:38.999Z</time></trkpt><trkpt lat="42.19174963200817" lon="13.767571689226441"><ele>879.4285714285713</ele><time>2026-05-02T10:12:39.999Z</time></trkpt><trkpt lat="42.19180289147914" lon="13.76749572911998"><ele>881.5714285714286</ele><time>2026-05-02T10:12:40.999Z</time></trkpt><trkpt lat="42.19183742142548" lon="13.767424479623614"><ele>883.7142857142858</ele><time>2026-05-02T10:12:41.999Z</time></trkpt><trkpt lat="42.19187922181578" lon="13.767327455276643"><ele>885.8571428571428</ele><time>2026-05-02T10:12:42.999Z</time></trkpt><trkpt lat="42.19191429806072" lon="13.767228091588752"><ele>888.0</ele><time>2026-05-02T10:12:44.999Z</time></trkpt><trkpt lat="42.19195309791723" lon="13.76709924828389"><ele>888.0</ele><time>2026-05-02T10:12:46.999Z</time></trkpt><trkpt lat="42.19196629383816" lon="13.76701071938355"><ele>888.0</ele><time>2026-05-02T10:12:47.999Z</time></trkpt><trkpt lat="42.19198371291515" lon="13.766923541841024"><ele>888.0</ele><time>2026-05-02T10:12:48.999Z</time></trkpt><trkpt lat="42.19204342857505" lon="13.766776354478383"><ele>888.0</ele><time>2026-05-02T10:12:50.999Z</time></trkpt><trkpt lat="42.192085798093416" lon="13.766700837905189"><ele>888.0</ele><time>2026-05-02T10:12:51.999Z</time></trkpt><trkpt lat="42.19213952968969" lon="13.766541873787785"><ele>889.0</ele><time>2026-05-02T10:12:53.999Z</time></trkpt><trkpt lat="42.19219438820002" lon="13.766470866230579"><ele>890.0</ele><time>2026-05-02T10:12:54.999Z</time></trkpt><trkpt lat="42.19227725291534" lon="13.766370336551269"><ele>891.0</ele><time>2026-05-02T10:12:56.999Z</time></trkpt><trkpt lat="42.192326121075496" lon="13.766292884704606"><ele>892.0</ele><time>2026-05-02T10:12:57.999Z</time></trkpt><trkpt lat="42.19237945084196" lon="13.766204384821249"><ele>893.0</ele><time>2026-05-02T10:12:58.999Z</time></trkpt><trkpt lat="42.19243459728951" lon="13.766104693713762"><ele>894.0</ele><time>2026-05-02T10:12:59.999Z</time></trkpt><trkpt lat="42.192505885292285" lon="13.766008980083226"><ele>897.0</ele><time>2026-05-02T10:13:00.999Z</time></trkpt><trkpt lat="42.19257062505177" lon="13.765887987336932"><ele>900.0</ele><time>2026-05-02T10:13:01.999Z</time></trkpt><trkpt lat="42.19264370747648" lon="13.765758077388467"><ele>903.0</ele><time>2026-05-02T10:13:02.999Z</time></trkpt><trkpt lat="42.192715969864174" lon="13.765647588989472"><ele>906.0</ele><time>2026-05-02T10:13:03.999Z</time></trkpt><trkpt lat="42.192803059276294" lon="13.765549333267613"><ele>906.0</ele><time>2026-05-02T10:13:04.999Z</time></trkpt><trkpt lat="42.19288505758963" lon="13.76544330531888"><ele>905.9999999999999</ele><time>2026-05-02T10:13:05.999Z</time></trkpt><trkpt lat="42.19293078189939" lon="13.765361302577316"><ele>905.9999999999999</ele><time>2026-05-02T10:13:06.999Z</time></trkpt><trkpt lat="42.192990605997394" lon="13.765273667521374"><ele>906.0</ele><time>2026-05-02T10:13:07.999Z</time></trkpt><trkpt lat="42.19304443319389" lon="13.765187819127293"><ele>906.0</ele><time>2026-05-02T10:13:08.999Z</time></trkpt><trkpt lat="42.19311509621342" lon="13.76511147584825"><ele>906.5999999999999</ele><time>2026-05-02T10:13:09.999Z</time></trkpt><trkpt lat="42.19318249848364" lon="13.765031203808917"><ele>907.1999999999999</ele><time>2026-05-02T10:13:10.999Z</time></trkpt><trkpt lat="42.19325064773461" lon="13.764938539510355"><ele>907.8000000000001</ele><time>2026-05-02T10:13:11.999Z</time></trkpt><trkpt lat="42.19330345513792" lon="13.764828078442456"><ele>908.4000000000001</ele><time>2026-05-02T10:13:12.999Z</time></trkpt><trkpt lat="42.19336888452526" lon="13.76472425915829"><ele>909.0</ele><time>2026-05-02T10:13:13.999Z</time></trkpt><trkpt lat="42.193453282506525" lon="13.764636735270381"><ele>909.0</ele><time>2026-05-02T10:13:14.999Z</time></trkpt><trkpt lat="42.19354342996672" lon="13.76454731683208"><ele>909.0</ele><time>2026-05-02T10:13:15.999Z</time></trkpt><trkpt lat="42.1936273742287" lon="13.764483810528462"><ele>909.0</ele><time>2026-05-02T10:13:16.999Z</time></trkpt><trkpt lat="42.19369552872768" lon="13.764439365385964"><ele>909.0</ele><time>2026-05-02T10:13:17.999Z</time></trkpt><trkpt lat="42.19376159239511" lon="13.764405177658743"><ele>909.0</ele><time>2026-05-02T10:13:18.999Z</time></trkpt><trkpt lat="42.19384006866216" lon="13.764390495063335"><ele>909.0</ele><time>2026-05-02T10:13:19.999Z</time></trkpt><trkpt lat="42.193931424416505" lon="13.764318765074217"><ele>909.8000000000001</ele><time>2026-05-02T10:13:20.999Z</time></trkpt><trkpt lat="42.19398231828627" lon="13.764231065156805"><ele>910.6000000000001</ele><time>2026-05-02T10:13:21.999Z</time></trkpt><trkpt lat="42.1940494026852" lon="13.764133762023814"><ele>911.4</ele><time>2026-05-02T10:13:22.999Z</time></trkpt><trkpt lat="42.19409570183408" lon="13.764063358806892"><ele>912.2</ele><time>2026-05-02T10:13:23.999Z</time></trkpt><trkpt lat="42.1941343307242" lon="13.763930449732268"><ele>913.0</ele><time>2026-05-02T10:13:24.999Z</time></trkpt><trkpt lat="42.19419141025415" lon="13.763806975250178"><ele>912.9999999999999</ele><time>2026-05-02T10:13:25.999Z</time></trkpt><trkpt lat="42.19422345676836" lon="13.763682715040611"><ele>913.0</ele><time>2026-05-02T10:13:26.999Z</time></trkpt><trkpt lat="42.19427732680528" lon="13.763584937871101"><ele>913.0</ele><time>2026-05-02T10:13:27.999Z</time></trkpt><trkpt lat="42.19431573841196" lon="13.763479443657314"><ele>913.0</ele><time>2026-05-02T10:13:28.999Z</time></trkpt><trkpt lat="42.1943865707032" lon="13.763407834027987"><ele>912.9999999999999</ele><time>2026-05-02T10:13:29.999Z</time></trkpt><trkpt lat="42.194446781522494" lon="13.763325137754604"><ele>913.0</ele><time>2026-05-02T10:13:30.999Z</time></trkpt><trkpt lat="42.19451179596217" lon="13.763235843921912"><ele>913.3333333333333</ele><time>2026-05-02T10:13:31.999Z</time></trkpt><trkpt lat="42.19457761456942" lon="13.763143446515137"><ele>913.6666666666666</ele><time>2026-05-02T10:13:32.999Z</time></trkpt><trkpt lat="42.194621536804576" lon="13.763043332760786"><ele>914.0</ele><time>2026-05-02T10:13:33.999Z</time></trkpt><trkpt lat="42.19468112440943" lon="13.762960458864738"><ele>914.3333333333333</ele><time>2026-05-02T10:13:34.999Z</time></trkpt><trkpt lat="42.19475105812524" lon="13.762906438586702"><ele>914.6666666666666</ele><time>2026-05-02T10:13:35.999Z</time></trkpt><trkpt lat="42.194816157220146" lon="13.76285251986522"><ele>915.0</ele><time>2026-05-02T10:13:36.999Z</time></trkpt><trkpt lat="42.19487731556819" lon="13.762808341587045"><ele>915.0</ele><time>2026-05-02T10:13:37.999Z</time></trkpt><trkpt lat="42.19495539169576" lon="13.762763384507151"><ele>915.0</ele><time>2026-05-02T10:13:38.999Z</time></trkpt><trkpt lat="42.1950494271667" lon="13.762718493941163"><ele>915.0</ele><time>2026-05-02T10:13:39.999Z</time></trkpt><trkpt lat="42.19514862782198" lon="13.762673986817253"><ele>915.0</ele><time>2026-05-02T10:13:40.998Z</time></trkpt><trkpt lat="42.19523982674584" lon="13.76262630642754"><ele>915.0</ele><time>2026-05-02T10:13:41.998Z</time></trkpt><trkpt lat="42.195321267642285" lon="13.762588134954907"><ele>914.8333333333334</ele><time>2026-05-02T10:13:42.998Z</time></trkpt><trkpt lat="42.195399689764635" lon="13.762539253237824"><ele>914.6666666666667</ele><time>2026-05-02T10:13:43.998Z</time></trkpt><trkpt lat="42.195460770509754" lon="13.762462560254122"><ele>914.5</ele><time>2026-05-02T10:13:44.998Z</time></trkpt><trkpt lat="42.19552171207277" lon="13.762370828164954"><ele>914.3333333333334</ele><time>2026-05-02T10:13:45.998Z</time></trkpt><trkpt lat="42.19558690730657" lon="13.76226915105944"><ele>914.1666666666667</ele><time>2026-05-02T10:13:46.998Z</time></trkpt><trkpt lat="42.19564051220373" lon="13.762180622139033"><ele>914.0</ele><time>2026-05-02T10:13:47.998Z</time></trkpt><trkpt lat="42.19569176653863" lon="13.76209053565702"><ele>914.0</ele><time>2026-05-02T10:13:48.998Z</time></trkpt><trkpt lat="42.195731349275675" lon="13.762014443361327"><ele>914.0000000000001</ele><time>2026-05-02T10:13:49.998Z</time></trkpt><trkpt lat="42.195793545367266" lon="13.761884129461405"><ele>914.0000000000001</ele><time>2026-05-02T10:13:51.998Z</time></trkpt><trkpt lat="42.195842309890445" lon="13.761778465298313"><ele>914.0</ele><time>2026-05-02T10:13:53.998Z</time></trkpt><trkpt lat="42.1959158767431" lon="13.761618523911556"><ele>914.0</ele><time>2026-05-02T10:13:55.998Z</time></trkpt><trkpt lat="42.195959442556195" lon="13.76152809826772"><ele>915.3333333333334</ele><time>2026-05-02T10:13:56.998Z</time></trkpt><trkpt lat="42.19600901308152" lon="13.761433437252443"><ele>916.6666666666667</ele><time>2026-05-02T10:13:57.998Z</time></trkpt><trkpt lat="42.196059089800386" lon="13.761378585546439"><ele>918.0</ele><time>2026-05-02T10:13:58.998Z</time></trkpt><trkpt lat="42.19610743084346" lon="13.76129979362141"><ele>919.3333333333333</ele><time>2026-05-02T10:14:00.998Z</time></trkpt><trkpt lat="42.19614040557711" lon="13.761211117915549"><ele>920.6666666666666</ele><time>2026-05-02T10:14:02.998Z</time></trkpt><trkpt lat="42.19624549477467" lon="13.761069931238268"><ele>922.0</ele><time>2026-05-02T10:14:04.998Z</time></trkpt><trkpt lat="42.1962853461951" lon="13.761000231740248"><ele>921.9999999999999</ele><time>2026-05-02T10:14:05.998Z</time></trkpt><trkpt lat="42.19635881276988" lon="13.760886517663524"><ele>922.0</ele><time>2026-05-02T10:14:07.998Z</time></trkpt><trkpt lat="42.19639224127294" lon="13.760809418706165"><ele>922.0</ele><time>2026-05-02T10:14:08.998Z</time></trkpt><trkpt lat="42.196437686773436" lon="13.760731923192951"><ele>922.0</ele><time>2026-05-02T10:14:09.998Z</time></trkpt><trkpt lat="42.19648518030604" lon="13.760651726035858"><ele>921.9999999999999</ele><time>2026-05-02T10:14:10.998Z</time></trkpt><trkpt lat="42.196521734584344" lon="13.760559539601827"><ele>922.0</ele><time>2026-05-02T10:14:11.998Z</time></trkpt><trkpt lat="42.196564152645315" lon="13.760473181896204"><ele>921.9999999999999</ele><time>2026-05-02T10:14:12.998Z</time></trkpt><trkpt lat="42.19661546659399" lon="13.760405743250963"><ele>922.0</ele><time>2026-05-02T10:14:13.998Z</time></trkpt><trkpt lat="42.19664174488677" lon="13.760310842965843"><ele>922.0</ele><time>2026-05-02T10:14:14.998Z</time></trkpt><trkpt lat="42.19668276879976" lon="13.760225012532901"><ele>922.0</ele><time>2026-05-02T10:14:15.998Z</time></trkpt><trkpt lat="42.196742044279254" lon="13.760140795791418"><ele>921.9999999999999</ele><time>2026-05-02T10:14:16.998Z</time></trkpt><trkpt lat="42.196776400143925" lon="13.760039515924543"><ele>922.0</ele><time>2026-05-02T10:14:17.998Z</time></trkpt><trkpt lat="42.19680804068849" lon="13.759944228026763"><ele>924.25</ele><time>2026-05-02T10:14:18.998Z</time></trkpt><trkpt lat="42.19685951663053" lon="13.759803566301736"><ele>926.5</ele><time>2026-05-02T10:14:20.998Z</time></trkpt><trkpt lat="42.19692431191834" lon="13.759675077449192"><ele>928.75</ele><time>2026-05-02T10:14:22.998Z</time></trkpt><trkpt lat="42.19697207715007" lon="13.759544210416548"><ele>931.0</ele><time>2026-05-02T10:14:24.998Z</time></trkpt><trkpt lat="42.19699795547244" lon="13.75938754462899"><ele>932.0</ele><time>2026-05-02T10:14:26.998Z</time></trkpt><trkpt lat="42.1969965649995" lon="13.75928716821788"><ele>932.9999999999999</ele><time>2026-05-02T10:14:27.998Z</time></trkpt><trkpt lat="42.19699893730561" lon="13.759168216686932"><ele>933.9999999999999</ele><time>2026-05-02T10:14:28.998Z</time></trkpt><trkpt lat="42.196988048098994" lon="13.759029440065932"><ele>935.0</ele><time>2026-05-02T10:14:29.998Z</time></trkpt><trkpt lat="42.19695325553385" lon="13.758869447218942"><ele>936.0</ele><time>2026-05-02T10:14:30.998Z</time></trkpt><trkpt lat="42.19693646935388" lon="13.758705584360627"><ele>936.0</ele><time>2026-05-02T10:14:31.998Z</time></trkpt><trkpt lat="42.19692276061876" lon="13.758584088977862"><ele>936.0</ele><time>2026-05-02T10:14:32.998Z</time></trkpt><trkpt lat="42.19692882284702" lon="13.758485551370544"><ele>936.0</ele><time>2026-05-02T10:14:33.998Z</time></trkpt><trkpt lat="42.19694941718974" lon="13.758384772716134"><ele>936.0</ele><time>2026-05-02T10:14:34.998Z</time></trkpt><trkpt lat="42.19699041417151" lon="13.758264098696277"><ele>936.0</ele><time>2026-05-02T10:14:35.998Z</time></trkpt><trkpt lat="42.19702795597243" lon="13.75814150093575"><ele>936.0</ele><time>2026-05-02T10:14:36.998Z</time></trkpt><trkpt lat="42.19706616456621" lon="13.758034915205995"><ele>936.4</ele><time>2026-05-02T10:14:37.998Z</time></trkpt><trkpt lat="42.19710870076156" lon="13.75793008340106"><ele>936.8</ele><time>2026-05-02T10:14:38.998Z</time></trkpt><trkpt lat="42.19716358837883" lon="13.75781922523361"><ele>937.1999999999999</ele><time>2026-05-02T10:14:39.998Z</time></trkpt><trkpt lat="42.19721835113403" lon="13.757683318876317"><ele>937.5999999999999</ele><time>2026-05-02T10:14:40.998Z</time></trkpt><trkpt lat="42.19725970281804" lon="13.757542776964781"><ele>938.0</ele><time>2026-05-02T10:14:41.998Z</time></trkpt><trkpt lat="42.19728238183654" lon="13.75741789581714"><ele>939.3333333333334</ele><time>2026-05-02T10:14:42.998Z</time></trkpt><trkpt lat="42.197286139591604" lon="13.757314442601649"><ele>940.6666666666667</ele><time>2026-05-02T10:14:43.998Z</time></trkpt><trkpt lat="42.197280145715865" lon="13.757197079749082"><ele>942.0</ele><time>2026-05-02T10:14:44.998Z</time></trkpt><trkpt lat="42.19725994428843" lon="13.757062846582706"><ele>943.3333333333333</ele><time>2026-05-02T10:14:45.998Z</time></trkpt><trkpt lat="42.19723046588707" lon="13.75695127004678"><ele>944.6666666666666</ele><time>2026-05-02T10:14:46.998Z</time></trkpt><trkpt lat="42.19719466258431" lon="13.756846046910601"><ele>946.0</ele><time>2026-05-02T10:14:47.998Z</time></trkpt><trkpt lat="42.19717202398176" lon="13.756736447450407"><ele>946.9999999999999</ele><time>2026-05-02T10:14:48.998Z</time></trkpt><trkpt lat="42.19716145208441" lon="13.75662928241467"><ele>948.0</ele><time>2026-05-02T10:14:49.998Z</time></trkpt><trkpt lat="42.19715996336974" lon="13.756518156099336"><ele>949.0</ele><time>2026-05-02T10:14:50.998Z</time></trkpt><trkpt lat="42.197154892771266" lon="13.756413072575619"><ele>950.0</ele><time>2026-05-02T10:14:51.998Z</time></trkpt><trkpt lat="42.19716792144337" lon="13.75632224990731"><ele>950.9999999999999</ele><time>2026-05-02T10:14:52.998Z</time></trkpt><trkpt lat="42.19716755225708" lon="13.75614567747615"><ele>952.0</ele><time>2026-05-02T10:14:54.998Z</time></trkpt><trkpt lat="42.197153936210974" lon="13.755977521612696"><ele>953.4999999999999</ele><time>2026-05-02T10:14:56.998Z</time></trkpt><trkpt lat="42.197151681340856" lon="13.755890968776297"><ele>955.0</ele><time>2026-05-02T10:14:57.998Z</time></trkpt><trkpt lat="42.19715114840602" lon="13.755729949498631"><ele>956.5</ele><time>2026-05-02T10:14:59.998Z</time></trkpt><trkpt lat="42.197126723735764" lon="13.755559163756068"><ele>958.0</ele><time>2026-05-02T10:15:01.998Z</time></trkpt><trkpt lat="42.197104577479976" lon="13.755474475290441"><ele>959.4999999999999</ele><time>2026-05-02T10:15:02.998Z</time></trkpt><trkpt lat="42.19708920432634" lon="13.755389695921346"><ele>961.0</ele><time>2026-05-02T10:15:03.998Z</time></trkpt><trkpt lat="42.19708610281356" lon="13.755304411003658"><ele>963.0</ele><time>2026-05-02T10:15:04.998Z</time></trkpt><trkpt lat="42.19704594938002" lon="13.755151534069846"><ele>964.9999999999999</ele><time>2026-05-02T10:15:06.998Z</time></trkpt><trkpt lat="42.19701318089492" lon="13.755067666090719"><ele>966.9999999999999</ele><time>2026-05-02T10:15:07.998Z</time></trkpt><trkpt lat="42.196988401382995" lon="13.754981331166022"><ele>969.0</ele><time>2026-05-02T10:15:08.998Z</time></trkpt><trkpt lat="42.196962018758356" lon="13.754817720792014"><ele>971.0</ele><time>2026-05-02T10:15:10.998Z</time></trkpt><trkpt lat="42.19694596639704" lon="13.754728655769554"><ele>971.0</ele><time>2026-05-02T10:15:11.998Z</time></trkpt><trkpt lat="42.19692136047736" lon="13.75455468126866"><ele>970.9999999999999</ele><time>2026-05-02T10:15:13.998Z</time></trkpt><trkpt lat="42.1969102268321" lon="13.754389287398505"><ele>970.9999999999999</ele><time>2026-05-02T10:15:15.998Z</time></trkpt><trkpt lat="42.196891833221315" lon="13.754263165576452"><ele>971.0</ele><time>2026-05-02T10:15:17.998Z</time></trkpt><trkpt lat="42.19687371244159" lon="13.754149193880119"><ele>971.0</ele><time>2026-05-02T10:15:19.998Z</time></trkpt><trkpt lat="42.196823546235294" lon="13.754023455699762"><ele>973.1999999999999</ele><time>2026-05-02T10:15:21.998Z</time></trkpt><trkpt lat="42.19670484860627" lon="13.753936682654505"><ele>975.3999999999999</ele><time>2026-05-02T10:15:23.998Z</time></trkpt><trkpt lat="42.196627061891746" lon="13.753861103231872"><ele>977.6</ele><time>2026-05-02T10:15:25.998Z</time></trkpt><trkpt lat="42.19655546039206" lon="13.753761028146394"><ele>979.8</ele><time>2026-05-02T10:15:27.998Z</time></trkpt><trkpt lat="42.19650323833819" lon="13.753677228541466"><ele>982.0</ele><time>2026-05-02T10:15:29.998Z</time></trkpt><trkpt lat="42.19647152048682" lon="13.753599173721767"><ele>983.8333333333333</ele><time>2026-05-02T10:15:32.998Z</time></trkpt><trkpt lat="42.196518140437526" lon="13.753475629846486"><ele>985.6666666666666</ele><time>2026-05-02T10:15:55.998Z</time></trkpt><trkpt lat="42.196550408873755" lon="13.75338621669669"><ele>987.5</ele><time>2026-05-02T10:15:56.998Z</time></trkpt><trkpt lat="42.19658187545132" lon="13.753294324060343"><ele>989.3333333333333</ele><time>2026-05-02T10:15:57.998Z</time></trkpt><trkpt lat="42.196627623897555" lon="13.753195728381097"><ele>991.1666666666666</ele><time>2026-05-02T10:15:58.998Z</time></trkpt><trkpt lat="42.19665645378322" lon="13.75311040498122"><ele>993.0</ele><time>2026-05-02T10:15:59.998Z</time></trkpt><trkpt lat="42.196722390465894" lon="13.753101596460507"><ele>993.0</ele><time>2026-05-02T10:16:00.998Z</time></trkpt><trkpt lat="42.19679252983049" lon="13.753051471409798"><ele>993.0</ele><time>2026-05-02T10:16:01.998Z</time></trkpt><trkpt lat="42.19687255919823" lon="13.753009458971999"><ele>993.0</ele><time>2026-05-02T10:16:02.998Z</time></trkpt><trkpt lat="42.196944684556414" lon="13.752961540973034"><ele>993.0</ele><time>2026-05-02T10:16:03.998Z</time></trkpt><trkpt lat="42.19704040057337" lon="13.752912634093292"><ele>993.0</ele><time>2026-05-02T10:16:04.998Z</time></trkpt><trkpt lat="42.19712248848104" lon="13.752815358830498"><ele>994.2</ele><time>2026-05-02T10:16:05.998Z</time></trkpt><trkpt lat="42.197192131165735" lon="13.752701356322689"><ele>995.4</ele><time>2026-05-02T10:16:06.998Z</time></trkpt><trkpt lat="42.19725965740413" lon="13.752580348126783"><ele>996.6000000000001</ele><time>2026-05-02T10:16:07.998Z</time></trkpt><trkpt lat="42.197317087838364" lon="13.752449646580668"><ele>997.8000000000001</ele><time>2026-05-02T10:16:08.998Z</time></trkpt><trkpt lat="42.197364456188474" lon="13.752325636164272"><ele>999.0</ele><time>2026-05-02T10:16:09.998Z</time></trkpt><trkpt lat="42.19740597123084" lon="13.752216375312713"><ele>999.0</ele><time>2026-05-02T10:16:10.998Z</time></trkpt><trkpt lat="42.19744565994592" lon="13.752114653204606"><ele>999.0</ele><time>2026-05-02T10:16:11.998Z</time></trkpt><trkpt lat="42.197485524663406" lon="13.752016773219928"><ele>999.0</ele><time>2026-05-02T10:16:12.998Z</time></trkpt><trkpt lat="42.197529985279694" lon="13.751929278334249"><ele>999.0</ele><time>2026-05-02T10:16:13.998Z</time></trkpt><trkpt lat="42.19758591886091" lon="13.75183958179971"><ele>999.0</ele><time>2026-05-02T10:16:14.998Z</time></trkpt><trkpt lat="42.19765707912958" lon="13.751739185929852"><ele>999.0</ele><time>2026-05-02T10:16:15.998Z</time></trkpt><trkpt lat="42.19773594171013" lon="13.751632249933548"><ele>1001.4000000000001</ele><time>2026-05-02T10:16:16.998Z</time></trkpt><trkpt lat="42.19781147254926" lon="13.751538487994253"><ele>1003.8000000000001</ele><time>2026-05-02T10:16:17.998Z</time></trkpt><trkpt lat="42.197886163304936" lon="13.751449442203567"><ele>1006.1999999999999</ele><time>2026-05-02T10:16:19Z</time></trkpt><trkpt lat="42.19796198699232" lon="13.751353425342622"><ele>1008.5999999999999</ele><time>2026-05-02T10:16:20Z</time></trkpt><trkpt lat="42.19802720969411" lon="13.751266427587735"><ele>1011.0</ele><time>2026-05-02T10:16:21Z</time></trkpt><trkpt lat="42.19808483517267" lon="13.751186123711253"><ele>1011.0</ele><time>2026-05-02T10:16:22Z</time></trkpt><trkpt lat="42.19814500199143" lon="13.751102278576282"><ele>1011.0</ele><time>2026-05-02T10:16:23Z</time></trkpt><trkpt lat="42.19821093372834" lon="13.75101039959011"><ele>1011.0</ele><time>2026-05-02T10:16:24Z</time></trkpt><trkpt lat="42.19827129600669" lon="13.750926282001315"><ele>1011.0</ele><time>2026-05-02T10:16:25Z</time></trkpt><trkpt lat="42.19832876932536" lon="13.75084619026917"><ele>1011.0</ele><time>2026-05-02T10:16:26Z</time></trkpt><trkpt lat="42.19838475205938" lon="13.75076817574176"><ele>1011.0</ele><time>2026-05-02T10:16:27Z</time></trkpt><trkpt lat="42.19844145012104" lon="13.750689164334105"><ele>1012.6666666666666</ele><time>2026-05-02T10:16:28Z</time></trkpt><trkpt lat="42.19850066693754" lon="13.750606642966302"><ele>1014.3333333333333</ele><time>2026-05-02T10:16:29Z</time></trkpt><trkpt lat="42.19855982996288" lon="13.750524196530169"><ele>1016.0</ele><time>2026-05-02T10:16:30Z</time></trkpt><trkpt lat="42.198617424856664" lon="13.750438865584444"><ele>1017.6666666666666</ele><time>2026-05-02T10:16:31Z</time></trkpt><trkpt lat="42.198661161289394" lon="13.750366295223214"><ele>1019.3333333333333</ele><time>2026-05-02T10:16:32Z</time></trkpt><trkpt lat="42.19873152614726" lon="13.750238189971414"><ele>1021.0</ele><time>2026-05-02T10:16:34Z</time></trkpt><trkpt lat="42.198777883354765" lon="13.750091958058798"><ele>1023.1999999999999</ele><time>2026-05-02T10:16:36Z</time></trkpt><trkpt lat="42.198777492023616" lon="13.74994520217794"><ele>1025.3999999999999</ele><time>2026-05-02T10:16:38Z</time></trkpt><trkpt lat="42.19876672522137" lon="13.749812590703907"><ele>1027.6</ele><time>2026-05-02T10:16:40Z</time></trkpt><trkpt lat="42.19875534642535" lon="13.749689311586714"><ele>1029.8</ele><time>2026-05-02T10:16:42Z</time></trkpt><trkpt lat="42.19877273828588" lon="13.749546860879954"><ele>1032.0</ele><time>2026-05-02T10:16:44Z</time></trkpt><trkpt lat="42.19871865400303" lon="13.749388639313066"><ele>1033.0</ele><time>2026-05-02T10:16:46Z</time></trkpt><trkpt lat="42.19870521359567" lon="13.749263896670533"><ele>1034.0</ele><time>2026-05-02T10:16:47Z</time></trkpt><trkpt lat="42.19868157637307" lon="13.749123151194915"><ele>1035.0</ele><time>2026-05-02T10:16:48Z</time></trkpt><trkpt lat="42.19867096505399" lon="13.748953751984184"><ele>1036.0</ele><time>2026-05-02T10:16:49Z</time></trkpt><trkpt lat="42.19867088458425" lon="13.748796548125597"><ele>1037.0</ele><time>2026-05-02T10:16:50Z</time></trkpt><trkpt lat="42.19867881584542" lon="13.748644562064031"><ele>1037.5</ele><time>2026-05-02T10:16:51Z</time></trkpt><trkpt lat="42.19868932874125" lon="13.748478877992651"><ele>1038.0</ele><time>2026-05-02T10:16:52Z</time></trkpt><trkpt lat="42.198704727138626" lon="13.748297665147138"><ele>1038.5</ele><time>2026-05-02T10:16:53Z</time></trkpt><trkpt lat="42.19871103419793" lon="13.748139148002092"><ele>1039.0</ele><time>2026-05-02T10:16:54Z</time></trkpt><trkpt lat="42.198711533699566" lon="13.747978522084916"><ele>1039.0</ele><time>2026-05-02T10:16:55Z</time></trkpt><trkpt lat="42.19871514986788" lon="13.747817443663259"><ele>1039.0</ele><time>2026-05-02T10:16:56Z</time></trkpt><trkpt lat="42.19872196142481" lon="13.747660798788592"><ele>1039.0</ele><time>2026-05-02T10:16:57Z</time></trkpt><trkpt lat="42.19873143437924" lon="13.747528292348818"><ele>1039.0</ele><time>2026-05-02T10:16:58Z</time></trkpt><trkpt lat="42.19874058389393" lon="13.747385792333805"><ele>1039.0</ele><time>2026-05-02T10:16:59Z</time></trkpt><trkpt lat="42.19875416497186" lon="13.747256736007266"><ele>1040.4</ele><time>2026-05-02T10:17:00Z</time></trkpt><trkpt lat="42.19877752663664" lon="13.747139183114385"><ele>1041.8000000000002</ele><time>2026-05-02T10:17:01Z</time></trkpt><trkpt lat="42.198824455262965" lon="13.747013569431639"><ele>1043.1999999999998</ele><time>2026-05-02T10:17:02Z</time></trkpt><trkpt lat="42.1988573656439" lon="13.746896328491447"><ele>1044.6</ele><time>2026-05-02T10:17:03Z</time></trkpt><trkpt lat="42.198867992773295" lon="13.746764892214456"><ele>1046.0</ele><time>2026-05-02T10:17:04Z</time></trkpt><trkpt lat="42.19887062823033" lon="13.746630448393173"><ele>1047.3999999999999</ele><time>2026-05-02T10:17:05Z</time></trkpt><trkpt lat="42.19887293824617" lon="13.746494565765317"><ele>1048.8</ele><time>2026-05-02T10:17:06Z</time></trkpt><trkpt lat="42.19886785050266" lon="13.746357497688384"><ele>1050.1999999999998</ele><time>2026-05-02T10:17:06.999Z</time></trkpt><trkpt lat="42.19886661178757" lon="13.746227148958683"><ele>1051.6</ele><time>2026-05-02T10:17:07.999Z</time></trkpt><trkpt lat="42.198881878808" lon="13.746101595093954"><ele>1053.0</ele><time>2026-05-02T10:17:08.999Z</time></trkpt><trkpt lat="42.19891786235461" lon="13.745975394006624"><ele>1053.8</ele><time>2026-05-02T10:17:09.999Z</time></trkpt><trkpt lat="42.19895296037976" lon="13.745829090022664"><ele>1054.6</ele><time>2026-05-02T10:17:10.999Z</time></trkpt><trkpt lat="42.19898641765678" lon="13.745684254440478"><ele>1055.4</ele><time>2026-05-02T10:17:11.999Z</time></trkpt><trkpt lat="42.1990158367902" lon="13.745559490066258"><ele>1056.2</ele><time>2026-05-02T10:17:12.999Z</time></trkpt><trkpt lat="42.19904695916652" lon="13.745452794783649"><ele>1057.0</ele><time>2026-05-02T10:17:13.999Z</time></trkpt><trkpt lat="42.19909124346663" lon="13.74536258402067"><ele>1057.0</ele><time>2026-05-02T10:17:14.999Z</time></trkpt><trkpt lat="42.19915826363381" lon="13.745273467795093"><ele>1057.0</ele><time>2026-05-02T10:17:15.999Z</time></trkpt><trkpt lat="42.199228504762" lon="13.745180949167935"><ele>1057.0</ele><time>2026-05-02T10:17:16.999Z</time></trkpt><trkpt lat="42.199285844105354" lon="13.745085633624333"><ele>1057.0</ele><time>2026-05-02T10:17:17.999Z</time></trkpt><trkpt lat="42.19932801282793" lon="13.744985271071085"><ele>1057.0</ele><time>2026-05-02T10:17:18.999Z</time></trkpt><trkpt lat="42.199367705032095" lon="13.744889034362549"><ele>1057.2857142857142</ele><time>2026-05-02T10:17:19.999Z</time></trkpt><trkpt lat="42.19940249414467" lon="13.744790245069515"><ele>1057.5714285714284</ele><time>2026-05-02T10:17:20.999Z</time></trkpt><trkpt lat="42.1994269292309" lon="13.744690997515546"><ele>1057.857142857143</ele><time>2026-05-02T10:17:21.999Z</time></trkpt><trkpt lat="42.19946043803565" lon="13.744603543064787"><ele>1058.142857142857</ele><time>2026-05-02T10:17:22.999Z</time></trkpt><trkpt lat="42.199494250065314" lon="13.744517142401781"><ele>1058.4285714285713</ele><time>2026-05-02T10:17:23.999Z</time></trkpt><trkpt lat="42.19953012023196" lon="13.7444355765123"><ele>1058.7142857142858</ele><time>2026-05-02T10:17:24.999Z</time></trkpt><trkpt lat="42.19958488085156" lon="13.744384008291997"><ele>1059.0</ele><time>2026-05-02T10:17:25.999Z</time></trkpt><trkpt lat="42.19964060702199" lon="13.744337727425386"><ele>1059.5714285714284</ele><time>2026-05-02T10:17:26.999Z</time></trkpt><trkpt lat="42.19969594213389" lon="13.744282598442249"><ele>1060.142857142857</ele><time>2026-05-02T10:17:27.999Z</time></trkpt><trkpt lat="42.199760445023344" lon="13.744248984385212"><ele>1060.7142857142858</ele><time>2026-05-02T10:17:28.999Z</time></trkpt><trkpt lat="42.19982094197753" lon="13.744216152295607"><ele>1061.2857142857142</ele><time>2026-05-02T10:17:29.999Z</time></trkpt><trkpt lat="42.199928041167055" lon="13.744157491985993"><ele>1061.857142857143</ele><time>2026-05-02T10:17:31.999Z</time></trkpt><trkpt lat="42.19998588223389" lon="13.744121754486327"><ele>1062.4285714285713</ele><time>2026-05-02T10:17:32.999Z</time></trkpt><trkpt lat="42.200045625765924" lon="13.74408692639919"><ele>1063.0</ele><time>2026-05-02T10:17:33.999Z</time></trkpt><trkpt lat="42.200147424245856" lon="13.744035768653253"><ele>1060.6</ele><time>2026-05-02T10:17:35.999Z</time></trkpt><trkpt lat="42.20025761362752" lon="13.743973318729523"><ele>1058.1999999999998</ele><time>2026-05-02T10:17:37.999Z</time></trkpt><trkpt lat="42.20031060333283" lon="13.74391916401981"><ele>1055.8</ele><time>2026-05-02T10:17:38.999Z</time></trkpt><trkpt lat="42.20037056248086" lon="13.743862992297567"><ele>1053.3999999999999</ele><time>2026-05-02T10:17:39.999Z</time></trkpt><trkpt lat="42.20047696130933" lon="13.743731140860175"><ele>1051.0</ele><time>2026-05-02T10:17:41.999Z</time></trkpt><trkpt lat="42.20052519413019" lon="13.743606199076092"><ele>1051.8333333333333</ele><time>2026-05-02T10:17:42.999Z</time></trkpt><trkpt lat="42.20056151252943" lon="13.743486530831976"><ele>1052.6666666666665</ele><time>2026-05-02T10:17:43.999Z</time></trkpt><trkpt lat="42.20061186078894" lon="13.743380815726528"><ele>1053.5</ele><time>2026-05-02T10:17:44.999Z</time></trkpt><trkpt lat="42.200639797371345" lon="13.743276094472206"><ele>1054.3333333333333</ele><time>2026-05-02T10:17:45.999Z</time></trkpt><trkpt lat="42.200668777168275" lon="13.743179746358315"><ele>1055.1666666666667</ele><time>2026-05-02T10:17:46.999Z</time></trkpt><trkpt lat="42.200696435071386" lon="13.74309006537859"><ele>1056.0</ele><time>2026-05-02T10:17:47.999Z</time></trkpt><trkpt lat="42.2007243172244" lon="13.743003068968209"><ele>1053.4285714285713</ele><time>2026-05-02T10:17:48.999Z</time></trkpt><trkpt lat="42.20075469853531" lon="13.742913640153587"><ele>1050.857142857143</ele><time>2026-05-02T10:17:49.999Z</time></trkpt><trkpt lat="42.20079329351346" lon="13.742817947071513"><ele>1048.2857142857142</ele><time>2026-05-02T10:17:50.999Z</time></trkpt><trkpt lat="42.20083184245935" lon="13.74273212844747"><ele>1045.7142857142858</ele><time>2026-05-02T10:17:51.999Z</time></trkpt><trkpt lat="42.20087247934685" lon="13.74264987829254"><ele>1043.142857142857</ele><time>2026-05-02T10:17:52.999Z</time></trkpt><trkpt lat="42.20090296513752" lon="13.74256343908613"><ele>1040.5714285714284</ele><time>2026-05-02T10:17:53.999Z</time></trkpt><trkpt lat="42.20093973130154" lon="13.742492594883895"><ele>1038.0</ele><time>2026-05-02T10:17:54.999Z</time></trkpt><trkpt lat="42.20098562701096" lon="13.742427477288487"><ele>1038.0</ele><time>2026-05-02T10:17:55.999Z</time></trkpt><trkpt lat="42.20104304834546" lon="13.742355482061166"><ele>1038.0</ele><time>2026-05-02T10:17:56.999Z</time></trkpt><trkpt lat="42.2010938054204" lon="13.742289869841212"><ele>1038.0</ele><time>2026-05-02T10:17:57.999Z</time></trkpt><trkpt lat="42.2011592793305" lon="13.742219778777393"><ele>1038.0</ele><time>2026-05-02T10:17:58.999Z</time></trkpt><trkpt lat="42.20121545060017" lon="13.742146807643609"><ele>1038.0</ele><time>2026-05-02T10:17:59.999Z</time></trkpt><trkpt lat="42.20127211019341" lon="13.74207800750126"><ele>1038.0</ele><time>2026-05-02T10:18:00.999Z</time></trkpt><trkpt lat="42.2013284015205" lon="13.742015436640038"><ele>1038.0</ele><time>2026-05-02T10:18:01.999Z</time></trkpt><trkpt lat="42.20138475659809" lon="13.741964155981183"><ele>1038.0</ele><time>2026-05-02T10:18:02.999Z</time></trkpt><trkpt lat="42.2014369921977" lon="13.741888721109742"><ele>1038.0</ele><time>2026-05-02T10:18:03.999Z</time></trkpt><trkpt lat="42.20148378544714" lon="13.741819530862942"><ele>1038.0</ele><time>2026-05-02T10:18:04.999Z</time></trkpt><trkpt lat="42.20153728813007" lon="13.741732690809213"><ele>1038.0</ele><time>2026-05-02T10:18:05.999Z</time></trkpt><trkpt lat="42.20157879806802" lon="13.741662799552213"><ele>1038.0</ele><time>2026-05-02T10:18:06.999Z</time></trkpt><trkpt lat="42.20162296489061" lon="13.741588078753718"><ele>1038.0</ele><time>2026-05-02T10:18:07.999Z</time></trkpt><trkpt lat="42.201674963821446" lon="13.741515907495806"><ele>1035.6666666666667</ele><time>2026-05-02T10:18:08.999Z</time></trkpt><trkpt lat="42.20172996023496" lon="13.741447328045004"><ele>1033.3333333333333</ele><time>2026-05-02T10:18:09.999Z</time></trkpt><trkpt lat="42.20178354283736" lon="13.741391504360887"><ele>1031.0</ele><time>2026-05-02T10:18:10.999Z</time></trkpt><trkpt lat="42.201847204938446" lon="13.741337436162306"><ele>1028.6666666666665</ele><time>2026-05-02T10:18:11.999Z</time></trkpt><trkpt lat="42.20192324237084" lon="13.741315096497974"><ele>1026.3333333333333</ele><time>2026-05-02T10:18:12.999Z</time></trkpt><trkpt lat="42.202014224404074" lon="13.741302261065462"><ele>1024.0</ele><time>2026-05-02T10:18:13.999Z</time></trkpt><trkpt lat="42.2021094049942" lon="13.741299078787197"><ele>1024.0</ele><time>2026-05-02T10:18:14.999Z</time></trkpt><trkpt lat="42.20220633015371" lon="13.741292268706191"><ele>1024.0</ele><time>2026-05-02T10:18:15.999Z</time></trkpt><trkpt lat="42.20233468729188" lon="13.741251622798655"><ele>1024.0</ele><time>2026-05-02T10:18:16.999Z</time></trkpt><trkpt lat="42.20245302679316" lon="13.741233869793444"><ele>1024.0</ele><time>2026-05-02T10:18:17.999Z</time></trkpt><trkpt lat="42.20256406088078" lon="13.741216562835678"><ele>1019.0</ele><time>2026-05-02T10:18:18.999Z</time></trkpt><trkpt lat="42.202656685421836" lon="13.7411914599336"><ele>1014.0000000000001</ele><time>2026-05-02T10:18:19.999Z</time></trkpt><trkpt lat="42.20276991417254" lon="13.741159167877097"><ele>1009.0000000000001</ele><time>2026-05-02T10:18:20.999Z</time></trkpt><trkpt lat="42.202871764584785" lon="13.741126860264117"><ele>1004.0</ele><time>2026-05-02T10:18:21.999Z</time></trkpt><trkpt lat="42.20296733175864" lon="13.741112988718346"><ele>999.0</ele><time>2026-05-02T10:18:22.999Z</time></trkpt><trkpt lat="42.20306419919394" lon="13.741081473763439"><ele>1000.4000000000001</ele><time>2026-05-02T10:18:23.999Z</time></trkpt><trkpt lat="42.20315460301813" lon="13.741045383671263"><ele>1001.8000000000001</ele><time>2026-05-02T10:18:24.999Z</time></trkpt><trkpt lat="42.20324555902962" lon="13.74100340820408"><ele>1003.1999999999999</ele><time>2026-05-02T10:18:25.999Z</time></trkpt><trkpt lat="42.20335260132227" lon="13.740955993760355"><ele>1004.5999999999999</ele><time>2026-05-02T10:18:26.999Z</time></trkpt><trkpt lat="42.20343485199597" lon="13.740920633195847"><ele>1006.0</ele><time>2026-05-02T10:18:27.999Z</time></trkpt><trkpt lat="42.20349729007917" lon="13.740885322669772"><ele>1005.9999999999999</ele><time>2026-05-02T10:18:28.999Z</time></trkpt><trkpt lat="42.203556841982476" lon="13.74084056136555"><ele>1006.0</ele><time>2026-05-02T10:18:29.999Z</time></trkpt><trkpt lat="42.20364791110091" lon="13.740750274174232"><ele>1006.0</ele><time>2026-05-02T10:18:31.999Z</time></trkpt><trkpt lat="42.203711676022735" lon="13.740678176612102"><ele>1006.0</ele><time>2026-05-02T10:18:32.999Z</time></trkpt><trkpt lat="42.20376353419926" lon="13.740605049588588"><ele>1005.9999999999999</ele><time>2026-05-02T10:18:33.999Z</time></trkpt><trkpt lat="42.20381898743241" lon="13.740519855146841"><ele>1006.0</ele><time>2026-05-02T10:18:34.999Z</time></trkpt><trkpt lat="42.203866533254015" lon="13.740425057763662"><ele>1005.9999999999999</ele><time>2026-05-02T10:18:35.999Z</time></trkpt><trkpt lat="42.203906509779486" lon="13.74031992867214"><ele>1006.0</ele><time>2026-05-02T10:18:36.999Z</time></trkpt><trkpt lat="42.20394430395108" lon="13.740239634125642"><ele>1006.0</ele><time>2026-05-02T10:18:37.999Z</time></trkpt><trkpt lat="42.20399684694205" lon="13.740146436199195"><ele>1006.0</ele><time>2026-05-02T10:18:38.999Z</time></trkpt><trkpt lat="42.20405242437945" lon="13.740069588820175"><ele>1005.9999999999999</ele><time>2026-05-02T10:18:39.999Z</time></trkpt><trkpt lat="42.2041190166123" lon="13.73999845008898"><ele>1006.0</ele><time>2026-05-02T10:18:40.999Z</time></trkpt><trkpt lat="42.20419277754989" lon="13.739919226617307"><ele>1004.8</ele><time>2026-05-02T10:18:41.999Z</time></trkpt><trkpt lat="42.20427856273686" lon="13.739826352933488"><ele>1003.5999999999999</ele><time>2026-05-02T10:18:42.999Z</time></trkpt><trkpt lat="42.20436864486607" lon="13.739750820051201"><ele>1002.4</ele><time>2026-05-02T10:18:43.999Z</time></trkpt><trkpt lat="42.204470759148556" lon="13.739699871437583"><ele>1001.2</ele><time>2026-05-02T10:18:44.999Z</time></trkpt><trkpt lat="42.204589217683626" lon="13.739666730893706"><ele>1000.0</ele><time>2026-05-02T10:18:45.999Z</time></trkpt><trkpt lat="42.20469272661334" lon="13.739633406441554"><ele>999.9999999999999</ele><time>2026-05-02T10:18:46.999Z</time></trkpt><trkpt lat="42.20477367847624" lon="13.73961368041648"><ele>1000.0</ele><time>2026-05-02T10:18:47.999Z</time></trkpt><trkpt lat="42.20485109531646" lon="13.739571277085062"><ele>1000.0</ele><time>2026-05-02T10:18:48.999Z</time></trkpt><trkpt lat="42.20491409628755" lon="13.739520659948274"><ele>1000.0</ele><time>2026-05-02T10:18:49.999Z</time></trkpt><trkpt lat="42.20496281497023" lon="13.73945124253035"><ele>999.9999999999999</ele><time>2026-05-02T10:18:50.999Z</time></trkpt><trkpt lat="42.20504346161605" lon="13.739310967553317"><ele>1000.0</ele><time>2026-05-02T10:18:52.999Z</time></trkpt><trkpt lat="42.205105851521765" lon="13.739198176186003"><ele>998.1666666666666</ele><time>2026-05-02T10:18:53.999Z</time></trkpt><trkpt lat="42.205169709777785" lon="13.739108173692495"><ele>996.3333333333333</ele><time>2026-05-02T10:18:54.999Z</time></trkpt><trkpt lat="42.20522592543013" lon="13.739057978360371"><ele>994.5</ele><time>2026-05-02T10:18:55.999Z</time></trkpt><trkpt lat="42.20529263232842" lon="13.739042173706256"><ele>992.6666666666667</ele><time>2026-05-02T10:18:56.999Z</time></trkpt><trkpt lat="42.205368920548864" lon="13.739034132596455"><ele>990.8333333333334</ele><time>2026-05-02T10:18:57.999Z</time></trkpt><trkpt lat="42.20547324859454" lon="13.739016218793664"><ele>989.0</ele><time>2026-05-02T10:18:58.999Z</time></trkpt><trkpt lat="42.20557561795163" lon="13.738994514709312"><ele>987.6</ele><time>2026-05-02T10:18:59.999Z</time></trkpt><trkpt lat="42.20567805368374" lon="13.73897623803323"><ele>986.2</ele><time>2026-05-02T10:19:00.999Z</time></trkpt><trkpt lat="42.205778862067696" lon="13.738946525014919"><ele>984.8000000000001</ele><time>2026-05-02T10:19:01.999Z</time></trkpt><trkpt lat="42.20587145362726" lon="13.73889848047767"><ele>983.4000000000001</ele><time>2026-05-02T10:19:02.999Z</time></trkpt><trkpt lat="42.20596493732239" lon="13.738847168759069"><ele>982.0</ele><time>2026-05-02T10:19:03.999Z</time></trkpt><trkpt lat="42.20605707307693" lon="13.73879236132206"><ele>981.9999999999999</ele><time>2026-05-02T10:19:04.999Z</time></trkpt><trkpt lat="42.20613768568178" lon="13.738737707570223"><ele>982.0</ele><time>2026-05-02T10:19:05.999Z</time></trkpt><trkpt lat="42.20620611553052" lon="13.738709663324988"><ele>982.0</ele><time>2026-05-02T10:19:06.999Z</time></trkpt><trkpt lat="42.206279043939276" lon="13.738700262966775"><ele>982.0</ele><time>2026-05-02T10:19:07.999Z</time></trkpt><trkpt lat="42.20636732857938" lon="13.738718918127903"><ele>981.9999999999999</ele><time>2026-05-02T10:19:08.999Z</time></trkpt><trkpt lat="42.206482067341135" lon="13.738745889801834"><ele>982.0</ele><time>2026-05-02T10:19:09.999Z</time></trkpt><trkpt lat="42.20658511980556" lon="13.738788980229476"><ele>982.0</ele><time>2026-05-02T10:19:10.999Z</time></trkpt><trkpt lat="42.20668691395242" lon="13.738811172307694"><ele>982.0</ele><time>2026-05-02T10:19:11.999Z</time></trkpt><trkpt lat="42.2067836641575" lon="13.738807401915441"><ele>982.0</ele><time>2026-05-02T10:19:12.999Z</time></trkpt><trkpt lat="42.20687840892386" lon="13.738810816980271"><ele>982.0</ele><time>2026-05-02T10:19:13.999Z</time></trkpt><trkpt lat="42.2069757957701" lon="13.738817409889998"><ele>982.0</ele><time>2026-05-02T10:19:14.999Z</time></trkpt><trkpt lat="42.207069541196745" lon="13.738817323850688"><ele>981.9999999999999</ele><time>2026-05-02T10:19:15.999Z</time></trkpt><trkpt lat="42.20716339014083" lon="13.738804328082415"><ele>982.0</ele><time>2026-05-02T10:19:16.999Z</time></trkpt><trkpt lat="42.20723731162818" lon="13.738761885111558"><ele>982.0</ele><time>2026-05-02T10:19:17.999Z</time></trkpt><trkpt lat="42.20730280876774" lon="13.738714325203313"><ele>982.0</ele><time>2026-05-02T10:19:18.999Z</time></trkpt><trkpt lat="42.207378033613566" lon="13.73865159920413"><ele>981.9999999999999</ele><time>2026-05-02T10:19:19.999Z</time></trkpt><trkpt lat="42.20744974893118" lon="13.738584136083634"><ele>982.0</ele><time>2026-05-02T10:19:20.999Z</time></trkpt><trkpt lat="42.20750749827528" lon="13.738516944603917"><ele>984.2</ele><time>2026-05-02T10:19:21.999Z</time></trkpt><trkpt lat="42.207567663991156" lon="13.738431392116722"><ele>986.4000000000001</ele><time>2026-05-02T10:19:22.999Z</time></trkpt><trkpt lat="42.20764242474855" lon="13.738320409174941"><ele>988.5999999999999</ele><time>2026-05-02T10:19:23.999Z</time></trkpt><trkpt lat="42.20771441538475" lon="13.738209004862556"><ele>990.8</ele><time>2026-05-02T10:19:24.999Z</time></trkpt><trkpt lat="42.207775502243535" lon="13.738113944446233"><ele>993.0</ele><time>2026-05-02T10:19:25.999Z</time></trkpt><trkpt lat="42.207839828813896" lon="13.73803199397524"><ele>993.0</ele><time>2026-05-02T10:19:26.999Z</time></trkpt><trkpt lat="42.2079043261369" lon="13.737955613600944"><ele>993.0</ele><time>2026-05-02T10:19:27.999Z</time></trkpt><trkpt lat="42.20798227610741" lon="13.737892497766806"><ele>993.0</ele><time>2026-05-02T10:19:28.999Z</time></trkpt><trkpt lat="42.2080476504067" lon="13.737838811459305"><ele>993.0</ele><time>2026-05-02T10:19:29.999Z</time></trkpt><trkpt lat="42.208111994450334" lon="13.737786912517237"><ele>993.0</ele><time>2026-05-02T10:19:30.999Z</time></trkpt><trkpt lat="42.20818091986998" lon="13.737740195685141"><ele>993.0</ele><time>2026-05-02T10:19:31.999Z</time></trkpt><trkpt lat="42.2082639473044" lon="13.737688233064922"><ele>993.8</ele><time>2026-05-02T10:19:32.998Z</time></trkpt><trkpt lat="42.208360877923596" lon="13.737636741774498"><ele>994.5999999999999</ele><time>2026-05-02T10:19:33.998Z</time></trkpt><trkpt lat="42.208466043650645" lon="13.737588957201867"><ele>995.4000000000001</ele><time>2026-05-02T10:19:34.998Z</time></trkpt><trkpt lat="42.20856755451259" lon="13.737543848611779"><ele>996.2</ele><time>2026-05-02T10:19:35.998Z</time></trkpt><trkpt lat="42.20867476432624" lon="13.73749666129028"><ele>997.0</ele><time>2026-05-02T10:19:36.998Z</time></trkpt><trkpt lat="42.20877339226132" lon="13.73744612707029"><ele>997.0</ele><time>2026-05-02T10:19:37.998Z</time></trkpt><trkpt lat="42.208876370960915" lon="13.73739296294007"><ele>997.0</ele><time>2026-05-02T10:19:38.998Z</time></trkpt><trkpt lat="42.208973238423994" lon="13.737343264257373"><ele>997.0</ele><time>2026-05-02T10:19:39.998Z</time></trkpt><trkpt lat="42.20908322253364" lon="13.737301474761335"><ele>997.0</ele><time>2026-05-02T10:19:40.998Z</time></trkpt><trkpt lat="42.209179654830436" lon="13.7372511855149"><ele>997.0</ele><time>2026-05-02T10:19:41.998Z</time></trkpt><trkpt lat="42.20927345586653" lon="13.737200761750943"><ele>998.6</ele><time>2026-05-02T10:19:42.998Z</time></trkpt><trkpt lat="42.20935245220736" lon="13.737156466126036"><ele>1000.2</ele><time>2026-05-02T10:19:43.998Z</time></trkpt><trkpt lat="42.20942444844998" lon="13.737133402830814"><ele>1001.8</ele><time>2026-05-02T10:19:44.998Z</time></trkpt><trkpt lat="42.20953952259806" lon="13.737078588752995"><ele>1003.4</ele><time>2026-05-02T10:19:46.998Z</time></trkpt><trkpt lat="42.209633399181676" lon="13.737000660910585"><ele>1005.0</ele><time>2026-05-02T10:19:48.998Z</time></trkpt><trkpt lat="42.20972408670083" lon="13.736877084564073"><ele>1005.0</ele><time>2026-05-02T10:19:50.998Z</time></trkpt><trkpt lat="42.20977476511273" lon="13.736796316899596"><ele>1005.0</ele><time>2026-05-02T10:19:51.998Z</time></trkpt><trkpt lat="42.209838120377086" lon="13.736718557575694"><ele>1005.0</ele><time>2026-05-02T10:19:52.998Z</time></trkpt><trkpt lat="42.209902925025624" lon="13.736642876302772"><ele>1005.0</ele><time>2026-05-02T10:19:53.998Z</time></trkpt><trkpt lat="42.20996936403689" lon="13.736580692981386"><ele>1005.0</ele><time>2026-05-02T10:19:54.998Z</time></trkpt><trkpt lat="42.210025536805105" lon="13.736497282677437"><ele>1005.0</ele><time>2026-05-02T10:19:55.998Z</time></trkpt><trkpt lat="42.210090851402775" lon="13.736415502060085"><ele>1002.6666666666666</ele><time>2026-05-02T10:19:56.998Z</time></trkpt><trkpt lat="42.21015660720872" lon="13.736337012063393"><ele>1000.3333333333333</ele><time>2026-05-02T10:19:57.998Z</time></trkpt><trkpt lat="42.21021323794427" lon="13.736282628519502"><ele>998.0</ele><time>2026-05-02T10:19:58.998Z</time></trkpt><trkpt lat="42.21027688906018" lon="13.736198929127005"><ele>995.6666666666666</ele><time>2026-05-02T10:20:00.998Z</time></trkpt><trkpt lat="42.210329620897326" lon="13.736141523559052"><ele>993.3333333333333</ele><time>2026-05-02T10:20:02.998Z</time></trkpt><trkpt lat="42.21023721660109" lon="13.736079834299606"><ele>991.0</ele><time>2026-05-02T10:20:06.998Z</time></trkpt><trkpt lat="42.21014371079608" lon="13.736049980443884"><ele>990.9999999999999</ele><time>2026-05-02T10:20:08.998Z</time></trkpt><trkpt lat="42.210054610979796" lon="13.735960344081285"><ele>991.0</ele><time>2026-05-02T10:20:10.998Z</time></trkpt><trkpt lat="42.2099570822335" lon="13.735869018961266"><ele>991.0</ele><time>2026-05-02T10:20:12.998Z</time></trkpt><trkpt lat="42.20989800633463" lon="13.735815522174494"><ele>991.0</ele><time>2026-05-02T10:20:13.998Z</time></trkpt><trkpt lat="42.209838421398686" lon="13.735754132850728"><ele>990.9999999999999</ele><time>2026-05-02T10:20:14.998Z</time></trkpt><trkpt lat="42.20978511936344" lon="13.735698359445033"><ele>991.0</ele><time>2026-05-02T10:20:15.998Z</time></trkpt><trkpt lat="42.20972742674464" lon="13.735638695051971"><ele>993.6666666666666</ele><time>2026-05-02T10:20:16.998Z</time></trkpt><trkpt lat="42.209676489662016" lon="13.735578098371388"><ele>996.3333333333333</ele><time>2026-05-02T10:20:17.998Z</time></trkpt><trkpt lat="42.2096208403868" lon="13.735520323979545"><ele>999.0</ele><time>2026-05-02T10:20:18.998Z</time></trkpt><trkpt lat="42.20956103582661" lon="13.735442930339483"><ele>1001.6666666666667</ele><time>2026-05-02T10:20:19.998Z</time></trkpt><trkpt lat="42.20951419472056" lon="13.735337211975965"><ele>1004.3333333333334</ele><time>2026-05-02T10:20:20.998Z</time></trkpt><trkpt lat="42.20943351849912" lon="13.735285703121216"><ele>1007.0</ele><time>2026-05-02T10:20:21.998Z</time></trkpt><trkpt lat="42.209372370525614" lon="13.735219318675384"><ele>1007.0</ele><time>2026-05-02T10:20:22.998Z</time></trkpt><trkpt lat="42.20930016582381" lon="13.735157535473183"><ele>1007.0</ele><time>2026-05-02T10:20:23.998Z</time></trkpt><trkpt lat="42.20921446546535" lon="13.735113854899339"><ele>1007.0</ele><time>2026-05-02T10:20:24.998Z</time></trkpt><trkpt lat="42.20910735292226" lon="13.735088078627854"><ele>1007.0</ele><time>2026-05-02T10:20:25.998Z</time></trkpt><trkpt lat="42.20898776923469" lon="13.735066682291043"><ele>1007.0</ele><time>2026-05-02T10:20:26.998Z</time></trkpt><trkpt lat="42.20888092439154" lon="13.735065478020884"><ele>1012.5</ele><time>2026-05-02T10:20:27.998Z</time></trkpt><trkpt lat="42.20876914239945" lon="13.735059369742991"><ele>1018.0</ele><time>2026-05-02T10:20:28.998Z</time></trkpt><trkpt lat="42.208644876186526" lon="13.735065766911575"><ele>1023.5</ele><time>2026-05-02T10:20:29.998Z</time></trkpt><trkpt lat="42.2085260006428" lon="13.735087965600073"><ele>1029.0</ele><time>2026-05-02T10:20:30.998Z</time></trkpt><trkpt lat="42.20842748993381" lon="13.735134790887649"><ele>1029.0</ele><time>2026-05-02T10:20:31.998Z</time></trkpt><trkpt lat="42.20834283039598" lon="13.735193967193986"><ele>1029.0</ele><time>2026-05-02T10:20:32.998Z</time></trkpt><trkpt lat="42.20826251077906" lon="13.735252791060425"><ele>1029.0</ele><time>2026-05-02T10:20:33.998Z</time></trkpt><trkpt lat="42.2081885722124" lon="13.735332001984585"><ele>1029.0</ele><time>2026-05-02T10:20:34.998Z</time></trkpt><trkpt lat="42.208119525000235" lon="13.735426193221711"><ele>1029.0</ele><time>2026-05-02T10:20:35.998Z</time></trkpt><trkpt lat="42.20806501629788" lon="13.735548113994092"><ele>1031.75</ele><time>2026-05-02T10:20:36.998Z</time></trkpt><trkpt lat="42.20803019259894" lon="13.735693313708762"><ele>1034.5</ele><time>2026-05-02T10:20:37.998Z</time></trkpt><trkpt lat="42.20798627802081" lon="13.735829715890189"><ele>1037.25</ele><time>2026-05-02T10:20:38.998Z</time></trkpt><trkpt lat="42.20792874514812" lon="13.735960689355187"><ele>1040.0</ele><time>2026-05-02T10:20:39.998Z</time></trkpt><trkpt lat="42.20787124853583" lon="13.736097290543624"><ele>1040.0</ele><time>2026-05-02T10:20:40.998Z</time></trkpt><trkpt lat="42.20781311435623" lon="13.736218712879774"><ele>1040.0</ele><time>2026-05-02T10:20:41.998Z</time></trkpt><trkpt lat="42.20775107693491" lon="13.73632875877727"><ele>1040.0</ele><time>2026-05-02T10:20:42.998Z</time></trkpt><trkpt lat="42.207687320015175" lon="13.73644168117739"><ele>1040.0</ele><time>2026-05-02T10:20:43.998Z</time></trkpt><trkpt lat="42.20761969314343" lon="13.736547542542098"><ele>1040.0</ele><time>2026-05-02T10:20:44.998Z</time></trkpt><trkpt lat="42.2075430246118" lon="13.736643395715554"><ele>1040.0</ele><time>2026-05-02T10:20:45.998Z</time></trkpt><trkpt lat="42.207460058566205" lon="13.736728404964488"><ele>1040.0</ele><time>2026-05-02T10:20:46.998Z</time></trkpt><trkpt lat="42.20737805244753" lon="13.736808005260453"><ele>1040.0</ele><time>2026-05-02T10:20:47.998Z</time></trkpt><trkpt lat="42.20729863789066" lon="13.736864219405327"><ele>1040.0</ele><time>2026-05-02T10:20:48.998Z</time></trkpt><trkpt lat="42.207229041049786" lon="13.73689941858803"><ele>1040.0</ele><time>2026-05-02T10:20:49.998Z</time></trkpt><trkpt lat="42.207113643355115" lon="13.736910099672174"><ele>1040.2</ele><time>2026-05-02T10:20:51.998Z</time></trkpt><trkpt lat="42.20703617159701" lon="13.736837097938864"><ele>1040.4</ele><time>2026-05-02T10:20:53.998Z</time></trkpt><trkpt lat="42.20699107858236" lon="13.736686234553202"><ele>1040.6</ele><time>2026-05-02T10:20:55.998Z</time></trkpt><trkpt lat="42.206967507990434" lon="13.736602398324102"><ele>1040.8</ele><time>2026-05-02T10:20:56.998Z</time></trkpt><trkpt lat="42.20694110076895" lon="13.736498302313839"><ele>1041.0</ele><time>2026-05-02T10:20:57.998Z</time></trkpt><trkpt lat="42.20689816980681" lon="13.73637693547365"><ele>1041.0</ele><time>2026-05-02T10:20:58.998Z</time></trkpt><trkpt lat="42.20686872481317" lon="13.73623568385069"><ele>1041.0</ele><time>2026-05-02T10:20:59.998Z</time></trkpt><trkpt lat="42.2068567762058" lon="13.736099049846015"><ele>1041.0</ele><time>2026-05-02T10:21:00.998Z</time></trkpt><trkpt lat="42.20684757678386" lon="13.735973737493016"><ele>1041.0</ele><time>2026-05-02T10:21:01.998Z</time></trkpt><trkpt lat="42.206834738156324" lon="13.735848634808251"><ele>1041.0</ele><time>2026-05-02T10:21:02.998Z</time></trkpt><trkpt lat="42.20682928321133" lon="13.735735477350064"><ele>1042.7142857142858</ele><time>2026-05-02T10:21:03.998Z</time></trkpt><trkpt lat="42.20681920688977" lon="13.73564174968003"><ele>1044.4285714285716</ele><time>2026-05-02T10:21:04.998Z</time></trkpt><trkpt lat="42.20679733293532" lon="13.735553157422547"><ele>1046.142857142857</ele><time>2026-05-02T10:21:05.998Z</time></trkpt><trkpt lat="42.20677478080498" lon="13.735456248645459"><ele>1047.857142857143</ele><time>2026-05-02T10:21:06.998Z</time></trkpt><trkpt lat="42.20673491813548" lon="13.735372535470887"><ele>1049.5714285714284</ele><time>2026-05-02T10:21:07.998Z</time></trkpt><trkpt lat="42.20669702368858" lon="13.735284175135854"><ele>1051.2857142857142</ele><time>2026-05-02T10:21:08.998Z</time></trkpt><trkpt lat="42.206659698007506" lon="13.735180987591693"><ele>1053.0</ele><time>2026-05-02T10:21:09.998Z</time></trkpt><trkpt lat="42.20662488787678" lon="13.735065290591368"><ele>1055.4</ele><time>2026-05-02T10:21:10.998Z</time></trkpt><trkpt lat="42.206595140056" lon="13.734951910531839"><ele>1057.8</ele><time>2026-05-02T10:21:11.998Z</time></trkpt><trkpt lat="42.206556067834676" lon="13.734831659995615"><ele>1060.2</ele><time>2026-05-02T10:21:12.998Z</time></trkpt><trkpt lat="42.20655410217939" lon="13.734700073954127"><ele>1062.6</ele><time>2026-05-02T10:21:13.998Z</time></trkpt><trkpt lat="42.20656349320869" lon="13.73456721879699"><ele>1065.0</ele><time>2026-05-02T10:21:14.998Z</time></trkpt><trkpt lat="42.20658277842772" lon="13.734433991504304"><ele>1066.4</ele><time>2026-05-02T10:21:15.998Z</time></trkpt><trkpt lat="42.2065883236626" lon="13.734285461796047"><ele>1067.8</ele><time>2026-05-02T10:21:16.998Z</time></trkpt><trkpt lat="42.20658581405139" lon="13.734139438957506"><ele>1069.2</ele><time>2026-05-02T10:21:17.998Z</time></trkpt><trkpt lat="42.206621265654874" lon="13.733988020860757"><ele>1070.6</ele><time>2026-05-02T10:21:18.998Z</time></trkpt><trkpt lat="42.206656215743784" lon="13.733843214382816"><ele>1072.0</ele><time>2026-05-02T10:21:19.998Z</time></trkpt><trkpt lat="42.20665059361034" lon="13.733714862133517"><ele>1072.0</ele><time>2026-05-02T10:21:20.998Z</time></trkpt><trkpt lat="42.20664065648308" lon="13.733592824415851"><ele>1072.0</ele><time>2026-05-02T10:21:21.998Z</time></trkpt><trkpt lat="42.20661638299814" lon="13.73346531620678"><ele>1072.0</ele><time>2026-05-02T10:21:22.998Z</time></trkpt><trkpt lat="42.20658294960741" lon="13.733344482643057"><ele>1072.0</ele><time>2026-05-02T10:21:23.998Z</time></trkpt><trkpt lat="42.20652718781234" lon="13.73321748279237"><ele>1072.0</ele><time>2026-05-02T10:21:24.998Z</time></trkpt><trkpt lat="42.20647209003763" lon="13.73309585168405"><ele>1076.0</ele><time>2026-05-02T10:21:25.998Z</time></trkpt><trkpt lat="42.206406348494305" lon="13.73296599704374"><ele>1080.0</ele><time>2026-05-02T10:21:26.998Z</time></trkpt><trkpt lat="42.2064032389474" lon="13.732795167724817"><ele>1084.0</ele><time>2026-05-02T10:21:27.998Z</time></trkpt><trkpt lat="42.2062754024992" lon="13.732743262066064"><ele>1088.0</ele><time>2026-05-02T10:21:28.998Z</time></trkpt><trkpt lat="42.20619908503385" lon="13.732662133763974"><ele>1089.4</ele><time>2026-05-02T10:21:29.998Z</time></trkpt><trkpt lat="42.20613626541903" lon="13.732587008193088"><ele>1090.8</ele><time>2026-05-02T10:21:30.998Z</time></trkpt><trkpt lat="42.2060812752835" lon="13.732422459776128"><ele>1092.2</ele><time>2026-05-02T10:21:32.998Z</time></trkpt><trkpt lat="42.20606680257886" lon="13.732305453145667"><ele>1093.6</ele><time>2026-05-02T10:21:33.998Z</time></trkpt><trkpt lat="42.20612472476673" lon="13.732162955496637"><ele>1095.0</ele><time>2026-05-02T10:21:34.998Z</time></trkpt><trkpt lat="42.206060560605344" lon="13.732035098715226"><ele>1095.0</ele><time>2026-05-02T10:21:35.998Z</time></trkpt><trkpt lat="42.20606379002594" lon="13.731905784401478"><ele>1095.0</ele><time>2026-05-02T10:21:36.998Z</time></trkpt><trkpt lat="42.20605582410038" lon="13.731780006337397"><ele>1095.0</ele><time>2026-05-02T10:21:37.998Z</time></trkpt><trkpt lat="42.206080414033806" lon="13.731630020646719"><ele>1095.0</ele><time>2026-05-02T10:21:38.998Z</time></trkpt><trkpt lat="42.206059713298444" lon="13.731513586098737"><ele>1095.0</ele><time>2026-05-02T10:21:39.998Z</time></trkpt><trkpt lat="42.206028261416726" lon="13.731390172299292"><ele>1097.1666666666667</ele><time>2026-05-02T10:21:40.998Z</time></trkpt><trkpt lat="42.205944721783915" lon="13.731293947728716"><ele>1099.3333333333333</ele><time>2026-05-02T10:21:41.998Z</time></trkpt><trkpt lat="42.205900055503676" lon="13.731191999453033"><ele>1101.5</ele><time>2026-05-02T10:21:42.998Z</time></trkpt><trkpt lat="42.20585129396669" lon="13.731081051029253"><ele>1103.6666666666665</ele><time>2026-05-02T10:21:43.998Z</time></trkpt><trkpt lat="42.20580527824023" lon="13.730980611483712"><ele>1105.8333333333333</ele><time>2026-05-02T10:21:44.998Z</time></trkpt><trkpt lat="42.20577831250514" lon="13.730898591795395"><ele>1108.0</ele><time>2026-05-02T10:21:45.998Z</time></trkpt><trkpt lat="42.205761979786736" lon="13.730808464005698"><ele>1110.2</ele><time>2026-05-02T10:21:46.998Z</time></trkpt><trkpt lat="42.20578048225145" lon="13.73067504690643"><ele>1112.4</ele><time>2026-05-02T10:21:47.998Z</time></trkpt><trkpt lat="42.20571352580587" lon="13.730586419591942"><ele>1114.6000000000001</ele><time>2026-05-02T10:21:48.998Z</time></trkpt><trkpt lat="42.20566576342876" lon="13.730499602397702"><ele>1116.8</ele><time>2026-05-02T10:21:49.998Z</time></trkpt><trkpt lat="42.20560101031989" lon="13.730406904918008"><ele>1119.0</ele><time>2026-05-02T10:21:50.998Z</time></trkpt><trkpt lat="42.205556574671355" lon="13.730312199686473"><ele>1121.1666666666667</ele><time>2026-05-02T10:21:51.998Z</time></trkpt><trkpt lat="42.20552106772439" lon="13.73021037917762"><ele>1123.3333333333333</ele><time>2026-05-02T10:21:52.998Z</time></trkpt><trkpt lat="42.2054968350845" lon="13.730109733673217"><ele>1125.5</ele><time>2026-05-02T10:21:53.998Z</time></trkpt><trkpt lat="42.205458873367384" lon="13.730020192397108"><ele>1127.6666666666665</ele><time>2026-05-02T10:21:54.998Z</time></trkpt><trkpt lat="42.205414838721815" lon="13.729943948443408"><ele>1129.8333333333333</ele><time>2026-05-02T10:21:55.998Z</time></trkpt><trkpt lat="42.20532688736415" lon="13.72985646536894"><ele>1132.0</ele><time>2026-05-02T10:21:56.998Z</time></trkpt><trkpt lat="42.20524254428334" lon="13.729738938260105"><ele>1132.0</ele><time>2026-05-02T10:21:57.998Z</time></trkpt><trkpt lat="42.20516395573832" lon="13.729580735749895"><ele>1132.0</ele><time>2026-05-02T10:21:58.998Z</time></trkpt><trkpt lat="42.20508982077785" lon="13.729438035612567"><ele>1132.0</ele><time>2026-05-02T10:21:59.998Z</time></trkpt><trkpt lat="42.2050288678107" lon="13.729335284163858"><ele>1132.0</ele><time>2026-05-02T10:22:00.998Z</time></trkpt><trkpt lat="42.2049773518588" lon="13.72926007218119"><ele>1132.0</ele><time>2026-05-02T10:22:01.998Z</time></trkpt><trkpt lat="42.20492325345633" lon="13.729188914662394"><ele>1132.6</ele><time>2026-05-02T10:22:02.998Z</time></trkpt><trkpt lat="42.204819514872284" lon="13.72907599128515"><ele>1133.2</ele><time>2026-05-02T10:22:04.998Z</time></trkpt><trkpt lat="42.20470313748968" lon="13.729001862167522"><ele>1133.8</ele><time>2026-05-02T10:22:06.998Z</time></trkpt><trkpt lat="42.20462472627062" lon="13.728975490009045"><ele>1134.4</ele><time>2026-05-02T10:22:07.998Z</time></trkpt><trkpt lat="42.204538767584076" lon="13.728941191184862"><ele>1135.0</ele><time>2026-05-02T10:22:08.998Z</time></trkpt><trkpt lat="42.20447892834276" lon="13.728899495955613"><ele>1135.0</ele><time>2026-05-02T10:22:09.998Z</time></trkpt><trkpt lat="42.204406640040204" lon="13.728857860820842"><ele>1135.0</ele><time>2026-05-02T10:22:10.998Z</time></trkpt><trkpt lat="42.20430551692718" lon="13.72879030711512"><ele>1135.0</ele><time>2026-05-02T10:22:12.998Z</time></trkpt><trkpt lat="42.20420133939933" lon="13.728705961254217"><ele>1135.0</ele><time>2026-05-02T10:22:14.998Z</time></trkpt><trkpt lat="42.204101435525445" lon="13.728630900248387"><ele>1135.0</ele><time>2026-05-02T10:22:16.998Z</time></trkpt><trkpt lat="42.20402386395369" lon="13.728580979071378"><ele>1134.0</ele><time>2026-05-02T10:22:17.998Z</time></trkpt><trkpt lat="42.20390800638241" lon="13.728458701083762"><ele>1133.0</ele><time>2026-05-02T10:22:19.998Z</time></trkpt><trkpt lat="42.20377714398492" lon="13.728401250791169"><ele>1132.0</ele><time>2026-05-02T10:22:21.998Z</time></trkpt><trkpt lat="42.20367803815224" lon="13.728422638840017"><ele>1131.0</ele><time>2026-05-02T10:22:22.998Z</time></trkpt><trkpt lat="42.203555858891235" lon="13.728464460777612"><ele>1131.0</ele><time>2026-05-02T10:22:23.998Z</time></trkpt><trkpt lat="42.203438499261594" lon="13.72850531766724"><ele>1131.0</ele><time>2026-05-02T10:22:24.998Z</time></trkpt><trkpt lat="42.2033245584894" lon="13.728538617977788"><ele>1131.0</ele><time>2026-05-02T10:22:25.998Z</time></trkpt><trkpt lat="42.203228484510845" lon="13.728560541351543"><ele>1131.0</ele><time>2026-05-02T10:22:26.998Z</time></trkpt><trkpt lat="42.20311228511732" lon="13.728576319940634"><ele>1133.5</ele><time>2026-05-02T10:22:27.998Z</time></trkpt><trkpt lat="42.20296116532462" lon="13.728576454206094"><ele>1136.0</ele><time>2026-05-02T10:22:28.998Z</time></trkpt><trkpt lat="42.20281206130788" lon="13.72858041120685"><ele>1138.5</ele><time>2026-05-02T10:22:29.998Z</time></trkpt><trkpt lat="42.20266650826544" lon="13.728587480596234"><ele>1141.0</ele><time>2026-05-02T10:22:30.998Z</time></trkpt><trkpt lat="42.20254230038033" lon="13.72860419428294"><ele>1141.0</ele><time>2026-05-02T10:22:31.998Z</time></trkpt><trkpt lat="42.20242035752237" lon="13.728622593788595"><ele>1141.0</ele><time>2026-05-02T10:22:32.998Z</time></trkpt><trkpt lat="42.20230817164789" lon="13.728618947493173"><ele>1141.0</ele><time>2026-05-02T10:22:33.998Z</time></trkpt><trkpt lat="42.20218626756857" lon="13.72858618681916"><ele>1141.0</ele><time>2026-05-02T10:22:34.998Z</time></trkpt><trkpt lat="42.20206106940017" lon="13.728535977753518"><ele>1140.2</ele><time>2026-05-02T10:22:35.998Z</time></trkpt><trkpt lat="42.20194918913809" lon="13.728496283639224"><ele>1139.3999999999999</ele><time>2026-05-02T10:22:36.998Z</time></trkpt><trkpt lat="42.20185562111306" lon="13.728470824745255"><ele>1138.6</ele><time>2026-05-02T10:22:37.998Z</time></trkpt><trkpt lat="42.20175348981795" lon="13.728460393296878"><ele>1137.8</ele><time>2026-05-02T10:22:38.998Z</time></trkpt><trkpt lat="42.201650905075155" lon="13.728475405727448"><ele>1137.0</ele><time>2026-05-02T10:22:39.998Z</time></trkpt><trkpt lat="42.20153928786534" lon="13.728495624920928"><ele>1137.8</ele><time>2026-05-02T10:22:40.998Z</time></trkpt><trkpt lat="42.20142636339347" lon="13.728518435748843"><ele>1138.6</ele><time>2026-05-02T10:22:41.998Z</time></trkpt><trkpt lat="42.20132250829621" lon="13.728533448700226"><ele>1139.3999999999999</ele><time>2026-05-02T10:22:42.998Z</time></trkpt><trkpt lat="42.201228670813805" lon="13.728552716917862"><ele>1140.2</ele><time>2026-05-02T10:22:43.998Z</time></trkpt><trkpt lat="42.20114618717595" lon="13.728568443715362"><ele>1141.0</ele><time>2026-05-02T10:22:44.998Z</time></trkpt><trkpt lat="42.2010713145743" lon="13.728590190736915"><ele>1141.0</ele><time>2026-05-02T10:22:45.998Z</time></trkpt><trkpt lat="42.20100535603535" lon="13.728564744736987"><ele>1141.0</ele><time>2026-05-02T10:22:46.998Z</time></trkpt><trkpt lat="42.200937951200714" lon="13.728556832518015"><ele>1141.0</ele><time>2026-05-02T10:22:47.998Z</time></trkpt><trkpt lat="42.20086803764027" lon="13.728547040794249"><ele>1141.0</ele><time>2026-05-02T10:22:48.998Z</time></trkpt><trkpt lat="42.20080068255678" lon="13.72854410760423"><ele>1141.0</ele><time>2026-05-02T10:22:49.998Z</time></trkpt><trkpt lat="42.200705648198976" lon="13.728532716630818"><ele>1141.0</ele><time>2026-05-02T10:22:51.998Z</time></trkpt><trkpt lat="42.20062751213788" lon="13.728469327524406"><ele>1137.2</ele><time>2026-05-02T10:22:53.998Z</time></trkpt><trkpt lat="42.20052686956272" lon="13.728396658135964"><ele>1133.3999999999999</ele><time>2026-05-02T10:22:55.998Z</time></trkpt><trkpt lat="42.200446874430696" lon="13.728324004393956"><ele>1129.6</ele><time>2026-05-02T10:22:57.998Z</time></trkpt><trkpt lat="42.200372822905784" lon="13.72821643527385"><ele>1125.8</ele><time>2026-05-02T10:22:59.998Z</time></trkpt><trkpt lat="42.20033802090742" lon="13.728140461559043"><ele>1122.0</ele><time>2026-05-02T10:23:00.998Z</time></trkpt><trkpt lat="42.20030394059791" lon="13.72805490606394"><ele>1122.0</ele><time>2026-05-02T10:23:01.998Z</time></trkpt><trkpt lat="42.2002657681688" lon="13.7279710938839"><ele>1122.0</ele><time>2026-05-02T10:23:02.998Z</time></trkpt><trkpt lat="42.20022172296632" lon="13.727876288012158"><ele>1122.0</ele><time>2026-05-02T10:23:03.998Z</time></trkpt><trkpt lat="42.20016351444861" lon="13.727803838135824"><ele>1122.0</ele><time>2026-05-02T10:23:04.997Z</time></trkpt><trkpt lat="42.20010036660843" lon="13.727746891434665"><ele>1122.0</ele><time>2026-05-02T10:23:05.997Z</time></trkpt><trkpt lat="42.20003427124538" lon="13.727690951047927"><ele>1122.0</ele><time>2026-05-02T10:23:06.997Z</time></trkpt><trkpt lat="42.19996361127921" lon="13.72763031955903"><ele>1120.0</ele><time>2026-05-02T10:23:07.997Z</time></trkpt><trkpt lat="42.199891122955854" lon="13.727568710457438"><ele>1118.0</ele><time>2026-05-02T10:23:08.997Z</time></trkpt><trkpt lat="42.19982289426933" lon="13.727512440815882"><ele>1116.0</ele><time>2026-05-02T10:23:09.997Z</time></trkpt><trkpt lat="42.19976221992867" lon="13.727469149005836"><ele>1114.0</ele><time>2026-05-02T10:23:10.997Z</time></trkpt><trkpt lat="42.199647945181816" lon="13.727410728196215"><ele>1112.0</ele><time>2026-05-02T10:23:12.997Z</time></trkpt><trkpt lat="42.199561613857526" lon="13.72728295804046"><ele>1111.3333333333335</ele><time>2026-05-02T10:23:14.997Z</time></trkpt><trkpt lat="42.199539782742306" lon="13.727174410488766"><ele>1110.6666666666667</ele><time>2026-05-02T10:23:15.997Z</time></trkpt><trkpt lat="42.19948024884958" lon="13.727113525216682"><ele>1110.0</ele><time>2026-05-02T10:23:16.997Z</time></trkpt><trkpt lat="42.19940495450052" lon="13.727066021674398"><ele>1109.3333333333333</ele><time>2026-05-02T10:23:17.997Z</time></trkpt><trkpt lat="42.19932214268645" lon="13.727025480334722"><ele>1108.6666666666665</ele><time>2026-05-02T10:23:18.997Z</time></trkpt><trkpt lat="42.19923660807122" lon="13.726994815402229"><ele>1108.0</ele><time>2026-05-02T10:23:19.997Z</time></trkpt><trkpt lat="42.19914608376804" lon="13.72697813315748"><ele>1108.0</ele><time>2026-05-02T10:23:20.997Z</time></trkpt><trkpt lat="42.19906741445073" lon="13.726981749501093"><ele>1108.0</ele><time>2026-05-02T10:23:21.997Z</time></trkpt><trkpt lat="42.199001513605374" lon="13.726991146526961"><ele>1108.0</ele><time>2026-05-02T10:23:22.997Z</time></trkpt><trkpt lat="42.19888896166279" lon="13.727017674319567"><ele>1108.0</ele><time>2026-05-02T10:23:25Z</time></trkpt><trkpt lat="42.198821697705256" lon="13.727010083008057"><ele>1108.0</ele><time>2026-05-02T10:23:26Z</time></trkpt><trkpt lat="42.198737965796205" lon="13.726986746410038"><ele>1108.0</ele><time>2026-05-02T10:23:27Z</time></trkpt><trkpt lat="42.198655192000516" lon="13.726912089883763"><ele>1105.4</ele><time>2026-05-02T10:23:28Z</time></trkpt><trkpt lat="42.198562633141094" lon="13.726841467008613"><ele>1102.8</ele><time>2026-05-02T10:23:29Z</time></trkpt><trkpt lat="42.19846610138758" lon="13.726770096166426"><ele>1100.2</ele><time>2026-05-02T10:23:30Z</time></trkpt><trkpt lat="42.198381523294" lon="13.726722919390879"><ele>1097.6</ele><time>2026-05-02T10:23:31Z</time></trkpt><trkpt lat="42.198307238052486" lon="13.726703698615037"><ele>1095.0</ele><time>2026-05-02T10:23:32Z</time></trkpt><trkpt lat="42.1982416730332" lon="13.726667113880605"><ele>1093.8</ele><time>2026-05-02T10:23:33Z</time></trkpt><trkpt lat="42.19813634635351" lon="13.726608227628587"><ele>1092.6</ele><time>2026-05-02T10:23:35Z</time></trkpt><trkpt lat="42.1980371404429" lon="13.726555730744362"><ele>1091.4</ele><time>2026-05-02T10:23:37Z</time></trkpt><trkpt lat="42.19797824602339" lon="13.726469111336682"><ele>1090.2</ele><time>2026-05-02T10:23:39Z</time></trkpt><trkpt lat="42.19788130389797" lon="13.726414136752668"><ele>1089.0</ele><time>2026-05-02T10:23:41Z</time></trkpt><trkpt lat="42.19776608951761" lon="13.72646298758566"><ele>1089.0000000000002</ele><time>2026-05-02T10:23:43Z</time></trkpt><trkpt lat="42.19771899284787" lon="13.726527404276599"><ele>1089.0</ele><time>2026-05-02T10:23:44Z</time></trkpt><trkpt lat="42.197679825131786" lon="13.726604512482345"><ele>1089.0</ele><time>2026-05-02T10:23:45Z</time></trkpt><trkpt lat="42.197649496695405" lon="13.72669754524072"><ele>1089.0</ele><time>2026-05-02T10:23:46Z</time></trkpt><trkpt lat="42.197620018935694" lon="13.726806157603514"><ele>1089.0</ele><time>2026-05-02T10:23:47Z</time></trkpt><trkpt lat="42.19758368345766" lon="13.726894438131298"><ele>1089.0000000000002</ele><time>2026-05-02T10:23:48Z</time></trkpt><trkpt lat="42.197533514801556" lon="13.726947643958948"><ele>1089.0</ele><time>2026-05-02T10:23:49Z</time></trkpt><trkpt lat="42.19747508242659" lon="13.726991180697414"><ele>1089.8</ele><time>2026-05-02T10:23:50Z</time></trkpt><trkpt lat="42.197372963872375" lon="13.727036602636705"><ele>1090.6000000000001</ele><time>2026-05-02T10:23:51Z</time></trkpt><trkpt lat="42.197274493110044" lon="13.727063748788956"><ele>1091.4</ele><time>2026-05-02T10:23:52Z</time></trkpt><trkpt lat="42.197162202268224" lon="13.727088986888164"><ele>1092.2</ele><time>2026-05-02T10:23:53Z</time></trkpt><trkpt lat="42.19705161606521" lon="13.72711324165518"><ele>1093.0</ele><time>2026-05-02T10:23:54Z</time></trkpt><trkpt lat="42.19694396780347" lon="13.727143025879295"><ele>1091.0</ele><time>2026-05-02T10:23:55Z</time></trkpt><trkpt lat="42.1968371930339" lon="13.727179078341848"><ele>1089.0</ele><time>2026-05-02T10:23:56Z</time></trkpt><trkpt lat="42.196730018020446" lon="13.727220787866909"><ele>1087.0</ele><time>2026-05-02T10:23:57Z</time></trkpt><trkpt lat="42.196624466859575" lon="13.727262077170202"><ele>1085.0</ele><time>2026-05-02T10:23:58Z</time></trkpt><trkpt lat="42.19652560705561" lon="13.727268474477647"><ele>1083.0</ele><time>2026-05-02T10:23:59Z</time></trkpt><trkpt lat="42.196460831405986" lon="13.727302674224617"><ele>1082.8333333333333</ele><time>2026-05-02T10:24:00Z</time></trkpt><trkpt lat="42.1963998736177" lon="13.727266836893413"><ele>1082.6666666666667</ele><time>2026-05-02T10:24:05Z</time></trkpt><trkpt lat="42.196399209328334" lon="13.727175511683859"><ele>1082.5</ele><time>2026-05-02T10:24:06Z</time></trkpt><trkpt lat="42.19639776532789" lon="13.727073273916892"><ele>1082.3333333333335</ele><time>2026-05-02T10:24:07Z</time></trkpt><trkpt lat="42.196412047123076" lon="13.726949857657807"><ele>1082.1666666666667</ele><time>2026-05-02T10:24:08Z</time></trkpt><trkpt lat="42.19643821562391" lon="13.72680647142768"><ele>1082.0</ele><time>2026-05-02T10:24:09Z</time></trkpt><trkpt lat="42.19646301950304" lon="13.726665550740629"><ele>1083.2</ele><time>2026-05-02T10:24:10Z</time></trkpt><trkpt lat="42.19650061189022" lon="13.726522436893195"><ele>1084.4</ele><time>2026-05-02T10:24:11Z</time></trkpt><trkpt lat="42.1965236792683" lon="13.726388816834676"><ele>1085.6</ele><time>2026-05-02T10:24:12Z</time></trkpt><trkpt lat="42.19654597508677" lon="13.726265437589477"><ele>1086.8</ele><time>2026-05-02T10:24:13Z</time></trkpt><trkpt lat="42.19657155305403" lon="13.726130468752503"><ele>1088.0</ele><time>2026-05-02T10:24:14Z</time></trkpt><trkpt lat="42.19660014867335" lon="13.726000292850083"><ele>1088.8333333333335</ele><time>2026-05-02T10:24:15Z</time></trkpt><trkpt lat="42.196640871850015" lon="13.725882664189715"><ele>1089.6666666666667</ele><time>2026-05-02T10:24:16Z</time></trkpt><trkpt lat="42.19667827338701" lon="13.725795973303892"><ele>1090.5</ele><time>2026-05-02T10:24:17Z</time></trkpt><trkpt lat="42.19673762448427" lon="13.725737232285717"><ele>1091.3333333333333</ele><time>2026-05-02T10:24:18Z</time></trkpt><trkpt lat="42.19680744505943" lon="13.72570964925589"><ele>1092.1666666666665</ele><time>2026-05-02T10:24:19Z</time></trkpt><trkpt lat="42.19687816290074" lon="13.72567186162492"><ele>1093.0</ele><time>2026-05-02T10:24:20Z</time></trkpt><trkpt lat="42.19694454218275" lon="13.725633665724192"><ele>1093.0</ele><time>2026-05-02T10:24:21Z</time></trkpt><trkpt lat="42.19702165019091" lon="13.725521697350988"><ele>1093.0</ele><time>2026-05-02T10:24:23Z</time></trkpt><trkpt lat="42.19704200611409" lon="13.725428346874605"><ele>1093.0</ele><time>2026-05-02T10:24:24Z</time></trkpt><trkpt lat="42.19707594249861" lon="13.725315804864112"><ele>1093.0</ele><time>2026-05-02T10:24:25Z</time></trkpt><trkpt lat="42.197103349510584" lon="13.725208668562182"><ele>1093.0</ele><time>2026-05-02T10:24:26Z</time></trkpt><trkpt lat="42.19712547315848" lon="13.725108003020566"><ele>1093.0</ele><time>2026-05-02T10:24:27Z</time></trkpt><trkpt lat="42.197158247704266" lon="13.725009602828663"><ele>1093.1666666666665</ele><time>2026-05-02T10:24:28Z</time></trkpt><trkpt lat="42.197193199616365" lon="13.724910349409662"><ele>1093.3333333333333</ele><time>2026-05-02T10:24:29Z</time></trkpt><trkpt lat="42.19721522869226" lon="13.724806677588552"><ele>1093.5</ele><time>2026-05-02T10:24:30Z</time></trkpt><trkpt lat="42.19723489964607" lon="13.724711157740607"><ele>1093.6666666666667</ele><time>2026-05-02T10:24:31Z</time></trkpt><trkpt lat="42.19724429209305" lon="13.724617995647428"><ele>1093.8333333333335</ele><time>2026-05-02T10:24:32Z</time></trkpt><trkpt lat="42.19724651477409" lon="13.72452199988189"><ele>1094.0</ele><time>2026-05-02T10:24:33Z</time></trkpt><trkpt lat="42.19724810787462" lon="13.724421357513329"><ele>1094.857142857143</ele><time>2026-05-02T10:24:34Z</time></trkpt><trkpt lat="42.1972376387992" lon="13.724317251844393"><ele>1095.7142857142856</ele><time>2026-05-02T10:24:35Z</time></trkpt><trkpt lat="42.19722313724743" lon="13.724220984060217"><ele>1096.5714285714284</ele><time>2026-05-02T10:24:36Z</time></trkpt><trkpt lat="42.19721359141932" lon="13.724127871173888"><ele>1097.4285714285713</ele><time>2026-05-02T10:24:37Z</time></trkpt><trkpt lat="42.19719774697924" lon="13.724034630122274"><ele>1098.2857142857142</ele><time>2026-05-02T10:24:38Z</time></trkpt><trkpt lat="42.19718856149328" lon="13.723939333519972"><ele>1099.142857142857</ele><time>2026-05-02T10:24:39Z</time></trkpt><trkpt lat="42.19718712541906" lon="13.723839353005342"><ele>1100.0</ele><time>2026-05-02T10:24:40Z</time></trkpt><trkpt lat="42.19719262788603" lon="13.723744669978048"><ele>1100.0</ele><time>2026-05-02T10:24:41Z</time></trkpt><trkpt lat="42.1971952634709" lon="13.723595854107886"><ele>1100.0</ele><time>2026-05-02T10:24:43Z</time></trkpt><trkpt lat="42.19719721394376" lon="13.72348108879686"><ele>1100.0</ele><time>2026-05-02T10:24:45Z</time></trkpt><trkpt lat="42.197206327927816" lon="13.723390446292852"><ele>1100.0</ele><time>2026-05-02T10:24:47Z</time></trkpt><trkpt lat="42.19722885742584" lon="13.72329709472745"><ele>1100.0</ele><time>2026-05-02T10:24:50Z</time></trkpt><trkpt lat="42.19727058981129" lon="13.72319067140801"><ele>1100.0</ele><time>2026-05-02T10:25:24Z</time></trkpt><trkpt lat="42.19731308332663" lon="13.723109173212888"><ele>1099.4</ele><time>2026-05-02T10:25:27Z</time></trkpt><trkpt lat="42.19739731060586" lon="13.723039238627798"><ele>1098.8</ele><time>2026-05-02T10:25:30Z</time></trkpt><trkpt lat="42.19749439923307" lon="13.722981079152632"><ele>1098.2</ele><time>2026-05-02T10:25:39.999Z</time></trkpt><trkpt lat="42.19755403067228" lon="13.72291902152384"><ele>1097.6</ele><time>2026-05-02T10:25:41.999Z</time></trkpt><trkpt lat="42.19762118421582" lon="13.722803851039783"><ele>1097.0</ele><time>2026-05-02T10:25:43.999Z</time></trkpt><trkpt lat="42.197695106252475" lon="13.72267462949488"><ele>1096.2</ele><time>2026-05-02T10:25:45.999Z</time></trkpt><trkpt lat="42.19775576949193" lon="13.722580300175595"><ele>1095.4</ele><time>2026-05-02T10:25:47.999Z</time></trkpt><trkpt lat="42.19781620671105" lon="13.722499883637056"><ele>1094.6</ele><time>2026-05-02T10:25:49.999Z</time></trkpt><trkpt lat="42.197875068082546" lon="13.72240883171269"><ele>1093.8</ele><time>2026-05-02T10:25:51.999Z</time></trkpt><trkpt lat="42.197945073019945" lon="13.722313493822424"><ele>1093.0</ele><time>2026-05-02T10:25:53.999Z</time></trkpt><trkpt lat="42.198025627062904" lon="13.722226367122742"><ele>1093.0</ele><time>2026-05-02T10:25:55.999Z</time></trkpt><trkpt lat="42.19812002190396" lon="13.722146554003851"><ele>1093.0</ele><time>2026-05-02T10:25:57.999Z</time></trkpt><trkpt lat="42.198163427290055" lon="13.722072893518224"><ele>1093.0</ele><time>2026-05-02T10:25:58.999Z</time></trkpt><trkpt lat="42.19822325309218" lon="13.722018645082269"><ele>1093.0</ele><time>2026-05-02T10:25:59.999Z</time></trkpt><trkpt lat="42.19826440884257" lon="13.721950616065616"><ele>1093.0</ele><time>2026-05-02T10:26:00.999Z</time></trkpt><trkpt lat="42.19835074181052" lon="13.721843853952313"><ele>1093.0</ele><time>2026-05-02T10:26:02.999Z</time></trkpt><trkpt lat="42.1984073545166" lon="13.721794287474044"><ele>1092.1666666666665</ele><time>2026-05-02T10:26:03.999Z</time></trkpt><trkpt lat="42.19850083300783" lon="13.72167805147437"><ele>1091.3333333333333</ele><time>2026-05-02T10:26:05.999Z</time></trkpt><trkpt lat="42.19855647509769" lon="13.721616688128703"><ele>1090.5</ele><time>2026-05-02T10:26:06.999Z</time></trkpt><trkpt lat="42.19860731624619" lon="13.721536297799124"><ele>1089.6666666666667</ele><time>2026-05-02T10:26:07.999Z</time></trkpt><trkpt lat="42.198665997618114" lon="13.7214572046862"><ele>1088.8333333333335</ele><time>2026-05-02T10:26:08.999Z</time></trkpt><trkpt lat="42.19872815195612" lon="13.721404660691277"><ele>1088.0</ele><time>2026-05-02T10:26:09.999Z</time></trkpt><trkpt lat="42.1988376638977" lon="13.721323707761954"><ele>1088.0</ele><time>2026-05-02T10:26:11.999Z</time></trkpt><trkpt lat="42.198880345592904" lon="13.721255258716887"><ele>1088.0</ele><time>2026-05-02T10:26:12.999Z</time></trkpt><trkpt lat="42.19891779020384" lon="13.721183157091172"><ele>1088.0</ele><time>2026-05-02T10:26:13.999Z</time></trkpt><trkpt lat="42.19899605354797" lon="13.721064792994554"><ele>1088.0</ele><time>2026-05-02T10:26:15.999Z</time></trkpt><trkpt lat="42.19905456074082" lon="13.721018083501908"><ele>1088.0</ele><time>2026-05-02T10:26:16.999Z</time></trkpt><trkpt lat="42.199098461742174" lon="13.720874128095923"><ele>1088.0</ele><time>2026-05-02T10:26:18.999Z</time></trkpt><trkpt lat="42.199152298840524" lon="13.720740951811903"><ele>1084.0</ele><time>2026-05-02T10:26:20.999Z</time></trkpt><trkpt lat="42.199173694974384" lon="13.720566166646476"><ele>1080.0</ele><time>2026-05-02T10:26:22.999Z</time></trkpt><trkpt lat="42.19919619148326" lon="13.72047535191233"><ele>1076.0</ele><time>2026-05-02T10:26:23.999Z</time></trkpt><trkpt lat="42.19921260986729" lon="13.7203663250447"><ele>1072.0</ele><time>2026-05-02T10:26:24.999Z</time></trkpt><trkpt lat="42.199265990288026" lon="13.720266000567069"><ele>1068.0</ele><time>2026-05-02T10:26:25.999Z</time></trkpt><trkpt lat="42.199314264508004" lon="13.720162931181642"><ele>1067.2</ele><time>2026-05-02T10:26:26.999Z</time></trkpt><trkpt lat="42.19936888486587" lon="13.720071346965556"><ele>1066.4</ele><time>2026-05-02T10:26:27.999Z</time></trkpt><trkpt lat="42.1994203411014" lon="13.719975930632886"><ele>1065.6000000000001</ele><time>2026-05-02T10:26:28.999Z</time></trkpt><trkpt lat="42.19946753300137" lon="13.71985307101261"><ele>1064.8</ele><time>2026-05-02T10:26:29.999Z</time></trkpt><trkpt lat="42.199527788337285" lon="13.719701831260606"><ele>1064.0</ele><time>2026-05-02T10:26:30.999Z</time></trkpt><trkpt lat="42.1995733896261" lon="13.719552584879331"><ele>1064.0</ele><time>2026-05-02T10:26:31.999Z</time></trkpt><trkpt lat="42.199622272291215" lon="13.719433663729104"><ele>1064.0</ele><time>2026-05-02T10:26:32.999Z</time></trkpt><trkpt lat="42.199687730261864" lon="13.719315994589785"><ele>1064.0</ele><time>2026-05-02T10:26:33.999Z</time></trkpt><trkpt lat="42.199765244504086" lon="13.719192192157193"><ele>1064.0</ele><time>2026-05-02T10:26:34.999Z</time></trkpt><trkpt lat="42.199852747038655" lon="13.719065572355577"><ele>1062.75</ele><time>2026-05-02T10:26:35.999Z</time></trkpt><trkpt lat="42.19993143108518" lon="13.718934726395934"><ele>1061.5</ele><time>2026-05-02T10:26:36.999Z</time></trkpt><trkpt lat="42.20001525694706" lon="13.718777091785277"><ele>1060.25</ele><time>2026-05-02T10:26:37.999Z</time></trkpt><trkpt lat="42.2000873480309" lon="13.718616803627501"><ele>1059.0</ele><time>2026-05-02T10:26:38.999Z</time></trkpt><trkpt lat="42.20014799156439" lon="13.718496011155628"><ele>1059.0</ele><time>2026-05-02T10:26:39.999Z</time></trkpt><trkpt lat="42.200203093023696" lon="13.718377895345796"><ele>1059.0</ele><time>2026-05-02T10:26:40.999Z</time></trkpt><trkpt lat="42.20022169931816" lon="13.718238480680748"><ele>1059.0</ele><time>2026-05-02T10:26:41.999Z</time></trkpt><trkpt lat="42.20023655145117" lon="13.7181444778952"><ele>1059.0</ele><time>2026-05-02T10:26:42.999Z</time></trkpt><trkpt lat="42.200253416151305" lon="13.718040326910359"><ele>1059.0</ele><time>2026-05-02T10:26:43.999Z</time></trkpt><trkpt lat="42.200262728868665" lon="13.71795450650815"><ele>1059.0</ele><time>2026-05-02T10:26:44.999Z</time></trkpt><trkpt lat="42.20027822562252" lon="13.717865464020841"><ele>1059.0</ele><time>2026-05-02T10:26:45.999Z</time></trkpt><trkpt lat="42.20028042665314" lon="13.71776946078381"><ele>1059.0</ele><time>2026-05-02T10:26:46.999Z</time></trkpt><trkpt lat="42.20027409498648" lon="13.717678994364368"><ele>1059.0</ele><time>2026-05-02T10:26:47.999Z</time></trkpt><trkpt lat="42.20021961329647" lon="13.717518082537762"><ele>1059.0</ele><time>2026-05-02T10:26:49.999Z</time></trkpt><trkpt lat="42.20017206924275" lon="13.717420781702343"><ele>1059.0</ele><time>2026-05-02T10:26:50.999Z</time></trkpt><trkpt lat="42.2001170641029" lon="13.717292815887935"><ele>1059.0</ele><time>2026-05-02T10:26:51.999Z</time></trkpt><trkpt lat="42.20007671078496" lon="13.71715236682477"><ele>1059.0</ele><time>2026-05-02T10:26:52.999Z</time></trkpt><trkpt lat="42.20004881026345" lon="13.71701351851092"><ele>1059.0</ele><time>2026-05-02T10:26:53.999Z</time></trkpt><trkpt lat="42.20001185403197" lon="13.716869706537397"><ele>1059.0</ele><time>2026-05-02T10:26:54.999Z</time></trkpt><trkpt lat="42.19997129616929" lon="13.71672819125401"><ele>1059.0</ele><time>2026-05-02T10:26:55.999Z</time></trkpt><trkpt lat="42.199934372733956" lon="13.716604546274244"><ele>1059.0</ele><time>2026-05-02T10:26:56.999Z</time></trkpt><trkpt lat="42.19990719000428" lon="13.716482485560668"><ele>1059.0</ele><time>2026-05-02T10:26:57.999Z</time></trkpt><trkpt lat="42.1999006289782" lon="13.716371562109082"><ele>1059.0</ele><time>2026-05-02T10:26:58.999Z</time></trkpt><trkpt lat="42.199915399291996" lon="13.7162687406048"><ele>1059.0</ele><time>2026-05-02T10:26:59.999Z</time></trkpt><trkpt lat="42.199955828811625" lon="13.716143406052657"><ele>1059.0</ele><time>2026-05-02T10:27:00.999Z</time></trkpt><trkpt lat="42.20001831945154" lon="13.71599609995598"><ele>1059.2</ele><time>2026-05-02T10:27:01.999Z</time></trkpt><trkpt lat="42.20008811510416" lon="13.715857017847732"><ele>1059.4</ele><time>2026-05-02T10:27:02.999Z</time></trkpt><trkpt lat="42.20013577629991" lon="13.715747291236706"><ele>1059.6</ele><time>2026-05-02T10:27:03.999Z</time></trkpt><trkpt lat="42.200186605230854" lon="13.715638139997475"><ele>1059.8</ele><time>2026-05-02T10:27:04.999Z</time></trkpt><trkpt lat="42.20021691005683" lon="13.715544409028254"><ele>1060.0</ele><time>2026-05-02T10:27:05.999Z</time></trkpt><trkpt lat="42.200241222862026" lon="13.715447439689008"><ele>1060.0</ele><time>2026-05-02T10:27:06.999Z</time></trkpt><trkpt lat="42.200254685291675" lon="13.7153512673779"><ele>1060.0</ele><time>2026-05-02T10:27:07.999Z</time></trkpt><trkpt lat="42.20026787406007" lon="13.715261620198671"><ele>1060.0</ele><time>2026-05-02T10:27:08.999Z</time></trkpt><trkpt lat="42.200279119637585" lon="13.715177852047564"><ele>1060.0</ele><time>2026-05-02T10:27:09.999Z</time></trkpt><trkpt lat="42.200302568942156" lon="13.715020867108537"><ele>1060.0</ele><time>2026-05-02T10:27:11.999Z</time></trkpt><trkpt lat="42.20031798031263" lon="13.714938066358688"><ele>1060.0</ele><time>2026-05-02T10:27:12.999Z</time></trkpt><trkpt lat="42.200345620192664" lon="13.714856345737124"><ele>1060.0</ele><time>2026-05-02T10:27:13.999Z</time></trkpt><trkpt lat="42.200371379194586" lon="13.714776249236046"><ele>1060.0</ele><time>2026-05-02T10:27:14.999Z</time></trkpt><trkpt lat="42.20041919027768" lon="13.714610726593287"><ele>1060.0</ele><time>2026-05-02T10:27:16.999Z</time></trkpt><trkpt lat="42.2004467655825" lon="13.71450186622233"><ele>1060.0</ele><time>2026-05-02T10:27:17.999Z</time></trkpt><trkpt lat="42.200472328416495" lon="13.714378837591516"><ele>1060.0</ele><time>2026-05-02T10:27:18.999Z</time></trkpt><trkpt lat="42.20051052796269" lon="13.714261130154096"><ele>1060.0</ele><time>2026-05-02T10:27:19.999Z</time></trkpt><trkpt lat="42.20053765236191" lon="13.714152344622589"><ele>1060.0</ele><time>2026-05-02T10:27:20.999Z</time></trkpt><trkpt lat="42.20057447971695" lon="13.714046630311035"><ele>1060.0</ele><time>2026-05-02T10:27:21.999Z</time></trkpt><trkpt lat="42.20060198411546" lon="13.713946213881165"><ele>1060.0</ele><time>2026-05-02T10:27:22.999Z</time></trkpt><trkpt lat="42.20062576302971" lon="13.71385325472158"><ele>1060.0</ele><time>2026-05-02T10:27:23.999Z</time></trkpt><trkpt lat="42.20064958948262" lon="13.713750760000323"><ele>1060.0</ele><time>2026-05-02T10:27:24.999Z</time></trkpt><trkpt lat="42.20068315743541" lon="13.71364428730667"><ele>1055.8</ele><time>2026-05-02T10:27:25.999Z</time></trkpt><trkpt lat="42.200715180074084" lon="13.713525611230617"><ele>1051.6</ele><time>2026-05-02T10:27:26.999Z</time></trkpt><trkpt lat="42.200758669422164" lon="13.713409798048298"><ele>1047.4</ele><time>2026-05-02T10:27:27.999Z</time></trkpt><trkpt lat="42.20080396859749" lon="13.713295477443499"><ele>1043.2</ele><time>2026-05-02T10:27:28.999Z</time></trkpt><trkpt lat="42.20086652233111" lon="13.713188408601383"><ele>1039.0</ele><time>2026-05-02T10:27:29.999Z</time></trkpt><trkpt lat="42.200913931079334" lon="13.71308698767346"><ele>1039.0</ele><time>2026-05-02T10:27:30.999Z</time></trkpt><trkpt lat="42.20094746295883" lon="13.71298741861051"><ele>1039.0</ele><time>2026-05-02T10:27:31.999Z</time></trkpt><trkpt lat="42.20098721328651" lon="13.71289181711196"><ele>1039.0</ele><time>2026-05-02T10:27:32.999Z</time></trkpt><trkpt lat="42.201026318157076" lon="13.712789666811199"><ele>1039.0</ele><time>2026-05-02T10:27:33.999Z</time></trkpt><trkpt lat="42.201064844978" lon="13.712674505584824"><ele>1039.0</ele><time>2026-05-02T10:27:34.999Z</time></trkpt><trkpt lat="42.20109886959196" lon="13.71254914684084"><ele>1039.0</ele><time>2026-05-02T10:27:35.999Z</time></trkpt><trkpt lat="42.20114692503236" lon="13.712435202092749"><ele>1038.5</ele><time>2026-05-02T10:27:36.999Z</time></trkpt><trkpt lat="42.20118822365817" lon="13.712326070200085"><ele>1038.0</ele><time>2026-05-02T10:27:37.999Z</time></trkpt><trkpt lat="42.201211789006635" lon="13.712232368506875"><ele>1037.5</ele><time>2026-05-02T10:27:38.999Z</time></trkpt><trkpt lat="42.20122881326135" lon="13.712137212724741"><ele>1037.0</ele><time>2026-05-02T10:27:39.999Z</time></trkpt><trkpt lat="42.201227169609446" lon="13.712038909613218"><ele>1036.5</ele><time>2026-05-02T10:27:40.999Z</time></trkpt><trkpt lat="42.20121867314207" lon="13.711935200431508"><ele>1036.0</ele><time>2026-05-02T10:27:41.999Z</time></trkpt><trkpt lat="42.20120233660907" lon="13.711824680792596"><ele>1035.5</ele><time>2026-05-02T10:27:42.999Z</time></trkpt><trkpt lat="42.20118840460639" lon="13.711705925251035"><ele>1035.0</ele><time>2026-05-02T10:27:43.999Z</time></trkpt><trkpt lat="42.20119896022718" lon="13.711588206977293"><ele>1034.5</ele><time>2026-05-02T10:27:44.999Z</time></trkpt><trkpt lat="42.20120510828172" lon="13.711484719936447"><ele>1034.0</ele><time>2026-05-02T10:27:45.999Z</time></trkpt><trkpt lat="42.201204496039225" lon="13.711382453153297"><ele>1033.5</ele><time>2026-05-02T10:27:46.999Z</time></trkpt><trkpt lat="42.20119771080843" lon="13.711262226225886"><ele>1033.0</ele><time>2026-05-02T10:27:47.999Z</time></trkpt><trkpt lat="42.20121120082522" lon="13.711136799381213"><ele>1032.3333333333333</ele><time>2026-05-02T10:27:48.999Z</time></trkpt><trkpt lat="42.201223485979874" lon="13.711014689042136"><ele>1031.6666666666665</ele><time>2026-05-02T10:27:49.999Z</time></trkpt><trkpt lat="42.201238441650055" lon="13.710899343119861"><ele>1031.0</ele><time>2026-05-02T10:27:50.999Z</time></trkpt><trkpt lat="42.201257686744704" lon="13.710806441816183"><ele>1030.3333333333333</ele><time>2026-05-02T10:27:51.999Z</time></trkpt><trkpt lat="42.2012716024621" lon="13.710713553436907"><ele>1029.6666666666667</ele><time>2026-05-02T10:27:52.999Z</time></trkpt><trkpt lat="42.20128655664947" lon="13.7106205587387"><ele>1029.0</ele><time>2026-05-02T10:27:53.999Z</time></trkpt><trkpt lat="42.20131771775633" lon="13.710451562932246"><ele>1029.0</ele><time>2026-05-02T10:27:55.999Z</time></trkpt><trkpt lat="42.201346557053824" lon="13.710336404386545"><ele>1029.0</ele><time>2026-05-02T10:27:56.999Z</time></trkpt><trkpt lat="42.2013785957252" lon="13.71019801941354"><ele>1029.0</ele><time>2026-05-02T10:27:57.999Z</time></trkpt><trkpt lat="42.20142087201592" lon="13.710047015325562"><ele>1029.0</ele><time>2026-05-02T10:27:58.999Z</time></trkpt><trkpt lat="42.20145351439331" lon="13.709892319615326"><ele>1029.0</ele><time>2026-05-02T10:27:59.999Z</time></trkpt><trkpt lat="42.20146487457607" lon="13.709768192972025"><ele>1028.8</ele><time>2026-05-02T10:28:00.999Z</time></trkpt><trkpt lat="42.20145838458455" lon="13.709660465874027"><ele>1028.6000000000001</ele><time>2026-05-02T10:28:01.999Z</time></trkpt><trkpt lat="42.20144862718484" lon="13.709542748705974"><ele>1028.4</ele><time>2026-05-02T10:28:02.999Z</time></trkpt><trkpt lat="42.201458760732905" lon="13.709414229783288"><ele>1028.2</ele><time>2026-05-02T10:28:03.999Z</time></trkpt><trkpt lat="42.20148642975208" lon="13.709286456766947"><ele>1028.0</ele><time>2026-05-02T10:28:04.999Z</time></trkpt><trkpt lat="42.2015223863063" lon="13.70915811664243"><ele>1024.6</ele><time>2026-05-02T10:28:05.999Z</time></trkpt><trkpt lat="42.201573309687646" lon="13.708999573966794"><ele>1021.1999999999999</ele><time>2026-05-02T10:28:06.998Z</time></trkpt><trkpt lat="42.20159647065706" lon="13.708877209855505"><ele>1017.8</ele><time>2026-05-02T10:28:07.998Z</time></trkpt><trkpt lat="42.20161594325073" lon="13.708726483121856"><ele>1014.4</ele><time>2026-05-02T10:28:08.998Z</time></trkpt><trkpt lat="42.20162864316037" lon="13.708592180234453"><ele>1011.0</ele><time>2026-05-02T10:28:09.998Z</time></trkpt><trkpt lat="42.20164265309102" lon="13.708468730510695"><ele>1010.0</ele><time>2026-05-02T10:28:10.998Z</time></trkpt><trkpt lat="42.201640250850666" lon="13.708314928251161"><ele>1008.9999999999999</ele><time>2026-05-02T10:28:11.998Z</time></trkpt><trkpt lat="42.20163989123458" lon="13.708172259182977"><ele>1007.9999999999999</ele><time>2026-05-02T10:28:12.998Z</time></trkpt><trkpt lat="42.20164036005639" lon="13.70803014031732"><ele>1007.0</ele><time>2026-05-02T10:28:13.998Z</time></trkpt><trkpt lat="42.20164280469248" lon="13.707909309880133"><ele>1006.0</ele><time>2026-05-02T10:28:14.998Z</time></trkpt><trkpt lat="42.20165113600447" lon="13.70780458044033"><ele>1004.6666666666666</ele><time>2026-05-02T10:28:15.998Z</time></trkpt><trkpt lat="42.20166995384123" lon="13.707717379757147"><ele>1003.3333333333333</ele><time>2026-05-02T10:28:16.998Z</time></trkpt><trkpt lat="42.201702411195924" lon="13.7075784832915"><ele>1002.0</ele><time>2026-05-02T10:28:18.998Z</time></trkpt><trkpt lat="42.20171676936998" lon="13.707494305938791"><ele>1000.6666666666667</ele><time>2026-05-02T10:28:19.998Z</time></trkpt><trkpt lat="42.201731968656745" lon="13.707373820193952"><ele>999.3333333333334</ele><time>2026-05-02T10:28:21.998Z</time></trkpt><trkpt lat="42.20173215464952" lon="13.70726111936396"><ele>998.0</ele><time>2026-05-02T10:28:23.998Z</time></trkpt><trkpt lat="42.20173012353957" lon="13.707155573082044"><ele>998.0</ele><time>2026-05-02T10:28:25.998Z</time></trkpt><trkpt lat="42.20175414836397" lon="13.70701726387708"><ele>998.0</ele><time>2026-05-02T10:28:27.998Z</time></trkpt><trkpt lat="42.201797432492015" lon="13.706891150132412"><ele>998.0</ele><time>2026-05-02T10:28:29.998Z</time></trkpt><trkpt lat="42.20184508548189" lon="13.706771580301211"><ele>998.0</ele><time>2026-05-02T10:28:31.998Z</time></trkpt><trkpt lat="42.201877638896704" lon="13.706653081267197"><ele>998.0</ele><time>2026-05-02T10:28:33.998Z</time></trkpt><trkpt lat="42.201847470944344" lon="13.706528392482358"><ele>996.5999999999999</ele><time>2026-05-02T10:28:36.998Z</time></trkpt><trkpt lat="42.20182508478939" lon="13.706414546408563"><ele>995.1999999999999</ele><time>2026-05-02T10:28:38.998Z</time></trkpt><trkpt lat="42.20180502420676" lon="13.706327436006513"><ele>993.8</ele><time>2026-05-02T10:28:40.998Z</time></trkpt><trkpt lat="42.20174581440363" lon="13.706212075923055"><ele>992.4</ele><time>2026-05-02T10:28:42.998Z</time></trkpt><trkpt lat="42.20164826314074" lon="13.706161274786023"><ele>991.0</ele><time>2026-05-02T10:28:44.997Z</time></trkpt><trkpt lat="42.201550382649216" lon="13.706121375874652"><ele>990.3333333333333</ele><time>2026-05-02T10:28:46.997Z</time></trkpt><trkpt lat="42.20149371297862" lon="13.706075925626974"><ele>989.6666666666666</ele><time>2026-05-02T10:28:48.997Z</time></trkpt><trkpt lat="42.201486925914146" lon="13.705967265018632"><ele>989.0</ele><time>2026-05-02T10:28:50.997Z</time></trkpt><trkpt lat="42.20151436270338" lon="13.705838116701258"><ele>988.3333333333333</ele><time>2026-05-02T10:28:52.997Z</time></trkpt><trkpt lat="42.20154430557235" lon="13.705727757483823"><ele>987.6666666666666</ele><time>2026-05-02T10:29:23.997Z</time></trkpt><trkpt lat="42.201551128147216" lon="13.705637841631196"><ele>987.0</ele><time>2026-05-02T10:31:21Z</time></trkpt><trkpt lat="42.20159737112441" lon="13.705572836674456"><ele>987.0</ele><time>2026-05-02T10:31:58.999Z</time></trkpt><trkpt lat="42.201534683481" lon="13.705582301149336"><ele>987.0</ele><time>2026-05-02T10:32:48.999Z</time></trkpt><trkpt lat="42.201598000314966" lon="13.705580217122344"><ele>987.0</ele><time>2026-05-02T10:34:07.999Z</time></trkpt><trkpt lat="42.20155347279407" lon="13.705455864086279"><ele>987.0</ele><time>2026-05-02T10:36:18.998Z</time></trkpt><trkpt lat="42.201527200427975" lon="13.70537795671554"><ele>987.0</ele><time>2026-05-02T10:36:19.998Z</time></trkpt><trkpt lat="42.20149676900991" lon="13.705282276057753"><ele>987.0</ele><time>2026-05-02T10:36:20.998Z</time></trkpt><trkpt lat="42.2014715855316" lon="13.705190931747559"><ele>987.0</ele><time>2026-05-02T10:36:21.998Z</time></trkpt><trkpt lat="42.20144361810743" lon="13.705110782732351"><ele>985.5</ele><time>2026-05-02T10:36:22.998Z</time></trkpt><trkpt lat="42.20143551049115" lon="13.7050253093351"><ele>984.0</ele><time>2026-05-02T10:36:23.998Z</time></trkpt><trkpt lat="42.201427515079665" lon="13.704925349374278"><ele>982.5</ele><time>2026-05-02T10:36:24.998Z</time></trkpt><trkpt lat="42.201412932548955" lon="13.704831692257756"><ele>981.0</ele><time>2026-05-02T10:36:25.998Z</time></trkpt><trkpt lat="42.20139528882752" lon="13.704748465660929"><ele>979.5</ele><time>2026-05-02T10:36:26.998Z</time></trkpt><trkpt lat="42.20138132920043" lon="13.704586425374332"><ele>978.0</ele><time>2026-05-02T10:36:28.998Z</time></trkpt><trkpt lat="42.20136622588567" lon="13.704431364822847"><ele>973.8</ele><time>2026-05-02T10:36:30.998Z</time></trkpt><trkpt lat="42.201364381674864" lon="13.704287266331873"><ele>969.5999999999999</ele><time>2026-05-02T10:36:32.998Z</time></trkpt><trkpt lat="42.20135992388151" lon="13.704154639690104"><ele>965.4000000000001</ele><time>2026-05-02T10:36:34.998Z</time></trkpt><trkpt lat="42.201380202881296" lon="13.704002792458352"><ele>961.2</ele><time>2026-05-02T10:36:36.998Z</time></trkpt><trkpt lat="42.201422769140095" lon="13.70384772575929"><ele>957.0</ele><time>2026-05-02T10:36:38.998Z</time></trkpt><trkpt lat="42.20145554370995" lon="13.70369885708326"><ele>961.25</ele><time>2026-05-02T10:36:40.998Z</time></trkpt><trkpt lat="42.201473122706616" lon="13.703551954954085"><ele>965.5</ele><time>2026-05-02T10:36:42.998Z</time></trkpt><trkpt lat="42.20150104098658" lon="13.70340989973397"><ele>969.75</ele><time>2026-05-02T10:36:44.998Z</time></trkpt><trkpt lat="42.201520540317624" lon="13.703245751028572"><ele>974.0</ele><time>2026-05-02T10:36:46.998Z</time></trkpt><trkpt lat="42.20150020832551" lon="13.70310085693927"><ele>966.6</ele><time>2026-05-02T10:36:48.998Z</time></trkpt><trkpt lat="42.201466287773634" lon="13.702992783536512"><ele>959.2</ele><time>2026-05-02T10:36:50.998Z</time></trkpt><trkpt lat="42.20140054045681" lon="13.702889606170656"><ele>951.8000000000001</ele><time>2026-05-02T10:36:52.998Z</time></trkpt><trkpt lat="42.201327281317276" lon="13.702778132284537"><ele>944.4000000000001</ele><time>2026-05-02T10:36:54.998Z</time></trkpt><trkpt lat="42.20127900196197" lon="13.702719907467786"><ele>937.0</ele><time>2026-05-02T10:36:55.998Z</time></trkpt><trkpt lat="42.201181222308435" lon="13.702628583306181"><ele>936.9999999999999</ele><time>2026-05-02T10:36:57.998Z</time></trkpt><trkpt lat="42.20109039813338" lon="13.702574650430636"><ele>937.0</ele><time>2026-05-02T10:36:59.998Z</time></trkpt><trkpt lat="42.200989481369184" lon="13.702509887249354"><ele>937.0</ele><time>2026-05-02T10:37:01.998Z</time></trkpt><trkpt lat="42.20092325300931" lon="13.702456266488896"><ele>937.0</ele><time>2026-05-02T10:37:02.998Z</time></trkpt><trkpt lat="42.2008615992003" lon="13.702396740161465"><ele>936.9999999999999</ele><time>2026-05-02T10:37:03.998Z</time></trkpt><trkpt lat="42.20080107734919" lon="13.702346033290578"><ele>937.0</ele><time>2026-05-02T10:37:04.998Z</time></trkpt><trkpt lat="42.200739315034674" lon="13.70232326051919"><ele>931.0</ele><time>2026-05-02T10:37:05.998Z</time></trkpt><trkpt lat="42.20064276952161" lon="13.702240044191019"><ele>925.0</ele><time>2026-05-02T10:37:07.998Z</time></trkpt><trkpt lat="42.200536668144665" lon="13.702193774614605"><ele>919.0</ele><time>2026-05-02T10:37:09.998Z</time></trkpt><trkpt lat="42.20043873331231" lon="13.702183781766752"><ele>913.0</ele><time>2026-05-02T10:37:11.998Z</time></trkpt><trkpt lat="42.200350690998064" lon="13.702124334615362"><ele>907.0</ele><time>2026-05-02T10:37:13.998Z</time></trkpt><trkpt lat="42.200280259022946" lon="13.702101187673568"><ele>906.9999999999999</ele><time>2026-05-02T10:37:15.998Z</time></trkpt><trkpt lat="42.20023667943858" lon="13.702035232488436"><ele>907.0</ele><time>2026-05-02T10:37:17.998Z</time></trkpt><trkpt lat="42.20022651311015" lon="13.701916833585598"><ele>907.0</ele><time>2026-05-02T10:37:19.998Z</time></trkpt><trkpt lat="42.200182413010744" lon="13.701813483411964"><ele>907.0</ele><time>2026-05-02T10:37:21.998Z</time></trkpt><trkpt lat="42.200148864496185" lon="13.70173480123475"><ele>906.9999999999999</ele><time>2026-05-02T10:37:23.998Z</time></trkpt><trkpt lat="42.200113131380455" lon="13.701657163897519"><ele>907.0</ele><time>2026-05-02T10:37:25.998Z</time></trkpt><trkpt lat="42.20007058748085" lon="13.701574432650867"><ele>907.4999999999999</ele><time>2026-05-02T10:37:27.998Z</time></trkpt><trkpt lat="42.20001945848161" lon="13.7014853973497"><ele>908.0</ele><time>2026-05-02T10:37:29.998Z</time></trkpt><trkpt lat="42.199988946674935" lon="13.701401637735904"><ele>908.5</ele><time>2026-05-02T10:37:31.998Z</time></trkpt><trkpt lat="42.199993739350944" lon="13.70129347061427"><ele>909.0</ele><time>2026-05-02T10:37:34.998Z</time></trkpt><trkpt lat="42.20000934647774" lon="13.701205930767559"><ele>909.4999999999999</ele><time>2026-05-02T10:37:37Z</time></trkpt><trkpt lat="42.20002170494336" lon="13.70109413976892"><ele>910.0</ele><time>2026-05-02T10:37:39Z</time></trkpt><trkpt lat="42.20004003477599" lon="13.701002958467733"><ele>908.9999999999999</ele><time>2026-05-02T10:37:41Z</time></trkpt><trkpt lat="42.200053615497986" lon="13.700896781015276"><ele>908.0</ele><time>2026-05-02T10:37:43Z</time></trkpt><trkpt lat="42.20006666074104" lon="13.700773928817483"><ele>907.0</ele><time>2026-05-02T10:37:46Z</time></trkpt><trkpt lat="42.20008712164777" lon="13.70067150001451"><ele>906.0</ele><time>2026-05-02T10:37:48Z</time></trkpt><trkpt lat="42.200037703568405" lon="13.700569286646289"><ele>904.9999999999999</ele><time>2026-05-02T10:37:51Z</time></trkpt><trkpt lat="42.20000481176704" lon="13.70047664342242"><ele>904.0</ele><time>2026-05-02T10:37:53Z</time></trkpt><trkpt lat="42.20001416945412" lon="13.700328989180498"><ele>903.8333333333333</ele><time>2026-05-02T10:37:55Z</time></trkpt><trkpt lat="42.200032181746316" lon="13.700192924736411"><ele>903.6666666666666</ele><time>2026-05-02T10:37:57Z</time></trkpt><trkpt lat="42.20006474090269" lon="13.700070092749383"><ele>903.5</ele><time>2026-05-02T10:37:59Z</time></trkpt><trkpt lat="42.20008004787441" lon="13.699973006670662"><ele>903.3333333333333</ele><time>2026-05-02T10:38:01Z</time></trkpt><trkpt lat="42.20000996899879" lon="13.699954714166049"><ele>903.1666666666666</ele><time>2026-05-02T10:38:14Z</time></trkpt><trkpt lat="42.19993384781436" lon="13.699916765709961"><ele>903.0</ele><time>2026-05-02T10:38:16Z</time></trkpt><trkpt lat="42.19986386385036" lon="13.699848653881395"><ele>894.3333333333334</ele><time>2026-05-02T10:38:18Z</time></trkpt><trkpt lat="42.19981073278263" lon="13.699758845546487"><ele>885.6666666666667</ele><time>2026-05-02T10:38:20Z</time></trkpt><trkpt lat="42.19977351748062" lon="13.699670642124719"><ele>877.0</ele><time>2026-05-02T10:38:22Z</time></trkpt><trkpt lat="42.199741614466" lon="13.699573741244198"><ele>868.3333333333334</ele><time>2026-05-02T10:38:24Z</time></trkpt><trkpt lat="42.19972866096506" lon="13.699483447109925"><ele>859.6666666666667</ele><time>2026-05-02T10:38:34Z</time></trkpt><trkpt lat="42.19969243878744" lon="13.699359229894892"><ele>851.0</ele><time>2026-05-02T10:38:36Z</time></trkpt><trkpt lat="42.19965732958964" lon="13.699261513060218"><ele>851.0</ele><time>2026-05-02T10:38:38Z</time></trkpt><trkpt lat="42.199613400365" lon="13.699156091390643"><ele>851.0</ele><time>2026-05-02T10:38:40Z</time></trkpt><trkpt lat="42.199560523928476" lon="13.699039296868037"><ele>851.0</ele><time>2026-05-02T10:38:42Z</time></trkpt><trkpt lat="42.199520147457335" lon="13.698914824875597"><ele>851.0</ele><time>2026-05-02T10:38:44Z</time></trkpt><trkpt lat="42.199503701682744" lon="13.698776409016308"><ele>851.0</ele><time>2026-05-02T10:38:46Z</time></trkpt><trkpt lat="42.19951031044223" lon="13.698690307765654"><ele>851.8</ele><time>2026-05-02T10:38:47Z</time></trkpt><trkpt lat="42.19950739309352" lon="13.698548099469628"><ele>852.5999999999999</ele><time>2026-05-02T10:38:49Z</time></trkpt><trkpt lat="42.19949893594359" lon="13.698435106268192"><ele>853.4</ele><time>2026-05-02T10:38:51Z</time></trkpt><trkpt lat="42.199468562995115" lon="13.698325228253406"><ele>854.2</ele><time>2026-05-02T10:38:53Z</time></trkpt><trkpt lat="42.19945436897087" lon="13.698214955241045"><ele>855.0</ele><time>2026-05-02T10:38:55Z</time></trkpt><trkpt lat="42.19948202731174" lon="13.698073017626136"><ele>855.0</ele><time>2026-05-02T10:38:57Z</time></trkpt><trkpt lat="42.19949821787236" lon="13.697983741518456"><ele>855.0</ele><time>2026-05-02T10:38:58Z</time></trkpt><trkpt lat="42.1995216882585" lon="13.697904313542082"><ele>855.0</ele><time>2026-05-02T10:38:59Z</time></trkpt><trkpt lat="42.199543903457425" lon="13.697820884183454"><ele>855.0</ele><time>2026-05-02T10:39:00Z</time></trkpt><trkpt lat="42.19959272472752" lon="13.697700578951752"><ele>855.0</ele><time>2026-05-02T10:39:02Z</time></trkpt><trkpt lat="42.19962971458287" lon="13.69759127385838"><ele>855.0</ele><time>2026-05-02T10:39:04Z</time></trkpt><trkpt lat="42.1996820015349" lon="13.697478722412022"><ele>853.0</ele><time>2026-05-02T10:39:06Z</time></trkpt><trkpt lat="42.19973880763847" lon="13.697382393295491"><ele>851.0</ele><time>2026-05-02T10:39:08Z</time></trkpt><trkpt lat="42.19979384511984" lon="13.697311950666046"><ele>849.0</ele><time>2026-05-02T10:39:10Z</time></trkpt><trkpt lat="42.19983103641199" lon="13.697232183939164"><ele>847.0</ele><time>2026-05-02T10:39:11.999Z</time></trkpt><trkpt lat="42.19989895292953" lon="13.697122685015534"><ele>845.0</ele><time>2026-05-02T10:39:14.999Z</time></trkpt><trkpt lat="42.199971557567636" lon="13.697081228347038"><ele>843.0</ele><time>2026-05-02T10:39:16.999Z</time></trkpt><trkpt lat="42.200063645512" lon="13.6970755498093"><ele>850.0</ele><time>2026-05-02T10:39:18.999Z</time></trkpt><trkpt lat="42.20015565036948" lon="13.697087683388034"><ele>857.0</ele><time>2026-05-02T10:39:20.999Z</time></trkpt><trkpt lat="42.20024576145388" lon="13.697056835025686"><ele>864.0</ele><time>2026-05-02T10:39:22.999Z</time></trkpt><trkpt lat="42.200340967188474" lon="13.697005520817688"><ele>871.0</ele><time>2026-05-02T10:39:24.999Z</time></trkpt><trkpt lat="42.20042247903395" lon="13.696992244356332"><ele>878.0</ele><time>2026-05-02T10:39:26.999Z</time></trkpt><trkpt lat="42.20053403776156" lon="13.696960426890843"><ele>874.25</ele><time>2026-05-02T10:39:28.999Z</time></trkpt><trkpt lat="42.20065227446698" lon="13.696915431945104"><ele>870.5</ele><time>2026-05-02T10:39:30.999Z</time></trkpt><trkpt lat="42.200751630794976" lon="13.696845010163658"><ele>866.75</ele><time>2026-05-02T10:39:32.999Z</time></trkpt><trkpt lat="42.20084852525964" lon="13.696753757517245"><ele>863.0</ele><time>2026-05-02T10:39:34.999Z</time></trkpt><trkpt lat="42.200937976330295" lon="13.696667507383824"><ele>863.0000000000001</ele><time>2026-05-02T10:39:36.999Z</time></trkpt><trkpt lat="42.20093800224546" lon="13.696576534497064"><ele>863.0</ele><time>2026-05-02T10:39:38.999Z</time></trkpt><trkpt lat="42.20087470141277" lon="13.696556341682994"><ele>863.0</ele><time>2026-05-02T10:39:40.999Z</time></trkpt><trkpt lat="42.20079053245815" lon="13.6965610123354"><ele>863.0</ele><time>2026-05-02T10:39:42.999Z</time></trkpt><trkpt lat="42.20069347921559" lon="13.696570753310967"><ele>863.0000000000001</ele><time>2026-05-02T10:39:44.999Z</time></trkpt><trkpt lat="42.200600421594274" lon="13.696538356102534"><ele>863.0</ele><time>2026-05-02T10:39:46.999Z</time></trkpt><trkpt lat="42.20054804194376" lon="13.69648624299833"><ele>860.1666666666667</ele><time>2026-05-02T10:39:48.999Z</time></trkpt><trkpt lat="42.20045859590367" lon="13.696534961326945"><ele>857.3333333333334</ele><time>2026-05-02T10:39:52.999Z</time></trkpt><trkpt lat="42.200379821216764" lon="13.696536221288387"><ele>854.5</ele><time>2026-05-02T10:39:54.999Z</time></trkpt><trkpt lat="42.20031973835849" lon="13.69649857136536"><ele>851.6666666666667</ele><time>2026-05-02T10:39:56.999Z</time></trkpt><trkpt lat="42.20024321551571" lon="13.696445117283305"><ele>848.8333333333334</ele><time>2026-05-02T10:39:58.999Z</time></trkpt><trkpt lat="42.20020916412266" lon="13.696349982147689"><ele>846.0</ele><time>2026-05-02T10:40:00.999Z</time></trkpt><trkpt lat="42.200186291870374" lon="13.696258827567862"><ele>846.0</ele><time>2026-05-02T10:40:03.999Z</time></trkpt><trkpt lat="42.2001193334383" lon="13.696239906683651"><ele>846.0</ele><time>2026-05-02T10:40:05.999Z</time></trkpt><trkpt lat="42.20004221570637" lon="13.696248868476426"><ele>846.0</ele><time>2026-05-02T10:40:07.999Z</time></trkpt><trkpt lat="42.19996349416331" lon="13.696332311679793"><ele>846.0</ele><time>2026-05-02T10:40:09.999Z</time></trkpt><trkpt lat="42.199902193415184" lon="13.696378447356205"><ele>846.0</ele><time>2026-05-02T10:40:11.999Z</time></trkpt><trkpt lat="42.19983835744066" lon="13.696396495237956"><ele>846.0</ele><time>2026-05-02T10:40:22.999Z</time></trkpt><trkpt lat="42.199777810854954" lon="13.696356931627244"><ele>846.0</ele><time>2026-05-02T10:40:25.999Z</time></trkpt><trkpt lat="42.199701541392" lon="13.696275051890424"><ele>840.8</ele><time>2026-05-02T10:40:28.999Z</time></trkpt><trkpt lat="42.1996476131761" lon="13.696175787015019"><ele>835.5999999999999</ele><time>2026-05-02T10:40:30.999Z</time></trkpt><trkpt lat="42.19961115613148" lon="13.69609901487018"><ele>830.4</ele><time>2026-05-02T10:40:31.999Z</time></trkpt><trkpt lat="42.199541206371336" lon="13.695959583664818"><ele>825.2</ele><time>2026-05-02T10:40:33.999Z</time></trkpt><trkpt lat="42.19950724034634" lon="13.695887610211948"><ele>820.0</ele><time>2026-05-02T10:40:34.999Z</time></trkpt><trkpt lat="42.19943032335289" lon="13.695750206887338"><ele>818.1666666666666</ele><time>2026-05-02T10:40:36.999Z</time></trkpt><trkpt lat="42.19939140507132" lon="13.695680108976994"><ele>816.3333333333333</ele><time>2026-05-02T10:40:37.999Z</time></trkpt><trkpt lat="42.199307553394185" lon="13.695564986109014"><ele>814.5</ele><time>2026-05-02T10:40:39.999Z</time></trkpt><trkpt lat="42.19926624482624" lon="13.695490329559831"><ele>812.6666666666667</ele><time>2026-05-02T10:40:40.999Z</time></trkpt><trkpt lat="42.1992536630516" lon="13.69540587925638"><ele>810.8333333333334</ele><time>2026-05-02T10:40:41.999Z</time></trkpt><trkpt lat="42.19922127688018" lon="13.69532190763692"><ele>809.0</ele><time>2026-05-02T10:40:42.999Z</time></trkpt><trkpt lat="42.19918662716818" lon="13.69521837314867"><ele>809.0000000000001</ele><time>2026-05-02T10:40:43.999Z</time></trkpt><trkpt lat="42.19914723051982" lon="13.695136407841398"><ele>809.0</ele><time>2026-05-02T10:40:44.999Z</time></trkpt><trkpt lat="42.1991131378421" lon="13.695061276951575"><ele>809.0</ele><time>2026-05-02T10:40:45.999Z</time></trkpt><trkpt lat="42.19902306461638" lon="13.694982149987531"><ele>809.0</ele><time>2026-05-02T10:40:47.999Z</time></trkpt><trkpt lat="42.19895079598686" lon="13.69497065906577"><ele>809.0000000000001</ele><time>2026-05-02T10:40:48.999Z</time></trkpt><trkpt lat="42.19887123337703" lon="13.695022587959903"><ele>809.0</ele><time>2026-05-02T10:40:50.999Z</time></trkpt><trkpt lat="42.198814557343205" lon="13.695139345166108"><ele>803.8000000000001</ele><time>2026-05-02T10:40:52.999Z</time></trkpt><trkpt lat="42.19875032012684" lon="13.695292584141363"><ele>798.6</ele><time>2026-05-02T10:40:54.999Z</time></trkpt><trkpt lat="42.1986863912193" lon="13.695381219814502"><ele>793.4</ele><time>2026-05-02T10:40:55.999Z</time></trkpt><trkpt lat="42.198635655409824" lon="13.695464453449045"><ele>788.2</ele><time>2026-05-02T10:40:56.999Z</time></trkpt><trkpt lat="42.1985753864294" lon="13.69556355487576"><ele>783.0</ele><time>2026-05-02T10:40:58.998Z</time></trkpt><trkpt lat="42.198513793678345" lon="13.695606665663204"><ele>783.0</ele><time>2026-05-02T10:41:00.998Z</time></trkpt><trkpt lat="42.19844428955759" lon="13.695562204918906"><ele>783.0</ele><time>2026-05-02T10:41:02.998Z</time></trkpt><trkpt lat="42.19836465123055" lon="13.695511150873275"><ele>783.0</ele><time>2026-05-02T10:41:04.998Z</time></trkpt><trkpt lat="42.198267272516" lon="13.695486952916154"><ele>783.0</ele><time>2026-05-02T10:41:06.998Z</time></trkpt><trkpt lat="42.198180703692216" lon="13.695490314937922"><ele>783.0</ele><time>2026-05-02T10:41:08.998Z</time></trkpt><trkpt lat="42.19811158353149" lon="13.69555828472717"><ele>783.0</ele><time>2026-05-02T10:41:10.998Z</time></trkpt><trkpt lat="42.19804104112661" lon="13.695619126416783"><ele>779.8333333333334</ele><time>2026-05-02T10:41:12.998Z</time></trkpt><trkpt lat="42.197947184485784" lon="13.695661984508206"><ele>776.6666666666666</ele><time>2026-05-02T10:41:14.998Z</time></trkpt><trkpt lat="42.19788353298886" lon="13.695697689319212"><ele>773.5</ele><time>2026-05-02T10:41:15.998Z</time></trkpt><trkpt lat="42.19780299823193" lon="13.695729173661057"><ele>770.3333333333333</ele><time>2026-05-02T10:41:16.998Z</time></trkpt><trkpt lat="42.19770371598881" lon="13.695751976727847"><ele>767.1666666666666</ele><time>2026-05-02T10:41:17.998Z</time></trkpt><trkpt lat="42.19761015884542" lon="13.695769091760514"><ele>764.0</ele><time>2026-05-02T10:41:18.998Z</time></trkpt><trkpt lat="42.19750722754217" lon="13.695795827631857"><ele>764.0</ele><time>2026-05-02T10:41:19.998Z</time></trkpt><trkpt lat="42.19739417372711" lon="13.695830629155546"><ele>764.0</ele><time>2026-05-02T10:41:20.998Z</time></trkpt><trkpt lat="42.19728373986955" lon="13.695874999148698"><ele>764.0</ele><time>2026-05-02T10:41:21.998Z</time></trkpt><trkpt lat="42.19717096361583" lon="13.695915978249475"><ele>764.0</ele><time>2026-05-02T10:41:22.998Z</time></trkpt><trkpt lat="42.19706142285367" lon="13.695953257248629"><ele>760.4000000000001</ele><time>2026-05-02T10:41:23.998Z</time></trkpt><trkpt lat="42.19695430604483" lon="13.695988077091236"><ele>756.8</ele><time>2026-05-02T10:41:24.998Z</time></trkpt><trkpt lat="42.19685139549827" lon="13.696018812739592"><ele>753.2</ele><time>2026-05-02T10:41:25.998Z</time></trkpt><trkpt lat="42.196772068592104" lon="13.6960521117862"><ele>749.5999999999999</ele><time>2026-05-02T10:41:26.998Z</time></trkpt><trkpt lat="42.196665803341304" lon="13.696095590059366"><ele>746.0</ele><time>2026-05-02T10:41:28.998Z</time></trkpt><trkpt lat="42.19658740241951" lon="13.696129409739012"><ele>745.3333333333333</ele><time>2026-05-02T10:41:30.998Z</time></trkpt><trkpt lat="42.1965587058618" lon="13.696226649742723"><ele>744.6666666666666</ele><time>2026-05-02T10:41:33.998Z</time></trkpt><trkpt lat="42.196481995729634" lon="13.696156946192417"><ele>744.0</ele><time>2026-05-02T10:41:39.998Z</time></trkpt><trkpt lat="42.19646727318396" lon="13.696071272066481"><ele>743.3333333333334</ele><time>2026-05-02T10:41:40.998Z</time></trkpt><trkpt lat="42.19644359228968" lon="13.695974650956495"><ele>742.6666666666667</ele><time>2026-05-02T10:41:41.998Z</time></trkpt><trkpt lat="42.196424510836565" lon="13.695862165407739"><ele>742.0</ele><time>2026-05-02T10:41:42.998Z</time></trkpt><trkpt lat="42.196414054056405" lon="13.695738047962758"><ele>740.5</ele><time>2026-05-02T10:41:43.998Z</time></trkpt><trkpt lat="42.196395013151516" lon="13.695614645500955"><ele>739.0</ele><time>2026-05-02T10:41:44.998Z</time></trkpt><trkpt lat="42.196388698249635" lon="13.69550090215592"><ele>737.5</ele><time>2026-05-02T10:41:45.998Z</time></trkpt><trkpt lat="42.19638977659643" lon="13.695398512117007"><ele>736.0</ele><time>2026-05-02T10:41:46.998Z</time></trkpt><trkpt lat="42.19639764762579" lon="13.695303762633511"><ele>734.5</ele><time>2026-05-02T10:41:47.998Z</time></trkpt><trkpt lat="42.19641890101716" lon="13.695209543794595"><ele>733.0</ele><time>2026-05-02T10:41:48.998Z</time></trkpt><trkpt lat="42.19644621532021" lon="13.69511580542641"><ele>733.0</ele><time>2026-05-02T10:41:49.998Z</time></trkpt><trkpt lat="42.19648059358776" lon="13.695022903861735"><ele>733.0</ele><time>2026-05-02T10:41:50.998Z</time></trkpt><trkpt lat="42.196524272451946" lon="13.694926101878597"><ele>733.0</ele><time>2026-05-02T10:41:51.998Z</time></trkpt><trkpt lat="42.19656864891787" lon="13.69482085502668"><ele>733.0</ele><time>2026-05-02T10:41:52.998Z</time></trkpt><trkpt lat="42.196610155698394" lon="13.69473853571159"><ele>733.0</ele><time>2026-05-02T10:41:53.998Z</time></trkpt><trkpt lat="42.19665586797438" lon="13.694678555589036"><ele>733.0</ele><time>2026-05-02T10:41:56.998Z</time></trkpt><trkpt lat="42.196682617328854" lon="13.694792180023198"><ele>733.0</ele><time>2026-05-02T10:42:16.998Z</time></trkpt><trkpt lat="42.196638708968436" lon="13.694883251658196"><ele>733.0</ele><time>2026-05-02T10:42:17.998Z</time></trkpt><trkpt lat="42.196591390350214" lon="13.69495685221906"><ele>733.0</ele><time>2026-05-02T10:42:18.998Z</time></trkpt><trkpt lat="42.19653460867043" lon="13.695100862896163"><ele>733.0</ele><time>2026-05-02T10:42:20.998Z</time></trkpt><trkpt lat="42.196498163408116" lon="13.69525370094474"><ele>733.0</ele><time>2026-05-02T10:42:22.998Z</time></trkpt><trkpt lat="42.196498692744186" lon="13.69535292722865"><ele>733.0</ele><time>2026-05-02T10:42:24.998Z</time></trkpt><trkpt lat="42.196442581714486" lon="13.69530195815659"><ele>733.0</ele><time>2026-05-02T10:42:29.998Z</time></trkpt><trkpt lat="42.19643121389817" lon="13.695129836792256"><ele>733.0</ele><time>2026-05-02T10:42:31.998Z</time></trkpt><trkpt lat="42.196395994441346" lon="13.695018351404052"><ele>733.0</ele><time>2026-05-02T10:42:32.998Z</time></trkpt><trkpt lat="42.196369127934645" lon="13.694901226828424"><ele>733.0</ele><time>2026-05-02T10:42:33.998Z</time></trkpt><trkpt lat="42.19635723782281" lon="13.69477783039715"><ele>733.0</ele><time>2026-05-02T10:42:34.998Z</time></trkpt><trkpt lat="42.196342657135624" lon="13.694664882130631"><ele>733.0</ele><time>2026-05-02T10:42:35.998Z</time></trkpt><trkpt lat="42.196325159733036" lon="13.694567650310624"><ele>733.0</ele><time>2026-05-02T10:42:36.998Z</time></trkpt><trkpt lat="42.19629774917202" lon="13.694475876518498"><ele>733.0</ele><time>2026-05-02T10:42:37.998Z</time></trkpt><trkpt lat="42.19626429638079" lon="13.694387010170459"><ele>733.0</ele><time>2026-05-02T10:42:38.998Z</time></trkpt><trkpt lat="42.19622931743962" lon="13.694300061252752"><ele>733.0</ele><time>2026-05-02T10:42:39.998Z</time></trkpt><trkpt lat="42.196192246575194" lon="13.694216606522446"><ele>732.7142857142857</ele><time>2026-05-02T10:42:40.998Z</time></trkpt><trkpt lat="42.196165383392064" lon="13.694139128564816"><ele>732.4285714285714</ele><time>2026-05-02T10:42:41.998Z</time></trkpt><trkpt lat="42.19612707306428" lon="13.694066283762385"><ele>732.1428571428571</ele><time>2026-05-02T10:42:42.998Z</time></trkpt><trkpt lat="42.196093928785075" lon="13.693983395896817"><ele>731.8571428571429</ele><time>2026-05-02T10:42:43.998Z</time></trkpt><trkpt lat="42.19606409368556" lon="13.69389638170895"><ele>731.5714285714286</ele><time>2026-05-02T10:42:44.998Z</time></trkpt><trkpt lat="42.1960420166872" lon="13.693807247893306"><ele>731.2857142857142</ele><time>2026-05-02T10:42:45.998Z</time></trkpt><trkpt lat="42.196030672679534" lon="13.693718469739933"><ele>731.0</ele><time>2026-05-02T10:42:46.998Z</time></trkpt><trkpt lat="42.196002322020895" lon="13.693568749071623"><ele>729.8333333333333</ele><time>2026-05-02T10:42:48.998Z</time></trkpt><trkpt lat="42.19596297312973" lon="13.693441127536822"><ele>728.6666666666666</ele><time>2026-05-02T10:42:50.998Z</time></trkpt><trkpt lat="42.19593828879807" lon="13.693336761388066"><ele>727.5</ele><time>2026-05-02T10:42:52.998Z</time></trkpt><trkpt lat="42.19591361144594" lon="13.693214420499654"><ele>726.3333333333334</ele><time>2026-05-02T10:42:55.998Z</time></trkpt><trkpt lat="42.1958938312649" lon="13.693131170187204"><ele>725.1666666666667</ele><time>2026-05-02T10:42:57.998Z</time></trkpt><trkpt lat="42.19588674694317" lon="13.693032538830582"><ele>724.0</ele><time>2026-05-02T10:42:59.998Z</time></trkpt><trkpt lat="42.195890103975415" lon="13.692896976675394"><ele>722.0</ele><time>2026-05-02T10:43:01.998Z</time></trkpt><trkpt lat="42.19590113281672" lon="13.692740319430055"><ele>720.0</ele><time>2026-05-02T10:43:03.998Z</time></trkpt><trkpt lat="42.19591210033097" lon="13.692579206810883"><ele>718.0</ele><time>2026-05-02T10:43:05.998Z</time></trkpt><trkpt lat="42.19592579249234" lon="13.692450657125288"><ele>716.0</ele><time>2026-05-02T10:43:07.998Z</time></trkpt><trkpt lat="42.19593258525427" lon="13.692308549291065"><ele>714.0</ele><time>2026-05-02T10:43:09.998Z</time></trkpt><trkpt lat="42.19595940203611" lon="13.692167151693566"><ele>714.0</ele><time>2026-05-02T10:43:11.998Z</time></trkpt><trkpt lat="42.19595500405283" lon="13.692054731427637"><ele>714.0</ele><time>2026-05-02T10:43:13.998Z</time></trkpt><trkpt lat="42.19590065225744" lon="13.69196520947481"><ele>714.0</ele><time>2026-05-02T10:43:15.998Z</time></trkpt><trkpt lat="42.19587802448369" lon="13.691855562291959"><ele>714.0</ele><time>2026-05-02T10:43:17.998Z</time></trkpt><trkpt lat="42.195823520974734" lon="13.69173661242579"><ele>714.0</ele><time>2026-05-02T10:43:19.998Z</time></trkpt><trkpt lat="42.19574756030083" lon="13.691626619866268"><ele>710.4000000000001</ele><time>2026-05-02T10:43:21.998Z</time></trkpt><trkpt lat="42.19563345880714" lon="13.69157153495202"><ele>706.8</ele><time>2026-05-02T10:43:23.998Z</time></trkpt><trkpt lat="42.19550221199766" lon="13.691527131441998"><ele>703.2</ele><time>2026-05-02T10:43:25.998Z</time></trkpt><trkpt lat="42.195431718226395" lon="13.691505988148782"><ele>699.5999999999999</ele><time>2026-05-02T10:43:26.998Z</time></trkpt><trkpt lat="42.195365554636" lon="13.6914837132735"><ele>696.0</ele><time>2026-05-02T10:43:27.998Z</time></trkpt><trkpt lat="42.195298242717556" lon="13.69145426317587"><ele>696.0</ele><time>2026-05-02T10:43:28.998Z</time></trkpt><trkpt lat="42.19522770979859" lon="13.691426352692167"><ele>696.0</ele><time>2026-05-02T10:43:29.998Z</time></trkpt><trkpt lat="42.19515251148888" lon="13.691400165043218"><ele>696.0</ele><time>2026-05-02T10:43:30.998Z</time></trkpt><trkpt lat="42.19506669679177" lon="13.691376973868284"><ele>696.0</ele><time>2026-05-02T10:43:31.998Z</time></trkpt><trkpt lat="42.19497661210191" lon="13.691355018452153"><ele>696.0</ele><time>2026-05-02T10:43:32.998Z</time></trkpt><trkpt lat="42.194887738465575" lon="13.6913221481756"><ele>696.0</ele><time>2026-05-02T10:43:33.998Z</time></trkpt><trkpt lat="42.194796928912055" lon="13.691289536217946"><ele>694.1666666666666</ele><time>2026-05-02T10:43:34.998Z</time></trkpt><trkpt lat="42.19470907908556" lon="13.691250771999858"><ele>692.3333333333334</ele><time>2026-05-02T10:43:35.998Z</time></trkpt><trkpt lat="42.19464704188023" lon="13.691189828202193"><ele>690.5</ele><time>2026-05-02T10:43:36.998Z</time></trkpt><trkpt lat="42.19457612663911" lon="13.69112842105795"><ele>688.6666666666667</ele><time>2026-05-02T10:43:37.998Z</time></trkpt><trkpt lat="42.19451368949525" lon="13.691074614679122"><ele>686.8333333333334</ele><time>2026-05-02T10:43:38.998Z</time></trkpt><trkpt lat="42.194461862022685" lon="13.691018429052804"><ele>685.0</ele><time>2026-05-02T10:43:39.998Z</time></trkpt><trkpt lat="42.19441323957944" lon="13.690950690018402"><ele>684.2857142857142</ele><time>2026-05-02T10:43:40.998Z</time></trkpt><trkpt lat="42.194363872290204" lon="13.690886356973117"><ele>683.5714285714287</ele><time>2026-05-02T10:43:41.998Z</time></trkpt><trkpt lat="42.1943119768691" lon="13.690814932005694"><ele>682.8571428571429</ele><time>2026-05-02T10:43:42.998Z</time></trkpt><trkpt lat="42.19427234907219" lon="13.690725611168558"><ele>682.1428571428571</ele><time>2026-05-02T10:43:43.998Z</time></trkpt><trkpt lat="42.19422865430694" lon="13.69063953927245"><ele>681.4285714285713</ele><time>2026-05-02T10:43:44.998Z</time></trkpt><trkpt lat="42.19419633456656" lon="13.690560340799177"><ele>680.7142857142858</ele><time>2026-05-02T10:43:45.998Z</time></trkpt><trkpt lat="42.19417377690488" lon="13.690452998159621"><ele>680.0</ele><time>2026-05-02T10:43:46.998Z</time></trkpt><trkpt lat="42.1941355401322" lon="13.690374487067535"><ele>680.0</ele><time>2026-05-02T10:43:47.998Z</time></trkpt><trkpt lat="42.1940727485984" lon="13.690276830663203"><ele>680.0</ele><time>2026-05-02T10:43:48.998Z</time></trkpt><trkpt lat="42.19401164689266" lon="13.690210709517048"><ele>680.0</ele><time>2026-05-02T10:43:49.998Z</time></trkpt><trkpt lat="42.193932150727335" lon="13.690151910737349"><ele>680.0</ele><time>2026-05-02T10:43:51.998Z</time></trkpt><trkpt lat="42.19381638988526" lon="13.690117853378581"><ele>680.0</ele><time>2026-05-02T10:43:53.998Z</time></trkpt><trkpt lat="42.19374589251938" lon="13.690097882123974"><ele>677.5</ele><time>2026-05-02T10:43:54.998Z</time></trkpt><trkpt lat="42.193650960567666" lon="13.690062743072874"><ele>675.0</ele><time>2026-05-02T10:43:56.998Z</time></trkpt><trkpt lat="42.19359431868176" lon="13.690005491270787"><ele>672.5</ele><time>2026-05-02T10:43:58.998Z</time></trkpt><trkpt lat="42.19354938172646" lon="13.689911711115085"><ele>670.0</ele><time>2026-05-02T10:44:00.998Z</time></trkpt><trkpt lat="42.19352099835413" lon="13.689823749114046"><ele>667.5</ele><time>2026-05-02T10:44:02.998Z</time></trkpt><trkpt lat="42.193472130652594" lon="13.68969983564027"><ele>665.0</ele><time>2026-05-02T10:44:04.998Z</time></trkpt><trkpt lat="42.193441045620204" lon="13.68962111311815"><ele>665.0</ele><time>2026-05-02T10:44:08.998Z</time></trkpt><trkpt lat="42.19340681790828" lon="13.689495831083669"><ele>665.0</ele><time>2026-05-02T10:44:11.998Z</time></trkpt><trkpt lat="42.19340245199155" lon="13.689393879449893"><ele>665.0</ele><time>2026-05-02T10:44:13.998Z</time></trkpt><trkpt lat="42.19333720014536" lon="13.689212245302919"><ele>665.0</ele><time>2026-05-02T10:44:31.997Z</time></trkpt><trkpt lat="42.193272866518846" lon="13.68912109086151"><ele>665.0</ele><time>2026-05-02T10:44:32.997Z</time></trkpt><trkpt lat="42.193216645051" lon="13.689038406905196"><ele>665.2</ele><time>2026-05-02T10:44:33.997Z</time></trkpt><trkpt lat="42.193170118980326" lon="13.688962160483202"><ele>665.4</ele><time>2026-05-02T10:44:34.997Z</time></trkpt><trkpt lat="42.19313491565442" lon="13.688860324088708"><ele>665.5999999999999</ele><time>2026-05-02T10:44:35.997Z</time></trkpt><trkpt lat="42.19310350771418" lon="13.688727468583334"><ele>665.8</ele><time>2026-05-02T10:44:36.997Z</time></trkpt><trkpt lat="42.19307187389147" lon="13.688577594216214"><ele>666.0</ele><time>2026-05-02T10:44:37.997Z</time></trkpt><trkpt lat="42.19304415456236" lon="13.688449381422533"><ele>667.4285714285714</ele><time>2026-05-02T10:44:38.997Z</time></trkpt><trkpt lat="42.19302709374454" lon="13.688344404295743"><ele>668.8571428571428</ele><time>2026-05-02T10:44:39.997Z</time></trkpt><trkpt lat="42.19302202491097" lon="13.688239738138742"><ele>670.2857142857142</ele><time>2026-05-02T10:44:41.002Z</time></trkpt><trkpt lat="42.19303482326446" lon="13.688139488833828"><ele>671.7142857142858</ele><time>2026-05-02T10:44:42.002Z</time></trkpt><trkpt lat="42.19305372887185" lon="13.68804979858063"><ele>673.1428571428571</ele><time>2026-05-02T10:44:43.002Z</time></trkpt><trkpt lat="42.193063355147196" lon="13.68794818077772"><ele>674.5714285714286</ele><time>2026-05-02T10:44:44.002Z</time></trkpt><trkpt lat="42.19306598001722" lon="13.687860181915125"><ele>676.0</ele><time>2026-05-02T10:44:45.002Z</time></trkpt><trkpt lat="42.19305867475377" lon="13.687774788645337"><ele>676.1666666666667</ele><time>2026-05-02T10:44:46.002Z</time></trkpt><trkpt lat="42.19303973592196" lon="13.68768131730113"><ele>676.3333333333334</ele><time>2026-05-02T10:44:47.002Z</time></trkpt><trkpt lat="42.193009013174304" lon="13.687581522792334"><ele>676.5</ele><time>2026-05-02T10:44:48.002Z</time></trkpt><trkpt lat="42.19298203250706" lon="13.687493053875716"><ele>676.6666666666666</ele><time>2026-05-02T10:44:49.002Z</time></trkpt><trkpt lat="42.19295720444589" lon="13.687403593469098"><ele>676.8333333333333</ele><time>2026-05-02T10:44:50.002Z</time></trkpt><trkpt lat="42.19293763564314" lon="13.68728800566161"><ele>677.0</ele><time>2026-05-02T10:44:52.002Z</time></trkpt><trkpt lat="42.192953512724934" lon="13.687182603630827"><ele>677.0</ele><time>2026-05-02T10:45:00.001Z</time></trkpt><trkpt lat="42.19299404177126" lon="13.687050166216736"><ele>677.0</ele><time>2026-05-02T10:45:02.001Z</time></trkpt><trkpt lat="42.193022653978076" lon="13.686954215793946"><ele>677.0</ele><time>2026-05-02T10:45:03.001Z</time></trkpt><trkpt lat="42.193062829957064" lon="13.686851429285197"><ele>677.0</ele><time>2026-05-02T10:45:04.001Z</time></trkpt><trkpt lat="42.19310097651974" lon="13.68673916096335"><ele>677.0</ele><time>2026-05-02T10:45:05.001Z</time></trkpt><trkpt lat="42.19312724600708" lon="13.68661875957499"><ele>676.6666666666666</ele><time>2026-05-02T10:45:06.001Z</time></trkpt><trkpt lat="42.19315592626048" lon="13.686500425793751"><ele>676.3333333333333</ele><time>2026-05-02T10:45:07.001Z</time></trkpt><trkpt lat="42.19317994885054" lon="13.68638668521681"><ele>676.0</ele><time>2026-05-02T10:45:08.001Z</time></trkpt><trkpt lat="42.193201707784176" lon="13.686263058170962"><ele>675.6666666666666</ele><time>2026-05-02T10:45:09.001Z</time></trkpt><trkpt lat="42.193224672246856" lon="13.686149580267344"><ele>675.3333333333334</ele><time>2026-05-02T10:45:10.001Z</time></trkpt><trkpt lat="42.193243108794945" lon="13.686043356509737"><ele>675.0</ele><time>2026-05-02T10:45:11Z</time></trkpt><trkpt lat="42.193241078967006" lon="13.68595215041426"><ele>675.0</ele><time>2026-05-02T10:45:12Z</time></trkpt><trkpt lat="42.19322733684629" lon="13.685861590303045"><ele>675.0</ele><time>2026-05-02T10:45:13Z</time></trkpt><trkpt lat="42.19320642747727" lon="13.685748539758897"><ele>675.0</ele><time>2026-05-02T10:45:14Z</time></trkpt><trkpt lat="42.19318864249097" lon="13.685636194749577"><ele>675.0</ele><time>2026-05-02T10:45:15Z</time></trkpt><trkpt lat="42.19318248647634" lon="13.685531564830862"><ele>675.0</ele><time>2026-05-02T10:45:16Z</time></trkpt><trkpt lat="42.19318221436434" lon="13.68542551173942"><ele>675.0</ele><time>2026-05-02T10:45:17Z</time></trkpt><trkpt lat="42.193192258778744" lon="13.685321157344735"><ele>674.8</ele><time>2026-05-02T10:45:18Z</time></trkpt><trkpt lat="42.19320879796716" lon="13.685215543947526"><ele>674.6</ele><time>2026-05-02T10:45:19Z</time></trkpt><trkpt lat="42.19320596007442" lon="13.685090631094992"><ele>674.4000000000001</ele><time>2026-05-02T10:45:20Z</time></trkpt><trkpt lat="42.193197448713256" lon="13.684965589004825"><ele>674.2</ele><time>2026-05-02T10:45:21Z</time></trkpt><trkpt lat="42.19317858905032" lon="13.68484625926484"><ele>674.0</ele><time>2026-05-02T10:45:22Z</time></trkpt><trkpt lat="42.19316301749798" lon="13.684721067073745"><ele>671.6</ele><time>2026-05-02T10:45:23Z</time></trkpt><trkpt lat="42.19314792078107" lon="13.684602456186017"><ele>669.2</ele><time>2026-05-02T10:45:24Z</time></trkpt><trkpt lat="42.19311440029812" lon="13.684468655826173"><ele>666.8000000000001</ele><time>2026-05-02T10:45:25Z</time></trkpt><trkpt lat="42.193082707105155" lon="13.684335124744175"><ele>664.4000000000001</ele><time>2026-05-02T10:45:26Z</time></trkpt><trkpt lat="42.19305884495964" lon="13.68420071522616"><ele>662.0</ele><time>2026-05-02T10:45:27Z</time></trkpt><trkpt lat="42.193034728875375" lon="13.684058519146335"><ele>661.8</ele><time>2026-05-02T10:45:28Z</time></trkpt><trkpt lat="42.19300619192075" lon="13.683925942197362"><ele>661.6</ele><time>2026-05-02T10:45:29Z</time></trkpt><trkpt lat="42.192975690150256" lon="13.6838012014059"><ele>661.4</ele><time>2026-05-02T10:45:30Z</time></trkpt><trkpt lat="42.192948790245374" lon="13.68369729430572"><ele>661.1999999999999</ele><time>2026-05-02T10:45:31Z</time></trkpt><trkpt lat="42.19292032322622" lon="13.683575927833768"><ele>661.0</ele><time>2026-05-02T10:45:32Z</time></trkpt><trkpt lat="42.19289123661757" lon="13.68345212394905"><ele>661.5999999999999</ele><time>2026-05-02T10:45:33Z</time></trkpt><trkpt lat="42.19286795144639" lon="13.683316229100832"><ele>662.2</ele><time>2026-05-02T10:45:34Z</time></trkpt><trkpt lat="42.19284817941363" lon="13.683187444477833"><ele>662.8</ele><time>2026-05-02T10:45:35Z</time></trkpt><trkpt lat="42.192828140288455" lon="13.683057156473993"><ele>663.4000000000001</ele><time>2026-05-02T10:45:36Z</time></trkpt><trkpt lat="42.192807520506044" lon="13.682936808485376"><ele>664.0</ele><time>2026-05-02T10:45:37Z</time></trkpt><trkpt lat="42.19278911188727" lon="13.682816497038049"><ele>664.8333333333334</ele><time>2026-05-02T10:45:38Z</time></trkpt><trkpt lat="42.192772693619645" lon="13.682705684626264"><ele>665.6666666666667</ele><time>2026-05-02T10:45:39Z</time></trkpt><trkpt lat="42.19275368740136" lon="13.682607895466745"><ele>666.5</ele><time>2026-05-02T10:45:40Z</time></trkpt><trkpt lat="42.192734436810035" lon="13.682519196631562"><ele>667.3333333333334</ele><time>2026-05-02T10:45:41Z</time></trkpt><trkpt lat="42.19272468178991" lon="13.682423498201581"><ele>668.1666666666666</ele><time>2026-05-02T10:45:42Z</time></trkpt><trkpt lat="42.19269832223359" lon="13.682308102119615"><ele>669.0</ele><time>2026-05-02T10:45:44Z</time></trkpt><trkpt lat="42.1926755030355" lon="13.682218829777343"><ele>669.0</ele><time>2026-05-02T10:45:46Z</time></trkpt><trkpt lat="42.19268969464038" lon="13.682101581470066"><ele>669.0</ele><time>2026-05-02T10:45:48Z</time></trkpt><trkpt lat="42.19274256960658" lon="13.681993345279475"><ele>669.0</ele><time>2026-05-02T10:45:50Z</time></trkpt><trkpt lat="42.19278116293501" lon="13.681886103807116"><ele>669.0</ele><time>2026-05-02T10:45:52Z</time></trkpt><trkpt lat="42.192786634504266" lon="13.681777053214837"><ele>669.0</ele><time>2026-05-02T10:45:54Z</time></trkpt><trkpt lat="42.19278987642232" lon="13.68167038410897"><ele>669.0</ele><time>2026-05-02T10:45:56Z</time></trkpt><trkpt lat="42.19278533783527" lon="13.681532630026348"><ele>668.3333333333334</ele><time>2026-05-02T10:45:58Z</time></trkpt><trkpt lat="42.1928022259634" lon="13.681412945896227"><ele>667.6666666666666</ele><time>2026-05-02T10:46:00Z</time></trkpt><trkpt lat="42.1928301587247" lon="13.681328931170809"><ele>667.0</ele><time>2026-05-02T10:46:02Z</time></trkpt><trkpt lat="42.19290730873826" lon="13.681244924548583"><ele>666.3333333333333</ele><time>2026-05-02T10:46:04Z</time></trkpt><trkpt lat="42.19294558287847" lon="13.6811660808473"><ele>665.6666666666666</ele><time>2026-05-02T10:46:05Z</time></trkpt><trkpt lat="42.19298021560233" lon="13.681075557691749"><ele>665.0</ele><time>2026-05-02T10:46:06Z</time></trkpt><trkpt lat="42.19305488264391" lon="13.680971233244076"><ele>662.4</ele><time>2026-05-02T10:46:08Z</time></trkpt><trkpt lat="42.19308563698481" lon="13.68089564382592"><ele>659.8</ele><time>2026-05-02T10:46:10Z</time></trkpt><trkpt lat="42.19307571064024" lon="13.680810844868086"><ele>657.2</ele><time>2026-05-02T10:46:12Z</time></trkpt><trkpt lat="42.19304435914631" lon="13.680658682936503"><ele>654.6</ele><time>2026-05-02T10:46:14Z</time></trkpt><trkpt lat="42.19300858254735" lon="13.680500952062815"><ele>652.0</ele><time>2026-05-02T10:46:16Z</time></trkpt><trkpt lat="42.19299667091126" lon="13.680372469483183"><ele>652.0</ele><time>2026-05-02T10:46:18Z</time></trkpt><trkpt lat="42.19298775195322" lon="13.680271774440394"><ele>652.0</ele><time>2026-05-02T10:46:20Z</time></trkpt><trkpt lat="42.19298876019156" lon="13.680158843727527"><ele>652.0</ele><time>2026-05-02T10:46:22Z</time></trkpt><trkpt lat="42.19300345884401" lon="13.6799698313387"><ele>652.0</ele><time>2026-05-02T10:46:23.999Z</time></trkpt><trkpt lat="42.19303567429705" lon="13.679843262102281"><ele>652.0</ele><time>2026-05-02T10:46:24.999Z</time></trkpt><trkpt lat="42.19310253784045" lon="13.67970346552969"><ele>653.3333333333334</ele><time>2026-05-02T10:46:25.999Z</time></trkpt><trkpt lat="42.193185592463706" lon="13.67954973471662"><ele>654.6666666666666</ele><time>2026-05-02T10:46:26.999Z</time></trkpt><trkpt lat="42.19328550837284" lon="13.679346067611933"><ele>656.0</ele><time>2026-05-02T10:46:27.999Z</time></trkpt><trkpt lat="42.193420079542584" lon="13.679125269999776"><ele>652.0</ele><time>2026-05-02T10:46:28.999Z</time></trkpt><trkpt lat="42.19357836669614" lon="13.678871540694946"><ele>648.0</ele><time>2026-05-02T10:46:29.999Z</time></trkpt><trkpt lat="42.19375992797734" lon="13.678605248447978"><ele>650.0</ele><time>2026-05-02T10:46:30.999Z</time></trkpt><trkpt lat="42.193917116529136" lon="13.678311389432183"><ele>652.0</ele><time>2026-05-02T10:46:31.999Z</time></trkpt><trkpt lat="42.19407057513296" lon="13.678038169158823"><ele>652.0</ele><time>2026-05-02T10:46:32.999Z</time></trkpt><trkpt lat="42.194224369464074" lon="13.677797650025758"><ele>652.0</ele><time>2026-05-02T10:46:33.999Z</time></trkpt><trkpt lat="42.19437389133354" lon="13.677582207708095"><ele>649.0</ele><time>2026-05-02T10:46:34.999Z</time></trkpt><trkpt lat="42.194507903330354" lon="13.677380893445875"><ele>646.0</ele><time>2026-05-02T10:46:35.999Z</time></trkpt><trkpt lat="42.19461730077675" lon="13.677176837079239"><ele>643.0</ele><time>2026-05-02T10:46:36.999Z</time></trkpt><trkpt lat="42.19470889957586" lon="13.676949367395892"><ele>644.6666666666667</ele><time>2026-05-02T10:46:37.999Z</time></trkpt><trkpt lat="42.19481757779415" lon="13.676716695012994"><ele>646.3333333333334</ele><time>2026-05-02T10:46:38.999Z</time></trkpt><trkpt lat="42.19491012237049" lon="13.67648486103112"><ele>648.0</ele><time>2026-05-02T10:46:39.999Z</time></trkpt><trkpt lat="42.19499042039589" lon="13.676293907589535"><ele>648.0</ele><time>2026-05-02T10:46:40.999Z</time></trkpt><trkpt lat="42.19508172908841" lon="13.67612167758218"><ele>648.0</ele><time>2026-05-02T10:46:41.999Z</time></trkpt><trkpt lat="42.195146826051875" lon="13.675954205060911"><ele>648.0</ele><time>2026-05-02T10:46:42.999Z</time></trkpt><trkpt lat="42.19522963848958" lon="13.675804487698322"><ele>648.0</ele><time>2026-05-02T10:46:43.999Z</time></trkpt><trkpt lat="42.1953363656022" lon="13.675713678214716"><ele>649.0</ele><time>2026-05-02T10:46:44.999Z</time></trkpt><trkpt lat="42.19543319004861" lon="13.675593688362566"><ele>650.0</ele><time>2026-05-02T10:46:45.999Z</time></trkpt><trkpt lat="42.19556427287251" lon="13.675487530939668"><ele>651.0</ele><time>2026-05-02T10:46:46.999Z</time></trkpt><trkpt lat="42.19571349605088" lon="13.675369201572163"><ele>647.0</ele><time>2026-05-02T10:46:47.999Z</time></trkpt><trkpt lat="42.19585162408063" lon="13.675236650068669"><ele>643.0</ele><time>2026-05-02T10:46:48.999Z</time></trkpt><trkpt lat="42.19600056272874" lon="13.67509880062118"><ele>639.0</ele><time>2026-05-02T10:46:49.999Z</time></trkpt><trkpt lat="42.19614092104003" lon="13.67494616751768"><ele>639.0</ele><time>2026-05-02T10:46:50.999Z</time></trkpt><trkpt lat="42.19626588079889" lon="13.674775330620374"><ele>639.0</ele><time>2026-05-02T10:46:51.999Z</time></trkpt><trkpt lat="42.19639624700604" lon="13.67457217350529"><ele>639.0</ele><time>2026-05-02T10:46:52.999Z</time></trkpt><trkpt lat="42.19651220764141" lon="13.67436779259758"><ele>638.0</ele><time>2026-05-02T10:46:53.999Z</time></trkpt><trkpt lat="42.1966079363864" lon="13.674179688506584"><ele>637.0</ele><time>2026-05-02T10:46:54.999Z</time></trkpt><trkpt lat="42.19670864529558" lon="13.674016272447002"><ele>636.0</ele><time>2026-05-02T10:46:55.999Z</time></trkpt><trkpt lat="42.19679454452222" lon="13.673853696515454"><ele>636.0</ele><time>2026-05-02T10:46:56.999Z</time></trkpt><trkpt lat="42.19688489418676" lon="13.673709464572184"><ele>636.0</ele><time>2026-05-02T10:46:57.999Z</time></trkpt><trkpt lat="42.196970851644735" lon="13.6735646288151"><ele>636.0</ele><time>2026-05-02T10:46:58.999Z</time></trkpt><trkpt lat="42.197063627846084" lon="13.673423898224973"><ele>636.0</ele><time>2026-05-02T10:46:59.999Z</time></trkpt><trkpt lat="42.197131698209816" lon="13.6732925483188"><ele>633.75</ele><time>2026-05-02T10:47:00.999Z</time></trkpt><trkpt lat="42.197201517723606" lon="13.673167824204793"><ele>631.5</ele><time>2026-05-02T10:47:01.999Z</time></trkpt><trkpt lat="42.19725821124034" lon="13.673029305435994"><ele>629.25</ele><time>2026-05-02T10:47:02.999Z</time></trkpt><trkpt lat="42.19729043393761" lon="13.672864886280154"><ele>627.0</ele><time>2026-05-02T10:47:03.999Z</time></trkpt><trkpt lat="42.19730989047769" lon="13.672705953772422"><ele>627.8000000000001</ele><time>2026-05-02T10:47:04.999Z</time></trkpt><trkpt lat="42.19736213237104" lon="13.672577389057007"><ele>628.6</ele><time>2026-05-02T10:47:05.999Z</time></trkpt><trkpt lat="42.19740712711344" lon="13.672452749074417"><ele>629.4000000000001</ele><time>2026-05-02T10:47:06.999Z</time></trkpt><trkpt lat="42.19748572147762" lon="13.672385601738243"><ele>630.2</ele><time>2026-05-02T10:47:07.999Z</time></trkpt><trkpt lat="42.19758356208396" lon="13.67236042102946"><ele>631.0</ele><time>2026-05-02T10:47:08.999Z</time></trkpt><trkpt lat="42.197691657414516" lon="13.6723401024348"><ele>631.0</ele><time>2026-05-02T10:47:09.999Z</time></trkpt><trkpt lat="42.19778960975349" lon="13.672307233414964"><ele>631.0</ele><time>2026-05-02T10:47:10.999Z</time></trkpt><trkpt lat="42.19787692230009" lon="13.672318717327375"><ele>631.0</ele><time>2026-05-02T10:47:11.999Z</time></trkpt><trkpt lat="42.19796776275653" lon="13.672357345375179"><ele>631.0</ele><time>2026-05-02T10:47:12.999Z</time></trkpt><trkpt lat="42.19808021068651" lon="13.672401214713606"><ele>631.0</ele><time>2026-05-02T10:47:13.999Z</time></trkpt><trkpt lat="42.198178349731876" lon="13.672455988524295"><ele>632.0</ele><time>2026-05-02T10:47:14.999Z</time></trkpt><trkpt lat="42.19826962683602" lon="13.67248306423409"><ele>633.0</ele><time>2026-05-02T10:47:15.999Z</time></trkpt><trkpt lat="42.19835733027498" lon="13.672491778154923"><ele>634.0</ele><time>2026-05-02T10:47:16.999Z</time></trkpt><trkpt lat="42.19843955051673" lon="13.672492612083675"><ele>635.0</ele><time>2026-05-02T10:47:17.999Z</time></trkpt><trkpt lat="42.19851728673026" lon="13.672477562673931"><ele>636.0</ele><time>2026-05-02T10:47:18.999Z</time></trkpt><trkpt lat="42.19859550359034" lon="13.672433673211536"><ele>637.0</ele><time>2026-05-02T10:47:19.999Z</time></trkpt><trkpt lat="42.1986721297384" lon="13.672409100927092"><ele>637.0</ele><time>2026-05-02T10:47:20.999Z</time></trkpt><trkpt lat="42.198722939465476" lon="13.672342915230923"><ele>637.0</ele><time>2026-05-02T10:47:21.999Z</time></trkpt><trkpt lat="42.19876157892871" lon="13.672255210924629"><ele>637.0</ele><time>2026-05-02T10:47:22.999Z</time></trkpt><trkpt lat="42.19876487563339" lon="13.672166088086133"><ele>637.0</ele><time>2026-05-02T10:47:23.999Z</time></trkpt><trkpt lat="42.19876925585686" lon="13.67203750331823"><ele>637.0</ele><time>2026-05-02T10:47:24.999Z</time></trkpt><trkpt lat="42.198730695856284" lon="13.671849572788496"><ele>633.0</ele><time>2026-05-02T10:47:25.999Z</time></trkpt><trkpt lat="42.198743365789625" lon="13.671680119646995"><ele>629.0</ele><time>2026-05-02T10:47:26.999Z</time></trkpt><trkpt lat="42.198775966412725" lon="13.671538417830956"><ele>625.0</ele><time>2026-05-02T10:47:27.999Z</time></trkpt><trkpt lat="42.19881357887405" lon="13.67140522842383"><ele>621.0</ele><time>2026-05-02T10:47:28.999Z</time></trkpt><trkpt lat="42.1988812016773" lon="13.67128584799886"><ele>621.0</ele><time>2026-05-02T10:47:29.999Z</time></trkpt><trkpt lat="42.198969042176536" lon="13.67117796737504"><ele>621.0</ele><time>2026-05-02T10:47:30.999Z</time></trkpt><trkpt lat="42.19905791909131" lon="13.67107028837052"><ele>621.0</ele><time>2026-05-02T10:47:31.999Z</time></trkpt><trkpt lat="42.19914013468876" lon="13.670947819475423"><ele>621.0</ele><time>2026-05-02T10:47:32.999Z</time></trkpt><trkpt lat="42.19921593103845" lon="13.670809430664338"><ele>620.6666666666666</ele><time>2026-05-02T10:47:33.999Z</time></trkpt><trkpt lat="42.19932182767747" lon="13.670615813526313"><ele>620.3333333333333</ele><time>2026-05-02T10:47:34.999Z</time></trkpt><trkpt lat="42.19940935347635" lon="13.670393551941828"><ele>620.0</ele><time>2026-05-02T10:47:35.999Z</time></trkpt><trkpt lat="42.19949059316184" lon="13.67016094191172"><ele>620.0</ele><time>2026-05-02T10:47:36.999Z</time></trkpt><trkpt lat="42.1995939571568" lon="13.669978228271"><ele>620.0</ele><time>2026-05-02T10:47:37.999Z</time></trkpt><trkpt lat="42.19970570444237" lon="13.66982295746682"><ele>620.0</ele><time>2026-05-02T10:47:38.999Z</time></trkpt><trkpt lat="42.199834516967776" lon="13.66968155318763"><ele>623.3333333333333</ele><time>2026-05-02T10:47:39.999Z</time></trkpt><trkpt lat="42.19997357308701" lon="13.669564019583806"><ele>626.6666666666666</ele><time>2026-05-02T10:47:40.999Z</time></trkpt><trkpt lat="42.200102145591" lon="13.669449574771104"><ele>630.0</ele><time>2026-05-02T10:47:41.999Z</time></trkpt><trkpt lat="42.200209831017446" lon="13.66933837459996"><ele>630.0</ele><time>2026-05-02T10:47:42.999Z</time></trkpt><trkpt lat="42.20028891003456" lon="13.669225098131644"><ele>630.0</ele><time>2026-05-02T10:47:43.999Z</time></trkpt><trkpt lat="42.20033856014633" lon="13.669088327392883"><ele>630.0</ele><time>2026-05-02T10:47:44.999Z</time></trkpt><trkpt lat="42.20039173067636" lon="13.668965547913215"><ele>630.0</ele><time>2026-05-02T10:47:45.999Z</time></trkpt><trkpt lat="42.20045861240156" lon="13.66882545569449"><ele>630.0</ele><time>2026-05-02T10:47:46.999Z</time></trkpt><trkpt lat="42.20048122162367" lon="13.668701207902174"><ele>630.0</ele><time>2026-05-02T10:47:47.999Z</time></trkpt><trkpt lat="42.20049581539403" lon="13.668608509593476"><ele>630.0</ele><time>2026-05-02T10:47:48.999Z</time></trkpt><trkpt lat="42.20048709865869" lon="13.668481894360962"><ele>630.0</ele><time>2026-05-02T10:47:50.999Z</time></trkpt><trkpt lat="42.20036813684536" lon="13.668469455306335"><ele>630.0</ele><time>2026-05-02T10:47:53.999Z</time></trkpt><trkpt lat="42.20028853822254" lon="13.668511933198786"><ele>630.0</ele><time>2026-05-02T10:47:54.999Z</time></trkpt><trkpt lat="42.20018574329441" lon="13.66860680112962"><ele>630.0</ele><time>2026-05-02T10:47:55.999Z</time></trkpt><trkpt lat="42.200076918032515" lon="13.668659991586958"><ele>630.0</ele><time>2026-05-02T10:47:56.999Z</time></trkpt><trkpt lat="42.19999117157328" lon="13.66874722201078"><ele>630.0</ele><time>2026-05-02T10:47:57.999Z</time></trkpt><trkpt lat="42.19991683765502" lon="13.668854202496709"><ele>630.0</ele><time>2026-05-02T10:47:58.999Z</time></trkpt><trkpt lat="42.19984390417129" lon="13.668973534092546"><ele>630.0</ele><time>2026-05-02T10:47:59.999Z</time></trkpt><trkpt lat="42.19976496804173" lon="13.669085319264664"><ele>630.0</ele><time>2026-05-02T10:48:00.999Z</time></trkpt><trkpt lat="42.19971401736486" lon="13.669205128635886"><ele>630.0</ele><time>2026-05-02T10:48:01.999Z</time></trkpt><trkpt lat="42.19966877634159" lon="13.669312751598033"><ele>630.0</ele><time>2026-05-02T10:48:03.999Z</time></trkpt><trkpt lat="42.19964972952052" lon="13.669412692166729"><ele>628.0</ele><time>2026-05-02T10:48:06.999Z</time></trkpt><trkpt lat="42.1995719478404" lon="13.669497085719511"><ele>626.0</ele><time>2026-05-02T10:48:08.999Z</time></trkpt><trkpt lat="42.19943331051959" lon="13.669471742693418"><ele>624.0</ele><time>2026-05-02T10:48:10.999Z</time></trkpt><trkpt lat="42.19942355197945" lon="13.669326449040481"><ele>622.0</ele><time>2026-05-02T10:48:12.999Z</time></trkpt><trkpt lat="42.199445308088265" lon="13.6692425471138"><ele>620.0</ele><time>2026-05-02T10:48:13.999Z</time></trkpt><trkpt lat="42.199469676623515" lon="13.669131095724389"><ele>617.2</ele><time>2026-05-02T10:48:14.999Z</time></trkpt><trkpt lat="42.199432699024705" lon="13.669004228104498"><ele>614.4</ele><time>2026-05-02T10:48:15.999Z</time></trkpt><trkpt lat="42.19944036493671" lon="13.668860863006909"><ele>611.6</ele><time>2026-05-02T10:48:16.999Z</time></trkpt><trkpt lat="42.199456029095636" lon="13.668727368636857"><ele>608.8</ele><time>2026-05-02T10:48:17.999Z</time></trkpt><trkpt lat="42.19944718660344" lon="13.668582349088416"><ele>606.0</ele><time>2026-05-02T10:48:18.999Z</time></trkpt><trkpt lat="42.19938890366428" lon="13.668400473369557"><ele>606.5</ele><time>2026-05-02T10:48:19.999Z</time></trkpt><trkpt lat="42.199339884393154" lon="13.66821205967165"><ele>607.0</ele><time>2026-05-02T10:48:20.999Z</time></trkpt><trkpt lat="42.19928775978985" lon="13.668035693968614"><ele>607.5</ele><time>2026-05-02T10:48:21.999Z</time></trkpt><trkpt lat="42.19925313550239" lon="13.667863947769431"><ele>608.0</ele><time>2026-05-02T10:48:22.999Z</time></trkpt><trkpt lat="42.19923507756335" lon="13.667714228712441"><ele>608.0</ele><time>2026-05-02T10:48:23.999Z</time></trkpt><trkpt lat="42.19922752129466" lon="13.667613414618149"><ele>608.0</ele><time>2026-05-02T10:48:24.999Z</time></trkpt><trkpt lat="42.199194245633024" lon="13.66751650919425"><ele>608.0</ele><time>2026-05-02T10:48:26.999Z</time></trkpt><trkpt lat="42.199145254310245" lon="13.667384897884286"><ele>608.0</ele><time>2026-05-02T10:48:32.998Z</time></trkpt><trkpt lat="42.19909165648064" lon="13.667292911500242"><ele>608.0</ele><time>2026-05-02T10:48:34.998Z</time></trkpt><trkpt lat="42.199062755019135" lon="13.667202089822787"><ele>608.0</ele><time>2026-05-02T10:48:36.998Z</time></trkpt><trkpt lat="42.19905041745222" lon="13.66709550017361"><ele>606.75</ele><time>2026-05-02T10:48:39.998Z</time></trkpt><trkpt lat="42.19896376162483" lon="13.66724685113209"><ele>605.5</ele><time>2026-05-02T10:48:42.998Z</time></trkpt><trkpt lat="42.19899568868517" lon="13.667076907189163"><ele>604.25</ele><time>2026-05-02T10:48:49.998Z</time></trkpt><trkpt lat="42.19894930337086" lon="13.667237092798235"><ele>603.0</ele><time>2026-05-02T10:48:50.998Z</time></trkpt><trkpt lat="42.19899676160556" lon="13.66729477739827"><ele>603.0</ele><time>2026-05-02T10:48:54.998Z</time></trkpt><trkpt lat="42.1990877347449" lon="13.667299742381903"><ele>603.0</ele><time>2026-05-02T10:48:58.998Z</time></trkpt><trkpt lat="42.19915282825059" lon="13.667382985827786"><ele>603.0</ele><time>2026-05-02T10:49:02.998Z</time></trkpt><trkpt lat="42.199122827295774" lon="13.667307282332214"><ele>603.0</ele><time>2026-05-02T10:49:06.998Z</time></trkpt><trkpt lat="42.199030638855" lon="13.667147675908724"><ele>603.0</ele><time>2026-05-02T10:49:10.998Z</time></trkpt><trkpt lat="42.19897670532323" lon="13.66701810574327"><ele>603.0</ele><time>2026-05-02T10:49:12.998Z</time></trkpt><trkpt lat="42.19897482885312" lon="13.666858770482715"><ele>603.0</ele><time>2026-05-02T10:49:13.998Z</time></trkpt><trkpt lat="42.19926036315102" lon="13.666567103728692"><ele>603.4</ele><time>2026-05-02T10:49:14.998Z</time></trkpt><trkpt lat="42.19928844204215" lon="13.666450642406557"><ele>603.8</ele><time>2026-05-02T10:49:15.998Z</time></trkpt><trkpt lat="42.19928862004881" lon="13.666346382112664"><ele>604.2</ele><time>2026-05-02T10:49:16.998Z</time></trkpt><trkpt lat="42.19930296399672" lon="13.666214551648807"><ele>604.6</ele><time>2026-05-02T10:49:17.998Z</time></trkpt><trkpt lat="42.19932789013272" lon="13.66609869269125"><ele>605.0</ele><time>2026-05-02T10:49:18.998Z</time></trkpt><trkpt lat="42.19936333193375" lon="13.665958826799141"><ele>605.0</ele><time>2026-05-02T10:49:19.998Z</time></trkpt><trkpt lat="42.19940660688976" lon="13.665815133088891"><ele>605.0</ele><time>2026-05-02T10:49:20.998Z</time></trkpt><trkpt lat="42.19945911819013" lon="13.665701212094413"><ele>605.0</ele><time>2026-05-02T10:49:21.998Z</time></trkpt><trkpt lat="42.19952526159213" lon="13.665625714315034"><ele>605.0</ele><time>2026-05-02T10:49:22.998Z</time></trkpt><trkpt lat="42.199557367909414" lon="13.665533653449037"><ele>605.0</ele><time>2026-05-02T10:49:23.998Z</time></trkpt><trkpt lat="42.19960662928344" lon="13.665454122175463"><ele>605.0</ele><time>2026-05-02T10:49:24.998Z</time></trkpt><trkpt lat="42.199689804354435" lon="13.665397801148709"><ele>605.0</ele><time>2026-05-02T10:49:25.998Z</time></trkpt><trkpt lat="42.199739722564075" lon="13.665325181035643"><ele>605.0</ele><time>2026-05-02T10:49:26.998Z</time></trkpt><trkpt lat="42.199814704214575" lon="13.665185059306436"><ele>605.0</ele><time>2026-05-02T10:49:28.998Z</time></trkpt><trkpt lat="42.199880885642905" lon="13.66513481881752"><ele>605.0</ele><time>2026-05-02T10:49:29.998Z</time></trkpt><trkpt lat="42.199928009892865" lon="13.66505009357466"><ele>605.0</ele><time>2026-05-02T10:49:30.998Z</time></trkpt><trkpt lat="42.20003764142205" lon="13.664990116998416"><ele>605.0</ele><time>2026-05-02T10:49:32.998Z</time></trkpt><trkpt lat="42.200133110247066" lon="13.6648928391462"><ele>605.0</ele><time>2026-05-02T10:49:34.998Z</time></trkpt><trkpt lat="42.20021514765042" lon="13.66480939976348"><ele>605.0</ele><time>2026-05-02T10:49:36.998Z</time></trkpt><trkpt lat="42.20032196082348" lon="13.66479810283011"><ele>605.0</ele><time>2026-05-02T10:49:38.998Z</time></trkpt><trkpt lat="42.20041207218685" lon="13.664770290157655"><ele>605.0</ele><time>2026-05-02T10:49:40.998Z</time></trkpt><trkpt lat="42.200508737807986" lon="13.664710654175655"><ele>605.0</ele><time>2026-05-02T10:49:42.998Z</time></trkpt><trkpt lat="42.20062380088064" lon="13.66465330107405"><ele>605.0</ele><time>2026-05-02T10:49:44.998Z</time></trkpt><trkpt lat="42.20075649277763" lon="13.664597528767532"><ele>605.0</ele><time>2026-05-02T10:49:46.998Z</time></trkpt><trkpt lat="42.200846889251494" lon="13.664537691224005"><ele>605.0</ele><time>2026-05-02T10:49:48.998Z</time></trkpt><trkpt lat="42.20089671283889" lon="13.664480701897519"><ele>605.0</ele><time>2026-05-02T10:49:49.998Z</time></trkpt><trkpt lat="42.20097435827869" lon="13.664414135799541"><ele>601.0</ele><time>2026-05-02T10:49:50.998Z</time></trkpt><trkpt lat="42.201025747587735" lon="13.664359134326707"><ele>597.0</ele><time>2026-05-02T10:49:51.998Z</time></trkpt><trkpt lat="42.20106860567106" lon="13.664296878532975"><ele>593.0</ele><time>2026-05-02T10:49:52.998Z</time></trkpt><trkpt lat="42.20115876703837" lon="13.664185124117179"><ele>589.0</ele><time>2026-05-02T10:49:54.998Z</time></trkpt><trkpt lat="42.20124185432053" lon="13.664107717524985"><ele>585.0</ele><time>2026-05-02T10:49:56.998Z</time></trkpt><trkpt lat="42.20138279602411" lon="13.664071011226191"><ele>585.0</ele><time>2026-05-02T10:49:58.998Z</time></trkpt><trkpt lat="42.20147881973089" lon="13.66405445579952"><ele>585.0</ele><time>2026-05-02T10:49:59.998Z</time></trkpt><trkpt lat="42.201573301161886" lon="13.664031461665436"><ele>585.0</ele><time>2026-05-02T10:50:00.998Z</time></trkpt><trkpt lat="42.20168699247365" lon="13.663982056178403"><ele>585.0</ele><time>2026-05-02T10:50:01.998Z</time></trkpt><trkpt lat="42.2017834680918" lon="13.663927413087"><ele>585.0</ele><time>2026-05-02T10:50:02.998Z</time></trkpt><trkpt lat="42.201863518023394" lon="13.663892642801342"><ele>584.2</ele><time>2026-05-02T10:50:03.998Z</time></trkpt><trkpt lat="42.20191650615688" lon="13.663844312400835"><ele>583.4</ele><time>2026-05-02T10:50:04.998Z</time></trkpt><trkpt lat="42.2019636872701" lon="13.663763358461882"><ele>582.6</ele><time>2026-05-02T10:50:06.998Z</time></trkpt><trkpt lat="42.20204459537671" lon="13.66363020177444"><ele>581.8</ele><time>2026-05-02T10:50:08.998Z</time></trkpt><trkpt lat="42.20209185784824" lon="13.663545780987553"><ele>581.0</ele><time>2026-05-02T10:50:09.998Z</time></trkpt><trkpt lat="42.20216095055793" lon="13.66336495216409"><ele>580.0</ele><time>2026-05-02T10:50:11.997Z</time></trkpt><trkpt lat="42.202195092841016" lon="13.663259735181098"><ele>579.0</ele><time>2026-05-02T10:50:12.997Z</time></trkpt><trkpt lat="42.20224128549055" lon="13.663141820772022"><ele>578.0</ele><time>2026-05-02T10:50:13.997Z</time></trkpt><trkpt lat="42.20227478242" lon="13.663032267495788"><ele>577.0</ele><time>2026-05-02T10:50:14.997Z</time></trkpt><trkpt lat="42.20231891173638" lon="13.662916759888407"><ele>576.0</ele><time>2026-05-02T10:50:15.997Z</time></trkpt><trkpt lat="42.202359933148735" lon="13.66281188754374"><ele>574.6</ele><time>2026-05-02T10:50:16.997Z</time></trkpt><trkpt lat="42.20239270163951" lon="13.662695845709173"><ele>573.2</ele><time>2026-05-02T10:50:17.997Z</time></trkpt><trkpt lat="42.20242087490619" lon="13.662587060007981"><ele>571.8</ele><time>2026-05-02T10:50:18.997Z</time></trkpt><trkpt lat="42.20245535143962" lon="13.662475320157117"><ele>570.4</ele><time>2026-05-02T10:50:19.997Z</time></trkpt><trkpt lat="42.202497195417685" lon="13.66235611072662"><ele>569.0</ele><time>2026-05-02T10:50:20.997Z</time></trkpt><trkpt lat="42.20254241430379" lon="13.662218154583245"><ele>569.0</ele><time>2026-05-02T10:50:21.997Z</time></trkpt><trkpt lat="42.20257719247917" lon="13.662066416135731"><ele>569.0</ele><time>2026-05-02T10:50:22.997Z</time></trkpt><trkpt lat="42.20261063891779" lon="13.661947421850005"><ele>569.0</ele><time>2026-05-02T10:50:23.997Z</time></trkpt><trkpt lat="42.20264414481188" lon="13.66183342121786"><ele>569.0</ele><time>2026-05-02T10:50:24.997Z</time></trkpt><trkpt lat="42.20267497538975" lon="13.661694946207188"><ele>569.0</ele><time>2026-05-02T10:50:25.997Z</time></trkpt><trkpt lat="42.20272284812552" lon="13.661576930280434"><ele>568.2</ele><time>2026-05-02T10:50:26.996Z</time></trkpt><trkpt lat="42.20277588368493" lon="13.661468959972078"><ele>567.4</ele><time>2026-05-02T10:50:27.996Z</time></trkpt><trkpt lat="42.20283147218097" lon="13.661336875890651"><ele>566.6</ele><time>2026-05-02T10:50:28.996Z</time></trkpt><trkpt lat="42.20286541569406" lon="13.661191761870427"><ele>565.8</ele><time>2026-05-02T10:50:29.996Z</time></trkpt><trkpt lat="42.2028871016789" lon="13.66107319254926"><ele>565.0</ele><time>2026-05-02T10:50:30.996Z</time></trkpt><trkpt lat="42.20291167148653" lon="13.660961694704616"><ele>564.4285714285713</ele><time>2026-05-02T10:50:31.996Z</time></trkpt><trkpt lat="42.202935997646456" lon="13.660853674277961"><ele>563.8571428571429</ele><time>2026-05-02T10:50:32.996Z</time></trkpt><trkpt lat="42.202956090281496" lon="13.660752356280806"><ele>563.2857142857142</ele><time>2026-05-02T10:50:33.996Z</time></trkpt><trkpt lat="42.202968221259624" lon="13.660660075540099"><ele>562.7142857142857</ele><time>2026-05-02T10:50:34.996Z</time></trkpt><trkpt lat="42.20298329630509" lon="13.660567310747775"><ele>562.1428571428571</ele><time>2026-05-02T10:50:35.996Z</time></trkpt><trkpt lat="42.203002693346605" lon="13.660478213579507"><ele>561.5714285714286</ele><time>2026-05-02T10:50:36.996Z</time></trkpt><trkpt lat="42.2030295492723" lon="13.66038499950047"><ele>561.0</ele><time>2026-05-02T10:50:37.996Z</time></trkpt><trkpt lat="42.20304584872173" lon="13.660276470373807"><ele>560.1666666666666</ele><time>2026-05-02T10:50:38.996Z</time></trkpt><trkpt lat="42.203073687790436" lon="13.660184387829391"><ele>559.3333333333334</ele><time>2026-05-02T10:50:39.996Z</time></trkpt><trkpt lat="42.203108657693164" lon="13.66007568891318"><ele>558.5</ele><time>2026-05-02T10:50:40.996Z</time></trkpt><trkpt lat="42.20314150322239" lon="13.659964150471923"><ele>557.6666666666667</ele><time>2026-05-02T10:50:41.996Z</time></trkpt><trkpt lat="42.203177011245266" lon="13.659856114628852"><ele>556.8333333333334</ele><time>2026-05-02T10:50:42.996Z</time></trkpt><trkpt lat="42.20320858571169" lon="13.659748639450575"><ele>556.0</ele><time>2026-05-02T10:50:43.996Z</time></trkpt><trkpt lat="42.20325064974259" lon="13.65963135701226"><ele>556.0</ele><time>2026-05-02T10:50:44.996Z</time></trkpt><trkpt lat="42.20328411205824" lon="13.659538350349239"><ele>556.0</ele><time>2026-05-02T10:50:45.996Z</time></trkpt><trkpt lat="42.20331961993635" lon="13.659427441742851"><ele>556.0</ele><time>2026-05-02T10:50:46.996Z</time></trkpt><trkpt lat="42.20334455887197" lon="13.659343612672158"><ele>556.0</ele><time>2026-05-02T10:50:47.996Z</time></trkpt><trkpt lat="42.20338326878974" lon="13.659237128624213"><ele>556.0</ele><time>2026-05-02T10:50:48.996Z</time></trkpt><trkpt lat="42.203416444335794" lon="13.659150607111522"><ele>556.0</ele><time>2026-05-02T10:50:49.996Z</time></trkpt><trkpt lat="42.203456189310835" lon="13.65906268826477"><ele>553.6</ele><time>2026-05-02T10:50:50.996Z</time></trkpt><trkpt lat="42.20350342796362" lon="13.658915248636369"><ele>551.2</ele><time>2026-05-02T10:50:52.996Z</time></trkpt><trkpt lat="42.203546593992094" lon="13.658807668268448"><ele>548.8</ele><time>2026-05-02T10:50:54.996Z</time></trkpt><trkpt lat="42.203585854920895" lon="13.658699295498332"><ele>546.4</ele><time>2026-05-02T10:50:57.996Z</time></trkpt><trkpt lat="42.20346380444388" lon="13.65864046999364"><ele>544.0</ele><time>2026-05-02T10:51:01.996Z</time></trkpt><trkpt lat="42.203352068681625" lon="13.658588924329123"><ele>541.0</ele><time>2026-05-02T10:51:02.996Z</time></trkpt><trkpt lat="42.203219128087774" lon="13.65850677408484"><ele>538.0</ele><time>2026-05-02T10:51:03.996Z</time></trkpt><trkpt lat="42.20310836410224" lon="13.658461219682723"><ele>535.0</ele><time>2026-05-02T10:51:04.996Z</time></trkpt><trkpt lat="42.20301999533037" lon="13.658418442111547"><ele>532.0</ele><time>2026-05-02T10:51:05.996Z</time></trkpt><trkpt lat="42.202896041353306" lon="13.658335209427147"><ele>531.75</ele><time>2026-05-02T10:51:06.996Z</time></trkpt><trkpt lat="42.202788447377955" lon="13.658260763642758"><ele>531.5</ele><time>2026-05-02T10:51:07.996Z</time></trkpt><trkpt lat="42.202663135980394" lon="13.65813266786905"><ele>531.25</ele><time>2026-05-02T10:51:08.996Z</time></trkpt><trkpt lat="42.20254564605647" lon="13.658006523640317"><ele>531.0</ele><time>2026-05-02T10:51:09.996Z</time></trkpt><trkpt lat="42.20243715925142" lon="13.657885873606194"><ele>527.75</ele><time>2026-05-02T10:51:10.996Z</time></trkpt><trkpt lat="42.20233454896489" lon="13.657762841905146"><ele>524.5</ele><time>2026-05-02T10:51:11.996Z</time></trkpt><trkpt lat="42.202243519512876" lon="13.657659167589205"><ele>521.25</ele><time>2026-05-02T10:51:12.996Z</time></trkpt><trkpt lat="42.20214455066533" lon="13.657570642151217"><ele>518.0</ele><time>2026-05-02T10:51:13.996Z</time></trkpt><trkpt lat="42.202039342273864" lon="13.657506576700936"><ele>517.75</ele><time>2026-05-02T10:51:14.996Z</time></trkpt><trkpt lat="42.20191301276546" lon="13.657476735895354"><ele>517.5</ele><time>2026-05-02T10:51:15.996Z</time></trkpt><trkpt lat="42.20177248639658" lon="13.6574560308237"><ele>517.25</ele><time>2026-05-02T10:51:16.996Z</time></trkpt><trkpt lat="42.20163674862356" lon="13.65746474634132"><ele>517.0</ele><time>2026-05-02T10:51:17.996Z</time></trkpt><trkpt lat="42.20149274073883" lon="13.65748873862874"><ele>514.0</ele><time>2026-05-02T10:51:18.996Z</time></trkpt><trkpt lat="42.20136248037373" lon="13.657513491622275"><ele>511.0</ele><time>2026-05-02T10:51:19.996Z</time></trkpt><trkpt lat="42.20124067898336" lon="13.657563804762155"><ele>508.0</ele><time>2026-05-02T10:51:20.996Z</time></trkpt><trkpt lat="42.20113101248327" lon="13.657631643246779"><ele>505.0</ele><time>2026-05-02T10:51:21.996Z</time></trkpt><trkpt lat="42.20102568924361" lon="13.657734274774217"><ele>505.75</ele><time>2026-05-02T10:51:22.996Z</time></trkpt><trkpt lat="42.20092625579653" lon="13.65786375731437"><ele>506.5</ele><time>2026-05-02T10:51:23.996Z</time></trkpt><trkpt lat="42.200830474317996" lon="13.65800653003801"><ele>507.25</ele><time>2026-05-02T10:51:24.996Z</time></trkpt><trkpt lat="42.20073897901655" lon="13.658126186306157"><ele>508.0</ele><time>2026-05-02T10:51:25.996Z</time></trkpt><trkpt lat="42.200627158130914" lon="13.658222340840078"><ele>508.0</ele><time>2026-05-02T10:51:26.996Z</time></trkpt><trkpt lat="42.20049004305908" lon="13.658245176660817"><ele>508.0</ele><time>2026-05-02T10:51:27.996Z</time></trkpt><trkpt lat="42.20034793503076" lon="13.658281353648619"><ele>508.0</ele><time>2026-05-02T10:51:28.996Z</time></trkpt><trkpt lat="42.20019759084822" lon="13.658334749049382"><ele>508.0</ele><time>2026-05-02T10:51:29.996Z</time></trkpt><trkpt lat="42.20005244767422" lon="13.658365449300856"><ele>508.0</ele><time>2026-05-02T10:51:30.996Z</time></trkpt><trkpt lat="42.19991213390949" lon="13.658370533666682"><ele>508.0</ele><time>2026-05-02T10:51:31.996Z</time></trkpt><trkpt lat="42.199769135329504" lon="13.658405706498044"><ele>508.0</ele><time>2026-05-02T10:51:32.996Z</time></trkpt><trkpt lat="42.19962828816044" lon="13.658475632555444"><ele>508.0</ele><time>2026-05-02T10:51:33.996Z</time></trkpt><trkpt lat="42.19950489092249" lon="13.658592929308828"><ele>508.0</ele><time>2026-05-02T10:51:34.996Z</time></trkpt><trkpt lat="42.19938045655344" lon="13.658714532811794"><ele>508.0</ele><time>2026-05-02T10:51:35.996Z</time></trkpt><trkpt lat="42.19925319304485" lon="13.65882406133221"><ele>508.0</ele><time>2026-05-02T10:51:36.996Z</time></trkpt><trkpt lat="42.1991417093895" lon="13.65894506850224"><ele>508.0</ele><time>2026-05-02T10:51:37.996Z</time></trkpt><trkpt lat="42.19903884780752" lon="13.65905892894044"><ele>505.25</ele><time>2026-05-02T10:51:38.996Z</time></trkpt><trkpt lat="42.19894196232653" lon="13.65916103480973"><ele>502.5</ele><time>2026-05-02T10:51:39.996Z</time></trkpt><trkpt lat="42.198844781164794" lon="13.659245291987357"><ele>499.75</ele><time>2026-05-02T10:51:40.996Z</time></trkpt><trkpt lat="42.19874458479752" lon="13.659340749183311"><ele>497.0</ele><time>2026-05-02T10:51:41.996Z</time></trkpt><trkpt lat="42.19862810894863" lon="13.659346155712598"><ele>497.0</ele><time>2026-05-02T10:51:42.996Z</time></trkpt><trkpt lat="42.198513573736" lon="13.65932309970981"><ele>497.00000000000006</ele><time>2026-05-02T10:51:43.996Z</time></trkpt><trkpt lat="42.19840755742957" lon="13.659281592379637"><ele>497.00000000000006</ele><time>2026-05-02T10:51:44.996Z</time></trkpt><trkpt lat="42.198312968580616" lon="13.659230819535068"><ele>497.0</ele><time>2026-05-02T10:51:45.996Z</time></trkpt><trkpt lat="42.19823385526609" lon="13.659161649528924"><ele>497.0</ele><time>2026-05-02T10:51:47Z</time></trkpt><trkpt lat="42.19816399907222" lon="13.659084059972256"><ele>496.5</ele><time>2026-05-02T10:51:48Z</time></trkpt><trkpt lat="42.19810918065635" lon="13.658974193820686"><ele>496.0</ele><time>2026-05-02T10:51:49Z</time></trkpt><trkpt lat="42.198074667449376" lon="13.658839445176017"><ele>495.5</ele><time>2026-05-02T10:51:50Z</time></trkpt><trkpt lat="42.19802996431174" lon="13.658683044381236"><ele>495.0</ele><time>2026-05-02T10:51:51Z</time></trkpt><trkpt lat="42.19797201664738" lon="13.658502631772457"><ele>494.0</ele><time>2026-05-02T10:51:52Z</time></trkpt><trkpt lat="42.1978865586562" lon="13.658319485750413"><ele>493.0</ele><time>2026-05-02T10:51:53Z</time></trkpt><trkpt lat="42.19777596342796" lon="13.658128039807549"><ele>492.0</ele><time>2026-05-02T10:51:54Z</time></trkpt><trkpt lat="42.19764835913562" lon="13.657914904374998"><ele>492.33333333333337</ele><time>2026-05-02T10:51:55Z</time></trkpt><trkpt lat="42.19752213098725" lon="13.65767749990554"><ele>492.6666666666667</ele><time>2026-05-02T10:51:56Z</time></trkpt><trkpt lat="42.197373344429515" lon="13.657460331017194"><ele>493.0</ele><time>2026-05-02T10:51:57Z</time></trkpt><trkpt lat="42.197221111056244" lon="13.657257258699632"><ele>493.0</ele><time>2026-05-02T10:51:58Z</time></trkpt><trkpt lat="42.1970815056754" lon="13.657053348846512"><ele>493.0</ele><time>2026-05-02T10:51:59Z</time></trkpt><trkpt lat="42.196955267585935" lon="13.656848749301618"><ele>493.0</ele><time>2026-05-02T10:52:00Z</time></trkpt><trkpt lat="42.196824279902" lon="13.656660348105815"><ele>493.0</ele><time>2026-05-02T10:52:01Z</time></trkpt><trkpt lat="42.19671190218412" lon="13.65646327917399"><ele>493.0</ele><time>2026-05-02T10:52:02Z</time></trkpt><trkpt lat="42.19660723619741" lon="13.656287286233086"><ele>493.0</ele><time>2026-05-02T10:52:03Z</time></trkpt><trkpt lat="42.19649020430341" lon="13.656114787936922"><ele>495.0</ele><time>2026-05-02T10:52:04Z</time></trkpt><trkpt lat="42.19639932333463" lon="13.65596103960244"><ele>497.0</ele><time>2026-05-02T10:52:05Z</time></trkpt><trkpt lat="42.196308103992315" lon="13.655819128420793"><ele>499.0</ele><time>2026-05-02T10:52:06Z</time></trkpt><trkpt lat="42.19622534852637" lon="13.655657900097326"><ele>501.0</ele><time>2026-05-02T10:52:07Z</time></trkpt><trkpt lat="42.196134937355104" lon="13.655506264537115"><ele>501.0</ele><time>2026-05-02T10:52:08Z</time></trkpt><trkpt lat="42.196054368063265" lon="13.655371469361933"><ele>501.0</ele><time>2026-05-02T10:52:09Z</time></trkpt><trkpt lat="42.19598619810948" lon="13.655263677521338"><ele>501.0</ele><time>2026-05-02T10:52:10Z</time></trkpt><trkpt lat="42.195914549643376" lon="13.655163922427379"><ele>501.0</ele><time>2026-05-02T10:52:11Z</time></trkpt><trkpt lat="42.19584631194467" lon="13.65504237922748"><ele>501.0</ele><time>2026-05-02T10:52:12Z</time></trkpt><trkpt lat="42.195761949063076" lon="13.654921665846397"><ele>502.0</ele><time>2026-05-02T10:52:13Z</time></trkpt><trkpt lat="42.195709117372935" lon="13.654765628218016"><ele>503.0</ele><time>2026-05-02T10:52:14Z</time></trkpt><trkpt lat="42.1956428337679" lon="13.654619681750642"><ele>504.0</ele><time>2026-05-02T10:52:15Z</time></trkpt><trkpt lat="42.19560949125876" lon="13.654448790915666"><ele>505.0</ele><time>2026-05-02T10:52:16Z</time></trkpt><trkpt lat="42.19561140608921" lon="13.654265499836084"><ele>507.0</ele><time>2026-05-02T10:52:17Z</time></trkpt><trkpt lat="42.19562281362408" lon="13.654074051200414"><ele>509.0</ele><time>2026-05-02T10:52:18Z</time></trkpt><trkpt lat="42.19564664156595" lon="13.653872716208287"><ele>511.0</ele><time>2026-05-02T10:52:19Z</time></trkpt><trkpt lat="42.19567543843404" lon="13.653653551587805"><ele>514.3333333333334</ele><time>2026-05-02T10:52:20Z</time></trkpt><trkpt lat="42.195706124394995" lon="13.65343958305952"><ele>517.6666666666666</ele><time>2026-05-02T10:52:21Z</time></trkpt><trkpt lat="42.195737911249395" lon="13.65320981067222"><ele>521.0</ele><time>2026-05-02T10:52:22Z</time></trkpt><trkpt lat="42.19578156862756" lon="13.652995597723061"><ele>522.6666666666666</ele><time>2026-05-02T10:52:23Z</time></trkpt><trkpt lat="42.1958145189701" lon="13.652744214963404"><ele>524.3333333333334</ele><time>2026-05-02T10:52:24Z</time></trkpt><trkpt lat="42.19584677193895" lon="13.652508206551856"><ele>526.0</ele><time>2026-05-02T10:52:25Z</time></trkpt><trkpt lat="42.19590247599693" lon="13.652273721747939"><ele>526.0</ele><time>2026-05-02T10:52:26Z</time></trkpt><trkpt lat="42.19595512661002" lon="13.6520427140162"><ele>526.0</ele><time>2026-05-02T10:52:27Z</time></trkpt><trkpt lat="42.196002013257285" lon="13.651802362689248"><ele>526.0</ele><time>2026-05-02T10:52:28Z</time></trkpt><trkpt lat="42.196061499156166" lon="13.651556187038073"><ele>527.6666666666667</ele><time>2026-05-02T10:52:29Z</time></trkpt><trkpt lat="42.19611012975961" lon="13.651287138291146"><ele>529.3333333333334</ele><time>2026-05-02T10:52:30Z</time></trkpt><trkpt lat="42.196126529295114" lon="13.651024458071177"><ele>531.0</ele><time>2026-05-02T10:52:30.999Z</time></trkpt><trkpt lat="42.19616863266693" lon="13.650769786933422"><ele>532.3333333333334</ele><time>2026-05-02T10:52:31.999Z</time></trkpt><trkpt lat="42.19620023442073" lon="13.650516619038706"><ele>533.6666666666667</ele><time>2026-05-02T10:52:32.999Z</time></trkpt><trkpt lat="42.196269972892544" lon="13.650266358613063"><ele>535.0</ele><time>2026-05-02T10:52:33.999Z</time></trkpt><trkpt lat="42.19631166954442" lon="13.650035685687772"><ele>537.3333333333334</ele><time>2026-05-02T10:52:34.999Z</time></trkpt><trkpt lat="42.19636158564186" lon="13.649812389011421"><ele>539.6666666666666</ele><time>2026-05-02T10:52:35.999Z</time></trkpt><trkpt lat="42.19639029790212" lon="13.649574432370372"><ele>542.0</ele><time>2026-05-02T10:52:36.999Z</time></trkpt><trkpt lat="42.196422037682055" lon="13.649322535502826"><ele>542.6666666666666</ele><time>2026-05-02T10:52:37.999Z</time></trkpt><trkpt lat="42.196452348624156" lon="13.649075006996446"><ele>543.3333333333334</ele><time>2026-05-02T10:52:38.999Z</time></trkpt><trkpt lat="42.1964932969496" lon="13.648864183337293"><ele>544.0</ele><time>2026-05-02T10:52:39.999Z</time></trkpt><trkpt lat="42.19654542478411" lon="13.648675129687136"><ele>544.6</ele><time>2026-05-02T10:52:40.999Z</time></trkpt><trkpt lat="42.196566235548715" lon="13.648513583721543"><ele>545.2</ele><time>2026-05-02T10:52:41.999Z</time></trkpt><trkpt lat="42.196598282629665" lon="13.648364962912185"><ele>545.8000000000001</ele><time>2026-05-02T10:52:42.999Z</time></trkpt><trkpt lat="42.196605346949966" lon="13.648234213259638"><ele>546.4</ele><time>2026-05-02T10:52:43.999Z</time></trkpt><trkpt lat="42.1965945075939" lon="13.648131067746794"><ele>547.0</ele><time>2026-05-02T10:52:44.999Z</time></trkpt><trkpt lat="42.19653015964492" lon="13.648041389879314"><ele>549.2</ele><time>2026-05-02T10:52:46.999Z</time></trkpt><trkpt lat="42.196434918248364" lon="13.64798100529983"><ele>551.4000000000001</ele><time>2026-05-02T10:52:48.999Z</time></trkpt><trkpt lat="42.19632566920401" lon="13.647989793791211"><ele>553.5999999999999</ele><time>2026-05-02T10:52:50.999Z</time></trkpt><trkpt lat="42.196248230373094" lon="13.6480650513881"><ele>555.8</ele><time>2026-05-02T10:52:51.999Z</time></trkpt><trkpt lat="42.19616154636499" lon="13.648156960135768"><ele>558.0</ele><time>2026-05-02T10:52:52.999Z</time></trkpt><trkpt lat="42.19606651932951" lon="13.648275361179513"><ele>558.0</ele><time>2026-05-02T10:52:53.999Z</time></trkpt><trkpt lat="42.19594712927819" lon="13.648386939765986"><ele>558.0</ele><time>2026-05-02T10:52:54.999Z</time></trkpt><trkpt lat="42.19583897746983" lon="13.64853981136749"><ele>558.0</ele><time>2026-05-02T10:52:55.999Z</time></trkpt><trkpt lat="42.195701401679976" lon="13.648635973525563"><ele>560.75</ele><time>2026-05-02T10:52:56.999Z</time></trkpt><trkpt lat="42.195578762812744" lon="13.648683908230115"><ele>563.5</ele><time>2026-05-02T10:52:57.999Z</time></trkpt><trkpt lat="42.195446665258636" lon="13.648749580019526"><ele>566.25</ele><time>2026-05-02T10:52:58.999Z</time></trkpt><trkpt lat="42.195346824734536" lon="13.648822353058296"><ele>569.0</ele><time>2026-05-02T10:52:59.999Z</time></trkpt><trkpt lat="42.195259463096285" lon="13.648918425087876"><ele>569.0</ele><time>2026-05-02T10:53:00.999Z</time></trkpt><trkpt lat="42.19516462750552" lon="13.649034573206505"><ele>569.0</ele><time>2026-05-02T10:53:01.999Z</time></trkpt><trkpt lat="42.195078282044854" lon="13.649214783736047"><ele>569.0</ele><time>2026-05-02T10:53:02.999Z</time></trkpt><trkpt lat="42.1949971980453" lon="13.649437027035297"><ele>566.3333333333333</ele><time>2026-05-02T10:53:03.999Z</time></trkpt><trkpt lat="42.19493006139535" lon="13.649637432099706"><ele>563.6666666666666</ele><time>2026-05-02T10:53:04.999Z</time></trkpt><trkpt lat="42.19483290538965" lon="13.649806040002149"><ele>561.0</ele><time>2026-05-02T10:53:05.999Z</time></trkpt><trkpt lat="42.194725112679464" lon="13.6499511065116"><ele>563.25</ele><time>2026-05-02T10:53:06.999Z</time></trkpt><trkpt lat="42.19462566733861" lon="13.650073952383522"><ele>565.5</ele><time>2026-05-02T10:53:07.999Z</time></trkpt><trkpt lat="42.194500847505424" lon="13.650194734887966"><ele>567.75</ele><time>2026-05-02T10:53:08.999Z</time></trkpt><trkpt lat="42.194370182081244" lon="13.650282082996272"><ele>570.0</ele><time>2026-05-02T10:53:09.999Z</time></trkpt><trkpt lat="42.19423504303568" lon="13.650359215408175"><ele>570.0</ele><time>2026-05-02T10:53:10.999Z</time></trkpt><trkpt lat="42.19409973234827" lon="13.65044125216266"><ele>570.0</ele><time>2026-05-02T10:53:11.999Z</time></trkpt><trkpt lat="42.193982931983776" lon="13.650546331341454"><ele>570.0</ele><time>2026-05-02T10:53:12.999Z</time></trkpt><trkpt lat="42.19385127515633" lon="13.650642813003063"><ele>570.0</ele><time>2026-05-02T10:53:13.999Z</time></trkpt><trkpt lat="42.19372904232936" lon="13.650704848501874"><ele>573.6666666666666</ele><time>2026-05-02T10:53:14.999Z</time></trkpt><trkpt lat="42.19360075853116" lon="13.650805620949402"><ele>577.3333333333333</ele><time>2026-05-02T10:53:15.999Z</time></trkpt><trkpt lat="42.19349756929892" lon="13.650982220730144"><ele>581.0</ele><time>2026-05-02T10:53:16.999Z</time></trkpt><trkpt lat="42.193402873187175" lon="13.65114491168708"><ele>581.0</ele><time>2026-05-02T10:53:17.999Z</time></trkpt><trkpt lat="42.19334299115621" lon="13.65132700147621"><ele>581.0</ele><time>2026-05-02T10:53:18.999Z</time></trkpt><trkpt lat="42.193267488357876" lon="13.651505591924407"><ele>581.0</ele><time>2026-05-02T10:53:19.999Z</time></trkpt><trkpt lat="42.19326268605517" lon="13.651674465751507"><ele>581.0</ele><time>2026-05-02T10:53:20.999Z</time></trkpt><trkpt lat="42.19326060524882" lon="13.651824435530571"><ele>582.5</ele><time>2026-05-02T10:53:21.999Z</time></trkpt><trkpt lat="42.19328619191234" lon="13.652006442739069"><ele>584.0</ele><time>2026-05-02T10:53:22.999Z</time></trkpt><trkpt lat="42.19330750568041" lon="13.652196921195385"><ele>585.5</ele><time>2026-05-02T10:53:23.999Z</time></trkpt><trkpt lat="42.193311440782786" lon="13.65239415513951"><ele>587.0</ele><time>2026-05-02T10:53:24.999Z</time></trkpt><trkpt lat="42.19331675065237" lon="13.652598507935897"><ele>587.0</ele><time>2026-05-02T10:53:25.999Z</time></trkpt><trkpt lat="42.19330740304676" lon="13.652779342658917"><ele>587.0</ele><time>2026-05-02T10:53:26.999Z</time></trkpt><trkpt lat="42.19329310324483" lon="13.65292434983543"><ele>587.0</ele><time>2026-05-02T10:53:27.999Z</time></trkpt><trkpt lat="42.19329865852951" lon="13.653067592849446"><ele>587.0</ele><time>2026-05-02T10:53:28.999Z</time></trkpt><trkpt lat="42.19327376217106" lon="13.653165785086227"><ele>587.0</ele><time>2026-05-02T10:53:29.999Z</time></trkpt><trkpt lat="42.19318023532995" lon="13.653202549165217"><ele>588.0</ele><time>2026-05-02T10:53:30.999Z</time></trkpt><trkpt lat="42.19309602419197" lon="13.653222845376336"><ele>589.0</ele><time>2026-05-02T10:53:31.999Z</time></trkpt><trkpt lat="42.193008525688825" lon="13.653210087772008"><ele>590.0</ele><time>2026-05-02T10:53:32.999Z</time></trkpt><trkpt lat="42.1929539845516" lon="13.653143289845783"><ele>591.0</ele><time>2026-05-02T10:53:33.999Z</time></trkpt><trkpt lat="42.19295401666281" lon="13.65304493355751"><ele>592.0</ele><time>2026-05-02T10:53:34.999Z</time></trkpt><trkpt lat="42.19297996943398" lon="13.65290917386303"><ele>593.0</ele><time>2026-05-02T10:53:35.999Z</time></trkpt><trkpt lat="42.19302107296479" lon="13.652733956035933"><ele>597.0</ele><time>2026-05-02T10:53:36.999Z</time></trkpt><trkpt lat="42.19304072278695" lon="13.652582089460314"><ele>601.0</ele><time>2026-05-02T10:53:37.999Z</time></trkpt><trkpt lat="42.19304959365691" lon="13.652447318018218"><ele>605.0</ele><time>2026-05-02T10:53:38.999Z</time></trkpt><trkpt lat="42.193065542672635" lon="13.652326236385996"><ele>609.0</ele><time>2026-05-02T10:53:39.999Z</time></trkpt><trkpt lat="42.19306521582909" lon="13.652219878889854"><ele>613.0</ele><time>2026-05-02T10:53:40.999Z</time></trkpt><trkpt lat="42.19302792621905" lon="13.652146639236951"><ele>613.0</ele><time>2026-05-02T10:53:41.999Z</time></trkpt><trkpt lat="42.19296462905234" lon="13.652121400516178"><ele>613.0</ele><time>2026-05-02T10:53:42.999Z</time></trkpt><trkpt lat="42.192905829510444" lon="13.652152483123269"><ele>613.0</ele><time>2026-05-02T10:53:43.999Z</time></trkpt><trkpt lat="42.192855769252766" lon="13.65223831790033"><ele>613.0</ele><time>2026-05-02T10:53:44.999Z</time></trkpt><trkpt lat="42.19283543230693" lon="13.65233833843238"><ele>613.0</ele><time>2026-05-02T10:53:45.999Z</time></trkpt><trkpt lat="42.192827831256935" lon="13.65248582044711"><ele>613.0</ele><time>2026-05-02T10:53:46.999Z</time></trkpt><trkpt lat="42.19280733391088" lon="13.652608998788583"><ele>613.0</ele><time>2026-05-02T10:53:47.999Z</time></trkpt><trkpt lat="42.19275907299369" lon="13.652723857311319"><ele>613.0</ele><time>2026-05-02T10:53:48.999Z</time></trkpt><trkpt lat="42.19268241602285" lon="13.652802034855586"><ele>613.0</ele><time>2026-05-02T10:53:49.999Z</time></trkpt><trkpt lat="42.192588513017235" lon="13.6528751282646"><ele>613.0</ele><time>2026-05-02T10:53:50.999Z</time></trkpt><trkpt lat="42.19249520479238" lon="13.652922001874275"><ele>613.0</ele><time>2026-05-02T10:53:51.999Z</time></trkpt><trkpt lat="42.19241957451638" lon="13.652910327179422"><ele>613.0</ele><time>2026-05-02T10:53:52.999Z</time></trkpt><trkpt lat="42.19236371514196" lon="13.652870941752843"><ele>613.0</ele><time>2026-05-02T10:53:53.999Z</time></trkpt><trkpt lat="42.19235952223984" lon="13.65273472620567"><ele>613.0</ele><time>2026-05-02T10:53:55.999Z</time></trkpt><trkpt lat="42.192411666559224" lon="13.652640911417908"><ele>613.0</ele><time>2026-05-02T10:53:56.999Z</time></trkpt><trkpt lat="42.192480232397635" lon="13.652551509125685"><ele>613.0</ele><time>2026-05-02T10:53:57.999Z</time></trkpt><trkpt lat="42.19256207322388" lon="13.65249864629382"><ele>613.0</ele><time>2026-05-02T10:53:58.999Z</time></trkpt><trkpt lat="42.192626635459526" lon="13.652439004954198"><ele>613.0</ele><time>2026-05-02T10:53:59.999Z</time></trkpt><trkpt lat="42.19266298608339" lon="13.652297882425353"><ele>613.0</ele><time>2026-05-02T10:54:01.999Z</time></trkpt><trkpt lat="42.19263182511233" lon="13.65222225361961"><ele>613.0</ele><time>2026-05-02T10:54:02.999Z</time></trkpt><trkpt lat="42.19250820702453" lon="13.65217498287122"><ele>613.0</ele><time>2026-05-02T10:54:04.999Z</time></trkpt><trkpt lat="42.192435635751416" lon="13.652209185139219"><ele>613.0</ele><time>2026-05-02T10:54:05.999Z</time></trkpt><trkpt lat="42.1923682760313" lon="13.65227933034544"><ele>616.5</ele><time>2026-05-02T10:54:06.999Z</time></trkpt><trkpt lat="42.19229635264934" lon="13.652386352885436"><ele>620.0</ele><time>2026-05-02T10:54:07.999Z</time></trkpt><trkpt lat="42.19220643990971" lon="13.652488719122054"><ele>623.5</ele><time>2026-05-02T10:54:08.999Z</time></trkpt><trkpt lat="42.1921150633968" lon="13.652580314370226"><ele>627.0</ele><time>2026-05-02T10:54:09.999Z</time></trkpt><trkpt lat="42.191995777097155" lon="13.652667928460321"><ele>627.0</ele><time>2026-05-02T10:54:10.999Z</time></trkpt><trkpt lat="42.19184101989095" lon="13.652719023667627"><ele>627.0</ele><time>2026-05-02T10:54:11.999Z</time></trkpt><trkpt lat="42.19167827765501" lon="13.652748336335348"><ele>627.0</ele><time>2026-05-02T10:54:12.999Z</time></trkpt><trkpt lat="42.19152769752289" lon="13.65275032837667"><ele>627.75</ele><time>2026-05-02T10:54:13.999Z</time></trkpt><trkpt lat="42.1913878376637" lon="13.652792255129402"><ele>628.5</ele><time>2026-05-02T10:54:14.999Z</time></trkpt><trkpt lat="42.19127161218726" lon="13.652887032581404"><ele>629.25</ele><time>2026-05-02T10:54:15.999Z</time></trkpt><trkpt lat="42.191134967258364" lon="13.653019288198811"><ele>630.0</ele><time>2026-05-02T10:54:16.999Z</time></trkpt><trkpt lat="42.1910207451834" lon="13.65318240338754"><ele>630.0</ele><time>2026-05-02T10:54:17.999Z</time></trkpt><trkpt lat="42.19089238968479" lon="13.653307439839189"><ele>630.0</ele><time>2026-05-02T10:54:18.999Z</time></trkpt><trkpt lat="42.19074456803408" lon="13.65339783253704"><ele>630.0</ele><time>2026-05-02T10:54:19.998Z</time></trkpt><trkpt lat="42.190571007107984" lon="13.653487765798427"><ele>632.3333333333334</ele><time>2026-05-02T10:54:20.998Z</time></trkpt><trkpt lat="42.19036596742143" lon="13.653566732962439"><ele>634.6666666666667</ele><time>2026-05-02T10:54:21.998Z</time></trkpt><trkpt lat="42.19017420632295" lon="13.653648323226077"><ele>637.0</ele><time>2026-05-02T10:54:22.998Z</time></trkpt><trkpt lat="42.190009236250134" lon="13.653717495184097"><ele>637.0</ele><time>2026-05-02T10:54:23.998Z</time></trkpt><trkpt lat="42.18988789223666" lon="13.653761202581466"><ele>637.0</ele><time>2026-05-02T10:54:24.998Z</time></trkpt><trkpt lat="42.18978267448114" lon="13.65382244702382"><ele>637.0</ele><time>2026-05-02T10:54:25.998Z</time></trkpt><trkpt lat="42.189716749356194" lon="13.653888863244669"><ele>637.0</ele><time>2026-05-02T10:54:26.998Z</time></trkpt><trkpt lat="42.18967974600157" lon="13.653964292480458"><ele>637.0</ele><time>2026-05-02T10:54:27.998Z</time></trkpt><trkpt lat="42.18969062380202" lon="13.654069734400974"><ele>638.5</ele><time>2026-05-02T10:54:28.998Z</time></trkpt><trkpt lat="42.18972851964757" lon="13.654172722599258"><ele>640.0</ele><time>2026-05-02T10:54:29.998Z</time></trkpt><trkpt lat="42.189759399722206" lon="13.654340440925976"><ele>641.5</ele><time>2026-05-02T10:54:30.998Z</time></trkpt><trkpt lat="42.189818256221244" lon="13.654506371057046"><ele>643.0</ele><time>2026-05-02T10:54:31.998Z</time></trkpt><trkpt lat="42.1898821921719" lon="13.65469684608705"><ele>643.0</ele><time>2026-05-02T10:54:32.998Z</time></trkpt><trkpt lat="42.18993204377309" lon="13.654867556138706"><ele>643.0</ele><time>2026-05-02T10:54:33.998Z</time></trkpt><trkpt lat="42.18998309194378" lon="13.65501850081939"><ele>643.0</ele><time>2026-05-02T10:54:34.998Z</time></trkpt><trkpt lat="42.19002082633466" lon="13.655187683458069"><ele>643.0</ele><time>2026-05-02T10:54:36.998Z</time></trkpt><trkpt lat="42.189968348413046" lon="13.655244406487466"><ele>642.25</ele><time>2026-05-02T10:54:37.998Z</time></trkpt><trkpt lat="42.189880099513125" lon="13.655299522792614"><ele>641.5</ele><time>2026-05-02T10:54:38.998Z</time></trkpt><trkpt lat="42.189711833609856" lon="13.655314090216404"><ele>640.75</ele><time>2026-05-02T10:54:39.998Z</time></trkpt><trkpt lat="42.18955844428678" lon="13.655380380825854"><ele>640.0</ele><time>2026-05-02T10:54:40.998Z</time></trkpt><trkpt lat="42.18939677661879" lon="13.655497699802076"><ele>644.0</ele><time>2026-05-02T10:54:41.998Z</time></trkpt><trkpt lat="42.18920416467182" lon="13.655567506746674"><ele>648.0</ele><time>2026-05-02T10:54:42.998Z</time></trkpt><trkpt lat="42.18901882186678" lon="13.65567115627784"><ele>652.0</ele><time>2026-05-02T10:54:43.998Z</time></trkpt><trkpt lat="42.18882867105298" lon="13.65578340663762"><ele>654.3333333333334</ele><time>2026-05-02T10:54:44.998Z</time></trkpt><trkpt lat="42.18864410887316" lon="13.655856614321845"><ele>656.6666666666666</ele><time>2026-05-02T10:54:45.998Z</time></trkpt><trkpt lat="42.188469164830714" lon="13.65592751751717"><ele>659.0</ele><time>2026-05-02T10:54:46.998Z</time></trkpt><trkpt lat="42.188318122141766" lon="13.65599261406198"><ele>659.0</ele><time>2026-05-02T10:54:47.998Z</time></trkpt><trkpt lat="42.18822937122721" lon="13.656047451523268"><ele>659.0</ele><time>2026-05-02T10:54:48.998Z</time></trkpt><trkpt lat="42.1881782099153" lon="13.656117011309208"><ele>659.0</ele><time>2026-05-02T10:54:49.998Z</time></trkpt><trkpt lat="42.188150784511365" lon="13.656268254553641"><ele>659.0</ele><time>2026-05-02T10:54:51.998Z</time></trkpt><trkpt lat="42.18817778212415" lon="13.656365398323068"><ele>659.0</ele><time>2026-05-02T10:54:52.998Z</time></trkpt><trkpt lat="42.18824215718664" lon="13.656403432948078"><ele>659.0</ele><time>2026-05-02T10:54:53.998Z</time></trkpt><trkpt lat="42.188319591665525" lon="13.65640138030684"><ele>660.5</ele><time>2026-05-02T10:54:54.998Z</time></trkpt><trkpt lat="42.188414886611" lon="13.656369446744755"><ele>662.0</ele><time>2026-05-02T10:54:55.998Z</time></trkpt><trkpt lat="42.18853713512318" lon="13.65632209824613"><ele>663.5</ele><time>2026-05-02T10:54:56.998Z</time></trkpt><trkpt lat="42.188705835234735" lon="13.656271920106938"><ele>665.0</ele><time>2026-05-02T10:54:57.998Z</time></trkpt><trkpt lat="42.188888789844825" lon="13.656263077767203"><ele>663.3333333333333</ele><time>2026-05-02T10:54:58.998Z</time></trkpt><trkpt lat="42.1890646549322" lon="13.65625060009963"><ele>661.6666666666666</ele><time>2026-05-02T10:54:59.998Z</time></trkpt><trkpt lat="42.18920622580561" lon="13.656259811251138"><ele>660.0</ele><time>2026-05-02T10:55:00.998Z</time></trkpt><trkpt lat="42.189344780461255" lon="13.656249979451177"><ele>660.0</ele><time>2026-05-02T10:55:01.998Z</time></trkpt><trkpt lat="42.18944491437156" lon="13.656254747206733"><ele>660.0</ele><time>2026-05-02T10:55:02.998Z</time></trkpt><trkpt lat="42.18951056445829" lon="13.656267435660263"><ele>660.0</ele><time>2026-05-02T10:55:03.998Z</time></trkpt><trkpt lat="42.18954535735898" lon="13.65634911227865"><ele>660.0</ele><time>2026-05-02T10:55:04.998Z</time></trkpt><trkpt lat="42.189472506607956" lon="13.656485972520063"><ele>660.0</ele><time>2026-05-02T10:55:06.998Z</time></trkpt><trkpt lat="42.18937819420566" lon="13.656525898430669"><ele>660.0</ele><time>2026-05-02T10:55:07.998Z</time></trkpt><trkpt lat="42.18926073735209" lon="13.656537565193341"><ele>660.0</ele><time>2026-05-02T10:55:08.998Z</time></trkpt><trkpt lat="42.18911444314932" lon="13.65653881160927"><ele>660.0</ele><time>2026-05-02T10:55:09.998Z</time></trkpt><trkpt lat="42.1889331898935" lon="13.656530823717416"><ele>660.0</ele><time>2026-05-02T10:55:10.998Z</time></trkpt><trkpt lat="42.188736057147125" lon="13.656531048683028"><ele>661.6666666666666</ele><time>2026-05-02T10:55:11.998Z</time></trkpt><trkpt lat="42.18853215538234" lon="13.65653986953651"><ele>663.3333333333333</ele><time>2026-05-02T10:55:12.998Z</time></trkpt><trkpt lat="42.18833227079825" lon="13.656546749492112"><ele>665.0</ele><time>2026-05-02T10:55:13.998Z</time></trkpt><trkpt lat="42.18810179835521" lon="13.656529755663621"><ele>667.0</ele><time>2026-05-02T10:55:14.998Z</time></trkpt><trkpt lat="42.187854291488584" lon="13.656552566143823"><ele>669.0</ele><time>2026-05-02T10:55:15.998Z</time></trkpt><trkpt lat="42.18758728905362" lon="13.656600257627352"><ele>672.5</ele><time>2026-05-02T10:55:16.998Z</time></trkpt><trkpt lat="42.18732829733713" lon="13.656684825942056"><ele>676.0</ele><time>2026-05-02T10:55:17.998Z</time></trkpt><trkpt lat="42.18708340231484" lon="13.656773524658535"><ele>676.0</ele><time>2026-05-02T10:55:18.998Z</time></trkpt><trkpt lat="42.18684704593481" lon="13.656828513883031"><ele>676.0</ele><time>2026-05-02T10:55:19.998Z</time></trkpt><trkpt lat="42.18663499352892" lon="13.65692512285438"><ele>682.6666666666667</ele><time>2026-05-02T10:55:20.998Z</time></trkpt><trkpt lat="42.18643097094599" lon="13.656989446137265"><ele>689.3333333333334</ele><time>2026-05-02T10:55:21.998Z</time></trkpt><trkpt lat="42.18623909293244" lon="13.657077843990269"><ele>696.0</ele><time>2026-05-02T10:55:22.998Z</time></trkpt><trkpt lat="42.18606708813798" lon="13.657138397663928"><ele>696.0</ele><time>2026-05-02T10:55:23.998Z</time></trkpt><trkpt lat="42.1859107760145" lon="13.657200336448286"><ele>696.0</ele><time>2026-05-02T10:55:24.998Z</time></trkpt><trkpt lat="42.185766688929846" lon="13.657239574544315"><ele>696.0</ele><time>2026-05-02T10:55:25.998Z</time></trkpt><trkpt lat="42.18562613361032" lon="13.657287223625943"><ele>694.5</ele><time>2026-05-02T10:55:26.998Z</time></trkpt><trkpt lat="42.18550709979241" lon="13.65732835870884"><ele>693.0</ele><time>2026-05-02T10:55:27.998Z</time></trkpt><trkpt lat="42.18538123716033" lon="13.657333439906052"><ele>691.5</ele><time>2026-05-02T10:55:28.998Z</time></trkpt><trkpt lat="42.18525244373432" lon="13.657388837103255"><ele>690.0</ele><time>2026-05-02T10:55:29.998Z</time></trkpt><trkpt lat="42.185134982064646" lon="13.657491081017325"><ele>690.0</ele><time>2026-05-02T10:55:30.998Z</time></trkpt><trkpt lat="42.185000835241496" lon="13.657602276407822"><ele>690.0</ele><time>2026-05-02T10:55:31.998Z</time></trkpt><trkpt lat="42.18486105515049" lon="13.657743588485312"><ele>690.0</ele><time>2026-05-02T10:55:32.998Z</time></trkpt><trkpt lat="42.184711506939294" lon="13.657888136033248"><ele>688.6666666666666</ele><time>2026-05-02T10:55:33.998Z</time></trkpt><trkpt lat="42.18455767673117" lon="13.658004294909732"><ele>687.3333333333333</ele><time>2026-05-02T10:55:34.998Z</time></trkpt><trkpt lat="42.1844370497004" lon="13.658151799921638"><ele>686.0</ele><time>2026-05-02T10:55:35.998Z</time></trkpt><trkpt lat="42.18431586018388" lon="13.6582812041165"><ele>686.0</ele><time>2026-05-02T10:55:36.998Z</time></trkpt><trkpt lat="42.18418761700152" lon="13.658378642068637"><ele>686.0</ele><time>2026-05-02T10:55:37.998Z</time></trkpt><trkpt lat="42.184072296202444" lon="13.658486681287291"><ele>686.0</ele><time>2026-05-02T10:55:38.998Z</time></trkpt><trkpt lat="42.18394960540553" lon="13.658552385053024"><ele>686.0</ele><time>2026-05-02T10:55:39.998Z</time></trkpt><trkpt lat="42.183811353623746" lon="13.65862951184076"><ele>684.3333333333333</ele><time>2026-05-02T10:55:40.998Z</time></trkpt><trkpt lat="42.18364737334907" lon="13.658712860219792"><ele>682.6666666666666</ele><time>2026-05-02T10:55:41.998Z</time></trkpt><trkpt lat="42.18344174623052" lon="13.65879454003904"><ele>681.0</ele><time>2026-05-02T10:55:42.998Z</time></trkpt><trkpt lat="42.1832450784749" lon="13.658934939364512"><ele>684.5</ele><time>2026-05-02T10:55:43.998Z</time></trkpt><trkpt lat="42.18302621506746" lon="13.65904355585907"><ele>688.0</ele><time>2026-05-02T10:55:44.998Z</time></trkpt><trkpt lat="42.1827911084649" lon="13.659093602057968"><ele>688.0</ele><time>2026-05-02T10:55:45.998Z</time></trkpt><trkpt lat="42.18258820290939" lon="13.659173847810703"><ele>688.0</ele><time>2026-05-02T10:55:46.998Z</time></trkpt><trkpt lat="42.18242278861162" lon="13.659294771232604"><ele>688.0</ele><time>2026-05-02T10:55:47.998Z</time></trkpt><trkpt lat="42.18226029088715" lon="13.659409574016959"><ele>687.0</ele><time>2026-05-02T10:55:48.998Z</time></trkpt><trkpt lat="42.18210190294498" lon="13.659521373995137"><ele>686.0</ele><time>2026-05-02T10:55:49.998Z</time></trkpt><trkpt lat="42.18195158319561" lon="13.659648725117615"><ele>685.0</ele><time>2026-05-02T10:55:50.998Z</time></trkpt><trkpt lat="42.18182344318402" lon="13.659791247224875"><ele>685.0</ele><time>2026-05-02T10:55:51.998Z</time></trkpt><trkpt lat="42.18168149900169" lon="13.659973221953722"><ele>685.0</ele><time>2026-05-02T10:55:52.998Z</time></trkpt><trkpt lat="42.181539675056314" lon="13.660201365214576"><ele>685.0</ele><time>2026-05-02T10:55:53.998Z</time></trkpt><trkpt lat="42.18138189186036" lon="13.660403924981438"><ele>686.3333333333334</ele><time>2026-05-02T10:55:54.998Z</time></trkpt><trkpt lat="42.18122339767104" lon="13.660605656043078"><ele>687.6666666666666</ele><time>2026-05-02T10:55:55.998Z</time></trkpt><trkpt lat="42.181061212220726" lon="13.660812904324757"><ele>689.0</ele><time>2026-05-02T10:55:56.998Z</time></trkpt><trkpt lat="42.180917983564406" lon="13.661049804999605"><ele>689.3333333333333</ele><time>2026-05-02T10:55:57.998Z</time></trkpt><trkpt lat="42.18080170966185" lon="13.661202803644624"><ele>689.6666666666666</ele><time>2026-05-02T10:55:58.998Z</time></trkpt><trkpt lat="42.180681180040246" lon="13.66136401460817"><ele>690.0</ele><time>2026-05-02T10:55:59.998Z</time></trkpt><trkpt lat="42.18055751544346" lon="13.661493167306684"><ele>690.0</ele><time>2026-05-02T10:56:00.998Z</time></trkpt><trkpt lat="42.18042538679316" lon="13.661620096995334"><ele>690.0</ele><time>2026-05-02T10:56:01.998Z</time></trkpt><trkpt lat="42.18026983955356" lon="13.66175297373549"><ele>690.0</ele><time>2026-05-02T10:56:02.998Z</time></trkpt><trkpt lat="42.180106849077625" lon="13.661900355571044"><ele>688.6666666666666</ele><time>2026-05-02T10:56:03.998Z</time></trkpt><trkpt lat="42.17991842520662" lon="13.662014271276707"><ele>687.3333333333333</ele><time>2026-05-02T10:56:04.998Z</time></trkpt><trkpt lat="42.17975836895301" lon="13.662220335910817"><ele>686.0</ele><time>2026-05-02T10:56:05.998Z</time></trkpt><trkpt lat="42.17960804989787" lon="13.662418307000337"><ele>686.0</ele><time>2026-05-02T10:56:06.998Z</time></trkpt><trkpt lat="42.17947740009787" lon="13.662636632922796"><ele>686.0</ele><time>2026-05-02T10:56:07.998Z</time></trkpt><trkpt lat="42.17934720251875" lon="13.662831424495929"><ele>686.0</ele><time>2026-05-02T10:56:08.998Z</time></trkpt><trkpt lat="42.17921377735205" lon="13.66300217135596"><ele>686.3333333333333</ele><time>2026-05-02T10:56:09.998Z</time></trkpt><trkpt lat="42.17909543126146" lon="13.663179006923029"><ele>686.6666666666666</ele><time>2026-05-02T10:56:10.997Z</time></trkpt><trkpt lat="42.178970762646685" lon="13.663320352967018"><ele>687.0</ele><time>2026-05-02T10:56:11.997Z</time></trkpt><trkpt lat="42.17884691959278" lon="13.663463674892663"><ele>689.3333333333334</ele><time>2026-05-02T10:56:12.997Z</time></trkpt><trkpt lat="42.178726020428236" lon="13.66363608069755"><ele>691.6666666666667</ele><time>2026-05-02T10:56:13.997Z</time></trkpt><trkpt lat="42.17857453906243" lon="13.66378167366858"><ele>694.0</ele><time>2026-05-02T10:56:14.997Z</time></trkpt><trkpt lat="42.17839826444289" lon="13.663909552099351"><ele>694.0</ele><time>2026-05-02T10:56:15.997Z</time></trkpt><trkpt lat="42.178197556305975" lon="13.664063285361262"><ele>694.0</ele><time>2026-05-02T10:56:16.997Z</time></trkpt><trkpt lat="42.17799353083204" lon="13.664188229022182"><ele>698.0</ele><time>2026-05-02T10:56:17.997Z</time></trkpt><trkpt lat="42.1777979719241" lon="13.664475164354009"><ele>702.0</ele><time>2026-05-02T10:56:18.997Z</time></trkpt><trkpt lat="42.177625317020606" lon="13.664620334867093"><ele>702.0</ele><time>2026-05-02T10:56:19.997Z</time></trkpt><trkpt lat="42.177473590581585" lon="13.664749135527455"><ele>702.0</ele><time>2026-05-02T10:56:20.997Z</time></trkpt><trkpt lat="42.17733773036217" lon="13.664886505252907"><ele>702.0</ele><time>2026-05-02T10:56:21.997Z</time></trkpt><trkpt lat="42.17720865709371" lon="13.665015482793361"><ele>704.25</ele><time>2026-05-02T10:56:22.997Z</time></trkpt><trkpt lat="42.177099905612494" lon="13.665148003939729"><ele>706.5</ele><time>2026-05-02T10:56:23.997Z</time></trkpt><trkpt lat="42.176992927287564" lon="13.665278411071306"><ele>708.75</ele><time>2026-05-02T10:56:24.997Z</time></trkpt><trkpt lat="42.1768987224278" lon="13.665410456779272"><ele>711.0</ele><time>2026-05-02T10:56:25.997Z</time></trkpt><trkpt lat="42.17680560286107" lon="13.665571080951723"><ele>711.75</ele><time>2026-05-02T10:56:26.997Z</time></trkpt><trkpt lat="42.17669792088159" lon="13.665736295665656"><ele>712.5</ele><time>2026-05-02T10:56:27.997Z</time></trkpt><trkpt lat="42.176600838058086" lon="13.665843089607195"><ele>713.25</ele><time>2026-05-02T10:56:28.997Z</time></trkpt><trkpt lat="42.17651155954908" lon="13.665927402637953"><ele>714.0</ele><time>2026-05-02T10:56:29.997Z</time></trkpt><trkpt lat="42.17643131581423" lon="13.665983036736248"><ele>717.25</ele><time>2026-05-02T10:56:30.997Z</time></trkpt><trkpt lat="42.17636875793312" lon="13.666076499145303"><ele>720.5</ele><time>2026-05-02T10:56:31.997Z</time></trkpt><trkpt lat="42.17629740012669" lon="13.666095272923505"><ele>723.75</ele><time>2026-05-02T10:56:32.997Z</time></trkpt><trkpt lat="42.17612865429972" lon="13.666071392902952"><ele>727.0</ele><time>2026-05-02T10:56:34.997Z</time></trkpt><trkpt lat="42.17601009585866" lon="13.666085576654796"><ele>727.0</ele><time>2026-05-02T10:56:35.997Z</time></trkpt><trkpt lat="42.17587899223065" lon="13.666040974597195"><ele>727.0</ele><time>2026-05-02T10:56:36.997Z</time></trkpt><trkpt lat="42.17574838186731" lon="13.665997541029064"><ele>727.0</ele><time>2026-05-02T10:56:37.997Z</time></trkpt><trkpt lat="42.17564128005133" lon="13.665973771290837"><ele>727.0</ele><time>2026-05-02T10:56:38.997Z</time></trkpt><trkpt lat="42.17552406769614" lon="13.665938867045638"><ele>729.25</ele><time>2026-05-02T10:56:39.997Z</time></trkpt><trkpt lat="42.1754058647329" lon="13.665864563187275"><ele>731.5</ele><time>2026-05-02T10:56:40.997Z</time></trkpt><trkpt lat="42.175281564436" lon="13.665794820521954"><ele>733.75</ele><time>2026-05-02T10:56:41.997Z</time></trkpt><trkpt lat="42.175146764048094" lon="13.665705387687304"><ele>736.0</ele><time>2026-05-02T10:56:42.997Z</time></trkpt><trkpt lat="42.17499760697651" lon="13.665638897986971"><ele>736.0</ele><time>2026-05-02T10:56:43.997Z</time></trkpt><trkpt lat="42.17485591337999" lon="13.665540253706746"><ele>736.0</ele><time>2026-05-02T10:56:44.997Z</time></trkpt><trkpt lat="42.17471437608141" lon="13.665420618125427"><ele>736.0</ele><time>2026-05-02T10:56:45.997Z</time></trkpt><trkpt lat="42.17456680709466" lon="13.66532673732078"><ele>740.3333333333334</ele><time>2026-05-02T10:56:46.997Z</time></trkpt><trkpt lat="42.17440915357866" lon="13.665226271651687"><ele>744.6666666666666</ele><time>2026-05-02T10:56:47.997Z</time></trkpt><trkpt lat="42.17424418737313" lon="13.665051267753183"><ele>749.0</ele><time>2026-05-02T10:56:48.997Z</time></trkpt><trkpt lat="42.174078977629996" lon="13.664904202421505"><ele>754.0</ele><time>2026-05-02T10:56:49.997Z</time></trkpt><trkpt lat="42.173911174067676" lon="13.66480089099868"><ele>759.0</ele><time>2026-05-02T10:56:50.997Z</time></trkpt><trkpt lat="42.173771049858246" lon="13.664705475381675"><ele>764.0</ele><time>2026-05-02T10:56:51.997Z</time></trkpt><trkpt lat="42.173631485939396" lon="13.664616547467084"><ele>764.0</ele><time>2026-05-02T10:56:52.997Z</time></trkpt><trkpt lat="42.17348681895314" lon="13.664514424908472"><ele>764.0</ele><time>2026-05-02T10:56:53.997Z</time></trkpt><trkpt lat="42.1733476908327" lon="13.664432147376752"><ele>764.0</ele><time>2026-05-02T10:56:54.997Z</time></trkpt><trkpt lat="42.17319686731455" lon="13.664321967875718"><ele>767.5</ele><time>2026-05-02T10:56:55.997Z</time></trkpt><trkpt lat="42.173054125479034" lon="13.66421977944599"><ele>771.0</ele><time>2026-05-02T10:56:56.997Z</time></trkpt><trkpt lat="42.172918097721336" lon="13.664166093006688"><ele>774.5</ele><time>2026-05-02T10:56:57.997Z</time></trkpt><trkpt lat="42.17280122935102" lon="13.664059624736367"><ele>778.0</ele><time>2026-05-02T10:56:58.997Z</time></trkpt><trkpt lat="42.17268221530649" lon="13.66396919711126"><ele>778.0</ele><time>2026-05-02T10:56:59.997Z</time></trkpt><trkpt lat="42.17256835766345" lon="13.663855512053377"><ele>778.0</ele><time>2026-05-02T10:57:00.997Z</time></trkpt><trkpt lat="42.172496019963425" lon="13.663688581350968"><ele>778.0</ele><time>2026-05-02T10:57:01.997Z</time></trkpt><trkpt lat="42.172425734783786" lon="13.663560827574333"><ele>778.0</ele><time>2026-05-02T10:57:02.997Z</time></trkpt><trkpt lat="42.17235231049944" lon="13.66343343015433"><ele>780.75</ele><time>2026-05-02T10:57:03.997Z</time></trkpt><trkpt lat="42.17227062357296" lon="13.66334255407028"><ele>783.5</ele><time>2026-05-02T10:57:04.997Z</time></trkpt><trkpt lat="42.172185293423794" lon="13.663244062127525"><ele>786.25</ele><time>2026-05-02T10:57:05.997Z</time></trkpt><trkpt lat="42.17208190378892" lon="13.663081361036843"><ele>789.0</ele><time>2026-05-02T10:57:06.997Z</time></trkpt><trkpt lat="42.171985244980114" lon="13.66287447330476"><ele>790.0</ele><time>2026-05-02T10:57:07.997Z</time></trkpt><trkpt lat="42.17190522560547" lon="13.662676373251164"><ele>791.0</ele><time>2026-05-02T10:57:08.997Z</time></trkpt><trkpt lat="42.171813220072025" lon="13.662466081596158"><ele>792.0</ele><time>2026-05-02T10:57:09.997Z</time></trkpt><trkpt lat="42.17172032898569" lon="13.662267454055357"><ele>792.0</ele><time>2026-05-02T10:57:10.997Z</time></trkpt><trkpt lat="42.171613716264076" lon="13.662077136473602"><ele>792.0</ele><time>2026-05-02T10:57:11.997Z</time></trkpt><trkpt lat="42.17153091380689" lon="13.6618700341327"><ele>792.0</ele><time>2026-05-02T10:57:12.997Z</time></trkpt><trkpt lat="42.17145347120078" lon="13.661669951796124"><ele>797.4000000000001</ele><time>2026-05-02T10:57:13.997Z</time></trkpt><trkpt lat="42.17138576706203" lon="13.661542386148756"><ele>802.8000000000001</ele><time>2026-05-02T10:57:14.997Z</time></trkpt><trkpt lat="42.171336496795504" lon="13.66142203026625"><ele>808.2</ele><time>2026-05-02T10:57:15.997Z</time></trkpt><trkpt lat="42.17131956912203" lon="13.66128672467475"><ele>813.6</ele><time>2026-05-02T10:57:16.997Z</time></trkpt><trkpt lat="42.171277163896235" lon="13.661205369720662"><ele>819.0</ele><time>2026-05-02T10:57:17.997Z</time></trkpt><trkpt lat="42.1712056097009" lon="13.661068323311524"><ele>819.0</ele><time>2026-05-02T10:57:19.997Z</time></trkpt><trkpt lat="42.17113417684244" lon="13.660975685189603"><ele>819.0</ele><time>2026-05-02T10:57:20.997Z</time></trkpt><trkpt lat="42.17099625400987" lon="13.660855556065101"><ele>819.0</ele><time>2026-05-02T10:57:21.997Z</time></trkpt><trkpt lat="42.1708249740104" lon="13.660795970514151"><ele>819.0</ele><time>2026-05-02T10:57:22.997Z</time></trkpt><trkpt lat="42.17064510996734" lon="13.660738934019603"><ele>825.3333333333333</ele><time>2026-05-02T10:57:23.997Z</time></trkpt><trkpt lat="42.17047612317142" lon="13.660668422637487"><ele>831.6666666666666</ele><time>2026-05-02T10:57:24.997Z</time></trkpt><trkpt lat="42.17030438613086" lon="13.660590497264497"><ele>838.0</ele><time>2026-05-02T10:57:25.997Z</time></trkpt><trkpt lat="42.17013255663458" lon="13.660505320866438"><ele>838.0</ele><time>2026-05-02T10:57:26.997Z</time></trkpt><trkpt lat="42.17000541834349" lon="13.66043451441957"><ele>838.0</ele><time>2026-05-02T10:57:27.997Z</time></trkpt><trkpt lat="42.169899383608694" lon="13.66034179157675"><ele>838.0</ele><time>2026-05-02T10:57:28.997Z</time></trkpt><trkpt lat="42.16980044708028" lon="13.660277320127264"><ele>838.0</ele><time>2026-05-02T10:57:29.997Z</time></trkpt><trkpt lat="42.16969729702493" lon="13.660265490687085"><ele>843.0</ele><time>2026-05-02T10:57:30.997Z</time></trkpt><trkpt lat="42.169579126460484" lon="13.660294591836175"><ele>848.0</ele><time>2026-05-02T10:57:31.997Z</time></trkpt><trkpt lat="42.169454469395326" lon="13.660321412710147"><ele>853.0</ele><time>2026-05-02T10:57:32.997Z</time></trkpt><trkpt lat="42.16930395030928" lon="13.66027268999829"><ele>858.0</ele><time>2026-05-02T10:57:33.997Z</time></trkpt><trkpt lat="42.16915628790591" lon="13.660260224158682"><ele>860.8</ele><time>2026-05-02T10:57:34.997Z</time></trkpt><trkpt lat="42.169015489542836" lon="13.660179299441715"><ele>863.5999999999999</ele><time>2026-05-02T10:57:35.997Z</time></trkpt><trkpt lat="42.168891077558975" lon="13.66011975112267"><ele>866.4000000000001</ele><time>2026-05-02T10:57:36.997Z</time></trkpt><trkpt lat="42.16881399870311" lon="13.66007093404089"><ele>869.2</ele><time>2026-05-02T10:57:37.997Z</time></trkpt><trkpt lat="42.16874600650168" lon="13.660024654422244"><ele>872.0</ele><time>2026-05-02T10:57:38.997Z</time></trkpt><trkpt lat="42.16868112926695" lon="13.65998762762663"><ele>872.0</ele><time>2026-05-02T10:57:39.997Z</time></trkpt><trkpt lat="42.168623863015306" lon="13.659938334931313"><ele>872.0</ele><time>2026-05-02T10:57:40.997Z</time></trkpt><trkpt lat="42.168528341730855" lon="13.6599890959286"><ele>872.0</ele><time>2026-05-02T10:57:41.997Z</time></trkpt><trkpt lat="42.16841874288488" lon="13.660060176129052"><ele>872.0</ele><time>2026-05-02T10:57:42.997Z</time></trkpt><trkpt lat="42.16829048137256" lon="13.66014232064954"><ele>872.0</ele><time>2026-05-02T10:57:43.997Z</time></trkpt><trkpt lat="42.16816762456793" lon="13.66025055393204"><ele>875.25</ele><time>2026-05-02T10:57:44.997Z</time></trkpt><trkpt lat="42.16806863525726" lon="13.660378647912495"><ele>878.5</ele><time>2026-05-02T10:57:45.997Z</time></trkpt><trkpt lat="42.16794502572447" lon="13.660486302967417"><ele>881.75</ele><time>2026-05-02T10:57:46.997Z</time></trkpt><trkpt lat="42.16781609908979" lon="13.660604704260647"><ele>885.0</ele><time>2026-05-02T10:57:47.997Z</time></trkpt><trkpt lat="42.1676898911374" lon="13.66073805000222"><ele>885.0</ele><time>2026-05-02T10:57:48.997Z</time></trkpt><trkpt lat="42.16758546452851" lon="13.660790025467143"><ele>885.0</ele><time>2026-05-02T10:57:49.997Z</time></trkpt><trkpt lat="42.16746170776119" lon="13.660886782153957"><ele>885.0</ele><time>2026-05-02T10:57:50.997Z</time></trkpt><trkpt lat="42.167304353915135" lon="13.660969007818723"><ele>885.0</ele><time>2026-05-02T10:57:51.997Z</time></trkpt><trkpt lat="42.16715931249945" lon="13.661073623009507"><ele>887.75</ele><time>2026-05-02T10:57:52.997Z</time></trkpt><trkpt lat="42.16707142639806" lon="13.66120243557922"><ele>890.5</ele><time>2026-05-02T10:57:53.997Z</time></trkpt><trkpt lat="42.16695563420243" lon="13.661320841199116"><ele>893.25</ele><time>2026-05-02T10:57:54.997Z</time></trkpt><trkpt lat="42.16684708655451" lon="13.661460309554998"><ele>896.0</ele><time>2026-05-02T10:57:55.997Z</time></trkpt><trkpt lat="42.16676036888205" lon="13.661592017169884"><ele>896.0</ele><time>2026-05-02T10:57:56.997Z</time></trkpt><trkpt lat="42.166667686906315" lon="13.661743825930454"><ele>896.0</ele><time>2026-05-02T10:57:57.997Z</time></trkpt><trkpt lat="42.16659879724854" lon="13.661890873144152"><ele>896.0</ele><time>2026-05-02T10:57:58.997Z</time></trkpt><trkpt lat="42.166544633040445" lon="13.662010334563947"><ele>896.0</ele><time>2026-05-02T10:57:59.997Z</time></trkpt><trkpt lat="42.16645364135398" lon="13.662096182879743"><ele>897.0</ele><time>2026-05-02T10:58:00.997Z</time></trkpt><trkpt lat="42.16637427538724" lon="13.662193164406064"><ele>897.9999999999999</ele><time>2026-05-02T10:58:01.996Z</time></trkpt><trkpt lat="42.16627963522381" lon="13.662323940005667"><ele>898.9999999999999</ele><time>2026-05-02T10:58:02.996Z</time></trkpt><trkpt lat="42.16621562243666" lon="13.66239414339205"><ele>900.0</ele><time>2026-05-02T10:58:03.996Z</time></trkpt><trkpt lat="42.16616449212353" lon="13.6624831726184"><ele>901.0</ele><time>2026-05-02T10:58:04.996Z</time></trkpt><trkpt lat="42.166091931602004" lon="13.66248730416919"><ele>901.0</ele><time>2026-05-02T10:58:05.996Z</time></trkpt><trkpt lat="42.16598755440752" lon="13.662488480143734"><ele>900.9999999999999</ele><time>2026-05-02T10:58:07.996Z</time></trkpt><trkpt lat="42.16593557015788" lon="13.662354809340421"><ele>900.9999999999999</ele><time>2026-05-02T10:58:09.996Z</time></trkpt><trkpt lat="42.165920361528386" lon="13.662238568388121"><ele>901.0</ele><time>2026-05-02T10:58:10.996Z</time></trkpt><trkpt lat="42.16593586744462" lon="13.662123638686722"><ele>901.0</ele><time>2026-05-02T10:58:11.996Z</time></trkpt><trkpt lat="42.16594756914492" lon="13.662018818764402"><ele>900.9999999999999</ele><time>2026-05-02T10:58:12.996Z</time></trkpt><trkpt lat="42.16598370350847" lon="13.661909331028868"><ele>901.0</ele><time>2026-05-02T10:58:14.996Z</time></trkpt><trkpt lat="42.16601093644626" lon="13.661793232814865"><ele>901.0</ele><time>2026-05-02T10:58:16.996Z</time></trkpt><trkpt lat="42.16602855972954" lon="13.661881305768366"><ele>901.0</ele><time>2026-05-02T10:58:25.996Z</time></trkpt><trkpt lat="42.165996657247774" lon="13.661975976235542"><ele>900.9999999999999</ele><time>2026-05-02T10:58:26.996Z</time></trkpt><trkpt lat="42.16599720726905" lon="13.662086029954336"><ele>901.0</ele><time>2026-05-02T10:58:27.996Z</time></trkpt><trkpt lat="42.165966570194506" lon="13.662243891609968"><ele>901.0</ele><time>2026-05-02T10:58:28.996Z</time></trkpt><trkpt lat="42.16595512618114" lon="13.662377984222688"><ele>900.9999999999999</ele><time>2026-05-02T10:58:29.996Z</time></trkpt><trkpt lat="42.16597823069958" lon="13.662475930701145"><ele>900.9999999999999</ele><time>2026-05-02T10:58:30.996Z</time></trkpt><trkpt lat="42.16596287127005" lon="13.662620450047747"><ele>901.0</ele><time>2026-05-02T10:58:32.996Z</time></trkpt><trkpt lat="42.16589138755749" lon="13.662662915074486"><ele>901.0</ele><time>2026-05-02T10:58:34.996Z</time></trkpt><trkpt lat="42.1657921918232" lon="13.662763544190243"><ele>902.6666666666666</ele><time>2026-05-02T10:58:36.996Z</time></trkpt><trkpt lat="42.16573494806947" lon="13.662825682635116"><ele>904.3333333333333</ele><time>2026-05-02T10:58:37.996Z</time></trkpt><trkpt lat="42.16566790286201" lon="13.662855076157832"><ele>906.0</ele><time>2026-05-02T10:58:38.996Z</time></trkpt><trkpt lat="42.16559656676934" lon="13.662911061736049"><ele>907.6666666666667</ele><time>2026-05-02T10:58:39.996Z</time></trkpt><trkpt lat="42.165485251494395" lon="13.662933278579835"><ele>909.3333333333334</ele><time>2026-05-02T10:58:41.996Z</time></trkpt><trkpt lat="42.1653812919159" lon="13.662941698248297"><ele>911.0</ele><time>2026-05-02T10:58:43.996Z</time></trkpt><trkpt lat="42.16531448507112" lon="13.66294307429082"><ele>911.8333333333334</ele><time>2026-05-02T10:58:44.996Z</time></trkpt><trkpt lat="42.16524518945974" lon="13.662966654390102"><ele>912.6666666666667</ele><time>2026-05-02T10:58:45.996Z</time></trkpt><trkpt lat="42.16516427850989" lon="13.662974716563607"><ele>913.5</ele><time>2026-05-02T10:58:46.996Z</time></trkpt><trkpt lat="42.16509423044786" lon="13.663008534264149"><ele>914.3333333333333</ele><time>2026-05-02T10:58:47.996Z</time></trkpt><trkpt lat="42.165021274971565" lon="13.663063706985936"><ele>915.1666666666666</ele><time>2026-05-02T10:58:48.996Z</time></trkpt><trkpt lat="42.164970223740895" lon="13.663131079412427"><ele>916.0</ele><time>2026-05-02T10:58:49.996Z</time></trkpt><trkpt lat="42.16486355910283" lon="13.663196590655142"><ele>917.1999999999999</ele><time>2026-05-02T10:58:52Z</time></trkpt><trkpt lat="42.16478701293712" lon="13.663199787220922"><ele>918.3999999999999</ele><time>2026-05-02T10:58:53Z</time></trkpt><trkpt lat="42.16472146845212" lon="13.663251008106341"><ele>919.6</ele><time>2026-05-02T10:58:54Z</time></trkpt><trkpt lat="42.16462746015567" lon="13.663337840457444"><ele>920.8</ele><time>2026-05-02T10:58:56Z</time></trkpt><trkpt lat="42.16455174684334" lon="13.663473824378045"><ele>922.0</ele><time>2026-05-02T10:58:58Z</time></trkpt><trkpt lat="42.16444817022466" lon="13.663548931608968"><ele>923.4000000000001</ele><time>2026-05-02T10:59:00Z</time></trkpt><trkpt lat="42.164350905217844" lon="13.663653406745478"><ele>924.8000000000001</ele><time>2026-05-02T10:59:02Z</time></trkpt><trkpt lat="42.1642798578748" lon="13.66371210294218"><ele>926.2</ele><time>2026-05-02T10:59:03Z</time></trkpt><trkpt lat="42.16419635824545" lon="13.663752126810449"><ele>927.6</ele><time>2026-05-02T10:59:04Z</time></trkpt><trkpt lat="42.16411915748227" lon="13.66382175828548"><ele>929.0</ele><time>2026-05-02T10:59:05Z</time></trkpt><trkpt lat="42.16403936678818" lon="13.66390462208782"><ele>930.0000000000001</ele><time>2026-05-02T10:59:06Z</time></trkpt><trkpt lat="42.16399013756647" lon="13.663978574258904"><ele>931.0</ele><time>2026-05-02T10:59:07Z</time></trkpt><trkpt lat="42.16393684111818" lon="13.664062424031641"><ele>932.0</ele><time>2026-05-02T10:59:08Z</time></trkpt><trkpt lat="42.163895858507665" lon="13.664135530305046"><ele>933.0</ele><time>2026-05-02T10:59:09Z</time></trkpt><trkpt lat="42.16381930820488" lon="13.66421260143592"><ele>934.0000000000001</ele><time>2026-05-02T10:59:10Z</time></trkpt><trkpt lat="42.16373621751634" lon="13.664256647443612"><ele>935.0</ele><time>2026-05-02T10:59:11Z</time></trkpt><trkpt lat="42.16365817367935" lon="13.664307315462848"><ele>935.0</ele><time>2026-05-02T10:59:12Z</time></trkpt><trkpt lat="42.16353115729318" lon="13.664414091577521"><ele>935.0</ele><time>2026-05-02T10:59:14Z</time></trkpt><trkpt lat="42.16347304701027" lon="13.664481819630456"><ele>935.0</ele><time>2026-05-02T10:59:15Z</time></trkpt><trkpt lat="42.16341682113161" lon="13.664545950036588"><ele>935.0</ele><time>2026-05-02T10:59:16Z</time></trkpt><trkpt lat="42.16331328579972" lon="13.664653757471438"><ele>935.0</ele><time>2026-05-02T10:59:18Z</time></trkpt><trkpt lat="42.16326389292556" lon="13.66472557858181"><ele>937.8</ele><time>2026-05-02T10:59:19Z</time></trkpt><trkpt lat="42.16316622965472" lon="13.664833934542711"><ele>940.6</ele><time>2026-05-02T10:59:22Z</time></trkpt><trkpt lat="42.163098262089804" lon="13.66492177690666"><ele>943.4000000000001</ele><time>2026-05-02T10:59:23Z</time></trkpt><trkpt lat="42.16305020433079" lon="13.664993241350993"><ele>946.2</ele><time>2026-05-02T10:59:24Z</time></trkpt><trkpt lat="42.16299583547005" lon="13.665110739242698"><ele>949.0</ele><time>2026-05-02T10:59:25Z</time></trkpt><trkpt lat="42.16296826863174" lon="13.665228171284447"><ele>946.9999999999999</ele><time>2026-05-02T10:59:26Z</time></trkpt><trkpt lat="42.162942130156495" lon="13.665324785502568"><ele>945.0</ele><time>2026-05-02T10:59:27Z</time></trkpt><trkpt lat="42.162886422178985" lon="13.665412547541338"><ele>943.0</ele><time>2026-05-02T10:59:28Z</time></trkpt><trkpt lat="42.16284408264052" lon="13.665501746239404"><ele>941.0</ele><time>2026-05-02T10:59:29Z</time></trkpt><trkpt lat="42.162798693057695" lon="13.665603704446434"><ele>938.9999999999999</ele><time>2026-05-02T10:59:30Z</time></trkpt><trkpt lat="42.16276539999556" lon="13.665703957140916"><ele>937.0</ele><time>2026-05-02T10:59:31Z</time></trkpt><trkpt lat="42.16273142904234" lon="13.665786755439354"><ele>937.0</ele><time>2026-05-02T10:59:32Z</time></trkpt><trkpt lat="42.16267620705759" lon="13.665889508926162"><ele>937.0</ele><time>2026-05-02T10:59:33Z</time></trkpt><trkpt lat="42.16260830356827" lon="13.66598168775674"><ele>937.0</ele><time>2026-05-02T10:59:34Z</time></trkpt><trkpt lat="42.16254870984884" lon="13.666053540257215"><ele>937.0</ele><time>2026-05-02T10:59:35Z</time></trkpt><trkpt lat="42.1624884567845" lon="13.666130561004719"><ele>937.0</ele><time>2026-05-02T10:59:36Z</time></trkpt><trkpt lat="42.162404191038505" lon="13.66620571483088"><ele>938.8333333333333</ele><time>2026-05-02T10:59:37Z</time></trkpt><trkpt lat="42.16233518463948" lon="13.666259902025425"><ele>940.6666666666666</ele><time>2026-05-02T10:59:38Z</time></trkpt><trkpt lat="42.162270525081425" lon="13.666307606178245"><ele>942.5</ele><time>2026-05-02T10:59:39Z</time></trkpt><trkpt lat="42.16219781163817" lon="13.666342467335332"><ele>944.3333333333333</ele><time>2026-05-02T10:59:40Z</time></trkpt><trkpt lat="42.162120026804104" lon="13.666380481042317"><ele>946.1666666666666</ele><time>2026-05-02T10:59:41Z</time></trkpt><trkpt lat="42.162041641954424" lon="13.666432388021338"><ele>948.0</ele><time>2026-05-02T10:59:42Z</time></trkpt><trkpt lat="42.16197201162619" lon="13.666478628866182"><ele>948.0</ele><time>2026-05-02T10:59:43Z</time></trkpt><trkpt lat="42.16191418187055" lon="13.666535334668467"><ele>948.0</ele><time>2026-05-02T10:59:44Z</time></trkpt><trkpt lat="42.161806914544876" lon="13.666635890186745"><ele>948.0</ele><time>2026-05-02T10:59:46Z</time></trkpt><trkpt lat="42.16175054322437" lon="13.666699676789094"><ele>948.0</ele><time>2026-05-02T10:59:47Z</time></trkpt><trkpt lat="42.1616897809577" lon="13.666747061196304"><ele>948.0</ele><time>2026-05-02T10:59:48Z</time></trkpt><trkpt lat="42.16162700354891" lon="13.66679724455943"><ele>948.0</ele><time>2026-05-02T10:59:49Z</time></trkpt><trkpt lat="42.16154235234723" lon="13.666863146599782"><ele>949.4</ele><time>2026-05-02T10:59:51Z</time></trkpt><trkpt lat="42.161484167110125" lon="13.666915893281558"><ele>950.8</ele><time>2026-05-02T11:00:08Z</time></trkpt><trkpt lat="42.161349604630075" lon="13.667021870980435"><ele>952.2</ele><time>2026-05-02T11:00:10Z</time></trkpt><trkpt lat="42.16128379274354" lon="13.667090689488836"><ele>953.6</ele><time>2026-05-02T11:00:11Z</time></trkpt><trkpt lat="42.161206483182795" lon="13.667171876876651"><ele>955.0</ele><time>2026-05-02T11:00:12Z</time></trkpt><trkpt lat="42.16113694168027" lon="13.667261692563903"><ele>955.0</ele><time>2026-05-02T11:00:13Z</time></trkpt><trkpt lat="42.16106828355099" lon="13.667359315663155"><ele>955.0</ele><time>2026-05-02T11:00:14Z</time></trkpt><trkpt lat="42.16101628710514" lon="13.667434629210753"><ele>955.0</ele><time>2026-05-02T11:00:15Z</time></trkpt><trkpt lat="42.160950775851056" lon="13.667506643938937"><ele>955.0</ele><time>2026-05-02T11:00:17Z</time></trkpt><trkpt lat="42.160870533930414" lon="13.66759471681917"><ele>955.0</ele><time>2026-05-02T11:00:19Z</time></trkpt><trkpt lat="42.16079976411681" lon="13.667676894263286"><ele>955.0</ele><time>2026-05-02T11:00:21Z</time></trkpt><trkpt lat="42.160711505130664" lon="13.66776075445191"><ele>955.0</ele><time>2026-05-02T11:00:23Z</time></trkpt><trkpt lat="42.16059873799957" lon="13.66782194150778"><ele>955.0</ele><time>2026-05-02T11:00:25Z</time></trkpt><trkpt lat="42.160489606514666" lon="13.667896430749863"><ele>955.0</ele><time>2026-05-02T11:00:27Z</time></trkpt><trkpt lat="42.16039222521421" lon="13.667990622552766"><ele>954.5714285714284</ele><time>2026-05-02T11:00:29Z</time></trkpt><trkpt lat="42.160340199774" lon="13.668052451911601"><ele>954.1428571428571</ele><time>2026-05-02T11:00:30Z</time></trkpt><trkpt lat="42.16027385010933" lon="13.668117928940143"><ele>953.7142857142857</ele><time>2026-05-02T11:00:31Z</time></trkpt><trkpt lat="42.16021895450346" lon="13.668184274611141"><ele>953.2857142857142</ele><time>2026-05-02T11:00:32Z</time></trkpt><trkpt lat="42.16017092966684" lon="13.668259550928669"><ele>952.8571428571429</ele><time>2026-05-02T11:00:33Z</time></trkpt><trkpt lat="42.16011922069353" lon="13.668314752732014"><ele>952.4285714285714</ele><time>2026-05-02T11:00:34Z</time></trkpt><trkpt lat="42.16006433263032" lon="13.668376566130078"><ele>952.0</ele><time>2026-05-02T11:00:35Z</time></trkpt><trkpt lat="42.159995831988596" lon="13.668444683178928"><ele>951.9999999999999</ele><time>2026-05-02T11:00:36Z</time></trkpt><trkpt lat="42.159929536375124" lon="13.668490467188558"><ele>952.0</ele><time>2026-05-02T11:00:37Z</time></trkpt><trkpt lat="42.15987023583195" lon="13.668538782391487"><ele>952.0</ele><time>2026-05-02T11:00:38Z</time></trkpt><trkpt lat="42.15980943805738" lon="13.668597370160624"><ele>952.0</ele><time>2026-05-02T11:00:39Z</time></trkpt><trkpt lat="42.15974320890265" lon="13.668657375039482"><ele>951.9999999999999</ele><time>2026-05-02T11:00:40Z</time></trkpt><trkpt lat="42.15967245210508" lon="13.668732645905038"><ele>952.0</ele><time>2026-05-02T11:00:41Z</time></trkpt><trkpt lat="42.15962247373123" lon="13.668803303219644"><ele>949.8</ele><time>2026-05-02T11:00:42Z</time></trkpt><trkpt lat="42.159573567347294" lon="13.668913582242116"><ele>947.6</ele><time>2026-05-02T11:00:44Z</time></trkpt><trkpt lat="42.15956230859464" lon="13.669042186110394"><ele>945.3999999999999</ele><time>2026-05-02T11:00:45.999Z</time></trkpt><trkpt lat="42.15955814152221" lon="13.669128413778374"><ele>943.1999999999999</ele><time>2026-05-02T11:00:46.999Z</time></trkpt><trkpt lat="42.1595487720991" lon="13.669277999461439"><ele>941.0</ele><time>2026-05-02T11:00:48.999Z</time></trkpt><trkpt lat="42.15954040723121" lon="13.669395783693274"><ele>939.5999999999999</ele><time>2026-05-02T11:00:49.999Z</time></trkpt><trkpt lat="42.15950968751166" lon="13.669557189812354"><ele>938.1999999999999</ele><time>2026-05-02T11:00:50.999Z</time></trkpt><trkpt lat="42.159484368609775" lon="13.669697893669213"><ele>936.8000000000001</ele><time>2026-05-02T11:00:51.999Z</time></trkpt><trkpt lat="42.159454414370046" lon="13.669826074344854"><ele>935.4000000000001</ele><time>2026-05-02T11:00:52.999Z</time></trkpt><trkpt lat="42.15940469851553" lon="13.66995360632441"><ele>934.0</ele><time>2026-05-02T11:00:54.999Z</time></trkpt><trkpt lat="42.15936276677029" lon="13.670020177352297"><ele>933.9999999999999</ele><time>2026-05-02T11:00:55.999Z</time></trkpt><trkpt lat="42.15932279466243" lon="13.670093641419836"><ele>934.0</ele><time>2026-05-02T11:00:56.999Z</time></trkpt><trkpt lat="42.15926621764461" lon="13.670232048618795"><ele>934.0</ele><time>2026-05-02T11:00:58.999Z</time></trkpt><trkpt lat="42.159245538396505" lon="13.67031247026189"><ele>934.0</ele><time>2026-05-02T11:00:59.999Z</time></trkpt><trkpt lat="42.15922761767741" lon="13.670397539207023"><ele>933.9999999999999</ele><time>2026-05-02T11:01:00.999Z</time></trkpt><trkpt lat="42.159212397896844" lon="13.670511853174089"><ele>934.0</ele><time>2026-05-02T11:01:01.999Z</time></trkpt><trkpt lat="42.159199427326904" lon="13.6706121109996"><ele>935.3333333333333</ele><time>2026-05-02T11:01:02.999Z</time></trkpt><trkpt lat="42.159189114710685" lon="13.670731939918324"><ele>936.6666666666666</ele><time>2026-05-02T11:01:03.999Z</time></trkpt><trkpt lat="42.15919511619191" lon="13.670816728205917"><ele>938.0</ele><time>2026-05-02T11:01:04.999Z</time></trkpt><trkpt lat="42.15920061598785" lon="13.670908281648687"><ele>939.3333333333333</ele><time>2026-05-02T11:01:05.999Z</time></trkpt><trkpt lat="42.159208851531844" lon="13.671020660970527"><ele>940.6666666666666</ele><time>2026-05-02T11:01:06.999Z</time></trkpt><trkpt lat="42.15921329512902" lon="13.67115843214892"><ele>942.0</ele><time>2026-05-02T11:01:07.999Z</time></trkpt><trkpt lat="42.15922231984391" lon="13.671290364978923"><ele>942.2</ele><time>2026-05-02T11:01:08.999Z</time></trkpt><trkpt lat="42.15922921630882" lon="13.671437614484946"><ele>942.4000000000001</ele><time>2026-05-02T11:01:09.999Z</time></trkpt><trkpt lat="42.1592389067591" lon="13.671567544110545"><ele>942.5999999999999</ele><time>2026-05-02T11:01:10.999Z</time></trkpt><trkpt lat="42.159245193198466" lon="13.671670342296029"><ele>942.8</ele><time>2026-05-02T11:01:11.999Z</time></trkpt><trkpt lat="42.15927672305799" lon="13.671809211168135"><ele>943.0</ele><time>2026-05-02T11:01:13.998Z</time></trkpt><trkpt lat="42.1593404044743" lon="13.671945105808808"><ele>941.8</ele><time>2026-05-02T11:01:15.998Z</time></trkpt><trkpt lat="42.159417035653796" lon="13.672007707770756"><ele>940.5999999999999</ele><time>2026-05-02T11:01:17.998Z</time></trkpt><trkpt lat="42.15948718687841" lon="13.672060313528112"><ele>939.4000000000001</ele><time>2026-05-02T11:01:19.998Z</time></trkpt><trkpt lat="42.159547860773436" lon="13.672162610139274"><ele>938.2</ele><time>2026-05-02T11:01:21.998Z</time></trkpt><trkpt lat="42.15957260000624" lon="13.672270355633394"><ele>937.0</ele><time>2026-05-02T11:01:23.998Z</time></trkpt><trkpt lat="42.15960389345025" lon="13.672417779661744"><ele>936.9999999999999</ele><time>2026-05-02T11:01:25.998Z</time></trkpt><trkpt lat="42.15961880488297" lon="13.672521724803554"><ele>937.0</ele><time>2026-05-02T11:01:26.998Z</time></trkpt><trkpt lat="42.15964699247939" lon="13.67261771803866"><ele>937.0</ele><time>2026-05-02T11:01:27.998Z</time></trkpt><trkpt lat="42.159685976944765" lon="13.672711544108944"><ele>937.0</ele><time>2026-05-02T11:01:28.998Z</time></trkpt><trkpt lat="42.15974215118462" lon="13.672830141948833"><ele>936.9999999999999</ele><time>2026-05-02T11:01:29.998Z</time></trkpt><trkpt lat="42.1597642524617" lon="13.672913834665612"><ele>937.0</ele><time>2026-05-02T11:01:30.998Z</time></trkpt><trkpt lat="42.15980327726507" lon="13.673008272040386"><ele>935.4999999999999</ele><time>2026-05-02T11:01:31.998Z</time></trkpt><trkpt lat="42.15985572181851" lon="13.673129479875795"><ele>934.0</ele><time>2026-05-02T11:01:32.998Z</time></trkpt><trkpt lat="42.1598989968779" lon="13.673235190023838"><ele>932.5</ele><time>2026-05-02T11:01:33.998Z</time></trkpt><trkpt lat="42.159948388115005" lon="13.673336152847847"><ele>931.0</ele><time>2026-05-02T11:01:34.998Z</time></trkpt><trkpt lat="42.15999036743335" lon="13.673422192595629"><ele>929.4999999999999</ele><time>2026-05-02T11:01:35.998Z</time></trkpt><trkpt lat="42.16003003815902" lon="13.67352330652849"><ele>928.0</ele><time>2026-05-02T11:01:36.998Z</time></trkpt><trkpt lat="42.160071033538415" lon="13.673630707948409"><ele>931.6666666666666</ele><time>2026-05-02T11:01:37.998Z</time></trkpt><trkpt lat="42.16010948837693" lon="13.673742543730647"><ele>935.3333333333333</ele><time>2026-05-02T11:01:38.998Z</time></trkpt><trkpt lat="42.16014766778269" lon="13.673853480185867"><ele>939.0</ele><time>2026-05-02T11:01:39.998Z</time></trkpt><trkpt lat="42.16018787642971" lon="13.67394978959347"><ele>942.6666666666667</ele><time>2026-05-02T11:01:40.998Z</time></trkpt><trkpt lat="42.160226583968715" lon="13.674040993940185"><ele>946.3333333333334</ele><time>2026-05-02T11:01:41.998Z</time></trkpt><trkpt lat="42.16026637776219" lon="13.674137832103625"><ele>950.0</ele><time>2026-05-02T11:01:42.998Z</time></trkpt><trkpt lat="42.16030196567451" lon="13.674217256159038"><ele>950.0000000000001</ele><time>2026-05-02T11:01:43.998Z</time></trkpt><trkpt lat="42.160369548293254" lon="13.67433071234999"><ele>950.0</ele><time>2026-05-02T11:01:45.998Z</time></trkpt><trkpt lat="42.160461398072" lon="13.674411507252836"><ele>950.0</ele><time>2026-05-02T11:01:47.998Z</time></trkpt><trkpt lat="42.16052220686081" lon="13.674442368451972"><ele>950.0</ele><time>2026-05-02T11:01:48.998Z</time></trkpt><trkpt lat="42.16059771337363" lon="13.674474908904049"><ele>950.0000000000001</ele><time>2026-05-02T11:01:49.998Z</time></trkpt><trkpt lat="42.16066107741265" lon="13.674499492628568"><ele>950.0</ele><time>2026-05-02T11:01:50.998Z</time></trkpt><trkpt lat="42.160728763407384" lon="13.674550655179322"><ele>951.8333333333334</ele><time>2026-05-02T11:01:51.998Z</time></trkpt><trkpt lat="42.16078604027189" lon="13.67461643963372"><ele>953.6666666666667</ele><time>2026-05-02T11:01:52.998Z</time></trkpt><trkpt lat="42.160838683067794" lon="13.674690878666091"><ele>955.5</ele><time>2026-05-02T11:01:53.998Z</time></trkpt><trkpt lat="42.160889755013564" lon="13.674778783777596"><ele>957.3333333333333</ele><time>2026-05-02T11:01:54.998Z</time></trkpt><trkpt lat="42.16094801122515" lon="13.674874840980793"><ele>959.1666666666666</ele><time>2026-05-02T11:01:55.998Z</time></trkpt><trkpt lat="42.161012361700614" lon="13.674982484625755"><ele>961.0</ele><time>2026-05-02T11:01:56.998Z</time></trkpt><trkpt lat="42.1610654947816" lon="13.675081359969777"><ele>960.9999999999999</ele><time>2026-05-02T11:01:57.998Z</time></trkpt><trkpt lat="42.16110358985284" lon="13.675157227250647"><ele>961.0</ele><time>2026-05-02T11:01:58.998Z</time></trkpt><trkpt lat="42.16114767505211" lon="13.675258953343128"><ele>961.0</ele><time>2026-05-02T11:01:59.998Z</time></trkpt><trkpt lat="42.16118411728329" lon="13.67534720800023"><ele>961.0</ele><time>2026-05-02T11:02:00.998Z</time></trkpt><trkpt lat="42.16122016021959" lon="13.675418162767718"><ele>960.9999999999999</ele><time>2026-05-02T11:02:01.998Z</time></trkpt><trkpt lat="42.16126743894975" lon="13.675517060911863"><ele>961.0</ele><time>2026-05-02T11:02:02.998Z</time></trkpt><trkpt lat="42.1613179252479" lon="13.67563516548671"><ele>962.1666666666666</ele><time>2026-05-02T11:02:03.998Z</time></trkpt><trkpt lat="42.161371251230904" lon="13.675758656038735"><ele>963.3333333333333</ele><time>2026-05-02T11:02:04.998Z</time></trkpt><trkpt lat="42.16142661197818" lon="13.675851099010579"><ele>964.5</ele><time>2026-05-02T11:02:05.998Z</time></trkpt><trkpt lat="42.16147369480944" lon="13.675945348196166"><ele>965.6666666666667</ele><time>2026-05-02T11:02:06.998Z</time></trkpt><trkpt lat="42.16151103500825" lon="13.676049138642721"><ele>966.8333333333334</ele><time>2026-05-02T11:02:07.998Z</time></trkpt><trkpt lat="42.16154031014137" lon="13.6761573205843"><ele>968.0</ele><time>2026-05-02T11:02:08.998Z</time></trkpt><trkpt lat="42.16156080086051" lon="13.67624848366365"><ele>968.0</ele><time>2026-05-02T11:02:09.998Z</time></trkpt><trkpt lat="42.16159968715195" lon="13.676409352134922"><ele>968.0</ele><time>2026-05-02T11:02:11.998Z</time></trkpt><trkpt lat="42.161618714570636" lon="13.676499661973164"><ele>968.0</ele><time>2026-05-02T11:02:12.998Z</time></trkpt><trkpt lat="42.16165074166647" lon="13.676658645032107"><ele>968.0</ele><time>2026-05-02T11:02:14.998Z</time></trkpt><trkpt lat="42.16167083464778" lon="13.676745152279326"><ele>968.0</ele><time>2026-05-02T11:02:15.998Z</time></trkpt><trkpt lat="42.16170864100825" lon="13.676901150789885"><ele>966.8333333333334</ele><time>2026-05-02T11:02:17.998Z</time></trkpt><trkpt lat="42.16172016415026" lon="13.677049081685894"><ele>965.6666666666667</ele><time>2026-05-02T11:02:19.998Z</time></trkpt><trkpt lat="42.1617257411681" lon="13.67714740409099"><ele>964.5</ele><time>2026-05-02T11:02:20.998Z</time></trkpt><trkpt lat="42.161735133269076" lon="13.6772518000471"><ele>963.3333333333333</ele><time>2026-05-02T11:02:21.998Z</time></trkpt><trkpt lat="42.161745336867725" lon="13.677338136928102"><ele>962.1666666666666</ele><time>2026-05-02T11:02:22.998Z</time></trkpt><trkpt lat="42.16175839967943" lon="13.67743406054491"><ele>961.0</ele><time>2026-05-02T11:02:23.998Z</time></trkpt><trkpt lat="42.16177212332221" lon="13.677524668563143"><ele>961.0</ele><time>2026-05-02T11:02:24.998Z</time></trkpt><trkpt lat="42.16178651202173" lon="13.67761329979577"><ele>960.9999999999999</ele><time>2026-05-02T11:02:25.998Z</time></trkpt><trkpt lat="42.161796025558466" lon="13.677702954580147"><ele>961.0</ele><time>2026-05-02T11:02:26.998Z</time></trkpt><trkpt lat="42.16179981218274" lon="13.67779949761395"><ele>961.0</ele><time>2026-05-02T11:02:27.998Z</time></trkpt><trkpt lat="42.16181346578832" lon="13.67789940506519"><ele>960.9999999999999</ele><time>2026-05-02T11:02:28.998Z</time></trkpt><trkpt lat="42.16182609163176" lon="13.67798406180769"><ele>961.0</ele><time>2026-05-02T11:02:29.998Z</time></trkpt><trkpt lat="42.16183534013044" lon="13.678096003155556"><ele>961.0</ele><time>2026-05-02T11:02:30.998Z</time></trkpt><trkpt lat="42.16184316661326" lon="13.678208756937476"><ele>958.8333333333333</ele><time>2026-05-02T11:02:31.998Z</time></trkpt><trkpt lat="42.161851246301445" lon="13.678321804756047"><ele>956.6666666666666</ele><time>2026-05-02T11:02:32.998Z</time></trkpt><trkpt lat="42.16185644452904" lon="13.678437097926546"><ele>954.5</ele><time>2026-05-02T11:02:33.998Z</time></trkpt><trkpt lat="42.16186421241413" lon="13.678554074798146"><ele>952.3333333333333</ele><time>2026-05-02T11:02:34.998Z</time></trkpt><trkpt lat="42.16187409996456" lon="13.67866821785388"><ele>950.1666666666666</ele><time>2026-05-02T11:02:35.998Z</time></trkpt><trkpt lat="42.16188143883139" lon="13.678765549767288"><ele>948.0</ele><time>2026-05-02T11:02:36.998Z</time></trkpt><trkpt lat="42.16188896892086" lon="13.678872806053755"><ele>946.3333333333334</ele><time>2026-05-02T11:02:37.998Z</time></trkpt><trkpt lat="42.16189255005588" lon="13.678987873105397"><ele>944.6666666666667</ele><time>2026-05-02T11:02:38.998Z</time></trkpt><trkpt lat="42.16188706105495" lon="13.679101431878477"><ele>943.0</ele><time>2026-05-02T11:02:39.998Z</time></trkpt><trkpt lat="42.161880918814916" lon="13.679213553217831"><ele>941.3333333333334</ele><time>2026-05-02T11:02:40.998Z</time></trkpt><trkpt lat="42.16185809220033" lon="13.679318986883441"><ele>939.6666666666667</ele><time>2026-05-02T11:02:41.997Z</time></trkpt><trkpt lat="42.161841609073974" lon="13.679416151408745"><ele>938.0</ele><time>2026-05-02T11:02:42.997Z</time></trkpt><trkpt lat="42.16182311998768" lon="13.679509048892399"><ele>936.6666666666667</ele><time>2026-05-02T11:02:43.997Z</time></trkpt><trkpt lat="42.16180372215445" lon="13.67960652504895"><ele>935.3333333333334</ele><time>2026-05-02T11:02:44.997Z</time></trkpt><trkpt lat="42.161781173202755" lon="13.67969054492644"><ele>934.0</ele><time>2026-05-02T11:02:45.997Z</time></trkpt><trkpt lat="42.161767577981" lon="13.679774718044202"><ele>932.6666666666667</ele><time>2026-05-02T11:02:46.997Z</time></trkpt><trkpt lat="42.1617509472993" lon="13.6799100495432"><ele>931.3333333333334</ele><time>2026-05-02T11:02:48.997Z</time></trkpt><trkpt lat="42.16172495052112" lon="13.680030899540432"><ele>930.0</ele><time>2026-05-02T11:02:50.997Z</time></trkpt><trkpt lat="42.16169288754091" lon="13.680135104806812"><ele>930.0</ele><time>2026-05-02T11:02:52.997Z</time></trkpt><trkpt lat="42.1616317399979" lon="13.680213391904658"><ele>930.0</ele><time>2026-05-02T11:02:54.997Z</time></trkpt><trkpt lat="42.161594500539174" lon="13.680139180868045"><ele>930.0</ele><time>2026-05-02T11:03:05.997Z</time></trkpt><trkpt lat="42.161568277421196" lon="13.680041566620336"><ele>930.0</ele><time>2026-05-02T11:03:08.997Z</time></trkpt><trkpt lat="42.16155243622321" lon="13.67994419315593"><ele>930.0</ele><time>2026-05-02T11:03:09.997Z</time></trkpt><trkpt lat="42.161534816165705" lon="13.679840429421303"><ele>930.0</ele><time>2026-05-02T11:03:10.997Z</time></trkpt><trkpt lat="42.16152141054207" lon="13.679728999193735"><ele>931.0</ele><time>2026-05-02T11:03:11.997Z</time></trkpt><trkpt lat="42.161511680270316" lon="13.67962601749393"><ele>932.0</ele><time>2026-05-02T11:03:12.997Z</time></trkpt><trkpt lat="42.16150583344188" lon="13.679529774725491"><ele>933.0</ele><time>2026-05-02T11:03:13.997Z</time></trkpt><trkpt lat="42.16149080987037" lon="13.679393249604429"><ele>934.0</ele><time>2026-05-02T11:03:15.997Z</time></trkpt><trkpt lat="42.16148714263012" lon="13.679306699700895"><ele>935.0</ele><time>2026-05-02T11:03:17.997Z</time></trkpt><trkpt lat="42.161466843129155" lon="13.679207094082315"><ele>936.0</ele><time>2026-05-02T11:03:19.997Z</time></trkpt><trkpt lat="42.161375201020995" lon="13.679223832474666"><ele>936.0</ele><time>2026-05-02T11:03:21.997Z</time></trkpt><trkpt lat="42.16131540423897" lon="13.67925074870782"><ele>936.0</ele><time>2026-05-02T11:03:22.997Z</time></trkpt><trkpt lat="42.16123308310465" lon="13.679273707774946"><ele>936.0</ele><time>2026-05-02T11:03:23.997Z</time></trkpt><trkpt lat="42.16114290025076" lon="13.679304477151002"><ele>936.0</ele><time>2026-05-02T11:03:24.997Z</time></trkpt><trkpt lat="42.161048757829064" lon="13.67934063529236"><ele>936.0</ele><time>2026-05-02T11:03:25.997Z</time></trkpt><trkpt lat="42.16095272733195" lon="13.679372397366825"><ele>936.0</ele><time>2026-05-02T11:03:26.997Z</time></trkpt><trkpt lat="42.160853020283085" lon="13.679392535205283"><ele>936.0</ele><time>2026-05-02T11:03:27.997Z</time></trkpt><trkpt lat="42.16074967911822" lon="13.67940283425136"><ele>935.9999999999999</ele><time>2026-05-02T11:03:28.997Z</time></trkpt><trkpt lat="42.1606421299992" lon="13.679419528552126"><ele>935.9999999999999</ele><time>2026-05-02T11:03:29.997Z</time></trkpt><trkpt lat="42.16055181808831" lon="13.679434989392531"><ele>936.0</ele><time>2026-05-02T11:03:30.997Z</time></trkpt><trkpt lat="42.16047778947628" lon="13.679468527991121"><ele>936.0</ele><time>2026-05-02T11:03:31.997Z</time></trkpt><trkpt lat="42.16040279905949" lon="13.679511229127682"><ele>932.1666666666666</ele><time>2026-05-02T11:03:32.997Z</time></trkpt><trkpt lat="42.1603274987798" lon="13.67956534256494"><ele>928.3333333333333</ele><time>2026-05-02T11:03:33.997Z</time></trkpt><trkpt lat="42.16024977458853" lon="13.6796127438919"><ele>924.5</ele><time>2026-05-02T11:03:34.997Z</time></trkpt><trkpt lat="42.16017323105946" lon="13.679656926381348"><ele>920.6666666666666</ele><time>2026-05-02T11:03:35.997Z</time></trkpt><trkpt lat="42.16010436176756" lon="13.679693028509469"><ele>916.8333333333333</ele><time>2026-05-02T11:03:36.997Z</time></trkpt><trkpt lat="42.1600456445789" lon="13.679726724828747"><ele>913.0</ele><time>2026-05-02T11:03:37.997Z</time></trkpt><trkpt lat="42.15996410909588" lon="13.679824797312579"><ele>913.0</ele><time>2026-05-02T11:03:39.997Z</time></trkpt><trkpt lat="42.15990970057781" lon="13.67988344956465"><ele>913.0</ele><time>2026-05-02T11:03:40.997Z</time></trkpt><trkpt lat="42.15982610903573" lon="13.680000954061258"><ele>913.0</ele><time>2026-05-02T11:03:42.997Z</time></trkpt><trkpt lat="42.159745274583514" lon="13.680087605908284"><ele>913.0</ele><time>2026-05-02T11:03:44.997Z</time></trkpt><trkpt lat="42.159652437724034" lon="13.68005289070579"><ele>913.0</ele><time>2026-05-02T11:03:47.997Z</time></trkpt><trkpt lat="42.159596027467806" lon="13.679978518440333"><ele>910.3333333333333</ele><time>2026-05-02T11:03:49.997Z</time></trkpt><trkpt lat="42.15954366620046" lon="13.679885734265174"><ele>907.6666666666666</ele><time>2026-05-02T11:03:52.997Z</time></trkpt><trkpt lat="42.15948657713841" lon="13.679781702918783"><ele>905.0</ele><time>2026-05-02T11:03:55.997Z</time></trkpt><trkpt lat="42.15945763325449" lon="13.679695911800138"><ele>902.3333333333333</ele><time>2026-05-02T11:03:57.997Z</time></trkpt><trkpt lat="42.15942159940508" lon="13.679602500013406"><ele>899.6666666666666</ele><time>2026-05-02T11:03:59.997Z</time></trkpt><trkpt lat="42.159384793265176" lon="13.679500773374086"><ele>897.0</ele><time>2026-05-02T11:04:01.997Z</time></trkpt><trkpt lat="42.15934520074716" lon="13.679396275040077"><ele>897.0</ele><time>2026-05-02T11:04:03.997Z</time></trkpt><trkpt lat="42.159322753735935" lon="13.679287995584772"><ele>897.0</ele><time>2026-05-02T11:04:05.997Z</time></trkpt><trkpt lat="42.15929914030095" lon="13.67919568272226"><ele>897.0</ele><time>2026-05-02T11:04:07.997Z</time></trkpt><trkpt lat="42.15928135765235" lon="13.679058705161536"><ele>897.0</ele><time>2026-05-02T11:04:09.997Z</time></trkpt><trkpt lat="42.159248467426245" lon="13.678921576910808"><ele>897.0</ele><time>2026-05-02T11:04:11.997Z</time></trkpt><trkpt lat="42.15921280253913" lon="13.678830878153349"><ele>897.0</ele><time>2026-05-02T11:04:12.997Z</time></trkpt><trkpt lat="42.15917702486678" lon="13.678744487447148"><ele>897.0</ele><time>2026-05-02T11:04:13.997Z</time></trkpt><trkpt lat="42.159141374957905" lon="13.678656251149448"><ele>897.0</ele><time>2026-05-02T11:04:14.997Z</time></trkpt><trkpt lat="42.159113464079056" lon="13.678569686409372"><ele>897.0</ele><time>2026-05-02T11:04:15.997Z</time></trkpt><trkpt lat="42.15908275490878" lon="13.678477919601114"><ele>897.0</ele><time>2026-05-02T11:04:16.997Z</time></trkpt><trkpt lat="42.1590452278158" lon="13.678354752185712"><ele>897.0</ele><time>2026-05-02T11:04:18.997Z</time></trkpt><trkpt lat="42.15900096207628" lon="13.678223103830073"><ele>897.0</ele><time>2026-05-02T11:04:20.997Z</time></trkpt><trkpt lat="42.15897204605879" lon="13.678145731045698"><ele>891.8</ele><time>2026-05-02T11:04:21.997Z</time></trkpt><trkpt lat="42.15893519341697" lon="13.677981172327963"><ele>886.6</ele><time>2026-05-02T11:04:23.997Z</time></trkpt><trkpt lat="42.1589128434463" lon="13.677898447342212"><ele>881.3999999999999</ele><time>2026-05-02T11:04:24.997Z</time></trkpt><trkpt lat="42.158868251700326" lon="13.677753561107291"><ele>876.1999999999999</ele><time>2026-05-02T11:04:26.997Z</time></trkpt><trkpt lat="42.15881281146425" lon="13.677667202399261"><ele>871.0</ele><time>2026-05-02T11:04:28.997Z</time></trkpt><trkpt lat="42.15876603884107" lon="13.677510031452911"><ele>871.0</ele><time>2026-05-02T11:04:30.997Z</time></trkpt><trkpt lat="42.158716288345076" lon="13.677366073005345"><ele>870.9999999999999</ele><time>2026-05-02T11:04:32.997Z</time></trkpt><trkpt lat="42.15866394635007" lon="13.677235580328798"><ele>870.9999999999999</ele><time>2026-05-02T11:04:34.997Z</time></trkpt><trkpt lat="42.15862267760907" lon="13.677131887198447"><ele>871.0</ele><time>2026-05-02T11:04:36.997Z</time></trkpt><trkpt lat="42.15857571320302" lon="13.676993447021474"><ele>871.0</ele><time>2026-05-02T11:04:38.996Z</time></trkpt><trkpt lat="42.15852908519818" lon="13.676897439720243"><ele>874.0</ele><time>2026-05-02T11:04:40.996Z</time></trkpt><trkpt lat="42.158471926382326" lon="13.676794172351153"><ele>876.9999999999999</ele><time>2026-05-02T11:04:42.996Z</time></trkpt><trkpt lat="42.158407252561545" lon="13.67668111797902"><ele>879.9999999999999</ele><time>2026-05-02T11:04:44.996Z</time></trkpt><trkpt lat="42.15834201819079" lon="13.676531122730378"><ele>883.0</ele><time>2026-05-02T11:04:46.996Z</time></trkpt><trkpt lat="42.15829518534786" lon="13.67645073034616"><ele>886.0</ele><time>2026-05-02T11:04:47.996Z</time></trkpt><trkpt lat="42.15825015746033" lon="13.676372795098835"><ele>885.9999999999999</ele><time>2026-05-02T11:04:48.996Z</time></trkpt><trkpt lat="42.15820189710205" lon="13.676297450180444"><ele>886.0</ele><time>2026-05-02T11:04:49.996Z</time></trkpt><trkpt lat="42.15815597273408" lon="13.676197223021294"><ele>886.0</ele><time>2026-05-02T11:04:50.996Z</time></trkpt><trkpt lat="42.15811211569484" lon="13.676107867591158"><ele>886.0</ele><time>2026-05-02T11:04:51.996Z</time></trkpt><trkpt lat="42.15805508818406" lon="13.676002645585234"><ele>885.9999999999999</ele><time>2026-05-02T11:04:52.996Z</time></trkpt><trkpt lat="42.15801383879916" lon="13.675929340743062"><ele>886.0</ele><time>2026-05-02T11:04:53.996Z</time></trkpt><trkpt lat="42.15797175073712" lon="13.675834470254626"><ele>879.8</ele><time>2026-05-02T11:04:54.996Z</time></trkpt><trkpt lat="42.15789874485414" lon="13.67571089691696"><ele>873.5999999999999</ele><time>2026-05-02T11:04:56.996Z</time></trkpt><trkpt lat="42.157859408324" lon="13.675613852617802"><ele>867.4</ele><time>2026-05-02T11:04:59.996Z</time></trkpt><trkpt lat="42.15781892329131" lon="13.675495588148829"><ele>861.2</ele><time>2026-05-02T11:05:01.996Z</time></trkpt><trkpt lat="42.157772249142056" lon="13.675373994936779"><ele>855.0</ele><time>2026-05-02T11:05:03.996Z</time></trkpt><trkpt lat="42.15773883761514" lon="13.675246189823136"><ele>855.0</ele><time>2026-05-02T11:05:05.996Z</time></trkpt><trkpt lat="42.15770061947897" lon="13.675090674343451"><ele>855.0</ele><time>2026-05-02T11:05:07.996Z</time></trkpt><trkpt lat="42.15768494787345" lon="13.674953215790453"><ele>855.0</ele><time>2026-05-02T11:05:09.996Z</time></trkpt><trkpt lat="42.15767462372082" lon="13.674866497192959"><ele>855.0</ele><time>2026-05-02T11:05:10.996Z</time></trkpt><trkpt lat="42.15766597577071" lon="13.674720892699629"><ele>855.0</ele><time>2026-05-02T11:05:12.996Z</time></trkpt><trkpt lat="42.15765589618629" lon="13.674574889158661"><ele>855.0</ele><time>2026-05-02T11:05:14.996Z</time></trkpt><trkpt lat="42.15766537044986" lon="13.674452121968189"><ele>855.0</ele><time>2026-05-02T11:05:16.996Z</time></trkpt><trkpt lat="42.15771269207479" lon="13.674373902994876"><ele>855.0</ele><time>2026-05-02T11:05:18.996Z</time></trkpt><trkpt lat="42.1576742582819" lon="13.674294510176377"><ele>855.0</ele><time>2026-05-02T11:05:21.996Z</time></trkpt><trkpt lat="42.157619302799716" lon="13.674336140509373"><ele>855.0</ele><time>2026-05-02T11:05:24.996Z</time></trkpt><trkpt lat="42.15754717629358" lon="13.674402779403188"><ele>855.0</ele><time>2026-05-02T11:05:26.996Z</time></trkpt><trkpt lat="42.15749284880807" lon="13.674503882775541"><ele>855.0</ele><time>2026-05-02T11:05:28.996Z</time></trkpt><trkpt lat="42.15745342173738" lon="13.674620577097516"><ele>855.0</ele><time>2026-05-02T11:05:30.996Z</time></trkpt><trkpt lat="42.15743281980718" lon="13.674714278507293"><ele>855.0</ele><time>2026-05-02T11:05:32.996Z</time></trkpt><trkpt lat="42.157410574009525" lon="13.674847279227597"><ele>855.0</ele><time>2026-05-02T11:05:34.996Z</time></trkpt><trkpt lat="42.1573963580094" lon="13.674973613549467"><ele>855.0</ele><time>2026-05-02T11:05:36.996Z</time></trkpt><trkpt lat="42.15733373529032" lon="13.675029595417573"><ele>855.0</ele><time>2026-05-02T11:05:39.996Z</time></trkpt><trkpt lat="42.15726548990052" lon="13.67497010141185"><ele>849.3333333333334</ele><time>2026-05-02T11:05:42.996Z</time></trkpt><trkpt lat="42.157242810437154" lon="13.674840742525488"><ele>843.6666666666667</ele><time>2026-05-02T11:05:45.996Z</time></trkpt><trkpt lat="42.15722704978768" lon="13.674749110987328"><ele>838.0</ele><time>2026-05-02T11:05:47.996Z</time></trkpt><trkpt lat="42.15720991285849" lon="13.674638036804204"><ele>832.3333333333334</ele><time>2026-05-02T11:05:49.996Z</time></trkpt><trkpt lat="42.15719823047656" lon="13.674507401281057"><ele>826.6666666666667</ele><time>2026-05-02T11:05:51.996Z</time></trkpt><trkpt lat="42.15719351536736" lon="13.67437962551016"><ele>821.0</ele><time>2026-05-02T11:05:54.996Z</time></trkpt><trkpt lat="42.15719908325418" lon="13.674246347092328"><ele>821.0000000000001</ele><time>2026-05-02T11:05:56.996Z</time></trkpt><trkpt lat="42.157209957532544" lon="13.674120309224106"><ele>821.0</ele><time>2026-05-02T11:05:58.999Z</time></trkpt><trkpt lat="42.15722805564471" lon="13.673994698063716"><ele>821.0</ele><time>2026-05-02T11:06:00.999Z</time></trkpt><trkpt lat="42.157162017994224" lon="13.673932088172558"><ele>821.0</ele><time>2026-05-02T11:06:03.999Z</time></trkpt><trkpt lat="42.15706891181766" lon="13.673933197443667"><ele>821.0000000000001</ele><time>2026-05-02T11:06:06.999Z</time></trkpt><trkpt lat="42.157012755779576" lon="13.673974423160969"><ele>821.0</ele><time>2026-05-02T11:06:08.999Z</time></trkpt><trkpt lat="42.15696416531707" lon="13.674041091436992"><ele>821.0000000000001</ele><time>2026-05-02T11:06:10.999Z</time></trkpt><trkpt lat="42.156913048846135" lon="13.674094303168253"><ele>821.0</ele><time>2026-05-02T11:06:13Z</time></trkpt><trkpt lat="42.15686649274614" lon="13.674197731582046"><ele>821.0</ele><time>2026-05-02T11:06:16Z</time></trkpt><trkpt lat="42.156866829203565" lon="13.674292251700408"><ele>821.0</ele><time>2026-05-02T11:06:18Z</time></trkpt><trkpt lat="42.156874330005614" lon="13.674410451439002"><ele>821.0000000000001</ele><time>2026-05-02T11:06:20Z</time></trkpt><trkpt lat="42.15686246031621" lon="13.674517850570549"><ele>821.0</ele><time>2026-05-02T11:06:22Z</time></trkpt><trkpt lat="42.15684220305016" lon="13.674620001975835"><ele>819.3333333333334</ele><time>2026-05-02T11:06:24Z</time></trkpt><trkpt lat="42.15680675350311" lon="13.674723031132604"><ele>817.6666666666667</ele><time>2026-05-02T11:06:26Z</time></trkpt><trkpt lat="42.15677798081037" lon="13.674842617501193"><ele>816.0</ele><time>2026-05-02T11:06:28Z</time></trkpt><trkpt lat="42.156742944281824" lon="13.67492015496608"><ele>814.3333333333333</ele><time>2026-05-02T11:06:30Z</time></trkpt><trkpt lat="42.156702810743006" lon="13.67499028630003"><ele>812.6666666666666</ele><time>2026-05-02T11:06:32Z</time></trkpt><trkpt lat="42.15666323350968" lon="13.675097253377041"><ele>811.0</ele><time>2026-05-02T11:06:34Z</time></trkpt><trkpt lat="42.15661625462987" lon="13.675247343390415"><ele>809.0</ele><time>2026-05-02T11:06:36Z</time></trkpt><trkpt lat="42.15656936802224" lon="13.675405326316234"><ele>807.0</ele><time>2026-05-02T11:06:38Z</time></trkpt><trkpt lat="42.15652009896741" lon="13.675550998617387"><ele>805.0</ele><time>2026-05-02T11:06:40Z</time></trkpt><trkpt lat="42.15648162941943" lon="13.675696433572474"><ele>803.0</ele><time>2026-05-02T11:06:42Z</time></trkpt><trkpt lat="42.15645073102232" lon="13.675830041047696"><ele>805.1666666666667</ele><time>2026-05-02T11:06:44Z</time></trkpt><trkpt lat="42.156412521104066" lon="13.6759202532718"><ele>807.3333333333334</ele><time>2026-05-02T11:06:46Z</time></trkpt><trkpt lat="42.15639737947583" lon="13.676069645480661"><ele>809.5</ele><time>2026-05-02T11:06:48Z</time></trkpt><trkpt lat="42.15638021166119" lon="13.676163131477939"><ele>811.6666666666667</ele><time>2026-05-02T11:06:48.999Z</time></trkpt><trkpt lat="42.15635679398683" lon="13.676256603397862"><ele>813.8333333333334</ele><time>2026-05-02T11:06:49.999Z</time></trkpt><trkpt lat="42.156361328896374" lon="13.676382943385248"><ele>816.0</ele><time>2026-05-02T11:06:50.999Z</time></trkpt><trkpt lat="42.156372273823116" lon="13.676548612408022"><ele>816.0</ele><time>2026-05-02T11:06:51.999Z</time></trkpt><trkpt lat="42.15637643172617" lon="13.676693953443285"><ele>816.0</ele><time>2026-05-02T11:06:52.999Z</time></trkpt><trkpt lat="42.1563819638816" lon="13.676817714128028"><ele>816.0</ele><time>2026-05-02T11:06:53.999Z</time></trkpt><trkpt lat="42.156392034629945" lon="13.676968590133862"><ele>816.0</ele><time>2026-05-02T11:06:54.999Z</time></trkpt><trkpt lat="42.15640319978592" lon="13.677114459462276"><ele>816.0</ele><time>2026-05-02T11:06:55.999Z</time></trkpt><trkpt lat="42.15642467505457" lon="13.677258020740336"><ele>816.0</ele><time>2026-05-02T11:06:56.999Z</time></trkpt><trkpt lat="42.15644150059029" lon="13.67741049862512"><ele>816.0</ele><time>2026-05-02T11:06:57.999Z</time></trkpt><trkpt lat="42.15645715827369" lon="13.677538850723336"><ele>816.0</ele><time>2026-05-02T11:06:58.999Z</time></trkpt><trkpt lat="42.15648230730233" lon="13.677665192540337"><ele>816.0</ele><time>2026-05-02T11:06:59.999Z</time></trkpt><trkpt lat="42.156497879393235" lon="13.677800103862452"><ele>816.0</ele><time>2026-05-02T11:07:00.999Z</time></trkpt><trkpt lat="42.15651022269189" lon="13.677932489644782"><ele>817.3333333333334</ele><time>2026-05-02T11:07:01.999Z</time></trkpt><trkpt lat="42.15649602099909" lon="13.678055396016502"><ele>818.6666666666667</ele><time>2026-05-02T11:07:02.999Z</time></trkpt><trkpt lat="42.15647951922053" lon="13.678170809427886"><ele>820.0</ele><time>2026-05-02T11:07:03.999Z</time></trkpt><trkpt lat="42.1564644785958" lon="13.678283746781293"><ele>821.3333333333334</ele><time>2026-05-02T11:07:04.999Z</time></trkpt><trkpt lat="42.15645511575776" lon="13.678377034145383"><ele>822.6666666666667</ele><time>2026-05-02T11:07:05.999Z</time></trkpt><trkpt lat="42.15645702843731" lon="13.678468002557738"><ele>824.0</ele><time>2026-05-02T11:07:06.999Z</time></trkpt><trkpt lat="42.15645671988239" lon="13.678636482432037"><ele>824.0000000000001</ele><time>2026-05-02T11:07:08.999Z</time></trkpt><trkpt lat="42.15646107471693" lon="13.678726239643547"><ele>824.0</ele><time>2026-05-02T11:07:09.999Z</time></trkpt><trkpt lat="42.15646709180902" lon="13.678819183435927"><ele>824.0</ele><time>2026-05-02T11:07:10.999Z</time></trkpt><trkpt lat="42.15651638659945" lon="13.67896851876492"><ele>824.0</ele><time>2026-05-02T11:07:12.999Z</time></trkpt><trkpt lat="42.15654633137174" lon="13.679045204947673"><ele>824.0000000000001</ele><time>2026-05-02T11:07:13.999Z</time></trkpt><trkpt lat="42.15656652846909" lon="13.679186936973503"><ele>824.0</ele><time>2026-05-02T11:07:15.999Z</time></trkpt><trkpt lat="42.156619660308955" lon="13.679297182489295"><ele>824.0000000000001</ele><time>2026-05-02T11:07:19.999Z</time></trkpt><trkpt lat="42.15659288902889" lon="13.679157959659506"><ele>824.0</ele><time>2026-05-02T11:07:26.999Z</time></trkpt><trkpt lat="42.15656250096299" lon="13.679078643962225"><ele>824.0</ele><time>2026-05-02T11:07:27.999Z</time></trkpt><trkpt lat="42.156532873186976" lon="13.678974075921948"><ele>824.0</ele><time>2026-05-02T11:07:28.999Z</time></trkpt><trkpt lat="42.15650559022563" lon="13.678869155313745"><ele>824.0000000000001</ele><time>2026-05-02T11:07:29.999Z</time></trkpt><trkpt lat="42.156488792987204" lon="13.678758200966316"><ele>824.0</ele><time>2026-05-02T11:07:30.999Z</time></trkpt><trkpt lat="42.156483795845844" lon="13.678638499196017"><ele>824.0000000000001</ele><time>2026-05-02T11:07:31.999Z</time></trkpt><trkpt lat="42.15648324820655" lon="13.678515600018972"><ele>824.0</ele><time>2026-05-02T11:07:32.999Z</time></trkpt><trkpt lat="42.156504720942806" lon="13.678395612920802"><ele>824.0</ele><time>2026-05-02T11:07:33.999Z</time></trkpt><trkpt lat="42.15651316349564" lon="13.678272361564982"><ele>824.0</ele><time>2026-05-02T11:07:34.999Z</time></trkpt><trkpt lat="42.15652810687776" lon="13.678166363380887"><ele>824.0000000000001</ele><time>2026-05-02T11:07:35.999Z</time></trkpt><trkpt lat="42.156552991268654" lon="13.678079454463207"><ele>824.0</ele><time>2026-05-02T11:07:36.999Z</time></trkpt><trkpt lat="42.1565760069725" lon="13.677924406143537"><ele>815.4000000000001</ele><time>2026-05-02T11:07:38.999Z</time></trkpt><trkpt lat="42.15657681899813" lon="13.67782904411933"><ele>806.8</ele><time>2026-05-02T11:07:39.999Z</time></trkpt><trkpt lat="42.156580485123825" lon="13.677663643892023"><ele>798.2</ele><time>2026-05-02T11:07:41.999Z</time></trkpt><trkpt lat="42.15656848207252" lon="13.677517355233075"><ele>789.5999999999999</ele><time>2026-05-02T11:07:43.999Z</time></trkpt><trkpt lat="42.15660047974653" lon="13.67741527884724"><ele>781.0</ele><time>2026-05-02T11:07:45.999Z</time></trkpt><trkpt lat="42.15669416140338" lon="13.677434533144156"><ele>781.0</ele><time>2026-05-02T11:07:48.999Z</time></trkpt><trkpt lat="42.15674622430306" lon="13.677521673818228"><ele>781.0</ele><time>2026-05-02T11:07:49.999Z</time></trkpt><trkpt lat="42.156791965540116" lon="13.677638173915154"><ele>781.0</ele><time>2026-05-02T11:07:50.999Z</time></trkpt><trkpt lat="42.15682741292237" lon="13.677785910722367"><ele>781.0</ele><time>2026-05-02T11:07:51.999Z</time></trkpt><trkpt lat="42.15686115547942" lon="13.677926505958183"><ele>781.0</ele><time>2026-05-02T11:07:52.999Z</time></trkpt><trkpt lat="42.15688932276504" lon="13.678058134551693"><ele>780.25</ele><time>2026-05-02T11:07:53.999Z</time></trkpt><trkpt lat="42.15690439333278" lon="13.67819881692928"><ele>779.5</ele><time>2026-05-02T11:07:54.999Z</time></trkpt><trkpt lat="42.15692739325309" lon="13.678342763995222"><ele>778.75</ele><time>2026-05-02T11:07:55.999Z</time></trkpt><trkpt lat="42.156972810406" lon="13.678494962076398"><ele>778.0</ele><time>2026-05-02T11:07:56.999Z</time></trkpt><trkpt lat="42.1570180742702" lon="13.67865350780532"><ele>778.0</ele><time>2026-05-02T11:07:57.999Z</time></trkpt><trkpt lat="42.15706088438228" lon="13.678817097039753"><ele>778.0</ele><time>2026-05-02T11:07:58.999Z</time></trkpt><trkpt lat="42.15707917693485" lon="13.678971320977388"><ele>778.0</ele><time>2026-05-02T11:07:59.999Z</time></trkpt><trkpt lat="42.15710207990152" lon="13.679104389695189"><ele>778.0</ele><time>2026-05-02T11:08:00.999Z</time></trkpt><trkpt lat="42.15712385044289" lon="13.679217988822984"><ele>778.0</ele><time>2026-05-02T11:08:01.999Z</time></trkpt><trkpt lat="42.15715157769279" lon="13.679314443529114"><ele>777.9999999999999</ele><time>2026-05-02T11:08:02.999Z</time></trkpt><trkpt lat="42.15716979580614" lon="13.679405722105216"><ele>778.0</ele><time>2026-05-02T11:08:03.999Z</time></trkpt><trkpt lat="42.15719119768448" lon="13.679488842735259"><ele>778.0</ele><time>2026-05-02T11:08:04.999Z</time></trkpt><trkpt lat="42.157195828148225" lon="13.679588922928385"><ele>778.0</ele><time>2026-05-02T11:08:05.999Z</time></trkpt><trkpt lat="42.157193139163624" lon="13.679702883916015"><ele>777.9999999999999</ele><time>2026-05-02T11:08:06.999Z</time></trkpt><trkpt lat="42.15717493197038" lon="13.679830643610247"><ele>778.0</ele><time>2026-05-02T11:08:07.999Z</time></trkpt><trkpt lat="42.157155501631756" lon="13.679976069396739"><ele>775.2</ele><time>2026-05-02T11:08:08.999Z</time></trkpt><trkpt lat="42.15714186296622" lon="13.680120971476459"><ele>772.4</ele><time>2026-05-02T11:08:09.999Z</time></trkpt><trkpt lat="42.15711585422601" lon="13.68025461640165"><ele>769.6</ele><time>2026-05-02T11:08:10.999Z</time></trkpt><trkpt lat="42.15708311752887" lon="13.680382256707299"><ele>766.8000000000001</ele><time>2026-05-02T11:08:11.999Z</time></trkpt><trkpt lat="42.15704757217294" lon="13.680507138134073"><ele>764.0</ele><time>2026-05-02T11:08:12.999Z</time></trkpt><trkpt lat="42.156987512911975" lon="13.680612714570012"><ele>760.2</ele><time>2026-05-02T11:08:13.999Z</time></trkpt><trkpt lat="42.15695256987725" lon="13.680733638450379"><ele>756.4000000000001</ele><time>2026-05-02T11:08:14.999Z</time></trkpt><trkpt lat="42.15690261160131" lon="13.680831854336187"><ele>752.6</ele><time>2026-05-02T11:08:15.999Z</time></trkpt><trkpt lat="42.15686012583528" lon="13.680934175128066"><ele>748.8</ele><time>2026-05-02T11:08:16.999Z</time></trkpt><trkpt lat="42.15680731664669" lon="13.681035824578066"><ele>745.0</ele><time>2026-05-02T11:08:17.999Z</time></trkpt><trkpt lat="42.15673807343737" lon="13.681136621349452"><ele>743.8</ele><time>2026-05-02T11:08:18.999Z</time></trkpt><trkpt lat="42.156670229462684" lon="13.681245236198555"><ele>742.6</ele><time>2026-05-02T11:08:19.999Z</time></trkpt><trkpt lat="42.156587069094364" lon="13.681342671337626"><ele>741.4000000000001</ele><time>2026-05-02T11:08:20.999Z</time></trkpt><trkpt lat="42.15649778864388" lon="13.68142317396838"><ele>740.2</ele><time>2026-05-02T11:08:21.999Z</time></trkpt><trkpt lat="42.156411662188894" lon="13.681511554650516"><ele>739.0</ele><time>2026-05-02T11:08:22.999Z</time></trkpt><trkpt lat="42.15632256265393" lon="13.681606490545793"><ele>737.25</ele><time>2026-05-02T11:08:23.999Z</time></trkpt><trkpt lat="42.156222721092234" lon="13.681706115626092"><ele>735.5</ele><time>2026-05-02T11:08:24.999Z</time></trkpt><trkpt lat="42.156114237704365" lon="13.681813876493056"><ele>733.75</ele><time>2026-05-02T11:08:25.999Z</time></trkpt><trkpt lat="42.15600346038205" lon="13.681916591680821"><ele>732.0</ele><time>2026-05-02T11:08:26.999Z</time></trkpt><trkpt lat="42.15589340992504" lon="13.682021399965834"><ele>731.25</ele><time>2026-05-02T11:08:27.999Z</time></trkpt><trkpt lat="42.155783975711614" lon="13.682119414261164"><ele>730.5</ele><time>2026-05-02T11:08:28.999Z</time></trkpt><trkpt lat="42.15567569401972" lon="13.682221551217882"><ele>729.75</ele><time>2026-05-02T11:08:29.999Z</time></trkpt><trkpt lat="42.15557126954587" lon="13.682324591966646"><ele>729.0</ele><time>2026-05-02T11:08:30.999Z</time></trkpt><trkpt lat="42.15546471007645" lon="13.682419086137"><ele>725.5</ele><time>2026-05-02T11:08:31.999Z</time></trkpt><trkpt lat="42.1553602004003" lon="13.682505016681397"><ele>722.0</ele><time>2026-05-02T11:08:32.999Z</time></trkpt><trkpt lat="42.155263199864" lon="13.682596280199869"><ele>718.5</ele><time>2026-05-02T11:08:33.999Z</time></trkpt><trkpt lat="42.15516378702224" lon="13.682682415976677"><ele>715.0</ele><time>2026-05-02T11:08:34.999Z</time></trkpt><trkpt lat="42.15507097304723" lon="13.682774373449432"><ele>715.0</ele><time>2026-05-02T11:08:35.999Z</time></trkpt><trkpt lat="42.15498788033989" lon="13.682866697549816"><ele>715.0</ele><time>2026-05-02T11:08:36.999Z</time></trkpt><trkpt lat="42.15490225278238" lon="13.682954104963645"><ele>715.0</ele><time>2026-05-02T11:08:37.999Z</time></trkpt><trkpt lat="42.15481822694832" lon="13.683057826856244"><ele>715.0</ele><time>2026-05-02T11:08:38.999Z</time></trkpt><trkpt lat="42.15473553624043" lon="13.683167344439164"><ele>715.0</ele><time>2026-05-02T11:08:39.999Z</time></trkpt><trkpt lat="42.15465507910034" lon="13.683273017094"><ele>712.8</ele><time>2026-05-02T11:08:40.999Z</time></trkpt><trkpt lat="42.1545730390558" lon="13.68335874649205"><ele>710.6</ele><time>2026-05-02T11:08:41.999Z</time></trkpt><trkpt lat="42.15450305049489" lon="13.683419995418907"><ele>708.4000000000001</ele><time>2026-05-02T11:08:42.999Z</time></trkpt><trkpt lat="42.1544376568949" lon="13.68344585800266"><ele>706.2</ele><time>2026-05-02T11:08:43.999Z</time></trkpt><trkpt lat="42.15434056992253" lon="13.683506402258601"><ele>704.0</ele><time>2026-05-02T11:08:45.999Z</time></trkpt><trkpt lat="42.15422960859783" lon="13.683511864802746"><ele>704.0</ele><time>2026-05-02T11:08:47.999Z</time></trkpt><trkpt lat="42.15413502566294" lon="13.683596542605136"><ele>704.0</ele><time>2026-05-02T11:08:49.999Z</time></trkpt><trkpt lat="42.15406695753172" lon="13.683712919700318"><ele>704.0</ele><time>2026-05-02T11:08:51.999Z</time></trkpt><trkpt lat="42.15404241475389" lon="13.683805124451178"><ele>704.0</ele><time>2026-05-02T11:08:53.999Z</time></trkpt><trkpt lat="42.1540544540719" lon="13.683917068913916"><ele>704.0</ele><time>2026-05-02T11:08:56.999Z</time></trkpt><trkpt lat="42.1540838155461" lon="13.683992994701914"><ele>704.0</ele><time>2026-05-02T11:08:57.999Z</time></trkpt><trkpt lat="42.154135283162844" lon="13.68406591461878"><ele>702.8000000000001</ele><time>2026-05-02T11:08:58.999Z</time></trkpt><trkpt lat="42.15417985196981" lon="13.684157441978028"><ele>701.6</ele><time>2026-05-02T11:08:59.999Z</time></trkpt><trkpt lat="42.15421937576968" lon="13.684250258111128"><ele>700.4</ele><time>2026-05-02T11:09:00.999Z</time></trkpt><trkpt lat="42.15423098834544" lon="13.684363784487626"><ele>699.2</ele><time>2026-05-02T11:09:01.999Z</time></trkpt><trkpt lat="42.15424776470062" lon="13.684548681131313"><ele>698.0</ele><time>2026-05-02T11:09:02.999Z</time></trkpt><trkpt lat="42.154210390255216" lon="13.684740137587312"><ele>698.3333333333333</ele><time>2026-05-02T11:09:03.999Z</time></trkpt><trkpt lat="42.15416428915642" lon="13.684936051810297"><ele>698.6666666666666</ele><time>2026-05-02T11:09:04.999Z</time></trkpt><trkpt lat="42.154128957349705" lon="13.685152126193488"><ele>699.0</ele><time>2026-05-02T11:09:05.999Z</time></trkpt><trkpt lat="42.15408574995229" lon="13.685362554527343"><ele>697.5</ele><time>2026-05-02T11:09:06.999Z</time></trkpt><trkpt lat="42.15401728973247" lon="13.685513279525782"><ele>696.0</ele><time>2026-05-02T11:09:07.999Z</time></trkpt><trkpt lat="42.1539007940866" lon="13.685656423970457"><ele>694.5</ele><time>2026-05-02T11:09:08.999Z</time></trkpt><trkpt lat="42.15383048601629" lon="13.685802942749879"><ele>693.0</ele><time>2026-05-02T11:09:09.999Z</time></trkpt><trkpt lat="42.15376912203815" lon="13.685936192874234"><ele>693.0</ele><time>2026-05-02T11:09:10.999Z</time></trkpt><trkpt lat="42.15372860927007" lon="13.686059661880536"><ele>693.0</ele><time>2026-05-02T11:09:11.999Z</time></trkpt><trkpt lat="42.15369312342448" lon="13.686168805540582"><ele>693.0</ele><time>2026-05-02T11:09:12.999Z</time></trkpt><trkpt lat="42.1536687389662" lon="13.686295628119476"><ele>693.0</ele><time>2026-05-02T11:09:14.998Z</time></trkpt><trkpt lat="42.15361116854411" lon="13.686422752581715"><ele>693.0</ele><time>2026-05-02T11:09:20.998Z</time></trkpt><trkpt lat="42.15360388644032" lon="13.686511191071832"><ele>690.8</ele><time>2026-05-02T11:09:21.998Z</time></trkpt><trkpt lat="42.15358185907937" lon="13.68662350046777"><ele>688.5999999999999</ele><time>2026-05-02T11:09:22.998Z</time></trkpt><trkpt lat="42.15355624730625" lon="13.68675434540766"><ele>686.4000000000001</ele><time>2026-05-02T11:09:23.998Z</time></trkpt><trkpt lat="42.1535300727272" lon="13.686878874823963"><ele>684.2</ele><time>2026-05-02T11:09:24.998Z</time></trkpt><trkpt lat="42.153494955835285" lon="13.687033700664278"><ele>682.0</ele><time>2026-05-02T11:09:25.998Z</time></trkpt><trkpt lat="42.15346721318556" lon="13.68714114041362"><ele>680.8333333333334</ele><time>2026-05-02T11:09:26.998Z</time></trkpt><trkpt lat="42.153456591412684" lon="13.687275583567308"><ele>679.6666666666667</ele><time>2026-05-02T11:09:27.998Z</time></trkpt><trkpt lat="42.15344430045833" lon="13.687390124970705"><ele>678.5</ele><time>2026-05-02T11:09:28.998Z</time></trkpt><trkpt lat="42.15342781597624" lon="13.687505412541315"><ele>677.3333333333334</ele><time>2026-05-02T11:09:29.998Z</time></trkpt><trkpt lat="42.15340408189218" lon="13.68759994624814"><ele>676.1666666666666</ele><time>2026-05-02T11:09:30.998Z</time></trkpt><trkpt lat="42.15333918235868" lon="13.68766520185435"><ele>675.0</ele><time>2026-05-02T11:09:32.998Z</time></trkpt><trkpt lat="42.153215106776365" lon="13.687683134948331"><ele>675.0</ele><time>2026-05-02T11:09:34.998Z</time></trkpt><trkpt lat="42.153150963725764" lon="13.687692770932237"><ele>675.0</ele><time>2026-05-02T11:09:35.998Z</time></trkpt><trkpt lat="42.15308188752043" lon="13.687719010664049"><ele>675.0</ele><time>2026-05-02T11:09:36.998Z</time></trkpt><trkpt lat="42.15301317354204" lon="13.687768480650707"><ele>675.0</ele><time>2026-05-02T11:09:37.998Z</time></trkpt><trkpt lat="42.152935008476824" lon="13.687831858566236"><ele>675.0</ele><time>2026-05-02T11:09:38.998Z</time></trkpt><trkpt lat="42.15284821559852" lon="13.687885946287786"><ele>675.0</ele><time>2026-05-02T11:09:39.998Z</time></trkpt><trkpt lat="42.15275763607468" lon="13.687929999686858"><ele>673.4</ele><time>2026-05-02T11:09:40.998Z</time></trkpt><trkpt lat="42.15265024352751" lon="13.687979663845365"><ele>671.8</ele><time>2026-05-02T11:09:41.998Z</time></trkpt><trkpt lat="42.15256728274295" lon="13.688024850253905"><ele>670.2</ele><time>2026-05-02T11:09:42.998Z</time></trkpt><trkpt lat="42.15251236659662" lon="13.688104734466046"><ele>668.6</ele><time>2026-05-02T11:09:43.998Z</time></trkpt><trkpt lat="42.152470367302996" lon="13.688210316726282"><ele>667.0</ele><time>2026-05-02T11:09:44.998Z</time></trkpt><trkpt lat="42.15244067949518" lon="13.688322725032197"><ele>667.0</ele><time>2026-05-02T11:09:45.998Z</time></trkpt><trkpt lat="42.15239148456669" lon="13.688431552217917"><ele>667.0</ele><time>2026-05-02T11:09:46.998Z</time></trkpt><trkpt lat="42.15234046546438" lon="13.688540000277062"><ele>667.0</ele><time>2026-05-02T11:09:47.998Z</time></trkpt><trkpt lat="42.15227369559851" lon="13.688646464843178"><ele>667.0</ele><time>2026-05-02T11:09:48.998Z</time></trkpt><trkpt lat="42.152212299630904" lon="13.688745637567141"><ele>667.0</ele><time>2026-05-02T11:09:49.998Z</time></trkpt><trkpt lat="42.15214924222044" lon="13.688825122971723"><ele>666.2</ele><time>2026-05-02T11:09:50.998Z</time></trkpt><trkpt lat="42.152076218212706" lon="13.688851021945034"><ele>665.4000000000001</ele><time>2026-05-02T11:09:51.998Z</time></trkpt><trkpt lat="42.15199295266912" lon="13.688925201122972"><ele>664.5999999999999</ele><time>2026-05-02T11:09:52.998Z</time></trkpt><trkpt lat="42.151891035646265" lon="13.689004231896273"><ele>663.8</ele><time>2026-05-02T11:09:53.998Z</time></trkpt><trkpt lat="42.151788939903255" lon="13.689083964662698"><ele>663.0</ele><time>2026-05-02T11:09:54.998Z</time></trkpt><trkpt lat="42.151694734085915" lon="13.689158611862165"><ele>663.0</ele><time>2026-05-02T11:09:55.998Z</time></trkpt><trkpt lat="42.15160235382978" lon="13.689224095550546"><ele>663.0</ele><time>2026-05-02T11:09:56.998Z</time></trkpt><trkpt lat="42.151519321736245" lon="13.689265525690018"><ele>663.0</ele><time>2026-05-02T11:09:57.998Z</time></trkpt><trkpt lat="42.151439484778244" lon="13.689317243548615"><ele>663.0</ele><time>2026-05-02T11:09:58.998Z</time></trkpt><trkpt lat="42.15135736427399" lon="13.6893644496073"><ele>663.0</ele><time>2026-05-02T11:09:59.998Z</time></trkpt><trkpt lat="42.15129087052797" lon="13.689419961331689"><ele>663.0</ele><time>2026-05-02T11:10:00.998Z</time></trkpt><trkpt lat="42.15123753759199" lon="13.689473696768433"><ele>662.6666666666666</ele><time>2026-05-02T11:10:01.998Z</time></trkpt><trkpt lat="42.151140093198165" lon="13.689517192124567"><ele>662.3333333333334</ele><time>2026-05-02T11:10:03.998Z</time></trkpt><trkpt lat="42.15112345014605" lon="13.689611722289492"><ele>662.0</ele><time>2026-05-02T11:10:04.998Z</time></trkpt><trkpt lat="42.15111677458684" lon="13.689723727309762"><ele>661.6666666666667</ele><time>2026-05-02T11:10:05.998Z</time></trkpt><trkpt lat="42.15109790780131" lon="13.689834254635821"><ele>661.3333333333334</ele><time>2026-05-02T11:10:06.998Z</time></trkpt><trkpt lat="42.15107580524632" lon="13.689959958279415"><ele>661.0</ele><time>2026-05-02T11:10:07.998Z</time></trkpt><trkpt lat="42.151036188858406" lon="13.69009469610345"><ele>661.0</ele><time>2026-05-02T11:10:08.998Z</time></trkpt><trkpt lat="42.151010972784604" lon="13.690203531210745"><ele>661.0</ele><time>2026-05-02T11:10:09.998Z</time></trkpt><trkpt lat="42.15098200378771" lon="13.69033104114305"><ele>661.0</ele><time>2026-05-02T11:10:10.998Z</time></trkpt><trkpt lat="42.15094130290646" lon="13.690459457070098"><ele>661.0</ele><time>2026-05-02T11:10:11.998Z</time></trkpt><trkpt lat="42.15089809922226" lon="13.690611435311586"><ele>661.0</ele><time>2026-05-02T11:10:12.998Z</time></trkpt><trkpt lat="42.150842242535596" lon="13.690769970875674"><ele>661.25</ele><time>2026-05-02T11:10:13.998Z</time></trkpt><trkpt lat="42.15078541726365" lon="13.690923723445929"><ele>661.5</ele><time>2026-05-02T11:10:14.998Z</time></trkpt><trkpt lat="42.150724907410364" lon="13.69107192407258"><ele>661.75</ele><time>2026-05-02T11:10:15.998Z</time></trkpt><trkpt lat="42.15068046254229" lon="13.691234838093202"><ele>662.0</ele><time>2026-05-02T11:10:16.998Z</time></trkpt><trkpt lat="42.15064533210928" lon="13.691396330935854"><ele>661.6</ele><time>2026-05-02T11:10:17.998Z</time></trkpt><trkpt lat="42.150595580706806" lon="13.691522194587002"><ele>661.2</ele><time>2026-05-02T11:10:18.998Z</time></trkpt><trkpt lat="42.150545518704654" lon="13.691635569140432"><ele>660.8</ele><time>2026-05-02T11:10:19.998Z</time></trkpt><trkpt lat="42.15051271751641" lon="13.691734685846638"><ele>660.4</ele><time>2026-05-02T11:10:20.998Z</time></trkpt><trkpt lat="42.15047603330851" lon="13.69186025274507"><ele>660.0</ele><time>2026-05-02T11:10:21.998Z</time></trkpt><trkpt lat="42.150446721587016" lon="13.691995777962516"><ele>660.0</ele><time>2026-05-02T11:10:22.998Z</time></trkpt><trkpt lat="42.150399503040354" lon="13.69208412503838"><ele>660.0</ele><time>2026-05-02T11:10:23.998Z</time></trkpt><trkpt lat="42.15036740579863" lon="13.692169614750123"><ele>660.0</ele><time>2026-05-02T11:10:24.998Z</time></trkpt><trkpt lat="42.15035243762847" lon="13.69225802511143"><ele>660.0</ele><time>2026-05-02T11:10:25.998Z</time></trkpt><trkpt lat="42.150317204351175" lon="13.692362489640852"><ele>660.0</ele><time>2026-05-02T11:10:26.998Z</time></trkpt><trkpt lat="42.15027738431546" lon="13.692449737211705"><ele>660.0</ele><time>2026-05-02T11:10:27.998Z</time></trkpt><trkpt lat="42.15019757702248" lon="13.692583852856883"><ele>660.0</ele><time>2026-05-02T11:10:29.998Z</time></trkpt><trkpt lat="42.15012526456479" lon="13.692611878058239"><ele>660.0</ele><time>2026-05-02T11:10:30.998Z</time></trkpt><trkpt lat="42.15005887032954" lon="13.692669793356178"><ele>660.0</ele><time>2026-05-02T11:10:31.998Z</time></trkpt><trkpt lat="42.149990487558114" lon="13.692692529890156"><ele>660.0</ele><time>2026-05-02T11:10:32.998Z</time></trkpt><trkpt lat="42.149907098120565" lon="13.692827107067027"><ele>660.0</ele><time>2026-05-02T11:10:34.998Z</time></trkpt><trkpt lat="42.14984248032319" lon="13.692960052497943"><ele>657.5</ele><time>2026-05-02T11:10:35.998Z</time></trkpt><trkpt lat="42.14977552222226" lon="13.693121567070966"><ele>655.0</ele><time>2026-05-02T11:10:36.998Z</time></trkpt><trkpt lat="42.14970413766655" lon="13.693291567368915"><ele>652.5</ele><time>2026-05-02T11:10:37.998Z</time></trkpt><trkpt lat="42.1496349581673" lon="13.693436846944024"><ele>650.0</ele><time>2026-05-02T11:10:38.998Z</time></trkpt><trkpt lat="42.1495695629474" lon="13.693609641552312"><ele>650.0</ele><time>2026-05-02T11:10:39.998Z</time></trkpt><trkpt lat="42.14950965430276" lon="13.693722446762784"><ele>650.0</ele><time>2026-05-02T11:10:40.998Z</time></trkpt><trkpt lat="42.14944525067416" lon="13.69383937061848"><ele>650.0</ele><time>2026-05-02T11:10:41.998Z</time></trkpt><trkpt lat="42.1493861013266" lon="13.693967796883486"><ele>650.0</ele><time>2026-05-02T11:10:42.998Z</time></trkpt><trkpt lat="42.14930917264703" lon="13.694061191413665"><ele>650.0</ele><time>2026-05-02T11:10:43.998Z</time></trkpt><trkpt lat="42.14927382556761" lon="13.694185724744848"><ele>650.0</ele><time>2026-05-02T11:10:44.998Z</time></trkpt><trkpt lat="42.14921215392065" lon="13.69425930408786"><ele>650.0</ele><time>2026-05-02T11:10:45.998Z</time></trkpt><trkpt lat="42.14916863938335" lon="13.694346085581763"><ele>650.0</ele><time>2026-05-02T11:10:46.998Z</time></trkpt><trkpt lat="42.149117042200736" lon="13.69442147599751"><ele>650.0</ele><time>2026-05-02T11:10:47.998Z</time></trkpt><trkpt lat="42.14905535706537" lon="13.694524447411347"><ele>650.0</ele><time>2026-05-02T11:10:48.998Z</time></trkpt><trkpt lat="42.14899293920557" lon="13.694653886794862"><ele>650.0</ele><time>2026-05-02T11:10:49.998Z</time></trkpt><trkpt lat="42.14893414397015" lon="13.694743906856358"><ele>650.0</ele><time>2026-05-02T11:10:50.998Z</time></trkpt><trkpt lat="42.1488804610832" lon="13.694847896248552"><ele>650.0</ele><time>2026-05-02T11:10:51.998Z</time></trkpt><trkpt lat="42.148812589367814" lon="13.69490200249141"><ele>650.0</ele><time>2026-05-02T11:10:52.998Z</time></trkpt><trkpt lat="42.14874147306722" lon="13.694949854690837"><ele>650.0</ele><time>2026-05-02T11:10:53.998Z</time></trkpt><trkpt lat="42.14866096348069" lon="13.694987882295244"><ele>650.0</ele><time>2026-05-02T11:10:54.998Z</time></trkpt><trkpt lat="42.148589851702276" lon="13.695031867641278"><ele>650.0</ele><time>2026-05-02T11:10:55.998Z</time></trkpt><trkpt lat="42.148507106880984" lon="13.695192980064753"><ele>650.3333333333333</ele><time>2026-05-02T11:10:57.998Z</time></trkpt><trkpt lat="42.14845910376044" lon="13.695272392629567"><ele>650.6666666666666</ele><time>2026-05-02T11:10:58.998Z</time></trkpt><trkpt lat="42.14842132443309" lon="13.695391725536862"><ele>651.0</ele><time>2026-05-02T11:10:59.998Z</time></trkpt><trkpt lat="42.148370923667635" lon="13.695494910639388"><ele>651.3333333333334</ele><time>2026-05-02T11:11:00.998Z</time></trkpt><trkpt lat="42.14831995240386" lon="13.69558042765408"><ele>651.6666666666667</ele><time>2026-05-02T11:11:01.998Z</time></trkpt><trkpt lat="42.14827205359235" lon="13.695672804714528"><ele>652.0</ele><time>2026-05-02T11:11:02.998Z</time></trkpt><trkpt lat="42.14821384721319" lon="13.695710031152231"><ele>651.5</ele><time>2026-05-02T11:11:03.998Z</time></trkpt><trkpt lat="42.148098260928" lon="13.695775581270865"><ele>651.0</ele><time>2026-05-02T11:11:05.998Z</time></trkpt><trkpt lat="42.14802347343094" lon="13.695773176568249"><ele>650.5</ele><time>2026-05-02T11:11:06.998Z</time></trkpt><trkpt lat="42.14794981838409" lon="13.695808798331491"><ele>650.0</ele><time>2026-05-02T11:11:07.998Z</time></trkpt><trkpt lat="42.14786769879103" lon="13.695821749818244"><ele>649.5</ele><time>2026-05-02T11:11:08.998Z</time></trkpt><trkpt lat="42.147785195614574" lon="13.695830079713836"><ele>649.0</ele><time>2026-05-02T11:11:09.998Z</time></trkpt><trkpt lat="42.147703244412426" lon="13.695812170882519"><ele>649.0</ele><time>2026-05-02T11:11:10.998Z</time></trkpt><trkpt lat="42.14761852917184" lon="13.695800940398396"><ele>649.0</ele><time>2026-05-02T11:11:11.998Z</time></trkpt><trkpt lat="42.147529684159224" lon="13.695801583737865"><ele>649.0</ele><time>2026-05-02T11:11:12.998Z</time></trkpt><trkpt lat="42.1474474501391" lon="13.695810786220157"><ele>649.0</ele><time>2026-05-02T11:11:13.998Z</time></trkpt><trkpt lat="42.147331862477856" lon="13.6958318435544"><ele>649.0</ele><time>2026-05-02T11:11:15.998Z</time></trkpt><trkpt lat="42.1472466302416" lon="13.695813398687024"><ele>648.0</ele><time>2026-05-02T11:11:17.998Z</time></trkpt><trkpt lat="42.147151088085174" lon="13.695785190682162"><ele>647.0</ele><time>2026-05-02T11:11:19.998Z</time></trkpt><trkpt lat="42.147045312873544" lon="13.695744943523035"><ele>646.0</ele><time>2026-05-02T11:11:21.998Z</time></trkpt><trkpt lat="42.14693778455685" lon="13.695710740838267"><ele>645.0</ele><time>2026-05-02T11:11:23.998Z</time></trkpt><trkpt lat="42.14683687477352" lon="13.695660098694134"><ele>644.0</ele><time>2026-05-02T11:11:25.998Z</time></trkpt><trkpt lat="42.14674285627704" lon="13.695626548021487"><ele>644.0</ele><time>2026-05-02T11:11:27.998Z</time></trkpt><trkpt lat="42.14664367617676" lon="13.695592730066075"><ele>644.0</ele><time>2026-05-02T11:11:29.998Z</time></trkpt><trkpt lat="42.14653029178268" lon="13.695571094151344"><ele>644.0</ele><time>2026-05-02T11:11:31.998Z</time></trkpt><trkpt lat="42.14646336800857" lon="13.695564662577361"><ele>644.0</ele><time>2026-05-02T11:11:32.998Z</time></trkpt><trkpt lat="42.146382277551446" lon="13.695565639091107"><ele>644.0</ele><time>2026-05-02T11:11:33.998Z</time></trkpt><trkpt lat="42.14628969529264" lon="13.695581606671674"><ele>641.6</ele><time>2026-05-02T11:11:34.998Z</time></trkpt><trkpt lat="42.14619620770584" lon="13.695603713195915"><ele>639.2</ele><time>2026-05-02T11:11:35.998Z</time></trkpt><trkpt lat="42.14610332793303" lon="13.69563607836699"><ele>636.8000000000001</ele><time>2026-05-02T11:11:36.997Z</time></trkpt><trkpt lat="42.146010285587494" lon="13.69566947927264"><ele>634.4000000000001</ele><time>2026-05-02T11:11:37.997Z</time></trkpt><trkpt lat="42.145918563185006" lon="13.695704796571574"><ele>632.0</ele><time>2026-05-02T11:11:38.997Z</time></trkpt><trkpt lat="42.14582338818056" lon="13.69574131455631"><ele>632.0</ele><time>2026-05-02T11:11:39.997Z</time></trkpt><trkpt lat="42.14572476702481" lon="13.695781608306453"><ele>632.0</ele><time>2026-05-02T11:11:40.997Z</time></trkpt><trkpt lat="42.145625361036736" lon="13.695826401707206"><ele>632.0</ele><time>2026-05-02T11:11:41.997Z</time></trkpt><trkpt lat="42.14552300112769" lon="13.695864687960611"><ele>632.0</ele><time>2026-05-02T11:11:42.997Z</time></trkpt><trkpt lat="42.145417522171094" lon="13.695891482352826"><ele>632.0</ele><time>2026-05-02T11:11:43.997Z</time></trkpt><trkpt lat="42.145311145681916" lon="13.695911559112828"><ele>629.0</ele><time>2026-05-02T11:11:44.997Z</time></trkpt><trkpt lat="42.14520465062675" lon="13.69592213142318"><ele>626.0</ele><time>2026-05-02T11:11:45.997Z</time></trkpt><trkpt lat="42.145100225740364" lon="13.695934374855275"><ele>623.0</ele><time>2026-05-02T11:11:46.997Z</time></trkpt><trkpt lat="42.1450010451436" lon="13.695948125058784"><ele>620.0</ele><time>2026-05-02T11:11:47.997Z</time></trkpt><trkpt lat="42.14490803894058" lon="13.695966087018627"><ele>617.0</ele><time>2026-05-02T11:11:48.997Z</time></trkpt><trkpt lat="42.14482057016413" lon="13.69598055775062"><ele>615.6666666666666</ele><time>2026-05-02T11:11:49.997Z</time></trkpt><trkpt lat="42.144738808917275" lon="13.69600249242737"><ele>614.3333333333333</ele><time>2026-05-02T11:11:50.997Z</time></trkpt><trkpt lat="42.14466165259946" lon="13.696030578496666"><ele>613.0</ele><time>2026-05-02T11:11:51.997Z</time></trkpt><trkpt lat="42.14458653936561" lon="13.69607162633688"><ele>611.6666666666666</ele><time>2026-05-02T11:11:52.997Z</time></trkpt><trkpt lat="42.14450554130662" lon="13.69613132512244"><ele>610.3333333333334</ele><time>2026-05-02T11:11:53.997Z</time></trkpt><trkpt lat="42.14441545184478" lon="13.69620833637805"><ele>609.0</ele><time>2026-05-02T11:11:54.997Z</time></trkpt><trkpt lat="42.14432024651315" lon="13.696291709166445"><ele>609.0</ele><time>2026-05-02T11:11:55.997Z</time></trkpt><trkpt lat="42.144222230649156" lon="13.696369926555453"><ele>609.0</ele><time>2026-05-02T11:11:56.997Z</time></trkpt><trkpt lat="42.14412013262389" lon="13.696439494027302"><ele>609.0</ele><time>2026-05-02T11:11:57.997Z</time></trkpt><trkpt lat="42.144014229180875" lon="13.696500845735866"><ele>609.0</ele><time>2026-05-02T11:11:58.997Z</time></trkpt><trkpt lat="42.143907310317125" lon="13.696558623361602"><ele>606.25</ele><time>2026-05-02T11:11:59.997Z</time></trkpt><trkpt lat="42.14380064992826" lon="13.696626433768166"><ele>603.5</ele><time>2026-05-02T11:12:00.997Z</time></trkpt><trkpt lat="42.1436981679761" lon="13.696702755350426"><ele>600.75</ele><time>2026-05-02T11:12:01.997Z</time></trkpt><trkpt lat="42.14359723553257" lon="13.696783285789643"><ele>598.0</ele><time>2026-05-02T11:12:02.997Z</time></trkpt><trkpt lat="42.14349708293876" lon="13.696863289998301"><ele>597.25</ele><time>2026-05-02T11:12:03.997Z</time></trkpt><trkpt lat="42.143398640765774" lon="13.696951644865285"><ele>596.5</ele><time>2026-05-02T11:12:04.997Z</time></trkpt><trkpt lat="42.14329974933394" lon="13.69703163247379"><ele>595.75</ele><time>2026-05-02T11:12:05.997Z</time></trkpt><trkpt lat="42.14320087955687" lon="13.697107125870389"><ele>595.0</ele><time>2026-05-02T11:12:06.997Z</time></trkpt><trkpt lat="42.14310197249966" lon="13.69717977619074"><ele>594.0</ele><time>2026-05-02T11:12:07.997Z</time></trkpt><trkpt lat="42.14300406924074" lon="13.697253030591607"><ele>593.0</ele><time>2026-05-02T11:12:08.997Z</time></trkpt><trkpt lat="42.142908949203324" lon="13.697321044165696"><ele>592.0</ele><time>2026-05-02T11:12:09.997Z</time></trkpt><trkpt lat="42.14281376020345" lon="13.697387291606082"><ele>591.0</ele><time>2026-05-02T11:12:10.997Z</time></trkpt><trkpt lat="42.14271581262576" lon="13.697456695768272"><ele>590.0</ele><time>2026-05-02T11:12:11.997Z</time></trkpt><trkpt lat="42.142617183397974" lon="13.697512707252654"><ele>590.0</ele><time>2026-05-02T11:12:12.997Z</time></trkpt><trkpt lat="42.14251501608728" lon="13.697567208288747"><ele>590.0</ele><time>2026-05-02T11:12:13.996Z</time></trkpt><trkpt lat="42.14241407366416" lon="13.69761032239968"><ele>590.0</ele><time>2026-05-02T11:12:14.996Z</time></trkpt><trkpt lat="42.14230905078047" lon="13.697637746324721"><ele>590.0</ele><time>2026-05-02T11:12:15.996Z</time></trkpt><trkpt lat="42.142200775622975" lon="13.697657256026297"><ele>590.0</ele><time>2026-05-02T11:12:16.996Z</time></trkpt><trkpt lat="42.14210196492827" lon="13.697668319164249"><ele>587.6666666666666</ele><time>2026-05-02T11:12:17.996Z</time></trkpt><trkpt lat="42.142012681230554" lon="13.697663771835177"><ele>585.3333333333333</ele><time>2026-05-02T11:12:18.996Z</time></trkpt><trkpt lat="42.14193533519344" lon="13.697647250851512"><ele>583.0</ele><time>2026-05-02T11:12:19.996Z</time></trkpt><trkpt lat="42.14186739892243" lon="13.697627016039904"><ele>580.6666666666666</ele><time>2026-05-02T11:12:20.996Z</time></trkpt><trkpt lat="42.141793909236156" lon="13.69760983213941"><ele>578.3333333333334</ele><time>2026-05-02T11:12:21.996Z</time></trkpt><trkpt lat="42.14172905814464" lon="13.697592694046117"><ele>576.0</ele><time>2026-05-02T11:12:22.996Z</time></trkpt><trkpt lat="42.141591911760266" lon="13.697525308314377"><ele>574.1666666666666</ele><time>2026-05-02T11:12:24.996Z</time></trkpt><trkpt lat="42.14152404177837" lon="13.697486414776659"><ele>572.3333333333334</ele><time>2026-05-02T11:12:25.996Z</time></trkpt><trkpt lat="42.14144598054607" lon="13.697440672470659"><ele>570.5</ele><time>2026-05-02T11:12:26.996Z</time></trkpt><trkpt lat="42.14137680859372" lon="13.6973861060906"><ele>568.6666666666667</ele><time>2026-05-02T11:12:27.996Z</time></trkpt><trkpt lat="42.14130864826424" lon="13.697321120517323"><ele>566.8333333333334</ele><time>2026-05-02T11:12:28.996Z</time></trkpt><trkpt lat="42.14125797683458" lon="13.697258624008528"><ele>565.0</ele><time>2026-05-02T11:12:29.996Z</time></trkpt><trkpt lat="42.14120280428323" lon="13.697144116642344"><ele>565.0</ele><time>2026-05-02T11:12:31.996Z</time></trkpt><trkpt lat="42.141142975554686" lon="13.697105876151634"><ele>565.0</ele><time>2026-05-02T11:12:33.996Z</time></trkpt><trkpt lat="42.14108581045143" lon="13.697210019304016"><ele>565.0</ele><time>2026-05-02T11:12:36.996Z</time></trkpt><trkpt lat="42.1410452321283" lon="13.697331446342911"><ele>565.0</ele><time>2026-05-02T11:12:38.996Z</time></trkpt><trkpt lat="42.14097457706783" lon="13.69745602849469"><ele>565.0</ele><time>2026-05-02T11:12:40.996Z</time></trkpt><trkpt lat="42.1409298072128" lon="13.697595557359216"><ele>565.0</ele><time>2026-05-02T11:12:42.996Z</time></trkpt><trkpt lat="42.140887883878506" lon="13.697688003478726"><ele>565.0</ele><time>2026-05-02T11:12:44.996Z</time></trkpt><trkpt lat="42.14077330273787" lon="13.697694891560252"><ele>565.0</ele><time>2026-05-02T11:12:46.996Z</time></trkpt><trkpt lat="42.14067956658969" lon="13.697600894469332"><ele>565.0</ele><time>2026-05-02T11:12:48.996Z</time></trkpt><trkpt lat="42.14062508408436" lon="13.69752712469816"><ele>565.0</ele><time>2026-05-02T11:12:49.996Z</time></trkpt><trkpt lat="42.14057955678898" lon="13.697445649929186"><ele>565.3333333333334</ele><time>2026-05-02T11:12:50.996Z</time></trkpt><trkpt lat="42.14053138215484" lon="13.697368613728113"><ele>565.6666666666667</ele><time>2026-05-02T11:12:51.996Z</time></trkpt><trkpt lat="42.14048107805426" lon="13.69729507591089"><ele>566.0</ele><time>2026-05-02T11:12:52.996Z</time></trkpt><trkpt lat="42.14042377669832" lon="13.697223946366881"><ele>566.3333333333334</ele><time>2026-05-02T11:12:53.996Z</time></trkpt><trkpt lat="42.14035796293905" lon="13.697173962034718"><ele>566.6666666666666</ele><time>2026-05-02T11:12:54.996Z</time></trkpt><trkpt lat="42.140285606373524" lon="13.697099507326243"><ele>567.0</ele><time>2026-05-02T11:12:55.996Z</time></trkpt><trkpt lat="42.14021891585596" lon="13.697047137891058"><ele>567.0</ele><time>2026-05-02T11:12:56.996Z</time></trkpt><trkpt lat="42.14012042350484" lon="13.697050721699707"><ele>567.0</ele><time>2026-05-02T11:12:58.996Z</time></trkpt><trkpt lat="42.1400098631247" lon="13.697078844450889"><ele>567.0</ele><time>2026-05-02T11:13:00.996Z</time></trkpt><trkpt lat="42.13993532983892" lon="13.697114255369158"><ele>567.0</ele><time>2026-05-02T11:13:01.996Z</time></trkpt><trkpt lat="42.139869518643174" lon="13.697124668679283"><ele>567.0</ele><time>2026-05-02T11:13:03Z</time></trkpt><trkpt lat="42.139777501232906" lon="13.697123210175759"><ele>567.0</ele><time>2026-05-02T11:13:05Z</time></trkpt><trkpt lat="42.1397092449902" lon="13.69710279392718"><ele>568.1666666666666</ele><time>2026-05-02T11:13:06Z</time></trkpt><trkpt lat="42.13963126121396" lon="13.697090973254635"><ele>569.3333333333334</ele><time>2026-05-02T11:13:07Z</time></trkpt><trkpt lat="42.13956177652036" lon="13.697087421406545"><ele>570.5</ele><time>2026-05-02T11:13:08Z</time></trkpt><trkpt lat="42.139425124923996" lon="13.697101102893004"><ele>571.6666666666667</ele><time>2026-05-02T11:13:10Z</time></trkpt><trkpt lat="42.13936188051925" lon="13.697108001517847"><ele>572.8333333333334</ele><time>2026-05-02T11:13:11Z</time></trkpt><trkpt lat="42.13927321847185" lon="13.697105305235537"><ele>574.0</ele><time>2026-05-02T11:13:12Z</time></trkpt><trkpt lat="42.13920010639867" lon="13.697071528006228"><ele>574.0</ele><time>2026-05-02T11:13:13Z</time></trkpt><trkpt lat="42.139127857798385" lon="13.69707707213029"><ele>574.0</ele><time>2026-05-02T11:13:14Z</time></trkpt><trkpt lat="42.13905096481399" lon="13.69705464807333"><ele>574.0</ele><time>2026-05-02T11:13:15Z</time></trkpt><trkpt lat="42.1389707338465" lon="13.697007956069905"><ele>574.0</ele><time>2026-05-02T11:13:16Z</time></trkpt><trkpt lat="42.1389049903018" lon="13.696945654577444"><ele>574.0</ele><time>2026-05-02T11:13:17Z</time></trkpt><trkpt lat="42.13884130313125" lon="13.696878108966034"><ele>574.0</ele><time>2026-05-02T11:13:18Z</time></trkpt><trkpt lat="42.13878796509336" lon="13.696820524545915"><ele>576.2</ele><time>2026-05-02T11:13:19Z</time></trkpt><trkpt lat="42.13871538947279" lon="13.696782125475107"><ele>578.4</ele><time>2026-05-02T11:13:20Z</time></trkpt><trkpt lat="42.138625404398894" lon="13.696743679671068"><ele>580.6</ele><time>2026-05-02T11:13:21Z</time></trkpt><trkpt lat="42.1385356208988" lon="13.696710970117383"><ele>582.8</ele><time>2026-05-02T11:13:22Z</time></trkpt><trkpt lat="42.13843262644653" lon="13.696657163321111"><ele>585.0</ele><time>2026-05-02T11:13:23Z</time></trkpt><trkpt lat="42.13832798265004" lon="13.696613247456563"><ele>585.0</ele><time>2026-05-02T11:13:24Z</time></trkpt><trkpt lat="42.13823340448015" lon="13.69657889150205"><ele>585.0</ele><time>2026-05-02T11:13:25Z</time></trkpt><trkpt lat="42.13815389958454" lon="13.696543507018218"><ele>585.0</ele><time>2026-05-02T11:13:26Z</time></trkpt><trkpt lat="42.138066944433405" lon="13.696511090379595"><ele>585.0</ele><time>2026-05-02T11:13:27Z</time></trkpt><trkpt lat="42.137987296997466" lon="13.69648767484951"><ele>585.0</ele><time>2026-05-02T11:13:28Z</time></trkpt><trkpt lat="42.137891235776536" lon="13.696462374852134"><ele>586.0</ele><time>2026-05-02T11:13:29Z</time></trkpt><trkpt lat="42.13779967866854" lon="13.696428360331584"><ele>587.0</ele><time>2026-05-02T11:13:30Z</time></trkpt><trkpt lat="42.13770818172536" lon="13.696370889283376"><ele>588.0</ele><time>2026-05-02T11:13:32Z</time></trkpt><trkpt lat="42.137623898124176" lon="13.696304288867227"><ele>589.0</ele><time>2026-05-02T11:13:33.999Z</time></trkpt><trkpt lat="42.13752591945672" lon="13.696227482509915"><ele>590.0</ele><time>2026-05-02T11:13:35.999Z</time></trkpt><trkpt lat="42.13741783433774" lon="13.696190849224072"><ele>591.0</ele><time>2026-05-02T11:13:37.999Z</time></trkpt><trkpt lat="42.13730773992191" lon="13.696155240760186"><ele>592.0</ele><time>2026-05-02T11:13:39.999Z</time></trkpt><trkpt lat="42.137233517196805" lon="13.696139887400687"><ele>593.0</ele><time>2026-05-02T11:13:41.999Z</time></trkpt><trkpt lat="42.13714813371195" lon="13.696137926069772"><ele>594.0</ele><time>2026-05-02T11:13:43.999Z</time></trkpt><trkpt lat="42.13705417885233" lon="13.69615227742522"><ele>595.0</ele><time>2026-05-02T11:13:45.999Z</time></trkpt><trkpt lat="42.136986962225194" lon="13.696155527515923"><ele>596.0</ele><time>2026-05-02T11:13:46.999Z</time></trkpt><trkpt lat="42.136856603860636" lon="13.696159925007628"><ele>596.0</ele><time>2026-05-02T11:13:48.999Z</time></trkpt><trkpt lat="42.136792359077965" lon="13.696156020824114"><ele>596.0</ele><time>2026-05-02T11:13:49.999Z</time></trkpt><trkpt lat="42.1367161343377" lon="13.696151175151718"><ele>596.0</ele><time>2026-05-02T11:13:50.999Z</time></trkpt><trkpt lat="42.136639683621084" lon="13.696136009649699"><ele>596.0</ele><time>2026-05-02T11:13:51.999Z</time></trkpt><trkpt lat="42.136573312559946" lon="13.696114879712729"><ele>596.0</ele><time>2026-05-02T11:13:52.999Z</time></trkpt><trkpt lat="42.1365099903253" lon="13.696097246489604"><ele>596.0</ele><time>2026-05-02T11:13:53.999Z</time></trkpt><trkpt lat="42.13644098980824" lon="13.696082719779064"><ele>596.0</ele><time>2026-05-02T11:13:54.999Z</time></trkpt><trkpt lat="42.13636978326325" lon="13.696081721056716"><ele>596.5</ele><time>2026-05-02T11:13:55.999Z</time></trkpt><trkpt lat="42.136290357302116" lon="13.696071858948615"><ele>597.0</ele><time>2026-05-02T11:13:56.999Z</time></trkpt><trkpt lat="42.13622136158477" lon="13.696072033252474"><ele>597.5</ele><time>2026-05-02T11:13:57.999Z</time></trkpt><trkpt lat="42.136140903314676" lon="13.696078956666492"><ele>598.0</ele><time>2026-05-02T11:13:58.999Z</time></trkpt><trkpt lat="42.136061772360584" lon="13.696098281429919"><ele>598.5</ele><time>2026-05-02T11:13:59.999Z</time></trkpt><trkpt lat="42.13598233354518" lon="13.696109432438007"><ele>599.0</ele><time>2026-05-02T11:14:00.999Z</time></trkpt><trkpt lat="42.13591740082549" lon="13.696096088241628"><ele>599.0</ele><time>2026-05-02T11:14:01.999Z</time></trkpt><trkpt lat="42.13584637943023" lon="13.696071617041547"><ele>599.0</ele><time>2026-05-02T11:14:02.999Z</time></trkpt><trkpt lat="42.13576598364119" lon="13.696050435693433"><ele>599.0</ele><time>2026-05-02T11:14:03.999Z</time></trkpt><trkpt lat="42.13568986931558" lon="13.696023489260146"><ele>599.0</ele><time>2026-05-02T11:14:04.999Z</time></trkpt><trkpt lat="42.135613593303006" lon="13.695997658509953"><ele>599.0</ele><time>2026-05-02T11:14:05.999Z</time></trkpt><trkpt lat="42.135538301942766" lon="13.695974601066773"><ele>599.0</ele><time>2026-05-02T11:14:06.999Z</time></trkpt><trkpt lat="42.13546325990047" lon="13.69595335173149"><ele>601.3333333333333</ele><time>2026-05-02T11:14:07.999Z</time></trkpt><trkpt lat="42.13539278523868" lon="13.695945312243325"><ele>603.6666666666666</ele><time>2026-05-02T11:14:08.999Z</time></trkpt><trkpt lat="42.13527098098176" lon="13.695975957964354"><ele>606.0</ele><time>2026-05-02T11:14:10.999Z</time></trkpt><trkpt lat="42.13520101417096" lon="13.69598962475809"><ele>608.3333333333334</ele><time>2026-05-02T11:14:11.999Z</time></trkpt><trkpt lat="42.13512115259763" lon="13.696019406081778"><ele>610.6666666666667</ele><time>2026-05-02T11:14:12.999Z</time></trkpt><trkpt lat="42.135029302075864" lon="13.696027506727223"><ele>613.0</ele><time>2026-05-02T11:14:13.999Z</time></trkpt><trkpt lat="42.1349154892686" lon="13.696034303658191"><ele>613.0</ele><time>2026-05-02T11:14:14.999Z</time></trkpt><trkpt lat="42.13482278045493" lon="13.696057400313432"><ele>613.0</ele><time>2026-05-02T11:14:15.999Z</time></trkpt><trkpt lat="42.134749112735" lon="13.696078812015632"><ele>613.0</ele><time>2026-05-02T11:14:16.999Z</time></trkpt><trkpt lat="42.13464128700868" lon="13.696132095156786"><ele>613.0</ele><time>2026-05-02T11:14:18.999Z</time></trkpt><trkpt lat="42.13454639801162" lon="13.696210822493608"><ele>613.0</ele><time>2026-05-02T11:14:20.999Z</time></trkpt><trkpt lat="42.13448989678076" lon="13.6962685552604"><ele>613.0</ele><time>2026-05-02T11:14:21.999Z</time></trkpt><trkpt lat="42.1344375792302" lon="13.696350701440988"><ele>613.0</ele><time>2026-05-02T11:14:22.999Z</time></trkpt><trkpt lat="42.13439071033268" lon="13.696431297818007"><ele>613.0</ele><time>2026-05-02T11:14:23.999Z</time></trkpt><trkpt lat="42.13433566371683" lon="13.696488195775268"><ele>613.0</ele><time>2026-05-02T11:14:24.999Z</time></trkpt><trkpt lat="42.134272239408965" lon="13.696562779923267"><ele>613.0</ele><time>2026-05-02T11:14:25.999Z</time></trkpt><trkpt lat="42.1341996276914" lon="13.696644911282037"><ele>613.0</ele><time>2026-05-02T11:14:26.999Z</time></trkpt><trkpt lat="42.134116521620925" lon="13.696719033423117"><ele>613.1666666666667</ele><time>2026-05-02T11:14:27.999Z</time></trkpt><trkpt lat="42.13403263387979" lon="13.696794477187458"><ele>613.3333333333334</ele><time>2026-05-02T11:14:28.999Z</time></trkpt><trkpt lat="42.133954514209215" lon="13.696873709630015"><ele>613.5</ele><time>2026-05-02T11:14:29.999Z</time></trkpt><trkpt lat="42.1338923532425" lon="13.696955437636406"><ele>613.6666666666666</ele><time>2026-05-02T11:14:30.999Z</time></trkpt><trkpt lat="42.13383406465555" lon="13.697026449104888"><ele>613.8333333333333</ele><time>2026-05-02T11:14:31.999Z</time></trkpt><trkpt lat="42.13377431552981" lon="13.697091778248287"><ele>614.0</ele><time>2026-05-02T11:14:32.999Z</time></trkpt><trkpt lat="42.133707042328105" lon="13.697158157982173"><ele>612.4</ele><time>2026-05-02T11:14:33.999Z</time></trkpt><trkpt lat="42.13363893064389" lon="13.69724265710969"><ele>610.8</ele><time>2026-05-02T11:14:34.999Z</time></trkpt><trkpt lat="42.133565079213625" lon="13.697336629877178"><ele>609.2</ele><time>2026-05-02T11:14:35.999Z</time></trkpt><trkpt lat="42.13348207369221" lon="13.697418017268792"><ele>607.6</ele><time>2026-05-02T11:14:36.999Z</time></trkpt><trkpt lat="42.13339541768867" lon="13.697522993356182"><ele>606.0</ele><time>2026-05-02T11:14:37.999Z</time></trkpt><trkpt lat="42.13330005205053" lon="13.697627867089432"><ele>607.75</ele><time>2026-05-02T11:14:38.999Z</time></trkpt><trkpt lat="42.133196259040844" lon="13.697724905393315"><ele>609.5</ele><time>2026-05-02T11:14:39.999Z</time></trkpt><trkpt lat="42.133104552097016" lon="13.697821598765678"><ele>611.25</ele><time>2026-05-02T11:14:40.999Z</time></trkpt><trkpt lat="42.13301694321664" lon="13.697906436808944"><ele>613.0</ele><time>2026-05-02T11:14:41.999Z</time></trkpt><trkpt lat="42.13292048803542" lon="13.697970647601311"><ele>613.0</ele><time>2026-05-02T11:14:42.999Z</time></trkpt><trkpt lat="42.13283973067017" lon="13.698045778842276"><ele>613.0</ele><time>2026-05-02T11:14:43.999Z</time></trkpt><trkpt lat="42.13277517711562" lon="13.698120210442992"><ele>613.0</ele><time>2026-05-02T11:14:44.999Z</time></trkpt><trkpt lat="42.13272461132123" lon="13.698204165039444"><ele>613.0</ele><time>2026-05-02T11:14:45.999Z</time></trkpt><trkpt lat="42.13268529142876" lon="13.6983152028407"><ele>613.0</ele><time>2026-05-02T11:14:46.999Z</time></trkpt><trkpt lat="42.132644368200665" lon="13.698447509357207"><ele>613.0</ele><time>2026-05-02T11:14:47.999Z</time></trkpt><trkpt lat="42.13258806882955" lon="13.698582744265561"><ele>613.0</ele><time>2026-05-02T11:14:48.999Z</time></trkpt><trkpt lat="42.13253108764179" lon="13.698727100920525"><ele>613.0</ele><time>2026-05-02T11:14:49.999Z</time></trkpt><trkpt lat="42.13246144543605" lon="13.698865620564478"><ele>613.0</ele><time>2026-05-02T11:14:50.999Z</time></trkpt><trkpt lat="42.132392296135635" lon="13.69898313248678"><ele>613.5</ele><time>2026-05-02T11:14:51.999Z</time></trkpt><trkpt lat="42.132321208907626" lon="13.699086585063482"><ele>614.0</ele><time>2026-05-02T11:14:52.999Z</time></trkpt><trkpt lat="42.13224218939558" lon="13.69920100448495"><ele>614.5</ele><time>2026-05-02T11:14:53.999Z</time></trkpt><trkpt lat="42.13215050076429" lon="13.699323020307245"><ele>615.0</ele><time>2026-05-02T11:14:54.999Z</time></trkpt><trkpt lat="42.13206048774499" lon="13.699451421774715"><ele>615.0</ele><time>2026-05-02T11:14:55.999Z</time></trkpt><trkpt lat="42.13196498158905" lon="13.699558465927122"><ele>615.0</ele><time>2026-05-02T11:14:56.999Z</time></trkpt><trkpt lat="42.13186718096036" lon="13.699653092364882"><ele>615.0</ele><time>2026-05-02T11:14:57.999Z</time></trkpt><trkpt lat="42.131770448826245" lon="13.699738075270124"><ele>615.0</ele><time>2026-05-02T11:14:58.999Z</time></trkpt><trkpt lat="42.13167813344336" lon="13.699815873519515"><ele>615.0</ele><time>2026-05-02T11:14:59.999Z</time></trkpt><trkpt lat="42.13159195426084" lon="13.69989604764381"><ele>615.0</ele><time>2026-05-02T11:15:00.999Z</time></trkpt><trkpt lat="42.131519022382506" lon="13.699999139937637"><ele>615.0</ele><time>2026-05-02T11:15:01.999Z</time></trkpt><trkpt lat="42.13144688679211" lon="13.700117387165076"><ele>615.0</ele><time>2026-05-02T11:15:02.999Z</time></trkpt><trkpt lat="42.13137468164867" lon="13.700250028753423"><ele>615.0</ele><time>2026-05-02T11:15:03.999Z</time></trkpt><trkpt lat="42.13129145208838" lon="13.700375432617477"><ele>615.5</ele><time>2026-05-02T11:15:04.999Z</time></trkpt><trkpt lat="42.1311908317056" lon="13.700495896499628"><ele>616.0</ele><time>2026-05-02T11:15:05.999Z</time></trkpt><trkpt lat="42.13107247085638" lon="13.700605875613714"><ele>616.5</ele><time>2026-05-02T11:15:06.999Z</time></trkpt><trkpt lat="42.130953642887704" lon="13.700724732049089"><ele>617.0</ele><time>2026-05-02T11:15:07.999Z</time></trkpt><trkpt lat="42.13083930851042" lon="13.700860707231934"><ele>617.0</ele><time>2026-05-02T11:15:08.999Z</time></trkpt><trkpt lat="42.13072767254784" lon="13.700988940417629"><ele>617.0</ele><time>2026-05-02T11:15:09.999Z</time></trkpt><trkpt lat="42.13062888662825" lon="13.701105057072542"><ele>617.0</ele><time>2026-05-02T11:15:10.999Z</time></trkpt><trkpt lat="42.130542669309484" lon="13.70120250615595"><ele>617.0</ele><time>2026-05-02T11:15:11.999Z</time></trkpt><trkpt lat="42.13047030976083" lon="13.701278891111889"><ele>619.4</ele><time>2026-05-02T11:15:12.999Z</time></trkpt><trkpt lat="42.13038846249221" lon="13.701350936059066"><ele>621.8000000000001</ele><time>2026-05-02T11:15:14.999Z</time></trkpt><trkpt lat="42.13032659688651" lon="13.701327360374016"><ele>624.2</ele><time>2026-05-02T11:15:16.999Z</time></trkpt><trkpt lat="42.13025935210843" lon="13.701191186421571"><ele>626.6</ele><time>2026-05-02T11:15:18.999Z</time></trkpt><trkpt lat="42.1302024141914" lon="13.701084106117259"><ele>629.0</ele><time>2026-05-02T11:15:19.999Z</time></trkpt><trkpt lat="42.130135665403735" lon="13.700955705803091"><ele>630.25</ele><time>2026-05-02T11:15:20.999Z</time></trkpt><trkpt lat="42.13006794895242" lon="13.70081740891453"><ele>631.5</ele><time>2026-05-02T11:15:21.999Z</time></trkpt><trkpt lat="42.12999928985079" lon="13.700668964463583"><ele>632.75</ele><time>2026-05-02T11:15:22.999Z</time></trkpt><trkpt lat="42.129939381580186" lon="13.700544609525146"><ele>634.0</ele><time>2026-05-02T11:15:23.999Z</time></trkpt><trkpt lat="42.129880164535116" lon="13.700440675884915"><ele>636.2</ele><time>2026-05-02T11:15:24.999Z</time></trkpt><trkpt lat="42.12981202892216" lon="13.700337419535026"><ele>638.4</ele><time>2026-05-02T11:15:25.999Z</time></trkpt><trkpt lat="42.12975613316688" lon="13.7002394547598"><ele>640.6</ele><time>2026-05-02T11:15:26.999Z</time></trkpt><trkpt lat="42.12971453296806" lon="13.700162524641142"><ele>642.8</ele><time>2026-05-02T11:15:27.999Z</time></trkpt><trkpt lat="42.12961713376848" lon="13.700085298123772"><ele>645.0</ele><time>2026-05-02T11:15:29.999Z</time></trkpt><trkpt lat="42.12955094909654" lon="13.700045606505554"><ele>646.6666666666666</ele><time>2026-05-02T11:15:30.999Z</time></trkpt><trkpt lat="42.12947883838765" lon="13.700034644796785"><ele>648.3333333333334</ele><time>2026-05-02T11:15:31.999Z</time></trkpt><trkpt lat="42.12940133753889" lon="13.700025528561262"><ele>650.0</ele><time>2026-05-02T11:15:32.999Z</time></trkpt><trkpt lat="42.12932143950813" lon="13.69999315799307"><ele>651.6666666666667</ele><time>2026-05-02T11:15:33.999Z</time></trkpt><trkpt lat="42.12923997100059" lon="13.699975123372743"><ele>653.3333333333334</ele><time>2026-05-02T11:15:34.999Z</time></trkpt><trkpt lat="42.12917907422594" lon="13.699938802472127"><ele>655.0</ele><time>2026-05-02T11:15:35.999Z</time></trkpt><trkpt lat="42.129108314319375" lon="13.6998658176622"><ele>656.3333333333334</ele><time>2026-05-02T11:15:37.999Z</time></trkpt><trkpt lat="42.12903209716149" lon="13.699760485359475"><ele>657.6666666666667</ele><time>2026-05-02T11:15:40.999Z</time></trkpt><trkpt lat="42.128955500842395" lon="13.699767306047972"><ele>659.0</ele><time>2026-05-02T11:15:43.998Z</time></trkpt><trkpt lat="42.12888953601402" lon="13.699744115495568"><ele>660.3333333333334</ele><time>2026-05-02T11:15:47.998Z</time></trkpt><trkpt lat="42.12880017582477" lon="13.699732780360469"><ele>661.6666666666666</ele><time>2026-05-02T11:15:52.998Z</time></trkpt><trkpt lat="42.128737974099465" lon="13.699706325617965"><ele>663.0</ele><time>2026-05-02T11:15:53.998Z</time></trkpt><trkpt lat="42.12865978925663" lon="13.699719198047712"><ele>663.0</ele><time>2026-05-02T11:15:54.998Z</time></trkpt><trkpt lat="42.12858754759996" lon="13.699766268651814"><ele>663.0</ele><time>2026-05-02T11:15:55.998Z</time></trkpt><trkpt lat="42.12851277375025" lon="13.699806763459028"><ele>663.0</ele><time>2026-05-02T11:15:56.998Z</time></trkpt><trkpt lat="42.12843403972291" lon="13.699838767363941"><ele>663.0</ele><time>2026-05-02T11:15:57.998Z</time></trkpt><trkpt lat="42.128356463734555" lon="13.699877254280562"><ele>663.0</ele><time>2026-05-02T11:15:58.998Z</time></trkpt><trkpt lat="42.1282804791383" lon="13.699917772697225"><ele>663.0</ele><time>2026-05-02T11:15:59.998Z</time></trkpt><trkpt lat="42.128200696310486" lon="13.699934269095069"><ele>664.8571428571428</ele><time>2026-05-02T11:16:00.998Z</time></trkpt><trkpt lat="42.12812315197535" lon="13.699953679760783"><ele>666.7142857142857</ele><time>2026-05-02T11:16:01.998Z</time></trkpt><trkpt lat="42.128053361484305" lon="13.699964093149847"><ele>668.5714285714286</ele><time>2026-05-02T11:16:02.998Z</time></trkpt><trkpt lat="42.127984297121436" lon="13.699971488534368"><ele>670.4285714285713</ele><time>2026-05-02T11:16:03.998Z</time></trkpt><trkpt lat="42.12791421718233" lon="13.69997611914826"><ele>672.2857142857142</ele><time>2026-05-02T11:16:04.998Z</time></trkpt><trkpt lat="42.127844284608855" lon="13.699979396192225"><ele>674.1428571428571</ele><time>2026-05-02T11:16:05.998Z</time></trkpt><trkpt lat="42.12777753266051" lon="13.699997700826279"><ele>676.0</ele><time>2026-05-02T11:16:06.998Z</time></trkpt><trkpt lat="42.127712410932816" lon="13.700018314940051"><ele>676.0</ele><time>2026-05-02T11:16:07.998Z</time></trkpt><trkpt lat="42.12764872034109" lon="13.700008515261233"><ele>676.0</ele><time>2026-05-02T11:16:08.998Z</time></trkpt><trkpt lat="42.12755422562353" lon="13.700024622327632"><ele>676.0</ele><time>2026-05-02T11:16:10.998Z</time></trkpt><trkpt lat="42.127483495404604" lon="13.700006088423725"><ele>676.0</ele><time>2026-05-02T11:16:13.998Z</time></trkpt><trkpt lat="42.12742179085331" lon="13.699969054510285"><ele>676.0</ele><time>2026-05-02T11:16:22.998Z</time></trkpt><trkpt lat="42.127349348551846" lon="13.699956026295958"><ele>676.0</ele><time>2026-05-02T11:16:25.998Z</time></trkpt><trkpt lat="42.127277873554384" lon="13.699936682457945"><ele>676.0</ele><time>2026-05-02T11:16:27.998Z</time></trkpt><trkpt lat="42.12719594574118" lon="13.699893493183994"><ele>675.6666666666667</ele><time>2026-05-02T11:16:29.998Z</time></trkpt><trkpt lat="42.127137331249536" lon="13.699824432410605"><ele>675.3333333333334</ele><time>2026-05-02T11:16:31.998Z</time></trkpt><trkpt lat="42.127066626061385" lon="13.699719118271267"><ele>675.0</ele><time>2026-05-02T11:16:33.998Z</time></trkpt><trkpt lat="42.127005354351525" lon="13.699608648247802"><ele>674.6666666666666</ele><time>2026-05-02T11:16:35.998Z</time></trkpt><trkpt lat="42.12700812534034" lon="13.699501955307202"><ele>674.3333333333333</ele><time>2026-05-02T11:16:37.998Z</time></trkpt><trkpt lat="42.12699445957432" lon="13.699414335217854"><ele>674.0</ele><time>2026-05-02T11:16:40.998Z</time></trkpt><trkpt lat="42.126928425128085" lon="13.699409915092753"><ele>674.0</ele><time>2026-05-02T11:16:42.998Z</time></trkpt><trkpt lat="42.12684226391686" lon="13.699419485744517"><ele>674.0</ele><time>2026-05-02T11:16:46.998Z</time></trkpt><trkpt lat="42.12676258764994" lon="13.69943404402511"><ele>674.0</ele><time>2026-05-02T11:16:48.998Z</time></trkpt><trkpt lat="42.12666985591828" lon="13.699382828014206"><ele>674.0</ele><time>2026-05-02T11:16:50.998Z</time></trkpt><trkpt lat="42.12657225574579" lon="13.699304840565782"><ele>674.0</ele><time>2026-05-02T11:16:52.998Z</time></trkpt><trkpt lat="42.12652619030438" lon="13.69923709571353"><ele>674.0</ele><time>2026-05-02T11:16:53.998Z</time></trkpt><trkpt lat="42.1264824771662" lon="13.699167082865783"><ele>671.2</ele><time>2026-05-02T11:16:54.998Z</time></trkpt><trkpt lat="42.1264227243476" lon="13.699068023543518"><ele>668.4000000000001</ele><time>2026-05-02T11:16:55.998Z</time></trkpt><trkpt lat="42.12634739887119" lon="13.698982969192706"><ele>665.6</ele><time>2026-05-02T11:16:57.998Z</time></trkpt><trkpt lat="42.12624793182121" lon="13.698872805937235"><ele>662.8</ele><time>2026-05-02T11:16:59.998Z</time></trkpt><trkpt lat="42.12617876472882" lon="13.69876301025395"><ele>660.0</ele><time>2026-05-02T11:17:01.998Z</time></trkpt><trkpt lat="42.12613702483353" lon="13.698693810581338"><ele>660.0</ele><time>2026-05-02T11:17:03.998Z</time></trkpt><trkpt lat="42.12611361602436" lon="13.69861158799548"><ele>660.0</ele><time>2026-05-02T11:17:08.998Z</time></trkpt><trkpt lat="42.12612721235445" lon="13.698519514040822"><ele>660.0</ele><time>2026-05-02T11:17:09.998Z</time></trkpt><trkpt lat="42.12614082953819" lon="13.698400640302506"><ele>660.0</ele><time>2026-05-02T11:17:10.998Z</time></trkpt><trkpt lat="42.126154095557716" lon="13.698276906384624"><ele>660.0</ele><time>2026-05-02T11:17:11.998Z</time></trkpt><trkpt lat="42.126146665251866" lon="13.698120276087206"><ele>660.0</ele><time>2026-05-02T11:17:12.998Z</time></trkpt><trkpt lat="42.12614179600783" lon="13.697957236140082"><ele>661.5</ele><time>2026-05-02T11:17:13.998Z</time></trkpt><trkpt lat="42.12613186028231" lon="13.697799111731387"><ele>663.0</ele><time>2026-05-02T11:17:14.998Z</time></trkpt><trkpt lat="42.126105295952485" lon="13.697643290838956"><ele>664.5</ele><time>2026-05-02T11:17:15.998Z</time></trkpt><trkpt lat="42.12607117452488" lon="13.697465141999144"><ele>666.0</ele><time>2026-05-02T11:17:16.998Z</time></trkpt><trkpt lat="42.126031668544684" lon="13.69729828117209"><ele>669.6666666666666</ele><time>2026-05-02T11:17:17.998Z</time></trkpt><trkpt lat="42.12598641422581" lon="13.697129025793242"><ele>673.3333333333333</ele><time>2026-05-02T11:17:18.998Z</time></trkpt><trkpt lat="42.125933346160544" lon="13.69694043467013"><ele>677.0</ele><time>2026-05-02T11:17:19.998Z</time></trkpt><trkpt lat="42.12588131092747" lon="13.696720818274649"><ele>681.0</ele><time>2026-05-02T11:17:20.998Z</time></trkpt><trkpt lat="42.125832430109924" lon="13.69649162582049"><ele>685.0</ele><time>2026-05-02T11:17:21.998Z</time></trkpt><trkpt lat="42.12579626626002" lon="13.69627674249527"><ele>689.0</ele><time>2026-05-02T11:17:22.998Z</time></trkpt><trkpt lat="42.12576191160378" lon="13.696079856491275"><ele>694.25</ele><time>2026-05-02T11:17:23.998Z</time></trkpt><trkpt lat="42.125728235422926" lon="13.695898096254723"><ele>699.5</ele><time>2026-05-02T11:17:24.998Z</time></trkpt><trkpt lat="42.125682188092455" lon="13.69572086337957"><ele>704.75</ele><time>2026-05-02T11:17:25.998Z</time></trkpt><trkpt lat="42.12565591616553" lon="13.695540085493024"><ele>710.0</ele><time>2026-05-02T11:17:26.998Z</time></trkpt><trkpt lat="42.125613388203504" lon="13.695359468685997"><ele>714.75</ele><time>2026-05-02T11:17:27.998Z</time></trkpt><trkpt lat="42.125575309009115" lon="13.69518097009007"><ele>719.5</ele><time>2026-05-02T11:17:28.998Z</time></trkpt><trkpt lat="42.125528991926004" lon="13.695013001386416"><ele>724.25</ele><time>2026-05-02T11:17:29.998Z</time></trkpt><trkpt lat="42.125492455543764" lon="13.694867207024606"><ele>729.0</ele><time>2026-05-02T11:17:30.998Z</time></trkpt><trkpt lat="42.125461231982996" lon="13.694703932118598"><ele>729.0</ele><time>2026-05-02T11:17:31.998Z</time></trkpt><trkpt lat="42.12542604116477" lon="13.69454158218208"><ele>729.0</ele><time>2026-05-02T11:17:32.998Z</time></trkpt><trkpt lat="42.125387990122185" lon="13.694385828046917"><ele>729.0</ele><time>2026-05-02T11:17:33.998Z</time></trkpt><trkpt lat="42.12535072409569" lon="13.69425157034075"><ele>729.0</ele><time>2026-05-02T11:17:34.998Z</time></trkpt><trkpt lat="42.12532342212095" lon="13.694144693064974"><ele>729.0</ele><time>2026-05-02T11:17:35.998Z</time></trkpt><trkpt lat="42.12527088283046" lon="13.694028162970831"><ele>730.0</ele><time>2026-05-02T11:17:36.998Z</time></trkpt><trkpt lat="42.125217321003404" lon="13.693927985388287"><ele>731.0</ele><time>2026-05-02T11:17:37.998Z</time></trkpt><trkpt lat="42.12515457993009" lon="13.693839355596102"><ele>732.0</ele><time>2026-05-02T11:17:38.998Z</time></trkpt><trkpt lat="42.125118305530535" lon="13.69370400056059"><ele>733.0</ele><time>2026-05-02T11:17:39.998Z</time></trkpt><trkpt lat="42.1250936566907" lon="13.693598277251402"><ele>734.0</ele><time>2026-05-02T11:17:40.998Z</time></trkpt><trkpt lat="42.12508309557915" lon="13.693491902443137"><ele>735.3333333333333</ele><time>2026-05-02T11:17:41.998Z</time></trkpt><trkpt lat="42.12504057684254" lon="13.693426622652295"><ele>736.6666666666666</ele><time>2026-05-02T11:17:42.998Z</time></trkpt><trkpt lat="42.124999300140914" lon="13.693349074397686"><ele>738.0</ele><time>2026-05-02T11:17:43.998Z</time></trkpt><trkpt lat="42.12492270207157" lon="13.693231117726281"><ele>739.3333333333334</ele><time>2026-05-02T11:17:45.998Z</time></trkpt><trkpt lat="42.12485470852204" lon="13.693187707621384"><ele>740.6666666666667</ele><time>2026-05-02T11:17:46.998Z</time></trkpt><trkpt lat="42.124781110856766" lon="13.693128040157903"><ele>742.0</ele><time>2026-05-02T11:17:47.998Z</time></trkpt><trkpt lat="42.124714164438636" lon="13.693082240294608"><ele>746.8</ele><time>2026-05-02T11:17:48.998Z</time></trkpt><trkpt lat="42.12462776158164" lon="13.692943668986247"><ele>751.6</ele><time>2026-05-02T11:17:50.998Z</time></trkpt><trkpt lat="42.124575830614994" lon="13.692856862209482"><ele>756.4</ele><time>2026-05-02T11:17:51.998Z</time></trkpt><trkpt lat="42.12452122416611" lon="13.692756486163304"><ele>761.1999999999999</ele><time>2026-05-02T11:17:52.998Z</time></trkpt><trkpt lat="42.1244551025203" lon="13.692676906857601"><ele>766.0</ele><time>2026-05-02T11:17:53.998Z</time></trkpt><trkpt lat="42.124401762031226" lon="13.6925720151223"><ele>766.1999999999999</ele><time>2026-05-02T11:17:54.998Z</time></trkpt><trkpt lat="42.1243608702195" lon="13.692457990968926"><ele>766.4</ele><time>2026-05-02T11:17:55.998Z</time></trkpt><trkpt lat="42.12432631836596" lon="13.69232896720152"><ele>766.6</ele><time>2026-05-02T11:17:56.998Z</time></trkpt><trkpt lat="42.12430741631856" lon="13.692196984183958"><ele>766.8</ele><time>2026-05-02T11:17:57.997Z</time></trkpt><trkpt lat="42.12428366228742" lon="13.692046186407987"><ele>767.0</ele><time>2026-05-02T11:17:59.997Z</time></trkpt><trkpt lat="42.12418143971917" lon="13.692002043016535"><ele>767.0</ele><time>2026-05-02T11:18:01.997Z</time></trkpt><trkpt lat="42.12409968898846" lon="13.692065045465643"><ele>767.0</ele><time>2026-05-02T11:18:03.997Z</time></trkpt><trkpt lat="42.124035991863394" lon="13.69222486881195"><ele>767.0</ele><time>2026-05-02T11:18:05.997Z</time></trkpt><trkpt lat="42.12401595742205" lon="13.692314553172796"><ele>767.0</ele><time>2026-05-02T11:18:06.997Z</time></trkpt><trkpt lat="42.12400448003162" lon="13.692421760544693"><ele>767.0</ele><time>2026-05-02T11:18:07.997Z</time></trkpt><trkpt lat="42.1239772511042" lon="13.692517730951973"><ele>771.0</ele><time>2026-05-02T11:18:08.997Z</time></trkpt><trkpt lat="42.12394890100798" lon="13.69264154597866"><ele>775.0</ele><time>2026-05-02T11:18:09.997Z</time></trkpt><trkpt lat="42.123922891588016" lon="13.692783070557036"><ele>779.0</ele><time>2026-05-02T11:18:10.997Z</time></trkpt><trkpt lat="42.12390519491321" lon="13.692915180005246"><ele>783.0</ele><time>2026-05-02T11:18:11.997Z</time></trkpt><trkpt lat="42.123885806621615" lon="13.693068086261992"><ele>787.0</ele><time>2026-05-02T11:18:12.997Z</time></trkpt><trkpt lat="42.12386746494809" lon="13.693195104510755"><ele>787.0</ele><time>2026-05-02T11:18:13.997Z</time></trkpt><trkpt lat="42.12385365784919" lon="13.693295696573667"><ele>787.0</ele><time>2026-05-02T11:18:14.997Z</time></trkpt><trkpt lat="42.12383988225809" lon="13.693443244371478"><ele>787.0</ele><time>2026-05-02T11:18:16.997Z</time></trkpt><trkpt lat="42.123810427284255" lon="13.69353410416562"><ele>787.0</ele><time>2026-05-02T11:18:18.997Z</time></trkpt><trkpt lat="42.12370778214282" lon="13.693658356800574"><ele>787.0</ele><time>2026-05-02T11:18:20.997Z</time></trkpt><trkpt lat="42.123626275988904" lon="13.693711227534434"><ele>788.6666666666666</ele><time>2026-05-02T11:18:21.997Z</time></trkpt><trkpt lat="42.123559436954814" lon="13.693748850563995"><ele>790.3333333333333</ele><time>2026-05-02T11:18:22.997Z</time></trkpt><trkpt lat="42.12347987795182" lon="13.693787917244896"><ele>792.0</ele><time>2026-05-02T11:18:23.997Z</time></trkpt><trkpt lat="42.12339314301009" lon="13.693847600296094"><ele>793.6666666666667</ele><time>2026-05-02T11:18:24.997Z</time></trkpt><trkpt lat="42.12332467035677" lon="13.693903445456778"><ele>795.3333333333334</ele><time>2026-05-02T11:18:25.997Z</time></trkpt><trkpt lat="42.12322825275191" lon="13.693985898154082"><ele>797.0</ele><time>2026-05-02T11:18:26.997Z</time></trkpt><trkpt lat="42.123152081832785" lon="13.694053483339902"><ele>797.0000000000001</ele><time>2026-05-02T11:18:27.997Z</time></trkpt><trkpt lat="42.12308806547968" lon="13.694145516550291"><ele>797.0</ele><time>2026-05-02T11:18:28.997Z</time></trkpt><trkpt lat="42.123027959699385" lon="13.694234976497597"><ele>797.0</ele><time>2026-05-02T11:18:29.997Z</time></trkpt><trkpt lat="42.122976051879604" lon="13.694298566070577"><ele>797.0</ele><time>2026-05-02T11:18:30.997Z</time></trkpt><trkpt lat="42.12290799871997" lon="13.694366145318558"><ele>797.0000000000001</ele><time>2026-05-02T11:18:31.997Z</time></trkpt><trkpt lat="42.12284549065841" lon="13.694436863554046"><ele>797.0</ele><time>2026-05-02T11:18:32.997Z</time></trkpt><trkpt lat="42.12277270273885" lon="13.694496288773816"><ele>796.8</ele><time>2026-05-02T11:18:33.997Z</time></trkpt><trkpt lat="42.12268201684008" lon="13.69454767778295"><ele>796.6</ele><time>2026-05-02T11:18:34.997Z</time></trkpt><trkpt lat="42.122591048015835" lon="13.694589626609869"><ele>796.4</ele><time>2026-05-02T11:18:35.997Z</time></trkpt><trkpt lat="42.12251050711137" lon="13.694626472358497"><ele>796.1999999999999</ele><time>2026-05-02T11:18:36.997Z</time></trkpt><trkpt lat="42.12240214743528" lon="13.694655268337872"><ele>796.0</ele><time>2026-05-02T11:18:38.997Z</time></trkpt><trkpt lat="42.12227029967672" lon="13.69466450270998"><ele>796.0</ele><time>2026-05-02T11:18:40.997Z</time></trkpt><trkpt lat="42.122176005471246" lon="13.694649213371529"><ele>796.0</ele><time>2026-05-02T11:18:41.997Z</time></trkpt><trkpt lat="42.12208537691153" lon="13.69462931305768"><ele>796.0</ele><time>2026-05-02T11:18:42.997Z</time></trkpt><trkpt lat="42.122010021638474" lon="13.694609301802835"><ele>796.0</ele><time>2026-05-02T11:18:44.997Z</time></trkpt><trkpt lat="42.12194349220779" lon="13.694626334862402"><ele>796.0</ele><time>2026-05-02T11:18:50.997Z</time></trkpt><trkpt lat="42.12180310945534" lon="13.694694838972513"><ele>796.0</ele><time>2026-05-02T11:18:52.997Z</time></trkpt><trkpt lat="42.1216596081514" lon="13.694812020457551"><ele>796.0</ele><time>2026-05-02T11:18:53.997Z</time></trkpt><trkpt lat="42.12154470120175" lon="13.694889803213298"><ele>796.0</ele><time>2026-05-02T11:18:54.997Z</time></trkpt><trkpt lat="42.12144298528812" lon="13.694983628176562"><ele>796.0</ele><time>2026-05-02T11:18:55.997Z</time></trkpt><trkpt lat="42.12136330003915" lon="13.695025626347306"><ele>796.4999999999999</ele><time>2026-05-02T11:18:56.997Z</time></trkpt><trkpt lat="42.12128979364715" lon="13.69504322671534"><ele>797.0</ele><time>2026-05-02T11:18:57.997Z</time></trkpt><trkpt lat="42.121226267741726" lon="13.695043701519936"><ele>797.5</ele><time>2026-05-02T11:18:58.997Z</time></trkpt><trkpt lat="42.12123819548893" lon="13.695141474572639"><ele>798.0</ele><time>2026-05-02T11:19:04.997Z</time></trkpt><trkpt lat="42.121311647375876" lon="13.695010383606089"><ele>798.4999999999999</ele><time>2026-05-02T11:19:14.997Z</time></trkpt><trkpt lat="42.12132553783803" lon="13.694901878557989"><ele>799.0</ele><time>2026-05-02T11:19:16.997Z</time></trkpt><trkpt lat="42.12141661128741" lon="13.694832376471254"><ele>798.25</ele><time>2026-05-02T11:19:17.997Z</time></trkpt><trkpt lat="42.121573382308675" lon="13.69476841780943"><ele>797.5</ele><time>2026-05-02T11:19:18.997Z</time></trkpt><trkpt lat="42.12168795141488" lon="13.694665866940538"><ele>796.75</ele><time>2026-05-02T11:19:19.997Z</time></trkpt><trkpt lat="42.12179614088332" lon="13.694602516239318"><ele>796.0</ele><time>2026-05-02T11:19:20.997Z</time></trkpt><trkpt lat="42.1218574255784" lon="13.694524571494783"><ele>796.0</ele><time>2026-05-02T11:19:21.997Z</time></trkpt><trkpt lat="42.12192110161178" lon="13.694432977419583"><ele>796.0</ele><time>2026-05-02T11:19:22.997Z</time></trkpt><trkpt lat="42.121995349444255" lon="13.69432155791238"><ele>796.0</ele><time>2026-05-02T11:19:23.997Z</time></trkpt><trkpt lat="42.12203229359916" lon="13.694183225774774"><ele>796.0</ele><time>2026-05-02T11:19:24.997Z</time></trkpt><trkpt lat="42.122103407817704" lon="13.694040994160826"><ele>796.0</ele><time>2026-05-02T11:19:25.997Z</time></trkpt><trkpt lat="42.12223837628755" lon="13.69386453464221"><ele>798.75</ele><time>2026-05-02T11:19:26.997Z</time></trkpt><trkpt lat="42.122321833783225" lon="13.69369282499264"><ele>801.5</ele><time>2026-05-02T11:19:27.997Z</time></trkpt><trkpt lat="42.12238649785529" lon="13.693554530410472"><ele>804.25</ele><time>2026-05-02T11:19:28.997Z</time></trkpt><trkpt lat="42.122439092514036" lon="13.693425135668633"><ele>807.0</ele><time>2026-05-02T11:19:29.997Z</time></trkpt><trkpt lat="42.12249315217446" lon="13.693306179683464"><ele>807.0</ele><time>2026-05-02T11:19:30.997Z</time></trkpt><trkpt lat="42.12253678032868" lon="13.69318943975465"><ele>807.0</ele><time>2026-05-02T11:19:31.997Z</time></trkpt><trkpt lat="42.12257286660077" lon="13.693086426148865"><ele>807.0</ele><time>2026-05-02T11:19:32.997Z</time></trkpt><trkpt lat="42.12258734418727" lon="13.693001510528893"><ele>807.0</ele><time>2026-05-02T11:19:33.997Z</time></trkpt><trkpt lat="42.12257246664891" lon="13.6928695624316"><ele>807.0</ele><time>2026-05-02T11:19:35.997Z</time></trkpt><trkpt lat="42.12247913565576" lon="13.692827187354606"><ele>807.0</ele><time>2026-05-02T11:19:37.997Z</time></trkpt><trkpt lat="42.12235770668447" lon="13.692877825930868"><ele>812.0</ele><time>2026-05-02T11:19:39.997Z</time></trkpt><trkpt lat="42.12227868986462" lon="13.692926369621704"><ele>817.0</ele><time>2026-05-02T11:19:40.997Z</time></trkpt><trkpt lat="42.122182107073805" lon="13.69300214681247"><ele>822.0</ele><time>2026-05-02T11:19:41.997Z</time></trkpt><trkpt lat="42.122062925590384" lon="13.693088173587356"><ele>827.0</ele><time>2026-05-02T11:19:42.997Z</time></trkpt><trkpt lat="42.12193709068747" lon="13.693177847721898"><ele>827.0</ele><time>2026-05-02T11:19:43.997Z</time></trkpt><trkpt lat="42.121809667135715" lon="13.693266574226485"><ele>827.0</ele><time>2026-05-02T11:19:44.997Z</time></trkpt><trkpt lat="42.12167396604557" lon="13.69332617193868"><ele>827.0</ele><time>2026-05-02T11:19:45.997Z</time></trkpt><trkpt lat="42.12153516337527" lon="13.693379989439034"><ele>827.0</ele><time>2026-05-02T11:19:46.997Z</time></trkpt><trkpt lat="42.12139384179294" lon="13.693426777159932"><ele>834.0</ele><time>2026-05-02T11:19:47.997Z</time></trkpt><trkpt lat="42.12124535013918" lon="13.693470218352909"><ele>841.0</ele><time>2026-05-02T11:19:48.997Z</time></trkpt><trkpt lat="42.121085431202644" lon="13.693508826176584"><ele>848.0</ele><time>2026-05-02T11:19:49.997Z</time></trkpt><trkpt lat="42.12092269096748" lon="13.69355482884742"><ele>845.0</ele><time>2026-05-02T11:19:50.997Z</time></trkpt><trkpt lat="42.12075515667338" lon="13.693645406822553"><ele>842.0</ele><time>2026-05-02T11:19:51.997Z</time></trkpt><trkpt lat="42.12056635081767" lon="13.69371599664961"><ele>839.0</ele><time>2026-05-02T11:19:52.997Z</time></trkpt><trkpt lat="42.120395342838215" lon="13.693829644189972"><ele>839.0</ele><time>2026-05-02T11:19:53.997Z</time></trkpt><trkpt lat="42.120228741966464" lon="13.693911780596457"><ele>839.0</ele><time>2026-05-02T11:19:54.997Z</time></trkpt><trkpt lat="42.12003456774548" lon="13.693924121632572"><ele>839.0</ele><time>2026-05-02T11:19:55.997Z</time></trkpt><trkpt lat="42.11988233075471" lon="13.694010191436577"><ele>845.25</ele><time>2026-05-02T11:19:56.997Z</time></trkpt><trkpt lat="42.119742414359486" lon="13.694089033945147"><ele>851.5</ele><time>2026-05-02T11:19:57.997Z</time></trkpt><trkpt lat="42.119595472463836" lon="13.694135832499216"><ele>857.75</ele><time>2026-05-02T11:19:58.997Z</time></trkpt><trkpt lat="42.11945876312477" lon="13.694195135551448"><ele>864.0</ele><time>2026-05-02T11:19:59.997Z</time></trkpt><trkpt lat="42.11931761793329" lon="13.694274018117788"><ele>864.0</ele><time>2026-05-02T11:20:00.997Z</time></trkpt><trkpt lat="42.11917006897217" lon="13.694321081233955"><ele>864.0</ele><time>2026-05-02T11:20:01.997Z</time></trkpt><trkpt lat="42.119040982588324" lon="13.694339217488231"><ele>864.0</ele><time>2026-05-02T11:20:02.997Z</time></trkpt><trkpt lat="42.1189096677113" lon="13.69435842231266"><ele>864.0</ele><time>2026-05-02T11:20:03.997Z</time></trkpt><trkpt lat="42.118779203801196" lon="13.694388563741606"><ele>862.25</ele><time>2026-05-02T11:20:04.997Z</time></trkpt><trkpt lat="42.118654494507595" lon="13.694444693698248"><ele>860.5</ele><time>2026-05-02T11:20:05.997Z</time></trkpt><trkpt lat="42.11851940187064" lon="13.694520619986227"><ele>858.75</ele><time>2026-05-02T11:20:06.997Z</time></trkpt><trkpt lat="42.11837102824284" lon="13.694604144760701"><ele>857.0</ele><time>2026-05-02T11:20:07.997Z</time></trkpt><trkpt lat="42.118243895680735" lon="13.694696075901316"><ele>864.5</ele><time>2026-05-02T11:20:09Z</time></trkpt><trkpt lat="42.11811115011315" lon="13.694789903525814"><ele>872.0</ele><time>2026-05-02T11:20:10Z</time></trkpt><trkpt lat="42.11798073849782" lon="13.694882628119709"><ele>879.5</ele><time>2026-05-02T11:20:11Z</time></trkpt><trkpt lat="42.117864220031514" lon="13.694972010474448"><ele>887.0</ele><time>2026-05-02T11:20:12Z</time></trkpt><trkpt lat="42.11773139856616" lon="13.695045968615505"><ele>887.0</ele><time>2026-05-02T11:20:13Z</time></trkpt><trkpt lat="42.11761766289017" lon="13.695090996491855"><ele>887.0</ele><time>2026-05-02T11:20:14Z</time></trkpt><trkpt lat="42.11748853739994" lon="13.695122463582637"><ele>887.0</ele><time>2026-05-02T11:20:15Z</time></trkpt><trkpt lat="42.117334540248166" lon="13.695141904938904"><ele>887.0</ele><time>2026-05-02T11:20:16Z</time></trkpt><trkpt lat="42.11716471785429" lon="13.695173478423168"><ele>894.0</ele><time>2026-05-02T11:20:17Z</time></trkpt><trkpt lat="42.116980102607464" lon="13.695228720104447"><ele>901.0</ele><time>2026-05-02T11:20:18Z</time></trkpt><trkpt lat="42.11678735891051" lon="13.695289552543914"><ele>908.0</ele><time>2026-05-02T11:20:19Z</time></trkpt><trkpt lat="42.116620190281054" lon="13.695337042387928"><ele>902.0</ele><time>2026-05-02T11:20:20Z</time></trkpt><trkpt lat="42.11645817071526" lon="13.695382168845944"><ele>896.0</ele><time>2026-05-02T11:20:21Z</time></trkpt><trkpt lat="42.116365891255825" lon="13.695415073849187"><ele>890.0</ele><time>2026-05-02T11:20:22Z</time></trkpt><trkpt lat="42.116252409784856" lon="13.695436222231928"><ele>884.0</ele><time>2026-05-02T11:20:23Z</time></trkpt><trkpt lat="42.116120429219805" lon="13.695440909328875"><ele>884.0</ele><time>2026-05-02T11:20:24Z</time></trkpt><trkpt lat="42.11598241169363" lon="13.695479451580834"><ele>884.0</ele><time>2026-05-02T11:20:25Z</time></trkpt><trkpt lat="42.11582791239538" lon="13.695492896189496"><ele>884.0</ele><time>2026-05-02T11:20:26Z</time></trkpt><trkpt lat="42.11566345265956" lon="13.69554723848494"><ele>890.6666666666667</ele><time>2026-05-02T11:20:27Z</time></trkpt><trkpt lat="42.115480232599765" lon="13.695590989533446"><ele>897.3333333333333</ele><time>2026-05-02T11:20:28Z</time></trkpt><trkpt lat="42.11530068510449" lon="13.695655175913117"><ele>904.0</ele><time>2026-05-02T11:20:29Z</time></trkpt><trkpt lat="42.115110374643564" lon="13.69568542963493"><ele>904.0</ele><time>2026-05-02T11:20:30Z</time></trkpt><trkpt lat="42.11491807416678" lon="13.695717080844567"><ele>904.0</ele><time>2026-05-02T11:20:31Z</time></trkpt><trkpt lat="42.11473949549467" lon="13.695761632224777"><ele>904.0</ele><time>2026-05-02T11:20:32Z</time></trkpt><trkpt lat="42.11457270339402" lon="13.695790860018874"><ele>908.5</ele><time>2026-05-02T11:20:33Z</time></trkpt><trkpt lat="42.11440298753464" lon="13.695797608941898"><ele>913.0</ele><time>2026-05-02T11:20:34Z</time></trkpt><trkpt lat="42.11428148277155" lon="13.695841227008993"><ele>917.5</ele><time>2026-05-02T11:20:35Z</time></trkpt><trkpt lat="42.114150720415196" lon="13.695890569572647"><ele>922.0</ele><time>2026-05-02T11:20:36Z</time></trkpt><trkpt lat="42.114013086541036" lon="13.695936904890766"><ele>926.0</ele><time>2026-05-02T11:20:37Z</time></trkpt><trkpt lat="42.113880231526785" lon="13.69598833406368"><ele>930.0</ele><time>2026-05-02T11:20:38Z</time></trkpt><trkpt lat="42.113748817377434" lon="13.696019913640937"><ele>934.0</ele><time>2026-05-02T11:20:39Z</time></trkpt><trkpt lat="42.113616912334216" lon="13.696065800214964"><ele>938.0</ele><time>2026-05-02T11:20:40Z</time></trkpt><trkpt lat="42.11344851895004" lon="13.696056726600695"><ele>933.0</ele><time>2026-05-02T11:20:41Z</time></trkpt><trkpt lat="42.11331679818134" lon="13.696120408609755"><ele>928.0</ele><time>2026-05-02T11:20:42Z</time></trkpt><trkpt lat="42.11318697122271" lon="13.69616811541768"><ele>923.0</ele><time>2026-05-02T11:20:43Z</time></trkpt><trkpt lat="42.113053928052814" lon="13.696192067667301"><ele>918.0</ele><time>2026-05-02T11:20:44Z</time></trkpt><trkpt lat="42.112930073132766" lon="13.696222833696092"><ele>918.0</ele><time>2026-05-02T11:20:45Z</time></trkpt><trkpt lat="42.11283929550426" lon="13.696316716083132"><ele>918.0</ele><time>2026-05-02T11:20:46Z</time></trkpt><trkpt lat="42.112699422311366" lon="13.69635924079498"><ele>918.0</ele><time>2026-05-02T11:20:47Z</time></trkpt><trkpt lat="42.11254600192548" lon="13.696422858717607"><ele>918.0</ele><time>2026-05-02T11:20:48Z</time></trkpt><trkpt lat="42.112393762889745" lon="13.696518440982041"><ele>927.6666666666667</ele><time>2026-05-02T11:20:49Z</time></trkpt><trkpt lat="42.11225883536146" lon="13.696624494123498"><ele>937.3333333333334</ele><time>2026-05-02T11:20:50Z</time></trkpt><trkpt lat="42.112085467772864" lon="13.696705355529485"><ele>947.0</ele><time>2026-05-02T11:20:51Z</time></trkpt><trkpt lat="42.11194532286361" lon="13.69683155503933"><ele>947.0</ele><time>2026-05-02T11:20:52Z</time></trkpt><trkpt lat="42.111778451943124" lon="13.69689058201589"><ele>947.0</ele><time>2026-05-02T11:20:53Z</time></trkpt><trkpt lat="42.111652512483836" lon="13.69698920404991"><ele>947.0</ele><time>2026-05-02T11:20:54Z</time></trkpt><trkpt lat="42.11153024662678" lon="13.69707509590187"><ele>944.0</ele><time>2026-05-02T11:20:55Z</time></trkpt><trkpt lat="42.11139142951706" lon="13.697139892622097"><ele>941.0</ele><time>2026-05-02T11:20:56Z</time></trkpt><trkpt lat="42.11124290381337" lon="13.697176584145934"><ele>938.0</ele><time>2026-05-02T11:20:57Z</time></trkpt><trkpt lat="42.11108470234881" lon="13.697230848473586"><ele>938.0</ele><time>2026-05-02T11:20:58Z</time></trkpt><trkpt lat="42.11092857325255" lon="13.697280719156968"><ele>938.0</ele><time>2026-05-02T11:20:59Z</time></trkpt><trkpt lat="42.110766764159536" lon="13.697337138964302"><ele>938.0</ele><time>2026-05-02T11:21:00Z</time></trkpt><trkpt lat="42.110638878233004" lon="13.697454596932143"><ele>936.3333333333334</ele><time>2026-05-02T11:21:01Z</time></trkpt><trkpt lat="42.11050185801903" lon="13.697548197554172"><ele>934.6666666666667</ele><time>2026-05-02T11:21:02Z</time></trkpt><trkpt lat="42.11037515198045" lon="13.697680341224245"><ele>933.0</ele><time>2026-05-02T11:21:03Z</time></trkpt><trkpt lat="42.11023309310846" lon="13.69777583056498"><ele>933.0</ele><time>2026-05-02T11:21:04Z</time></trkpt><trkpt lat="42.11008519567025" lon="13.697867066057439"><ele>933.0</ele><time>2026-05-02T11:21:05Z</time></trkpt><trkpt lat="42.10993465268778" lon="13.697977242585091"><ele>933.0</ele><time>2026-05-02T11:21:06Z</time></trkpt><trkpt lat="42.10978535682452" lon="13.698047950056736"><ele>941.3333333333333</ele><time>2026-05-02T11:21:07Z</time></trkpt><trkpt lat="42.10962170524933" lon="13.698099538665888"><ele>949.6666666666666</ele><time>2026-05-02T11:21:08Z</time></trkpt><trkpt lat="42.10948713126606" lon="13.698156505255644"><ele>958.0</ele><time>2026-05-02T11:21:09Z</time></trkpt><trkpt lat="42.109347706905176" lon="13.69821195216294"><ele>958.0</ele><time>2026-05-02T11:21:10Z</time></trkpt><trkpt lat="42.109230621863794" lon="13.698275588654448"><ele>958.0</ele><time>2026-05-02T11:21:11Z</time></trkpt><trkpt lat="42.10910185374164" lon="13.698284279714585"><ele>958.0</ele><time>2026-05-02T11:21:12Z</time></trkpt><trkpt lat="42.10898816439107" lon="13.69830597315348"><ele>958.0</ele><time>2026-05-02T11:21:13Z</time></trkpt><trkpt lat="42.108881985445905" lon="13.69831256041376"><ele>957.75</ele><time>2026-05-02T11:21:14Z</time></trkpt><trkpt lat="42.10875623228856" lon="13.698313449937428"><ele>957.5</ele><time>2026-05-02T11:21:15Z</time></trkpt><trkpt lat="42.1086349205796" lon="13.698405878141102"><ele>957.25</ele><time>2026-05-02T11:21:16Z</time></trkpt><trkpt lat="42.10851474125748" lon="13.698433280309514"><ele>957.0</ele><time>2026-05-02T11:21:17Z</time></trkpt><trkpt lat="42.10843645150964" lon="13.698484137457866"><ele>957.0</ele><time>2026-05-02T11:21:18Z</time></trkpt><trkpt lat="42.10835141455788" lon="13.698495083968053"><ele>957.0</ele><time>2026-05-02T11:21:19Z</time></trkpt><trkpt lat="42.108370661059915" lon="13.698303463036396"><ele>957.0</ele><time>2026-05-02T11:21:21Z</time></trkpt><trkpt lat="42.10835409731371" lon="13.698157289936685"><ele>957.0</ele><time>2026-05-02T11:21:22Z</time></trkpt><trkpt lat="42.10831327585511" lon="13.698007557467214"><ele>957.0</ele><time>2026-05-02T11:21:23Z</time></trkpt><trkpt lat="42.10826001030237" lon="13.697877859232843"><ele>957.0</ele><time>2026-05-02T11:21:24Z</time></trkpt><trkpt lat="42.10816778397045" lon="13.69777018690575"><ele>957.0</ele><time>2026-05-02T11:21:25Z</time></trkpt><trkpt lat="42.108113826205425" lon="13.69764048912074"><ele>957.0</ele><time>2026-05-02T11:21:26Z</time></trkpt><trkpt lat="42.10808184095956" lon="13.697516556067754"><ele>957.0</ele><time>2026-05-02T11:21:27Z</time></trkpt><trkpt lat="42.10806331902635" lon="13.697400771228109"><ele>955.8</ele><time>2026-05-02T11:21:28Z</time></trkpt><trkpt lat="42.108069686819775" lon="13.69727505983102"><ele>954.6</ele><time>2026-05-02T11:21:29Z</time></trkpt><trkpt lat="42.108080959024264" lon="13.697150072915909"><ele>953.3999999999999</ele><time>2026-05-02T11:21:30Z</time></trkpt><trkpt lat="42.10814223499567" lon="13.697035841807317"><ele>952.1999999999999</ele><time>2026-05-02T11:21:31Z</time></trkpt><trkpt lat="42.108167992122034" lon="13.696948072985217"><ele>951.0</ele><time>2026-05-02T11:21:33Z</time></trkpt><trkpt lat="42.10813064279229" lon="13.697102788086838"><ele>951.0</ele><time>2026-05-02T11:21:45Z</time></trkpt><trkpt lat="42.108128649525675" lon="13.697203063653795"><ele>951.0</ele><time>2026-05-02T11:21:46Z</time></trkpt><trkpt lat="42.10812238438072" lon="13.69732589556077"><ele>951.0</ele><time>2026-05-02T11:21:48Z</time></trkpt><trkpt lat="42.10804316188231" lon="13.697346780382336"><ele>951.0</ele><time>2026-05-02T11:21:50Z</time></trkpt><trkpt lat="42.1079882787192" lon="13.697249617754903"><ele>951.0</ele><time>2026-05-02T11:21:52Z</time></trkpt><trkpt lat="42.107981300878905" lon="13.697158388259533"><ele>951.0</ele><time>2026-05-02T11:21:53Z</time></trkpt><trkpt lat="42.107961562369375" lon="13.697053638181846"><ele>951.0</ele><time>2026-05-02T11:21:54Z</time></trkpt><trkpt lat="42.107937205484866" lon="13.696942706445036"><ele>950.9999999999999</ele><time>2026-05-02T11:21:55Z</time></trkpt><trkpt lat="42.10790890451188" lon="13.696849955696575"><ele>950.9999999999999</ele><time>2026-05-02T11:21:56Z</time></trkpt><trkpt lat="42.10787297219294" lon="13.696683951705971"><ele>951.0</ele><time>2026-05-02T11:21:58Z</time></trkpt><trkpt lat="42.107870308621514" lon="13.696596467105872"><ele>951.0</ele><time>2026-05-02T11:21:59Z</time></trkpt><trkpt lat="42.10782262624599" lon="13.696424074965588"><ele>950.5999999999999</ele><time>2026-05-02T11:22:01Z</time></trkpt><trkpt lat="42.10779340560718" lon="13.69627512029694"><ele>950.1999999999999</ele><time>2026-05-02T11:22:02Z</time></trkpt><trkpt lat="42.10775835023995" lon="13.696149288954246"><ele>949.8000000000001</ele><time>2026-05-02T11:22:03Z</time></trkpt><trkpt lat="42.10771100563449" lon="13.696020933718172"><ele>949.4000000000001</ele><time>2026-05-02T11:22:04Z</time></trkpt><trkpt lat="42.10767680093512" lon="13.695873626179772"><ele>949.0</ele><time>2026-05-02T11:22:05Z</time></trkpt><trkpt lat="42.10764622420275" lon="13.695728184275731"><ele>948.2</ele><time>2026-05-02T11:22:06Z</time></trkpt><trkpt lat="42.10763190289542" lon="13.695580772677271"><ele>947.4000000000001</ele><time>2026-05-02T11:22:07Z</time></trkpt><trkpt lat="42.10763465026536" lon="13.695452336290158"><ele>946.6</ele><time>2026-05-02T11:22:08Z</time></trkpt><trkpt lat="42.107606101953564" lon="13.695320191060361"><ele>945.8</ele><time>2026-05-02T11:22:09Z</time></trkpt><trkpt lat="42.10757973589617" lon="13.695192916505151"><ele>945.0</ele><time>2026-05-02T11:22:10Z</time></trkpt><trkpt lat="42.10755634584494" lon="13.695078341884953"><ele>944.8333333333334</ele><time>2026-05-02T11:22:11Z</time></trkpt><trkpt lat="42.10754246440932" lon="13.694961753867334"><ele>944.6666666666667</ele><time>2026-05-02T11:22:12Z</time></trkpt><trkpt lat="42.1075253757945" lon="13.69483966726611"><ele>944.5</ele><time>2026-05-02T11:22:12.999Z</time></trkpt><trkpt lat="42.10750836682301" lon="13.694727585278411"><ele>944.3333333333334</ele><time>2026-05-02T11:22:13.999Z</time></trkpt><trkpt lat="42.10747968892028" lon="13.694606868105488"><ele>944.1666666666667</ele><time>2026-05-02T11:22:14.999Z</time></trkpt><trkpt lat="42.1074513050128" lon="13.694506425751968"><ele>944.0</ele><time>2026-05-02T11:22:15.999Z</time></trkpt><trkpt lat="42.10742228321216" lon="13.694413226920547"><ele>941.0000000000001</ele><time>2026-05-02T11:22:16.999Z</time></trkpt><trkpt lat="42.10737259232724" lon="13.694350791870834"><ele>938.0</ele><time>2026-05-02T11:22:17.999Z</time></trkpt><trkpt lat="42.10732015518427" lon="13.6942992166421"><ele>935.0</ele><time>2026-05-02T11:22:18.999Z</time></trkpt><trkpt lat="42.10718958363394" lon="13.694330653346857"><ele>932.0</ele><time>2026-05-02T11:22:20.999Z</time></trkpt><trkpt lat="42.1071210381108" lon="13.694337164051062"><ele>929.0000000000001</ele><time>2026-05-02T11:22:21.999Z</time></trkpt><trkpt lat="42.1070536546913" lon="13.694341181883031"><ele>926.0</ele><time>2026-05-02T11:22:22.999Z</time></trkpt><trkpt lat="42.10695981492357" lon="13.694334209244035"><ele>926.0</ele><time>2026-05-02T11:22:23.999Z</time></trkpt><trkpt lat="42.106839973311835" lon="13.69432706042798"><ele>925.9999999999999</ele><time>2026-05-02T11:22:24.999Z</time></trkpt><trkpt lat="42.106739476024046" lon="13.694311174825291"><ele>925.9999999999999</ele><time>2026-05-02T11:22:25.999Z</time></trkpt><trkpt lat="42.106661024531626" lon="13.694302195144365"><ele>926.0</ele><time>2026-05-02T11:22:26.999Z</time></trkpt><trkpt lat="42.10656098039034" lon="13.694274689999915"><ele>926.0</ele><time>2026-05-02T11:22:27.999Z</time></trkpt><trkpt lat="42.1064648061269" lon="13.694237124659388"><ele>923.5999999999999</ele><time>2026-05-02T11:22:28.999Z</time></trkpt><trkpt lat="42.10637365189116" lon="13.694213251957999"><ele>921.1999999999999</ele><time>2026-05-02T11:22:29.999Z</time></trkpt><trkpt lat="42.10627804245524" lon="13.694189156753499"><ele>918.8000000000001</ele><time>2026-05-02T11:22:30.999Z</time></trkpt><trkpt lat="42.10619000984142" lon="13.6941732062373"><ele>916.4000000000001</ele><time>2026-05-02T11:22:31.999Z</time></trkpt><trkpt lat="42.10608576877877" lon="13.694138078478158"><ele>914.0</ele><time>2026-05-02T11:22:32.999Z</time></trkpt><trkpt lat="42.10598609263793" lon="13.694088294298457"><ele>914.0</ele><time>2026-05-02T11:22:33.999Z</time></trkpt><trkpt lat="42.105886436182075" lon="13.694045751832835"><ele>914.0000000000001</ele><time>2026-05-02T11:22:34.999Z</time></trkpt><trkpt lat="42.10577881668263" lon="13.694021191221683"><ele>914.0000000000001</ele><time>2026-05-02T11:22:35.999Z</time></trkpt><trkpt lat="42.10567709937719" lon="13.693997595658068"><ele>914.0</ele><time>2026-05-02T11:22:36.999Z</time></trkpt><trkpt lat="42.105596661303416" lon="13.693983965615505"><ele>914.0</ele><time>2026-05-02T11:22:37.999Z</time></trkpt><trkpt lat="42.10550359373852" lon="13.69396016759918"><ele>912.4000000000001</ele><time>2026-05-02T11:22:38.999Z</time></trkpt><trkpt lat="42.105412780439615" lon="13.693959679308705"><ele>910.8000000000001</ele><time>2026-05-02T11:22:39.999Z</time></trkpt><trkpt lat="42.10532770210417" lon="13.693914276159376"><ele>909.1999999999999</ele><time>2026-05-02T11:22:40.999Z</time></trkpt><trkpt lat="42.105249604850776" lon="13.693899096304172"><ele>907.5999999999999</ele><time>2026-05-02T11:22:41.999Z</time></trkpt><trkpt lat="42.10517569056036" lon="13.693861815198678"><ele>906.0</ele><time>2026-05-02T11:22:42.999Z</time></trkpt><trkpt lat="42.10505671754269" lon="13.693818262422056"><ele>906.0</ele><time>2026-05-02T11:22:44.999Z</time></trkpt><trkpt lat="42.10500328549008" lon="13.693694283570055"><ele>905.9999999999999</ele><time>2026-05-02T11:22:46.999Z</time></trkpt><trkpt lat="42.10496361482921" lon="13.693579325298852"><ele>905.9999999999999</ele><time>2026-05-02T11:22:47.999Z</time></trkpt><trkpt lat="42.10492962131283" lon="13.693448104639746"><ele>906.0</ele><time>2026-05-02T11:22:48.999Z</time></trkpt><trkpt lat="42.104886929043424" lon="13.69334686361479"><ele>906.0</ele><time>2026-05-02T11:22:49.999Z</time></trkpt><trkpt lat="42.10484107071685" lon="13.693266208267005"><ele>908.1666666666666</ele><time>2026-05-02T11:22:50.999Z</time></trkpt><trkpt lat="42.10477881931414" lon="13.693208014734271"><ele>910.3333333333333</ele><time>2026-05-02T11:22:52.999Z</time></trkpt><trkpt lat="42.10469248463895" lon="13.69323274033527"><ele>912.5</ele><time>2026-05-02T11:22:54.999Z</time></trkpt><trkpt lat="42.10460739278489" lon="13.693254479931843"><ele>914.6666666666666</ele><time>2026-05-02T11:22:55.999Z</time></trkpt><trkpt lat="42.10451054904488" lon="13.693264596118404"><ele>916.8333333333333</ele><time>2026-05-02T11:22:56.999Z</time></trkpt><trkpt lat="42.1044197222011" lon="13.693265999437857"><ele>919.0</ele><time>2026-05-02T11:22:57.999Z</time></trkpt><trkpt lat="42.104317330501374" lon="13.693225762297004"><ele>919.0</ele><time>2026-05-02T11:22:58.999Z</time></trkpt><trkpt lat="42.10423751129699" lon="13.69321309190334"><ele>919.0000000000001</ele><time>2026-05-02T11:22:59.999Z</time></trkpt><trkpt lat="42.104167636667825" lon="13.693213178158613"><ele>919.0000000000001</ele><time>2026-05-02T11:23:00.999Z</time></trkpt><trkpt lat="42.10408681163872" lon="13.693346751339194"><ele>919.0</ele><time>2026-05-02T11:23:02.999Z</time></trkpt><trkpt lat="42.1040662539273" lon="13.693446930107198"><ele>919.0</ele><time>2026-05-02T11:23:03.999Z</time></trkpt><trkpt lat="42.104056144513606" lon="13.693584814188707"><ele>919.6666666666666</ele><time>2026-05-02T11:23:04.999Z</time></trkpt><trkpt lat="42.10404680968644" lon="13.693713758117205"><ele>920.3333333333333</ele><time>2026-05-02T11:23:05.999Z</time></trkpt><trkpt lat="42.10401430296571" lon="13.693823126078374"><ele>921.0</ele><time>2026-05-02T11:23:06.999Z</time></trkpt><trkpt lat="42.10398473416669" lon="13.693907764799153"><ele>921.6666666666667</ele><time>2026-05-02T11:23:07.999Z</time></trkpt><trkpt lat="42.10395150316131" lon="13.693984570195264"><ele>922.3333333333334</ele><time>2026-05-02T11:23:08.999Z</time></trkpt><trkpt lat="42.10390575511781" lon="13.694051580216454"><ele>923.0</ele><time>2026-05-02T11:23:09.999Z</time></trkpt><trkpt lat="42.103843008114765" lon="13.69411592362691"><ele>923.0</ele><time>2026-05-02T11:23:10.999Z</time></trkpt><trkpt lat="42.10375728520447" lon="13.694138561062589"><ele>923.0</ele><time>2026-05-02T11:23:11.999Z</time></trkpt><trkpt lat="42.10366067190523" lon="13.694128300259221"><ele>923.0</ele><time>2026-05-02T11:23:12.999Z</time></trkpt><trkpt lat="42.10356743912444" lon="13.694113018706176"><ele>923.0</ele><time>2026-05-02T11:23:13.998Z</time></trkpt><trkpt lat="42.10345500295917" lon="13.694094177996964"><ele>923.0</ele><time>2026-05-02T11:23:14.998Z</time></trkpt><trkpt lat="42.103353168462654" lon="13.694078507225196"><ele>923.0000000000001</ele><time>2026-05-02T11:23:15.998Z</time></trkpt><trkpt lat="42.10326481994277" lon="13.694072241256677"><ele>923.0</ele><time>2026-05-02T11:23:16.998Z</time></trkpt><trkpt lat="42.103185353046854" lon="13.694078453573368"><ele>923.0</ele><time>2026-05-02T11:23:17.998Z</time></trkpt><trkpt lat="42.10310545120152" lon="13.694088667508725"><ele>923.0</ele><time>2026-05-02T11:23:18.998Z</time></trkpt><trkpt lat="42.10302105139636" lon="13.694104656314295"><ele>923.0000000000001</ele><time>2026-05-02T11:23:19.998Z</time></trkpt><trkpt lat="42.102940666526464" lon="13.694118871898917"><ele>923.0</ele><time>2026-05-02T11:23:20.998Z</time></trkpt><trkpt lat="42.10285874853506" lon="13.694126857485417"><ele>923.6666666666667</ele><time>2026-05-02T11:23:21.998Z</time></trkpt><trkpt lat="42.10278792082303" lon="13.694125851500866"><ele>924.3333333333334</ele><time>2026-05-02T11:23:22.998Z</time></trkpt><trkpt lat="42.10271428979738" lon="13.694123408508252"><ele>925.0</ele><time>2026-05-02T11:23:23.998Z</time></trkpt><trkpt lat="42.10262332660612" lon="13.69411850445964"><ele>925.6666666666667</ele><time>2026-05-02T11:23:24.998Z</time></trkpt><trkpt lat="42.10253000633654" lon="13.694109814864325"><ele>926.3333333333334</ele><time>2026-05-02T11:23:25.998Z</time></trkpt><trkpt lat="42.10243473437533" lon="13.69409714659729"><ele>927.0</ele><time>2026-05-02T11:23:26.998Z</time></trkpt><trkpt lat="42.102339252815334" lon="13.694089697882026"><ele>928.0</ele><time>2026-05-02T11:23:27.998Z</time></trkpt><trkpt lat="42.102241011547875" lon="13.694082987622078"><ele>929.0</ele><time>2026-05-02T11:23:28.998Z</time></trkpt><trkpt lat="42.10214346902399" lon="13.694073977071447"><ele>930.0</ele><time>2026-05-02T11:23:29.998Z</time></trkpt><trkpt lat="42.1020567480494" lon="13.694054739002983"><ele>931.0</ele><time>2026-05-02T11:23:30.998Z</time></trkpt><trkpt lat="42.10197771434739" lon="13.694027053843236"><ele>932.0</ele><time>2026-05-02T11:23:31.998Z</time></trkpt><trkpt lat="42.101913472654815" lon="13.693979256093444"><ele>933.0</ele><time>2026-05-02T11:23:32.998Z</time></trkpt><trkpt lat="42.10186331478363" lon="13.693902840308398"><ele>933.0</ele><time>2026-05-02T11:23:33.998Z</time></trkpt><trkpt lat="42.101810752904065" lon="13.693823408618512"><ele>933.0</ele><time>2026-05-02T11:23:34.998Z</time></trkpt><trkpt lat="42.101770261667" lon="13.693746373871823"><ele>933.0</ele><time>2026-05-02T11:23:35.998Z</time></trkpt><trkpt lat="42.10170442623512" lon="13.693636481388019"><ele>933.0</ele><time>2026-05-02T11:23:37.998Z</time></trkpt><trkpt lat="42.101605715762425" lon="13.69354872172778"><ele>933.0</ele><time>2026-05-02T11:23:39.998Z</time></trkpt><trkpt lat="42.101537229168365" lon="13.693517412072527"><ele>933.0</ele><time>2026-05-02T11:23:40.998Z</time></trkpt><trkpt lat="42.101423298747456" lon="13.693490907972246"><ele>935.8</ele><time>2026-05-02T11:23:42.998Z</time></trkpt><trkpt lat="42.101319741011665" lon="13.69353610607035"><ele>938.5999999999999</ele><time>2026-05-02T11:23:44.998Z</time></trkpt><trkpt lat="42.10124378779198" lon="13.693668770173947"><ele>941.4000000000001</ele><time>2026-05-02T11:23:46.998Z</time></trkpt><trkpt lat="42.10120292196628" lon="13.693745700143685"><ele>944.2</ele><time>2026-05-02T11:23:47.998Z</time></trkpt><trkpt lat="42.10115256370331" lon="13.69381908259456"><ele>947.0</ele><time>2026-05-02T11:23:48.998Z</time></trkpt><trkpt lat="42.10110062234685" lon="13.693890787983422"><ele>947.0000000000001</ele><time>2026-05-02T11:23:49.998Z</time></trkpt><trkpt lat="42.10104167459484" lon="13.693959879518534"><ele>947.0</ele><time>2026-05-02T11:23:50.998Z</time></trkpt><trkpt lat="42.10096855811454" lon="13.694019774581664"><ele>947.0</ele><time>2026-05-02T11:23:51.998Z</time></trkpt><trkpt lat="42.10089289131765" lon="13.694092695802587"><ele>947.0</ele><time>2026-05-02T11:23:52.998Z</time></trkpt><trkpt lat="42.10082999288884" lon="13.694182905332132"><ele>947.0000000000001</ele><time>2026-05-02T11:23:53.998Z</time></trkpt><trkpt lat="42.10076113493213" lon="13.694229156723223"><ele>947.0</ele><time>2026-05-02T11:23:54.998Z</time></trkpt><trkpt lat="42.100693986918166" lon="13.694242258088819"><ele>949.3333333333334</ele><time>2026-05-02T11:23:55.998Z</time></trkpt><trkpt lat="42.10062725642074" lon="13.694240788794644"><ele>951.6666666666667</ele><time>2026-05-02T11:23:56.998Z</time></trkpt><trkpt lat="42.10056001592569" lon="13.694234898738827"><ele>954.0</ele><time>2026-05-02T11:23:57.998Z</time></trkpt><trkpt lat="42.10049197505993" lon="13.69419851635685"><ele>956.3333333333333</ele><time>2026-05-02T11:23:58.998Z</time></trkpt><trkpt lat="42.100425567436844" lon="13.694162062511838"><ele>958.6666666666666</ele><time>2026-05-02T11:23:59.998Z</time></trkpt><trkpt lat="42.10033573519587" lon="13.694113181993723"><ele>961.0</ele><time>2026-05-02T11:24:01.998Z</time></trkpt><trkpt lat="42.100244823329575" lon="13.694109181762482"><ele>961.0</ele><time>2026-05-02T11:24:03.998Z</time></trkpt><trkpt lat="42.10011182589294" lon="13.694041159499644"><ele>960.9999999999999</ele><time>2026-05-02T11:24:05.998Z</time></trkpt><trkpt lat="42.100022525273246" lon="13.693995355948282"><ele>960.9999999999999</ele><time>2026-05-02T11:24:06.998Z</time></trkpt><trkpt lat="42.09990778035609" lon="13.693997384992757"><ele>961.0</ele><time>2026-05-02T11:24:07.998Z</time></trkpt><trkpt lat="42.09981661965166" lon="13.69397221233181"><ele>961.0</ele><time>2026-05-02T11:24:08.998Z</time></trkpt><trkpt lat="42.09976047224985" lon="13.69392890244302"><ele>964.4</ele><time>2026-05-02T11:24:09.998Z</time></trkpt><trkpt lat="42.09972071890346" lon="13.69381133865116"><ele>967.8</ele><time>2026-05-02T11:24:11.998Z</time></trkpt><trkpt lat="42.09967258862491" lon="13.69366242012808"><ele>971.1999999999999</ele><time>2026-05-02T11:24:13.998Z</time></trkpt><trkpt lat="42.09962253008359" lon="13.693520383882172"><ele>974.5999999999999</ele><time>2026-05-02T11:24:15.998Z</time></trkpt><trkpt lat="42.09959275425219" lon="13.693438236879004"><ele>978.0</ele><time>2026-05-02T11:24:16.998Z</time></trkpt><trkpt lat="42.09951377200321" lon="13.693312256961688"><ele>979.5</ele><time>2026-05-02T11:24:18.998Z</time></trkpt><trkpt lat="42.099446725281545" lon="13.693261265969753"><ele>981.0</ele><time>2026-05-02T11:24:19.998Z</time></trkpt><trkpt lat="42.09936792631968" lon="13.693230768235386"><ele>982.5</ele><time>2026-05-02T11:24:20.998Z</time></trkpt><trkpt lat="42.099289528792944" lon="13.69320456413577"><ele>984.0</ele><time>2026-05-02T11:24:21.998Z</time></trkpt><trkpt lat="42.099196758594346" lon="13.69322141119149"><ele>985.5</ele><time>2026-05-02T11:24:23.998Z</time></trkpt><trkpt lat="42.09909719746812" lon="13.693260101984883"><ele>987.0</ele><time>2026-05-02T11:24:25.998Z</time></trkpt><trkpt lat="42.09900862970598" lon="13.693311060486138"><ele>989.8333333333334</ele><time>2026-05-02T11:24:27.998Z</time></trkpt><trkpt lat="42.0989409504705" lon="13.693411738401933"><ele>992.6666666666667</ele><time>2026-05-02T11:24:29.998Z</time></trkpt><trkpt lat="42.09891957089232" lon="13.69354794765535"><ele>995.5</ele><time>2026-05-02T11:24:31.998Z</time></trkpt><trkpt lat="42.09891724247174" lon="13.693663949809794"><ele>998.3333333333334</ele><time>2026-05-02T11:24:32.998Z</time></trkpt><trkpt lat="42.098928331876486" lon="13.693757323544272"><ele>1001.1666666666667</ele><time>2026-05-02T11:24:33.998Z</time></trkpt><trkpt lat="42.09893110223729" lon="13.693851735490936"><ele>1004.0</ele><time>2026-05-02T11:24:34.998Z</time></trkpt><trkpt lat="42.098905019642814" lon="13.69399579287745"><ele>1004.0000000000001</ele><time>2026-05-02T11:24:36.997Z</time></trkpt><trkpt lat="42.09883296763779" lon="13.69410285252685"><ele>1004.0</ele><time>2026-05-02T11:24:38.997Z</time></trkpt><trkpt lat="42.0987743058255" lon="13.694154509595315"><ele>1004.0</ele><time>2026-05-02T11:24:39.997Z</time></trkpt><trkpt lat="42.09870074580392" lon="13.694216645222147"><ele>1004.0</ele><time>2026-05-02T11:24:40.997Z</time></trkpt><trkpt lat="42.09863243335538" lon="13.694278207374245"><ele>1004.0000000000001</ele><time>2026-05-02T11:24:41.997Z</time></trkpt><trkpt lat="42.098562449456644" lon="13.694350921095216"><ele>1004.0</ele><time>2026-05-02T11:24:42.997Z</time></trkpt><trkpt lat="42.09849841407681" lon="13.694427844536206"><ele>1004.0000000000001</ele><time>2026-05-02T11:24:43.997Z</time></trkpt><trkpt lat="42.098442115780756" lon="13.694512219172633"><ele>1004.0</ele><time>2026-05-02T11:24:44.997Z</time></trkpt><trkpt lat="42.09839604084869" lon="13.694600525114922"><ele>1004.0</ele><time>2026-05-02T11:24:45.997Z</time></trkpt><trkpt lat="42.09835179635962" lon="13.694701071596183"><ele>1004.0</ele><time>2026-05-02T11:24:46.997Z</time></trkpt><trkpt lat="42.098308395486654" lon="13.694813901249919"><ele>1004.0000000000001</ele><time>2026-05-02T11:24:47.997Z</time></trkpt><trkpt lat="42.0982637545373" lon="13.694900295156994"><ele>1004.0</ele><time>2026-05-02T11:24:48.997Z</time></trkpt><trkpt lat="42.09821636230044" lon="13.694980065144874"><ele>1004.0</ele><time>2026-05-02T11:24:49.997Z</time></trkpt><trkpt lat="42.09815309871196" lon="13.695094860931233"><ele>1004.0000000000001</ele><time>2026-05-02T11:24:50.997Z</time></trkpt><trkpt lat="42.09808874712294" lon="13.695212415598835"><ele>1004.0000000000001</ele><time>2026-05-02T11:24:51.997Z</time></trkpt><trkpt lat="42.09803274645488" lon="13.695303774575672"><ele>1004.0</ele><time>2026-05-02T11:24:52.997Z</time></trkpt><trkpt lat="42.09797570844181" lon="13.695385438679113"><ele>1004.0</ele><time>2026-05-02T11:24:53.997Z</time></trkpt><trkpt lat="42.09792143797961" lon="13.695441869155928"><ele>1002.4000000000001</ele><time>2026-05-02T11:24:54.997Z</time></trkpt><trkpt lat="42.09784897563765" lon="13.695484507325652"><ele>1000.8000000000001</ele><time>2026-05-02T11:24:55.997Z</time></trkpt><trkpt lat="42.097760998168404" lon="13.695528528960017"><ele>999.1999999999999</ele><time>2026-05-02T11:24:56.997Z</time></trkpt><trkpt lat="42.0976414684538" lon="13.69558801147625"><ele>997.5999999999999</ele><time>2026-05-02T11:24:57.997Z</time></trkpt><trkpt lat="42.09753724756779" lon="13.695621702242878"><ele>996.0</ele><time>2026-05-02T11:24:58.997Z</time></trkpt><trkpt lat="42.09744521426726" lon="13.695651459929273"><ele>996.4</ele><time>2026-05-02T11:24:59.997Z</time></trkpt><trkpt lat="42.09736020361391" lon="13.695688196577468"><ele>996.8</ele><time>2026-05-02T11:25:00.997Z</time></trkpt><trkpt lat="42.09727025078547" lon="13.695732722548316"><ele>997.1999999999999</ele><time>2026-05-02T11:25:01.997Z</time></trkpt><trkpt lat="42.097180957007424" lon="13.695780977512584"><ele>997.5999999999999</ele><time>2026-05-02T11:25:02.997Z</time></trkpt><trkpt lat="42.0970936126917" lon="13.695824930275748"><ele>998.0</ele><time>2026-05-02T11:25:03.997Z</time></trkpt><trkpt lat="42.097006799725776" lon="13.695846419123262"><ele>998.0</ele><time>2026-05-02T11:25:04.997Z</time></trkpt><trkpt lat="42.09691881153313" lon="13.695864269462398"><ele>998.0</ele><time>2026-05-02T11:25:05.997Z</time></trkpt><trkpt lat="42.09683605622773" lon="13.69586582912269"><ele>998.0</ele><time>2026-05-02T11:25:06.997Z</time></trkpt><trkpt lat="42.096762888790494" lon="13.695868168876242"><ele>998.0</ele><time>2026-05-02T11:25:07.997Z</time></trkpt><trkpt lat="42.09665721790244" lon="13.695802987218245"><ele>998.0</ele><time>2026-05-02T11:25:09.997Z</time></trkpt><trkpt lat="42.0965595829383" lon="13.695719207193314"><ele>997.6666666666667</ele><time>2026-05-02T11:25:11.997Z</time></trkpt><trkpt lat="42.09648184321482" lon="13.695698795921963"><ele>997.3333333333334</ele><time>2026-05-02T11:25:13.997Z</time></trkpt><trkpt lat="42.09639050912779" lon="13.695731082246482"><ele>997.0</ele><time>2026-05-02T11:25:15.997Z</time></trkpt><trkpt lat="42.096321565906464" lon="13.695757039217062"><ele>996.6666666666667</ele><time>2026-05-02T11:25:16.997Z</time></trkpt><trkpt lat="42.096226790308584" lon="13.695803719997114"><ele>996.3333333333334</ele><time>2026-05-02T11:25:17.997Z</time></trkpt><trkpt lat="42.09613374078036" lon="13.695863783102677"><ele>996.0</ele><time>2026-05-02T11:25:18.997Z</time></trkpt><trkpt lat="42.09605370889035" lon="13.695920314887706"><ele>996.0</ele><time>2026-05-02T11:25:19.997Z</time></trkpt><trkpt lat="42.09598174790833" lon="13.695956872400322"><ele>995.9999999999999</ele><time>2026-05-02T11:25:20.997Z</time></trkpt><trkpt lat="42.09592003742502" lon="13.695983918409892"><ele>996.0</ele><time>2026-05-02T11:25:21.997Z</time></trkpt><trkpt lat="42.09585825456562" lon="13.695961753806968"><ele>996.0</ele><time>2026-05-02T11:25:22.997Z</time></trkpt><trkpt lat="42.09579681647254" lon="13.695896088665124"><ele>995.9999999999999</ele><time>2026-05-02T11:25:23.997Z</time></trkpt><trkpt lat="42.095729775942345" lon="13.695837001101667"><ele>996.0</ele><time>2026-05-02T11:25:24.997Z</time></trkpt><trkpt lat="42.09566323452275" lon="13.695785859993046"><ele>996.0</ele><time>2026-05-02T11:25:25.997Z</time></trkpt><trkpt lat="42.095593697812355" lon="13.695763084083714"><ele>997.1666666666666</ele><time>2026-05-02T11:25:26.997Z</time></trkpt><trkpt lat="42.095518547887764" lon="13.695756133903254"><ele>998.3333333333333</ele><time>2026-05-02T11:25:27.997Z</time></trkpt><trkpt lat="42.09543169440645" lon="13.695740626495251"><ele>999.5</ele><time>2026-05-02T11:25:28.997Z</time></trkpt><trkpt lat="42.0953427624639" lon="13.695746535419305"><ele>1000.6666666666666</ele><time>2026-05-02T11:25:29.997Z</time></trkpt><trkpt lat="42.09526704977554" lon="13.695766845442922"><ele>1001.8333333333333</ele><time>2026-05-02T11:25:30.997Z</time></trkpt><trkpt lat="42.095200594820156" lon="13.695771212278395"><ele>1003.0</ele><time>2026-05-02T11:25:31.997Z</time></trkpt><trkpt lat="42.095093708928275" lon="13.695844958885036"><ele>1002.9999999999999</ele><time>2026-05-02T11:25:33.997Z</time></trkpt><trkpt lat="42.095015471049976" lon="13.695887084617086"><ele>1003.0</ele><time>2026-05-02T11:25:34.997Z</time></trkpt><trkpt lat="42.09493028592573" lon="13.695918806919126"><ele>1003.0</ele><time>2026-05-02T11:25:35.997Z</time></trkpt><trkpt lat="42.09484177698864" lon="13.695943300452843"><ele>1003.0</ele><time>2026-05-02T11:25:36.997Z</time></trkpt><trkpt lat="42.09475784697767" lon="13.695978428624365"><ele>1002.9999999999999</ele><time>2026-05-02T11:25:37.997Z</time></trkpt><trkpt lat="42.09467799620729" lon="13.696018068927723"><ele>1003.0</ele><time>2026-05-02T11:25:38.997Z</time></trkpt><trkpt lat="42.09460181066693" lon="13.696068027611599"><ele>1002.0</ele><time>2026-05-02T11:25:39.997Z</time></trkpt><trkpt lat="42.09452901257054" lon="13.696121685896532"><ele>1001.0</ele><time>2026-05-02T11:25:40.997Z</time></trkpt><trkpt lat="42.09445670723967" lon="13.696180130917028"><ele>1000.0</ele><time>2026-05-02T11:25:41.997Z</time></trkpt><trkpt lat="42.09437459220909" lon="13.696228162946412"><ele>999.0</ele><time>2026-05-02T11:25:42.997Z</time></trkpt><trkpt lat="42.09427508516704" lon="13.696269776529808"><ele>998.0</ele><time>2026-05-02T11:25:43.997Z</time></trkpt><trkpt lat="42.09418121529043" lon="13.696319936457813"><ele>998.0</ele><time>2026-05-02T11:25:44.997Z</time></trkpt><trkpt lat="42.09408875243823" lon="13.696356786955857"><ele>998.0</ele><time>2026-05-02T11:25:45.997Z</time></trkpt><trkpt lat="42.09399790376752" lon="13.696381930952201"><ele>998.0</ele><time>2026-05-02T11:25:46.997Z</time></trkpt><trkpt lat="42.09390603575298" lon="13.696411038161777"><ele>998.0</ele><time>2026-05-02T11:25:47.997Z</time></trkpt><trkpt lat="42.09381894111757" lon="13.696455412688353"><ele>998.0</ele><time>2026-05-02T11:25:48.997Z</time></trkpt><trkpt lat="42.09373693482394" lon="13.696525981520084"><ele>999.2</ele><time>2026-05-02T11:25:49.997Z</time></trkpt><trkpt lat="42.09365873633407" lon="13.696612239266681"><ele>1000.4</ele><time>2026-05-02T11:25:50.997Z</time></trkpt><trkpt lat="42.093589955070094" lon="13.696714542607172"><ele>1001.6000000000001</ele><time>2026-05-02T11:25:51.997Z</time></trkpt><trkpt lat="42.09352098922677" lon="13.696820367400873"><ele>1002.8000000000001</ele><time>2026-05-02T11:25:52.997Z</time></trkpt><trkpt lat="42.09345494999839" lon="13.696933344951184"><ele>1004.0</ele><time>2026-05-02T11:25:53.997Z</time></trkpt><trkpt lat="42.093390545599654" lon="13.697048332653493"><ele>1004.0</ele><time>2026-05-02T11:25:54.997Z</time></trkpt><trkpt lat="42.09333509935651" lon="13.697156951550296"><ele>1004.0000000000001</ele><time>2026-05-02T11:25:55.997Z</time></trkpt><trkpt lat="42.09328035190193" lon="13.697253473550257"><ele>1004.0000000000001</ele><time>2026-05-02T11:25:56.997Z</time></trkpt><trkpt lat="42.09323020454201" lon="13.697362856931925"><ele>1004.0</ele><time>2026-05-02T11:25:57.997Z</time></trkpt><trkpt lat="42.09317625281085" lon="13.69747207681931"><ele>1004.0</ele><time>2026-05-02T11:25:58.997Z</time></trkpt><trkpt lat="42.09312289898318" lon="13.697573862252229"><ele>1003.8333333333334</ele><time>2026-05-02T11:25:59.997Z</time></trkpt><trkpt lat="42.093069155189845" lon="13.697656525929577"><ele>1003.6666666666667</ele><time>2026-05-02T11:26:00.997Z</time></trkpt><trkpt lat="42.0930115070461" lon="13.697718196154511"><ele>1003.5</ele><time>2026-05-02T11:26:01.997Z</time></trkpt><trkpt lat="42.092945630062744" lon="13.69776214477681"><ele>1003.3333333333333</ele><time>2026-05-02T11:26:02.997Z</time></trkpt><trkpt lat="42.09287694681124" lon="13.697785131218302"><ele>1003.1666666666666</ele><time>2026-05-02T11:26:03.997Z</time></trkpt><trkpt lat="42.09280797702547" lon="13.69777033323264"><ele>1003.0</ele><time>2026-05-02T11:26:04.997Z</time></trkpt><trkpt lat="42.092732369453074" lon="13.697733514886437"><ele>1003.0</ele><time>2026-05-02T11:26:05.997Z</time></trkpt><trkpt lat="42.09265966282105" lon="13.697698822558825"><ele>1003.0</ele><time>2026-05-02T11:26:06.997Z</time></trkpt><trkpt lat="42.09258223556485" lon="13.697686901481376"><ele>1003.0</ele><time>2026-05-02T11:26:07.997Z</time></trkpt><trkpt lat="42.09249095944651" lon="13.697689775642251"><ele>1003.0</ele><time>2026-05-02T11:26:08.997Z</time></trkpt><trkpt lat="42.09238014752979" lon="13.697711094681"><ele>1003.0</ele><time>2026-05-02T11:26:09.997Z</time></trkpt><trkpt lat="42.09226935567923" lon="13.697745296311314"><ele>1001.4</ele><time>2026-05-02T11:26:10.997Z</time></trkpt><trkpt lat="42.092172219641114" lon="13.697784773502276"><ele>999.8</ele><time>2026-05-02T11:26:11.997Z</time></trkpt><trkpt lat="42.09208512027192" lon="13.697804008043338"><ele>998.2</ele><time>2026-05-02T11:26:12.997Z</time></trkpt><trkpt lat="42.091999659431686" lon="13.69780829111381"><ele>996.6</ele><time>2026-05-02T11:26:13.997Z</time></trkpt><trkpt lat="42.09190811824034" lon="13.697809604003513"><ele>995.0</ele><time>2026-05-02T11:26:14.997Z</time></trkpt><trkpt lat="42.09181356445795" lon="13.697810304799575"><ele>995.0</ele><time>2026-05-02T11:26:15.997Z</time></trkpt><trkpt lat="42.091723343794264" lon="13.697822525341481"><ele>995.0</ele><time>2026-05-02T11:26:16.997Z</time></trkpt><trkpt lat="42.09163371431508" lon="13.697872620399243"><ele>995.0</ele><time>2026-05-02T11:26:17.997Z</time></trkpt><trkpt lat="42.09154343107743" lon="13.697940858090323"><ele>995.0</ele><time>2026-05-02T11:26:18.997Z</time></trkpt><trkpt lat="42.09145402282443" lon="13.698011296717077"><ele>995.0</ele><time>2026-05-02T11:26:19.997Z</time></trkpt><trkpt lat="42.09136221264058" lon="13.698075533868726"><ele>994.4</ele><time>2026-05-02T11:26:20.997Z</time></trkpt><trkpt lat="42.09127071766823" lon="13.698129664435195"><ele>993.8</ele><time>2026-05-02T11:26:21.997Z</time></trkpt><trkpt lat="42.09118473599933" lon="13.698188226924335"><ele>993.2</ele><time>2026-05-02T11:26:22.997Z</time></trkpt><trkpt lat="42.091101844153926" lon="13.698243512304641"><ele>992.6</ele><time>2026-05-02T11:26:23.997Z</time></trkpt><trkpt lat="42.09102958011777" lon="13.69827558473353"><ele>992.0</ele><time>2026-05-02T11:26:24.997Z</time></trkpt><trkpt lat="42.09094769109925" lon="13.698353788781285"><ele>992.0</ele><time>2026-05-02T11:26:26.997Z</time></trkpt><trkpt lat="42.09090744526646" lon="13.698504047281851"><ele>992.0</ele><time>2026-05-02T11:26:28.997Z</time></trkpt><trkpt lat="42.09090872606924" lon="13.698604938739942"><ele>992.0</ele><time>2026-05-02T11:26:29.997Z</time></trkpt><trkpt lat="42.09089653040118" lon="13.698694049783787"><ele>992.0</ele><time>2026-05-02T11:26:30.997Z</time></trkpt><trkpt lat="42.090836130449446" lon="13.69882237874911"><ele>992.0</ele><time>2026-05-02T11:26:32.997Z</time></trkpt><trkpt lat="42.09075441262723" lon="13.698901257010915"><ele>993.0</ele><time>2026-05-02T11:26:34.997Z</time></trkpt><trkpt lat="42.09064421606751" lon="13.698996876385149"><ele>994.0</ele><time>2026-05-02T11:26:36.997Z</time></trkpt><trkpt lat="42.090586086602706" lon="13.699063927158782"><ele>995.0</ele><time>2026-05-02T11:26:37.997Z</time></trkpt><trkpt lat="42.09051265206052" lon="13.699126318415225"><ele>996.0</ele><time>2026-05-02T11:26:38.997Z</time></trkpt><trkpt lat="42.09042326772183" lon="13.699179567270747"><ele>997.0</ele><time>2026-05-02T11:26:39.997Z</time></trkpt><trkpt lat="42.09032439436714" lon="13.699229969225396"><ele>997.0</ele><time>2026-05-02T11:26:40.997Z</time></trkpt><trkpt lat="42.09023441833331" lon="13.699298896918652"><ele>997.0</ele><time>2026-05-02T11:26:41.997Z</time></trkpt><trkpt lat="42.090152193581986" lon="13.699369494822916"><ele>997.0</ele><time>2026-05-02T11:26:42.997Z</time></trkpt><trkpt lat="42.09007089141348" lon="13.699416801424599"><ele>997.0</ele><time>2026-05-02T11:26:43.997Z</time></trkpt><trkpt lat="42.08999901522477" lon="13.699441805437523"><ele>997.0</ele><time>2026-05-02T11:26:44.997Z</time></trkpt><trkpt lat="42.08987450487451" lon="13.699414666247812"><ele>997.4999999999999</ele><time>2026-05-02T11:26:46.997Z</time></trkpt><trkpt lat="42.0898131092911" lon="13.699367263346454"><ele>998.0</ele><time>2026-05-02T11:26:47.997Z</time></trkpt><trkpt lat="42.089757572471676" lon="13.699289951878345"><ele>998.5</ele><time>2026-05-02T11:26:48.997Z</time></trkpt><trkpt lat="42.08970509248752" lon="13.699185398550418"><ele>999.0</ele><time>2026-05-02T11:26:49.997Z</time></trkpt><trkpt lat="42.089660322317286" lon="13.699064325355891"><ele>999.4999999999999</ele><time>2026-05-02T11:26:50.997Z</time></trkpt><trkpt lat="42.08962679253638" lon="13.698942439022286"><ele>1000.0</ele><time>2026-05-02T11:26:51.997Z</time></trkpt><trkpt lat="42.08960565187348" lon="13.698823848078318"><ele>1000.0</ele><time>2026-05-02T11:26:52.997Z</time></trkpt><trkpt lat="42.08958828747044" lon="13.698701271589304"><ele>1000.0</ele><time>2026-05-02T11:26:53.997Z</time></trkpt><trkpt lat="42.089576173494265" lon="13.69857415049325"><ele>1000.0</ele><time>2026-05-02T11:26:54.997Z</time></trkpt><trkpt lat="42.08957462630802" lon="13.69845397344017"><ele>1000.0</ele><time>2026-05-02T11:26:55.997Z</time></trkpt><trkpt lat="42.08957538322329" lon="13.698350124994002"><ele>1000.0</ele><time>2026-05-02T11:26:56.997Z</time></trkpt><trkpt lat="42.089542473821595" lon="13.698191244688585"><ele>999.1666666666666</ele><time>2026-05-02T11:26:58.996Z</time></trkpt><trkpt lat="42.08949963017572" lon="13.698122750973804"><ele>998.3333333333333</ele><time>2026-05-02T11:26:59.996Z</time></trkpt><trkpt lat="42.089456790496186" lon="13.698053621312486"><ele>997.5</ele><time>2026-05-02T11:27:00.996Z</time></trkpt><trkpt lat="42.08936632650856" lon="13.698005951302044"><ele>996.6666666666667</ele><time>2026-05-02T11:27:02.996Z</time></trkpt><trkpt lat="42.08927695726329" lon="13.698009508475876"><ele>995.8333333333334</ele><time>2026-05-02T11:27:04.996Z</time></trkpt><trkpt lat="42.08920507713004" lon="13.698041167961774"><ele>995.0</ele><time>2026-05-02T11:27:05.996Z</time></trkpt><trkpt lat="42.08912757889696" lon="13.698086862106955"><ele>995.0</ele><time>2026-05-02T11:27:06.996Z</time></trkpt><trkpt lat="42.08904443475312" lon="13.698150283514952"><ele>995.0</ele><time>2026-05-02T11:27:07.996Z</time></trkpt><trkpt lat="42.08896183618785" lon="13.698227025240366"><ele>995.0</ele><time>2026-05-02T11:27:08.996Z</time></trkpt><trkpt lat="42.088890465077306" lon="13.698298793371475"><ele>995.0</ele><time>2026-05-02T11:27:09.996Z</time></trkpt><trkpt lat="42.088813390311785" lon="13.698356756529718"><ele>995.0</ele><time>2026-05-02T11:27:10.996Z</time></trkpt><trkpt lat="42.08871444187309" lon="13.698400532714443"><ele>995.0</ele><time>2026-05-02T11:27:11.996Z</time></trkpt><trkpt lat="42.088607385307725" lon="13.698466964449075"><ele>995.0</ele><time>2026-05-02T11:27:12.996Z</time></trkpt><trkpt lat="42.08850916599267" lon="13.698540085874258"><ele>995.0</ele><time>2026-05-02T11:27:13.999Z</time></trkpt><trkpt lat="42.08842692363915" lon="13.698593762648231"><ele>995.0</ele><time>2026-05-02T11:27:14.999Z</time></trkpt><trkpt lat="42.088351176645254" lon="13.698624827567668"><ele>995.0</ele><time>2026-05-02T11:27:15.999Z</time></trkpt><trkpt lat="42.08828355230466" lon="13.698665058903455"><ele>994.3333333333334</ele><time>2026-05-02T11:27:16.999Z</time></trkpt><trkpt lat="42.088214935229104" lon="13.698728934757122"><ele>993.6666666666667</ele><time>2026-05-02T11:27:17.999Z</time></trkpt><trkpt lat="42.08814037584958" lon="13.698813621887584"><ele>993.0</ele><time>2026-05-02T11:27:18.999Z</time></trkpt><trkpt lat="42.088070878458836" lon="13.698903837280637"><ele>992.3333333333333</ele><time>2026-05-02T11:27:19.999Z</time></trkpt><trkpt lat="42.08801464352205" lon="13.698992252733825"><ele>991.6666666666666</ele><time>2026-05-02T11:27:20.999Z</time></trkpt><trkpt lat="42.08797520874835" lon="13.69907721317555"><ele>991.0</ele><time>2026-05-02T11:27:21.999Z</time></trkpt><trkpt lat="42.08795117499444" lon="13.699164055061939"><ele>990.9999999999999</ele><time>2026-05-02T11:27:22.999Z</time></trkpt><trkpt lat="42.08794003896555" lon="13.69925586402815"><ele>991.0</ele><time>2026-05-02T11:27:23.999Z</time></trkpt><trkpt lat="42.087942281987274" lon="13.699359437312976"><ele>991.0</ele><time>2026-05-02T11:27:24.999Z</time></trkpt><trkpt lat="42.08795296981577" lon="13.699476325659191"><ele>991.0</ele><time>2026-05-02T11:27:25.999Z</time></trkpt><trkpt lat="42.087951424663814" lon="13.6995983930743"><ele>990.9999999999999</ele><time>2026-05-02T11:27:26.999Z</time></trkpt><trkpt lat="42.08794040004797" lon="13.699708499927779"><ele>991.0</ele><time>2026-05-02T11:27:27.999Z</time></trkpt><trkpt lat="42.087913440461804" lon="13.699792103527493"><ele>989.3333333333333</ele><time>2026-05-02T11:27:28.999Z</time></trkpt><trkpt lat="42.08786661535412" lon="13.699866103747"><ele>987.6666666666666</ele><time>2026-05-02T11:27:29.999Z</time></trkpt><trkpt lat="42.08779822310799" lon="13.699933251095056"><ele>986.0</ele><time>2026-05-02T11:27:30.999Z</time></trkpt><trkpt lat="42.08770511000908" lon="13.699980312546307"><ele>984.3333333333333</ele><time>2026-05-02T11:27:32Z</time></trkpt><trkpt lat="42.08760647747899" lon="13.700021633266196"><ele>982.6666666666666</ele><time>2026-05-02T11:27:33Z</time></trkpt><trkpt lat="42.087523351396506" lon="13.700050807487681"><ele>981.0</ele><time>2026-05-02T11:27:34Z</time></trkpt><trkpt lat="42.08745496162142" lon="13.700092056237533"><ele>981.4</ele><time>2026-05-02T11:27:35Z</time></trkpt><trkpt lat="42.087374752337816" lon="13.700153465585627"><ele>981.8</ele><time>2026-05-02T11:27:36Z</time></trkpt><trkpt lat="42.08728437727479" lon="13.70023234104207"><ele>982.1999999999999</ele><time>2026-05-02T11:27:37Z</time></trkpt><trkpt lat="42.087195872121214" lon="13.700304050232818"><ele>982.5999999999999</ele><time>2026-05-02T11:27:38Z</time></trkpt><trkpt lat="42.08711589098649" lon="13.700359951673743"><ele>983.0</ele><time>2026-05-02T11:27:39Z</time></trkpt><trkpt lat="42.087048176159435" lon="13.700418798355418"><ele>982.1666666666667</ele><time>2026-05-02T11:27:40Z</time></trkpt><trkpt lat="42.08698195874409" lon="13.700465594870833"><ele>981.3333333333334</ele><time>2026-05-02T11:27:41Z</time></trkpt><trkpt lat="42.08692205022046" lon="13.700505143461195"><ele>980.5</ele><time>2026-05-02T11:27:42Z</time></trkpt><trkpt lat="42.08680475738647" lon="13.70058558223251"><ele>979.6666666666667</ele><time>2026-05-02T11:27:44Z</time></trkpt><trkpt lat="42.08674915643616" lon="13.700646328024233"><ele>978.8333333333334</ele><time>2026-05-02T11:27:45Z</time></trkpt><trkpt lat="42.08669280086339" lon="13.700708248028192"><ele>978.0</ele><time>2026-05-02T11:27:46Z</time></trkpt><trkpt lat="42.08664336148036" lon="13.700774228287626"><ele>978.0</ele><time>2026-05-02T11:27:47Z</time></trkpt><trkpt lat="42.08659958604181" lon="13.700848065638192"><ele>978.0</ele><time>2026-05-02T11:27:48Z</time></trkpt><trkpt lat="42.08655156461926" lon="13.700921061184872"><ele>978.0</ele><time>2026-05-02T11:27:49Z</time></trkpt><trkpt lat="42.08652722240269" lon="13.70101826435997"><ele>978.0</ele><time>2026-05-02T11:27:50Z</time></trkpt><trkpt lat="42.086496263507655" lon="13.701127848701034"><ele>978.0</ele><time>2026-05-02T11:27:51Z</time></trkpt><trkpt lat="42.086452761715954" lon="13.701257443841186"><ele>978.0</ele><time>2026-05-02T11:27:52Z</time></trkpt><trkpt lat="42.08638942314619" lon="13.701384397607002"><ele>977.0</ele><time>2026-05-02T11:27:53Z</time></trkpt><trkpt lat="42.0863275703498" lon="13.701511573948842"><ele>976.0</ele><time>2026-05-02T11:27:54Z</time></trkpt><trkpt lat="42.08625605580313" lon="13.70163406710925"><ele>975.0</ele><time>2026-05-02T11:27:55Z</time></trkpt><trkpt lat="42.0861989869957" lon="13.701788544910887"><ele>974.0</ele><time>2026-05-02T11:27:56Z</time></trkpt><trkpt lat="42.08612295330516" lon="13.701948069431477"><ele>973.25</ele><time>2026-05-02T11:27:57Z</time></trkpt><trkpt lat="42.08604243804591" lon="13.702138098775471"><ele>972.5</ele><time>2026-05-02T11:27:58Z</time></trkpt><trkpt lat="42.0859657447014" lon="13.702289783202456"><ele>971.75</ele><time>2026-05-02T11:27:59Z</time></trkpt><trkpt lat="42.08590265776193" lon="13.702437171486697"><ele>971.0</ele><time>2026-05-02T11:28:00Z</time></trkpt><trkpt lat="42.085837851009636" lon="13.702580459006796"><ele>970.5</ele><time>2026-05-02T11:28:01Z</time></trkpt><trkpt lat="42.08575470368719" lon="13.702721324889371"><ele>970.0</ele><time>2026-05-02T11:28:02Z</time></trkpt><trkpt lat="42.08566626501183" lon="13.70286232030568"><ele>969.5</ele><time>2026-05-02T11:28:03Z</time></trkpt><trkpt lat="42.08557135074781" lon="13.703005300374643"><ele>969.0</ele><time>2026-05-02T11:28:04Z</time></trkpt><trkpt lat="42.08547969578276" lon="13.703146437828366"><ele>968.0</ele><time>2026-05-02T11:28:05Z</time></trkpt><trkpt lat="42.08538154647975" lon="13.703260755798267"><ele>967.0</ele><time>2026-05-02T11:28:06Z</time></trkpt><trkpt lat="42.08528429508093" lon="13.703363744141486"><ele>966.0</ele><time>2026-05-02T11:28:07Z</time></trkpt><trkpt lat="42.085181522997395" lon="13.70346908777286"><ele>965.0</ele><time>2026-05-02T11:28:08Z</time></trkpt><trkpt lat="42.085078537688595" lon="13.70354532941765"><ele>965.25</ele><time>2026-05-02T11:28:09Z</time></trkpt><trkpt lat="42.08497826380593" lon="13.703620498221794"><ele>965.5</ele><time>2026-05-02T11:28:10Z</time></trkpt><trkpt lat="42.084888356180954" lon="13.703714141264127"><ele>965.75</ele><time>2026-05-02T11:28:11Z</time></trkpt><trkpt lat="42.08479217948045" lon="13.703811112326472"><ele>966.0</ele><time>2026-05-02T11:28:12Z</time></trkpt><trkpt lat="42.084693149549075" lon="13.703904200183247"><ele>966.0</ele><time>2026-05-02T11:28:13Z</time></trkpt><trkpt lat="42.084607380933086" lon="13.704001780754323"><ele>965.9999999999999</ele><time>2026-05-02T11:28:14Z</time></trkpt><trkpt lat="42.0845466397015" lon="13.704084002494819"><ele>965.9999999999999</ele><time>2026-05-02T11:28:15Z</time></trkpt><trkpt lat="42.08448583113439" lon="13.704158024783842"><ele>966.0</ele><time>2026-05-02T11:28:16Z</time></trkpt><trkpt lat="42.08442661956463" lon="13.704233289367425"><ele>966.0</ele><time>2026-05-02T11:28:16.999Z</time></trkpt><trkpt lat="42.08435763957046" lon="13.704311261778352"><ele>966.0</ele><time>2026-05-02T11:28:17.999Z</time></trkpt><trkpt lat="42.08428615760267" lon="13.70439168962632"><ele>965.9999999999999</ele><time>2026-05-02T11:28:18.999Z</time></trkpt><trkpt lat="42.084216012787365" lon="13.70447405257802"><ele>965.9999999999999</ele><time>2026-05-02T11:28:19.999Z</time></trkpt><trkpt lat="42.084146951638246" lon="13.704549479108344"><ele>966.0</ele><time>2026-05-02T11:28:20.999Z</time></trkpt><trkpt lat="42.0840744504684" lon="13.704629784835257"><ele>966.0</ele><time>2026-05-02T11:28:21.999Z</time></trkpt><trkpt lat="42.08400436242475" lon="13.704729142856474"><ele>966.4</ele><time>2026-05-02T11:28:22.999Z</time></trkpt><trkpt lat="42.08393366966594" lon="13.704830356697814"><ele>966.8</ele><time>2026-05-02T11:28:23.999Z</time></trkpt><trkpt lat="42.08385508028653" lon="13.704912248015667"><ele>967.1999999999999</ele><time>2026-05-02T11:28:24.999Z</time></trkpt><trkpt lat="42.08377712649037" lon="13.704994677139887"><ele>967.5999999999999</ele><time>2026-05-02T11:28:25.999Z</time></trkpt><trkpt lat="42.0836942059514" lon="13.705069119657837"><ele>968.0</ele><time>2026-05-02T11:28:26.999Z</time></trkpt><trkpt lat="42.083613516284125" lon="13.705141645870421"><ele>968.0000000000001</ele><time>2026-05-02T11:28:27.999Z</time></trkpt><trkpt lat="42.0835364426315" lon="13.705205018259116"><ele>968.0</ele><time>2026-05-02T11:28:28.999Z</time></trkpt><trkpt lat="42.08347220833673" lon="13.705266160738525"><ele>968.0</ele><time>2026-05-02T11:28:29.999Z</time></trkpt><trkpt lat="42.08341744109462" lon="13.705329037119"><ele>968.0</ele><time>2026-05-02T11:28:30.999Z</time></trkpt><trkpt lat="42.08336004405045" lon="13.705394573318124"><ele>968.0000000000001</ele><time>2026-05-02T11:28:31.999Z</time></trkpt><trkpt lat="42.08330546296622" lon="13.705463557247475"><ele>968.0</ele><time>2026-05-02T11:28:32.999Z</time></trkpt><trkpt lat="42.08326271142225" lon="13.705542583639595"><ele>971.3333333333334</ele><time>2026-05-02T11:28:33.999Z</time></trkpt><trkpt lat="42.083222178659064" lon="13.70562517689722"><ele>974.6666666666667</ele><time>2026-05-02T11:28:34.999Z</time></trkpt><trkpt lat="42.08318145782557" lon="13.705703046219071"><ele>978.0</ele><time>2026-05-02T11:28:35.999Z</time></trkpt><trkpt lat="42.08314372069511" lon="13.705783608734675"><ele>981.3333333333333</ele><time>2026-05-02T11:28:36.999Z</time></trkpt><trkpt lat="42.08309818704504" lon="13.70585901807208"><ele>984.6666666666666</ele><time>2026-05-02T11:28:37.999Z</time></trkpt><trkpt lat="42.08305637955378" lon="13.705938303465876"><ele>988.0</ele><time>2026-05-02T11:28:38.999Z</time></trkpt><trkpt lat="42.08299123036234" lon="13.706062130663687"><ele>984.8333333333333</ele><time>2026-05-02T11:28:40.999Z</time></trkpt><trkpt lat="42.08292230462269" lon="13.706173296405922"><ele>981.6666666666666</ele><time>2026-05-02T11:28:42.999Z</time></trkpt><trkpt lat="42.082878398612394" lon="13.706245064340012"><ele>978.5</ele><time>2026-05-02T11:28:43.999Z</time></trkpt><trkpt lat="42.082826069737536" lon="13.706315604472593"><ele>975.3333333333333</ele><time>2026-05-02T11:28:44.999Z</time></trkpt><trkpt lat="42.082762180142815" lon="13.706399958990394"><ele>972.1666666666666</ele><time>2026-05-02T11:28:45.999Z</time></trkpt><trkpt lat="42.08268943117249" lon="13.706502143952854"><ele>969.0</ele><time>2026-05-02T11:28:46.999Z</time></trkpt><trkpt lat="42.08259996898825" lon="13.706639291463786"><ele>969.0</ele><time>2026-05-02T11:28:47.999Z</time></trkpt><trkpt lat="42.082502759510824" lon="13.706823061838417"><ele>969.0</ele><time>2026-05-02T11:28:48.999Z</time></trkpt><trkpt lat="42.082366805166245" lon="13.706983886953976"><ele>969.0</ele><time>2026-05-02T11:28:49.999Z</time></trkpt><trkpt lat="42.08222334540259" lon="13.707191402154235"><ele>977.5</ele><time>2026-05-02T11:28:50.999Z</time></trkpt><trkpt lat="42.08208289099677" lon="13.707449028830558"><ele>986.0</ele><time>2026-05-02T11:28:51.999Z</time></trkpt><trkpt lat="42.081908846770766" lon="13.707653331338346"><ele>987.3333333333334</ele><time>2026-05-02T11:28:52.999Z</time></trkpt><trkpt lat="42.08177376134081" lon="13.707865040615092"><ele>988.6666666666667</ele><time>2026-05-02T11:28:53.999Z</time></trkpt><trkpt lat="42.08163852718164" lon="13.70801860184582"><ele>990.0</ele><time>2026-05-02T11:28:54.999Z</time></trkpt><trkpt lat="42.08152305288769" lon="13.70812324860237"><ele>990.0</ele><time>2026-05-02T11:28:55.999Z</time></trkpt><trkpt lat="42.081420331582414" lon="13.708226476074058"><ele>990.0</ele><time>2026-05-02T11:28:56.999Z</time></trkpt><trkpt lat="42.0813237091904" lon="13.708312007264377"><ele>990.0</ele><time>2026-05-02T11:28:57.999Z</time></trkpt><trkpt lat="42.0812153756963" lon="13.708376019534054"><ele>990.0</ele><time>2026-05-02T11:28:58.999Z</time></trkpt><trkpt lat="42.08111325371355" lon="13.708445358031144"><ele>990.0</ele><time>2026-05-02T11:28:59.999Z</time></trkpt><trkpt lat="42.08096615049639" lon="13.708497988616696"><ele>990.0</ele><time>2026-05-02T11:29:00.999Z</time></trkpt><trkpt lat="42.08082965680214" lon="13.70858752018359"><ele>990.0</ele><time>2026-05-02T11:29:01.999Z</time></trkpt><trkpt lat="42.08069727438734" lon="13.708702186072937"><ele>985.6666666666667</ele><time>2026-05-02T11:29:02.999Z</time></trkpt><trkpt lat="42.08053140437144" lon="13.708781456615744"><ele>981.3333333333334</ele><time>2026-05-02T11:29:03.999Z</time></trkpt><trkpt lat="42.08037668225182" lon="13.708890522228295"><ele>977.0</ele><time>2026-05-02T11:29:04.999Z</time></trkpt><trkpt lat="42.0802195158833" lon="13.708980098070496"><ele>977.0</ele><time>2026-05-02T11:29:05.999Z</time></trkpt><trkpt lat="42.080072446621436" lon="13.709098663717816"><ele>977.0</ele><time>2026-05-02T11:29:06.999Z</time></trkpt><trkpt lat="42.079914175339525" lon="13.709192668496028"><ele>977.0</ele><time>2026-05-02T11:29:07.999Z</time></trkpt><trkpt lat="42.0797687417819" lon="13.709293897248587"><ele>978.75</ele><time>2026-05-02T11:29:08.999Z</time></trkpt><trkpt lat="42.07962774337638" lon="13.709383693428684"><ele>980.5</ele><time>2026-05-02T11:29:09.999Z</time></trkpt><trkpt lat="42.07949090000044" lon="13.70945422239599"><ele>982.25</ele><time>2026-05-02T11:29:10.999Z</time></trkpt><trkpt lat="42.07936612253126" lon="13.709497953650427"><ele>984.0</ele><time>2026-05-02T11:29:11.999Z</time></trkpt><trkpt lat="42.079240008057916" lon="13.709492631511063"><ele>978.5</ele><time>2026-05-02T11:29:12.999Z</time></trkpt><trkpt lat="42.0791347923322" lon="13.709496152762958"><ele>973.0</ele><time>2026-05-02T11:29:13.999Z</time></trkpt><trkpt lat="42.079023427394894" lon="13.709463093602995"><ele>967.5</ele><time>2026-05-02T11:29:14.999Z</time></trkpt><trkpt lat="42.078958300970925" lon="13.709312410395306"><ele>962.0</ele><time>2026-05-02T11:29:15.999Z</time></trkpt><trkpt lat="42.078877520328014" lon="13.709163915724456"><ele>960.6666666666667</ele><time>2026-05-02T11:29:16.999Z</time></trkpt><trkpt lat="42.07881376566361" lon="13.70898563982054"><ele>959.3333333333333</ele><time>2026-05-02T11:29:17.999Z</time></trkpt><trkpt lat="42.07876058582073" lon="13.708767099154883"><ele>958.0</ele><time>2026-05-02T11:29:18.999Z</time></trkpt><trkpt lat="42.078694918940954" lon="13.708557752457143"><ele>963.6666666666666</ele><time>2026-05-02T11:29:19.999Z</time></trkpt><trkpt lat="42.078631278118785" lon="13.708321610210147"><ele>969.3333333333333</ele><time>2026-05-02T11:29:20.999Z</time></trkpt><trkpt lat="42.078575715770754" lon="13.708098328696495"><ele>975.0</ele><time>2026-05-02T11:29:21.999Z</time></trkpt><trkpt lat="42.07853876270444" lon="13.707838808159218"><ele>979.6666666666667</ele><time>2026-05-02T11:29:22.999Z</time></trkpt><trkpt lat="42.078513112336076" lon="13.707593805267335"><ele>984.3333333333334</ele><time>2026-05-02T11:29:23.999Z</time></trkpt><trkpt lat="42.078499260498845" lon="13.707318339565598"><ele>989.0</ele><time>2026-05-02T11:29:24.999Z</time></trkpt><trkpt lat="42.078471703317575" lon="13.70715096051831"><ele>989.0</ele><time>2026-05-02T11:29:25.999Z</time></trkpt><trkpt lat="42.078444320755345" lon="13.707014753536775"><ele>989.0000000000001</ele><time>2026-05-02T11:29:26.999Z</time></trkpt><trkpt lat="42.07842347808976" lon="13.706900461603325"><ele>989.0000000000001</ele><time>2026-05-02T11:29:27.999Z</time></trkpt><trkpt lat="42.07833709240707" lon="13.706774673216607"><ele>989.0</ele><time>2026-05-02T11:29:29.999Z</time></trkpt><trkpt lat="42.07825038813488" lon="13.706738213845547"><ele>989.0</ele><time>2026-05-02T11:29:30.999Z</time></trkpt><trkpt lat="42.07814911069205" lon="13.70676229514758"><ele>992.0</ele><time>2026-05-02T11:29:31.999Z</time></trkpt><trkpt lat="42.07805917805024" lon="13.706798829196172"><ele>995.0</ele><time>2026-05-02T11:29:32.999Z</time></trkpt><trkpt lat="42.077986906506816" lon="13.706882833678145"><ele>998.0</ele><time>2026-05-02T11:29:33.999Z</time></trkpt><trkpt lat="42.077906570719634" lon="13.707034430692786"><ele>1001.0</ele><time>2026-05-02T11:29:34.999Z</time></trkpt><trkpt lat="42.07780817831132" lon="13.707218386162296"><ele>1001.0</ele><time>2026-05-02T11:29:35.999Z</time></trkpt><trkpt lat="42.07771659799863" lon="13.707420002513384"><ele>1001.0</ele><time>2026-05-02T11:29:36.999Z</time></trkpt><trkpt lat="42.07762834037923" lon="13.707601195124742"><ele>1001.0</ele><time>2026-05-02T11:29:37.999Z</time></trkpt><trkpt lat="42.077474386899695" lon="13.707727480279841"><ele>995.75</ele><time>2026-05-02T11:29:38.999Z</time></trkpt><trkpt lat="42.07739124326109" lon="13.707882820161586"><ele>990.5</ele><time>2026-05-02T11:29:39.999Z</time></trkpt><trkpt lat="42.077317668486415" lon="13.708013711839007"><ele>985.25</ele><time>2026-05-02T11:29:40.999Z</time></trkpt><trkpt lat="42.07718999198366" lon="13.708059507996088"><ele>980.0</ele><time>2026-05-02T11:29:41.999Z</time></trkpt><trkpt lat="42.077095509807975" lon="13.708044521067183"><ele>980.0</ele><time>2026-05-02T11:29:42.999Z</time></trkpt><trkpt lat="42.07697637873726" lon="13.707993994549383"><ele>980.0</ele><time>2026-05-02T11:29:43.999Z</time></trkpt><trkpt lat="42.07683915491095" lon="13.707944706100191"><ele>980.0</ele><time>2026-05-02T11:29:44.999Z</time></trkpt><trkpt lat="42.07668459467466" lon="13.707877742347586"><ele>980.0</ele><time>2026-05-02T11:29:45.999Z</time></trkpt><trkpt lat="42.07652953689935" lon="13.707828522778614"><ele>977.6666666666667</ele><time>2026-05-02T11:29:46.999Z</time></trkpt><trkpt lat="42.076364715386624" lon="13.70776386867481"><ele>975.3333333333333</ele><time>2026-05-02T11:29:47.999Z</time></trkpt><trkpt lat="42.07619244076906" lon="13.707706658989737"><ele>973.0</ele><time>2026-05-02T11:29:48.999Z</time></trkpt><trkpt lat="42.076017167770075" lon="13.70764900041194"><ele>980.6666666666666</ele><time>2026-05-02T11:29:49.999Z</time></trkpt><trkpt lat="42.075845625030226" lon="13.707588516538951"><ele>988.3333333333333</ele><time>2026-05-02T11:29:50.999Z</time></trkpt><trkpt lat="42.07568212955412" lon="13.707545926416609"><ele>996.0</ele><time>2026-05-02T11:29:51.999Z</time></trkpt><trkpt lat="42.075524159780045" lon="13.707494412619312"><ele>996.0</ele><time>2026-05-02T11:29:52.999Z</time></trkpt><trkpt lat="42.0753722951736" lon="13.70741854360523"><ele>996.0</ele><time>2026-05-02T11:29:53.999Z</time></trkpt><trkpt lat="42.07522051955898" lon="13.707282129843692"><ele>996.0</ele><time>2026-05-02T11:29:54.999Z</time></trkpt><trkpt lat="42.075065407640494" lon="13.707102707122392"><ele>998.3333333333333</ele><time>2026-05-02T11:29:55.999Z</time></trkpt><trkpt lat="42.07490088254714" lon="13.706933499911308"><ele>1000.6666666666666</ele><time>2026-05-02T11:29:56.999Z</time></trkpt><trkpt lat="42.07474813245489" lon="13.706781169563174"><ele>1003.0</ele><time>2026-05-02T11:29:57.999Z</time></trkpt><trkpt lat="42.07460793940346" lon="13.706602505868908"><ele>1003.0</ele><time>2026-05-02T11:29:58.999Z</time></trkpt><trkpt lat="42.07445804193046" lon="13.70641523067073"><ele>1003.0</ele><time>2026-05-02T11:29:59.999Z</time></trkpt><trkpt lat="42.07430754482615" lon="13.706197001897804"><ele>1003.0</ele><time>2026-05-02T11:30:00.999Z</time></trkpt><trkpt lat="42.074166504159976" lon="13.705983272054379"><ele>1006.6666666666666</ele><time>2026-05-02T11:30:01.999Z</time></trkpt><trkpt lat="42.07403522489764" lon="13.705796636741495"><ele>1010.3333333333333</ele><time>2026-05-02T11:30:02.999Z</time></trkpt><trkpt lat="42.073897212649804" lon="13.705647212915968"><ele>1014.0</ele><time>2026-05-02T11:30:03.999Z</time></trkpt><trkpt lat="42.07378612779491" lon="13.705504507823665"><ele>1014.0</ele><time>2026-05-02T11:30:04.999Z</time></trkpt><trkpt lat="42.073703851825094" lon="13.705371705020195"><ele>1014.0000000000001</ele><time>2026-05-02T11:30:05.999Z</time></trkpt><trkpt lat="42.07361119076396" lon="13.705248188801637"><ele>1014.0000000000001</ele><time>2026-05-02T11:30:06.999Z</time></trkpt><trkpt lat="42.073537697393476" lon="13.705168745435799"><ele>1014.0</ele><time>2026-05-02T11:30:07.999Z</time></trkpt><trkpt lat="42.07347860594357" lon="13.705086707808615"><ele>1014.0</ele><time>2026-05-02T11:30:08.999Z</time></trkpt><trkpt lat="42.07337888136359" lon="13.705040244678589"><ele>1020.6666666666667</ele><time>2026-05-02T11:30:09.999Z</time></trkpt><trkpt lat="42.07322337469087" lon="13.705109455119302"><ele>1027.3333333333335</ele><time>2026-05-02T11:30:10.999Z</time></trkpt><trkpt lat="42.073060519541826" lon="13.705166518242057"><ele>1034.0</ele><time>2026-05-02T11:30:11.999Z</time></trkpt><trkpt lat="42.072889868758864" lon="13.705205344226147"><ele>1034.0</ele><time>2026-05-02T11:30:12.999Z</time></trkpt><trkpt lat="42.07271556547403" lon="13.705228200548643"><ele>1034.0</ele><time>2026-05-02T11:30:13.999Z</time></trkpt><trkpt lat="42.07252311599832" lon="13.705223476030307"><ele>1034.0</ele><time>2026-05-02T11:30:14.999Z</time></trkpt><trkpt lat="42.07232195688868" lon="13.705223919276895"><ele>1031.0</ele><time>2026-05-02T11:30:15.999Z</time></trkpt><trkpt lat="42.07213398691921" lon="13.705251067383982"><ele>1028.0</ele><time>2026-05-02T11:30:16.999Z</time></trkpt><trkpt lat="42.071971079421225" lon="13.705274463354238"><ele>1025.0</ele><time>2026-05-02T11:30:17.999Z</time></trkpt><trkpt lat="42.071844456984145" lon="13.705307916316757"><ele>1025.0</ele><time>2026-05-02T11:30:18.999Z</time></trkpt><trkpt lat="42.07171847808351" lon="13.705358620651133"><ele>1025.0</ele><time>2026-05-02T11:30:19.999Z</time></trkpt><trkpt lat="42.071606384884916" lon="13.705428033044402"><ele>1025.0</ele><time>2026-05-02T11:30:20.999Z</time></trkpt><trkpt lat="42.07149898239897" lon="13.705521917437462"><ele>1025.0</ele><time>2026-05-02T11:30:21.999Z</time></trkpt><trkpt lat="42.07141493197604" lon="13.705649733524389"><ele>1024.5</ele><time>2026-05-02T11:30:22.999Z</time></trkpt><trkpt lat="42.07136190038391" lon="13.705825604103278"><ele>1024.0</ele><time>2026-05-02T11:30:23.999Z</time></trkpt><trkpt lat="42.071299095589175" lon="13.70594554054395"><ele>1023.5</ele><time>2026-05-02T11:30:24.999Z</time></trkpt><trkpt lat="42.07124579943506" lon="13.706058545952514"><ele>1023.0</ele><time>2026-05-02T11:30:25.999Z</time></trkpt><trkpt lat="42.07116879112748" lon="13.706146075007773"><ele>1023.0</ele><time>2026-05-02T11:30:26.999Z</time></trkpt><trkpt lat="42.07105500010665" lon="13.706226984656551"><ele>1023.0</ele><time>2026-05-02T11:30:27.999Z</time></trkpt><trkpt lat="42.07092855296527" lon="13.706284960702957"><ele>1023.0</ele><time>2026-05-02T11:30:28.999Z</time></trkpt><trkpt lat="42.07078060485334" lon="13.706315053498674"><ele>1023.0</ele><time>2026-05-02T11:30:29.999Z</time></trkpt><trkpt lat="42.07064250404548" lon="13.706334056957372"><ele>1024.0</ele><time>2026-05-02T11:30:30.999Z</time></trkpt><trkpt lat="42.07050077201374" lon="13.706349891422521"><ele>1025.0</ele><time>2026-05-02T11:30:31.999Z</time></trkpt><trkpt lat="42.07038407996291" lon="13.706324762181683"><ele>1026.0</ele><time>2026-05-02T11:30:32.999Z</time></trkpt><trkpt lat="42.070288665509906" lon="13.706299265900086"><ele>1027.0</ele><time>2026-05-02T11:30:33.999Z</time></trkpt><trkpt lat="42.070213106263914" lon="13.706255077929754"><ele>1028.0</ele><time>2026-05-02T11:30:34.999Z</time></trkpt><trkpt lat="42.07014968160078" lon="13.706206497092909"><ele>1031.8</ele><time>2026-05-02T11:30:35.999Z</time></trkpt><trkpt lat="42.070154715441376" lon="13.706007607274952"><ele>1035.6</ele><time>2026-05-02T11:30:37.999Z</time></trkpt><trkpt lat="42.07021088364952" lon="13.705920131324568"><ele>1039.4</ele><time>2026-05-02T11:30:38.999Z</time></trkpt><trkpt lat="42.07029529080383" lon="13.705893009943718"><ele>1043.2</ele><time>2026-05-02T11:30:39.999Z</time></trkpt><trkpt lat="42.0703879518924" lon="13.705841645578762"><ele>1047.0</ele><time>2026-05-02T11:30:40.999Z</time></trkpt><trkpt lat="42.07051975676189" lon="13.70585385470691"><ele>1047.0</ele><time>2026-05-02T11:30:41.999Z</time></trkpt><trkpt lat="42.07065834881362" lon="13.705878401393495"><ele>1047.0</ele><time>2026-05-02T11:30:42.999Z</time></trkpt><trkpt lat="42.07080154861988" lon="13.705886026527693"><ele>1047.0</ele><time>2026-05-02T11:30:43.999Z</time></trkpt><trkpt lat="42.07094084246049" lon="13.705882527963137"><ele>1047.0</ele><time>2026-05-02T11:30:44.999Z</time></trkpt><trkpt lat="42.07105248701111" lon="13.705834915442276"><ele>1045.0</ele><time>2026-05-02T11:30:45.999Z</time></trkpt><trkpt lat="42.071151301500116" lon="13.705735733779708"><ele>1043.0</ele><time>2026-05-02T11:30:46.999Z</time></trkpt><trkpt lat="42.07123563341401" lon="13.705519149169909"><ele>1041.0</ele><time>2026-05-02T11:30:47.999Z</time></trkpt><trkpt lat="42.071351694335114" lon="13.705313931113253"><ele>1042.6666666666667</ele><time>2026-05-02T11:30:48.999Z</time></trkpt><trkpt lat="42.071501368950955" lon="13.705122542614248"><ele>1044.3333333333335</ele><time>2026-05-02T11:30:49.999Z</time></trkpt><trkpt lat="42.07168890630352" lon="13.70494555755326"><ele>1046.0</ele><time>2026-05-02T11:30:50.999Z</time></trkpt><trkpt lat="42.0719068864013" lon="13.70476405831127"><ele>1046.0</ele><time>2026-05-02T11:30:51.999Z</time></trkpt><trkpt lat="42.07208097060748" lon="13.70461468887748"><ele>1046.0</ele><time>2026-05-02T11:30:52.999Z</time></trkpt><trkpt lat="42.07220187108185" lon="13.704465481795511"><ele>1046.0</ele><time>2026-05-02T11:30:53.999Z</time></trkpt><trkpt lat="42.072315272849345" lon="13.704319671235979"><ele>1048.0</ele><time>2026-05-02T11:30:54.999Z</time></trkpt><trkpt lat="42.0724230518094" lon="13.704139082299333"><ele>1050.0</ele><time>2026-05-02T11:30:55.999Z</time></trkpt><trkpt lat="42.072528687224086" lon="13.7039768310346"><ele>1052.0</ele><time>2026-05-02T11:30:56.999Z</time></trkpt><trkpt lat="42.07261190780818" lon="13.703816788418766"><ele>1052.0</ele><time>2026-05-02T11:30:57.999Z</time></trkpt><trkpt lat="42.07268556663214" lon="13.703696669705618"><ele>1052.0</ele><time>2026-05-02T11:30:58.999Z</time></trkpt><trkpt lat="42.072724894824184" lon="13.703582008993708"><ele>1052.0</ele><time>2026-05-02T11:30:59.999Z</time></trkpt><trkpt lat="42.072714087163895" lon="13.70341714163839"><ele>1052.0</ele><time>2026-05-02T11:31:01.999Z</time></trkpt><trkpt lat="42.072641902410986" lon="13.703365772988505"><ele>1052.0</ele><time>2026-05-02T11:31:02.999Z</time></trkpt><trkpt lat="42.07255208169989" lon="13.703303478774215"><ele>1055.0</ele><time>2026-05-02T11:31:03.999Z</time></trkpt><trkpt lat="42.0724672205156" lon="13.70333850958611"><ele>1058.0</ele><time>2026-05-02T11:31:04.999Z</time></trkpt><trkpt lat="42.0723713564882" lon="13.703427585092218"><ele>1061.0</ele><time>2026-05-02T11:31:05.999Z</time></trkpt><trkpt lat="42.072279612290345" lon="13.703574408120382"><ele>1064.0</ele><time>2026-05-02T11:31:06.999Z</time></trkpt><trkpt lat="42.07216782441606" lon="13.703748159126524"><ele>1064.0</ele><time>2026-05-02T11:31:07.999Z</time></trkpt><trkpt lat="42.07204293774839" lon="13.703926723872003"><ele>1064.0</ele><time>2026-05-02T11:31:08.999Z</time></trkpt><trkpt lat="42.07190057464431" lon="13.704087963654233"><ele>1064.0</ele><time>2026-05-02T11:31:09.999Z</time></trkpt><trkpt lat="42.07175359348077" lon="13.704212142032002"><ele>1064.0</ele><time>2026-05-02T11:31:10.999Z</time></trkpt><trkpt lat="42.07162426626522" lon="13.704333457075828"><ele>1064.0</ele><time>2026-05-02T11:31:11.999Z</time></trkpt><trkpt lat="42.071494932972485" lon="13.704407866782391"><ele>1064.0</ele><time>2026-05-02T11:31:12.999Z</time></trkpt><trkpt lat="42.07137059772592" lon="13.704451689062632"><ele>1064.0</ele><time>2026-05-02T11:31:13.999Z</time></trkpt><trkpt lat="42.071222007389984" lon="13.704461796843217"><ele>1061.6666666666667</ele><time>2026-05-02T11:31:14.999Z</time></trkpt><trkpt lat="42.07107820460094" lon="13.704430846547282"><ele>1059.3333333333333</ele><time>2026-05-02T11:31:15.998Z</time></trkpt><trkpt lat="42.0709368462389" lon="13.704377969574843"><ele>1057.0</ele><time>2026-05-02T11:31:16.998Z</time></trkpt><trkpt lat="42.07077206066803" lon="13.704365603056804"><ele>1071.0</ele><time>2026-05-02T11:31:17.998Z</time></trkpt><trkpt lat="42.07061136462666" lon="13.704331634901651"><ele>1085.0</ele><time>2026-05-02T11:31:18.998Z</time></trkpt><trkpt lat="42.07045533928585" lon="13.70434724747539"><ele>1099.0</ele><time>2026-05-02T11:31:19.998Z</time></trkpt><trkpt lat="42.070305814196814" lon="13.704363250916924"><ele>1099.0</ele><time>2026-05-02T11:31:20.998Z</time></trkpt><trkpt lat="42.0701727376004" lon="13.70437453758003"><ele>1099.0</ele><time>2026-05-02T11:31:21.998Z</time></trkpt><trkpt lat="42.070068620153215" lon="13.704469157983354"><ele>1099.0</ele><time>2026-05-02T11:31:22.998Z</time></trkpt><trkpt lat="42.06996370514238" lon="13.70461205158448"><ele>1099.0</ele><time>2026-05-02T11:31:23.998Z</time></trkpt><trkpt lat="42.0698478475365" lon="13.704790605222783"><ele>1100.3333333333333</ele><time>2026-05-02T11:31:24.998Z</time></trkpt><trkpt lat="42.06972322099174" lon="13.704955255919023"><ele>1101.6666666666667</ele><time>2026-05-02T11:31:25.998Z</time></trkpt><trkpt lat="42.06958704842091" lon="13.70509186182207"><ele>1103.0</ele><time>2026-05-02T11:31:26.998Z</time></trkpt><trkpt lat="42.06946126798155" lon="13.705234304910597"><ele>1098.3333333333335</ele><time>2026-05-02T11:31:27.998Z</time></trkpt><trkpt lat="42.06934409477887" lon="13.705379366796322"><ele>1093.6666666666667</ele><time>2026-05-02T11:31:28.998Z</time></trkpt><trkpt lat="42.069200541266106" lon="13.705486970051723"><ele>1089.0</ele><time>2026-05-02T11:31:29.998Z</time></trkpt><trkpt lat="42.069030178500036" lon="13.705586760936583"><ele>1089.0</ele><time>2026-05-02T11:31:30.998Z</time></trkpt><trkpt lat="42.0688565265633" lon="13.705671883264184"><ele>1089.0</ele><time>2026-05-02T11:31:31.998Z</time></trkpt><trkpt lat="42.06866982586317" lon="13.705733577280517"><ele>1089.0</ele><time>2026-05-02T11:31:32.998Z</time></trkpt><trkpt lat="42.06847641950596" lon="13.70578024056439"><ele>1089.0</ele><time>2026-05-02T11:31:33.998Z</time></trkpt><trkpt lat="42.06830775148405" lon="13.705852470571847"><ele>1089.0</ele><time>2026-05-02T11:31:34.998Z</time></trkpt><trkpt lat="42.068126185324495" lon="13.705889816809051"><ele>1089.0</ele><time>2026-05-02T11:31:35.998Z</time></trkpt><trkpt lat="42.067947905843084" lon="13.70591924626268"><ele>1093.6666666666667</ele><time>2026-05-02T11:31:36.998Z</time></trkpt><trkpt lat="42.06777849752349" lon="13.705960290347257"><ele>1098.3333333333335</ele><time>2026-05-02T11:31:37.998Z</time></trkpt><trkpt lat="42.06761038012276" lon="13.706010716380927"><ele>1103.0</ele><time>2026-05-02T11:31:38.998Z</time></trkpt><trkpt lat="42.067413781430645" lon="13.706019085960502"><ele>1105.0</ele><time>2026-05-02T11:31:39.998Z</time></trkpt><trkpt lat="42.067223183115644" lon="13.706014580976952"><ele>1107.0</ele><time>2026-05-02T11:31:40.998Z</time></trkpt><trkpt lat="42.06702986435585" lon="13.706020731765339"><ele>1109.0</ele><time>2026-05-02T11:31:41.998Z</time></trkpt><trkpt lat="42.066829887038196" lon="13.706019489724657"><ele>1109.0</ele><time>2026-05-02T11:31:42.998Z</time></trkpt><trkpt lat="42.066637391880704" lon="13.706022447431973"><ele>1109.0</ele><time>2026-05-02T11:31:43.998Z</time></trkpt><trkpt lat="42.066457287114694" lon="13.706051770856039"><ele>1109.0</ele><time>2026-05-02T11:31:44.998Z</time></trkpt><trkpt lat="42.06626919314293" lon="13.70606564036906"><ele>1104.0</ele><time>2026-05-02T11:31:45.998Z</time></trkpt><trkpt lat="42.0660890241234" lon="13.706115884479429"><ele>1099.0</ele><time>2026-05-02T11:31:46.998Z</time></trkpt><trkpt lat="42.06590647251855" lon="13.706170676418472"><ele>1094.0</ele><time>2026-05-02T11:31:47.998Z</time></trkpt><trkpt lat="42.06572365860851" lon="13.706197675101347"><ele>1094.0</ele><time>2026-05-02T11:31:48.998Z</time></trkpt><trkpt lat="42.065539972213294" lon="13.706208938951582"><ele>1094.0</ele><time>2026-05-02T11:31:49.998Z</time></trkpt><trkpt lat="42.06534160313989" lon="13.706189566302566"><ele>1094.0</ele><time>2026-05-02T11:31:50.998Z</time></trkpt><trkpt lat="42.06512603531198" lon="13.706150791050963"><ele>1101.3333333333335</ele><time>2026-05-02T11:31:51.998Z</time></trkpt><trkpt lat="42.06491214239226" lon="13.70614295348795"><ele>1108.6666666666667</ele><time>2026-05-02T11:31:52.998Z</time></trkpt><trkpt lat="42.06471492708611" lon="13.706141816413734"><ele>1116.0</ele><time>2026-05-02T11:31:53.998Z</time></trkpt><trkpt lat="42.06453510674488" lon="13.70612658860447"><ele>1116.0</ele><time>2026-05-02T11:31:54.998Z</time></trkpt><trkpt lat="42.06436852534065" lon="13.706117178352988"><ele>1116.0</ele><time>2026-05-02T11:31:55.998Z</time></trkpt><trkpt lat="42.06423170186667" lon="13.706103989975482"><ele>1116.0</ele><time>2026-05-02T11:31:56.998Z</time></trkpt><trkpt lat="42.064130149430106" lon="13.706086194783737"><ele>1116.0</ele><time>2026-05-02T11:31:57.998Z</time></trkpt><trkpt lat="42.064053545310145" lon="13.70604156601252"><ele>1115.3333333333333</ele><time>2026-05-02T11:31:58.998Z</time></trkpt><trkpt lat="42.06395939856522" lon="13.705990460751243"><ele>1114.6666666666667</ele><time>2026-05-02T11:31:59.998Z</time></trkpt><trkpt lat="42.06390159720526" lon="13.705931791445398"><ele>1114.0</ele><time>2026-05-02T11:32:00.998Z</time></trkpt><trkpt lat="42.06385734636792" lon="13.705867005692612"><ele>1113.3333333333335</ele><time>2026-05-02T11:32:01.998Z</time></trkpt><trkpt lat="42.06379034690814" lon="13.70578075736288"><ele>1112.6666666666667</ele><time>2026-05-02T11:32:03.998Z</time></trkpt><trkpt lat="42.063718288853366" lon="13.705774827718185"><ele>1112.0</ele><time>2026-05-02T11:32:05.998Z</time></trkpt><trkpt lat="42.06365162061317" lon="13.705727814070437"><ele>1112.0</ele><time>2026-05-02T11:32:07.998Z</time></trkpt><trkpt lat="42.06356644084176" lon="13.705635999612994"><ele>1112.0</ele><time>2026-05-02T11:32:09.998Z</time></trkpt><trkpt lat="42.06350029408331" lon="13.70556899350721"><ele>1112.0</ele><time>2026-05-02T11:32:10.998Z</time></trkpt><trkpt lat="42.06343791645678" lon="13.705514920758151"><ele>1112.0</ele><time>2026-05-02T11:32:11.998Z</time></trkpt><trkpt lat="42.06339409535789" lon="13.70543468162733"><ele>1112.0</ele><time>2026-05-02T11:32:12.998Z</time></trkpt><trkpt lat="42.063329334006504" lon="13.705405132664518"><ele>1112.0</ele><time>2026-05-02T11:32:13.998Z</time></trkpt><trkpt lat="42.06329150039539" lon="13.705310216865417"><ele>1110.8</ele><time>2026-05-02T11:32:14.998Z</time></trkpt><trkpt lat="42.06322630372475" lon="13.705270812562187"><ele>1109.6</ele><time>2026-05-02T11:32:15.998Z</time></trkpt><trkpt lat="42.063133752614746" lon="13.705157342751926"><ele>1108.3999999999999</ele><time>2026-05-02T11:32:17.998Z</time></trkpt><trkpt lat="42.063039914227296" lon="13.705079816370297"><ele>1107.2</ele><time>2026-05-02T11:32:19.998Z</time></trkpt><trkpt lat="42.0629225096982" lon="13.705067194448349"><ele>1106.0</ele><time>2026-05-02T11:32:21.998Z</time></trkpt><trkpt lat="42.06282536027554" lon="13.705005620301089"><ele>1101.6</ele><time>2026-05-02T11:32:23.998Z</time></trkpt><trkpt lat="42.06273300964042" lon="13.704937581690299"><ele>1097.1999999999998</ele><time>2026-05-02T11:32:25.998Z</time></trkpt><trkpt lat="42.06260544164938" lon="13.70492262426536"><ele>1092.8000000000002</ele><time>2026-05-02T11:32:27.998Z</time></trkpt><trkpt lat="42.06253394380745" lon="13.704908620773331"><ele>1088.4</ele><time>2026-05-02T11:32:28.998Z</time></trkpt><trkpt lat="42.062457534693124" lon="13.704910334679418"><ele>1084.0</ele><time>2026-05-02T11:32:29.998Z</time></trkpt><trkpt lat="42.06231178580145" lon="13.704928821105659"><ele>1082.3333333333333</ele><time>2026-05-02T11:32:31.998Z</time></trkpt><trkpt lat="42.06223492838194" lon="13.704957664844729"><ele>1080.6666666666665</ele><time>2026-05-02T11:32:32.998Z</time></trkpt><trkpt lat="42.06215899986568" lon="13.704931656810656"><ele>1079.0</ele><time>2026-05-02T11:32:33.998Z</time></trkpt><trkpt lat="42.0620845690883" lon="13.704892798479595"><ele>1077.3333333333333</ele><time>2026-05-02T11:32:34.998Z</time></trkpt><trkpt lat="42.06200569409875" lon="13.704907880173637"><ele>1075.6666666666667</ele><time>2026-05-02T11:32:35.998Z</time></trkpt><trkpt lat="42.06193182553911" lon="13.704899650634307"><ele>1074.0</ele><time>2026-05-02T11:32:36.998Z</time></trkpt><trkpt lat="42.061866483510315" lon="13.70486380156639"><ele>1074.0</ele><time>2026-05-02T11:32:37.998Z</time></trkpt><trkpt lat="42.06174481911747" lon="13.704822926897078"><ele>1074.0</ele><time>2026-05-02T11:32:39.998Z</time></trkpt><trkpt lat="42.06165849168175" lon="13.70474520427369"><ele>1074.0</ele><time>2026-05-02T11:32:41.998Z</time></trkpt><trkpt lat="42.06159275624799" lon="13.704689116182708"><ele>1074.0</ele><time>2026-05-02T11:32:42.998Z</time></trkpt><trkpt lat="42.0615386537712" lon="13.704617101298762"><ele>1074.0</ele><time>2026-05-02T11:32:43.998Z</time></trkpt><trkpt lat="42.061486470904356" lon="13.70452773566527"><ele>1074.0</ele><time>2026-05-02T11:32:44.998Z</time></trkpt><trkpt lat="42.06142897679453" lon="13.704447364260728"><ele>1074.0</ele><time>2026-05-02T11:32:45.998Z</time></trkpt><trkpt lat="42.061391910470306" lon="13.704354379995337"><ele>1074.0</ele><time>2026-05-02T11:32:46.998Z</time></trkpt><trkpt lat="42.06134451364968" lon="13.704249985434455"><ele>1074.0</ele><time>2026-05-02T11:32:47.998Z</time></trkpt><trkpt lat="42.06128765883506" lon="13.704155778250152"><ele>1074.0</ele><time>2026-05-02T11:32:48.998Z</time></trkpt><trkpt lat="42.0612571616646" lon="13.704034666137366"><ele>1074.0</ele><time>2026-05-02T11:32:49.998Z</time></trkpt><trkpt lat="42.06122997861935" lon="13.703952703701535"><ele>1073.0</ele><time>2026-05-02T11:32:50.998Z</time></trkpt><trkpt lat="42.06116890411429" lon="13.703886016328468"><ele>1072.0</ele><time>2026-05-02T11:32:51.998Z</time></trkpt><trkpt lat="42.06110331518568" lon="13.703817044586803"><ele>1071.0</ele><time>2026-05-02T11:32:52.998Z</time></trkpt><trkpt lat="42.06106013607388" lon="13.703721311242981"><ele>1070.0</ele><time>2026-05-02T11:32:53.998Z</time></trkpt><trkpt lat="42.06099008232262" lon="13.703606384200489"><ele>1069.0</ele><time>2026-05-02T11:32:54.998Z</time></trkpt><trkpt lat="42.060953811786064" lon="13.70348975396968"><ele>1068.0</ele><time>2026-05-02T11:32:55.998Z</time></trkpt><trkpt lat="42.06090187360635" lon="13.703412261679356"><ele>1068.5</ele><time>2026-05-02T11:32:56.998Z</time></trkpt><trkpt lat="42.06083459158035" lon="13.703304605841263"><ele>1069.0</ele><time>2026-05-02T11:32:57.998Z</time></trkpt><trkpt lat="42.06078381403907" lon="13.703253406303661"><ele>1069.5</ele><time>2026-05-02T11:32:58.998Z</time></trkpt><trkpt lat="42.06076621155549" lon="13.703145315932591"><ele>1070.0</ele><time>2026-05-02T11:32:59.998Z</time></trkpt><trkpt lat="42.06070478141442" lon="13.70305464275775"><ele>1070.5</ele><time>2026-05-02T11:33:00.998Z</time></trkpt><trkpt lat="42.06064654750639" lon="13.702997298463432"><ele>1071.0</ele><time>2026-05-02T11:33:01.998Z</time></trkpt><trkpt lat="42.06057972002334" lon="13.702935849153551"><ele>1071.0</ele><time>2026-05-02T11:33:02.998Z</time></trkpt><trkpt lat="42.060562675814346" lon="13.702798665883991"><ele>1071.0</ele><time>2026-05-02T11:33:03.998Z</time></trkpt><trkpt lat="42.0605088696467" lon="13.702706210231522"><ele>1071.0</ele><time>2026-05-02T11:33:04.998Z</time></trkpt><trkpt lat="42.060454141224106" lon="13.702636875470533"><ele>1071.0</ele><time>2026-05-02T11:33:05.998Z</time></trkpt><trkpt lat="42.06039678204413" lon="13.702534786644677"><ele>1071.0</ele><time>2026-05-02T11:33:06.998Z</time></trkpt><trkpt lat="42.060323912504764" lon="13.70247445969279"><ele>1071.0</ele><time>2026-05-02T11:33:07.998Z</time></trkpt><trkpt lat="42.06026254873459" lon="13.702386473105044"><ele>1069.8</ele><time>2026-05-02T11:33:08.998Z</time></trkpt><trkpt lat="42.06021797937944" lon="13.702261511442208"><ele>1068.6</ele><time>2026-05-02T11:33:09.998Z</time></trkpt><trkpt lat="42.0601526687593" lon="13.702172695207818"><ele>1067.4</ele><time>2026-05-02T11:33:10.998Z</time></trkpt><trkpt lat="42.06010235845434" lon="13.702065112288384"><ele>1066.2</ele><time>2026-05-02T11:33:11.998Z</time></trkpt><trkpt lat="42.060035437514685" lon="13.701951335384877"><ele>1065.0</ele><time>2026-05-02T11:33:12.998Z</time></trkpt><trkpt lat="42.05996322943522" lon="13.701840549930344"><ele>1067.2</ele><time>2026-05-02T11:33:13.998Z</time></trkpt><trkpt lat="42.059896653964906" lon="13.701726045500305"><ele>1069.4</ele><time>2026-05-02T11:33:14.998Z</time></trkpt><trkpt lat="42.05986214819915" lon="13.701606082663625"><ele>1071.6</ele><time>2026-05-02T11:33:15.998Z</time></trkpt><trkpt lat="42.059787281466235" lon="13.701520001765438"><ele>1073.8</ele><time>2026-05-02T11:33:16.998Z</time></trkpt><trkpt lat="42.059730416798025" lon="13.701410260911677"><ele>1076.0</ele><time>2026-05-02T11:33:17.998Z</time></trkpt><trkpt lat="42.05968699784455" lon="13.701303178773369"><ele>1076.0</ele><time>2026-05-02T11:33:18.998Z</time></trkpt><trkpt lat="42.05962566673296" lon="13.701211675172658"><ele>1076.0</ele><time>2026-05-02T11:33:19.998Z</time></trkpt><trkpt lat="42.059554706496435" lon="13.701159251297357"><ele>1076.0</ele><time>2026-05-02T11:33:20.998Z</time></trkpt><trkpt lat="42.059492990106534" lon="13.701016742462597"><ele>1076.0</ele><time>2026-05-02T11:33:22.998Z</time></trkpt><trkpt lat="42.05942134821882" lon="13.700950256395389"><ele>1076.0</ele><time>2026-05-02T11:33:23.998Z</time></trkpt><trkpt lat="42.059376521485994" lon="13.700872317821068"><ele>1073.0</ele><time>2026-05-02T11:33:24.998Z</time></trkpt><trkpt lat="42.05931575514354" lon="13.700782735846804"><ele>1070.0</ele><time>2026-05-02T11:33:25.998Z</time></trkpt><trkpt lat="42.0592720348428" lon="13.70068378039816"><ele>1067.0</ele><time>2026-05-02T11:33:26.998Z</time></trkpt><trkpt lat="42.0591830509746" lon="13.700571567039482"><ele>1064.0</ele><time>2026-05-02T11:33:28.998Z</time></trkpt><trkpt lat="42.05909632146514" lon="13.700588984304796"><ele>1061.0</ele><time>2026-05-02T11:33:30.998Z</time></trkpt><trkpt lat="42.05903729559441" lon="13.700545053483838"><ele>1060.2</ele><time>2026-05-02T11:33:33.998Z</time></trkpt><trkpt lat="42.05893696831246" lon="13.700504472649508"><ele>1059.3999999999999</ele><time>2026-05-02T11:33:49.998Z</time></trkpt><trkpt lat="42.058868080211774" lon="13.70048436218077"><ele>1058.6</ele><time>2026-05-02T11:33:50.998Z</time></trkpt><trkpt lat="42.05878983629344" lon="13.700461051260795"><ele>1057.8</ele><time>2026-05-02T11:33:51.998Z</time></trkpt><trkpt lat="42.05866481202017" lon="13.700430462782723"><ele>1057.0</ele><time>2026-05-02T11:33:53.998Z</time></trkpt><trkpt lat="42.058593329341996" lon="13.700416281668609"><ele>1057.0</ele><time>2026-05-02T11:33:54.998Z</time></trkpt><trkpt lat="42.05852969328518" lon="13.70040774615141"><ele>1057.0</ele><time>2026-05-02T11:33:55.998Z</time></trkpt><trkpt lat="42.05840873817978" lon="13.700347558763404"><ele>1057.0</ele><time>2026-05-02T11:33:57.998Z</time></trkpt><trkpt lat="42.05833419077923" lon="13.700358291185218"><ele>1057.0</ele><time>2026-05-02T11:33:58.998Z</time></trkpt><trkpt lat="42.05826198123383" lon="13.700359453823523"><ele>1057.0</ele><time>2026-05-02T11:33:59.998Z</time></trkpt><trkpt lat="42.05818678311634" lon="13.700362196378707"><ele>1057.0</ele><time>2026-05-02T11:34:00.998Z</time></trkpt><trkpt lat="42.05812107290726" lon="13.700361812293421"><ele>1055.75</ele><time>2026-05-02T11:34:01.998Z</time></trkpt><trkpt lat="42.05799884998474" lon="13.700353555447325"><ele>1054.5</ele><time>2026-05-02T11:34:03.998Z</time></trkpt><trkpt lat="42.0578773579909" lon="13.700342621398525"><ele>1053.25</ele><time>2026-05-02T11:34:05.998Z</time></trkpt><trkpt lat="42.057759380704695" lon="13.700312238078762"><ele>1052.0</ele><time>2026-05-02T11:34:07.998Z</time></trkpt><trkpt lat="42.05764007034506" lon="13.700285815193372"><ele>1052.0</ele><time>2026-05-02T11:34:09.998Z</time></trkpt><trkpt lat="42.05757543711528" lon="13.700269766329962"><ele>1052.0</ele><time>2026-05-02T11:34:10.998Z</time></trkpt><trkpt lat="42.05744618701714" lon="13.700245882348963"><ele>1052.0</ele><time>2026-05-02T11:34:12.997Z</time></trkpt><trkpt lat="42.057381787377295" lon="13.700236813791072"><ele>1052.0</ele><time>2026-05-02T11:34:13.997Z</time></trkpt><trkpt lat="42.05731319256409" lon="13.700235149999017"><ele>1052.0</ele><time>2026-05-02T11:34:14.997Z</time></trkpt><trkpt lat="42.05724174219894" lon="13.700242251107419"><ele>1052.0</ele><time>2026-05-02T11:34:15.997Z</time></trkpt><trkpt lat="42.05716637825253" lon="13.700242602206494"><ele>1051.8333333333335</ele><time>2026-05-02T11:34:16.996Z</time></trkpt><trkpt lat="42.05710056953581" lon="13.700249313200286"><ele>1051.6666666666667</ele><time>2026-05-02T11:34:17.996Z</time></trkpt><trkpt lat="42.05702641345171" lon="13.700257637278057"><ele>1051.5</ele><time>2026-05-02T11:34:18.996Z</time></trkpt><trkpt lat="42.05694980516557" lon="13.700248724900321"><ele>1051.3333333333333</ele><time>2026-05-02T11:34:19.999Z</time></trkpt><trkpt lat="42.056864329381135" lon="13.700233391717362"><ele>1051.1666666666665</ele><time>2026-05-02T11:34:20.999Z</time></trkpt><trkpt lat="42.05678149879271" lon="13.70021958504553"><ele>1051.0</ele><time>2026-05-02T11:34:21.999Z</time></trkpt><trkpt lat="42.05669153699823" lon="13.700209918049653"><ele>1051.1666666666665</ele><time>2026-05-02T11:34:22.999Z</time></trkpt><trkpt lat="42.05659899688303" lon="13.700206133621688"><ele>1051.3333333333333</ele><time>2026-05-02T11:34:23.999Z</time></trkpt><trkpt lat="42.056508359179276" lon="13.700188515038874"><ele>1051.5</ele><time>2026-05-02T11:34:24.999Z</time></trkpt><trkpt lat="42.05641786334591" lon="13.700180284025574"><ele>1051.6666666666667</ele><time>2026-05-02T11:34:25.999Z</time></trkpt><trkpt lat="42.05633803376915" lon="13.700164839986371"><ele>1051.8333333333335</ele><time>2026-05-02T11:34:26.999Z</time></trkpt><trkpt lat="42.05626176220205" lon="13.700151480491732"><ele>1052.0</ele><time>2026-05-02T11:34:27.999Z</time></trkpt><trkpt lat="42.05618780548399" lon="13.700132915923657"><ele>1052.0</ele><time>2026-05-02T11:34:28.999Z</time></trkpt><trkpt lat="42.056117456225586" lon="13.700110225454704"><ele>1052.0</ele><time>2026-05-02T11:34:29.999Z</time></trkpt><trkpt lat="42.056038158958934" lon="13.700093746778252"><ele>1052.0</ele><time>2026-05-02T11:34:30.999Z</time></trkpt><trkpt lat="42.05596094469578" lon="13.70007816856442"><ele>1052.0</ele><time>2026-05-02T11:34:31.999Z</time></trkpt><trkpt lat="42.05588289895946" lon="13.700065474417213"><ele>1052.0</ele><time>2026-05-02T11:34:32.999Z</time></trkpt><trkpt lat="42.05579817854222" lon="13.700044498235945"><ele>1052.0</ele><time>2026-05-02T11:34:33.999Z</time></trkpt><trkpt lat="42.055721098551594" lon="13.700024506428123"><ele>1051.6666666666667</ele><time>2026-05-02T11:34:34.999Z</time></trkpt><trkpt lat="42.05564870211129" lon="13.700013159904026"><ele>1051.3333333333335</ele><time>2026-05-02T11:34:35.999Z</time></trkpt><trkpt lat="42.05556908886485" lon="13.700005875100718"><ele>1051.0</ele><time>2026-05-02T11:34:36.999Z</time></trkpt><trkpt lat="42.05548487889052" lon="13.699986330564222"><ele>1050.6666666666667</ele><time>2026-05-02T11:34:37.999Z</time></trkpt><trkpt lat="42.055399267600656" lon="13.699966407365123"><ele>1050.3333333333333</ele><time>2026-05-02T11:34:38.999Z</time></trkpt><trkpt lat="42.05531286245867" lon="13.699940903796012"><ele>1050.0</ele><time>2026-05-02T11:34:39.999Z</time></trkpt><trkpt lat="42.05523255563861" lon="13.699914126664288"><ele>1050.0</ele><time>2026-05-02T11:34:40.999Z</time></trkpt><trkpt lat="42.055159370183404" lon="13.699894126818608"><ele>1050.0</ele><time>2026-05-02T11:34:41.999Z</time></trkpt><trkpt lat="42.05509023839616" lon="13.699872328076125"><ele>1050.0</ele><time>2026-05-02T11:34:42.999Z</time></trkpt><trkpt lat="42.05502678846519" lon="13.69984843041465"><ele>1050.0</ele><time>2026-05-02T11:34:43.999Z</time></trkpt><trkpt lat="42.05492025832838" lon="13.6998005990816"><ele>1050.0</ele><time>2026-05-02T11:34:45.999Z</time></trkpt><trkpt lat="42.05482286758453" lon="13.699735806688226"><ele>1050.0</ele><time>2026-05-02T11:34:47.999Z</time></trkpt><trkpt lat="42.05472313719168" lon="13.699653801336956"><ele>1049.6666666666667</ele><time>2026-05-02T11:34:49.999Z</time></trkpt><trkpt lat="42.05462984854651" lon="13.699583359634769"><ele>1049.3333333333333</ele><time>2026-05-02T11:34:51.999Z</time></trkpt><trkpt lat="42.05455116165667" lon="13.699552845175564"><ele>1049.0</ele><time>2026-05-02T11:34:53.999Z</time></trkpt><trkpt lat="42.05448122294964" lon="13.699569012731793"><ele>1048.6666666666665</ele><time>2026-05-02T11:34:55.999Z</time></trkpt><trkpt lat="42.054414839024766" lon="13.699588317988784"><ele>1048.3333333333333</ele><time>2026-05-02T11:34:58.999Z</time></trkpt><trkpt lat="42.054334581729115" lon="13.699577250415965"><ele>1048.0</ele><time>2026-05-02T11:35:01.999Z</time></trkpt><trkpt lat="42.05422559083502" lon="13.699510396378098"><ele>1048.0</ele><time>2026-05-02T11:35:03.999Z</time></trkpt><trkpt lat="42.05414761950398" lon="13.699472296271537"><ele>1048.0</ele><time>2026-05-02T11:35:04.999Z</time></trkpt><trkpt lat="42.054080629171864" lon="13.699433864650421"><ele>1048.0</ele><time>2026-05-02T11:35:05.999Z</time></trkpt><trkpt lat="42.05401098947826" lon="13.699391980793761"><ele>1048.0</ele><time>2026-05-02T11:35:06.999Z</time></trkpt><trkpt lat="42.05392877272526" lon="13.699346852900716"><ele>1048.0</ele><time>2026-05-02T11:35:07.999Z</time></trkpt><trkpt lat="42.05385045614976" lon="13.699299438190408"><ele>1048.0</ele><time>2026-05-02T11:35:08.999Z</time></trkpt><trkpt lat="42.05377221340901" lon="13.699247409069889"><ele>1048.8</ele><time>2026-05-02T11:35:09.999Z</time></trkpt><trkpt lat="42.05368014445287" lon="13.69920086334598"><ele>1049.6</ele><time>2026-05-02T11:35:10.999Z</time></trkpt><trkpt lat="42.053579565825565" lon="13.699142118668968"><ele>1050.4</ele><time>2026-05-02T11:35:11.999Z</time></trkpt><trkpt lat="42.05349543566351" lon="13.699102377046051"><ele>1051.2</ele><time>2026-05-02T11:35:12.999Z</time></trkpt><trkpt lat="42.0534089481459" lon="13.69906582203525"><ele>1052.0</ele><time>2026-05-02T11:35:13.999Z</time></trkpt><trkpt lat="42.05332372539869" lon="13.699026807381918"><ele>1052.3333333333335</ele><time>2026-05-02T11:35:14.999Z</time></trkpt><trkpt lat="42.053247713027766" lon="13.698994603383511"><ele>1052.6666666666667</ele><time>2026-05-02T11:35:15.999Z</time></trkpt><trkpt lat="42.05316986962533" lon="13.698943312353766"><ele>1053.0</ele><time>2026-05-02T11:35:16.999Z</time></trkpt><trkpt lat="42.05310350646657" lon="13.698884078235741"><ele>1053.3333333333333</ele><time>2026-05-02T11:35:17.999Z</time></trkpt><trkpt lat="42.05302904163124" lon="13.698817637116893"><ele>1053.6666666666665</ele><time>2026-05-02T11:35:18.999Z</time></trkpt><trkpt lat="42.05295915987547" lon="13.698738844546456"><ele>1054.0</ele><time>2026-05-02T11:35:19.999Z</time></trkpt><trkpt lat="42.05288074245527" lon="13.698661707297504"><ele>1054.4</ele><time>2026-05-02T11:35:20.999Z</time></trkpt><trkpt lat="42.05280562410624" lon="13.698575679506089"><ele>1054.8000000000002</ele><time>2026-05-02T11:35:21.999Z</time></trkpt><trkpt lat="42.05273090865138" lon="13.69848711779106"><ele>1055.1999999999998</ele><time>2026-05-02T11:35:22.999Z</time></trkpt><trkpt lat="42.05265521153675" lon="13.698409438739844"><ele>1055.6</ele><time>2026-05-02T11:35:23.999Z</time></trkpt><trkpt lat="42.05257956773692" lon="13.69833446357729"><ele>1056.0</ele><time>2026-05-02T11:35:24.999Z</time></trkpt><trkpt lat="42.05250820641736" lon="13.698252369589207"><ele>1058.6</ele><time>2026-05-02T11:35:25.999Z</time></trkpt><trkpt lat="42.05243176570079" lon="13.698169113647504"><ele>1061.1999999999998</ele><time>2026-05-02T11:35:26.999Z</time></trkpt><trkpt lat="42.05235289452145" lon="13.698089359765747"><ele>1063.8000000000002</ele><time>2026-05-02T11:35:27.999Z</time></trkpt><trkpt lat="42.052280499148296" lon="13.698002378156716"><ele>1066.4</ele><time>2026-05-02T11:35:28.999Z</time></trkpt><trkpt lat="42.05220832207356" lon="13.69791345355483"><ele>1069.0</ele><time>2026-05-02T11:35:29.999Z</time></trkpt><trkpt lat="42.05213833447714" lon="13.697824027125783"><ele>1066.4</ele><time>2026-05-02T11:35:30.999Z</time></trkpt><trkpt lat="42.05206905029776" lon="13.697731203116955"><ele>1063.8000000000002</ele><time>2026-05-02T11:35:31.999Z</time></trkpt><trkpt lat="42.05199535371509" lon="13.697636839231853"><ele>1061.1999999999998</ele><time>2026-05-02T11:35:32.999Z</time></trkpt><trkpt lat="42.05192426749913" lon="13.697549341193499"><ele>1058.6</ele><time>2026-05-02T11:35:33.999Z</time></trkpt><trkpt lat="42.05185910719305" lon="13.697462196986821"><ele>1056.0</ele><time>2026-05-02T11:35:34.999Z</time></trkpt><trkpt lat="42.05179669213084" lon="13.697378868349155"><ele>1056.0</ele><time>2026-05-02T11:35:35.999Z</time></trkpt><trkpt lat="42.0517220748417" lon="13.69731362995092"><ele>1056.0</ele><time>2026-05-02T11:35:36.999Z</time></trkpt><trkpt lat="42.05165010322421" lon="13.697230414050441"><ele>1056.0</ele><time>2026-05-02T11:35:37.999Z</time></trkpt><trkpt lat="42.05157492789735" lon="13.697149985879516"><ele>1056.0</ele><time>2026-05-02T11:35:38.999Z</time></trkpt><trkpt lat="42.051507212177206" lon="13.697070378144597"><ele>1056.0</ele><time>2026-05-02T11:35:39.999Z</time></trkpt><trkpt lat="42.051444293817994" lon="13.696994172431026"><ele>1055.8</ele><time>2026-05-02T11:35:40.999Z</time></trkpt><trkpt lat="42.051373150737945" lon="13.696927395182183"><ele>1055.6</ele><time>2026-05-02T11:35:41.999Z</time></trkpt><trkpt lat="42.051292730857654" lon="13.696865219744605"><ele>1055.4</ele><time>2026-05-02T11:35:42.999Z</time></trkpt><trkpt lat="42.05121487879391" lon="13.696781410109326"><ele>1055.2</ele><time>2026-05-02T11:35:43.999Z</time></trkpt><trkpt lat="42.05113569530312" lon="13.696688385571528"><ele>1055.0</ele><time>2026-05-02T11:35:44.999Z</time></trkpt><trkpt lat="42.05106050113008" lon="13.696595032640966"><ele>1055.0</ele><time>2026-05-02T11:35:45.999Z</time></trkpt><trkpt lat="42.05098827799174" lon="13.696506605108508"><ele>1055.0</ele><time>2026-05-02T11:35:46.999Z</time></trkpt><trkpt lat="42.05090966174472" lon="13.696421095769717"><ele>1055.0</ele><time>2026-05-02T11:35:47.999Z</time></trkpt><trkpt lat="42.05083313345503" lon="13.69633639702887"><ele>1055.0</ele><time>2026-05-02T11:35:48.999Z</time></trkpt><trkpt lat="42.05076492205989" lon="13.696246859300288"><ele>1055.0</ele><time>2026-05-02T11:35:49.999Z</time></trkpt><trkpt lat="42.05070122483638" lon="13.696149512259032"><ele>1054.3333333333335</ele><time>2026-05-02T11:35:50.999Z</time></trkpt><trkpt lat="42.05063645575303" lon="13.696058316014486"><ele>1053.6666666666667</ele><time>2026-05-02T11:35:51.999Z</time></trkpt><trkpt lat="42.050571585563404" lon="13.695979449505865"><ele>1053.0</ele><time>2026-05-02T11:35:52.999Z</time></trkpt><trkpt lat="42.05051434638674" lon="13.695896504818128"><ele>1052.3333333333333</ele><time>2026-05-02T11:35:53.999Z</time></trkpt><trkpt lat="42.05046018386925" lon="13.695811475337514"><ele>1051.6666666666665</ele><time>2026-05-02T11:35:54.999Z</time></trkpt><trkpt lat="42.05040216160547" lon="13.695738508655916"><ele>1051.0</ele><time>2026-05-02T11:35:55.999Z</time></trkpt><trkpt lat="42.050346469247714" lon="13.69566606472398"><ele>1051.0</ele><time>2026-05-02T11:35:56.999Z</time></trkpt><trkpt lat="42.0502801771333" lon="13.695595784153532"><ele>1051.0</ele><time>2026-05-02T11:35:57.999Z</time></trkpt><trkpt lat="42.050208432517174" lon="13.695506499585628"><ele>1051.0</ele><time>2026-05-02T11:35:58.999Z</time></trkpt><trkpt lat="42.05013747056694" lon="13.695413441788258"><ele>1051.0</ele><time>2026-05-02T11:35:59.999Z</time></trkpt><trkpt lat="42.05006796056522" lon="13.695326254458896"><ele>1051.0</ele><time>2026-05-02T11:36:00.999Z</time></trkpt><trkpt lat="42.05001178259273" lon="13.695233438064712"><ele>1051.8333333333333</ele><time>2026-05-02T11:36:01.999Z</time></trkpt><trkpt lat="42.04994889251866" lon="13.69515101464869"><ele>1052.6666666666665</ele><time>2026-05-02T11:36:02.999Z</time></trkpt><trkpt lat="42.0498815404713" lon="13.695063167562614"><ele>1053.5</ele><time>2026-05-02T11:36:03.999Z</time></trkpt><trkpt lat="42.04981670057296" lon="13.694972215209983"><ele>1054.3333333333333</ele><time>2026-05-02T11:36:04.999Z</time></trkpt><trkpt lat="42.04975856489795" lon="13.69488904397952"><ele>1055.1666666666667</ele><time>2026-05-02T11:36:05.999Z</time></trkpt><trkpt lat="42.04970384773882" lon="13.694811647756087"><ele>1056.0</ele><time>2026-05-02T11:36:06.999Z</time></trkpt><trkpt lat="42.04964991606101" lon="13.694737156206092"><ele>1056.0</ele><time>2026-05-02T11:36:07.999Z</time></trkpt><trkpt lat="42.049593927120476" lon="13.6946632405986"><ele>1056.0</ele><time>2026-05-02T11:36:08.999Z</time></trkpt><trkpt lat="42.04954038469255" lon="13.694577835383514"><ele>1056.0</ele><time>2026-05-02T11:36:09.999Z</time></trkpt><trkpt lat="42.04948548378797" lon="13.694494972487353"><ele>1056.0</ele><time>2026-05-02T11:36:10.999Z</time></trkpt><trkpt lat="42.04942789391682" lon="13.694419333787415"><ele>1056.0</ele><time>2026-05-02T11:36:11.999Z</time></trkpt><trkpt lat="42.04937652913272" lon="13.694338708420485"><ele>1056.0</ele><time>2026-05-02T11:36:12.999Z</time></trkpt><trkpt lat="42.049327452083986" lon="13.694265348994982"><ele>1055.8</ele><time>2026-05-02T11:36:13.999Z</time></trkpt><trkpt lat="42.04927896650972" lon="13.694192380158952"><ele>1055.6</ele><time>2026-05-02T11:36:14.999Z</time></trkpt><trkpt lat="42.04921215026166" lon="13.694128994596973"><ele>1055.4</ele><time>2026-05-02T11:36:15.999Z</time></trkpt><trkpt lat="42.04913378312425" lon="13.694062319581585"><ele>1055.2</ele><time>2026-05-02T11:36:16.999Z</time></trkpt><trkpt lat="42.049053730520924" lon="13.693976146490062"><ele>1055.0</ele><time>2026-05-02T11:36:17.999Z</time></trkpt><trkpt lat="42.04896805836055" lon="13.693896677435259"><ele>1055.0</ele><time>2026-05-02T11:36:18.999Z</time></trkpt><trkpt lat="42.048894538212544" lon="13.693815043437448"><ele>1055.0</ele><time>2026-05-02T11:36:19.999Z</time></trkpt><trkpt lat="42.048825229007214" lon="13.693737507983748"><ele>1055.0</ele><time>2026-05-02T11:36:20.999Z</time></trkpt><trkpt lat="42.04875093772026" lon="13.693662111258185"><ele>1055.0</ele><time>2026-05-02T11:36:21.999Z</time></trkpt><trkpt lat="42.04868144333064" lon="13.693574162068746"><ele>1055.0</ele><time>2026-05-02T11:36:22.999Z</time></trkpt><trkpt lat="42.04860889764029" lon="13.693486542969628"><ele>1054.6</ele><time>2026-05-02T11:36:23.999Z</time></trkpt><trkpt lat="42.048533589677845" lon="13.693410832804588"><ele>1054.2</ele><time>2026-05-02T11:36:24.999Z</time></trkpt><trkpt lat="42.04846239794944" lon="13.6933375695304"><ele>1053.8</ele><time>2026-05-02T11:36:25.999Z</time></trkpt><trkpt lat="42.04838646529885" lon="13.693267035468697"><ele>1053.4</ele><time>2026-05-02T11:36:26.999Z</time></trkpt><trkpt lat="42.048313431484075" lon="13.693186749538228"><ele>1053.0</ele><time>2026-05-02T11:36:27.999Z</time></trkpt><trkpt lat="42.04823967152854" lon="13.69310862032185"><ele>1053.0</ele><time>2026-05-02T11:36:28.999Z</time></trkpt><trkpt lat="42.04816805620609" lon="13.693027243931583"><ele>1053.0</ele><time>2026-05-02T11:36:29.999Z</time></trkpt><trkpt lat="42.04809463467729" lon="13.692950008984178"><ele>1053.0</ele><time>2026-05-02T11:36:30.999Z</time></trkpt><trkpt lat="42.04801930577534" lon="13.692862262478268"><ele>1053.0</ele><time>2026-05-02T11:36:31.999Z</time></trkpt><trkpt lat="42.04794866470207" lon="13.692767736455474"><ele>1053.0</ele><time>2026-05-02T11:36:32.999Z</time></trkpt><trkpt lat="42.04787330658682" lon="13.692684328329122"><ele>1048.8</ele><time>2026-05-02T11:36:33.999Z</time></trkpt><trkpt lat="42.04779635543662" lon="13.692603884903702"><ele>1044.6</ele><time>2026-05-02T11:36:34.999Z</time></trkpt><trkpt lat="42.04771753326469" lon="13.692525272747144"><ele>1040.4</ele><time>2026-05-02T11:36:35.999Z</time></trkpt><trkpt lat="42.04764544607475" lon="13.692446843537205"><ele>1036.2</ele><time>2026-05-02T11:36:36.999Z</time></trkpt><trkpt lat="42.04757091149073" lon="13.692371858381131"><ele>1032.0</ele><time>2026-05-02T11:36:37.999Z</time></trkpt><trkpt lat="42.04749340407015" lon="13.69229679777325"><ele>1033.4</ele><time>2026-05-02T11:36:38.999Z</time></trkpt><trkpt lat="42.04741649210295" lon="13.692226779856767"><ele>1034.8000000000002</ele><time>2026-05-02T11:36:39.999Z</time></trkpt><trkpt lat="42.04734838520343" lon="13.692149557990088"><ele>1036.2</ele><time>2026-05-02T11:36:40.999Z</time></trkpt><trkpt lat="42.0472686779159" lon="13.692087564841813"><ele>1037.6000000000001</ele><time>2026-05-02T11:36:41.999Z</time></trkpt><trkpt lat="42.047183657319884" lon="13.692010394089326"><ele>1039.0</ele><time>2026-05-02T11:36:42.999Z</time></trkpt><trkpt lat="42.047099298791785" lon="13.691931753586775"><ele>1035.4</ele><time>2026-05-02T11:36:43.999Z</time></trkpt><trkpt lat="42.04700781318947" lon="13.691872359780204"><ele>1031.8000000000002</ele><time>2026-05-02T11:36:44.999Z</time></trkpt><trkpt lat="42.046914244327" lon="13.69180389243002"><ele>1028.1999999999998</ele><time>2026-05-02T11:36:45.999Z</time></trkpt><trkpt lat="42.04681661076805" lon="13.691734342539071"><ele>1024.6</ele><time>2026-05-02T11:36:46.999Z</time></trkpt><trkpt lat="42.04672310946898" lon="13.691667105518642"><ele>1021.0</ele><time>2026-05-02T11:36:47.999Z</time></trkpt><trkpt lat="42.04663801236397" lon="13.691602616202792"><ele>1021.3333333333333</ele><time>2026-05-02T11:36:48.999Z</time></trkpt><trkpt lat="42.04656519443612" lon="13.691545503820999"><ele>1021.6666666666666</ele><time>2026-05-02T11:36:49.999Z</time></trkpt><trkpt lat="42.04650111883363" lon="13.691488974985017"><ele>1022.0</ele><time>2026-05-02T11:36:50.999Z</time></trkpt><trkpt lat="42.04643548856106" lon="13.69144053579324"><ele>1022.3333333333333</ele><time>2026-05-02T11:36:51.999Z</time></trkpt><trkpt lat="42.04636142712979" lon="13.69137839092317"><ele>1022.6666666666666</ele><time>2026-05-02T11:36:52.999Z</time></trkpt><trkpt lat="42.046277976961946" lon="13.691311385264674"><ele>1023.0</ele><time>2026-05-02T11:36:53.999Z</time></trkpt><trkpt lat="42.046192693970596" lon="13.691243631891426"><ele>1023.0</ele><time>2026-05-02T11:36:54.999Z</time></trkpt><trkpt lat="42.04610494853746" lon="13.691181648616322"><ele>1023.0</ele><time>2026-05-02T11:36:55.999Z</time></trkpt><trkpt lat="42.04602452908232" lon="13.69110874067431"><ele>1023.0</ele><time>2026-05-02T11:36:56.999Z</time></trkpt><trkpt lat="42.04594778046224" lon="13.691034630419349"><ele>1023.0</ele><time>2026-05-02T11:36:57.999Z</time></trkpt><trkpt lat="42.045875243326336" lon="13.690962051749077"><ele>1023.0</ele><time>2026-05-02T11:36:58.999Z</time></trkpt><trkpt lat="42.04579676316511" lon="13.690899778425784"><ele>1021.8</ele><time>2026-05-02T11:36:59.999Z</time></trkpt><trkpt lat="42.0457200437671" lon="13.690832025327559"><ele>1020.5999999999999</ele><time>2026-05-02T11:37:00.999Z</time></trkpt><trkpt lat="42.04564591654228" lon="13.690755527289484"><ele>1019.4000000000001</ele><time>2026-05-02T11:37:01.999Z</time></trkpt><trkpt lat="42.04557510149616" lon="13.69067426841971"><ele>1018.2</ele><time>2026-05-02T11:37:02.999Z</time></trkpt><trkpt lat="42.0455052047637" lon="13.690590947901415"><ele>1017.0</ele><time>2026-05-02T11:37:03.999Z</time></trkpt><trkpt lat="42.04544101201029" lon="13.690501498047515"><ele>1017.0</ele><time>2026-05-02T11:37:04.999Z</time></trkpt><trkpt lat="42.04537937482923" lon="13.690405078274326"><ele>1017.0</ele><time>2026-05-02T11:37:05.999Z</time></trkpt><trkpt lat="42.04532808421972" lon="13.690305864415429"><ele>1017.0</ele><time>2026-05-02T11:37:06.999Z</time></trkpt><trkpt lat="42.045291465922965" lon="13.69019833049442"><ele>1017.0</ele><time>2026-05-02T11:37:07.999Z</time></trkpt><trkpt lat="42.04525140541961" lon="13.690097044436802"><ele>1017.0</ele><time>2026-05-02T11:37:08.999Z</time></trkpt><trkpt lat="42.045208395551626" lon="13.690003804369825"><ele>1017.0</ele><time>2026-05-02T11:37:09.999Z</time></trkpt><trkpt lat="42.04515450690691" lon="13.689927966424882"><ele>1017.5</ele><time>2026-05-02T11:37:10.999Z</time></trkpt><trkpt lat="42.04510727300654" lon="13.689845147385732"><ele>1018.0</ele><time>2026-05-02T11:37:11.999Z</time></trkpt><trkpt lat="42.04506683022446" lon="13.689754589370345"><ele>1018.5</ele><time>2026-05-02T11:37:12.999Z</time></trkpt><trkpt lat="42.04502834271942" lon="13.689666725361901"><ele>1019.0</ele><time>2026-05-02T11:37:13.999Z</time></trkpt><trkpt lat="42.04498111621792" lon="13.68957951831744"><ele>1019.5</ele><time>2026-05-02T11:37:14.999Z</time></trkpt><trkpt lat="42.04493522807098" lon="13.689480223627838"><ele>1020.0</ele><time>2026-05-02T11:37:15.999Z</time></trkpt><trkpt lat="42.04489953057078" lon="13.689371941542584"><ele>1020.0</ele><time>2026-05-02T11:37:16.999Z</time></trkpt><trkpt lat="42.04486170135349" lon="13.689271579077959"><ele>1020.0</ele><time>2026-05-02T11:37:17.999Z</time></trkpt><trkpt lat="42.04483396192654" lon="13.689160795575303"><ele>1020.0</ele><time>2026-05-02T11:37:18.999Z</time></trkpt><trkpt lat="42.044789556669656" lon="13.68906046507715"><ele>1020.0</ele><time>2026-05-02T11:37:19.999Z</time></trkpt><trkpt lat="42.044755234462755" lon="13.688955444251903"><ele>1020.0</ele><time>2026-05-02T11:37:20.999Z</time></trkpt><trkpt lat="42.04472429617431" lon="13.68885397135561"><ele>1020.0</ele><time>2026-05-02T11:37:21.999Z</time></trkpt><trkpt lat="42.0446853602751" lon="13.688762850435491"><ele>1020.0</ele><time>2026-05-02T11:37:22.999Z</time></trkpt><trkpt lat="42.04463482338343" lon="13.688672359599856"><ele>1020.0</ele><time>2026-05-02T11:37:23.999Z</time></trkpt><trkpt lat="42.04458717814554" lon="13.688568653522804"><ele>1020.0</ele><time>2026-05-02T11:37:24.999Z</time></trkpt><trkpt lat="42.04454782800644" lon="13.688460822883428"><ele>1020.0</ele><time>2026-05-02T11:37:25.999Z</time></trkpt><trkpt lat="42.044523843191115" lon="13.688346447842283"><ele>1020.0</ele><time>2026-05-02T11:37:26.999Z</time></trkpt><trkpt lat="42.044495344013534" lon="13.688242259150876"><ele>1020.0</ele><time>2026-05-02T11:37:27.999Z</time></trkpt><trkpt lat="42.04445428090053" lon="13.688172809693398"><ele>1015.6</ele><time>2026-05-02T11:37:28.999Z</time></trkpt><trkpt lat="42.044402472130216" lon="13.688102607805986"><ele>1011.2</ele><time>2026-05-02T11:37:30.999Z</time></trkpt><trkpt lat="42.04435935212041" lon="13.68803433082577"><ele>1006.8</ele><time>2026-05-02T11:37:33.999Z</time></trkpt><trkpt lat="42.04429416437618" lon="13.68792338517272"><ele>1002.4</ele><time>2026-05-02T11:37:35.999Z</time></trkpt><trkpt lat="42.044226631402395" lon="13.687814526866774"><ele>998.0</ele><time>2026-05-02T11:37:37.999Z</time></trkpt><trkpt lat="42.044163248434906" lon="13.687693752087618"><ele>997.5999999999999</ele><time>2026-05-02T11:37:39.999Z</time></trkpt><trkpt lat="42.04411593679034" lon="13.687546118455916"><ele>997.1999999999999</ele><time>2026-05-02T11:37:41.999Z</time></trkpt><trkpt lat="42.04406438059118" lon="13.687427807707712"><ele>996.8</ele><time>2026-05-02T11:37:43.998Z</time></trkpt><trkpt lat="42.04400713496016" lon="13.687322499785052"><ele>996.4</ele><time>2026-05-02T11:37:45.998Z</time></trkpt><trkpt lat="42.04394965874785" lon="13.687226484521815"><ele>996.0</ele><time>2026-05-02T11:37:47.998Z</time></trkpt><trkpt lat="42.04389044028204" lon="13.687140769931728"><ele>996.0</ele><time>2026-05-02T11:37:49.998Z</time></trkpt><trkpt lat="42.04382923890162" lon="13.687081015331852"><ele>996.0</ele><time>2026-05-02T11:37:51.998Z</time></trkpt><trkpt lat="42.043776035502376" lon="13.68698335846059"><ele>996.0</ele><time>2026-05-02T11:37:54.998Z</time></trkpt><trkpt lat="42.043714272100694" lon="13.686888295275773"><ele>996.0</ele><time>2026-05-02T11:37:57.998Z</time></trkpt><trkpt lat="42.043653939385514" lon="13.686788253970802"><ele>996.0</ele><time>2026-05-02T11:38:00.998Z</time></trkpt><trkpt lat="42.04360070160172" lon="13.686729006872758"><ele>996.0</ele><time>2026-05-02T11:38:02.998Z</time></trkpt><trkpt lat="42.043555277112" lon="13.686612778067913"><ele>991.1999999999999</ele><time>2026-05-02T11:38:05.998Z</time></trkpt><trkpt lat="42.04352839668966" lon="13.686501532884996"><ele>986.3999999999999</ele><time>2026-05-02T11:38:07.998Z</time></trkpt><trkpt lat="42.04347975026073" lon="13.686395223688088"><ele>981.6</ele><time>2026-05-02T11:38:09.998Z</time></trkpt><trkpt lat="42.04345211564455" lon="13.686261135769504"><ele>976.8</ele><time>2026-05-02T11:38:11.998Z</time></trkpt><trkpt lat="42.04341549271908" lon="13.686139835332465"><ele>972.0</ele><time>2026-05-02T11:38:13.998Z</time></trkpt><trkpt lat="42.043371766697604" lon="13.686024729457277"><ele>973.0</ele><time>2026-05-02T11:38:15.998Z</time></trkpt><trkpt lat="42.04330065730369" lon="13.685915610232243"><ele>974.0</ele><time>2026-05-02T11:38:17.998Z</time></trkpt><trkpt lat="42.043246774907864" lon="13.68580485470389"><ele>975.0</ele><time>2026-05-02T11:38:19.998Z</time></trkpt><trkpt lat="42.0432019467563" lon="13.68571551027747"><ele>976.0</ele><time>2026-05-02T11:38:21.998Z</time></trkpt><trkpt lat="42.04315880585202" lon="13.6856296651119"><ele>977.0</ele><time>2026-05-02T11:38:23.998Z</time></trkpt><trkpt lat="42.04310665628401" lon="13.68554466585686"><ele>978.0</ele><time>2026-05-02T11:38:25.998Z</time></trkpt><trkpt lat="42.04305714607668" lon="13.685477155372661"><ele>978.0</ele><time>2026-05-02T11:38:27.998Z</time></trkpt><trkpt lat="42.04302290595962" lon="13.685403910019414"><ele>978.0</ele><time>2026-05-02T11:38:29.998Z</time></trkpt><trkpt lat="42.042968552146675" lon="13.685328254316177"><ele>978.0</ele><time>2026-05-02T11:38:31.998Z</time></trkpt><trkpt lat="42.04288043895236" lon="13.685225631331239"><ele>978.0</ele><time>2026-05-02T11:38:33.998Z</time></trkpt><trkpt lat="42.042831976506285" lon="13.685150864078071"><ele>978.0</ele><time>2026-05-02T11:38:34.998Z</time></trkpt><trkpt lat="42.042795276802295" lon="13.68508101991526"><ele>978.0</ele><time>2026-05-02T11:38:35.998Z</time></trkpt><trkpt lat="42.042726111835584" lon="13.684976795880111"><ele>976.8</ele><time>2026-05-02T11:38:37.998Z</time></trkpt><trkpt lat="42.04266278104869" lon="13.684855157918348"><ele>975.5999999999999</ele><time>2026-05-02T11:38:39.998Z</time></trkpt><trkpt lat="42.04263103879019" lon="13.684765549825359"><ele>974.4000000000001</ele><time>2026-05-02T11:38:40.998Z</time></trkpt><trkpt lat="42.042563750797854" lon="13.6846397334045"><ele>973.2</ele><time>2026-05-02T11:38:42.998Z</time></trkpt><trkpt lat="42.042477619285975" lon="13.68451822401951"><ele>972.0</ele><time>2026-05-02T11:38:44.998Z</time></trkpt><trkpt lat="42.04242523748095" lon="13.684447622292273"><ele>966.8333333333334</ele><time>2026-05-02T11:38:45.998Z</time></trkpt><trkpt lat="42.04236454270743" lon="13.68434770166589"><ele>961.6666666666667</ele><time>2026-05-02T11:38:47.998Z</time></trkpt><trkpt lat="42.04231925937194" lon="13.6842762966339"><ele>956.5</ele><time>2026-05-02T11:39:24.998Z</time></trkpt><trkpt lat="42.04227079664102" lon="13.684210398272812"><ele>951.3333333333334</ele><time>2026-05-02T11:39:26.998Z</time></trkpt><trkpt lat="42.04219279076903" lon="13.68409457422177"><ele>946.1666666666667</ele><time>2026-05-02T11:39:28.998Z</time></trkpt><trkpt lat="42.04213235378638" lon="13.683999882884788"><ele>941.0</ele><time>2026-05-02T11:39:30.998Z</time></trkpt><trkpt lat="42.042085274533825" lon="13.683933741329783"><ele>941.0</ele><time>2026-05-02T11:39:32.998Z</time></trkpt><trkpt lat="42.04203683533937" lon="13.683854658536474"><ele>940.9999999999999</ele><time>2026-05-02T11:39:34.998Z</time></trkpt><trkpt lat="42.04197028145867" lon="13.683771647846566"><ele>940.9999999999999</ele><time>2026-05-02T11:39:36.998Z</time></trkpt><trkpt lat="42.041899200451226" lon="13.683660149650565"><ele>941.0</ele><time>2026-05-02T11:39:38.998Z</time></trkpt><trkpt lat="42.04183349158398" lon="13.683575459149333"><ele>941.0</ele><time>2026-05-02T11:39:40.998Z</time></trkpt><trkpt lat="42.0417661909867" lon="13.683490693454212"><ele>938.4</ele><time>2026-05-02T11:39:42.998Z</time></trkpt><trkpt lat="42.04171205422238" lon="13.683383036320917"><ele>935.8</ele><time>2026-05-02T11:39:44.998Z</time></trkpt><trkpt lat="42.041653482483795" lon="13.6832700039665"><ele>933.1999999999999</ele><time>2026-05-02T11:39:46.998Z</time></trkpt><trkpt lat="42.04159399726475" lon="13.683146176533285"><ele>930.5999999999999</ele><time>2026-05-02T11:39:48.998Z</time></trkpt><trkpt lat="42.0415181113065" lon="13.683016388790818"><ele>928.0</ele><time>2026-05-02T11:39:50.998Z</time></trkpt><trkpt lat="42.04148140359944" lon="13.682939914980278"><ele>927.9999999999999</ele><time>2026-05-02T11:39:51.998Z</time></trkpt><trkpt lat="42.041415255025086" lon="13.682815747098454"><ele>928.0</ele><time>2026-05-02T11:39:53.998Z</time></trkpt><trkpt lat="42.041340714996394" lon="13.682706559980293"><ele>928.0</ele><time>2026-05-02T11:39:55.998Z</time></trkpt><trkpt lat="42.04129914973762" lon="13.682638699977923"><ele>928.0</ele><time>2026-05-02T11:39:56.998Z</time></trkpt><trkpt lat="42.04125563302801" lon="13.68257189484901"><ele>927.9999999999999</ele><time>2026-05-02T11:39:57.998Z</time></trkpt><trkpt lat="42.04121939154048" lon="13.682494863053947"><ele>928.0</ele><time>2026-05-02T11:39:58.998Z</time></trkpt><trkpt lat="42.04118410210844" lon="13.682410538741925"><ele>923.8333333333333</ele><time>2026-05-02T11:39:59.998Z</time></trkpt><trkpt lat="42.041150878816715" lon="13.682324808574087"><ele>919.6666666666666</ele><time>2026-05-02T11:40:00.998Z</time></trkpt><trkpt lat="42.0411182012592" lon="13.682240121767755"><ele>915.5</ele><time>2026-05-02T11:40:01.998Z</time></trkpt><trkpt lat="42.04101891430714" lon="13.682106484364658"><ele>911.3333333333333</ele><time>2026-05-02T11:40:03.998Z</time></trkpt><trkpt lat="42.0409643955995" lon="13.682018792132135"><ele>907.1666666666666</ele><time>2026-05-02T11:40:04.998Z</time></trkpt><trkpt lat="42.040918402050764" lon="13.68194980790749"><ele>903.0</ele><time>2026-05-02T11:40:05.998Z</time></trkpt><trkpt lat="42.04086457299457" lon="13.681856092743104"><ele>902.0</ele><time>2026-05-02T11:40:06.998Z</time></trkpt><trkpt lat="42.04081049460903" lon="13.681769971361918"><ele>901.0</ele><time>2026-05-02T11:40:07.998Z</time></trkpt><trkpt lat="42.040767239054425" lon="13.68169318127523"><ele>900.0</ele><time>2026-05-02T11:40:08.998Z</time></trkpt><trkpt lat="42.040716786287895" lon="13.681625912073775"><ele>899.0</ele><time>2026-05-02T11:40:09.998Z</time></trkpt><trkpt lat="42.04063248846857" lon="13.68149341521453"><ele>898.0</ele><time>2026-05-02T11:40:11.998Z</time></trkpt><trkpt lat="42.04058497184373" lon="13.68140827898286"><ele>897.0</ele><time>2026-05-02T11:40:12.998Z</time></trkpt><trkpt lat="42.040532164309695" lon="13.681339449067698"><ele>897.0</ele><time>2026-05-02T11:40:13.998Z</time></trkpt><trkpt lat="42.04047794591069" lon="13.681265754174943"><ele>897.0</ele><time>2026-05-02T11:40:14.998Z</time></trkpt><trkpt lat="42.04042358160471" lon="13.68119063315111"><ele>897.0</ele><time>2026-05-02T11:40:15.998Z</time></trkpt><trkpt lat="42.04036866024296" lon="13.681106787779425"><ele>897.0</ele><time>2026-05-02T11:40:16.998Z</time></trkpt><trkpt lat="42.0402869849342" lon="13.68099040383688"><ele>897.0</ele><time>2026-05-02T11:40:18.998Z</time></trkpt><trkpt lat="42.04024384866374" lon="13.680926718181267"><ele>897.0</ele><time>2026-05-02T11:40:19.998Z</time></trkpt><trkpt lat="42.04019009465912" lon="13.680852905616897"><ele>898.0</ele><time>2026-05-02T11:40:20.998Z</time></trkpt><trkpt lat="42.040146356471155" lon="13.680785675710807"><ele>899.0</ele><time>2026-05-02T11:40:21.998Z</time></trkpt><trkpt lat="42.040102542385156" lon="13.680708294076904"><ele>900.0</ele><time>2026-05-02T11:40:22.998Z</time></trkpt><trkpt lat="42.040059315745225" lon="13.68063161650199"><ele>901.0</ele><time>2026-05-02T11:40:23.998Z</time></trkpt><trkpt lat="42.04001997557174" lon="13.680554128836299"><ele>902.0</ele><time>2026-05-02T11:40:24.998Z</time></trkpt><trkpt lat="42.03997652526042" lon="13.680471018090783"><ele>903.0</ele><time>2026-05-02T11:40:25.998Z</time></trkpt><trkpt lat="42.03993557231093" lon="13.680388666492549"><ele>904.0</ele><time>2026-05-02T11:40:26.998Z</time></trkpt><trkpt lat="42.039889781514006" lon="13.680296202117107"><ele>900.9999999999999</ele><time>2026-05-02T11:40:27.998Z</time></trkpt><trkpt lat="42.03984144067266" lon="13.68021462656006"><ele>898.0</ele><time>2026-05-02T11:40:28.998Z</time></trkpt><trkpt lat="42.03979280969163" lon="13.680130006407426"><ele>895.0</ele><time>2026-05-02T11:40:29.998Z</time></trkpt><trkpt lat="42.03974379219872" lon="13.680032018023278"><ele>892.0</ele><time>2026-05-02T11:40:30.998Z</time></trkpt><trkpt lat="42.03969302918853" lon="13.679944750984411"><ele>888.9999999999999</ele><time>2026-05-02T11:40:31.998Z</time></trkpt><trkpt lat="42.039646746887456" lon="13.679874689108603"><ele>886.0</ele><time>2026-05-02T11:40:32.998Z</time></trkpt><trkpt lat="42.039591660446554" lon="13.679778003092183"><ele>885.9999999999999</ele><time>2026-05-02T11:40:33.998Z</time></trkpt><trkpt lat="42.039543283552945" lon="13.679681258590758"><ele>886.0</ele><time>2026-05-02T11:40:34.998Z</time></trkpt><trkpt lat="42.039498539680025" lon="13.679594238696417"><ele>886.0</ele><time>2026-05-02T11:40:35.998Z</time></trkpt><trkpt lat="42.039452899517514" lon="13.679520799789401"><ele>886.0</ele><time>2026-05-02T11:40:36.998Z</time></trkpt><trkpt lat="42.03941123357492" lon="13.679446628011226"><ele>885.9999999999999</ele><time>2026-05-02T11:40:37.998Z</time></trkpt><trkpt lat="42.03936218925255" lon="13.679366181462562"><ele>886.0</ele><time>2026-05-02T11:40:38.998Z</time></trkpt><trkpt lat="42.039318887979" lon="13.679285613673892"><ele>886.4999999999999</ele><time>2026-05-02T11:40:39.998Z</time></trkpt><trkpt lat="42.03925023657475" lon="13.679155876935388"><ele>887.0</ele><time>2026-05-02T11:40:41.998Z</time></trkpt><trkpt lat="42.03921376266315" lon="13.67908564381989"><ele>887.5</ele><time>2026-05-02T11:40:42.998Z</time></trkpt><trkpt lat="42.03916638506479" lon="13.679014330900042"><ele>888.0</ele><time>2026-05-02T11:40:43.998Z</time></trkpt><trkpt lat="42.03911076003667" lon="13.67893167047989"><ele>888.4999999999999</ele><time>2026-05-02T11:40:44.998Z</time></trkpt><trkpt lat="42.03906215944334" lon="13.6788407412739"><ele>889.0</ele><time>2026-05-02T11:40:45.998Z</time></trkpt><trkpt lat="42.03901767597274" lon="13.67873088800802"><ele>888.9999999999999</ele><time>2026-05-02T11:40:46.998Z</time></trkpt><trkpt lat="42.03897155595559" lon="13.678633416794051"><ele>889.0</ele><time>2026-05-02T11:40:47.998Z</time></trkpt><trkpt lat="42.038930084912984" lon="13.678559195488871"><ele>889.0</ele><time>2026-05-02T11:40:48.998Z</time></trkpt><trkpt lat="42.038884109655484" lon="13.678464069090568"><ele>889.0</ele><time>2026-05-02T11:40:49.998Z</time></trkpt><trkpt lat="42.03883761599762" lon="13.678366691337413"><ele>888.9999999999999</ele><time>2026-05-02T11:40:50.998Z</time></trkpt><trkpt lat="42.03877228052073" lon="13.678259450289206"><ele>889.0</ele><time>2026-05-02T11:40:51.998Z</time></trkpt><trkpt lat="42.03870976602908" lon="13.67815624237084"><ele>886.1666666666666</ele><time>2026-05-02T11:40:52.997Z</time></trkpt><trkpt lat="42.038659473405794" lon="13.678064416642103"><ele>883.3333333333333</ele><time>2026-05-02T11:40:53.997Z</time></trkpt><trkpt lat="42.0386071542129" lon="13.67796111427296"><ele>880.5</ele><time>2026-05-02T11:40:54.997Z</time></trkpt><trkpt lat="42.038560555224" lon="13.677868886014092"><ele>877.6666666666667</ele><time>2026-05-02T11:40:55.997Z</time></trkpt><trkpt lat="42.03850101009115" lon="13.677770253668186"><ele>874.8333333333334</ele><time>2026-05-02T11:40:56.997Z</time></trkpt><trkpt lat="42.0384409837896" lon="13.677679618779022"><ele>872.0</ele><time>2026-05-02T11:40:57.997Z</time></trkpt><trkpt lat="42.0383818701059" lon="13.677598040348563"><ele>870.3333333333334</ele><time>2026-05-02T11:40:58.997Z</time></trkpt><trkpt lat="42.03832451081416" lon="13.677517974583003"><ele>868.6666666666667</ele><time>2026-05-02T11:40:59.997Z</time></trkpt><trkpt lat="42.03826543482294" lon="13.677426814943859"><ele>867.0</ele><time>2026-05-02T11:41:00.997Z</time></trkpt><trkpt lat="42.038202433082176" lon="13.677344982793908"><ele>865.3333333333333</ele><time>2026-05-02T11:41:01.997Z</time></trkpt><trkpt lat="42.03813676714006" lon="13.677270109331177"><ele>863.6666666666666</ele><time>2026-05-02T11:41:02.997Z</time></trkpt><trkpt lat="42.03807264351591" lon="13.677203502950562"><ele>862.0</ele><time>2026-05-02T11:41:03.997Z</time></trkpt><trkpt lat="42.03801299209095" lon="13.677135350632192"><ele>861.9999999999999</ele><time>2026-05-02T11:41:04.997Z</time></trkpt><trkpt lat="42.037954862355434" lon="13.677072941089621"><ele>862.0</ele><time>2026-05-02T11:41:05.997Z</time></trkpt><trkpt lat="42.03789614605985" lon="13.677006354730256"><ele>862.0</ele><time>2026-05-02T11:41:06.997Z</time></trkpt><trkpt lat="42.037837507483374" lon="13.676941913037242"><ele>862.0</ele><time>2026-05-02T11:41:07.997Z</time></trkpt><trkpt lat="42.03777961047545" lon="13.676871811155356"><ele>861.9999999999999</ele><time>2026-05-02T11:41:08.997Z</time></trkpt><trkpt lat="42.03772056171195" lon="13.676791771815774"><ele>862.0</ele><time>2026-05-02T11:41:09.997Z</time></trkpt><trkpt lat="42.03765707686896" lon="13.676710431101071"><ele>859.8333333333333</ele><time>2026-05-02T11:41:10.997Z</time></trkpt><trkpt lat="42.03759644376995" lon="13.676632854545403"><ele>857.6666666666666</ele><time>2026-05-02T11:41:11.997Z</time></trkpt><trkpt lat="42.03754207777293" lon="13.676560972554862"><ele>855.5</ele><time>2026-05-02T11:41:12.997Z</time></trkpt><trkpt lat="42.037488838150814" lon="13.676495023817774"><ele>853.3333333333333</ele><time>2026-05-02T11:41:13.997Z</time></trkpt><trkpt lat="42.03743749521013" lon="13.676433721018586"><ele>851.1666666666666</ele><time>2026-05-02T11:41:14.997Z</time></trkpt><trkpt lat="42.03739223329173" lon="13.676361337288599"><ele>849.0</ele><time>2026-05-02T11:41:15.997Z</time></trkpt><trkpt lat="42.03734903561303" lon="13.676267284029084"><ele>849.0</ele><time>2026-05-02T11:41:16.997Z</time></trkpt><trkpt lat="42.0373005252393" lon="13.676163305062774"><ele>849.0</ele><time>2026-05-02T11:41:17.997Z</time></trkpt><trkpt lat="42.03723471879243" lon="13.67609063402983"><ele>849.0</ele><time>2026-05-02T11:41:18.997Z</time></trkpt><trkpt lat="42.03715975253037" lon="13.676025085753302"><ele>849.0</ele><time>2026-05-02T11:41:19.997Z</time></trkpt><trkpt lat="42.03708933955944" lon="13.675956514524419"><ele>849.0</ele><time>2026-05-02T11:41:20.997Z</time></trkpt><trkpt lat="42.03701578656927" lon="13.675870155558028"><ele>846.8000000000001</ele><time>2026-05-02T11:41:21.997Z</time></trkpt><trkpt lat="42.03694913968524" lon="13.675799482373739"><ele>844.6</ele><time>2026-05-02T11:41:22.997Z</time></trkpt><trkpt lat="42.03687191342404" lon="13.675727638261314"><ele>842.4</ele><time>2026-05-02T11:41:23.997Z</time></trkpt><trkpt lat="42.036789713845344" lon="13.67565671996036"><ele>840.2</ele><time>2026-05-02T11:41:24.997Z</time></trkpt><trkpt lat="42.036704179657015" lon="13.67558293706208"><ele>838.0</ele><time>2026-05-02T11:41:26Z</time></trkpt><trkpt lat="42.036629316506904" lon="13.675527814392947"><ele>837.9999999999999</ele><time>2026-05-02T11:41:27Z</time></trkpt><trkpt lat="42.036566863894585" lon="13.67546352731337"><ele>838.0</ele><time>2026-05-02T11:41:28Z</time></trkpt><trkpt lat="42.036501442807335" lon="13.675415445577434"><ele>838.0</ele><time>2026-05-02T11:41:29Z</time></trkpt><trkpt lat="42.03644519638952" lon="13.675371117703259"><ele>838.0</ele><time>2026-05-02T11:41:30Z</time></trkpt><trkpt lat="42.036346003439085" lon="13.675286492363114"><ele>837.9999999999999</ele><time>2026-05-02T11:41:32Z</time></trkpt><trkpt lat="42.036236755590885" lon="13.675251392244261"><ele>838.0</ele><time>2026-05-02T11:41:34Z</time></trkpt><trkpt lat="42.03616900817557" lon="13.675254928637562"><ele>837.9999999999999</ele><time>2026-05-02T11:41:35Z</time></trkpt><trkpt lat="42.036099076068936" lon="13.675274729930202"><ele>838.0</ele><time>2026-05-02T11:41:36Z</time></trkpt><trkpt lat="42.03601026565607" lon="13.675271677898204"><ele>838.0</ele><time>2026-05-02T11:41:37Z</time></trkpt><trkpt lat="42.03593666500964" lon="13.675264705263407"><ele>838.0</ele><time>2026-05-02T11:41:38Z</time></trkpt><trkpt lat="42.03586561051504" lon="13.675247996475008"><ele>837.9999999999999</ele><time>2026-05-02T11:41:39Z</time></trkpt><trkpt lat="42.03574475455887" lon="13.675221238764744"><ele>838.0</ele><time>2026-05-02T11:41:41Z</time></trkpt><trkpt lat="42.03565914195055" lon="13.675201832872379"><ele>835.5999999999999</ele><time>2026-05-02T11:41:43Z</time></trkpt><trkpt lat="42.03555904830857" lon="13.675170895992581"><ele>833.1999999999999</ele><time>2026-05-02T11:41:45Z</time></trkpt><trkpt lat="42.03548379842035" lon="13.675072170654204"><ele>830.8</ele><time>2026-05-02T11:41:47Z</time></trkpt><trkpt lat="42.0354428630012" lon="13.67499893971977"><ele>828.4</ele><time>2026-05-02T11:41:48Z</time></trkpt><trkpt lat="42.03537753047205" lon="13.67485527136966"><ele>826.0</ele><time>2026-05-02T11:41:50Z</time></trkpt><trkpt lat="42.03533811565997" lon="13.674777427778835"><ele>825.9999999999999</ele><time>2026-05-02T11:41:51Z</time></trkpt><trkpt lat="42.0352942587098" lon="13.67471478545391"><ele>826.0</ele><time>2026-05-02T11:41:52Z</time></trkpt><trkpt lat="42.03520400166633" lon="13.67465754566202"><ele>826.0</ele><time>2026-05-02T11:41:54Z</time></trkpt><trkpt lat="42.03513963472995" lon="13.674599711794384"><ele>826.0</ele><time>2026-05-02T11:41:56Z</time></trkpt><trkpt lat="42.03505925492635" lon="13.67454741762965"><ele>825.9999999999999</ele><time>2026-05-02T11:43:16Z</time></trkpt><trkpt lat="42.03496991909799" lon="13.674526786713786"><ele>826.0</ele><time>2026-05-02T11:43:18Z</time></trkpt><trkpt lat="42.034886935931446" lon="13.674505434561373"><ele>823.8</ele><time>2026-05-02T11:43:20Z</time></trkpt><trkpt lat="42.034817948286424" lon="13.674449686738857"><ele>821.5999999999999</ele><time>2026-05-02T11:43:22Z</time></trkpt><trkpt lat="42.03476259164207" lon="13.674389090660332"><ele>819.4</ele><time>2026-05-02T11:43:24Z</time></trkpt><trkpt lat="42.03474024344684" lon="13.674238530412703"><ele>817.2</ele><time>2026-05-02T11:43:32Z</time></trkpt><trkpt lat="42.0347265533787" lon="13.674073671399702"><ele>815.0</ele><time>2026-05-02T11:43:34Z</time></trkpt><trkpt lat="42.0347433827027" lon="13.673969351207917"><ele>815.1666666666667</ele><time>2026-05-02T11:43:35Z</time></trkpt><trkpt lat="42.03474875720735" lon="13.673856076724535"><ele>815.3333333333334</ele><time>2026-05-02T11:43:36Z</time></trkpt><trkpt lat="42.034771636127175" lon="13.67375153323245"><ele>815.5</ele><time>2026-05-02T11:43:37Z</time></trkpt><trkpt lat="42.03479646629749" lon="13.673652981895211"><ele>815.6666666666667</ele><time>2026-05-02T11:43:38Z</time></trkpt><trkpt lat="42.03482439489916" lon="13.673536321022176"><ele>815.8333333333334</ele><time>2026-05-02T11:43:39Z</time></trkpt><trkpt lat="42.0348587053494" lon="13.673438718239357"><ele>816.0</ele><time>2026-05-02T11:43:40Z</time></trkpt><trkpt lat="42.03489653492253" lon="13.673332812225675"><ele>816.0</ele><time>2026-05-02T11:43:41Z</time></trkpt><trkpt lat="42.034921520221246" lon="13.673215995165544"><ele>816.0</ele><time>2026-05-02T11:43:42Z</time></trkpt><trkpt lat="42.03494829510501" lon="13.673099230791347"><ele>816.0</ele><time>2026-05-02T11:43:43Z</time></trkpt><trkpt lat="42.03498361558016" lon="13.672994320498576"><ele>816.0</ele><time>2026-05-02T11:43:44Z</time></trkpt><trkpt lat="42.03501693667472" lon="13.672839567708818"><ele>816.0</ele><time>2026-05-02T11:43:45Z</time></trkpt><trkpt lat="42.03506122293229" lon="13.672716410045378"><ele>818.3333333333334</ele><time>2026-05-02T11:43:46Z</time></trkpt><trkpt lat="42.03510634847182" lon="13.672608977383529"><ele>820.6666666666667</ele><time>2026-05-02T11:43:47Z</time></trkpt><trkpt lat="42.035150973970104" lon="13.672503291539188"><ele>823.0</ele><time>2026-05-02T11:43:48Z</time></trkpt><trkpt lat="42.03518722748379" lon="13.67240660374481"><ele>825.3333333333334</ele><time>2026-05-02T11:43:49Z</time></trkpt><trkpt lat="42.035230428446134" lon="13.672295617078555"><ele>827.6666666666667</ele><time>2026-05-02T11:43:50Z</time></trkpt><trkpt lat="42.035265357887056" lon="13.672204579013668"><ele>830.0</ele><time>2026-05-02T11:43:51Z</time></trkpt><trkpt lat="42.035303176314144" lon="13.67210238976142"><ele>830.0</ele><time>2026-05-02T11:43:52Z</time></trkpt><trkpt lat="42.03533077217242" lon="13.67199630582076"><ele>830.0</ele><time>2026-05-02T11:43:53Z</time></trkpt><trkpt lat="42.03536239258489" lon="13.671871097666997"><ele>830.0</ele><time>2026-05-02T11:43:54Z</time></trkpt><trkpt lat="42.035388830866545" lon="13.671728104049159"><ele>830.0</ele><time>2026-05-02T11:43:55Z</time></trkpt><trkpt lat="42.035421335402745" lon="13.671585426454534"><ele>830.0</ele><time>2026-05-02T11:43:56Z</time></trkpt><trkpt lat="42.035457294316465" lon="13.671445133113965"><ele>831.0</ele><time>2026-05-02T11:43:57Z</time></trkpt><trkpt lat="42.03549020588809" lon="13.67130220376018"><ele>832.0</ele><time>2026-05-02T11:43:58Z</time></trkpt><trkpt lat="42.03552431663475" lon="13.671163002801954"><ele>833.0</ele><time>2026-05-02T11:43:59Z</time></trkpt><trkpt lat="42.03555394631444" lon="13.671018303373595"><ele>834.0</ele><time>2026-05-02T11:44:00Z</time></trkpt><trkpt lat="42.03557586246046" lon="13.670864220655421"><ele>835.0</ele><time>2026-05-02T11:44:01Z</time></trkpt><trkpt lat="42.035596748296925" lon="13.670705651553783"><ele>836.2</ele><time>2026-05-02T11:44:02Z</time></trkpt><trkpt lat="42.035616222412585" lon="13.670552710636468"><ele>837.4</ele><time>2026-05-02T11:44:03Z</time></trkpt><trkpt lat="42.03563342868125" lon="13.670413117449405"><ele>838.5999999999999</ele><time>2026-05-02T11:44:04Z</time></trkpt><trkpt lat="42.035645470438524" lon="13.670279480182296"><ele>839.8</ele><time>2026-05-02T11:44:05Z</time></trkpt><trkpt lat="42.03565674654857" lon="13.67015167690295"><ele>841.0</ele><time>2026-05-02T11:44:06Z</time></trkpt><trkpt lat="42.03565696649172" lon="13.670018984003663"><ele>841.4</ele><time>2026-05-02T11:44:06.999Z</time></trkpt><trkpt lat="42.03564647953599" lon="13.66987476903797"><ele>841.8</ele><time>2026-05-02T11:44:07.999Z</time></trkpt><trkpt lat="42.03562354617805" lon="13.669729833482709"><ele>842.1999999999999</ele><time>2026-05-02T11:44:08.999Z</time></trkpt><trkpt lat="42.03560167566667" lon="13.669603418948975"><ele>842.5999999999999</ele><time>2026-05-02T11:44:09.999Z</time></trkpt><trkpt lat="42.035589094406525" lon="13.669494645481933"><ele>843.0</ele><time>2026-05-02T11:44:10.999Z</time></trkpt><trkpt lat="42.035594469525876" lon="13.66939877294507"><ele>843.2</ele><time>2026-05-02T11:44:11.999Z</time></trkpt><trkpt lat="42.03561940420762" lon="13.669303210781957"><ele>843.4</ele><time>2026-05-02T11:44:12.999Z</time></trkpt><trkpt lat="42.03568032027657" lon="13.669220571118476"><ele>843.6</ele><time>2026-05-02T11:44:13.999Z</time></trkpt><trkpt lat="42.03576013699735" lon="13.669132349615571"><ele>843.8000000000001</ele><time>2026-05-02T11:44:14.999Z</time></trkpt><trkpt lat="42.035845967974765" lon="13.66902617854257"><ele>844.0</ele><time>2026-05-02T11:44:15.999Z</time></trkpt><trkpt lat="42.03593750893476" lon="13.668920453043627"><ele>843.8000000000001</ele><time>2026-05-02T11:44:16.999Z</time></trkpt><trkpt lat="42.03603452285729" lon="13.668824860968142"><ele>843.6</ele><time>2026-05-02T11:44:17.999Z</time></trkpt><trkpt lat="42.03612633618374" lon="13.668746724850273"><ele>843.4</ele><time>2026-05-02T11:44:18.999Z</time></trkpt><trkpt lat="42.036198113396246" lon="13.668689503896635"><ele>843.2</ele><time>2026-05-02T11:44:19.999Z</time></trkpt><trkpt lat="42.036276194291666" lon="13.66863403915289"><ele>843.0</ele><time>2026-05-02T11:44:21.999Z</time></trkpt><trkpt lat="42.036338917112566" lon="13.668583942451063"><ele>842.6666666666666</ele><time>2026-05-02T11:44:29.999Z</time></trkpt><trkpt lat="42.03641344412471" lon="13.668620035410921"><ele>842.3333333333333</ele><time>2026-05-02T11:44:31.999Z</time></trkpt><trkpt lat="42.03648293562087" lon="13.668656405676728"><ele>842.0</ele><time>2026-05-02T11:44:32.999Z</time></trkpt><trkpt lat="42.036568157466604" lon="13.668698488995926"><ele>841.6666666666666</ele><time>2026-05-02T11:44:33.999Z</time></trkpt><trkpt lat="42.036664621688224" lon="13.668738722202363"><ele>841.3333333333333</ele><time>2026-05-02T11:44:34.999Z</time></trkpt><trkpt lat="42.03675855110433" lon="13.668776086337179"><ele>841.0</ele><time>2026-05-02T11:44:35.999Z</time></trkpt><trkpt lat="42.0368432441065" lon="13.668774775476807"><ele>843.25</ele><time>2026-05-02T11:44:36.999Z</time></trkpt><trkpt lat="42.036907092192415" lon="13.668797576467568"><ele>845.5</ele><time>2026-05-02T11:44:37.999Z</time></trkpt><trkpt lat="42.036992673008996" lon="13.668818965150809"><ele>847.75</ele><time>2026-05-02T11:44:39.999Z</time></trkpt><trkpt lat="42.03721288853003" lon="13.66890253717271"><ele>850.0</ele><time>2026-05-02T11:44:40.999Z</time></trkpt><trkpt lat="42.037270867821775" lon="13.668665926862772"><ele>850.1666666666666</ele><time>2026-05-02T11:44:44.999Z</time></trkpt><trkpt lat="42.03728712466141" lon="13.668569202066424"><ele>850.3333333333333</ele><time>2026-05-02T11:44:45.999Z</time></trkpt><trkpt lat="42.0373038948515" lon="13.668474274719573"><ele>850.5</ele><time>2026-05-02T11:44:46.999Z</time></trkpt><trkpt lat="42.037321345188694" lon="13.668379232043778"><ele>850.6666666666667</ele><time>2026-05-02T11:44:47.999Z</time></trkpt><trkpt lat="42.037313593828365" lon="13.66825515166866"><ele>850.8333333333334</ele><time>2026-05-02T11:44:48.999Z</time></trkpt><trkpt lat="42.03735209384151" lon="13.668147163225228"><ele>851.0</ele><time>2026-05-02T11:44:49.999Z</time></trkpt><trkpt lat="42.037379399043836" lon="13.668028441006369"><ele>851.0000000000001</ele><time>2026-05-02T11:44:50.999Z</time></trkpt><trkpt lat="42.0373998179761" lon="13.66790550391826"><ele>851.0</ele><time>2026-05-02T11:44:51.999Z</time></trkpt><trkpt lat="42.03743603847564" lon="13.667793615260285"><ele>851.0</ele><time>2026-05-02T11:44:52.999Z</time></trkpt><trkpt lat="42.037433014070054" lon="13.667677336202734"><ele>851.0</ele><time>2026-05-02T11:44:53.999Z</time></trkpt><trkpt lat="42.03745847431499" lon="13.667564569497632"><ele>851.0000000000001</ele><time>2026-05-02T11:44:54.999Z</time></trkpt><trkpt lat="42.03746904857823" lon="13.667448604598617"><ele>851.0</ele><time>2026-05-02T11:44:55.999Z</time></trkpt><trkpt lat="42.037483035837454" lon="13.667328855646044"><ele>851.3333333333334</ele><time>2026-05-02T11:44:56.999Z</time></trkpt><trkpt lat="42.037498067623744" lon="13.667222008106739"><ele>851.6666666666667</ele><time>2026-05-02T11:44:57.999Z</time></trkpt><trkpt lat="42.037521535763126" lon="13.667115585511608"><ele>852.0</ele><time>2026-05-02T11:44:58.999Z</time></trkpt><trkpt lat="42.037550762672936" lon="13.667012771372315"><ele>852.3333333333333</ele><time>2026-05-02T11:44:59.999Z</time></trkpt><trkpt lat="42.03759344461711" lon="13.666910427708213"><ele>852.6666666666666</ele><time>2026-05-02T11:45:00.999Z</time></trkpt><trkpt lat="42.03764365315603" lon="13.6668166130011"><ele>853.0</ele><time>2026-05-02T11:45:01.999Z</time></trkpt><trkpt lat="42.03771046360432" lon="13.666729883300421"><ele>853.0</ele><time>2026-05-02T11:45:02.999Z</time></trkpt><trkpt lat="42.0377659963091" lon="13.666627658561476"><ele>853.0</ele><time>2026-05-02T11:45:03.999Z</time></trkpt><trkpt lat="42.03781794711322" lon="13.666505210674423"><ele>853.0</ele><time>2026-05-02T11:45:04.999Z</time></trkpt><trkpt lat="42.03786443066043" lon="13.666357249818084"><ele>853.0</ele><time>2026-05-02T11:45:05.999Z</time></trkpt><trkpt lat="42.037899359036814" lon="13.66619481795568"><ele>853.0</ele><time>2026-05-02T11:45:06.999Z</time></trkpt><trkpt lat="42.03793088215034" lon="13.666038341016293"><ele>853.0</ele><time>2026-05-02T11:45:07.999Z</time></trkpt><trkpt lat="42.037962192765555" lon="13.665875192148937"><ele>853.0</ele><time>2026-05-02T11:45:08.999Z</time></trkpt><trkpt lat="42.03798842473236" lon="13.665702808475881"><ele>853.0</ele><time>2026-05-02T11:45:09.999Z</time></trkpt><trkpt lat="42.03801574150543" lon="13.665532787730719"><ele>853.0</ele><time>2026-05-02T11:45:10.999Z</time></trkpt><trkpt lat="42.03804507280602" lon="13.665366807852493"><ele>853.25</ele><time>2026-05-02T11:45:11.999Z</time></trkpt><trkpt lat="42.03807775703019" lon="13.665196465144296"><ele>853.5</ele><time>2026-05-02T11:45:12.999Z</time></trkpt><trkpt lat="42.038107285676524" lon="13.66501465321543"><ele>853.75</ele><time>2026-05-02T11:45:13.999Z</time></trkpt><trkpt lat="42.03814386291757" lon="13.664828306158697"><ele>854.0</ele><time>2026-05-02T11:45:14.999Z</time></trkpt><trkpt lat="42.0381841694983" lon="13.664640849142076"><ele>854.0</ele><time>2026-05-02T11:45:15.998Z</time></trkpt><trkpt lat="42.03822770803679" lon="13.664456226638878"><ele>854.0</ele><time>2026-05-02T11:45:16.998Z</time></trkpt><trkpt lat="42.03826747846272" lon="13.664272870577824"><ele>854.0</ele><time>2026-05-02T11:45:17.998Z</time></trkpt><trkpt lat="42.038325504092974" lon="13.66409873977445"><ele>854.0</ele><time>2026-05-02T11:45:18.998Z</time></trkpt><trkpt lat="42.03836142612682" lon="13.663917457933822"><ele>854.5</ele><time>2026-05-02T11:45:19.998Z</time></trkpt><trkpt lat="42.03838777189025" lon="13.663732290627504"><ele>855.0</ele><time>2026-05-02T11:45:20.998Z</time></trkpt><trkpt lat="42.03841080012447" lon="13.663547381126275"><ele>855.5</ele><time>2026-05-02T11:45:21.998Z</time></trkpt><trkpt lat="42.03842642640695" lon="13.663368822119773"><ele>856.0</ele><time>2026-05-02T11:45:22.998Z</time></trkpt><trkpt lat="42.03847516553304" lon="13.663212795188874"><ele>856.25</ele><time>2026-05-02T11:45:23.998Z</time></trkpt><trkpt lat="42.038520868668016" lon="13.663055032817216"><ele>856.5</ele><time>2026-05-02T11:45:24.998Z</time></trkpt><trkpt lat="42.03857735230894" lon="13.662900538642173"><ele>856.75</ele><time>2026-05-02T11:45:25.998Z</time></trkpt><trkpt lat="42.03862960787762" lon="13.66273751369349"><ele>857.0</ele><time>2026-05-02T11:45:26.998Z</time></trkpt><trkpt lat="42.03868764982889" lon="13.662568886233705"><ele>857.75</ele><time>2026-05-02T11:45:27.998Z</time></trkpt><trkpt lat="42.038734249800186" lon="13.662392905154505"><ele>858.5</ele><time>2026-05-02T11:45:28.998Z</time></trkpt><trkpt lat="42.03877625250223" lon="13.662218281479669"><ele>859.25</ele><time>2026-05-02T11:45:29.998Z</time></trkpt><trkpt lat="42.038800362042984" lon="13.662042866173776"><ele>860.0</ele><time>2026-05-02T11:45:30.998Z</time></trkpt><trkpt lat="42.038836343689375" lon="13.661884649070535"><ele>860.75</ele><time>2026-05-02T11:45:31.998Z</time></trkpt><trkpt lat="42.038876356069466" lon="13.661731390683627"><ele>861.5</ele><time>2026-05-02T11:45:32.998Z</time></trkpt><trkpt lat="42.038935322987655" lon="13.66158404508894"><ele>862.25</ele><time>2026-05-02T11:45:33.998Z</time></trkpt><trkpt lat="42.03900032862558" lon="13.66143341838852"><ele>863.0</ele><time>2026-05-02T11:45:34.998Z</time></trkpt><trkpt lat="42.03906729027087" lon="13.661276488857284"><ele>863.25</ele><time>2026-05-02T11:45:35.998Z</time></trkpt><trkpt lat="42.03912832041313" lon="13.661106872339051"><ele>863.5</ele><time>2026-05-02T11:45:36.998Z</time></trkpt><trkpt lat="42.039190029974904" lon="13.660928391077439"><ele>863.75</ele><time>2026-05-02T11:45:37.998Z</time></trkpt><trkpt lat="42.039250291271266" lon="13.66074283563416"><ele>864.0</ele><time>2026-05-02T11:45:38.998Z</time></trkpt><trkpt lat="42.03930805378992" lon="13.660552706156782"><ele>862.3333333333333</ele><time>2026-05-02T11:45:39.998Z</time></trkpt><trkpt lat="42.039348473779974" lon="13.660353930651896"><ele>860.6666666666666</ele><time>2026-05-02T11:45:40.998Z</time></trkpt><trkpt lat="42.03940639566882" lon="13.660163806806079"><ele>859.0</ele><time>2026-05-02T11:45:41.998Z</time></trkpt><trkpt lat="42.039464370061964" lon="13.659975772560573"><ele>859.0</ele><time>2026-05-02T11:45:42.998Z</time></trkpt><trkpt lat="42.03952302450936" lon="13.659798504897797"><ele>859.0</ele><time>2026-05-02T11:45:43.998Z</time></trkpt><trkpt lat="42.03958274494451" lon="13.659634446633046"><ele>859.0</ele><time>2026-05-02T11:45:44.998Z</time></trkpt><trkpt lat="42.039643218684056" lon="13.659477379808541"><ele>859.0</ele><time>2026-05-02T11:45:45.998Z</time></trkpt><trkpt lat="42.03970534109401" lon="13.659324083118385"><ele>859.2</ele><time>2026-05-02T11:45:46.998Z</time></trkpt><trkpt lat="42.03976644432809" lon="13.659182130216701"><ele>859.4000000000001</ele><time>2026-05-02T11:45:47.998Z</time></trkpt><trkpt lat="42.039822569376014" lon="13.659051975074945"><ele>859.6</ele><time>2026-05-02T11:45:48.998Z</time></trkpt><trkpt lat="42.03987895420043" lon="13.658938920733673"><ele>859.8</ele><time>2026-05-02T11:45:49.998Z</time></trkpt><trkpt lat="42.039943056691556" lon="13.65884225313548"><ele>860.0</ele><time>2026-05-02T11:45:50.998Z</time></trkpt><trkpt lat="42.04001361047184" lon="13.6587425657183"><ele>859.5</ele><time>2026-05-02T11:45:51.998Z</time></trkpt><trkpt lat="42.040114016985356" lon="13.658661378530168"><ele>859.0</ele><time>2026-05-02T11:45:52.998Z</time></trkpt><trkpt lat="42.040228232601244" lon="13.658562328060263"><ele>858.5</ele><time>2026-05-02T11:45:53.998Z</time></trkpt><trkpt lat="42.040354067005545" lon="13.658464966806877"><ele>858.0</ele><time>2026-05-02T11:45:54.998Z</time></trkpt><trkpt lat="42.040487239077585" lon="13.658365393766232"><ele>857.6666666666667</ele><time>2026-05-02T11:45:55.998Z</time></trkpt><trkpt lat="42.04061732088328" lon="13.65824548550113"><ele>857.3333333333334</ele><time>2026-05-02T11:45:56.998Z</time></trkpt><trkpt lat="42.04075825402549" lon="13.658146165810972"><ele>857.0</ele><time>2026-05-02T11:45:57.998Z</time></trkpt><trkpt lat="42.04091055356242" lon="13.65805591283079"><ele>857.3333333333334</ele><time>2026-05-02T11:45:58.998Z</time></trkpt><trkpt lat="42.0410562851432" lon="13.657950741931607"><ele>857.6666666666667</ele><time>2026-05-02T11:45:59.998Z</time></trkpt><trkpt lat="42.041203982860296" lon="13.65785658535137"><ele>858.0</ele><time>2026-05-02T11:46:00.998Z</time></trkpt><trkpt lat="42.041344433653606" lon="13.657759499042275"><ele>858.0</ele><time>2026-05-02T11:46:01.998Z</time></trkpt><trkpt lat="42.04148102270212" lon="13.657678414426435"><ele>858.0</ele><time>2026-05-02T11:46:02.998Z</time></trkpt><trkpt lat="42.04159813330289" lon="13.657606022779285"><ele>858.0</ele><time>2026-05-02T11:46:03.998Z</time></trkpt><trkpt lat="42.04171661552776" lon="13.657514403535611"><ele>858.0</ele><time>2026-05-02T11:46:04.998Z</time></trkpt><trkpt lat="42.04184691340997" lon="13.65745138531419"><ele>858.5</ele><time>2026-05-02T11:46:05.998Z</time></trkpt><trkpt lat="42.04197339674408" lon="13.657387366610942"><ele>859.0</ele><time>2026-05-02T11:46:06.998Z</time></trkpt><trkpt lat="42.04209404300876" lon="13.657328505784625"><ele>859.5</ele><time>2026-05-02T11:46:07.998Z</time></trkpt><trkpt lat="42.04220747210406" lon="13.657308542803838"><ele>860.0</ele><time>2026-05-02T11:46:08.998Z</time></trkpt><trkpt lat="42.04230584517808" lon="13.657262717977593"><ele>860.0</ele><time>2026-05-02T11:46:09.998Z</time></trkpt><trkpt lat="42.04238231694409" lon="13.657228798673206"><ele>860.0</ele><time>2026-05-02T11:46:10.998Z</time></trkpt><trkpt lat="42.0424760761148" lon="13.657229990783843"><ele>860.0</ele><time>2026-05-02T11:46:12.998Z</time></trkpt><trkpt lat="42.04248584046195" lon="13.657366968858373"><ele>860.0</ele><time>2026-05-02T11:46:15.998Z</time></trkpt><trkpt lat="42.04252713659883" lon="13.65752467922347"><ele>860.0</ele><time>2026-05-02T11:46:17.998Z</time></trkpt><trkpt lat="42.042546601826" lon="13.65761248112699"><ele>859.8333333333334</ele><time>2026-05-02T11:46:18.998Z</time></trkpt><trkpt lat="42.04256546105933" lon="13.657700384571212"><ele>859.6666666666667</ele><time>2026-05-02T11:46:19.998Z</time></trkpt><trkpt lat="42.042599621473485" lon="13.657848161238414"><ele>859.5</ele><time>2026-05-02T11:46:21.998Z</time></trkpt><trkpt lat="42.04262652242235" lon="13.657931058324912"><ele>859.3333333333333</ele><time>2026-05-02T11:46:24.998Z</time></trkpt><trkpt lat="42.04272769576935" lon="13.657920392421566"><ele>859.1666666666666</ele><time>2026-05-02T11:46:25.998Z</time></trkpt><trkpt lat="42.04280555733437" lon="13.657925974643891"><ele>859.0</ele><time>2026-05-02T11:46:26.998Z</time></trkpt><trkpt lat="42.04287741875588" lon="13.657943955765477"><ele>858.9999999999999</ele><time>2026-05-02T11:46:27.998Z</time></trkpt><trkpt lat="42.04294709981457" lon="13.657944904106282"><ele>859.0</ele><time>2026-05-02T11:46:28.998Z</time></trkpt><trkpt lat="42.04301126869914" lon="13.65795904569438"><ele>859.0</ele><time>2026-05-02T11:46:29.998Z</time></trkpt><trkpt lat="42.043079812479135" lon="13.657957726494843"><ele>859.0</ele><time>2026-05-02T11:46:30.998Z</time></trkpt><trkpt lat="42.04315496939391" lon="13.65793539155742"><ele>859.0</ele><time>2026-05-02T11:46:31.998Z</time></trkpt><trkpt lat="42.04322327881102" lon="13.657906548001895"><ele>858.9999999999999</ele><time>2026-05-02T11:46:32.998Z</time></trkpt><trkpt lat="42.04329159927398" lon="13.657864619577051"><ele>859.0</ele><time>2026-05-02T11:46:33.998Z</time></trkpt><trkpt lat="42.043369323513545" lon="13.657803761757052"><ele>858.8000000000001</ele><time>2026-05-02T11:46:34.998Z</time></trkpt><trkpt lat="42.04345553645343" lon="13.657755538963215"><ele>858.6000000000001</ele><time>2026-05-02T11:46:35.998Z</time></trkpt><trkpt lat="42.04353241973301" lon="13.65770557053233"><ele>858.4</ele><time>2026-05-02T11:46:36.998Z</time></trkpt><trkpt lat="42.04361763980247" lon="13.657644558574827"><ele>858.2</ele><time>2026-05-02T11:46:37.998Z</time></trkpt><trkpt lat="42.043722945742175" lon="13.657608740860425"><ele>858.0</ele><time>2026-05-02T11:46:38.998Z</time></trkpt><trkpt lat="42.043824281635565" lon="13.657567092571618"><ele>858.0</ele><time>2026-05-02T11:46:39.998Z</time></trkpt><trkpt lat="42.043913819713914" lon="13.657533692983618"><ele>858.0</ele><time>2026-05-02T11:46:40.998Z</time></trkpt><trkpt lat="42.043979433691376" lon="13.65749657710212"><ele>858.0</ele><time>2026-05-02T11:46:41.998Z</time></trkpt><trkpt lat="42.044069588296644" lon="13.657467139706604"><ele>858.0</ele><time>2026-05-02T11:46:43.998Z</time></trkpt><trkpt lat="42.04419326394437" lon="13.657510726188287"><ele>858.0</ele><time>2026-05-02T11:46:45.998Z</time></trkpt><trkpt lat="42.044313454304444" lon="13.65753246321496"><ele>858.5999999999999</ele><time>2026-05-02T11:46:47.998Z</time></trkpt><trkpt lat="42.044385294977516" lon="13.657511542721293"><ele>859.1999999999999</ele><time>2026-05-02T11:46:48.998Z</time></trkpt><trkpt lat="42.04446929055239" lon="13.65747590371894"><ele>859.8</ele><time>2026-05-02T11:46:49.998Z</time></trkpt><trkpt lat="42.04455654114123" lon="13.657444165641813"><ele>860.4</ele><time>2026-05-02T11:46:50.998Z</time></trkpt><trkpt lat="42.04462259683218" lon="13.657417000422656"><ele>861.0</ele><time>2026-05-02T11:46:51.998Z</time></trkpt><trkpt lat="42.044743521683465" lon="13.657350777287274"><ele>861.0</ele><time>2026-05-02T11:46:53.998Z</time></trkpt><trkpt lat="42.04481217310648" lon="13.657344490763627"><ele>860.9999999999999</ele><time>2026-05-02T11:46:54.998Z</time></trkpt><trkpt lat="42.044921640304466" lon="13.657299184139644"><ele>860.9999999999999</ele><time>2026-05-02T11:46:56.998Z</time></trkpt><trkpt lat="42.04500615225254" lon="13.657282286282593"><ele>861.0</ele><time>2026-05-02T11:46:57.998Z</time></trkpt><trkpt lat="42.04511301339386" lon="13.657249195812971"><ele>861.0</ele><time>2026-05-02T11:46:58.998Z</time></trkpt><trkpt lat="42.04520654514592" lon="13.657231864861325"><ele>861.3333333333334</ele><time>2026-05-02T11:46:59.998Z</time></trkpt><trkpt lat="42.045292077567666" lon="13.657222104159446"><ele>861.6666666666667</ele><time>2026-05-02T11:47:00.998Z</time></trkpt><trkpt lat="42.04537625202024" lon="13.657211935662938"><ele>862.0</ele><time>2026-05-02T11:47:01.998Z</time></trkpt><trkpt lat="42.04545239913259" lon="13.657206287446698"><ele>862.3333333333334</ele><time>2026-05-02T11:47:02.998Z</time></trkpt><trkpt lat="42.045544740691334" lon="13.65716517602656"><ele>862.6666666666667</ele><time>2026-05-02T11:47:03.998Z</time></trkpt><trkpt lat="42.04564367219706" lon="13.65711948197576"><ele>863.0</ele><time>2026-05-02T11:47:04.998Z</time></trkpt><trkpt lat="42.04574202564097" lon="13.657063823524684"><ele>863.0000000000001</ele><time>2026-05-02T11:47:05.998Z</time></trkpt><trkpt lat="42.04584773246406" lon="13.657010459934204"><ele>863.0</ele><time>2026-05-02T11:47:06.998Z</time></trkpt><trkpt lat="42.04592007564887" lon="13.656971059247049"><ele>863.0</ele><time>2026-05-02T11:47:07.998Z</time></trkpt><trkpt lat="42.04601043152855" lon="13.656929827666103"><ele>863.0</ele><time>2026-05-02T11:47:08.998Z</time></trkpt><trkpt lat="42.04608068128599" lon="13.656883076756495"><ele>863.0000000000001</ele><time>2026-05-02T11:47:09.998Z</time></trkpt><trkpt lat="42.04613743235893" lon="13.656825727193432"><ele>863.0</ele><time>2026-05-02T11:47:10.998Z</time></trkpt><trkpt lat="42.04620306221255" lon="13.656780731692765"><ele>862.0</ele><time>2026-05-02T11:47:11.998Z</time></trkpt><trkpt lat="42.04629683253406" lon="13.656703915527926"><ele>861.0</ele><time>2026-05-02T11:47:12.998Z</time></trkpt><trkpt lat="42.04637987194729" lon="13.65664099715236"><ele>860.0</ele><time>2026-05-02T11:47:13.997Z</time></trkpt><trkpt lat="42.04645821356278" lon="13.656583706997646"><ele>859.0</ele><time>2026-05-02T11:47:14.997Z</time></trkpt><trkpt lat="42.046547743189265" lon="13.656501761409647"><ele>858.0</ele><time>2026-05-02T11:47:15.997Z</time></trkpt><trkpt lat="42.04662411360647" lon="13.656426996028102"><ele>857.8</ele><time>2026-05-02T11:47:16.997Z</time></trkpt><trkpt lat="42.04671343346653" lon="13.656349818954848"><ele>857.5999999999999</ele><time>2026-05-02T11:47:17.997Z</time></trkpt><trkpt lat="42.0467907979902" lon="13.656261657594397"><ele>857.4000000000001</ele><time>2026-05-02T11:47:18.997Z</time></trkpt><trkpt lat="42.04686775547566" lon="13.656182267158652"><ele>857.2</ele><time>2026-05-02T11:47:19.997Z</time></trkpt><trkpt lat="42.0469510554154" lon="13.656132206217137"><ele>857.0</ele><time>2026-05-02T11:47:20.997Z</time></trkpt><trkpt lat="42.04703608208655" lon="13.656087686188407"><ele>857.0</ele><time>2026-05-02T11:47:21.997Z</time></trkpt><trkpt lat="42.04713074462934" lon="13.656055936867984"><ele>857.0</ele><time>2026-05-02T11:47:22.997Z</time></trkpt><trkpt lat="42.04721746903101" lon="13.65600418337974"><ele>857.0</ele><time>2026-05-02T11:47:23.997Z</time></trkpt><trkpt lat="42.047298531529606" lon="13.655947519313234"><ele>857.0</ele><time>2026-05-02T11:47:24.997Z</time></trkpt><trkpt lat="42.047373477886474" lon="13.655868366445453"><ele>857.0</ele><time>2026-05-02T11:47:25.997Z</time></trkpt><trkpt lat="42.04746221952189" lon="13.655777679371655"><ele>858.0</ele><time>2026-05-02T11:47:26.997Z</time></trkpt><trkpt lat="42.04754033060594" lon="13.655682241513325"><ele>859.0</ele><time>2026-05-02T11:47:27.997Z</time></trkpt><trkpt lat="42.04761366875353" lon="13.655604075569757"><ele>860.0</ele><time>2026-05-02T11:47:28.997Z</time></trkpt><trkpt lat="42.04767209917683" lon="13.655511907576441"><ele>861.0</ele><time>2026-05-02T11:47:29.997Z</time></trkpt><trkpt lat="42.047748209029706" lon="13.655460873089828"><ele>862.0</ele><time>2026-05-02T11:47:30.997Z</time></trkpt><trkpt lat="42.047821312547455" lon="13.655387226270937"><ele>862.0</ele><time>2026-05-02T11:47:31.997Z</time></trkpt><trkpt lat="42.04789814723335" lon="13.655325025870292"><ele>862.0</ele><time>2026-05-02T11:47:32.997Z</time></trkpt><trkpt lat="42.04797612916597" lon="13.65521963084635"><ele>862.0</ele><time>2026-05-02T11:47:33.997Z</time></trkpt><trkpt lat="42.04804469662917" lon="13.655099510447215"><ele>862.0</ele><time>2026-05-02T11:47:34.997Z</time></trkpt><trkpt lat="42.04811409882226" lon="13.65498835410253"><ele>862.0</ele><time>2026-05-02T11:47:35.997Z</time></trkpt><trkpt lat="42.04819737776156" lon="13.654906357306123"><ele>861.8</ele><time>2026-05-02T11:47:36.997Z</time></trkpt><trkpt lat="42.048269622636624" lon="13.654796943883733"><ele>861.6</ele><time>2026-05-02T11:47:37.997Z</time></trkpt><trkpt lat="42.04835412724895" lon="13.654705541328566"><ele>861.3999999999999</ele><time>2026-05-02T11:47:38.997Z</time></trkpt><trkpt lat="42.048412304088984" lon="13.654582777855035"><ele>861.1999999999999</ele><time>2026-05-02T11:47:39.997Z</time></trkpt><trkpt lat="42.04846232393916" lon="13.654473929715"><ele>861.0</ele><time>2026-05-02T11:47:40.997Z</time></trkpt><trkpt lat="42.04850896395045" lon="13.654360367208923"><ele>860.7142857142857</ele><time>2026-05-02T11:47:41.997Z</time></trkpt><trkpt lat="42.048557925363944" lon="13.654274323072363"><ele>860.4285714285714</ele><time>2026-05-02T11:47:42.997Z</time></trkpt><trkpt lat="42.04860852112853" lon="13.65420912665359"><ele>860.1428571428571</ele><time>2026-05-02T11:47:43.997Z</time></trkpt><trkpt lat="42.04867543623106" lon="13.654190800086024"><ele>859.8571428571429</ele><time>2026-05-02T11:47:44.997Z</time></trkpt><trkpt lat="42.04873717354978" lon="13.65415928952174"><ele>859.5714285714286</ele><time>2026-05-02T11:47:45.997Z</time></trkpt><trkpt lat="42.04878515867396" lon="13.654094180027535"><ele>859.2857142857142</ele><time>2026-05-02T11:47:46.997Z</time></trkpt><trkpt lat="42.04882489881715" lon="13.653978541802159"><ele>859.0</ele><time>2026-05-02T11:47:47.997Z</time></trkpt><trkpt lat="42.04890882556763" lon="13.653928078921089"><ele>858.9999999999999</ele><time>2026-05-02T11:47:48.997Z</time></trkpt><trkpt lat="42.048971796018506" lon="13.653852948787515"><ele>859.0</ele><time>2026-05-02T11:47:49.997Z</time></trkpt><trkpt lat="42.0490390056138" lon="13.653784069972586"><ele>859.0</ele><time>2026-05-02T11:47:50.997Z</time></trkpt><trkpt lat="42.04911019711003" lon="13.653721896455188"><ele>859.0</ele><time>2026-05-02T11:47:51.997Z</time></trkpt><trkpt lat="42.049178947673" lon="13.653650425368586"><ele>858.9999999999999</ele><time>2026-05-02T11:47:52.997Z</time></trkpt><trkpt lat="42.049263500961764" lon="13.653589854835154"><ele>859.0</ele><time>2026-05-02T11:47:53.997Z</time></trkpt><trkpt lat="42.049336780218134" lon="13.65352358868046"><ele>858.6</ele><time>2026-05-02T11:47:54.997Z</time></trkpt><trkpt lat="42.049396057292775" lon="13.653434011151102"><ele>858.2</ele><time>2026-05-02T11:47:55.997Z</time></trkpt><trkpt lat="42.049456285319096" lon="13.653327662778587"><ele>857.8000000000001</ele><time>2026-05-02T11:47:56.997Z</time></trkpt><trkpt lat="42.04950655227175" lon="13.653219935404595"><ele>857.4000000000001</ele><time>2026-05-02T11:47:57.997Z</time></trkpt><trkpt lat="42.0495653820485" lon="13.653134357444198"><ele>857.0</ele><time>2026-05-02T11:47:58.997Z</time></trkpt><trkpt lat="42.04962571771158" lon="13.653041478268545"><ele>857.0</ele><time>2026-05-02T11:47:59.997Z</time></trkpt><trkpt lat="42.049691334263066" lon="13.65297015340163"><ele>857.0</ele><time>2026-05-02T11:48:00.997Z</time></trkpt><trkpt lat="42.049760428782065" lon="13.652840166903198"><ele>857.0</ele><time>2026-05-02T11:48:02.997Z</time></trkpt><trkpt lat="42.04979032114857" lon="13.652750596839716"><ele>857.0</ele><time>2026-05-02T11:48:03.997Z</time></trkpt><trkpt lat="42.04982969725004" lon="13.652679740685182"><ele>857.0</ele><time>2026-05-02T11:48:04.997Z</time></trkpt><trkpt lat="42.04990807236697" lon="13.652572679779325"><ele>857.2</ele><time>2026-05-02T11:48:06.997Z</time></trkpt><trkpt lat="42.04998356480158" lon="13.65246702046378"><ele>857.4000000000001</ele><time>2026-05-02T11:48:08.997Z</time></trkpt><trkpt lat="42.05007626157184" lon="13.652421472884594"><ele>857.5999999999999</ele><time>2026-05-02T11:48:10.997Z</time></trkpt><trkpt lat="42.05013786276719" lon="13.6524441369416"><ele>857.8</ele><time>2026-05-02T11:48:11.997Z</time></trkpt><trkpt lat="42.05025911465291" lon="13.652412696863355"><ele>858.0</ele><time>2026-05-02T11:48:13.997Z</time></trkpt><trkpt lat="42.0503790497013" lon="13.652327673681171"><ele>858.0</ele><time>2026-05-02T11:48:15.997Z</time></trkpt><trkpt lat="42.05044725022584" lon="13.652251599633509"><ele>858.0</ele><time>2026-05-02T11:48:16.997Z</time></trkpt><trkpt lat="42.05052518117141" lon="13.652166665875548"><ele>858.0</ele><time>2026-05-02T11:48:17.997Z</time></trkpt><trkpt lat="42.05060723451107" lon="13.652071157802052"><ele>858.0</ele><time>2026-05-02T11:48:18.997Z</time></trkpt><trkpt lat="42.05067864089121" lon="13.651975718181607"><ele>858.0</ele><time>2026-05-02T11:48:19.997Z</time></trkpt><trkpt lat="42.05073292094426" lon="13.65187631526875"><ele>857.5</ele><time>2026-05-02T11:48:20.997Z</time></trkpt><trkpt lat="42.05077849477165" lon="13.651787356038069"><ele>857.0</ele><time>2026-05-02T11:48:21.997Z</time></trkpt><trkpt lat="42.050815947175735" lon="13.651700668249044"><ele>856.5</ele><time>2026-05-02T11:48:22.997Z</time></trkpt><trkpt lat="42.05085010455739" lon="13.651619272532075"><ele>856.0</ele><time>2026-05-02T11:48:23.997Z</time></trkpt><trkpt lat="42.050879461222266" lon="13.651538748062666"><ele>855.5</ele><time>2026-05-02T11:48:24.997Z</time></trkpt><trkpt lat="42.05091840047264" lon="13.651453675404158"><ele>855.0</ele><time>2026-05-02T11:48:25.997Z</time></trkpt><trkpt lat="42.05095182956095" lon="13.65133965593175"><ele>855.5</ele><time>2026-05-02T11:48:26.997Z</time></trkpt><trkpt lat="42.050979045828406" lon="13.651228767747725"><ele>856.0</ele><time>2026-05-02T11:48:27.997Z</time></trkpt><trkpt lat="42.050991695439244" lon="13.651118962698277"><ele>856.5</ele><time>2026-05-02T11:48:28.997Z</time></trkpt><trkpt lat="42.05098103506908" lon="13.651016445409699"><ele>857.0</ele><time>2026-05-02T11:48:29.997Z</time></trkpt><trkpt lat="42.05095906524455" lon="13.650903492744831"><ele>857.5</ele><time>2026-05-02T11:48:30.997Z</time></trkpt><trkpt lat="42.050930579397324" lon="13.650766328631502"><ele>858.0</ele><time>2026-05-02T11:48:32.001Z</time></trkpt><trkpt lat="42.050904985933514" lon="13.650627739222351"><ele>858.0</ele><time>2026-05-02T11:48:33.001Z</time></trkpt><trkpt lat="42.050886308294125" lon="13.650511428264004"><ele>858.0</ele><time>2026-05-02T11:48:34.001Z</time></trkpt><trkpt lat="42.050875980061946" lon="13.650423998037027"><ele>858.0</ele><time>2026-05-02T11:48:35.001Z</time></trkpt><trkpt lat="42.05088511545612" lon="13.650338365275058"><ele>858.0</ele><time>2026-05-02T11:48:36.001Z</time></trkpt><trkpt lat="42.05092565218483" lon="13.650243131497657"><ele>858.0</ele><time>2026-05-02T11:48:37.001Z</time></trkpt><trkpt lat="42.0509885846919" lon="13.650141011016"><ele>858.0</ele><time>2026-05-02T11:48:38.001Z</time></trkpt><trkpt lat="42.05106163312601" lon="13.650022447046643"><ele>856.75</ele><time>2026-05-02T11:48:39.001Z</time></trkpt><trkpt lat="42.05114109197165" lon="13.649906128740032"><ele>855.5</ele><time>2026-05-02T11:48:40.001Z</time></trkpt><trkpt lat="42.051221126243306" lon="13.649782155588333"><ele>854.25</ele><time>2026-05-02T11:48:41.001Z</time></trkpt><trkpt lat="42.05130089612105" lon="13.649661186015699"><ele>853.0</ele><time>2026-05-02T11:48:42.001Z</time></trkpt><trkpt lat="42.05138011246534" lon="13.649543943197177"><ele>852.8</ele><time>2026-05-02T11:48:43.001Z</time></trkpt><trkpt lat="42.05145619380875" lon="13.64943386906216"><ele>852.5999999999999</ele><time>2026-05-02T11:48:44.001Z</time></trkpt><trkpt lat="42.05152489763614" lon="13.649313566606352"><ele>852.4000000000001</ele><time>2026-05-02T11:48:45.001Z</time></trkpt><trkpt lat="42.05157932871192" lon="13.649181974596305"><ele>852.2</ele><time>2026-05-02T11:48:46.001Z</time></trkpt><trkpt lat="42.05162393959059" lon="13.64904740618514"><ele>852.0</ele><time>2026-05-02T11:48:47.001Z</time></trkpt><trkpt lat="42.05165512074603" lon="13.648914770051196"><ele>852.0</ele><time>2026-05-02T11:48:48Z</time></trkpt><trkpt lat="42.05168782112693" lon="13.648794540528868"><ele>852.0</ele><time>2026-05-02T11:48:49Z</time></trkpt><trkpt lat="42.05172985955308" lon="13.648681557131203"><ele>852.0</ele><time>2026-05-02T11:48:50Z</time></trkpt><trkpt lat="42.05179368116036" lon="13.648568834015922"><ele>852.0</ele><time>2026-05-02T11:48:51Z</time></trkpt><trkpt lat="42.05188327999759" lon="13.648459474095366"><ele>852.0</ele><time>2026-05-02T11:48:52Z</time></trkpt><trkpt lat="42.0519802262655" lon="13.648347062184149"><ele>852.0</ele><time>2026-05-02T11:48:53Z</time></trkpt><trkpt lat="42.05207529411569" lon="13.648235593956898"><ele>852.0</ele><time>2026-05-02T11:48:54Z</time></trkpt><trkpt lat="42.05216436643163" lon="13.648119554749986"><ele>852.0</ele><time>2026-05-02T11:48:55Z</time></trkpt><trkpt lat="42.05225522448073" lon="13.648009426762838"><ele>852.0</ele><time>2026-05-02T11:48:56Z</time></trkpt><trkpt lat="42.052349898191" lon="13.647909064738608"><ele>852.0</ele><time>2026-05-02T11:48:57Z</time></trkpt><trkpt lat="42.052438433885555" lon="13.647815017060514"><ele>852.0</ele><time>2026-05-02T11:48:58Z</time></trkpt><trkpt lat="42.05252082975551" lon="13.64772451035219"><ele>852.0</ele><time>2026-05-02T11:48:59Z</time></trkpt><trkpt lat="42.052601186569035" lon="13.647632370620192"><ele>852.0</ele><time>2026-05-02T11:49:00Z</time></trkpt><trkpt lat="42.052677488916146" lon="13.647538416384549"><ele>852.0</ele><time>2026-05-02T11:49:01Z</time></trkpt><trkpt lat="42.05274915325114" lon="13.64743725635279"><ele>852.0</ele><time>2026-05-02T11:49:02Z</time></trkpt><trkpt lat="42.05282630723312" lon="13.647343401363571"><ele>852.0</ele><time>2026-05-02T11:49:03Z</time></trkpt><trkpt lat="42.052907610012504" lon="13.647252037887855"><ele>852.0</ele><time>2026-05-02T11:49:04Z</time></trkpt><trkpt lat="42.05299598025091" lon="13.647151843819298"><ele>852.0</ele><time>2026-05-02T11:49:05Z</time></trkpt><trkpt lat="42.053094929475186" lon="13.647051240137435"><ele>852.0</ele><time>2026-05-02T11:49:06Z</time></trkpt><trkpt lat="42.05319434053971" lon="13.646953214978582"><ele>852.75</ele><time>2026-05-02T11:49:07Z</time></trkpt><trkpt lat="42.053305109797385" lon="13.646859030559114"><ele>853.5</ele><time>2026-05-02T11:49:08Z</time></trkpt><trkpt lat="42.05342093970908" lon="13.646757140117744"><ele>854.25</ele><time>2026-05-02T11:49:09Z</time></trkpt><trkpt lat="42.053533757685756" lon="13.646641405852185"><ele>855.0</ele><time>2026-05-02T11:49:10Z</time></trkpt><trkpt lat="42.053645251408845" lon="13.646526879483039"><ele>855.0</ele><time>2026-05-02T11:49:11Z</time></trkpt><trkpt lat="42.053751679048744" lon="13.646409541430735"><ele>855.0</ele><time>2026-05-02T11:49:12Z</time></trkpt><trkpt lat="42.05385181562215" lon="13.646297067017711"><ele>855.0</ele><time>2026-05-02T11:49:13Z</time></trkpt><trkpt lat="42.053943401458575" lon="13.646187368404991"><ele>855.0</ele><time>2026-05-02T11:49:14Z</time></trkpt><trkpt lat="42.05402936956505" lon="13.64608081623068"><ele>854.5</ele><time>2026-05-02T11:49:15Z</time></trkpt><trkpt lat="42.054113462004516" lon="13.645975727235532"><ele>854.0</ele><time>2026-05-02T11:49:16Z</time></trkpt><trkpt lat="42.054202626756464" lon="13.645877571278401"><ele>853.5</ele><time>2026-05-02T11:49:17Z</time></trkpt><trkpt lat="42.05429240262972" lon="13.64578436363053"><ele>853.0</ele><time>2026-05-02T11:49:18Z</time></trkpt><trkpt lat="42.05438205309491" lon="13.645696504739764"><ele>853.0</ele><time>2026-05-02T11:49:19Z</time></trkpt><trkpt lat="42.054465046381914" lon="13.645596331492277"><ele>853.0</ele><time>2026-05-02T11:49:20Z</time></trkpt><trkpt lat="42.0545436213901" lon="13.645489297319"><ele>853.0</ele><time>2026-05-02T11:49:21Z</time></trkpt><trkpt lat="42.05462275809652" lon="13.64538955030863"><ele>853.0</ele><time>2026-05-02T11:49:22Z</time></trkpt><trkpt lat="42.054692122841054" lon="13.645285150321124"><ele>853.0</ele><time>2026-05-02T11:49:23Z</time></trkpt><trkpt lat="42.054756131313304" lon="13.645178907162796"><ele>853.2</ele><time>2026-05-02T11:49:24Z</time></trkpt><trkpt lat="42.05482127369534" lon="13.645071463697315"><ele>853.4</ele><time>2026-05-02T11:49:25Z</time></trkpt><trkpt lat="42.05487776165887" lon="13.644961649368822"><ele>853.6000000000001</ele><time>2026-05-02T11:49:26Z</time></trkpt><trkpt lat="42.05493236908368" lon="13.64483847043563"><ele>853.8000000000001</ele><time>2026-05-02T11:49:27Z</time></trkpt><trkpt lat="42.05497842830344" lon="13.64469520065661"><ele>854.0</ele><time>2026-05-02T11:49:28Z</time></trkpt><trkpt lat="42.0550136427023" lon="13.644542062002278"><ele>853.5000000000001</ele><time>2026-05-02T11:49:29Z</time></trkpt><trkpt lat="42.05503666351508" lon="13.644409857052253"><ele>853.0</ele><time>2026-05-02T11:49:30Z</time></trkpt><trkpt lat="42.055064273678205" lon="13.644305943992281"><ele>852.5</ele><time>2026-05-02T11:49:31Z</time></trkpt><trkpt lat="42.055091292335625" lon="13.644216933503708"><ele>852.0</ele><time>2026-05-02T11:49:32Z</time></trkpt><trkpt lat="42.055123811334276" lon="13.644113116586977"><ele>851.5000000000001</ele><time>2026-05-02T11:49:33Z</time></trkpt><trkpt lat="42.05516720713438" lon="13.64399258620116"><ele>851.0</ele><time>2026-05-02T11:49:34Z</time></trkpt><trkpt lat="42.055203724337694" lon="13.643857839171035"><ele>851.0</ele><time>2026-05-02T11:49:35Z</time></trkpt><trkpt lat="42.05523428005842" lon="13.643709337681099"><ele>851.0</ele><time>2026-05-02T11:49:36Z</time></trkpt><trkpt lat="42.05526534279963" lon="13.643561734481896"><ele>851.0</ele><time>2026-05-02T11:49:37Z</time></trkpt><trkpt lat="42.05529090161399" lon="13.643426886670184"><ele>851.0</ele><time>2026-05-02T11:49:38Z</time></trkpt><trkpt lat="42.055315055712256" lon="13.643308263801321"><ele>851.0</ele><time>2026-05-02T11:49:39Z</time></trkpt><trkpt lat="42.055342543249274" lon="13.643198984062774"><ele>851.0</ele><time>2026-05-02T11:49:40Z</time></trkpt><trkpt lat="42.05536817322699" lon="13.643088416501204"><ele>851.0</ele><time>2026-05-02T11:49:41Z</time></trkpt><trkpt lat="42.055396932096286" lon="13.642966526683868"><ele>851.0</ele><time>2026-05-02T11:49:42Z</time></trkpt><trkpt lat="42.05543260110407" lon="13.642834368310343"><ele>851.0</ele><time>2026-05-02T11:49:43Z</time></trkpt><trkpt lat="42.05547488440559" lon="13.642702532653606"><ele>851.0</ele><time>2026-05-02T11:49:44Z</time></trkpt><trkpt lat="42.055514910749174" lon="13.642584356566063"><ele>851.0000000000001</ele><time>2026-05-02T11:49:45Z</time></trkpt><trkpt lat="42.055549677905184" lon="13.642488424306373"><ele>851.0</ele><time>2026-05-02T11:49:46Z</time></trkpt><trkpt lat="42.0555841057435" lon="13.642414318639716"><ele>851.0</ele><time>2026-05-02T11:49:47Z</time></trkpt><trkpt lat="42.05562343785416" lon="13.642344985097916"><ele>851.0</ele><time>2026-05-02T11:49:48Z</time></trkpt><trkpt lat="42.05567656560541" lon="13.642291388454375"><ele>851.0000000000001</ele><time>2026-05-02T11:49:49Z</time></trkpt><trkpt lat="42.05575008639489" lon="13.64224040186247"><ele>851.0</ele><time>2026-05-02T11:49:50Z</time></trkpt><trkpt lat="42.055848393742046" lon="13.642196050016718"><ele>852.5</ele><time>2026-05-02T11:49:51Z</time></trkpt><trkpt lat="42.055955913182096" lon="13.642152978988936"><ele>854.0</ele><time>2026-05-02T11:49:52Z</time></trkpt><trkpt lat="42.05605738328142" lon="13.642099476118547"><ele>855.5</ele><time>2026-05-02T11:49:53Z</time></trkpt><trkpt lat="42.05616580169664" lon="13.642055937345505"><ele>857.0</ele><time>2026-05-02T11:49:54Z</time></trkpt><trkpt lat="42.05627669999553" lon="13.641992453008525"><ele>856.0</ele><time>2026-05-02T11:49:55Z</time></trkpt><trkpt lat="42.05639139184745" lon="13.64193267366561"><ele>855.0</ele><time>2026-05-02T11:49:56Z</time></trkpt><trkpt lat="42.05650907788511" lon="13.641887045392302"><ele>854.0</ele><time>2026-05-02T11:49:57Z</time></trkpt><trkpt lat="42.05662078177865" lon="13.641835195718997"><ele>853.0</ele><time>2026-05-02T11:49:58Z</time></trkpt><trkpt lat="42.05673239336293" lon="13.641789046554885"><ele>852.9999999999999</ele><time>2026-05-02T11:49:59Z</time></trkpt><trkpt lat="42.056838303451364" lon="13.641762308431282"><ele>853.0</ele><time>2026-05-02T11:50:00Z</time></trkpt><trkpt lat="42.05692358358417" lon="13.641738028898954"><ele>853.0</ele><time>2026-05-02T11:50:01Z</time></trkpt><trkpt lat="42.057001029371264" lon="13.641724362801755"><ele>853.0</ele><time>2026-05-02T11:50:02Z</time></trkpt><trkpt lat="42.05708159640405" lon="13.641732246310056"><ele>852.9999999999999</ele><time>2026-05-02T11:50:02.999Z</time></trkpt><trkpt lat="42.05716725093759" lon="13.641750231294825"><ele>853.0</ele><time>2026-05-02T11:50:03.999Z</time></trkpt><trkpt lat="42.05725174089597" lon="13.641771576609028"><ele>853.0</ele><time>2026-05-02T11:50:04.999Z</time></trkpt><trkpt lat="42.05734161340055" lon="13.64177584689123"><ele>853.0</ele><time>2026-05-02T11:50:05.999Z</time></trkpt><trkpt lat="42.05743347548652" lon="13.641771528863304"><ele>853.0</ele><time>2026-05-02T11:50:06.999Z</time></trkpt><trkpt lat="42.05752945868023" lon="13.641758495949306"><ele>853.0</ele><time>2026-05-02T11:50:07.999Z</time></trkpt><trkpt lat="42.057627923182025" lon="13.641725259864597"><ele>853.0</ele><time>2026-05-02T11:50:08.999Z</time></trkpt><trkpt lat="42.057729249360726" lon="13.641671834002075"><ele>853.4</ele><time>2026-05-02T11:50:09.999Z</time></trkpt><trkpt lat="42.05782876062139" lon="13.641619921035762"><ele>853.8</ele><time>2026-05-02T11:50:10.999Z</time></trkpt><trkpt lat="42.057922268291115" lon="13.641575243327834"><ele>854.2</ele><time>2026-05-02T11:50:11.999Z</time></trkpt><trkpt lat="42.05801347307998" lon="13.641540149483818"><ele>854.6</ele><time>2026-05-02T11:50:12.999Z</time></trkpt><trkpt lat="42.05809766782186" lon="13.64150444671132"><ele>855.0</ele><time>2026-05-02T11:50:13.999Z</time></trkpt><trkpt lat="42.058171420507215" lon="13.641464361904035"><ele>855.0</ele><time>2026-05-02T11:50:14.999Z</time></trkpt><trkpt lat="42.05824177287785" lon="13.64143378306725"><ele>855.0</ele><time>2026-05-02T11:50:15.999Z</time></trkpt><trkpt lat="42.05831245290737" lon="13.641409050904064"><ele>855.0</ele><time>2026-05-02T11:50:16.999Z</time></trkpt><trkpt lat="42.05838517801666" lon="13.641382294815738"><ele>855.0</ele><time>2026-05-02T11:50:17.999Z</time></trkpt><trkpt lat="42.058461670484384" lon="13.641348640494664"><ele>855.0</ele><time>2026-05-02T11:50:18.999Z</time></trkpt><trkpt lat="42.05854208103597" lon="13.641305041465333"><ele>855.0</ele><time>2026-05-02T11:50:19.999Z</time></trkpt><trkpt lat="42.05862545742464" lon="13.641261191039602"><ele>855.4</ele><time>2026-05-02T11:50:20.999Z</time></trkpt><trkpt lat="42.0587117963922" lon="13.64122241632266"><ele>855.8</ele><time>2026-05-02T11:50:21.999Z</time></trkpt><trkpt lat="42.05881326915006" lon="13.64119878843006"><ele>856.2</ele><time>2026-05-02T11:50:22.999Z</time></trkpt><trkpt lat="42.05892490202584" lon="13.641183198337158"><ele>856.6</ele><time>2026-05-02T11:50:23.999Z</time></trkpt><trkpt lat="42.05903458380269" lon="13.641183768738351"><ele>857.0</ele><time>2026-05-02T11:50:24.999Z</time></trkpt><trkpt lat="42.05914192046431" lon="13.641181309933822"><ele>857.5</ele><time>2026-05-02T11:50:25.999Z</time></trkpt><trkpt lat="42.059252123742965" lon="13.641191402281498"><ele>858.0</ele><time>2026-05-02T11:50:26.999Z</time></trkpt><trkpt lat="42.05937193258264" lon="13.641183872480662"><ele>858.5</ele><time>2026-05-02T11:50:27.999Z</time></trkpt><trkpt lat="42.0595013567742" lon="13.641169842188408"><ele>859.0</ele><time>2026-05-02T11:50:28.999Z</time></trkpt><trkpt lat="42.0596330100493" lon="13.641150975468388"><ele>859.0</ele><time>2026-05-02T11:50:29.999Z</time></trkpt><trkpt lat="42.05976850137462" lon="13.641137546947885"><ele>859.0</ele><time>2026-05-02T11:50:30.999Z</time></trkpt><trkpt lat="42.05990072701372" lon="13.641142076551342"><ele>859.0</ele><time>2026-05-02T11:50:31.999Z</time></trkpt><trkpt lat="42.060030415257046" lon="13.641160629965391"><ele>859.0</ele><time>2026-05-02T11:50:32.999Z</time></trkpt><trkpt lat="42.060155834146194" lon="13.641187628476555"><ele>859.25</ele><time>2026-05-02T11:50:33.999Z</time></trkpt><trkpt lat="42.060280679300085" lon="13.641205776766595"><ele>859.5</ele><time>2026-05-02T11:50:34.999Z</time></trkpt><trkpt lat="42.060407791434514" lon="13.641220298933623"><ele>859.75</ele><time>2026-05-02T11:50:35.999Z</time></trkpt><trkpt lat="42.06053999882299" lon="13.641220067910185"><ele>860.0</ele><time>2026-05-02T11:50:36.999Z</time></trkpt><trkpt lat="42.060676944593915" lon="13.641200498789056"><ele>860.0</ele><time>2026-05-02T11:50:37.999Z</time></trkpt><trkpt lat="42.06081674040707" lon="13.641188013926246"><ele>860.0</ele><time>2026-05-02T11:50:38.999Z</time></trkpt><trkpt lat="42.06095624649343" lon="13.641166200794212"><ele>860.0</ele><time>2026-05-02T11:50:39.999Z</time></trkpt><trkpt lat="42.06109590691703" lon="13.641130581365001"><ele>860.0</ele><time>2026-05-02T11:50:40.999Z</time></trkpt><trkpt lat="42.06123036450768" lon="13.641087614701066"><ele>860.0</ele><time>2026-05-02T11:50:41.999Z</time></trkpt><trkpt lat="42.06134957840098" lon="13.641041085325064"><ele>860.0</ele><time>2026-05-02T11:50:42.999Z</time></trkpt><trkpt lat="42.0614589405071" lon="13.641003119192122"><ele>860.0</ele><time>2026-05-02T11:50:43.999Z</time></trkpt><trkpt lat="42.06157045229411" lon="13.640954323386852"><ele>860.0</ele><time>2026-05-02T11:50:44.999Z</time></trkpt><trkpt lat="42.06168539533603" lon="13.640886730369473"><ele>861.75</ele><time>2026-05-02T11:50:45.999Z</time></trkpt><trkpt lat="42.06180021490864" lon="13.640799065840747"><ele>863.5</ele><time>2026-05-02T11:50:46.999Z</time></trkpt><trkpt lat="42.061917254133" lon="13.640689827202454"><ele>865.25</ele><time>2026-05-02T11:50:47.999Z</time></trkpt><trkpt lat="42.06203511925738" lon="13.640569208272792"><ele>867.0</ele><time>2026-05-02T11:50:48.999Z</time></trkpt><trkpt lat="42.06214996794367" lon="13.64045324277336"><ele>867.0</ele><time>2026-05-02T11:50:49.999Z</time></trkpt><trkpt lat="42.06225035274902" lon="13.640344398611846"><ele>867.0</ele><time>2026-05-02T11:50:50.999Z</time></trkpt><trkpt lat="42.0623394147796" lon="13.640238984467967"><ele>867.0</ele><time>2026-05-02T11:50:51.999Z</time></trkpt><trkpt lat="42.06242377727817" lon="13.640136806557512"><ele>867.0</ele><time>2026-05-02T11:50:52.999Z</time></trkpt><trkpt lat="42.062501639108724" lon="13.640034133010285"><ele>867.0</ele><time>2026-05-02T11:50:53.999Z</time></trkpt><trkpt lat="42.06258499881321" lon="13.639936226826565"><ele>867.0</ele><time>2026-05-02T11:50:54.999Z</time></trkpt><trkpt lat="42.06268299713626" lon="13.639844606364848"><ele>867.0</ele><time>2026-05-02T11:50:55.999Z</time></trkpt><trkpt lat="42.06280138878314" lon="13.639759999305374"><ele>867.0</ele><time>2026-05-02T11:50:56.999Z</time></trkpt><trkpt lat="42.062929822233215" lon="13.639671155275916"><ele>867.0</ele><time>2026-05-02T11:50:57.999Z</time></trkpt><trkpt lat="42.06305981125336" lon="13.63958439539791"><ele>867.0</ele><time>2026-05-02T11:50:58.999Z</time></trkpt><trkpt lat="42.063191315234484" lon="13.639491166863817"><ele>867.0</ele><time>2026-05-02T11:50:59.999Z</time></trkpt><trkpt lat="42.06332042381928" lon="13.639390815959322"><ele>867.0</ele><time>2026-05-02T11:51:00.999Z</time></trkpt><trkpt lat="42.06344746979206" lon="13.639287361589714"><ele>866.5</ele><time>2026-05-02T11:51:01.999Z</time></trkpt><trkpt lat="42.0635736573793" lon="13.639186565856251"><ele>866.0</ele><time>2026-05-02T11:51:02.999Z</time></trkpt><trkpt lat="42.06369807028453" lon="13.639082372571105"><ele>865.5</ele><time>2026-05-02T11:51:03.999Z</time></trkpt><trkpt lat="42.06381925564102" lon="13.638980108653504"><ele>865.0</ele><time>2026-05-02T11:51:04.999Z</time></trkpt><trkpt lat="42.06394043308901" lon="13.63886864947732"><ele>865.0</ele><time>2026-05-02T11:51:05.999Z</time></trkpt><trkpt lat="42.06406393034133" lon="13.638759627851572"><ele>865.0</ele><time>2026-05-02T11:51:06.999Z</time></trkpt><trkpt lat="42.064183123598426" lon="13.638647924215054"><ele>865.0</ele><time>2026-05-02T11:51:07.999Z</time></trkpt><trkpt lat="42.06429645501252" lon="13.638539546002724"><ele>865.0</ele><time>2026-05-02T11:51:08.999Z</time></trkpt><trkpt lat="42.06441119219421" lon="13.638439865368229"><ele>864.75</ele><time>2026-05-02T11:51:09.999Z</time></trkpt><trkpt lat="42.06452111205326" lon="13.638331455315464"><ele>864.5</ele><time>2026-05-02T11:51:10.999Z</time></trkpt><trkpt lat="42.064631534802785" lon="13.638214476219982"><ele>864.25</ele><time>2026-05-02T11:51:11.999Z</time></trkpt><trkpt lat="42.06474649768913" lon="13.638095707757712"><ele>864.0</ele><time>2026-05-02T11:51:12.999Z</time></trkpt><trkpt lat="42.06486200958773" lon="13.637976974094952"><ele>864.25</ele><time>2026-05-02T11:51:13.999Z</time></trkpt><trkpt lat="42.06497167931543" lon="13.637848354556954"><ele>864.5</ele><time>2026-05-02T11:51:14.999Z</time></trkpt><trkpt lat="42.06508252084082" lon="13.637735321655242"><ele>864.75</ele><time>2026-05-02T11:51:15.999Z</time></trkpt><trkpt lat="42.06517772063177" lon="13.637619340843072"><ele>865.0</ele><time>2026-05-02T11:51:16.999Z</time></trkpt><trkpt lat="42.06527614109939" lon="13.63751221934771"><ele>865.0</ele><time>2026-05-02T11:51:17.999Z</time></trkpt><trkpt lat="42.06536900921568" lon="13.63740064004673"><ele>865.0</ele><time>2026-05-02T11:51:18.999Z</time></trkpt><trkpt lat="42.0654609294893" lon="13.63730409662244"><ele>865.0</ele><time>2026-05-02T11:51:19.999Z</time></trkpt><trkpt lat="42.06554924935916" lon="13.637209053668824"><ele>865.0</ele><time>2026-05-02T11:51:20.999Z</time></trkpt><trkpt lat="42.06564163293173" lon="13.637124887389698"><ele>865.0</ele><time>2026-05-02T11:51:21.999Z</time></trkpt><trkpt lat="42.065739179518765" lon="13.63705893222669"><ele>865.0</ele><time>2026-05-02T11:51:22.999Z</time></trkpt><trkpt lat="42.06583834140139" lon="13.63699799882545"><ele>865.0</ele><time>2026-05-02T11:51:23.999Z</time></trkpt><trkpt lat="42.065940209904866" lon="13.636918703827707"><ele>865.0</ele><time>2026-05-02T11:51:24.999Z</time></trkpt><trkpt lat="42.06605551005597" lon="13.636808536480265"><ele>865.25</ele><time>2026-05-02T11:51:25.999Z</time></trkpt><trkpt lat="42.06618269498707" lon="13.636681319615217"><ele>865.5</ele><time>2026-05-02T11:51:26.999Z</time></trkpt><trkpt lat="42.06631312667863" lon="13.636574697100894"><ele>865.75</ele><time>2026-05-02T11:51:27.999Z</time></trkpt><trkpt lat="42.0664341692953" lon="13.63648543381515"><ele>866.0</ele><time>2026-05-02T11:51:28.999Z</time></trkpt><trkpt lat="42.06655343406454" lon="13.636395481627218"><ele>867.25</ele><time>2026-05-02T11:51:29.999Z</time></trkpt><trkpt lat="42.066675842557615" lon="13.63629888157148"><ele>868.5</ele><time>2026-05-02T11:51:30.999Z</time></trkpt><trkpt lat="42.06679834766869" lon="13.636201358843714"><ele>869.75</ele><time>2026-05-02T11:51:31.999Z</time></trkpt><trkpt lat="42.06691180112572" lon="13.63612066582148"><ele>871.0</ele><time>2026-05-02T11:51:32.999Z</time></trkpt><trkpt lat="42.06699873255312" lon="13.636044936373787"><ele>870.9999999999999</ele><time>2026-05-02T11:51:33.999Z</time></trkpt><trkpt lat="42.06707414011569" lon="13.63598103930548"><ele>871.0</ele><time>2026-05-02T11:51:34.999Z</time></trkpt><trkpt lat="42.067144000477874" lon="13.635920061127608"><ele>871.0</ele><time>2026-05-02T11:51:35.999Z</time></trkpt><trkpt lat="42.067217856720134" lon="13.635871612483788"><ele>871.0</ele><time>2026-05-02T11:51:36.999Z</time></trkpt><trkpt lat="42.06730546879323" lon="13.635843670848763"><ele>870.9999999999999</ele><time>2026-05-02T11:51:37.999Z</time></trkpt><trkpt lat="42.067401548323716" lon="13.635824542551502"><ele>871.0</ele><time>2026-05-02T11:51:38.999Z</time></trkpt><trkpt lat="42.06749417187038" lon="13.635788852732226"><ele>873.0</ele><time>2026-05-02T11:51:39.999Z</time></trkpt><trkpt lat="42.06758021909917" lon="13.63571652451966"><ele>875.0</ele><time>2026-05-02T11:51:40.999Z</time></trkpt><trkpt lat="42.06767518251493" lon="13.635624759674315"><ele>877.0</ele><time>2026-05-02T11:51:41.999Z</time></trkpt><trkpt lat="42.06777906139243" lon="13.635521498236681"><ele>879.0</ele><time>2026-05-02T11:51:42.999Z</time></trkpt><trkpt lat="42.06788671929288" lon="13.635419091511181"><ele>879.0</ele><time>2026-05-02T11:51:43.999Z</time></trkpt><trkpt lat="42.06799383126375" lon="13.635311894454267"><ele>879.0</ele><time>2026-05-02T11:51:44.999Z</time></trkpt><trkpt lat="42.06809984923633" lon="13.635203259033567"><ele>879.0</ele><time>2026-05-02T11:51:45.999Z</time></trkpt><trkpt lat="42.068208084451584" lon="13.635085607605108"><ele>879.0</ele><time>2026-05-02T11:51:46.999Z</time></trkpt><trkpt lat="42.068317636602146" lon="13.634969003153735"><ele>880.5</ele><time>2026-05-02T11:51:47.999Z</time></trkpt><trkpt lat="42.068423593872616" lon="13.63485919022825"><ele>882.0</ele><time>2026-05-02T11:51:48.999Z</time></trkpt><trkpt lat="42.06852515128145" lon="13.634745692169712"><ele>883.5</ele><time>2026-05-02T11:51:49.999Z</time></trkpt><trkpt lat="42.06862494693151" lon="13.634622584852638"><ele>885.0</ele><time>2026-05-02T11:51:50.999Z</time></trkpt><trkpt lat="42.06872518050763" lon="13.634501833711303"><ele>884.25</ele><time>2026-05-02T11:51:51.999Z</time></trkpt><trkpt lat="42.06882190797839" lon="13.634386248808958"><ele>883.5</ele><time>2026-05-02T11:51:52.999Z</time></trkpt><trkpt lat="42.0689194272992" lon="13.63427517842315"><ele>882.75</ele><time>2026-05-02T11:51:53.999Z</time></trkpt><trkpt lat="42.06900287515665" lon="13.634170232233762"><ele>882.0</ele><time>2026-05-02T11:51:54.999Z</time></trkpt><trkpt lat="42.069072650797146" lon="13.634072077738242"><ele>883.2</ele><time>2026-05-02T11:51:55.999Z</time></trkpt><trkpt lat="42.06913383253493" lon="13.633991336049187"><ele>884.4000000000001</ele><time>2026-05-02T11:51:56.999Z</time></trkpt><trkpt lat="42.06918100762364" lon="13.633914188881192"><ele>885.5999999999999</ele><time>2026-05-02T11:51:57.999Z</time></trkpt><trkpt lat="42.0692881533359" lon="13.633845573105136"><ele>886.8</ele><time>2026-05-02T11:51:59.999Z</time></trkpt><trkpt lat="42.069428944140896" lon="13.6338166615203"><ele>888.0</ele><time>2026-05-02T11:52:01.999Z</time></trkpt><trkpt lat="42.069532574881706" lon="13.633868913773822"><ele>888.0</ele><time>2026-05-02T11:52:03.999Z</time></trkpt><trkpt lat="42.069598089996234" lon="13.633901947523166"><ele>888.0</ele><time>2026-05-02T11:52:05.999Z</time></trkpt><trkpt lat="42.06963225388398" lon="13.63411744089513"><ele>888.0</ele><time>2026-05-02T11:52:07.999Z</time></trkpt><trkpt lat="42.069656745998145" lon="13.634203931954339"><ele>888.0</ele><time>2026-05-02T11:52:08.999Z</time></trkpt><trkpt lat="42.06969380068852" lon="13.634301060163944"><ele>888.0</ele><time>2026-05-02T11:52:09.999Z</time></trkpt><trkpt lat="42.06972998108332" lon="13.634412544662302"><ele>888.25</ele><time>2026-05-02T11:52:10.999Z</time></trkpt><trkpt lat="42.06978552275937" lon="13.63453567052864"><ele>888.5</ele><time>2026-05-02T11:52:11.999Z</time></trkpt><trkpt lat="42.06985663147935" lon="13.634671085252988"><ele>888.75</ele><time>2026-05-02T11:52:12.998Z</time></trkpt><trkpt lat="42.069941133624134" lon="13.634807776082392"><ele>889.0</ele><time>2026-05-02T11:52:13.998Z</time></trkpt><trkpt lat="42.07002713755912" lon="13.63494755090835"><ele>889.0</ele><time>2026-05-02T11:52:14.998Z</time></trkpt><trkpt lat="42.07011296361518" lon="13.635094305071824"><ele>889.0</ele><time>2026-05-02T11:52:15.998Z</time></trkpt><trkpt lat="42.07019747782403" lon="13.635248835949861"><ele>889.0</ele><time>2026-05-02T11:52:16.998Z</time></trkpt><trkpt lat="42.07027779787044" lon="13.635411039315843"><ele>889.0</ele><time>2026-05-02T11:52:17.998Z</time></trkpt><trkpt lat="42.070363020562375" lon="13.635575974331116"><ele>893.0</ele><time>2026-05-02T11:52:18.998Z</time></trkpt><trkpt lat="42.070462480281925" lon="13.635717378932114"><ele>897.0</ele><time>2026-05-02T11:52:19.998Z</time></trkpt><trkpt lat="42.070539926453684" lon="13.635863676116688"><ele>901.0</ele><time>2026-05-02T11:52:20.998Z</time></trkpt><trkpt lat="42.07060858473936" lon="13.63600664571483"><ele>905.0</ele><time>2026-05-02T11:52:21.998Z</time></trkpt><trkpt lat="42.0706734335291" lon="13.636142569827689"><ele>905.0</ele><time>2026-05-02T11:52:22.998Z</time></trkpt><trkpt lat="42.070741361509796" lon="13.636274883739299"><ele>905.0</ele><time>2026-05-02T11:52:23.998Z</time></trkpt><trkpt lat="42.07081772369706" lon="13.636404263965215"><ele>905.0</ele><time>2026-05-02T11:52:24.998Z</time></trkpt><trkpt lat="42.07090168657764" lon="13.636527599766287"><ele>905.0</ele><time>2026-05-02T11:52:25.998Z</time></trkpt><trkpt lat="42.070990748213184" lon="13.636636881474764"><ele>905.0</ele><time>2026-05-02T11:52:26.998Z</time></trkpt><trkpt lat="42.071093925936545" lon="13.636737054995937"><ele>905.0</ele><time>2026-05-02T11:52:27.998Z</time></trkpt><trkpt lat="42.07120392096184" lon="13.636842955292115"><ele>905.0</ele><time>2026-05-02T11:52:28.998Z</time></trkpt><trkpt lat="42.071315178114375" lon="13.636963007992978"><ele>905.0</ele><time>2026-05-02T11:52:29.998Z</time></trkpt><trkpt lat="42.07141233372903" lon="13.63709996131391"><ele>904.5</ele><time>2026-05-02T11:52:30.998Z</time></trkpt><trkpt lat="42.07150912942228" lon="13.637233628200129"><ele>904.0</ele><time>2026-05-02T11:52:31.998Z</time></trkpt><trkpt lat="42.071609344925484" lon="13.637367462392362"><ele>903.5</ele><time>2026-05-02T11:52:32.998Z</time></trkpt><trkpt lat="42.071720367084886" lon="13.637491214021868"><ele>903.0</ele><time>2026-05-02T11:52:33.998Z</time></trkpt><trkpt lat="42.071838437770374" lon="13.637611082617756"><ele>903.0</ele><time>2026-05-02T11:52:34.998Z</time></trkpt><trkpt lat="42.07197220021709" lon="13.637698632989096"><ele>903.0</ele><time>2026-05-02T11:52:35.998Z</time></trkpt><trkpt lat="42.07209467978759" lon="13.637810276535896"><ele>903.0</ele><time>2026-05-02T11:52:36.998Z</time></trkpt><trkpt lat="42.07223009036211" lon="13.637883390581559"><ele>903.0</ele><time>2026-05-02T11:52:37.998Z</time></trkpt><trkpt lat="42.07235502181367" lon="13.637978837269863"><ele>904.75</ele><time>2026-05-02T11:52:38.998Z</time></trkpt><trkpt lat="42.072479920349366" lon="13.638047935704668"><ele>906.5</ele><time>2026-05-02T11:52:39.998Z</time></trkpt><trkpt lat="42.07259862837346" lon="13.638110204013964"><ele>908.25</ele><time>2026-05-02T11:52:40.998Z</time></trkpt><trkpt lat="42.072724655245416" lon="13.638147685298152"><ele>910.0</ele><time>2026-05-02T11:52:41.998Z</time></trkpt><trkpt lat="42.072842960082376" lon="13.638195676698214"><ele>910.0</ele><time>2026-05-02T11:52:42.998Z</time></trkpt><trkpt lat="42.072943020600185" lon="13.638272218706728"><ele>910.0</ele><time>2026-05-02T11:52:43.998Z</time></trkpt><trkpt lat="42.073036102268986" lon="13.638364116999222"><ele>910.0</ele><time>2026-05-02T11:52:44.998Z</time></trkpt><trkpt lat="42.073121410121004" lon="13.63847727949954"><ele>910.0</ele><time>2026-05-02T11:52:45.998Z</time></trkpt><trkpt lat="42.0732031724945" lon="13.638610801028657"><ele>911.75</ele><time>2026-05-02T11:52:46.998Z</time></trkpt><trkpt lat="42.073286598881715" lon="13.63875664786868"><ele>913.5</ele><time>2026-05-02T11:52:47.998Z</time></trkpt><trkpt lat="42.07337500979753" lon="13.638908152970718"><ele>915.25</ele><time>2026-05-02T11:52:48.998Z</time></trkpt><trkpt lat="42.07346892079897" lon="13.6390578114847"><ele>917.0</ele><time>2026-05-02T11:52:49.998Z</time></trkpt><trkpt lat="42.07357083395737" lon="13.639204523802645"><ele>917.0</ele><time>2026-05-02T11:52:50.998Z</time></trkpt><trkpt lat="42.073680335323154" lon="13.639347189627136"><ele>917.0</ele><time>2026-05-02T11:52:51.998Z</time></trkpt><trkpt lat="42.07379646755667" lon="13.639490340482155"><ele>917.0</ele><time>2026-05-02T11:52:52.998Z</time></trkpt><trkpt lat="42.073918397173976" lon="13.639631139786305"><ele>918.6666666666667</ele><time>2026-05-02T11:52:53.998Z</time></trkpt><trkpt lat="42.074042457843994" lon="13.63977954091028"><ele>920.3333333333333</ele><time>2026-05-02T11:52:54.998Z</time></trkpt><trkpt lat="42.0741636888241" lon="13.639914957522704"><ele>922.0</ele><time>2026-05-02T11:52:55.998Z</time></trkpt><trkpt lat="42.07430483205651" lon="13.640032905061984"><ele>922.0</ele><time>2026-05-02T11:52:56.998Z</time></trkpt><trkpt lat="42.07442376307061" lon="13.640192570231415"><ele>922.0</ele><time>2026-05-02T11:52:57.998Z</time></trkpt><trkpt lat="42.07454104774571" lon="13.640331637677443"><ele>922.0</ele><time>2026-05-02T11:52:58.998Z</time></trkpt><trkpt lat="42.07466521661033" lon="13.640499138798322"><ele>924.0</ele><time>2026-05-02T11:52:59.998Z</time></trkpt><trkpt lat="42.07479591433709" lon="13.640681645340495"><ele>926.0</ele><time>2026-05-02T11:53:00.998Z</time></trkpt><trkpt lat="42.07490393141965" lon="13.640836950942328"><ele>928.0</ele><time>2026-05-02T11:53:01.998Z</time></trkpt><trkpt lat="42.07502189629328" lon="13.641015257659301"><ele>930.6666666666666</ele><time>2026-05-02T11:53:02.998Z</time></trkpt><trkpt lat="42.07513847446686" lon="13.641196178154946"><ele>933.3333333333333</ele><time>2026-05-02T11:53:03.998Z</time></trkpt><trkpt lat="42.07524110818003" lon="13.641356845102539"><ele>936.0</ele><time>2026-05-02T11:53:04.998Z</time></trkpt><trkpt lat="42.07535659585732" lon="13.641537633624115"><ele>936.0</ele><time>2026-05-02T11:53:05.998Z</time></trkpt><trkpt lat="42.0754708866483" lon="13.641709050508014"><ele>936.0</ele><time>2026-05-02T11:53:06.998Z</time></trkpt><trkpt lat="42.075586209159844" lon="13.641865216776226"><ele>936.0</ele><time>2026-05-02T11:53:07.998Z</time></trkpt><trkpt lat="42.07571579297516" lon="13.642023033463534"><ele>936.0</ele><time>2026-05-02T11:53:08.998Z</time></trkpt><trkpt lat="42.07584892829062" lon="13.642175878178337"><ele>936.0</ele><time>2026-05-02T11:53:09.998Z</time></trkpt><trkpt lat="42.0759885058538" lon="13.64232609562825"><ele>936.0</ele><time>2026-05-02T11:53:10.998Z</time></trkpt><trkpt lat="42.07612559267149" lon="13.642475679624363"><ele>936.0</ele><time>2026-05-02T11:53:11.998Z</time></trkpt><trkpt lat="42.07626094888781" lon="13.642631550236537"><ele>936.0</ele><time>2026-05-02T11:53:12.998Z</time></trkpt><trkpt lat="42.07639920445517" lon="13.642791885088386"><ele>936.0</ele><time>2026-05-02T11:53:13.998Z</time></trkpt><trkpt lat="42.076544355895805" lon="13.64294612350552"><ele>938.0</ele><time>2026-05-02T11:53:14.998Z</time></trkpt><trkpt lat="42.07667401562552" lon="13.643127710784677"><ele>940.0</ele><time>2026-05-02T11:53:15.998Z</time></trkpt><trkpt lat="42.0767883227498" lon="13.643313861387979"><ele>942.0</ele><time>2026-05-02T11:53:16.998Z</time></trkpt><trkpt lat="42.07690522665143" lon="13.643505057258357"><ele>948.0</ele><time>2026-05-02T11:53:17.998Z</time></trkpt><trkpt lat="42.07701391706595" lon="13.643706631337674"><ele>954.0</ele><time>2026-05-02T11:53:18.998Z</time></trkpt><trkpt lat="42.077120415088764" lon="13.643851791658651"><ele>960.0</ele><time>2026-05-02T11:53:19.998Z</time></trkpt><trkpt lat="42.077259077343236" lon="13.643997997212706"><ele>960.0</ele><time>2026-05-02T11:53:20.998Z</time></trkpt><trkpt lat="42.07736377263412" lon="13.644140923568974"><ele>960.0</ele><time>2026-05-02T11:53:21.998Z</time></trkpt><trkpt lat="42.07749065187983" lon="13.644253580022674"><ele>960.0</ele><time>2026-05-02T11:53:22.998Z</time></trkpt><trkpt lat="42.07764203536752" lon="13.644358046348556"><ele>960.5</ele><time>2026-05-02T11:53:23.998Z</time></trkpt><trkpt lat="42.077764604832915" lon="13.644464149378761"><ele>961.0</ele><time>2026-05-02T11:53:24.998Z</time></trkpt><trkpt lat="42.07785172309588" lon="13.644599768524836"><ele>961.5</ele><time>2026-05-02T11:53:25.998Z</time></trkpt><trkpt lat="42.077933549062834" lon="13.644754291845286"><ele>962.0</ele><time>2026-05-02T11:53:26.998Z</time></trkpt><trkpt lat="42.07802618068561" lon="13.644945658213889"><ele>962.0</ele><time>2026-05-02T11:53:27.998Z</time></trkpt><trkpt lat="42.078117789827715" lon="13.64511507652549"><ele>962.0</ele><time>2026-05-02T11:53:28.998Z</time></trkpt><trkpt lat="42.07819635189978" lon="13.645254949471083"><ele>962.0</ele><time>2026-05-02T11:53:29.998Z</time></trkpt><trkpt lat="42.07827429558547" lon="13.645393186626642"><ele>962.0</ele><time>2026-05-02T11:53:30.998Z</time></trkpt><trkpt lat="42.078365735157156" lon="13.64552696787531"><ele>961.5</ele><time>2026-05-02T11:53:31.998Z</time></trkpt><trkpt lat="42.078441690474655" lon="13.645659052152277"><ele>961.0</ele><time>2026-05-02T11:53:32.998Z</time></trkpt><trkpt lat="42.078524651215815" lon="13.645796808617579"><ele>960.5</ele><time>2026-05-02T11:53:33.998Z</time></trkpt><trkpt lat="42.07861686174008" lon="13.64589945345398"><ele>960.0</ele><time>2026-05-02T11:53:34.998Z</time></trkpt><trkpt lat="42.07873445508526" lon="13.64596573818794"><ele>960.0</ele><time>2026-05-02T11:53:35.998Z</time></trkpt><trkpt lat="42.07885537330007" lon="13.64604840676259"><ele>960.0</ele><time>2026-05-02T11:53:36.998Z</time></trkpt><trkpt lat="42.07896920391914" lon="13.646178165596618"><ele>960.0</ele><time>2026-05-02T11:53:37.998Z</time></trkpt><trkpt lat="42.07908029031702" lon="13.646344113350656"><ele>960.25</ele><time>2026-05-02T11:53:38.998Z</time></trkpt><trkpt lat="42.079172210927645" lon="13.646498857046792"><ele>960.5</ele><time>2026-05-02T11:53:39.998Z</time></trkpt><trkpt lat="42.07925705883112" lon="13.646668271854663"><ele>960.75</ele><time>2026-05-02T11:53:40.998Z</time></trkpt><trkpt lat="42.079325645277564" lon="13.646843091526351"><ele>961.0</ele><time>2026-05-02T11:53:41.998Z</time></trkpt><trkpt lat="42.079393176245496" lon="13.646988938992676"><ele>962.8333333333333</ele><time>2026-05-02T11:53:42.998Z</time></trkpt><trkpt lat="42.07944236757053" lon="13.647103695163405"><ele>964.6666666666666</ele><time>2026-05-02T11:53:43.998Z</time></trkpt><trkpt lat="42.07949537681533" lon="13.647184063401939"><ele>966.5</ele><time>2026-05-02T11:53:44.998Z</time></trkpt><trkpt lat="42.07952573594187" lon="13.647289364578135"><ele>968.3333333333333</ele><time>2026-05-02T11:53:45.998Z</time></trkpt><trkpt lat="42.07958500719658" lon="13.647391160659065"><ele>970.1666666666666</ele><time>2026-05-02T11:53:46.998Z</time></trkpt><trkpt lat="42.07964047070745" lon="13.647477183498276"><ele>972.0</ele><time>2026-05-02T11:53:47.998Z</time></trkpt><trkpt lat="42.079750260942994" lon="13.647548555437206"><ele>972.0</ele><time>2026-05-02T11:53:48.998Z</time></trkpt><trkpt lat="42.07983967911008" lon="13.647575921765561"><ele>972.0</ele><time>2026-05-02T11:53:49.998Z</time></trkpt><trkpt lat="42.07994075845575" lon="13.647643229097818"><ele>972.0</ele><time>2026-05-02T11:53:50.998Z</time></trkpt><trkpt lat="42.0800319332913" lon="13.64770026826678"><ele>972.0</ele><time>2026-05-02T11:53:51.998Z</time></trkpt><trkpt lat="42.080121277830344" lon="13.647757035577827"><ele>972.0</ele><time>2026-05-02T11:53:52.998Z</time></trkpt><trkpt lat="42.080205496479195" lon="13.64780380701487"><ele>969.4000000000001</ele><time>2026-05-02T11:53:53.998Z</time></trkpt><trkpt lat="42.08029227124284" lon="13.647861295144873"><ele>966.8000000000001</ele><time>2026-05-02T11:53:54.998Z</time></trkpt><trkpt lat="42.08036089803946" lon="13.64785482898061"><ele>964.2</ele><time>2026-05-02T11:53:55.998Z</time></trkpt><trkpt lat="42.08044730794378" lon="13.647848220440496"><ele>961.6</ele><time>2026-05-02T11:53:56.998Z</time></trkpt><trkpt lat="42.08055617568759" lon="13.647816253243768"><ele>959.0</ele><time>2026-05-02T11:53:57.998Z</time></trkpt><trkpt lat="42.08065305062852" lon="13.647769819122571"><ele>959.0</ele><time>2026-05-02T11:53:58.998Z</time></trkpt><trkpt lat="42.08075612670055" lon="13.647690789292195"><ele>959.0</ele><time>2026-05-02T11:53:59.998Z</time></trkpt><trkpt lat="42.08085963908585" lon="13.647656612637059"><ele>959.0</ele><time>2026-05-02T11:54:00.998Z</time></trkpt><trkpt lat="42.080981869876666" lon="13.647608107565164"><ele>959.0</ele><time>2026-05-02T11:54:01.998Z</time></trkpt><trkpt lat="42.08109366226053" lon="13.64755329129707"><ele>960.25</ele><time>2026-05-02T11:54:02.998Z</time></trkpt><trkpt lat="42.081202086103765" lon="13.647498685567674"><ele>961.5</ele><time>2026-05-02T11:54:03.998Z</time></trkpt><trkpt lat="42.081310884309694" lon="13.647447288433296"><ele>962.75</ele><time>2026-05-02T11:54:04.998Z</time></trkpt><trkpt lat="42.08140530173474" lon="13.647358805872331"><ele>964.0</ele><time>2026-05-02T11:54:05.998Z</time></trkpt><trkpt lat="42.081501811447275" lon="13.647270321254815"><ele>964.0</ele><time>2026-05-02T11:54:06.998Z</time></trkpt><trkpt lat="42.08159803025148" lon="13.647152850649"><ele>964.0</ele><time>2026-05-02T11:54:07.998Z</time></trkpt><trkpt lat="42.08169948629112" lon="13.6470327281539"><ele>964.0</ele><time>2026-05-02T11:54:08.998Z</time></trkpt><trkpt lat="42.0817933877428" lon="13.64689449546183"><ele>964.0</ele><time>2026-05-02T11:54:09.998Z</time></trkpt><trkpt lat="42.081885403139964" lon="13.646766779390708"><ele>966.5</ele><time>2026-05-02T11:54:10.998Z</time></trkpt><trkpt lat="42.08198090975177" lon="13.646662719963366"><ele>969.0</ele><time>2026-05-02T11:54:11.998Z</time></trkpt><trkpt lat="42.08206815557018" lon="13.646527529282533"><ele>971.5</ele><time>2026-05-02T11:54:12.998Z</time></trkpt><trkpt lat="42.08215620691714" lon="13.646397691430838"><ele>974.0</ele><time>2026-05-02T11:54:13.998Z</time></trkpt><trkpt lat="42.082256891922626" lon="13.646302739372087"><ele>974.0</ele><time>2026-05-02T11:54:14.998Z</time></trkpt><trkpt lat="42.08233526478263" lon="13.646190062425298"><ele>974.0</ele><time>2026-05-02T11:54:15.998Z</time></trkpt><trkpt lat="42.08243413223402" lon="13.646119399785277"><ele>974.0</ele><time>2026-05-02T11:54:16.998Z</time></trkpt><trkpt lat="42.08254347091695" lon="13.646083190911371"><ele>974.0</ele><time>2026-05-02T11:54:17.998Z</time></trkpt><trkpt lat="42.08267057381831" lon="13.646028703216905"><ele>976.25</ele><time>2026-05-02T11:54:18.998Z</time></trkpt><trkpt lat="42.082796258069585" lon="13.645973887730305"><ele>978.5</ele><time>2026-05-02T11:54:19.998Z</time></trkpt><trkpt lat="42.08291811643743" lon="13.645941717590201"><ele>980.75</ele><time>2026-05-02T11:54:20.998Z</time></trkpt><trkpt lat="42.08303655953441" lon="13.645865065151458"><ele>983.0</ele><time>2026-05-02T11:54:21.998Z</time></trkpt><trkpt lat="42.08315067391424" lon="13.645779630952676"><ele>983.0</ele><time>2026-05-02T11:54:22.998Z</time></trkpt><trkpt lat="42.08325030731663" lon="13.645677354554884"><ele>983.0</ele><time>2026-05-02T11:54:23.998Z</time></trkpt><trkpt lat="42.08335058217748" lon="13.645591867215117"><ele>983.0</ele><time>2026-05-02T11:54:24.998Z</time></trkpt><trkpt lat="42.08343693376763" lon="13.645513944623206"><ele>983.0</ele><time>2026-05-02T11:54:25.998Z</time></trkpt><trkpt lat="42.083525923849656" lon="13.645425785205235"><ele>984.6666666666667</ele><time>2026-05-02T11:54:26.998Z</time></trkpt><trkpt lat="42.08359517124374" lon="13.645352987615201"><ele>986.3333333333334</ele><time>2026-05-02T11:54:27.998Z</time></trkpt><trkpt lat="42.083655385536254" lon="13.645292412937122"><ele>988.0</ele><time>2026-05-02T11:54:28.998Z</time></trkpt><trkpt lat="42.08372162865143" lon="13.645211666622508"><ele>989.6666666666667</ele><time>2026-05-02T11:54:29.998Z</time></trkpt><trkpt lat="42.08377117251363" lon="13.645136354158065"><ele>991.3333333333334</ele><time>2026-05-02T11:54:30.998Z</time></trkpt><trkpt lat="42.083839932577305" lon="13.64505001260584"><ele>993.0</ele><time>2026-05-02T11:54:31.998Z</time></trkpt><trkpt lat="42.08389837709011" lon="13.644948184215325"><ele>993.8</ele><time>2026-05-02T11:54:32.998Z</time></trkpt><trkpt lat="42.08397381389936" lon="13.644848094709129"><ele>994.5999999999999</ele><time>2026-05-02T11:54:33.998Z</time></trkpt><trkpt lat="42.08401179902994" lon="13.644742880069058"><ele>995.4000000000001</ele><time>2026-05-02T11:54:34.998Z</time></trkpt><trkpt lat="42.084045269099065" lon="13.64461901095699"><ele>996.2</ele><time>2026-05-02T11:54:35.998Z</time></trkpt><trkpt lat="42.084073116892014" lon="13.644501844655927"><ele>997.0</ele><time>2026-05-02T11:54:36.998Z</time></trkpt><trkpt lat="42.08409622059247" lon="13.64436530600339"><ele>999.0</ele><time>2026-05-02T11:54:37.998Z</time></trkpt><trkpt lat="42.0841301221023" lon="13.644197648908081"><ele>1001.0</ele><time>2026-05-02T11:54:38.998Z</time></trkpt><trkpt lat="42.08416827136" lon="13.64404218089103"><ele>1003.0</ele><time>2026-05-02T11:54:39.998Z</time></trkpt><trkpt lat="42.08421623475394" lon="13.643884364224448"><ele>1005.0</ele><time>2026-05-02T11:54:40.998Z</time></trkpt><trkpt lat="42.084276622584696" lon="13.643716726454414"><ele>1006.5</ele><time>2026-05-02T11:54:41.998Z</time></trkpt><trkpt lat="42.08432919566558" lon="13.643562577596752"><ele>1008.0</ele><time>2026-05-02T11:54:42.997Z</time></trkpt><trkpt lat="42.08439472909807" lon="13.643421224043715"><ele>1009.5</ele><time>2026-05-02T11:54:43.997Z</time></trkpt><trkpt lat="42.08444440912432" lon="13.643279819539769"><ele>1011.0</ele><time>2026-05-02T11:54:44.997Z</time></trkpt><trkpt lat="42.08449207361812" lon="13.643152351402222"><ele>1011.0</ele><time>2026-05-02T11:54:45.997Z</time></trkpt><trkpt lat="42.08453684419913" lon="13.643011991079407"><ele>1011.0</ele><time>2026-05-02T11:54:46.997Z</time></trkpt><trkpt lat="42.08459533012533" lon="13.64288554502043"><ele>1011.0</ele><time>2026-05-02T11:54:47.997Z</time></trkpt><trkpt lat="42.08467226820641" lon="13.6427766934541"><ele>1011.0</ele><time>2026-05-02T11:54:48.997Z</time></trkpt><trkpt lat="42.08474939453465" lon="13.642638747598571"><ele>1011.8</ele><time>2026-05-02T11:54:49.997Z</time></trkpt><trkpt lat="42.08482428663724" lon="13.642494077173119"><ele>1012.5999999999999</ele><time>2026-05-02T11:54:50.997Z</time></trkpt><trkpt lat="42.08486595467643" lon="13.642364197602646"><ele>1013.4</ele><time>2026-05-02T11:54:51.997Z</time></trkpt><trkpt lat="42.08489142757091" lon="13.642225878354983"><ele>1014.2</ele><time>2026-05-02T11:54:52.997Z</time></trkpt><trkpt lat="42.08491319873766" lon="13.642091901398057"><ele>1015.0</ele><time>2026-05-02T11:54:53.997Z</time></trkpt><trkpt lat="42.084932747567485" lon="13.641948839697177"><ele>1018.5</ele><time>2026-05-02T11:54:54.997Z</time></trkpt><trkpt lat="42.08495291040982" lon="13.64177640571252"><ele>1022.0</ele><time>2026-05-02T11:54:55.997Z</time></trkpt><trkpt lat="42.084983272100416" lon="13.641612543980461"><ele>1025.5</ele><time>2026-05-02T11:54:56.997Z</time></trkpt><trkpt lat="42.08502784895254" lon="13.64144987675069"><ele>1029.0</ele><time>2026-05-02T11:54:57.997Z</time></trkpt><trkpt lat="42.085075573895764" lon="13.641289674595239"><ele>1030.75</ele><time>2026-05-02T11:54:58.997Z</time></trkpt><trkpt lat="42.08512982047436" lon="13.641129241132889"><ele>1032.5</ele><time>2026-05-02T11:54:59.997Z</time></trkpt><trkpt lat="42.085172039284984" lon="13.64096505220509"><ele>1034.25</ele><time>2026-05-02T11:55:00.997Z</time></trkpt><trkpt lat="42.085209054940016" lon="13.640803939445295"><ele>1036.0</ele><time>2026-05-02T11:55:01.997Z</time></trkpt><trkpt lat="42.08523576971656" lon="13.640652651512289"><ele>1036.0</ele><time>2026-05-02T11:55:02.997Z</time></trkpt><trkpt lat="42.08524399862326" lon="13.640507509454245"><ele>1036.0</ele><time>2026-05-02T11:55:03.997Z</time></trkpt><trkpt lat="42.08522241599603" lon="13.6404057662568"><ele>1036.0</ele><time>2026-05-02T11:55:04.997Z</time></trkpt><trkpt lat="42.08519988280986" lon="13.640300813880692"><ele>1036.0</ele><time>2026-05-02T11:55:05.997Z</time></trkpt><trkpt lat="42.08516899083427" lon="13.640174718875265"><ele>1036.0</ele><time>2026-05-02T11:55:06.997Z</time></trkpt><trkpt lat="42.08515581301821" lon="13.640034342154781"><ele>1036.8333333333333</ele><time>2026-05-02T11:55:07.997Z</time></trkpt><trkpt lat="42.08516374721434" lon="13.639924786258808"><ele>1037.6666666666665</ele><time>2026-05-02T11:55:08.997Z</time></trkpt><trkpt lat="42.085213668182625" lon="13.639846119994628"><ele>1038.5</ele><time>2026-05-02T11:55:09.997Z</time></trkpt><trkpt lat="42.08523431105241" lon="13.639754093242285"><ele>1039.3333333333333</ele><time>2026-05-02T11:55:10.997Z</time></trkpt><trkpt lat="42.085298622245276" lon="13.63965918635304"><ele>1040.1666666666667</ele><time>2026-05-02T11:55:11.997Z</time></trkpt><trkpt lat="42.08533682560119" lon="13.639545969221546"><ele>1041.0</ele><time>2026-05-02T11:55:12.997Z</time></trkpt><trkpt lat="42.085371722016674" lon="13.639449895717696"><ele>1042.3999999999999</ele><time>2026-05-02T11:55:13.997Z</time></trkpt><trkpt lat="42.0853977668303" lon="13.639332724186565"><ele>1043.8</ele><time>2026-05-02T11:55:14.997Z</time></trkpt><trkpt lat="42.085398203702496" lon="13.639233213816288"><ele>1045.1999999999998</ele><time>2026-05-02T11:55:15.997Z</time></trkpt><trkpt lat="42.085359012777786" lon="13.639054504778187"><ele>1046.6</ele><time>2026-05-02T11:55:17.997Z</time></trkpt><trkpt lat="42.085312070394814" lon="13.638925308345204"><ele>1048.0</ele><time>2026-05-02T11:55:18.997Z</time></trkpt><trkpt lat="42.08528481534034" lon="13.638796807318068"><ele>1048.0</ele><time>2026-05-02T11:55:19.997Z</time></trkpt><trkpt lat="42.0852534833249" lon="13.638649612278856"><ele>1048.0</ele><time>2026-05-02T11:55:20.997Z</time></trkpt><trkpt lat="42.085225261898515" lon="13.63852026963385"><ele>1048.0</ele><time>2026-05-02T11:55:21.997Z</time></trkpt><trkpt lat="42.085192291543166" lon="13.638369610030189"><ele>1048.0</ele><time>2026-05-02T11:55:22.997Z</time></trkpt><trkpt lat="42.085159841976136" lon="13.638219296082273"><ele>1048.0</ele><time>2026-05-02T11:55:23.997Z</time></trkpt><trkpt lat="42.085130801498394" lon="13.638083759848742"><ele>1049.8</ele><time>2026-05-02T11:55:24.997Z</time></trkpt><trkpt lat="42.085102836364484" lon="13.637944906843638"><ele>1051.6</ele><time>2026-05-02T11:55:25.997Z</time></trkpt><trkpt lat="42.08508148204057" lon="13.637800975025566"><ele>1053.4</ele><time>2026-05-02T11:55:26.997Z</time></trkpt><trkpt lat="42.085068897192464" lon="13.637661735412461"><ele>1055.2</ele><time>2026-05-02T11:55:27.997Z</time></trkpt><trkpt lat="42.085060143357325" lon="13.637509158292506"><ele>1057.0</ele><time>2026-05-02T11:55:28.997Z</time></trkpt><trkpt lat="42.085056229673214" lon="13.637355150627226"><ele>1058.2</ele><time>2026-05-02T11:55:29.997Z</time></trkpt><trkpt lat="42.08504183484806" lon="13.63721207860305"><ele>1059.4</ele><time>2026-05-02T11:55:30.997Z</time></trkpt><trkpt lat="42.08504357728247" lon="13.637065023930425"><ele>1060.6</ele><time>2026-05-02T11:55:31.997Z</time></trkpt><trkpt lat="42.08500979609112" lon="13.636932893565149"><ele>1061.8</ele><time>2026-05-02T11:55:32.997Z</time></trkpt><trkpt lat="42.084976511878104" lon="13.636806175658569"><ele>1063.0</ele><time>2026-05-02T11:55:33.997Z</time></trkpt><trkpt lat="42.0849094932846" lon="13.636672819948842"><ele>1065.0</ele><time>2026-05-02T11:55:34.997Z</time></trkpt><trkpt lat="42.08484279647586" lon="13.636542452141567"><ele>1067.0</ele><time>2026-05-02T11:55:35.997Z</time></trkpt><trkpt lat="42.08477367906038" lon="13.63641835398288"><ele>1069.0</ele><time>2026-05-02T11:55:36.997Z</time></trkpt><trkpt lat="42.08469115195113" lon="13.636282836472128"><ele>1071.0</ele><time>2026-05-02T11:55:38.001Z</time></trkpt><trkpt lat="42.08461194846989" lon="13.63615021511679"><ele>1072.75</ele><time>2026-05-02T11:55:39.001Z</time></trkpt><trkpt lat="42.084527107463835" lon="13.636033531305383"><ele>1074.5</ele><time>2026-05-02T11:55:40.001Z</time></trkpt><trkpt lat="42.084443764987675" lon="13.635919007799197"><ele>1076.25</ele><time>2026-05-02T11:55:41.001Z</time></trkpt><trkpt lat="42.08436824870646" lon="13.63579216523151"><ele>1078.0</ele><time>2026-05-02T11:55:42.001Z</time></trkpt><trkpt lat="42.08426353847543" lon="13.63570613193043"><ele>1078.0</ele><time>2026-05-02T11:55:43.001Z</time></trkpt><trkpt lat="42.084186983336004" lon="13.635590481084595"><ele>1078.0</ele><time>2026-05-02T11:55:44.001Z</time></trkpt><trkpt lat="42.08414457182086" lon="13.635469971642381"><ele>1078.0</ele><time>2026-05-02T11:55:45.001Z</time></trkpt><trkpt lat="42.084148923392924" lon="13.635374459996713"><ele>1078.0</ele><time>2026-05-02T11:55:46.001Z</time></trkpt><trkpt lat="42.0841379451887" lon="13.635266402085387"><ele>1078.0</ele><time>2026-05-02T11:55:47.001Z</time></trkpt><trkpt lat="42.084124482897806" lon="13.635141573913064"><ele>1079.2</ele><time>2026-05-02T11:55:48.001Z</time></trkpt><trkpt lat="42.084096191104194" lon="13.635016736880214"><ele>1080.4</ele><time>2026-05-02T11:55:49.001Z</time></trkpt><trkpt lat="42.084066322193905" lon="13.63490289544979"><ele>1081.6000000000001</ele><time>2026-05-02T11:55:50.001Z</time></trkpt><trkpt lat="42.084034475795846" lon="13.634781684923214"><ele>1082.8</ele><time>2026-05-02T11:55:51.001Z</time></trkpt><trkpt lat="42.084001359533346" lon="13.634655641110331"><ele>1084.0</ele><time>2026-05-02T11:55:52.001Z</time></trkpt><trkpt lat="42.083974324600106" lon="13.634538136136516"><ele>1084.3333333333333</ele><time>2026-05-02T11:55:53.001Z</time></trkpt><trkpt lat="42.08395487433765" lon="13.634432958133107"><ele>1084.6666666666665</ele><time>2026-05-02T11:55:54.001Z</time></trkpt><trkpt lat="42.083936840290995" lon="13.634338076059942"><ele>1085.0</ele><time>2026-05-02T11:55:55.001Z</time></trkpt><trkpt lat="42.083962258510326" lon="13.63425121112673"><ele>1085.3333333333333</ele><time>2026-05-02T11:55:56.001Z</time></trkpt><trkpt lat="42.084020444985" lon="13.634092921571735"><ele>1085.6666666666667</ele><time>2026-05-02T11:55:58.001Z</time></trkpt><trkpt lat="42.08407138045987" lon="13.634016789379634"><ele>1086.0</ele><time>2026-05-02T11:55:59.001Z</time></trkpt><trkpt lat="42.08412829704823" lon="13.63393552988058"><ele>1086.0</ele><time>2026-05-02T11:56:00.001Z</time></trkpt><trkpt lat="42.084208492457456" lon="13.633890792230593"><ele>1086.0</ele><time>2026-05-02T11:56:01.001Z</time></trkpt><trkpt lat="42.084295682568296" lon="13.633879374627556"><ele>1086.0</ele><time>2026-05-02T11:56:02Z</time></trkpt><trkpt lat="42.08436841713813" lon="13.633819821470901"><ele>1086.0</ele><time>2026-05-02T11:56:03Z</time></trkpt><trkpt lat="42.08444424913521" lon="13.63377054691721"><ele>1086.0</ele><time>2026-05-02T11:56:04Z</time></trkpt><trkpt lat="42.084515919382895" lon="13.633699856176015"><ele>1086.0</ele><time>2026-05-02T11:56:05Z</time></trkpt><trkpt lat="42.08457290209586" lon="13.633593263031546"><ele>1085.8</ele><time>2026-05-02T11:56:06Z</time></trkpt><trkpt lat="42.08463047577371" lon="13.633470301484762"><ele>1085.6</ele><time>2026-05-02T11:56:07Z</time></trkpt><trkpt lat="42.08469597028987" lon="13.633352020874838"><ele>1085.4</ele><time>2026-05-02T11:56:08Z</time></trkpt><trkpt lat="42.08476420036592" lon="13.633235495695134"><ele>1085.2</ele><time>2026-05-02T11:56:09Z</time></trkpt><trkpt lat="42.08483796111113" lon="13.63312034394258"><ele>1085.0</ele><time>2026-05-02T11:56:10Z</time></trkpt><trkpt lat="42.084923678063184" lon="13.633026845377909"><ele>1087.0</ele><time>2026-05-02T11:56:11Z</time></trkpt><trkpt lat="42.08500790790041" lon="13.632939850420845"><ele>1089.0</ele><time>2026-05-02T11:56:12Z</time></trkpt><trkpt lat="42.08508175965141" lon="13.632855646103735"><ele>1091.0</ele><time>2026-05-02T11:56:13Z</time></trkpt><trkpt lat="42.085136160181996" lon="13.632767297233096"><ele>1093.0</ele><time>2026-05-02T11:56:14Z</time></trkpt><trkpt lat="42.085184790715296" lon="13.63268070907411"><ele>1095.0</ele><time>2026-05-02T11:56:15Z</time></trkpt><trkpt lat="42.08521624141864" lon="13.632581763668457"><ele>1097.0</ele><time>2026-05-02T11:56:15.999Z</time></trkpt><trkpt lat="42.08524095546238" lon="13.632465065266683"><ele>1097.8</ele><time>2026-05-02T11:56:16.999Z</time></trkpt><trkpt lat="42.08522626576075" lon="13.632334981362703"><ele>1098.6</ele><time>2026-05-02T11:56:17.999Z</time></trkpt><trkpt lat="42.08521814138104" lon="13.63219511305235"><ele>1099.3999999999999</ele><time>2026-05-02T11:56:18.999Z</time></trkpt><trkpt lat="42.08520658459425" lon="13.632053274434067"><ele>1100.2</ele><time>2026-05-02T11:56:19.999Z</time></trkpt><trkpt lat="42.08520678035517" lon="13.631915147610865"><ele>1101.0</ele><time>2026-05-02T11:56:20.999Z</time></trkpt><trkpt lat="42.085225152598696" lon="13.631780133332592"><ele>1101.8</ele><time>2026-05-02T11:56:21.999Z</time></trkpt><trkpt lat="42.08525799006985" lon="13.631650731479713"><ele>1102.6</ele><time>2026-05-02T11:56:22.999Z</time></trkpt><trkpt lat="42.08531125266001" lon="13.631516666503202"><ele>1103.4</ele><time>2026-05-02T11:56:23.999Z</time></trkpt><trkpt lat="42.08538196477368" lon="13.631403420360071"><ele>1104.2</ele><time>2026-05-02T11:56:24.999Z</time></trkpt><trkpt lat="42.08544871764368" lon="13.631302214536593"><ele>1105.0</ele><time>2026-05-02T11:56:25.999Z</time></trkpt><trkpt lat="42.08548880420236" lon="13.631210550781786"><ele>1106.0</ele><time>2026-05-02T11:56:26.999Z</time></trkpt><trkpt lat="42.08552551563331" lon="13.631055222158036"><ele>1107.0</ele><time>2026-05-02T11:56:28.999Z</time></trkpt><trkpt lat="42.08552456869359" lon="13.630951169030805"><ele>1108.0</ele><time>2026-05-02T11:56:29.999Z</time></trkpt><trkpt lat="42.085514570836196" lon="13.630827237083743"><ele>1109.0</ele><time>2026-05-02T11:56:30.999Z</time></trkpt><trkpt lat="42.08549386043936" lon="13.630695664909881"><ele>1110.0</ele><time>2026-05-02T11:56:31.999Z</time></trkpt><trkpt lat="42.08548317745009" lon="13.630529471584705"><ele>1110.0</ele><time>2026-05-02T11:56:32.999Z</time></trkpt><trkpt lat="42.08548209093123" lon="13.630359235912243"><ele>1110.0</ele><time>2026-05-02T11:56:33.999Z</time></trkpt><trkpt lat="42.085480935226485" lon="13.630193318538302"><ele>1110.0</ele><time>2026-05-02T11:56:34.999Z</time></trkpt><trkpt lat="42.08547795301327" lon="13.63003526940285"><ele>1110.0</ele><time>2026-05-02T11:56:35.999Z</time></trkpt><trkpt lat="42.085476118181305" lon="13.629885394326383"><ele>1111.5</ele><time>2026-05-02T11:56:36.999Z</time></trkpt><trkpt lat="42.08548346825835" lon="13.629731825698821"><ele>1113.0</ele><time>2026-05-02T11:56:37.999Z</time></trkpt><trkpt lat="42.08551132493798" lon="13.629585070245355"><ele>1114.5</ele><time>2026-05-02T11:56:38.999Z</time></trkpt><trkpt lat="42.085545801808415" lon="13.629435819249743"><ele>1116.0</ele><time>2026-05-02T11:56:39.999Z</time></trkpt><trkpt lat="42.085582516335634" lon="13.629272657211464"><ele>1116.75</ele><time>2026-05-02T11:56:40.999Z</time></trkpt><trkpt lat="42.085619258141584" lon="13.629104478225692"><ele>1117.5</ele><time>2026-05-02T11:56:41.999Z</time></trkpt><trkpt lat="42.085653555244264" lon="13.62893149865839"><ele>1118.25</ele><time>2026-05-02T11:56:42.999Z</time></trkpt><trkpt lat="42.08568644484897" lon="13.62875677747423"><ele>1119.0</ele><time>2026-05-02T11:56:43.999Z</time></trkpt><trkpt lat="42.08571665522128" lon="13.628596289501719"><ele>1119.8</ele><time>2026-05-02T11:56:44.999Z</time></trkpt><trkpt lat="42.08574337397569" lon="13.628460283652373"><ele>1120.6000000000001</ele><time>2026-05-02T11:56:45.999Z</time></trkpt><trkpt lat="42.085781425609035" lon="13.628341423134923"><ele>1121.4</ele><time>2026-05-02T11:56:46.999Z</time></trkpt><trkpt lat="42.08583099416138" lon="13.628239558965463"><ele>1122.2</ele><time>2026-05-02T11:56:47.999Z</time></trkpt><trkpt lat="42.08589215504416" lon="13.628139676440096"><ele>1123.0</ele><time>2026-05-02T11:56:48.999Z</time></trkpt><trkpt lat="42.08596676759261" lon="13.62804545935526"><ele>1124.8</ele><time>2026-05-02T11:56:49.999Z</time></trkpt><trkpt lat="42.08602271620078" lon="13.627927788156528"><ele>1126.6</ele><time>2026-05-02T11:56:50.999Z</time></trkpt><trkpt lat="42.08605124890935" lon="13.62778881956065"><ele>1128.4</ele><time>2026-05-02T11:56:51.999Z</time></trkpt><trkpt lat="42.08608553255118" lon="13.627642532653223"><ele>1130.2</ele><time>2026-05-02T11:56:52.999Z</time></trkpt><trkpt lat="42.08612389650539" lon="13.627482988079462"><ele>1132.0</ele><time>2026-05-02T11:56:53.999Z</time></trkpt><trkpt lat="42.08617279371636" lon="13.627313009588681"><ele>1133.25</ele><time>2026-05-02T11:56:54.999Z</time></trkpt><trkpt lat="42.086232423586985" lon="13.62714850213822"><ele>1134.5</ele><time>2026-05-02T11:56:55.999Z</time></trkpt><trkpt lat="42.08629102538761" lon="13.626995021703063"><ele>1135.75</ele><time>2026-05-02T11:56:56.999Z</time></trkpt><trkpt lat="42.08636314757627" lon="13.626835505190485"><ele>1137.0</ele><time>2026-05-02T11:56:57.999Z</time></trkpt><trkpt lat="42.086432084890774" lon="13.626706262190172"><ele>1137.75</ele><time>2026-05-02T11:56:58.999Z</time></trkpt><trkpt lat="42.08648312016438" lon="13.626580897774415"><ele>1138.5</ele><time>2026-05-02T11:56:59.999Z</time></trkpt><trkpt lat="42.08657682356407" lon="13.626521419542318"><ele>1139.25</ele><time>2026-05-02T11:57:00.999Z</time></trkpt><trkpt lat="42.08650598461007" lon="13.626271878638004"><ele>1140.0</ele><time>2026-05-02T11:57:01.999Z</time></trkpt><trkpt lat="42.08651102928131" lon="13.626111986095703"><ele>1141.25</ele><time>2026-05-02T11:57:02.999Z</time></trkpt><trkpt lat="42.0865064163053" lon="13.625949558193174"><ele>1142.5</ele><time>2026-05-02T11:57:03.999Z</time></trkpt><trkpt lat="42.08648183819165" lon="13.625776960111324"><ele>1143.75</ele><time>2026-05-02T11:57:04.999Z</time></trkpt><trkpt lat="42.08644920250666" lon="13.62559557089168"><ele>1145.0</ele><time>2026-05-02T11:57:05.999Z</time></trkpt><trkpt lat="42.08641623711616" lon="13.625399922054076"><ele>1148.3333333333335</ele><time>2026-05-02T11:57:06.999Z</time></trkpt><trkpt lat="42.0863777015544" lon="13.625198265730617"><ele>1151.6666666666667</ele><time>2026-05-02T11:57:07.999Z</time></trkpt><trkpt lat="42.08633723433968" lon="13.624997120584078"><ele>1155.0</ele><time>2026-05-02T11:57:08.999Z</time></trkpt><trkpt lat="42.08630066592155" lon="13.624804559397324"><ele>1155.0</ele><time>2026-05-02T11:57:09.999Z</time></trkpt><trkpt lat="42.08626691802577" lon="13.624631499095779"><ele>1155.0</ele><time>2026-05-02T11:57:10.999Z</time></trkpt><trkpt lat="42.086247148244205" lon="13.624466215227141"><ele>1155.0</ele><time>2026-05-02T11:57:11.999Z</time></trkpt><trkpt lat="42.086237197751856" lon="13.624297555691005"><ele>1155.0</ele><time>2026-05-02T11:57:12.999Z</time></trkpt><trkpt lat="42.08622706173197" lon="13.624125612407711"><ele>1156.0</ele><time>2026-05-02T11:57:13.999Z</time></trkpt><trkpt lat="42.08621573360494" lon="13.62395055765069"><ele>1157.0</ele><time>2026-05-02T11:57:14.999Z</time></trkpt><trkpt lat="42.086193189283975" lon="13.623791203533997"><ele>1158.0</ele><time>2026-05-02T11:57:15.999Z</time></trkpt><trkpt lat="42.086174810981056" lon="13.623646240712738"><ele>1159.0</ele><time>2026-05-02T11:57:16.999Z</time></trkpt><trkpt lat="42.08614124738414" lon="13.623515209340399"><ele>1161.0</ele><time>2026-05-02T11:57:17.999Z</time></trkpt><trkpt lat="42.08609063266058" lon="13.623388604763438"><ele>1163.0</ele><time>2026-05-02T11:57:18.999Z</time></trkpt><trkpt lat="42.086037425714316" lon="13.62326278180113"><ele>1165.0</ele><time>2026-05-02T11:57:19.999Z</time></trkpt><trkpt lat="42.08597688904514" lon="13.623164276271668"><ele>1167.0</ele><time>2026-05-02T11:57:20.999Z</time></trkpt><trkpt lat="42.08592606279328" lon="13.623088497253054"><ele>1169.0</ele><time>2026-05-02T11:57:21.999Z</time></trkpt><trkpt lat="42.085816306632324" lon="13.623020826706888"><ele>1169.4285714285713</ele><time>2026-05-02T11:57:23.999Z</time></trkpt><trkpt lat="42.085751831448675" lon="13.623011234855085"><ele>1169.857142857143</ele><time>2026-05-02T11:57:24.999Z</time></trkpt><trkpt lat="42.085684982735756" lon="13.623026359211794"><ele>1170.2857142857142</ele><time>2026-05-02T11:57:25.999Z</time></trkpt><trkpt lat="42.08562242768534" lon="13.6230618118235"><ele>1170.7142857142858</ele><time>2026-05-02T11:57:26.999Z</time></trkpt><trkpt lat="42.085561658762565" lon="13.623105067804845"><ele>1171.142857142857</ele><time>2026-05-02T11:57:27.999Z</time></trkpt><trkpt lat="42.08550359303285" lon="13.623157456405004"><ele>1171.5714285714284</ele><time>2026-05-02T11:57:28.999Z</time></trkpt><trkpt lat="42.08544851334164" lon="13.623206544369001"><ele>1172.0</ele><time>2026-05-02T11:57:29.999Z</time></trkpt><trkpt lat="42.085352558464365" lon="13.623295689486149"><ele>1172.0</ele><time>2026-05-02T11:57:31.999Z</time></trkpt><trkpt lat="42.08525855063416" lon="13.623381014759495"><ele>1172.0</ele><time>2026-05-02T11:57:33.999Z</time></trkpt><trkpt lat="42.08515326019307" lon="13.623469992647056"><ele>1172.0</ele><time>2026-05-02T11:57:35.999Z</time></trkpt><trkpt lat="42.08507823475904" lon="13.62351934335659"><ele>1172.0</ele><time>2026-05-02T11:57:36.999Z</time></trkpt><trkpt lat="42.08498035623862" lon="13.623584087856624"><ele>1172.0</ele><time>2026-05-02T11:57:37.999Z</time></trkpt><trkpt lat="42.08486756047359" lon="13.623640808543078"><ele>1171.4</ele><time>2026-05-02T11:57:38.999Z</time></trkpt><trkpt lat="42.084754997981676" lon="13.623713709777817"><ele>1170.8000000000002</ele><time>2026-05-02T11:57:39.999Z</time></trkpt><trkpt lat="42.0846491325895" lon="13.623772089003415"><ele>1170.2</ele><time>2026-05-02T11:57:40.999Z</time></trkpt><trkpt lat="42.08455768046873" lon="13.623818505272412"><ele>1169.6000000000001</ele><time>2026-05-02T11:57:41.999Z</time></trkpt><trkpt lat="42.08447751587158" lon="13.623882340431802"><ele>1169.0</ele><time>2026-05-02T11:57:42.999Z</time></trkpt><trkpt lat="42.08440743192585" lon="13.623937184129309"><ele>1169.0</ele><time>2026-05-02T11:57:43.999Z</time></trkpt><trkpt lat="42.084347468946305" lon="13.623996828145511"><ele>1169.0</ele><time>2026-05-02T11:57:44.999Z</time></trkpt><trkpt lat="42.084303877694055" lon="13.624074700881168"><ele>1169.0</ele><time>2026-05-02T11:57:45.999Z</time></trkpt><trkpt lat="42.084254369458655" lon="13.624155975574189"><ele>1169.0</ele><time>2026-05-02T11:57:46.999Z</time></trkpt><trkpt lat="42.08421809941512" lon="13.624255649275497"><ele>1169.0</ele><time>2026-05-02T11:57:47.999Z</time></trkpt><trkpt lat="42.084190242202055" lon="13.62437132751485"><ele>1169.0</ele><time>2026-05-02T11:57:48.999Z</time></trkpt><trkpt lat="42.08416438755135" lon="13.624497909760088"><ele>1168.0</ele><time>2026-05-02T11:57:49.999Z</time></trkpt><trkpt lat="42.084144228693276" lon="13.6246296505913"><ele>1167.0</ele><time>2026-05-02T11:57:50.999Z</time></trkpt><trkpt lat="42.08412206533552" lon="13.624761294209849"><ele>1166.0</ele><time>2026-05-02T11:57:51.999Z</time></trkpt><trkpt lat="42.08409865087648" lon="13.624895057055225"><ele>1165.0</ele><time>2026-05-02T11:57:52.999Z</time></trkpt><trkpt lat="42.08407656432879" lon="13.625028941727678"><ele>1164.0</ele><time>2026-05-02T11:57:53.999Z</time></trkpt><trkpt lat="42.084057400177244" lon="13.625161665333245"><ele>1164.0</ele><time>2026-05-02T11:57:54.999Z</time></trkpt><trkpt lat="42.08403972538862" lon="13.625293418630525"><ele>1164.0</ele><time>2026-05-02T11:57:55.999Z</time></trkpt><trkpt lat="42.08402459737103" lon="13.62542110076205"><ele>1164.0</ele><time>2026-05-02T11:57:56.999Z</time></trkpt><trkpt lat="42.084005557710306" lon="13.625544644818286"><ele>1164.0</ele><time>2026-05-02T11:57:57.999Z</time></trkpt><trkpt lat="42.08398726705809" lon="13.625672934476153"><ele>1164.0</ele><time>2026-05-02T11:57:58.999Z</time></trkpt><trkpt lat="42.083968477078834" lon="13.625806747180208"><ele>1162.2</ele><time>2026-05-02T11:57:59.999Z</time></trkpt><trkpt lat="42.08394670179813" lon="13.625939230716344"><ele>1160.4</ele><time>2026-05-02T11:58:00.999Z</time></trkpt><trkpt lat="42.08392617077512" lon="13.626068645982318"><ele>1158.6</ele><time>2026-05-02T11:58:01.999Z</time></trkpt><trkpt lat="42.08390535866278" lon="13.626196029944357"><ele>1156.8</ele><time>2026-05-02T11:58:02.999Z</time></trkpt><trkpt lat="42.08388704898171" lon="13.626320905554845"><ele>1155.0</ele><time>2026-05-02T11:58:03.999Z</time></trkpt><trkpt lat="42.083862022151095" lon="13.626435891524826"><ele>1153.4285714285713</ele><time>2026-05-02T11:58:04.999Z</time></trkpt><trkpt lat="42.08383990726048" lon="13.626549158262556"><ele>1151.857142857143</ele><time>2026-05-02T11:58:05.999Z</time></trkpt><trkpt lat="42.083825570253914" lon="13.626653203281204"><ele>1150.2857142857142</ele><time>2026-05-02T11:58:06.999Z</time></trkpt><trkpt lat="42.083810891724795" lon="13.626743559665433"><ele>1148.7142857142858</ele><time>2026-05-02T11:58:07.999Z</time></trkpt><trkpt lat="42.08379964991862" lon="13.626829443571605"><ele>1147.142857142857</ele><time>2026-05-02T11:58:08.998Z</time></trkpt><trkpt lat="42.083776335924675" lon="13.626909261629102"><ele>1145.5714285714284</ele><time>2026-05-02T11:58:09.998Z</time></trkpt><trkpt lat="42.08372333832847" lon="13.626965630427485"><ele>1144.0</ele><time>2026-05-02T11:58:10.998Z</time></trkpt><trkpt lat="42.083662462963126" lon="13.627032004303352"><ele>1142.4</ele><time>2026-05-02T11:58:11.998Z</time></trkpt><trkpt lat="42.08357077654913" lon="13.627090107909385"><ele>1140.8000000000002</ele><time>2026-05-02T11:58:12.998Z</time></trkpt><trkpt lat="42.08348411483253" lon="13.627147931457039"><ele>1139.1999999999998</ele><time>2026-05-02T11:58:13.998Z</time></trkpt><trkpt lat="42.08339750085068" lon="13.627198100712"><ele>1137.6</ele><time>2026-05-02T11:58:14.998Z</time></trkpt><trkpt lat="42.083301837388696" lon="13.627239756154268"><ele>1136.0</ele><time>2026-05-02T11:58:15.998Z</time></trkpt><trkpt lat="42.0832070746815" lon="13.62724856615436"><ele>1135.75</ele><time>2026-05-02T11:58:16.998Z</time></trkpt><trkpt lat="42.08309691721759" lon="13.627261941872636"><ele>1135.5</ele><time>2026-05-02T11:58:17.998Z</time></trkpt><trkpt lat="42.08298207293692" lon="13.627246069963679"><ele>1135.25</ele><time>2026-05-02T11:58:18.998Z</time></trkpt><trkpt lat="42.08286876088765" lon="13.627223198068497"><ele>1135.0</ele><time>2026-05-02T11:58:19.998Z</time></trkpt><trkpt lat="42.08276035450643" lon="13.62719875291601"><ele>1135.0</ele><time>2026-05-02T11:58:20.998Z</time></trkpt><trkpt lat="42.08266036094937" lon="13.627149073076241"><ele>1135.0</ele><time>2026-05-02T11:58:21.998Z</time></trkpt><trkpt lat="42.08256545410732" lon="13.627087482927017"><ele>1135.0</ele><time>2026-05-02T11:58:22.998Z</time></trkpt><trkpt lat="42.082482574065835" lon="13.62700455174264"><ele>1135.0</ele><time>2026-05-02T11:58:23.998Z</time></trkpt><trkpt lat="42.08240911451482" lon="13.626895795393425"><ele>1135.0</ele><time>2026-05-02T11:58:24.998Z</time></trkpt><trkpt lat="42.08234090384653" lon="13.626773427755145"><ele>1135.4</ele><time>2026-05-02T11:58:25.998Z</time></trkpt><trkpt lat="42.0822811148417" lon="13.626642695415814"><ele>1135.8</ele><time>2026-05-02T11:58:26.998Z</time></trkpt><trkpt lat="42.08222516409141" lon="13.626515333384013"><ele>1136.2</ele><time>2026-05-02T11:58:27.998Z</time></trkpt><trkpt lat="42.08218800215166" lon="13.626397803939687"><ele>1136.6</ele><time>2026-05-02T11:58:28.998Z</time></trkpt><trkpt lat="42.08216114202247" lon="13.62630573864274"><ele>1137.0</ele><time>2026-05-02T11:58:29.998Z</time></trkpt><trkpt lat="42.082138332921964" lon="13.626219993675546"><ele>1137.0</ele><time>2026-05-02T11:58:31.998Z</time></trkpt><trkpt lat="42.082085680364955" lon="13.626161246310119"><ele>1137.0</ele><time>2026-05-02T11:58:58.998Z</time></trkpt><trkpt lat="42.08213878697172" lon="13.626248612228984"><ele>1137.0</ele><time>2026-05-02T11:59:13.998Z</time></trkpt><trkpt lat="42.0821741736055" lon="13.62641400600057"><ele>1137.0</ele><time>2026-05-02T11:59:15.998Z</time></trkpt><trkpt lat="42.082211185810856" lon="13.626493344971065"><ele>1137.0</ele><time>2026-05-02T11:59:16.998Z</time></trkpt><trkpt lat="42.082245883843534" lon="13.6265809448741"><ele>1137.0</ele><time>2026-05-02T11:59:17.998Z</time></trkpt><trkpt lat="42.082280424630014" lon="13.626674826850122"><ele>1137.0</ele><time>2026-05-02T11:59:18.998Z</time></trkpt><trkpt lat="42.08232312968292" lon="13.626769455926697"><ele>1137.0</ele><time>2026-05-02T11:59:19.998Z</time></trkpt><trkpt lat="42.08239230668222" lon="13.626835043376017"><ele>1137.0</ele><time>2026-05-02T11:59:20.998Z</time></trkpt><trkpt lat="42.08245688375387" lon="13.626897964442412"><ele>1137.0</ele><time>2026-05-02T11:59:21.998Z</time></trkpt><trkpt lat="42.082530904470396" lon="13.626955270640847"><ele>1137.0</ele><time>2026-05-02T11:59:22.998Z</time></trkpt><trkpt lat="42.08261518268292" lon="13.627005632925393"><ele>1137.0</ele><time>2026-05-02T11:59:23.998Z</time></trkpt><trkpt lat="42.08270551483782" lon="13.62705045357045"><ele>1136.6</ele><time>2026-05-02T11:59:24.998Z</time></trkpt><trkpt lat="42.08280356595061" lon="13.627103049031122"><ele>1136.2</ele><time>2026-05-02T11:59:25.998Z</time></trkpt><trkpt lat="42.082906014727584" lon="13.627134227288957"><ele>1135.8</ele><time>2026-05-02T11:59:26.998Z</time></trkpt><trkpt lat="42.083002374101156" lon="13.627162667329749"><ele>1135.4</ele><time>2026-05-02T11:59:27.998Z</time></trkpt><trkpt lat="42.08309441456101" lon="13.62717396855379"><ele>1135.0</ele><time>2026-05-02T11:59:28.998Z</time></trkpt><trkpt lat="42.083188179878555" lon="13.627173857056247"><ele>1135.1666666666665</ele><time>2026-05-02T11:59:29.998Z</time></trkpt><trkpt lat="42.08328052172435" lon="13.62715312004694"><ele>1135.3333333333333</ele><time>2026-05-02T11:59:30.998Z</time></trkpt><trkpt lat="42.08337685055728" lon="13.627149425344415"><ele>1135.5</ele><time>2026-05-02T11:59:31.998Z</time></trkpt><trkpt lat="42.0834591721715" lon="13.627128277810455"><ele>1135.6666666666667</ele><time>2026-05-02T11:59:32.998Z</time></trkpt><trkpt lat="42.08352127864756" lon="13.627112256179919"><ele>1135.8333333333335</ele><time>2026-05-02T11:59:33.998Z</time></trkpt><trkpt lat="42.083598899952875" lon="13.62710726060917"><ele>1136.0</ele><time>2026-05-02T11:59:35.998Z</time></trkpt><trkpt lat="42.083631227466384" lon="13.627223685214366"><ele>1136.0</ele><time>2026-05-02T11:59:38.998Z</time></trkpt><trkpt lat="42.08357347815531" lon="13.627389246927438"><ele>1136.0</ele><time>2026-05-02T11:59:40.998Z</time></trkpt><trkpt lat="42.083524555471975" lon="13.627469058145516"><ele>1136.0</ele><time>2026-05-02T11:59:41.998Z</time></trkpt><trkpt lat="42.08346833410521" lon="13.6275472219642"><ele>1136.0</ele><time>2026-05-02T11:59:42.998Z</time></trkpt><trkpt lat="42.08339806278842" lon="13.627612861006568"><ele>1136.0</ele><time>2026-05-02T11:59:43.998Z</time></trkpt><trkpt lat="42.083312388642526" lon="13.627667961739666"><ele>1135.8</ele><time>2026-05-02T11:59:44.998Z</time></trkpt><trkpt lat="42.083221034615434" lon="13.6277427460755"><ele>1135.6</ele><time>2026-05-02T11:59:45.998Z</time></trkpt><trkpt lat="42.083122701635475" lon="13.627814112882238"><ele>1135.4</ele><time>2026-05-02T11:59:46.998Z</time></trkpt><trkpt lat="42.083024292671965" lon="13.627882374627658"><ele>1135.2</ele><time>2026-05-02T11:59:47.998Z</time></trkpt><trkpt lat="42.08293038165637" lon="13.62795280269828"><ele>1135.0</ele><time>2026-05-02T11:59:48.998Z</time></trkpt><trkpt lat="42.08283952945474" lon="13.628015202187255"><ele>1133.0</ele><time>2026-05-02T11:59:49.998Z</time></trkpt><trkpt lat="42.08274943588793" lon="13.628075296218062"><ele>1131.0</ele><time>2026-05-02T11:59:50.998Z</time></trkpt><trkpt lat="42.08266104367384" lon="13.628137601872094"><ele>1129.0</ele><time>2026-05-02T11:59:51.998Z</time></trkpt><trkpt lat="42.082576377541955" lon="13.628196253520416"><ele>1127.0</ele><time>2026-05-02T11:59:52.998Z</time></trkpt><trkpt lat="42.08249449521746" lon="13.628257707472937"><ele>1125.0</ele><time>2026-05-02T11:59:53.998Z</time></trkpt><trkpt lat="42.08241466407973" lon="13.628321698690117"><ele>1123.8333333333333</ele><time>2026-05-02T11:59:54.998Z</time></trkpt><trkpt lat="42.082334499072246" lon="13.628378168911967"><ele>1122.6666666666667</ele><time>2026-05-02T11:59:55.998Z</time></trkpt><trkpt lat="42.082255434714206" lon="13.628430435592204"><ele>1121.5</ele><time>2026-05-02T11:59:56.998Z</time></trkpt><trkpt lat="42.082178451385374" lon="13.628477086692032"><ele>1120.3333333333335</ele><time>2026-05-02T11:59:57.998Z</time></trkpt><trkpt lat="42.082106707893814" lon="13.628520057327057"><ele>1119.1666666666667</ele><time>2026-05-02T11:59:58.998Z</time></trkpt><trkpt lat="42.08203982158645" lon="13.62855954670107"><ele>1118.0</ele><time>2026-05-02T11:59:59.998Z</time></trkpt><trkpt lat="42.08197055062742" lon="13.628598392952483"><ele>1118.0</ele><time>2026-05-02T12:00:00.998Z</time></trkpt><trkpt lat="42.08189936492138" lon="13.6286170344881"><ele>1118.0</ele><time>2026-05-02T12:00:01.998Z</time></trkpt><trkpt lat="42.081828981437624" lon="13.628619856329307"><ele>1118.0</ele><time>2026-05-02T12:00:02.998Z</time></trkpt><trkpt lat="42.081759400059504" lon="13.628609427630582"><ele>1118.0</ele><time>2026-05-02T12:00:03.998Z</time></trkpt><trkpt lat="42.081688065174205" lon="13.628597242037326"><ele>1118.0</ele><time>2026-05-02T12:00:04.998Z</time></trkpt><trkpt lat="42.0816158498676" lon="13.628575856183438"><ele>1118.0</ele><time>2026-05-02T12:00:05.998Z</time></trkpt><trkpt lat="42.08153560920584" lon="13.628549332751088"><ele>1118.0</ele><time>2026-05-02T12:00:06.998Z</time></trkpt><trkpt lat="42.08145598327265" lon="13.62851023749286"><ele>1115.7142857142858</ele><time>2026-05-02T12:00:07.998Z</time></trkpt><trkpt lat="42.08138076398155" lon="13.628463022890848"><ele>1113.4285714285716</ele><time>2026-05-02T12:00:08.998Z</time></trkpt><trkpt lat="42.08130887371164" lon="13.628425146802405"><ele>1111.142857142857</ele><time>2026-05-02T12:00:09.998Z</time></trkpt><trkpt lat="42.08124212180357" lon="13.628387106981318"><ele>1108.857142857143</ele><time>2026-05-02T12:00:10.998Z</time></trkpt><trkpt lat="42.08117967591007" lon="13.62834609483686"><ele>1106.5714285714284</ele><time>2026-05-02T12:00:11.998Z</time></trkpt><trkpt lat="42.081119615408355" lon="13.62830297338744"><ele>1104.2857142857142</ele><time>2026-05-02T12:00:12.998Z</time></trkpt><trkpt lat="42.081061893524094" lon="13.628249897705139"><ele>1102.0</ele><time>2026-05-02T12:00:13.998Z</time></trkpt><trkpt lat="42.08099996206641" lon="13.628189591039089"><ele>1102.0</ele><time>2026-05-02T12:00:14.998Z</time></trkpt><trkpt lat="42.08094070702037" lon="13.62810008665982"><ele>1102.0</ele><time>2026-05-02T12:00:15.998Z</time></trkpt><trkpt lat="42.08087399855797" lon="13.627999727064582"><ele>1102.0</ele><time>2026-05-02T12:00:16.998Z</time></trkpt><trkpt lat="42.08079818810467" lon="13.627894682909199"><ele>1102.0</ele><time>2026-05-02T12:00:17.997Z</time></trkpt><trkpt lat="42.08072241391671" lon="13.627785411928354"><ele>1102.0</ele><time>2026-05-02T12:00:18.997Z</time></trkpt><trkpt lat="42.08065031831188" lon="13.627673738261034"><ele>1100.3333333333333</ele><time>2026-05-02T12:00:19.997Z</time></trkpt><trkpt lat="42.080585929250375" lon="13.627557768937576"><ele>1098.6666666666665</ele><time>2026-05-02T12:00:20.997Z</time></trkpt><trkpt lat="42.08052980337713" lon="13.627465910580192"><ele>1097.0</ele><time>2026-05-02T12:00:21.997Z</time></trkpt><trkpt lat="42.080487359848966" lon="13.627384352499416"><ele>1095.3333333333333</ele><time>2026-05-02T12:00:22.997Z</time></trkpt><trkpt lat="42.08044743049594" lon="13.627314389650484"><ele>1093.6666666666667</ele><time>2026-05-02T12:00:23.997Z</time></trkpt><trkpt lat="42.08039220335198" lon="13.627204780686494"><ele>1092.0</ele><time>2026-05-02T12:00:25.997Z</time></trkpt><trkpt lat="42.08034905131076" lon="13.627142239749528"><ele>1092.0</ele><time>2026-05-02T12:00:29.997Z</time></trkpt><trkpt lat="42.08027426951273" lon="13.627100361243365"><ele>1092.0</ele><time>2026-05-02T12:01:49.997Z</time></trkpt><trkpt lat="42.080292156311046" lon="13.627011347536742"><ele>1092.0</ele><time>2026-05-02T12:01:51.997Z</time></trkpt><trkpt lat="42.080298943767076" lon="13.626836219886298"><ele>1092.0</ele><time>2026-05-02T12:01:53.997Z</time></trkpt><trkpt lat="42.080302938212505" lon="13.626744405722825"><ele>1092.0</ele><time>2026-05-02T12:01:54.997Z</time></trkpt><trkpt lat="42.080297910131215" lon="13.626652425222439"><ele>1092.0</ele><time>2026-05-02T12:01:55.997Z</time></trkpt><trkpt lat="42.080297490064304" lon="13.62655086031621"><ele>1092.4</ele><time>2026-05-02T12:01:56.997Z</time></trkpt><trkpt lat="42.08031655173452" lon="13.62643493953832"><ele>1092.8000000000002</ele><time>2026-05-02T12:01:57.997Z</time></trkpt><trkpt lat="42.08034322899607" lon="13.626311944402257"><ele>1093.2</ele><time>2026-05-02T12:01:58.997Z</time></trkpt><trkpt lat="42.08036104890623" lon="13.626192306479979"><ele>1093.6000000000001</ele><time>2026-05-02T12:01:59.997Z</time></trkpt><trkpt lat="42.08037279832176" lon="13.626072629199157"><ele>1094.0</ele><time>2026-05-02T12:02:00.997Z</time></trkpt><trkpt lat="42.08036361270382" lon="13.625953022911174"><ele>1094.4</ele><time>2026-05-02T12:02:01.997Z</time></trkpt><trkpt lat="42.08036671210407" lon="13.62582310952408"><ele>1094.8000000000002</ele><time>2026-05-02T12:02:02.997Z</time></trkpt><trkpt lat="42.080363242497654" lon="13.625689609014337"><ele>1095.1999999999998</ele><time>2026-05-02T12:02:03.997Z</time></trkpt><trkpt lat="42.08035768022723" lon="13.625552484762954"><ele>1095.6</ele><time>2026-05-02T12:02:04.997Z</time></trkpt><trkpt lat="42.08034876559052" lon="13.625413403159929"><ele>1096.0</ele><time>2026-05-02T12:02:05.997Z</time></trkpt><trkpt lat="42.08034599077324" lon="13.625269106293315"><ele>1096.6</ele><time>2026-05-02T12:02:06.997Z</time></trkpt><trkpt lat="42.08034503937892" lon="13.62512500828944"><ele>1097.1999999999998</ele><time>2026-05-02T12:02:07.997Z</time></trkpt><trkpt lat="42.08034387707747" lon="13.624982875112392"><ele>1097.8000000000002</ele><time>2026-05-02T12:02:08.997Z</time></trkpt><trkpt lat="42.080346472447054" lon="13.624849014544536"><ele>1098.4</ele><time>2026-05-02T12:02:09.997Z</time></trkpt><trkpt lat="42.080348756683556" lon="13.624722685692314"><ele>1099.0</ele><time>2026-05-02T12:02:10.997Z</time></trkpt><trkpt lat="42.08036123049245" lon="13.624593977009958"><ele>1099.0</ele><time>2026-05-02T12:02:11.997Z</time></trkpt><trkpt lat="42.08038649164896" lon="13.624466663648153"><ele>1099.0</ele><time>2026-05-02T12:02:12.997Z</time></trkpt><trkpt lat="42.08041818262839" lon="13.624338242207612"><ele>1099.0</ele><time>2026-05-02T12:02:13.997Z</time></trkpt><trkpt lat="42.08044878065385" lon="13.624217006936657"><ele>1099.0</ele><time>2026-05-02T12:02:14.997Z</time></trkpt><trkpt lat="42.0804603428752" lon="13.624094147763287"><ele>1099.0</ele><time>2026-05-02T12:02:15.997Z</time></trkpt><trkpt lat="42.080453989251474" lon="13.62395756613688"><ele>1099.0</ele><time>2026-05-02T12:02:16.997Z</time></trkpt><trkpt lat="42.080442403001555" lon="13.623805810280484"><ele>1099.0</ele><time>2026-05-02T12:02:17.997Z</time></trkpt><trkpt lat="42.080419054569354" lon="13.62365299506833"><ele>1099.0</ele><time>2026-05-02T12:02:18.997Z</time></trkpt><trkpt lat="42.080405434249364" lon="13.623507025051653"><ele>1099.0</ele><time>2026-05-02T12:02:19.997Z</time></trkpt><trkpt lat="42.08040250192479" lon="13.623370739758046"><ele>1099.0</ele><time>2026-05-02T12:02:20.997Z</time></trkpt><trkpt lat="42.08040661972744" lon="13.623230236464654"><ele>1099.4</ele><time>2026-05-02T12:02:21.997Z</time></trkpt><trkpt lat="42.08041559097601" lon="13.623089878405532"><ele>1099.8000000000002</ele><time>2026-05-02T12:02:22.997Z</time></trkpt><trkpt lat="42.08042942558739" lon="13.622959765837454"><ele>1100.1999999999998</ele><time>2026-05-02T12:02:23.997Z</time></trkpt><trkpt lat="42.080441714187856" lon="13.622830466983466"><ele>1100.6</ele><time>2026-05-02T12:02:24.997Z</time></trkpt><trkpt lat="42.08045589315159" lon="13.622701133459874"><ele>1101.0</ele><time>2026-05-02T12:02:25.997Z</time></trkpt><trkpt lat="42.080468408788015" lon="13.622579598653193"><ele>1101.0</ele><time>2026-05-02T12:02:26.996Z</time></trkpt><trkpt lat="42.08048372060912" lon="13.622470025836945"><ele>1101.0</ele><time>2026-05-02T12:02:27.996Z</time></trkpt><trkpt lat="42.08051078253919" lon="13.622366989671734"><ele>1101.0</ele><time>2026-05-02T12:02:28.996Z</time></trkpt><trkpt lat="42.08054627840936" lon="13.622253448293304"><ele>1101.0</ele><time>2026-05-02T12:02:29.996Z</time></trkpt><trkpt lat="42.080595778922685" lon="13.622144935378703"><ele>1101.0</ele><time>2026-05-02T12:02:30.996Z</time></trkpt><trkpt lat="42.080650981101286" lon="13.622038609840555"><ele>1101.0</ele><time>2026-05-02T12:02:31.996Z</time></trkpt><trkpt lat="42.08070333626845" lon="13.62193229478628"><ele>1100.1666666666667</ele><time>2026-05-02T12:02:32.996Z</time></trkpt><trkpt lat="42.08076441670687" lon="13.621844863558092"><ele>1099.3333333333333</ele><time>2026-05-02T12:02:33.996Z</time></trkpt><trkpt lat="42.08082728683707" lon="13.621766787388232"><ele>1098.5</ele><time>2026-05-02T12:02:34.996Z</time></trkpt><trkpt lat="42.08087575226568" lon="13.621700544806297"><ele>1097.6666666666665</ele><time>2026-05-02T12:02:35.996Z</time></trkpt><trkpt lat="42.080913315719116" lon="13.621630001665677"><ele>1096.8333333333333</ele><time>2026-05-02T12:02:36.996Z</time></trkpt><trkpt lat="42.080946774144145" lon="13.621534588872036"><ele>1096.0</ele><time>2026-05-02T12:02:37.996Z</time></trkpt><trkpt lat="42.08097371649535" lon="13.621425269962074"><ele>1098.6</ele><time>2026-05-02T12:02:38.996Z</time></trkpt><trkpt lat="42.0810127219228" lon="13.62131898516585"><ele>1101.1999999999998</ele><time>2026-05-02T12:02:39.996Z</time></trkpt><trkpt lat="42.081064299233155" lon="13.62120351426338"><ele>1103.8000000000002</ele><time>2026-05-02T12:02:40.996Z</time></trkpt><trkpt lat="42.08111454446546" lon="13.621076233248615"><ele>1106.4</ele><time>2026-05-02T12:02:41.996Z</time></trkpt><trkpt lat="42.08115546335857" lon="13.620944735822054"><ele>1109.0</ele><time>2026-05-02T12:02:42.999Z</time></trkpt><trkpt lat="42.081202562064284" lon="13.620818734580096"><ele>1109.0</ele><time>2026-05-02T12:02:43.999Z</time></trkpt><trkpt lat="42.081240054032776" lon="13.620691216828341"><ele>1109.0</ele><time>2026-05-02T12:02:44.999Z</time></trkpt><trkpt lat="42.081269374517525" lon="13.620559775981338"><ele>1109.0</ele><time>2026-05-02T12:02:45.999Z</time></trkpt><trkpt lat="42.08129756345471" lon="13.620424037035473"><ele>1109.0</ele><time>2026-05-02T12:02:46.999Z</time></trkpt><trkpt lat="42.08133065783555" lon="13.620290841216155"><ele>1109.0</ele><time>2026-05-02T12:02:47.999Z</time></trkpt><trkpt lat="42.081366516228584" lon="13.620168583056941"><ele>1107.6000000000001</ele><time>2026-05-02T12:02:48.999Z</time></trkpt><trkpt lat="42.08140295386504" lon="13.620051271261003"><ele>1106.2</ele><time>2026-05-02T12:02:49.999Z</time></trkpt><trkpt lat="42.08143690447816" lon="13.619934716012859"><ele>1104.8000000000002</ele><time>2026-05-02T12:02:50.999Z</time></trkpt><trkpt lat="42.08146550182179" lon="13.619818392624236"><ele>1103.4</ele><time>2026-05-02T12:02:51.999Z</time></trkpt><trkpt lat="42.081493790204654" lon="13.619707399401959"><ele>1102.0</ele><time>2026-05-02T12:02:52.999Z</time></trkpt><trkpt lat="42.08152167165631" lon="13.61959872152828"><ele>1102.0</ele><time>2026-05-02T12:02:53.999Z</time></trkpt><trkpt lat="42.0815490191079" lon="13.619488515787998"><ele>1102.0</ele><time>2026-05-02T12:02:54.999Z</time></trkpt><trkpt lat="42.081577637546204" lon="13.619378947041278"><ele>1102.0</ele><time>2026-05-02T12:02:55.999Z</time></trkpt><trkpt lat="42.08160647437651" lon="13.619270331758484"><ele>1102.0</ele><time>2026-05-02T12:02:56.999Z</time></trkpt><trkpt lat="42.08163784819331" lon="13.619162260651605"><ele>1102.0</ele><time>2026-05-02T12:02:57.999Z</time></trkpt><trkpt lat="42.081668205911775" lon="13.619049429024596"><ele>1102.0</ele><time>2026-05-02T12:02:58.999Z</time></trkpt><trkpt lat="42.08170295290392" lon="13.618930319241317"><ele>1101.2</ele><time>2026-05-02T12:02:59.999Z</time></trkpt><trkpt lat="42.081745999242166" lon="13.618813346790219"><ele>1100.4</ele><time>2026-05-02T12:03:00.999Z</time></trkpt><trkpt lat="42.08178687456836" lon="13.61869913278198"><ele>1099.6</ele><time>2026-05-02T12:03:01.999Z</time></trkpt><trkpt lat="42.081824629427786" lon="13.618583486882406"><ele>1098.8</ele><time>2026-05-02T12:03:02.999Z</time></trkpt><trkpt lat="42.08186221972056" lon="13.618467988658256"><ele>1098.0</ele><time>2026-05-02T12:03:04Z</time></trkpt><trkpt lat="42.08189873029106" lon="13.618352747810018"><ele>1098.0</ele><time>2026-05-02T12:03:05Z</time></trkpt><trkpt lat="42.081933140422734" lon="13.618235709235226"><ele>1098.0</ele><time>2026-05-02T12:03:06Z</time></trkpt><trkpt lat="42.08196662630018" lon="13.618118757228581"><ele>1098.0</ele><time>2026-05-02T12:03:07Z</time></trkpt><trkpt lat="42.08200177319394" lon="13.617999795638632"><ele>1098.0</ele><time>2026-05-02T12:03:08Z</time></trkpt><trkpt lat="42.08203716328722" lon="13.617879046161791"><ele>1098.0</ele><time>2026-05-02T12:03:09Z</time></trkpt><trkpt lat="42.08206939794056" lon="13.617758692001255"><ele>1096.1666666666667</ele><time>2026-05-02T12:03:10Z</time></trkpt><trkpt lat="42.082098735611844" lon="13.61764054830079"><ele>1094.3333333333333</ele><time>2026-05-02T12:03:11Z</time></trkpt><trkpt lat="42.0821225181617" lon="13.617522855713299"><ele>1092.5</ele><time>2026-05-02T12:03:12Z</time></trkpt><trkpt lat="42.082139753894495" lon="13.617405122195168"><ele>1090.6666666666665</ele><time>2026-05-02T12:03:13Z</time></trkpt><trkpt lat="42.08215810487845" lon="13.617289372482329"><ele>1088.8333333333333</ele><time>2026-05-02T12:03:14Z</time></trkpt><trkpt lat="42.082179659645654" lon="13.617174058799407"><ele>1087.0</ele><time>2026-05-02T12:03:15Z</time></trkpt><trkpt lat="42.08220243934159" lon="13.617058552552257"><ele>1085.8333333333333</ele><time>2026-05-02T12:03:16Z</time></trkpt><trkpt lat="42.08222491765497" lon="13.616946037607063"><ele>1084.6666666666665</ele><time>2026-05-02T12:03:17Z</time></trkpt><trkpt lat="42.08224236070788" lon="13.61684149611177"><ele>1083.5</ele><time>2026-05-02T12:03:18Z</time></trkpt><trkpt lat="42.082245958062785" lon="13.61674220125213"><ele>1082.3333333333333</ele><time>2026-05-02T12:03:19Z</time></trkpt><trkpt lat="42.082240977532756" lon="13.616643464573261"><ele>1081.1666666666667</ele><time>2026-05-02T12:03:20Z</time></trkpt><trkpt lat="42.08223085292022" lon="13.616540654050242"><ele>1080.0</ele><time>2026-05-02T12:03:21Z</time></trkpt><trkpt lat="42.08222012542105" lon="13.616430523980894"><ele>1080.0</ele><time>2026-05-02T12:03:22Z</time></trkpt><trkpt lat="42.08221740611931" lon="13.61631968757464"><ele>1080.0</ele><time>2026-05-02T12:03:23Z</time></trkpt><trkpt lat="42.08221831917384" lon="13.616208186099609"><ele>1080.0</ele><time>2026-05-02T12:03:24Z</time></trkpt><trkpt lat="42.08221374844562" lon="13.616099200592299"><ele>1080.0</ele><time>2026-05-02T12:03:25Z</time></trkpt><trkpt lat="42.08221293587958" lon="13.61598809193479"><ele>1080.0</ele><time>2026-05-02T12:03:26Z</time></trkpt><trkpt lat="42.08221146178493" lon="13.61587772601353"><ele>1080.0</ele><time>2026-05-02T12:03:27Z</time></trkpt><trkpt lat="42.082210775654595" lon="13.615771901731593"><ele>1078.857142857143</ele><time>2026-05-02T12:03:28Z</time></trkpt><trkpt lat="42.08221071461147" lon="13.615670811696445"><ele>1077.7142857142856</ele><time>2026-05-02T12:03:29Z</time></trkpt><trkpt lat="42.08220719946519" lon="13.615573446970895"><ele>1076.5714285714284</ele><time>2026-05-02T12:03:30Z</time></trkpt><trkpt lat="42.082206387960895" lon="13.615477314934916"><ele>1075.4285714285713</ele><time>2026-05-02T12:03:31Z</time></trkpt><trkpt lat="42.08220054727275" lon="13.615383648261892"><ele>1074.2857142857142</ele><time>2026-05-02T12:03:32Z</time></trkpt><trkpt lat="42.08218822511796" lon="13.615291382518286"><ele>1073.142857142857</ele><time>2026-05-02T12:03:33Z</time></trkpt><trkpt lat="42.08218179109272" lon="13.61519583611447"><ele>1072.0</ele><time>2026-05-02T12:03:34Z</time></trkpt><trkpt lat="42.08217865391537" lon="13.615094772264847"><ele>1071.0</ele><time>2026-05-02T12:03:35Z</time></trkpt><trkpt lat="42.08217537564633" lon="13.614989244019558"><ele>1070.0</ele><time>2026-05-02T12:03:36Z</time></trkpt><trkpt lat="42.08217418197217" lon="13.614879342501569"><ele>1069.0</ele><time>2026-05-02T12:03:37Z</time></trkpt><trkpt lat="42.08217252584458" lon="13.614768939965325"><ele>1068.0</ele><time>2026-05-02T12:03:38Z</time></trkpt><trkpt lat="42.08216616979093" lon="13.614654682531388"><ele>1067.0</ele><time>2026-05-02T12:03:39Z</time></trkpt><trkpt lat="42.082162213304905" lon="13.614539533847154"><ele>1066.0</ele><time>2026-05-02T12:03:40Z</time></trkpt><trkpt lat="42.082160084455616" lon="13.614428468616035"><ele>1064.8333333333333</ele><time>2026-05-02T12:03:41Z</time></trkpt><trkpt lat="42.08215471487741" lon="13.614318172705005"><ele>1063.6666666666665</ele><time>2026-05-02T12:03:42Z</time></trkpt><trkpt lat="42.08215426589241" lon="13.61420679557067"><ele>1062.5</ele><time>2026-05-02T12:03:43Z</time></trkpt><trkpt lat="42.082146748697205" lon="13.614094777457877"><ele>1061.3333333333333</ele><time>2026-05-02T12:03:44Z</time></trkpt><trkpt lat="42.08214081263577" lon="13.613983679415403"><ele>1060.1666666666667</ele><time>2026-05-02T12:03:45Z</time></trkpt><trkpt lat="42.082137860610764" lon="13.613873253671635"><ele>1059.0</ele><time>2026-05-02T12:03:46Z</time></trkpt><trkpt lat="42.08213182793495" lon="13.61376551777596"><ele>1059.0</ele><time>2026-05-02T12:03:47Z</time></trkpt><trkpt lat="42.082119992822925" lon="13.613659368811144"><ele>1059.0</ele><time>2026-05-02T12:03:48Z</time></trkpt><trkpt lat="42.08210874932941" lon="13.613550910999454"><ele>1059.0</ele><time>2026-05-02T12:03:49Z</time></trkpt><trkpt lat="42.08210021111003" lon="13.613435945029766"><ele>1059.0</ele><time>2026-05-02T12:03:50Z</time></trkpt><trkpt lat="42.08209122191754" lon="13.613315446477648"><ele>1059.0</ele><time>2026-05-02T12:03:51Z</time></trkpt><trkpt lat="42.082084585538226" lon="13.613193490470625"><ele>1059.0</ele><time>2026-05-02T12:03:52Z</time></trkpt><trkpt lat="42.08208154330104" lon="13.613067749489348"><ele>1058.0</ele><time>2026-05-02T12:03:53Z</time></trkpt><trkpt lat="42.082077798024926" lon="13.61293208173852"><ele>1057.0</ele><time>2026-05-02T12:03:54Z</time></trkpt><trkpt lat="42.082074013337255" lon="13.612803426414077"><ele>1056.0</ele><time>2026-05-02T12:03:55Z</time></trkpt><trkpt lat="42.08207205031002" lon="13.612672433622551"><ele>1055.0</ele><time>2026-05-02T12:03:56Z</time></trkpt><trkpt lat="42.08206835891353" lon="13.612554747774002"><ele>1054.0</ele><time>2026-05-02T12:03:57Z</time></trkpt><trkpt lat="42.08206357534092" lon="13.612387436935249"><ele>1053.0</ele><time>2026-05-02T12:03:59Z</time></trkpt><trkpt lat="42.08205051704052" lon="13.612241069157742"><ele>1052.0</ele><time>2026-05-02T12:04:01Z</time></trkpt><trkpt lat="42.08204648567002" lon="13.61209233545619"><ele>1051.0</ele><time>2026-05-02T12:04:03Z</time></trkpt><trkpt lat="42.08204253832602" lon="13.611954975604654"><ele>1050.0</ele><time>2026-05-02T12:04:05Z</time></trkpt><trkpt lat="42.08203776077797" lon="13.61181502372453"><ele>1049.0</ele><time>2026-05-02T12:04:07Z</time></trkpt><trkpt lat="42.08204038365865" lon="13.611658824217512"><ele>1048.0</ele><time>2026-05-02T12:04:09Z</time></trkpt><trkpt lat="42.0820379827141" lon="13.61155060118702"><ele>1047.0</ele><time>2026-05-02T12:04:10Z</time></trkpt><trkpt lat="42.08203533991788" lon="13.611438659827092"><ele>1046.0</ele><time>2026-05-02T12:04:11Z</time></trkpt><trkpt lat="42.082041296376374" lon="13.611336918724906"><ele>1045.0</ele><time>2026-05-02T12:04:12Z</time></trkpt><trkpt lat="42.08204751115486" lon="13.611248615664453"><ele>1044.0</ele><time>2026-05-02T12:04:13Z</time></trkpt><trkpt lat="42.082042536627505" lon="13.611161310953582"><ele>1043.0</ele><time>2026-05-02T12:04:14Z</time></trkpt><trkpt lat="42.08204287247822" lon="13.611072267532471"><ele>1042.0</ele><time>2026-05-02T12:04:15Z</time></trkpt><trkpt lat="42.08205070304021" lon="13.610971305376609"><ele>1040.1666666666665</ele><time>2026-05-02T12:04:16Z</time></trkpt><trkpt lat="42.08206091288929" lon="13.61088388564095"><ele>1038.3333333333333</ele><time>2026-05-02T12:04:17Z</time></trkpt><trkpt lat="42.08207418007655" lon="13.610772008665265"><ele>1036.5</ele><time>2026-05-02T12:04:18Z</time></trkpt><trkpt lat="42.082124394019246" lon="13.610641871083835"><ele>1034.6666666666667</ele><time>2026-05-02T12:04:20Z</time></trkpt><trkpt lat="42.08219402605033" lon="13.610548504087374"><ele>1032.8333333333335</ele><time>2026-05-02T12:04:22Z</time></trkpt><trkpt lat="42.08225383830884" lon="13.61051276077551"><ele>1031.0</ele><time>2026-05-02T12:04:23.999Z</time></trkpt><trkpt lat="42.08231144620993" lon="13.610473875352698"><ele>1031.0</ele><time>2026-05-02T12:04:31.999Z</time></trkpt><trkpt lat="42.082421113246454" lon="13.610469596609985"><ele>1031.0</ele><time>2026-05-02T12:04:33.999Z</time></trkpt><trkpt lat="42.08248796468505" lon="13.610458905563123"><ele>1031.0</ele><time>2026-05-02T12:04:34.999Z</time></trkpt><trkpt lat="42.082594751776064" lon="13.610451102638377"><ele>1031.0</ele><time>2026-05-02T12:04:36.999Z</time></trkpt><trkpt lat="42.08269312755687" lon="13.610431882438434"><ele>1031.0</ele><time>2026-05-02T12:04:38.999Z</time></trkpt><trkpt lat="42.082787741375704" lon="13.610363346865437"><ele>1031.6666666666667</ele><time>2026-05-02T12:04:40.999Z</time></trkpt><trkpt lat="42.08284264126567" lon="13.610269983906733"><ele>1032.3333333333335</ele><time>2026-05-02T12:04:42.999Z</time></trkpt><trkpt lat="42.082848383191255" lon="13.610158004763521"><ele>1033.0</ele><time>2026-05-02T12:04:45.999Z</time></trkpt><trkpt lat="42.08278518169534" lon="13.610172385496856"><ele>1033.6666666666667</ele><time>2026-05-02T12:04:52.999Z</time></trkpt><trkpt lat="42.08269663240404" lon="13.610132966869687"><ele>1034.3333333333333</ele><time>2026-05-02T12:04:55.999Z</time></trkpt><trkpt lat="42.082603458051054" lon="13.610118618454411"><ele>1035.0</ele><time>2026-05-02T12:04:57.999Z</time></trkpt><trkpt lat="42.08248017075243" lon="13.610092900814202"><ele>1032.6666666666667</ele><time>2026-05-02T12:04:59.999Z</time></trkpt><trkpt lat="42.08236977659774" lon="13.61006300838781"><ele>1030.3333333333333</ele><time>2026-05-02T12:05:01.999Z</time></trkpt><trkpt lat="42.082300974508776" lon="13.609991213015903"><ele>1028.0</ele><time>2026-05-02T12:05:02.999Z</time></trkpt><trkpt lat="42.08222616880532" lon="13.610033696484969"><ele>1025.6666666666665</ele><time>2026-05-02T12:05:03.999Z</time></trkpt><trkpt lat="42.08215628786649" lon="13.610020415822632"><ele>1023.3333333333333</ele><time>2026-05-02T12:05:04.999Z</time></trkpt><trkpt lat="42.08208570612575" lon="13.610013539780924"><ele>1021.0</ele><time>2026-05-02T12:05:05.999Z</time></trkpt><trkpt lat="42.08195397001722" lon="13.609993034894716"><ele>1021.0</ele><time>2026-05-02T12:05:07.999Z</time></trkpt><trkpt lat="42.08188798640572" lon="13.609990876575909"><ele>1020.9999999999999</ele><time>2026-05-02T12:05:08.999Z</time></trkpt><trkpt lat="42.081815829117915" lon="13.60999060070372"><ele>1020.9999999999999</ele><time>2026-05-02T12:05:09.999Z</time></trkpt><trkpt lat="42.08170539215539" lon="13.610003997008537"><ele>1021.0</ele><time>2026-05-02T12:05:11.999Z</time></trkpt><trkpt lat="42.08160862058623" lon="13.610014081052007"><ele>1021.0</ele><time>2026-05-02T12:05:13.999Z</time></trkpt><trkpt lat="42.08149180168103" lon="13.610051878495593"><ele>1018.5999999999999</ele><time>2026-05-02T12:05:15.999Z</time></trkpt><trkpt lat="42.08138211383543" lon="13.610120300635717"><ele>1016.1999999999999</ele><time>2026-05-02T12:05:17.999Z</time></trkpt><trkpt lat="42.08127835974405" lon="13.610205864003905"><ele>1013.8000000000001</ele><time>2026-05-02T12:05:19.999Z</time></trkpt><trkpt lat="42.08119376524376" lon="13.610260090582505"><ele>1011.4000000000001</ele><time>2026-05-02T12:05:21.999Z</time></trkpt><trkpt lat="42.08110607649669" lon="13.610305656314084"><ele>1009.0</ele><time>2026-05-02T12:05:23.999Z</time></trkpt><trkpt lat="42.08103448100506" lon="13.610319640314605"><ele>1008.9999999999999</ele><time>2026-05-02T12:05:25.999Z</time></trkpt><trkpt lat="42.0809454821417" lon="13.610265209280618"><ele>1009.0</ele><time>2026-05-02T12:05:27.999Z</time></trkpt><trkpt lat="42.08084253583553" lon="13.61022733187232"><ele>1009.0</ele><time>2026-05-02T12:05:29.999Z</time></trkpt><trkpt lat="42.08074541796597" lon="13.610200634381334"><ele>1009.0</ele><time>2026-05-02T12:05:31.999Z</time></trkpt><trkpt lat="42.08068134119988" lon="13.610191122360892"><ele>1008.9999999999999</ele><time>2026-05-02T12:05:32.999Z</time></trkpt><trkpt lat="42.08061798983495" lon="13.610202812975993"><ele>1009.0</ele><time>2026-05-02T12:05:33.999Z</time></trkpt><trkpt lat="42.08055247247107" lon="13.61022202661669"><ele>1007.0</ele><time>2026-05-02T12:05:34.999Z</time></trkpt><trkpt lat="42.080485105941094" lon="13.610246821160105"><ele>1005.0000000000001</ele><time>2026-05-02T12:05:35.999Z</time></trkpt><trkpt lat="42.080372272888546" lon="13.610287606913078"><ele>1003.0000000000001</ele><time>2026-05-02T12:05:37.999Z</time></trkpt><trkpt lat="42.080249255702924" lon="13.610327488817097"><ele>1001.0</ele><time>2026-05-02T12:05:39.999Z</time></trkpt><trkpt lat="42.08018554498187" lon="13.6103435108646"><ele>999.0</ele><time>2026-05-02T12:05:40.999Z</time></trkpt><trkpt lat="42.08007309813739" lon="13.610345101609655"><ele>999.0</ele><time>2026-05-02T12:05:42.999Z</time></trkpt><trkpt lat="42.0799936801761" lon="13.610348813712841"><ele>999.0</ele><time>2026-05-02T12:05:43.999Z</time></trkpt><trkpt lat="42.07990106873989" lon="13.61037228552496"><ele>999.0</ele><time>2026-05-02T12:05:44.999Z</time></trkpt><trkpt lat="42.079812346888396" lon="13.610389838549798"><ele>999.0</ele><time>2026-05-02T12:05:45.999Z</time></trkpt><trkpt lat="42.07973702024179" lon="13.610405427211631"><ele>999.0</ele><time>2026-05-02T12:05:46.999Z</time></trkpt><trkpt lat="42.07966177870943" lon="13.610428418828633"><ele>999.0</ele><time>2026-05-02T12:05:47.999Z</time></trkpt><trkpt lat="42.079572096954486" lon="13.610448146177859"><ele>995.75</ele><time>2026-05-02T12:05:49.999Z</time></trkpt><trkpt lat="42.079463605559376" lon="13.610426027969293"><ele>992.5</ele><time>2026-05-02T12:05:51.999Z</time></trkpt><trkpt lat="42.0793543102348" lon="13.610373709931736"><ele>989.25</ele><time>2026-05-02T12:05:53.999Z</time></trkpt><trkpt lat="42.07924105948888" lon="13.610335644660084"><ele>986.0</ele><time>2026-05-02T12:05:55.999Z</time></trkpt><trkpt lat="42.079122745753665" lon="13.610270755263413"><ele>983.0</ele><time>2026-05-02T12:05:57.999Z</time></trkpt><trkpt lat="42.079010021428196" lon="13.610243005367584"><ele>979.9999999999999</ele><time>2026-05-02T12:05:59.999Z</time></trkpt><trkpt lat="42.07889888940194" lon="13.610240501603762"><ele>976.9999999999999</ele><time>2026-05-02T12:06:01.999Z</time></trkpt><trkpt lat="42.07882742478082" lon="13.610238939596057"><ele>974.0</ele><time>2026-05-02T12:06:02.999Z</time></trkpt><trkpt lat="42.07874493580001" lon="13.610250328586172"><ele>971.0</ele><time>2026-05-02T12:06:03.999Z</time></trkpt><trkpt lat="42.07866698134756" lon="13.610250332059877"><ele>971.0000000000001</ele><time>2026-05-02T12:06:04.999Z</time></trkpt><trkpt lat="42.07858621807721" lon="13.610268436579556"><ele>971.0</ele><time>2026-05-02T12:06:05.999Z</time></trkpt><trkpt lat="42.07851998306523" lon="13.610269040901716"><ele>971.0</ele><time>2026-05-02T12:06:06.999Z</time></trkpt><trkpt lat="42.07845382701608" lon="13.610257747437428"><ele>971.0</ele><time>2026-05-02T12:06:07.999Z</time></trkpt><trkpt lat="42.07836428176395" lon="13.610236325297006"><ele>971.0000000000001</ele><time>2026-05-02T12:06:08.999Z</time></trkpt><trkpt lat="42.0782821078022" lon="13.61023903440159"><ele>971.0</ele><time>2026-05-02T12:06:09.999Z</time></trkpt><trkpt lat="42.078209879706776" lon="13.610251484373483"><ele>968.8</ele><time>2026-05-02T12:06:10.999Z</time></trkpt><trkpt lat="42.078078342263424" lon="13.610288558115105"><ele>966.5999999999999</ele><time>2026-05-02T12:06:12.999Z</time></trkpt><trkpt lat="42.078000945521545" lon="13.610313447603746"><ele>964.4</ele><time>2026-05-02T12:06:13.999Z</time></trkpt><trkpt lat="42.0779152744941" lon="13.610313937337446"><ele>962.2</ele><time>2026-05-02T12:06:14.999Z</time></trkpt><trkpt lat="42.07782963488015" lon="13.61030125438387"><ele>960.0</ele><time>2026-05-02T12:06:15.999Z</time></trkpt><trkpt lat="42.07775429172405" lon="13.610288893517026"><ele>960.0</ele><time>2026-05-02T12:06:16.999Z</time></trkpt><trkpt lat="42.07768506331272" lon="13.610288272944665"><ele>960.0</ele><time>2026-05-02T12:06:17.999Z</time></trkpt><trkpt lat="42.07756386046356" lon="13.610322887626277"><ele>960.0</ele><time>2026-05-02T12:06:19.999Z</time></trkpt><trkpt lat="42.0774408891783" lon="13.610358354659093"><ele>960.0</ele><time>2026-05-02T12:06:21.999Z</time></trkpt><trkpt lat="42.07732488518299" lon="13.61035984008244"><ele>960.0</ele><time>2026-05-02T12:06:23.999Z</time></trkpt><trkpt lat="42.07721997901322" lon="13.610393477828246"><ele>957.4</ele><time>2026-05-02T12:06:25.999Z</time></trkpt><trkpt lat="42.07715742024902" lon="13.610412093196368"><ele>954.8</ele><time>2026-05-02T12:06:26.999Z</time></trkpt><trkpt lat="42.077044978646555" lon="13.610440178560767"><ele>952.2</ele><time>2026-05-02T12:06:28.999Z</time></trkpt><trkpt lat="42.076914134581195" lon="13.610423315190252"><ele>949.6</ele><time>2026-05-02T12:06:30.999Z</time></trkpt><trkpt lat="42.07683554356037" lon="13.61041119852929"><ele>947.0</ele><time>2026-05-02T12:06:31.999Z</time></trkpt><trkpt lat="42.076756801320464" lon="13.610403447802184"><ele>947.0000000000001</ele><time>2026-05-02T12:06:32.999Z</time></trkpt><trkpt lat="42.07667736356261" lon="13.610398234789407"><ele>947.0</ele><time>2026-05-02T12:06:33.999Z</time></trkpt><trkpt lat="42.07659469052229" lon="13.610396283731554"><ele>947.0</ele><time>2026-05-02T12:06:34.999Z</time></trkpt><trkpt lat="42.07651547307055" lon="13.610395731165491"><ele>947.0</ele><time>2026-05-02T12:06:35.999Z</time></trkpt><trkpt lat="42.07644870965888" lon="13.610396587870119"><ele>947.0000000000001</ele><time>2026-05-02T12:06:36.999Z</time></trkpt><trkpt lat="42.07635597838097" lon="13.610422496337375"><ele>947.0</ele><time>2026-05-02T12:06:38.999Z</time></trkpt><trkpt lat="42.07624009371796" lon="13.610444500526228"><ele>943.8</ele><time>2026-05-02T12:06:40.999Z</time></trkpt><trkpt lat="42.0761197155239" lon="13.61046471142974"><ele>940.6</ele><time>2026-05-02T12:06:42.999Z</time></trkpt><trkpt lat="42.07602131848385" lon="13.610521312231299"><ele>937.3999999999999</ele><time>2026-05-02T12:06:44.999Z</time></trkpt><trkpt lat="42.07594737549946" lon="13.6105861084113"><ele>934.1999999999999</ele><time>2026-05-02T12:06:46.999Z</time></trkpt><trkpt lat="42.07586470349237" lon="13.610682223981494"><ele>931.0</ele><time>2026-05-02T12:06:48.999Z</time></trkpt><trkpt lat="42.07577697787636" lon="13.61078685188301"><ele>929.2857142857142</ele><time>2026-05-02T12:06:50.999Z</time></trkpt><trkpt lat="42.075728517261226" lon="13.6108672311895"><ele>927.5714285714286</ele><time>2026-05-02T12:06:52.999Z</time></trkpt><trkpt lat="42.07567196122552" lon="13.610925020810448"><ele>925.8571428571429</ele><time>2026-05-02T12:06:56.999Z</time></trkpt><trkpt lat="42.075616913601834" lon="13.610969189824447"><ele>924.1428571428571</ele><time>2026-05-02T12:06:58.999Z</time></trkpt><trkpt lat="42.07554834193124" lon="13.611020971918961"><ele>922.4285714285713</ele><time>2026-05-02T12:07:01.999Z</time></trkpt><trkpt lat="42.075474830966854" lon="13.61105624464463"><ele>920.7142857142857</ele><time>2026-05-02T12:07:03.999Z</time></trkpt><trkpt lat="42.075406451993814" lon="13.611077481469918"><ele>919.0</ele><time>2026-05-02T12:07:05.999Z</time></trkpt><trkpt lat="42.07533402792606" lon="13.611116758548974"><ele>919.0</ele><time>2026-05-02T12:07:07.999Z</time></trkpt><trkpt lat="42.07526361726489" lon="13.611157635517932"><ele>918.9999999999999</ele><time>2026-05-02T12:07:10.999Z</time></trkpt><trkpt lat="42.075195974242256" lon="13.611140195456713"><ele>919.0</ele><time>2026-05-02T12:07:19.997Z</time></trkpt><trkpt lat="42.07520117138901" lon="13.611041150386514"><ele>919.0</ele><time>2026-05-02T12:07:24.997Z</time></trkpt><trkpt lat="42.07525749148055" lon="13.610998936615182"><ele>918.9999999999999</ele><time>2026-05-02T12:07:50.997Z</time></trkpt><trkpt lat="42.0753231730973" lon="13.611064366208176"><ele>919.0</ele><time>2026-05-02T12:08:44.997Z</time></trkpt><trkpt lat="42.075386993606614" lon="13.611088188975604"><ele>919.0</ele><time>2026-05-02T12:08:59.997Z</time></trkpt><trkpt lat="42.07546370899113" lon="13.611070204824491"><ele>919.0</ele><time>2026-05-02T12:09:41.997Z</time></trkpt><trkpt lat="42.0755144700079" lon="13.611006973962144"><ele>918.9999999999999</ele><time>2026-05-02T12:10:36Z</time></trkpt><trkpt lat="42.07554105043748" lon="13.610928188095029"><ele>919.0</ele><time>2026-05-02T12:10:54.999Z</time></trkpt><trkpt lat="42.07560534214635" lon="13.61092481285466"><ele>919.0</ele><time>2026-05-02T12:11:01.999Z</time></trkpt><trkpt lat="42.075671072923384" lon="13.61090539491379"><ele>918.9999999999999</ele><time>2026-05-02T12:11:08.999Z</time></trkpt><trkpt lat="42.07573845876828" lon="13.610928716606706"><ele>919.0</ele><time>2026-05-02T12:11:17.999Z</time></trkpt><trkpt lat="42.07578639086648" lon="13.610994010920061"><ele>919.0</ele><time>2026-05-02T12:11:26.999Z</time></trkpt><trkpt lat="42.07588583679498" lon="13.61102338391285"><ele>931.0</ele><time>2026-05-02T12:13:31.999Z</time></trkpt><trkpt lat="42.0759283084477" lon="13.610958457735551"><ele>931.0</ele><time>2026-05-02T12:13:41.999Z</time></trkpt><trkpt lat="42.075991969943864" lon="13.610934521473787"><ele>931.0</ele><time>2026-05-02T12:13:49.999Z</time></trkpt><trkpt lat="42.0761131905005" lon="13.610808712282521"><ele>931.0</ele><time>2026-05-02T12:21:44.998Z</time></trkpt></trkseg><trkseg><trkpt lat="42.075293546445586" lon="13.610969536485102"><ele>918.9999999999999</ele><time>2026-05-02T12:45:33.216Z</time></trkpt><trkpt lat="42.07524651669972" lon="13.610893458001682"><ele>919.0</ele><time>2026-05-02T12:48:36Z</time></trkpt><trkpt lat="42.075175251910224" lon="13.610883031206892"><ele>919.0</ele><time>2026-05-02T12:48:41Z</time></trkpt><trkpt lat="42.075155173585514" lon="13.611002453656614"><ele>919.0</ele><time>2026-05-02T12:48:44Z</time></trkpt><trkpt lat="42.07516360550496" lon="13.611112235585798"><ele>918.9999999999999</ele><time>2026-05-02T12:48:46Z</time></trkpt><trkpt lat="42.0751351424084" lon="13.611192139242478"><ele>919.0</ele><time>2026-05-02T12:48:49Z</time></trkpt><trkpt lat="42.075039122218335" lon="13.61122034277708"><ele>918.8000000000001</ele><time>2026-05-02T12:48:51Z</time></trkpt><trkpt lat="42.074951463104576" lon="13.611215869391248"><ele>918.6000000000001</ele><time>2026-05-02T12:48:52Z</time></trkpt><trkpt lat="42.07485343632523" lon="13.61120949655923"><ele>918.4</ele><time>2026-05-02T12:48:53Z</time></trkpt><trkpt lat="42.07475364576021" lon="13.611193483343756"><ele>918.2</ele><time>2026-05-02T12:48:54Z</time></trkpt><trkpt lat="42.07465044525369" lon="13.611169400878497"><ele>918.0</ele><time>2026-05-02T12:48:55Z</time></trkpt><trkpt lat="42.07454863962128" lon="13.611147697116078"><ele>915.75</ele><time>2026-05-02T12:48:56Z</time></trkpt><trkpt lat="42.07444056835972" lon="13.611116304583035"><ele>913.5</ele><time>2026-05-02T12:48:57Z</time></trkpt><trkpt lat="42.07433606990169" lon="13.61107470066222"><ele>911.25</ele><time>2026-05-02T12:48:58Z</time></trkpt><trkpt lat="42.07422336028835" lon="13.611018531400873"><ele>909.0</ele><time>2026-05-02T12:48:59Z</time></trkpt><trkpt lat="42.0741175772729" lon="13.610954413926201"><ele>907.6</ele><time>2026-05-02T12:49:00Z</time></trkpt><trkpt lat="42.074015715535324" lon="13.61089910508411"><ele>906.2</ele><time>2026-05-02T12:49:01Z</time></trkpt><trkpt lat="42.07391700297324" lon="13.610842390393186"><ele>904.8000000000001</ele><time>2026-05-02T12:49:02Z</time></trkpt><trkpt lat="42.073817407140076" lon="13.610782306176612"><ele>903.4000000000001</ele><time>2026-05-02T12:49:03Z</time></trkpt><trkpt lat="42.073729800263564" lon="13.610714743551474"><ele>902.0</ele><time>2026-05-02T12:49:04Z</time></trkpt><trkpt lat="42.073646556924395" lon="13.610656016071882"><ele>902.0</ele><time>2026-05-02T12:49:05Z</time></trkpt><trkpt lat="42.07356251776471" lon="13.61059435410239"><ele>902.0</ele><time>2026-05-02T12:49:06Z</time></trkpt><trkpt lat="42.073497174430884" lon="13.610483437554914"><ele>902.0</ele><time>2026-05-02T12:49:07Z</time></trkpt><trkpt lat="42.073412001670455" lon="13.610394520133251"><ele>902.0</ele><time>2026-05-02T12:49:08Z</time></trkpt><trkpt lat="42.07332475571215" lon="13.61030678159177"><ele>902.0</ele><time>2026-05-02T12:49:09Z</time></trkpt><trkpt lat="42.07323673864832" lon="13.610216461959673"><ele>899.25</ele><time>2026-05-02T12:49:10Z</time></trkpt><trkpt lat="42.07314497437219" lon="13.61011853128303"><ele>896.5</ele><time>2026-05-02T12:49:11Z</time></trkpt><trkpt lat="42.073050133013616" lon="13.610011690530984"><ele>893.75</ele><time>2026-05-02T12:49:12Z</time></trkpt><trkpt lat="42.07295592413259" lon="13.609902435068404"><ele>891.0</ele><time>2026-05-02T12:49:13Z</time></trkpt><trkpt lat="42.0728643523894" lon="13.609794430459734"><ele>891.0</ele><time>2026-05-02T12:49:14Z</time></trkpt><trkpt lat="42.07277510734094" lon="13.60968660659405"><ele>891.0</ele><time>2026-05-02T12:49:15Z</time></trkpt><trkpt lat="42.07268965224196" lon="13.609580786151476"><ele>891.0</ele><time>2026-05-02T12:49:16Z</time></trkpt><trkpt lat="42.072606021351255" lon="13.609477025676615"><ele>891.0</ele><time>2026-05-02T12:49:17Z</time></trkpt><trkpt lat="42.072522844328475" lon="13.609374422466301"><ele>890.5999999999999</ele><time>2026-05-02T12:49:18Z</time></trkpt><trkpt lat="42.07244411317452" lon="13.60927730346771"><ele>890.1999999999999</ele><time>2026-05-02T12:49:19Z</time></trkpt><trkpt lat="42.07237496800026" lon="13.609191280279292"><ele>889.8000000000001</ele><time>2026-05-02T12:49:20Z</time></trkpt><trkpt lat="42.07231216072908" lon="13.609122199293758"><ele>889.4000000000001</ele><time>2026-05-02T12:49:21Z</time></trkpt><trkpt lat="42.072246466134644" lon="13.609054121841684"><ele>889.0</ele><time>2026-05-02T12:49:22Z</time></trkpt><trkpt lat="42.07219995291914" lon="13.608856565594346"><ele>887.0</ele><time>2026-05-02T12:49:24Z</time></trkpt><trkpt lat="42.072176037138306" lon="13.608708804479706"><ele>885.0</ele><time>2026-05-02T12:49:25Z</time></trkpt><trkpt lat="42.07215013058635" lon="13.608546672493627"><ele>883.0</ele><time>2026-05-02T12:49:26Z</time></trkpt><trkpt lat="42.07212615414502" lon="13.60837935863309"><ele>881.0</ele><time>2026-05-02T12:49:27Z</time></trkpt><trkpt lat="42.07210424047445" lon="13.6082264393213"><ele>880.4</ele><time>2026-05-02T12:49:28Z</time></trkpt><trkpt lat="42.07208877621453" lon="13.608091448522675"><ele>879.8</ele><time>2026-05-02T12:49:29Z</time></trkpt><trkpt lat="42.07208224731837" lon="13.607959078453284"><ele>879.1999999999999</ele><time>2026-05-02T12:49:30Z</time></trkpt><trkpt lat="42.07208435185594" lon="13.60782015814996"><ele>878.5999999999999</ele><time>2026-05-02T12:49:31Z</time></trkpt><trkpt lat="42.07208298773445" lon="13.607674625867212"><ele>878.0</ele><time>2026-05-02T12:49:32Z</time></trkpt><trkpt lat="42.072081647944344" lon="13.607533223536622"><ele>877.0000000000001</ele><time>2026-05-02T12:49:33Z</time></trkpt><trkpt lat="42.07208200732191" lon="13.607405085432353"><ele>876.0</ele><time>2026-05-02T12:49:34Z</time></trkpt><trkpt lat="42.07208275971766" lon="13.607287489338663"><ele>875.0</ele><time>2026-05-02T12:49:35Z</time></trkpt><trkpt lat="42.072080366074935" lon="13.60717187105177"><ele>874.0</ele><time>2026-05-02T12:49:36Z</time></trkpt><trkpt lat="42.07207184893898" lon="13.607062962544942"><ele>873.0000000000001</ele><time>2026-05-02T12:49:37Z</time></trkpt><trkpt lat="42.07205344546398" lon="13.606953349076631"><ele>872.0</ele><time>2026-05-02T12:49:38Z</time></trkpt><trkpt lat="42.07202729185984" lon="13.606841730325263"><ele>870.2</ele><time>2026-05-02T12:49:39Z</time></trkpt><trkpt lat="42.07197927058028" lon="13.606744504679448"><ele>868.4000000000001</ele><time>2026-05-02T12:49:40Z</time></trkpt><trkpt lat="42.07193792805975" lon="13.606642450225136"><ele>866.5999999999999</ele><time>2026-05-02T12:49:41Z</time></trkpt><trkpt lat="42.07188024548811" lon="13.606546316638314"><ele>864.8</ele><time>2026-05-02T12:49:42Z</time></trkpt><trkpt lat="42.07181038655346" lon="13.606453821688268"><ele>863.0</ele><time>2026-05-02T12:49:43Z</time></trkpt><trkpt lat="42.071732305942454" lon="13.606364112838707"><ele>863.0</ele><time>2026-05-02T12:49:44Z</time></trkpt><trkpt lat="42.0716522034787" lon="13.606278574317292"><ele>863.0</ele><time>2026-05-02T12:49:45Z</time></trkpt><trkpt lat="42.07157375128834" lon="13.606199808343677"><ele>863.0</ele><time>2026-05-02T12:49:46Z</time></trkpt><trkpt lat="42.07149339252219" lon="13.60613547892094"><ele>863.0</ele><time>2026-05-02T12:49:47Z</time></trkpt><trkpt lat="42.07141369620216" lon="13.606081436162942"><ele>863.0</ele><time>2026-05-02T12:49:48Z</time></trkpt><trkpt lat="42.071332638055246" lon="13.606041732552976"><ele>860.0</ele><time>2026-05-02T12:49:49Z</time></trkpt><trkpt lat="42.07125059324561" lon="13.606010232842033"><ele>857.0</ele><time>2026-05-02T12:49:50Z</time></trkpt><trkpt lat="42.071169635804644" lon="13.605971216999258"><ele>854.0</ele><time>2026-05-02T12:49:51Z</time></trkpt><trkpt lat="42.071087592261115" lon="13.605903435463055"><ele>851.0</ele><time>2026-05-02T12:49:52Z</time></trkpt><trkpt lat="42.07100639621506" lon="13.60581834742996"><ele>848.0</ele><time>2026-05-02T12:49:53Z</time></trkpt><trkpt lat="42.07092629694101" lon="13.605732444761495"><ele>848.0</ele><time>2026-05-02T12:49:54Z</time></trkpt><trkpt lat="42.0708436823621" lon="13.605639411637569"><ele>848.0</ele><time>2026-05-02T12:49:55Z</time></trkpt><trkpt lat="42.070754533655126" lon="13.605550455021614"><ele>848.0</ele><time>2026-05-02T12:49:56Z</time></trkpt><trkpt lat="42.070665500043276" lon="13.605459734345729"><ele>848.0</ele><time>2026-05-02T12:49:57Z</time></trkpt><trkpt lat="42.07057049791496" lon="13.605368379567878"><ele>848.0</ele><time>2026-05-02T12:49:58Z</time></trkpt><trkpt lat="42.07047147239925" lon="13.60528041130649"><ele>844.0</ele><time>2026-05-02T12:49:59Z</time></trkpt><trkpt lat="42.07037144455027" lon="13.605189812398862"><ele>840.0</ele><time>2026-05-02T12:50:00Z</time></trkpt><trkpt lat="42.07027302947087" lon="13.605097275205058"><ele>836.0</ele><time>2026-05-02T12:50:01Z</time></trkpt><trkpt lat="42.07017558595877" lon="13.605004822271358"><ele>832.0</ele><time>2026-05-02T12:50:02Z</time></trkpt><trkpt lat="42.07007840924742" lon="13.604909714669352"><ele>832.0</ele><time>2026-05-02T12:50:03Z</time></trkpt><trkpt lat="42.06998241477113" lon="13.604811718633602"><ele>832.0</ele><time>2026-05-02T12:50:04Z</time></trkpt><trkpt lat="42.069883398416586" lon="13.604716468982739"><ele>832.0</ele><time>2026-05-02T12:50:05Z</time></trkpt><trkpt lat="42.06978539875648" lon="13.604617559947858"><ele>832.0</ele><time>2026-05-02T12:50:06Z</time></trkpt><trkpt lat="42.069686412296114" lon="13.604518532588244"><ele>827.25</ele><time>2026-05-02T12:50:07Z</time></trkpt><trkpt lat="42.06957299781605" lon="13.604436366190141"><ele>822.5</ele><time>2026-05-02T12:50:08Z</time></trkpt><trkpt lat="42.06946939534244" lon="13.604343587245259"><ele>817.75</ele><time>2026-05-02T12:50:09Z</time></trkpt><trkpt lat="42.069365428685465" lon="13.604253263755142"><ele>813.0</ele><time>2026-05-02T12:50:10Z</time></trkpt><trkpt lat="42.0692707765629" lon="13.604156887537393"><ele>813.0</ele><time>2026-05-02T12:50:11Z</time></trkpt><trkpt lat="42.069179398537905" lon="13.604060180006254"><ele>813.0</ele><time>2026-05-02T12:50:12Z</time></trkpt><trkpt lat="42.06908837425955" lon="13.60396413998709"><ele>813.0</ele><time>2026-05-02T12:50:13Z</time></trkpt><trkpt lat="42.06900070871641" lon="13.6038707377109"><ele>813.0</ele><time>2026-05-02T12:50:14Z</time></trkpt><trkpt lat="42.06891324771627" lon="13.603781217769132"><ele>812.0</ele><time>2026-05-02T12:50:15Z</time></trkpt><trkpt lat="42.068828342623924" lon="13.60369541195832"><ele>811.0</ele><time>2026-05-02T12:50:16Z</time></trkpt><trkpt lat="42.06875680652104" lon="13.60359318924163"><ele>810.0</ele><time>2026-05-02T12:50:17Z</time></trkpt><trkpt lat="42.06868630631208" lon="13.603514801125586"><ele>809.0</ele><time>2026-05-02T12:50:18Z</time></trkpt><trkpt lat="42.068611712753956" lon="13.603479553126498"><ele>808.0</ele><time>2026-05-02T12:50:19Z</time></trkpt><trkpt lat="42.06850298155863" lon="13.603419931535132"><ele>807.9999999999999</ele><time>2026-05-02T12:50:21Z</time></trkpt><trkpt lat="42.068384722881035" lon="13.603456383826645"><ele>808.0</ele><time>2026-05-02T12:50:23Z</time></trkpt><trkpt lat="42.06833020592242" lon="13.60351457203304"><ele>808.0</ele><time>2026-05-02T12:50:24Z</time></trkpt><trkpt lat="42.06827408733596" lon="13.60356029232182"><ele>808.0</ele><time>2026-05-02T12:50:25Z</time></trkpt><trkpt lat="42.06819544870902" lon="13.603499688402328"><ele>807.9999999999999</ele><time>2026-05-02T12:50:26Z</time></trkpt><trkpt lat="42.06813547900869" lon="13.603527402303076"><ele>808.0</ele><time>2026-05-02T12:50:27Z</time></trkpt><trkpt lat="42.06804420227025" lon="13.603532690815653"><ele>809.8</ele><time>2026-05-02T12:50:28Z</time></trkpt><trkpt lat="42.06795094180212" lon="13.603534314640225"><ele>811.5999999999999</ele><time>2026-05-02T12:50:29Z</time></trkpt><trkpt lat="42.06784306115113" lon="13.603543279415732"><ele>813.4000000000001</ele><time>2026-05-02T12:50:30Z</time></trkpt><trkpt lat="42.06773845608081" lon="13.603533141665086"><ele>815.2</ele><time>2026-05-02T12:50:31Z</time></trkpt><trkpt lat="42.06762378607809" lon="13.603529994817196"><ele>817.0</ele><time>2026-05-02T12:50:32Z</time></trkpt><trkpt lat="42.067500938885445" lon="13.60350396865792"><ele>818.0</ele><time>2026-05-02T12:50:33Z</time></trkpt><trkpt lat="42.067376557624726" lon="13.603499245973122"><ele>819.0</ele><time>2026-05-02T12:50:34Z</time></trkpt><trkpt lat="42.06725942672221" lon="13.603512296408764"><ele>820.0</ele><time>2026-05-02T12:50:35Z</time></trkpt><trkpt lat="42.067144171474" lon="13.603492379425523"><ele>821.0</ele><time>2026-05-02T12:50:36Z</time></trkpt><trkpt lat="42.067032418926665" lon="13.603472054657646"><ele>821.0</ele><time>2026-05-02T12:50:37Z</time></trkpt><trkpt lat="42.066923054640526" lon="13.603442797494797"><ele>821.0</ele><time>2026-05-02T12:50:38Z</time></trkpt><trkpt lat="42.06680682167133" lon="13.603397379376455"><ele>821.0</ele><time>2026-05-02T12:50:39Z</time></trkpt><trkpt lat="42.06669415765338" lon="13.60335381889736"><ele>821.0</ele><time>2026-05-02T12:50:40Z</time></trkpt><trkpt lat="42.06659343966406" lon="13.603337516199323"><ele>822.4</ele><time>2026-05-02T12:50:41Z</time></trkpt><trkpt lat="42.066486875592965" lon="13.603255875940587"><ele>823.8</ele><time>2026-05-02T12:50:42Z</time></trkpt><trkpt lat="42.06637738278491" lon="13.603265355584863"><ele>825.1999999999999</ele><time>2026-05-02T12:50:43Z</time></trkpt><trkpt lat="42.066274661985325" lon="13.603283590174078"><ele>826.5999999999999</ele><time>2026-05-02T12:50:44Z</time></trkpt><trkpt lat="42.066181722905114" lon="13.603285257893397"><ele>828.0</ele><time>2026-05-02T12:50:45Z</time></trkpt><trkpt lat="42.06610178015342" lon="13.603289051694285"><ele>828.0</ele><time>2026-05-02T12:50:46Z</time></trkpt><trkpt lat="42.06603423432287" lon="13.603297450462568"><ele>828.0</ele><time>2026-05-02T12:50:47Z</time></trkpt><trkpt lat="42.0659369186833" lon="13.603309550823777"><ele>828.0</ele><time>2026-05-02T12:50:49Z</time></trkpt><trkpt lat="42.06578405332547" lon="13.603352594874293"><ele>828.0</ele><time>2026-05-02T12:50:50Z</time></trkpt><trkpt lat="42.06576201021347" lon="13.603173406924958"><ele>828.25</ele><time>2026-05-02T12:50:52Z</time></trkpt><trkpt lat="42.06574340737717" lon="13.603048120579071"><ele>828.5</ele><time>2026-05-02T12:50:53Z</time></trkpt><trkpt lat="42.06570187684751" lon="13.602930505213221"><ele>828.75</ele><time>2026-05-02T12:50:54Z</time></trkpt><trkpt lat="42.06568690348028" lon="13.602752853601752"><ele>829.0</ele><time>2026-05-02T12:50:55Z</time></trkpt><trkpt lat="42.06581635749291" lon="13.602687000806139"><ele>829.3333333333333</ele><time>2026-05-02T12:50:56Z</time></trkpt><trkpt lat="42.06585761625721" lon="13.602597434271493"><ele>829.6666666666666</ele><time>2026-05-02T12:50:57Z</time></trkpt><trkpt lat="42.065903115420845" lon="13.602511250995976"><ele>830.0</ele><time>2026-05-02T12:50:58Z</time></trkpt><trkpt lat="42.065953230276534" lon="13.602421428596692"><ele>830.3333333333333</ele><time>2026-05-02T12:50:59Z</time></trkpt><trkpt lat="42.06597805365466" lon="13.602301807676644"><ele>830.6666666666666</ele><time>2026-05-02T12:51:00Z</time></trkpt><trkpt lat="42.06602312613096" lon="13.602165152339623"><ele>831.0</ele><time>2026-05-02T12:51:01Z</time></trkpt><trkpt lat="42.06606661736315" lon="13.602014469503631"><ele>830.4</ele><time>2026-05-02T12:51:02Z</time></trkpt><trkpt lat="42.06609562062401" lon="13.601871131509089"><ele>829.8</ele><time>2026-05-02T12:51:02.999Z</time></trkpt><trkpt lat="42.0661154005478" lon="13.601738849855057"><ele>829.1999999999999</ele><time>2026-05-02T12:51:03.999Z</time></trkpt><trkpt lat="42.06603819015558" lon="13.601596468812678"><ele>828.5999999999999</ele><time>2026-05-02T12:51:04.999Z</time></trkpt><trkpt lat="42.066053748170546" lon="13.601502028486609"><ele>828.0</ele><time>2026-05-02T12:51:05.999Z</time></trkpt><trkpt lat="42.0660664236041" lon="13.601401137401904"><ele>828.0000000000001</ele><time>2026-05-02T12:51:06.999Z</time></trkpt><trkpt lat="42.06607117697708" lon="13.601312450757154"><ele>828.0</ele><time>2026-05-02T12:51:07.999Z</time></trkpt><trkpt lat="42.06607336318135" lon="13.601208798512753"><ele>828.0</ele><time>2026-05-02T12:51:08.999Z</time></trkpt><trkpt lat="42.06607544459685" lon="13.601110114351854"><ele>828.0</ele><time>2026-05-02T12:51:09.999Z</time></trkpt><trkpt lat="42.06607995706615" lon="13.60100640135447"><ele>828.0</ele><time>2026-05-02T12:51:10.999Z</time></trkpt><trkpt lat="42.06608960712362" lon="13.600907200156179"><ele>828.0000000000001</ele><time>2026-05-02T12:51:11.999Z</time></trkpt><trkpt lat="42.06609873955877" lon="13.600813319392902"><ele>828.0</ele><time>2026-05-02T12:51:12.999Z</time></trkpt><trkpt lat="42.06610762438782" lon="13.600723775307186"><ele>828.0</ele><time>2026-05-02T12:51:13.999Z</time></trkpt><trkpt lat="42.06611763033333" lon="13.600637949373509"><ele>828.0</ele><time>2026-05-02T12:51:14.999Z</time></trkpt><trkpt lat="42.06613818975106" lon="13.600491785342724"><ele>828.0</ele><time>2026-05-02T12:51:16.999Z</time></trkpt><trkpt lat="42.066157407765616" lon="13.600355159719347"><ele>828.0</ele><time>2026-05-02T12:51:18.999Z</time></trkpt><trkpt lat="42.06617274136717" lon="13.60024607185757"><ele>828.0</ele><time>2026-05-02T12:51:20.999Z</time></trkpt><trkpt lat="42.06618251077149" lon="13.600148544898449"><ele>828.0</ele><time>2026-05-02T12:51:22.999Z</time></trkpt><trkpt lat="42.06625374501008" lon="13.600028791894939"><ele>828.0</ele><time>2026-05-02T12:51:24.999Z</time></trkpt><trkpt lat="42.06627743601764" lon="13.599942109727051"><ele>828.0</ele><time>2026-05-02T12:51:25.999Z</time></trkpt><trkpt lat="42.066295665293204" lon="13.599833194485019"><ele>828.0</ele><time>2026-05-02T12:51:26.999Z</time></trkpt><trkpt lat="42.06631759633074" lon="13.599725932713367"><ele>828.0</ele><time>2026-05-02T12:51:27.999Z</time></trkpt><trkpt lat="42.06634799678466" lon="13.599625658652188"><ele>828.0</ele><time>2026-05-02T12:51:28.999Z</time></trkpt><trkpt lat="42.06637591134009" lon="13.599526506185875"><ele>828.0</ele><time>2026-05-02T12:51:29.999Z</time></trkpt><trkpt lat="42.0664013219318" lon="13.599431623228323"><ele>827.5</ele><time>2026-05-02T12:51:30.999Z</time></trkpt><trkpt lat="42.06642455799928" lon="13.59933988879165"><ele>827.0</ele><time>2026-05-02T12:51:31.999Z</time></trkpt><trkpt lat="42.06645001371447" lon="13.599245426333974"><ele>826.5</ele><time>2026-05-02T12:51:32.999Z</time></trkpt><trkpt lat="42.0664779600745" lon="13.599141028722414"><ele>826.0</ele><time>2026-05-02T12:51:33.999Z</time></trkpt><trkpt lat="42.06650488049248" lon="13.599031644249948"><ele>825.5</ele><time>2026-05-02T12:51:34.999Z</time></trkpt><trkpt lat="42.066532747915915" lon="13.598925925660962"><ele>825.0</ele><time>2026-05-02T12:51:35.999Z</time></trkpt><trkpt lat="42.06656107386816" lon="13.598818895853581"><ele>825.0</ele><time>2026-05-02T12:51:36.999Z</time></trkpt><trkpt lat="42.06659531152135" lon="13.598707338766339"><ele>825.0</ele><time>2026-05-02T12:51:37.999Z</time></trkpt><trkpt lat="42.0666305852052" lon="13.598605612681146"><ele>825.0</ele><time>2026-05-02T12:51:38.999Z</time></trkpt><trkpt lat="42.06666410941199" lon="13.598518291137081"><ele>825.0</ele><time>2026-05-02T12:51:39.999Z</time></trkpt><trkpt lat="42.06664713639468" lon="13.59840204057293"><ele>825.0</ele><time>2026-05-02T12:51:40.999Z</time></trkpt><trkpt lat="42.066688543676534" lon="13.59832954086887"><ele>825.0</ele><time>2026-05-02T12:51:41.999Z</time></trkpt><trkpt lat="42.06673061611484" lon="13.598258701207998"><ele>825.6666666666666</ele><time>2026-05-02T12:51:42.999Z</time></trkpt><trkpt lat="42.066772563224795" lon="13.598188072770977"><ele>826.3333333333333</ele><time>2026-05-02T12:51:43.999Z</time></trkpt><trkpt lat="42.066821445235895" lon="13.598128333744791"><ele>827.0</ele><time>2026-05-02T12:51:44.999Z</time></trkpt><trkpt lat="42.06683836688516" lon="13.598045174409435"><ele>827.6666666666666</ele><time>2026-05-02T12:51:45.999Z</time></trkpt><trkpt lat="42.06687175949513" lon="13.597948439771232"><ele>828.3333333333333</ele><time>2026-05-02T12:51:47.999Z</time></trkpt><trkpt lat="42.06690233174039" lon="13.597855001984655"><ele>829.0</ele><time>2026-05-02T12:51:50.999Z</time></trkpt><trkpt lat="42.067092894245455" lon="13.597941464639586"><ele>829.0</ele><time>2026-05-02T12:51:51.999Z</time></trkpt><trkpt lat="42.06719216317207" lon="13.597944742611773"><ele>829.0</ele><time>2026-05-02T12:51:52.999Z</time></trkpt><trkpt lat="42.06729298973226" lon="13.59793870260854"><ele>829.0</ele><time>2026-05-02T12:51:53.999Z</time></trkpt><trkpt lat="42.06738972465629" lon="13.597979738792455"><ele>829.0</ele><time>2026-05-02T12:51:54.999Z</time></trkpt><trkpt lat="42.06749720383357" lon="13.598018693132092"><ele>829.0</ele><time>2026-05-02T12:51:55.999Z</time></trkpt><trkpt lat="42.06761489884455" lon="13.598050141062389"><ele>831.75</ele><time>2026-05-02T12:51:56.999Z</time></trkpt><trkpt lat="42.06774072782273" lon="13.598082473373706"><ele>834.5</ele><time>2026-05-02T12:51:57.999Z</time></trkpt><trkpt lat="42.06787669708043" lon="13.598113689939256"><ele>837.25</ele><time>2026-05-02T12:51:58.999Z</time></trkpt><trkpt lat="42.068025916108716" lon="13.598151213907638"><ele>840.0</ele><time>2026-05-02T12:51:59.999Z</time></trkpt><trkpt lat="42.06817752159916" lon="13.598202218613533"><ele>842.0</ele><time>2026-05-02T12:52:00.999Z</time></trkpt><trkpt lat="42.068318108776204" lon="13.598245494766328"><ele>844.0</ele><time>2026-05-02T12:52:01.999Z</time></trkpt><trkpt lat="42.068446594433816" lon="13.59825901304073"><ele>846.0</ele><time>2026-05-02T12:52:02.999Z</time></trkpt><trkpt lat="42.068566029178484" lon="13.59830022750367"><ele>848.0</ele><time>2026-05-02T12:52:03.999Z</time></trkpt><trkpt lat="42.06868330214945" lon="13.598312570462209"><ele>848.0</ele><time>2026-05-02T12:52:04.999Z</time></trkpt><trkpt lat="42.06879382340895" lon="13.598352740246716"><ele>848.0</ele><time>2026-05-02T12:52:05.999Z</time></trkpt><trkpt lat="42.06890206455337" lon="13.59838920523132"><ele>848.0</ele><time>2026-05-02T12:52:06.999Z</time></trkpt><trkpt lat="42.06900770771034" lon="13.598420803832061"><ele>848.0</ele><time>2026-05-02T12:52:07.999Z</time></trkpt><trkpt lat="42.069098884716794" lon="13.598444956254095"><ele>848.0</ele><time>2026-05-02T12:52:08.999Z</time></trkpt><trkpt lat="42.0691675390123" lon="13.598462326895747"><ele>850.0</ele><time>2026-05-02T12:52:09.999Z</time></trkpt><trkpt lat="42.06926089440724" lon="13.598521406799744"><ele>852.0</ele><time>2026-05-02T12:52:11.999Z</time></trkpt><trkpt lat="42.06931541331761" lon="13.59864678514446"><ele>854.0</ele><time>2026-05-02T12:52:13.999Z</time></trkpt><trkpt lat="42.06928755778423" lon="13.598781316196707"><ele>856.0</ele><time>2026-05-02T12:52:15.999Z</time></trkpt><trkpt lat="42.06927326097711" lon="13.598872889440024"><ele>858.0</ele><time>2026-05-02T12:52:16.999Z</time></trkpt><trkpt lat="42.06926351464695" lon="13.598981376951087"><ele>858.5</ele><time>2026-05-02T12:52:17.999Z</time></trkpt><trkpt lat="42.06926050099702" lon="13.599102627648119"><ele>859.0</ele><time>2026-05-02T12:52:18.999Z</time></trkpt><trkpt lat="42.069259790800075" lon="13.599224070376648"><ele>859.5</ele><time>2026-05-02T12:52:19.999Z</time></trkpt><trkpt lat="42.0692605390643" lon="13.599334732270004"><ele>860.0</ele><time>2026-05-02T12:52:20.999Z</time></trkpt><trkpt lat="42.06926207646135" lon="13.599426751589569"><ele>860.5</ele><time>2026-05-02T12:52:21.999Z</time></trkpt><trkpt lat="42.06925885991374" lon="13.599513516440714"><ele>861.0</ele><time>2026-05-02T12:52:22.999Z</time></trkpt><trkpt lat="42.06931222846218" lon="13.599641790526226"><ele>861.4</ele><time>2026-05-02T12:52:24.999Z</time></trkpt><trkpt lat="42.06932166737687" lon="13.599741342809132"><ele>861.8</ele><time>2026-05-02T12:52:26.999Z</time></trkpt><trkpt lat="42.06934597460024" lon="13.599825248691442"><ele>862.1999999999999</ele><time>2026-05-02T12:52:30.999Z</time></trkpt><trkpt lat="42.06953098898604" lon="13.599912074080574"><ele>862.5999999999999</ele><time>2026-05-02T12:52:33.999Z</time></trkpt><trkpt lat="42.06961787379299" lon="13.599855198542075"><ele>863.0</ele><time>2026-05-02T12:52:34.999Z</time></trkpt><trkpt lat="42.06972708322329" lon="13.599807584964866"><ele>863.0</ele><time>2026-05-02T12:52:35.999Z</time></trkpt><trkpt lat="42.06984810298805" lon="13.599779765835516"><ele>863.0</ele><time>2026-05-02T12:52:37.002Z</time></trkpt><trkpt lat="42.06997841644831" lon="13.59978013636391"><ele>863.0</ele><time>2026-05-02T12:52:38.002Z</time></trkpt><trkpt lat="42.07011511078224" lon="13.599780427387484"><ele>863.0</ele><time>2026-05-02T12:52:39.002Z</time></trkpt><trkpt lat="42.0702575094318" lon="13.599760523903676"><ele>865.3333333333334</ele><time>2026-05-02T12:52:40.002Z</time></trkpt><trkpt lat="42.070407269147246" lon="13.59972780274828"><ele>867.6666666666667</ele><time>2026-05-02T12:52:41.002Z</time></trkpt><trkpt lat="42.07056210827889" lon="13.599681729740901"><ele>870.0</ele><time>2026-05-02T12:52:42.002Z</time></trkpt><trkpt lat="42.07072370069864" lon="13.59962011786511"><ele>870.0</ele><time>2026-05-02T12:52:43.002Z</time></trkpt><trkpt lat="42.07090748496725" lon="13.599537528465772"><ele>870.0</ele><time>2026-05-02T12:52:44.002Z</time></trkpt><trkpt lat="42.07110037009733" lon="13.599474449709415"><ele>870.0</ele><time>2026-05-02T12:52:45.002Z</time></trkpt><trkpt lat="42.07130014201556" lon="13.599388865111864"><ele>872.0</ele><time>2026-05-02T12:52:46.002Z</time></trkpt><trkpt lat="42.07146328994733" lon="13.599313677300271"><ele>874.0</ele><time>2026-05-02T12:52:47.001Z</time></trkpt><trkpt lat="42.07165715056905" lon="13.599226089007361"><ele>876.0</ele><time>2026-05-02T12:52:48.001Z</time></trkpt><trkpt lat="42.07181183611308" lon="13.59913456434326"><ele>878.3333333333333</ele><time>2026-05-02T12:52:49.001Z</time></trkpt><trkpt lat="42.07198276051181" lon="13.599065938821186"><ele>880.6666666666666</ele><time>2026-05-02T12:52:50.001Z</time></trkpt><trkpt lat="42.072166596782004" lon="13.598987254586158"><ele>883.0</ele><time>2026-05-02T12:52:51.001Z</time></trkpt><trkpt lat="42.0723200058567" lon="13.59893002365649"><ele>885.3333333333333</ele><time>2026-05-02T12:52:52.001Z</time></trkpt><trkpt lat="42.072469756952835" lon="13.598843391014265"><ele>887.6666666666667</ele><time>2026-05-02T12:52:53.001Z</time></trkpt><trkpt lat="42.07262835213894" lon="13.59878870569703"><ele>890.0</ele><time>2026-05-02T12:52:54.001Z</time></trkpt><trkpt lat="42.07279288434098" lon="13.598715607186822"><ele>892.0</ele><time>2026-05-02T12:52:55.001Z</time></trkpt><trkpt lat="42.07294062989793" lon="13.59864996648375"><ele>894.0</ele><time>2026-05-02T12:52:56.001Z</time></trkpt><trkpt lat="42.07309467611705" lon="13.598580923996455"><ele>896.0</ele><time>2026-05-02T12:52:57.001Z</time></trkpt><trkpt lat="42.07324398822062" lon="13.598510722999961"><ele>898.6666666666667</ele><time>2026-05-02T12:52:58.001Z</time></trkpt><trkpt lat="42.07339869107044" lon="13.598436289531517"><ele>901.3333333333333</ele><time>2026-05-02T12:52:59.001Z</time></trkpt><trkpt lat="42.07353855839402" lon="13.59835334192876"><ele>904.0</ele><time>2026-05-02T12:53:00.001Z</time></trkpt><trkpt lat="42.073685583947544" lon="13.598282798459186"><ele>904.0</ele><time>2026-05-02T12:53:01.001Z</time></trkpt><trkpt lat="42.07384147521727" lon="13.59822521122406"><ele>904.0</ele><time>2026-05-02T12:53:02.001Z</time></trkpt><trkpt lat="42.073992011369604" lon="13.598188157126724"><ele>904.0</ele><time>2026-05-02T12:53:03.001Z</time></trkpt><trkpt lat="42.07414277810006" lon="13.598165672345845"><ele>907.0</ele><time>2026-05-02T12:53:04Z</time></trkpt><trkpt lat="42.074299204098736" lon="13.598137097753135"><ele>910.0</ele><time>2026-05-02T12:53:05Z</time></trkpt><trkpt lat="42.07444846367365" lon="13.59815955350703"><ele>913.0</ele><time>2026-05-02T12:53:06Z</time></trkpt><trkpt lat="42.07460791949994" lon="13.598167142429372"><ele>913.0</ele><time>2026-05-02T12:53:07Z</time></trkpt><trkpt lat="42.07476661315877" lon="13.598176493195435"><ele>913.0</ele><time>2026-05-02T12:53:08Z</time></trkpt><trkpt lat="42.074937409792646" lon="13.598186557083164"><ele>913.0</ele><time>2026-05-02T12:53:09Z</time></trkpt><trkpt lat="42.07510460393762" lon="13.59820219341671"><ele>916.6666666666666</ele><time>2026-05-02T12:53:10Z</time></trkpt><trkpt lat="42.0752585132605" lon="13.59820427354594"><ele>920.3333333333333</ele><time>2026-05-02T12:53:11Z</time></trkpt><trkpt lat="42.07541899188367" lon="13.598226107038904"><ele>924.0</ele><time>2026-05-02T12:53:12Z</time></trkpt><trkpt lat="42.075573092310954" lon="13.598246534512194"><ele>924.0</ele><time>2026-05-02T12:53:13Z</time></trkpt><trkpt lat="42.07572340509933" lon="13.598227141030387"><ele>924.0</ele><time>2026-05-02T12:53:14Z</time></trkpt><trkpt lat="42.075872874851925" lon="13.598213728353404"><ele>924.0</ele><time>2026-05-02T12:53:15Z</time></trkpt><trkpt lat="42.07602300203141" lon="13.59820711920867"><ele>926.5</ele><time>2026-05-02T12:53:16Z</time></trkpt><trkpt lat="42.07616142991799" lon="13.598185338265884"><ele>929.0</ele><time>2026-05-02T12:53:17Z</time></trkpt><trkpt lat="42.076279876075795" lon="13.598145473018906"><ele>931.5</ele><time>2026-05-02T12:53:18Z</time></trkpt><trkpt lat="42.07638099013296" lon="13.598115540080078"><ele>934.0</ele><time>2026-05-02T12:53:19Z</time></trkpt><trkpt lat="42.07645599417732" lon="13.598029275160641"><ele>934.0</ele><time>2026-05-02T12:53:20Z</time></trkpt><trkpt lat="42.076533275520184" lon="13.597908576168356"><ele>934.0</ele><time>2026-05-02T12:53:21Z</time></trkpt><trkpt lat="42.07662395112795" lon="13.59777352484727"><ele>934.0</ele><time>2026-05-02T12:53:22Z</time></trkpt><trkpt lat="42.07670051572829" lon="13.59762762318147"><ele>934.0</ele><time>2026-05-02T12:53:23Z</time></trkpt><trkpt lat="42.07676226266968" lon="13.597475910152989"><ele>936.8000000000001</ele><time>2026-05-02T12:53:24Z</time></trkpt><trkpt lat="42.076835880360754" lon="13.59736400883793"><ele>939.6000000000001</ele><time>2026-05-02T12:53:25Z</time></trkpt><trkpt lat="42.076926613925735" lon="13.597331500444412"><ele>942.4</ele><time>2026-05-02T12:53:26Z</time></trkpt><trkpt lat="42.07701232405686" lon="13.597302427104866"><ele>945.2</ele><time>2026-05-02T12:53:27Z</time></trkpt><trkpt lat="42.07710559526539" lon="13.597298150006775"><ele>948.0</ele><time>2026-05-02T12:53:28Z</time></trkpt><trkpt lat="42.07718131694524" lon="13.597368815041508"><ele>948.0</ele><time>2026-05-02T12:53:29Z</time></trkpt><trkpt lat="42.07724841231617" lon="13.597474525763415"><ele>948.0</ele><time>2026-05-02T12:53:30Z</time></trkpt><trkpt lat="42.077300166734084" lon="13.59761275177595"><ele>948.0</ele><time>2026-05-02T12:53:31Z</time></trkpt><trkpt lat="42.07736447388299" lon="13.597755300934773"><ele>948.0</ele><time>2026-05-02T12:53:32Z</time></trkpt><trkpt lat="42.07739460857498" lon="13.597886901790952"><ele>948.0</ele><time>2026-05-02T12:53:33Z</time></trkpt><trkpt lat="42.0774310248952" lon="13.597974620149774"><ele>949.4</ele><time>2026-05-02T12:53:34Z</time></trkpt><trkpt lat="42.07747569896907" lon="13.598039658211755"><ele>950.8</ele><time>2026-05-02T12:53:35Z</time></trkpt><trkpt lat="42.07761584085205" lon="13.597995769991604"><ele>952.2</ele><time>2026-05-02T12:53:37Z</time></trkpt><trkpt lat="42.07765248483152" lon="13.597895789746609"><ele>953.6</ele><time>2026-05-02T12:53:38Z</time></trkpt><trkpt lat="42.07763978656371" lon="13.5977829576879"><ele>955.0</ele><time>2026-05-02T12:53:39Z</time></trkpt><trkpt lat="42.07762774864462" lon="13.59764918649399"><ele>952.6666666666666</ele><time>2026-05-02T12:53:40Z</time></trkpt><trkpt lat="42.07756294641432" lon="13.59751188471093"><ele>950.3333333333333</ele><time>2026-05-02T12:53:41Z</time></trkpt><trkpt lat="42.077482985707704" lon="13.597315366612609"><ele>948.0</ele><time>2026-05-02T12:53:42Z</time></trkpt><trkpt lat="42.07740312580687" lon="13.597110792715688"><ele>950.6666666666667</ele><time>2026-05-02T12:53:43Z</time></trkpt><trkpt lat="42.07730198913298" lon="13.5968978559808"><ele>953.3333333333334</ele><time>2026-05-02T12:53:44Z</time></trkpt><trkpt lat="42.077215789544134" lon="13.596660850608373"><ele>956.0</ele><time>2026-05-02T12:53:45Z</time></trkpt><trkpt lat="42.077117437444066" lon="13.596444772084425"><ele>956.0</ele><time>2026-05-02T12:53:46Z</time></trkpt><trkpt lat="42.07707196867814" lon="13.596243851678897"><ele>956.0</ele><time>2026-05-02T12:53:47Z</time></trkpt><trkpt lat="42.07705278221496" lon="13.596053580153903"><ele>956.0</ele><time>2026-05-02T12:53:48Z</time></trkpt><trkpt lat="42.077073501586284" lon="13.595943876947613"><ele>956.0</ele><time>2026-05-02T12:53:49Z</time></trkpt><trkpt lat="42.077178601666525" lon="13.595779602344429"><ele>955.75</ele><time>2026-05-02T12:53:51Z</time></trkpt><trkpt lat="42.07726211859961" lon="13.595627787701508"><ele>955.5</ele><time>2026-05-02T12:53:52Z</time></trkpt><trkpt lat="42.07736282791478" lon="13.595496821580515"><ele>955.25</ele><time>2026-05-02T12:53:53Z</time></trkpt><trkpt lat="42.07748600118712" lon="13.595364245357183"><ele>955.0</ele><time>2026-05-02T12:53:54Z</time></trkpt><trkpt lat="42.0776174914228" lon="13.595216918986505"><ele>959.6666666666666</ele><time>2026-05-02T12:53:55Z</time></trkpt><trkpt lat="42.0777643620381" lon="13.595050095012235"><ele>964.3333333333333</ele><time>2026-05-02T12:53:56Z</time></trkpt><trkpt lat="42.077897875457474" lon="13.594896639779225"><ele>969.0</ele><time>2026-05-02T12:53:57Z</time></trkpt><trkpt lat="42.07801454870185" lon="13.594774659983116"><ele>969.0</ele><time>2026-05-02T12:53:58Z</time></trkpt><trkpt lat="42.07813966303939" lon="13.594705371206999"><ele>969.0</ele><time>2026-05-02T12:53:59Z</time></trkpt><trkpt lat="42.07825589226067" lon="13.594610538795047"><ele>969.0</ele><time>2026-05-02T12:54:00Z</time></trkpt><trkpt lat="42.07834237298091" lon="13.594545925147871"><ele>969.0</ele><time>2026-05-02T12:54:01Z</time></trkpt><trkpt lat="42.07840255796434" lon="13.59447384957651"><ele>973.25</ele><time>2026-05-02T12:54:02Z</time></trkpt><trkpt lat="42.07842411072447" lon="13.59436822118335"><ele>977.5</ele><time>2026-05-02T12:54:03Z</time></trkpt><trkpt lat="42.07841278999335" lon="13.594265475272294"><ele>981.75</ele><time>2026-05-02T12:54:04Z</time></trkpt><trkpt lat="42.07835726973165" lon="13.59420048055837"><ele>986.0</ele><time>2026-05-02T12:54:05Z</time></trkpt><trkpt lat="42.07830871782021" lon="13.593914463391267"><ele>986.0</ele><time>2026-05-02T12:54:07Z</time></trkpt><trkpt lat="42.078384786300674" lon="13.593713404518656"><ele>986.0</ele><time>2026-05-02T12:54:08Z</time></trkpt><trkpt lat="42.07848668369515" lon="13.593604097216245"><ele>986.0</ele><time>2026-05-02T12:54:09Z</time></trkpt><trkpt lat="42.07859171046681" lon="13.593477977616683"><ele>986.0</ele><time>2026-05-02T12:54:10Z</time></trkpt><trkpt lat="42.07869526003491" lon="13.593348171743028"><ele>982.6666666666667</ele><time>2026-05-02T12:54:11Z</time></trkpt><trkpt lat="42.07882059476654" lon="13.593246190193389"><ele>979.3333333333333</ele><time>2026-05-02T12:54:12Z</time></trkpt><trkpt lat="42.078950725725605" lon="13.59311800834677"><ele>976.0</ele><time>2026-05-02T12:54:13Z</time></trkpt><trkpt lat="42.07906815189467" lon="13.59299601381724"><ele>979.5</ele><time>2026-05-02T12:54:14Z</time></trkpt><trkpt lat="42.07919113690726" lon="13.592900711160613"><ele>983.0</ele><time>2026-05-02T12:54:15Z</time></trkpt><trkpt lat="42.079299550696845" lon="13.592802320841084"><ele>986.5</ele><time>2026-05-02T12:54:16Z</time></trkpt><trkpt lat="42.07940344592975" lon="13.592699366371274"><ele>990.0</ele><time>2026-05-02T12:54:17Z</time></trkpt><trkpt lat="42.07950522205181" lon="13.592613913845273"><ele>990.0</ele><time>2026-05-02T12:54:18Z</time></trkpt><trkpt lat="42.0796277185186" lon="13.592535401228437"><ele>990.0</ele><time>2026-05-02T12:54:19Z</time></trkpt><trkpt lat="42.079724937153486" lon="13.592434474877697"><ele>990.0</ele><time>2026-05-02T12:54:20Z</time></trkpt><trkpt lat="42.07982002729329" lon="13.592343106881245"><ele>990.0</ele><time>2026-05-02T12:54:21Z</time></trkpt><trkpt lat="42.079923555170005" lon="13.592252723292289"><ele>993.5</ele><time>2026-05-02T12:54:22Z</time></trkpt><trkpt lat="42.08002959669223" lon="13.592130383820544"><ele>997.0</ele><time>2026-05-02T12:54:23Z</time></trkpt><trkpt lat="42.080137724473374" lon="13.592029618471207"><ele>1000.5</ele><time>2026-05-02T12:54:24Z</time></trkpt><trkpt lat="42.080264479520494" lon="13.591956572472553"><ele>1004.0</ele><time>2026-05-02T12:54:25Z</time></trkpt><trkpt lat="42.08036938790647" lon="13.591866234136166"><ele>1004.0</ele><time>2026-05-02T12:54:26Z</time></trkpt><trkpt lat="42.08047817901629" lon="13.591782912960674"><ele>1004.0</ele><time>2026-05-02T12:54:27Z</time></trkpt><trkpt lat="42.08057277155448" lon="13.591678415501274"><ele>1004.0</ele><time>2026-05-02T12:54:28Z</time></trkpt><trkpt lat="42.08066179449857" lon="13.59158915999028"><ele>1004.0</ele><time>2026-05-02T12:54:29Z</time></trkpt><trkpt lat="42.08073554308804" lon="13.591515171172343"><ele>1004.0</ele><time>2026-05-02T12:54:30Z</time></trkpt><trkpt lat="42.08072872915188" lon="13.591420231169327"><ele>1004.0000000000001</ele><time>2026-05-02T12:54:31Z</time></trkpt><trkpt lat="42.080762219379515" lon="13.59129420600874"><ele>1004.0000000000001</ele><time>2026-05-02T12:54:33Z</time></trkpt><trkpt lat="42.08076565546427" lon="13.59120411303478"><ele>1004.0</ele><time>2026-05-02T12:54:36Z</time></trkpt><trkpt lat="42.080756851390404" lon="13.590998127393457"><ele>1004.0</ele><time>2026-05-02T12:54:37Z</time></trkpt><trkpt lat="42.08053935173425" lon="13.591061104238294"><ele>1005.25</ele><time>2026-05-02T12:54:38Z</time></trkpt><trkpt lat="42.08038152370325" lon="13.591004315288185"><ele>1006.5</ele><time>2026-05-02T12:54:39Z</time></trkpt><trkpt lat="42.08024548670361" lon="13.590909983364982"><ele>1007.75</ele><time>2026-05-02T12:54:40Z</time></trkpt><trkpt lat="42.080122525014346" lon="13.590859032405499"><ele>1009.0</ele><time>2026-05-02T12:54:41Z</time></trkpt><trkpt lat="42.08003827942811" lon="13.590749441702744"><ele>1009.0</ele><time>2026-05-02T12:54:42Z</time></trkpt><trkpt lat="42.07996656942576" lon="13.590681997801044"><ele>1009.0000000000001</ele><time>2026-05-02T12:54:43Z</time></trkpt><trkpt lat="42.07989094336577" lon="13.590629208071881"><ele>1009.0000000000001</ele><time>2026-05-02T12:54:44Z</time></trkpt><trkpt lat="42.07979985468636" lon="13.590562339625677"><ele>1009.0</ele><time>2026-05-02T12:54:46Z</time></trkpt><trkpt lat="42.07973695035864" lon="13.590446498353058"><ele>1009.0</ele><time>2026-05-02T12:54:49Z</time></trkpt><trkpt lat="42.07970619673708" lon="13.590329512665429"><ele>1002.0</ele><time>2026-05-02T12:54:51Z</time></trkpt><trkpt lat="42.07968142364793" lon="13.590240037369089"><ele>995.0</ele><time>2026-05-02T12:54:54Z</time></trkpt><trkpt lat="42.079733050460284" lon="13.590462035529107"><ele>988.0</ele><time>2026-05-02T12:55:01Z</time></trkpt><trkpt lat="42.07977589062067" lon="13.590553364403867"><ele>981.0</ele><time>2026-05-02T12:55:02Z</time></trkpt><trkpt lat="42.07985947561422" lon="13.590705005910413"><ele>988.0</ele><time>2026-05-02T12:55:04Z</time></trkpt><trkpt lat="42.080010149386396" lon="13.590769383023586"><ele>995.0</ele><time>2026-05-02T12:55:05Z</time></trkpt><trkpt lat="42.08013540596636" lon="13.590867609839366"><ele>1002.0</ele><time>2026-05-02T12:55:06Z</time></trkpt><trkpt lat="42.08024452595271" lon="13.590949781217672"><ele>1009.0</ele><time>2026-05-02T12:55:07Z</time></trkpt><trkpt lat="42.08032961499762" lon="13.591011470196497"><ele>1008.9999999999999</ele><time>2026-05-02T12:55:08Z</time></trkpt><trkpt lat="42.08040069837331" lon="13.591064703156647"><ele>1009.0</ele><time>2026-05-02T12:55:09Z</time></trkpt><trkpt lat="42.080460987057585" lon="13.59111737704613"><ele>1009.0</ele><time>2026-05-02T12:55:10Z</time></trkpt><trkpt lat="42.080546045179354" lon="13.591185865744022"><ele>1009.0</ele><time>2026-05-02T12:55:11Z</time></trkpt><trkpt lat="42.08060769833465" lon="13.591231533319059"><ele>1008.9999999999999</ele><time>2026-05-02T12:55:12Z</time></trkpt><trkpt lat="42.08068204449576" lon="13.591286602724876"><ele>1009.0</ele><time>2026-05-02T12:55:14Z</time></trkpt><trkpt lat="42.080764311116944" lon="13.591235629410043"><ele>1009.0</ele><time>2026-05-02T12:55:17Z</time></trkpt><trkpt lat="42.0808040179065" lon="13.591138940602548"><ele>1009.0000000000001</ele><time>2026-05-02T12:55:19Z</time></trkpt><trkpt lat="42.08079581172459" lon="13.590998592266912"><ele>1009.0000000000001</ele><time>2026-05-02T12:55:21Z</time></trkpt><trkpt lat="42.080668230778016" lon="13.590905026976673"><ele>1009.0</ele><time>2026-05-02T12:55:23Z</time></trkpt><trkpt lat="42.08058836567423" lon="13.590840122032882"><ele>1009.0</ele><time>2026-05-02T12:55:24Z</time></trkpt><trkpt lat="42.0804827377492" lon="13.590748751574353"><ele>1009.0</ele><time>2026-05-02T12:55:25Z</time></trkpt><trkpt lat="42.080388125013954" lon="13.590661291052172"><ele>1009.0000000000001</ele><time>2026-05-02T12:55:26Z</time></trkpt><trkpt lat="42.08030577639119" lon="13.59058516767475"><ele>1009.0000000000001</ele><time>2026-05-02T12:55:27Z</time></trkpt><trkpt lat="42.08022776108364" lon="13.590514847831832"><ele>1009.0</ele><time>2026-05-02T12:55:28Z</time></trkpt><trkpt lat="42.08014307955807" lon="13.590455262194391"><ele>1009.0</ele><time>2026-05-02T12:55:29Z</time></trkpt><trkpt lat="42.080090634498895" lon="13.590388531152668"><ele>1009.4000000000001</ele><time>2026-05-02T12:55:30Z</time></trkpt><trkpt lat="42.08007251130545" lon="13.590278718053844"><ele>1009.8000000000001</ele><time>2026-05-02T12:55:31.999Z</time></trkpt><trkpt lat="42.08019255163195" lon="13.590171194057906"><ele>1010.1999999999999</ele><time>2026-05-02T12:55:34.999Z</time></trkpt><trkpt lat="42.08021246090844" lon="13.590080589006675"><ele>1010.5999999999999</ele><time>2026-05-02T12:55:35.999Z</time></trkpt><trkpt lat="42.080234410488075" lon="13.589989676469127"><ele>1011.0</ele><time>2026-05-02T12:55:36.999Z</time></trkpt><trkpt lat="42.08028796086998" lon="13.589843823073872"><ele>1011.0</ele><time>2026-05-02T12:55:38.999Z</time></trkpt><trkpt lat="42.08031003576959" lon="13.589753497868044"><ele>1011.0</ele><time>2026-05-02T12:55:39.999Z</time></trkpt><trkpt lat="42.080350951324114" lon="13.58963884301512"><ele>1011.0</ele><time>2026-05-02T12:55:41.999Z</time></trkpt><trkpt lat="42.08037152150154" lon="13.58952048133205"><ele>1011.0</ele><time>2026-05-02T12:55:45.999Z</time></trkpt><trkpt lat="42.08039023429361" lon="13.5893704102322"><ele>1011.0</ele><time>2026-05-02T12:55:47.999Z</time></trkpt><trkpt lat="42.08041146922095" lon="13.589276403922302"><ele>1011.0</ele><time>2026-05-02T12:55:49.999Z</time></trkpt><trkpt lat="42.08052773881586" lon="13.589293568086775"><ele>1010.1999999999999</ele><time>2026-05-02T12:55:52.999Z</time></trkpt><trkpt lat="42.080624023634556" lon="13.58929465828837"><ele>1009.3999999999999</ele><time>2026-05-02T12:55:53.999Z</time></trkpt><trkpt lat="42.08074263630314" lon="13.58929600129947"><ele>1008.6</ele><time>2026-05-02T12:55:54.999Z</time></trkpt><trkpt lat="42.0808589539452" lon="13.589292070887847"><ele>1007.8</ele><time>2026-05-02T12:55:55.999Z</time></trkpt><trkpt lat="42.08096537267367" lon="13.589290063883597"><ele>1007.0</ele><time>2026-05-02T12:55:56.999Z</time></trkpt><trkpt lat="42.081032722514905" lon="13.589336624701449"><ele>1007.0</ele><time>2026-05-02T12:55:57.999Z</time></trkpt><trkpt lat="42.08113073735761" lon="13.589383727884107"><ele>1007.0</ele><time>2026-05-02T12:55:58.999Z</time></trkpt><trkpt lat="42.081231923603404" lon="13.589440374467815"><ele>1007.0</ele><time>2026-05-02T12:55:59.999Z</time></trkpt><trkpt lat="42.08131706016584" lon="13.589488980405912"><ele>1007.0</ele><time>2026-05-02T12:56:00.999Z</time></trkpt><trkpt lat="42.081393394993945" lon="13.58952842851477"><ele>1007.0</ele><time>2026-05-02T12:56:01.999Z</time></trkpt><trkpt lat="42.08146851365654" lon="13.58956585159153"><ele>1009.6666666666667</ele><time>2026-05-02T12:56:02.999Z</time></trkpt><trkpt lat="42.081561254393414" lon="13.589592259527587"><ele>1012.3333333333334</ele><time>2026-05-02T12:56:03.999Z</time></trkpt><trkpt lat="42.081685155782225" lon="13.589606686406205"><ele>1015.0</ele><time>2026-05-02T12:56:05.999Z</time></trkpt><trkpt lat="42.08176360428656" lon="13.589613031229755"><ele>1017.6666666666667</ele><time>2026-05-02T12:56:06.999Z</time></trkpt><trkpt lat="42.08184285674396" lon="13.589602790824916"><ele>1020.3333333333334</ele><time>2026-05-02T12:56:07.999Z</time></trkpt><trkpt lat="42.08191090098147" lon="13.589589817500928"><ele>1023.0</ele><time>2026-05-02T12:56:08.999Z</time></trkpt><trkpt lat="42.082013311874846" lon="13.589583893290941"><ele>1023.3333333333334</ele><time>2026-05-02T12:56:10.999Z</time></trkpt><trkpt lat="42.08209969965084" lon="13.589613753454861"><ele>1023.6666666666667</ele><time>2026-05-02T12:56:12.999Z</time></trkpt><trkpt lat="42.082168769563026" lon="13.58965098076037"><ele>1024.0</ele><time>2026-05-02T12:56:15.999Z</time></trkpt><trkpt lat="42.08224720852619" lon="13.589685036251598"><ele>1024.3333333333335</ele><time>2026-05-02T12:56:17.999Z</time></trkpt><trkpt lat="42.08234441893114" lon="13.58970421440264"><ele>1024.6666666666667</ele><time>2026-05-02T12:56:19.999Z</time></trkpt><trkpt lat="42.08243602830617" lon="13.58970212258203"><ele>1025.0</ele><time>2026-05-02T12:56:21.999Z</time></trkpt><trkpt lat="42.08254602181255" lon="13.589691232666208"><ele>1025.75</ele><time>2026-05-02T12:56:23.999Z</time></trkpt><trkpt lat="42.08265672219907" lon="13.589704977172032"><ele>1026.5</ele><time>2026-05-02T12:56:25.999Z</time></trkpt><trkpt lat="42.082731971515216" lon="13.589753831698772"><ele>1027.25</ele><time>2026-05-02T12:56:27.999Z</time></trkpt><trkpt lat="42.08284081184186" lon="13.589663848137237"><ele>1028.0</ele><time>2026-05-02T12:56:37.999Z</time></trkpt><trkpt lat="42.08272030244758" lon="13.589553010041694"><ele>1024.6666666666667</ele><time>2026-05-02T12:56:38.999Z</time></trkpt><trkpt lat="42.08269851251234" lon="13.589470139859937"><ele>1021.3333333333334</ele><time>2026-05-02T12:56:39.999Z</time></trkpt><trkpt lat="42.08271329492416" lon="13.58935857694414"><ele>1018.0</ele><time>2026-05-02T12:56:40.999Z</time></trkpt><trkpt lat="42.082728965397735" lon="13.589268688123875"><ele>1014.6666666666667</ele><time>2026-05-02T12:56:41.999Z</time></trkpt><trkpt lat="42.08271064753216" lon="13.589121145818334"><ele>1011.3333333333334</ele><time>2026-05-02T12:56:43.999Z</time></trkpt><trkpt lat="42.08264369101266" lon="13.58906857846114"><ele>1008.0</ele><time>2026-05-02T12:56:44.999Z</time></trkpt><trkpt lat="42.082640051941084" lon="13.588977091729907"><ele>1008.0</ele><time>2026-05-02T12:56:47.999Z</time></trkpt><trkpt lat="42.08271035398137" lon="13.58892853914073"><ele>1008.0</ele><time>2026-05-02T12:56:50.999Z</time></trkpt><trkpt lat="42.082810617027675" lon="13.58899542699672"><ele>1008.0</ele><time>2026-05-02T12:56:52.999Z</time></trkpt><trkpt lat="42.08286996922368" lon="13.589088341735803"><ele>1008.0</ele><time>2026-05-02T12:56:53.999Z</time></trkpt><trkpt lat="42.082937215318196" lon="13.589123413214372"><ele>1008.0</ele><time>2026-05-02T12:56:54.999Z</time></trkpt><trkpt lat="42.08301611469554" lon="13.589163660132282"><ele>1008.0</ele><time>2026-05-02T12:56:55.999Z</time></trkpt><trkpt lat="42.083094427298214" lon="13.589197424637538"><ele>1008.0</ele><time>2026-05-02T12:56:56.999Z</time></trkpt><trkpt lat="42.08317381386579" lon="13.589231651719544"><ele>1008.0</ele><time>2026-05-02T12:56:57.999Z</time></trkpt><trkpt lat="42.08325134038379" lon="13.58926507681213"><ele>1008.0</ele><time>2026-05-02T12:56:58.999Z</time></trkpt><trkpt lat="42.08332529121069" lon="13.58929696034517"><ele>1008.0</ele><time>2026-05-02T12:56:59.999Z</time></trkpt><trkpt lat="42.08346160250125" lon="13.589061370723122"><ele>1006.2</ele><time>2026-05-02T12:57:00.999Z</time></trkpt><trkpt lat="42.083535962187725" lon="13.589065657214617"><ele>1004.4</ele><time>2026-05-02T12:57:01.999Z</time></trkpt><trkpt lat="42.08360583573475" lon="13.589064859466008"><ele>1002.6000000000001</ele><time>2026-05-02T12:57:02.999Z</time></trkpt><trkpt lat="42.083682156323185" lon="13.588854114528868"><ele>1000.8000000000001</ele><time>2026-05-02T12:57:03.999Z</time></trkpt><trkpt lat="42.083758841390306" lon="13.588856038184847"><ele>999.0</ele><time>2026-05-02T12:57:04.999Z</time></trkpt><trkpt lat="42.08383857723588" lon="13.588838096519135"><ele>999.0</ele><time>2026-05-02T12:57:05.999Z</time></trkpt><trkpt lat="42.08391030341436" lon="13.588860233297703"><ele>999.0000000000001</ele><time>2026-05-02T12:57:06.999Z</time></trkpt><trkpt lat="42.083986346929564" lon="13.588848780729991"><ele>999.0</ele><time>2026-05-02T12:57:07.999Z</time></trkpt><trkpt lat="42.08406066128099" lon="13.588845384515931"><ele>999.0</ele><time>2026-05-02T12:57:08.999Z</time></trkpt><trkpt lat="42.08413274282142" lon="13.58883796415311"><ele>999.0000000000001</ele><time>2026-05-02T12:57:09.999Z</time></trkpt><trkpt lat="42.08419651131923" lon="13.588830340972082"><ele>999.0</ele><time>2026-05-02T12:57:10.999Z</time></trkpt><trkpt lat="42.08426004728135" lon="13.588827157584864"><ele>999.0</ele><time>2026-05-02T12:57:11.999Z</time></trkpt><trkpt lat="42.084324241521415" lon="13.588817980206121"><ele>997.5714285714287</ele><time>2026-05-02T12:57:12.999Z</time></trkpt><trkpt lat="42.084390143569784" lon="13.58881893962256"><ele>996.1428571428572</ele><time>2026-05-02T12:57:13.999Z</time></trkpt><trkpt lat="42.084453941915314" lon="13.588814140514746"><ele>994.7142857142858</ele><time>2026-05-02T12:57:14.999Z</time></trkpt><trkpt lat="42.08452242757261" lon="13.588802620245513"><ele>993.2857142857142</ele><time>2026-05-02T12:57:15.999Z</time></trkpt><trkpt lat="42.084593748432326" lon="13.58877976971359"><ele>991.8571428571428</ele><time>2026-05-02T12:57:16.999Z</time></trkpt><trkpt lat="42.08466641622319" lon="13.58877895038038"><ele>990.4285714285713</ele><time>2026-05-02T12:57:17.999Z</time></trkpt><trkpt lat="42.08476991956339" lon="13.588790181357842"><ele>989.0</ele><time>2026-05-02T12:57:19.999Z</time></trkpt><trkpt lat="42.08482560155944" lon="13.58874259513739"><ele>983.75</ele><time>2026-05-02T12:57:21.999Z</time></trkpt><trkpt lat="42.084727629926256" lon="13.588592915915537"><ele>978.5</ele><time>2026-05-02T12:57:26.999Z</time></trkpt><trkpt lat="42.08460784114433" lon="13.588591638120631"><ele>973.25</ele><time>2026-05-02T12:57:28.999Z</time></trkpt><trkpt lat="42.08448877675311" lon="13.588542837984017"><ele>968.0</ele><time>2026-05-02T12:57:30.999Z</time></trkpt><trkpt lat="42.08441941565849" lon="13.588495436820306"><ele>968.0000000000001</ele><time>2026-05-02T12:57:31.999Z</time></trkpt><trkpt lat="42.08434883848683" lon="13.588448448574889"><ele>968.0</ele><time>2026-05-02T12:57:32.999Z</time></trkpt><trkpt lat="42.08430299068215" lon="13.588376450373636"><ele>968.0</ele><time>2026-05-02T12:57:33.999Z</time></trkpt><trkpt lat="42.08422441852756" lon="13.58834901536601"><ele>968.0</ele><time>2026-05-02T12:57:34.999Z</time></trkpt><trkpt lat="42.08415651094796" lon="13.5882521584937"><ele>968.0000000000001</ele><time>2026-05-02T12:57:35.999Z</time></trkpt><trkpt lat="42.08415633341267" lon="13.588146619167263"><ele>968.0</ele><time>2026-05-02T12:57:36.999Z</time></trkpt><trkpt lat="42.0841996236881" lon="13.588047210052094"><ele>968.0</ele><time>2026-05-02T12:57:37.999Z</time></trkpt><trkpt lat="42.084254170538955" lon="13.587998658848173"><ele>968.0</ele><time>2026-05-02T12:57:38.999Z</time></trkpt><trkpt lat="42.08434405905272" lon="13.587927414816535"><ele>968.0</ele><time>2026-05-02T12:57:40.999Z</time></trkpt><trkpt lat="42.08442685044242" lon="13.587846462994793"><ele>968.0</ele><time>2026-05-02T12:57:42.999Z</time></trkpt><trkpt lat="42.084520614035355" lon="13.587754807820914"><ele>968.0</ele><time>2026-05-02T12:57:44.999Z</time></trkpt><trkpt lat="42.08458548534226" lon="13.587643073465049"><ele>965.4</ele><time>2026-05-02T12:57:46.999Z</time></trkpt><trkpt lat="42.08467519198083" lon="13.587497900230955"><ele>962.8</ele><time>2026-05-02T12:57:48.999Z</time></trkpt><trkpt lat="42.0847403306955" lon="13.587422297941087"><ele>960.2</ele><time>2026-05-02T12:57:49.999Z</time></trkpt><trkpt lat="42.0848093278715" lon="13.587349136268527"><ele>957.6</ele><time>2026-05-02T12:57:50.999Z</time></trkpt><trkpt lat="42.08487927892086" lon="13.587280150024608"><ele>955.0</ele><time>2026-05-02T12:57:51.999Z</time></trkpt><trkpt lat="42.084960192873744" lon="13.587205702689404"><ele>954.2</ele><time>2026-05-02T12:57:52.999Z</time></trkpt><trkpt lat="42.085041236781834" lon="13.587152352460098"><ele>953.4</ele><time>2026-05-02T12:57:53.999Z</time></trkpt><trkpt lat="42.08511812522626" lon="13.587112154073782"><ele>952.5999999999999</ele><time>2026-05-02T12:57:54.999Z</time></trkpt><trkpt lat="42.08518408031981" lon="13.587083536943215"><ele>951.8</ele><time>2026-05-02T12:57:55.999Z</time></trkpt><trkpt lat="42.08531302358283" lon="13.587043101154183"><ele>951.0</ele><time>2026-05-02T12:57:57.999Z</time></trkpt><trkpt lat="42.08540914177405" lon="13.587020847734914"><ele>949.8</ele><time>2026-05-02T12:58:00.999Z</time></trkpt><trkpt lat="42.085504093133096" lon="13.586963786886392"><ele>948.5999999999999</ele><time>2026-05-02T12:58:02.999Z</time></trkpt><trkpt lat="42.08555760054793" lon="13.586835304867126"><ele>947.4</ele><time>2026-05-02T12:58:04.999Z</time></trkpt><trkpt lat="42.085528096427005" lon="13.58665590429961"><ele>946.2</ele><time>2026-05-02T12:58:06.999Z</time></trkpt><trkpt lat="42.08550561124895" lon="13.586553524527975"><ele>945.0</ele><time>2026-05-02T12:58:07.999Z</time></trkpt><trkpt lat="42.08547807648616" lon="13.586461089540268"><ele>945.0</ele><time>2026-05-02T12:58:08.999Z</time></trkpt><trkpt lat="42.085444685231764" lon="13.586376867588305"><ele>945.0</ele><time>2026-05-02T12:58:09.999Z</time></trkpt><trkpt lat="42.085426105513406" lon="13.586293062930404"><ele>945.0</ele><time>2026-05-02T12:58:10.999Z</time></trkpt><trkpt lat="42.08539226223296" lon="13.586205148760966"><ele>945.0</ele><time>2026-05-02T12:58:11.999Z</time></trkpt><trkpt lat="42.085354957921666" lon="13.586072394782667"><ele>945.0</ele><time>2026-05-02T12:58:12.999Z</time></trkpt><trkpt lat="42.08535215272729" lon="13.585909744100631"><ele>945.0</ele><time>2026-05-02T12:58:13.999Z</time></trkpt><trkpt lat="42.08538512727786" lon="13.585785037027101"><ele>944.8</ele><time>2026-05-02T12:58:14.999Z</time></trkpt><trkpt lat="42.085420606553626" lon="13.585687654673816"><ele>944.6</ele><time>2026-05-02T12:58:15.999Z</time></trkpt><trkpt lat="42.085453079566456" lon="13.585597185527408"><ele>944.4000000000001</ele><time>2026-05-02T12:58:16.999Z</time></trkpt><trkpt lat="42.08548600571476" lon="13.585501592179376"><ele>944.2</ele><time>2026-05-02T12:58:17.999Z</time></trkpt><trkpt lat="42.08552194833138" lon="13.585397241525737"><ele>944.0</ele><time>2026-05-02T12:58:18.999Z</time></trkpt><trkpt lat="42.085579271418304" lon="13.585231770725294"><ele>943.6666666666667</ele><time>2026-05-02T12:58:19.999Z</time></trkpt><trkpt lat="42.08561371372552" lon="13.58509918503275"><ele>943.3333333333334</ele><time>2026-05-02T12:58:20.999Z</time></trkpt><trkpt lat="42.08567255997373" lon="13.584983733986094"><ele>943.0</ele><time>2026-05-02T12:58:21.999Z</time></trkpt><trkpt lat="42.085713677328634" lon="13.58487239685994"><ele>942.6666666666667</ele><time>2026-05-02T12:58:22.999Z</time></trkpt><trkpt lat="42.085746809164796" lon="13.58478245484109"><ele>942.3333333333334</ele><time>2026-05-02T12:58:23.999Z</time></trkpt><trkpt lat="42.085775273434834" lon="13.58469522344307"><ele>942.0</ele><time>2026-05-02T12:58:24.999Z</time></trkpt><trkpt lat="42.08580443994924" lon="13.584614575990301"><ele>946.4000000000001</ele><time>2026-05-02T12:58:25.999Z</time></trkpt><trkpt lat="42.08587230834312" lon="13.584498826685211"><ele>950.8000000000001</ele><time>2026-05-02T12:58:27.999Z</time></trkpt><trkpt lat="42.085926311877365" lon="13.584422589729602"><ele>955.2</ele><time>2026-05-02T12:58:29.999Z</time></trkpt><trkpt lat="42.08597783670706" lon="13.58434740279643"><ele>959.6</ele><time>2026-05-02T12:58:33.999Z</time></trkpt><trkpt lat="42.086132794401884" lon="13.584245802980716"><ele>964.0</ele><time>2026-05-02T12:58:35.999Z</time></trkpt><trkpt lat="42.08610525160764" lon="13.58408780574901"><ele>963.9999999999999</ele><time>2026-05-02T12:58:37.999Z</time></trkpt><trkpt lat="42.08608477939442" lon="13.58397580217342"><ele>964.0</ele><time>2026-05-02T12:58:38.999Z</time></trkpt><trkpt lat="42.08606295030638" lon="13.583867535032923"><ele>964.0</ele><time>2026-05-02T12:58:39.999Z</time></trkpt><trkpt lat="42.086040268627656" lon="13.583758447639525"><ele>964.0</ele><time>2026-05-02T12:58:40.999Z</time></trkpt><trkpt lat="42.0860090566664" lon="13.583644281504803"><ele>963.9999999999999</ele><time>2026-05-02T12:58:41.999Z</time></trkpt><trkpt lat="42.08596546163017" lon="13.583520847490853"><ele>964.0</ele><time>2026-05-02T12:58:42.999Z</time></trkpt><trkpt lat="42.08591600453445" lon="13.583402251662664"><ele>964.6</ele><time>2026-05-02T12:58:43.999Z</time></trkpt><trkpt lat="42.08586102381653" lon="13.583279738480357"><ele>965.2</ele><time>2026-05-02T12:58:44.999Z</time></trkpt><trkpt lat="42.08580644725292" lon="13.583162798969566"><ele>965.8000000000001</ele><time>2026-05-02T12:58:45.999Z</time></trkpt><trkpt lat="42.08573604689074" lon="13.58305872697494"><ele>966.4000000000001</ele><time>2026-05-02T12:58:46.999Z</time></trkpt><trkpt lat="42.085679668173746" lon="13.582944728904"><ele>967.0</ele><time>2026-05-02T12:58:47.999Z</time></trkpt><trkpt lat="42.08562717533175" lon="13.582839438993854"><ele>965.6</ele><time>2026-05-02T12:58:48.999Z</time></trkpt><trkpt lat="42.08558693841006" lon="13.58273130141937"><ele>964.2</ele><time>2026-05-02T12:58:49.999Z</time></trkpt><trkpt lat="42.085527579854094" lon="13.582631714813312"><ele>962.8</ele><time>2026-05-02T12:58:50.999Z</time></trkpt><trkpt lat="42.08548648191885" lon="13.582501743422267"><ele>961.4</ele><time>2026-05-02T12:58:51.999Z</time></trkpt><trkpt lat="42.08543981275075" lon="13.582358374754735"><ele>960.0</ele><time>2026-05-02T12:58:52.999Z</time></trkpt><trkpt lat="42.08539581894706" lon="13.58221525978804"><ele>960.0</ele><time>2026-05-02T12:58:53.999Z</time></trkpt><trkpt lat="42.08535845024557" lon="13.582062047467865"><ele>960.0</ele><time>2026-05-02T12:58:54.999Z</time></trkpt><trkpt lat="42.08530941513719" lon="13.58191281194885"><ele>960.0</ele><time>2026-05-02T12:58:55.999Z</time></trkpt><trkpt lat="42.085250409987786" lon="13.581765171031224"><ele>960.0</ele><time>2026-05-02T12:58:56.999Z</time></trkpt><trkpt lat="42.08519963598095" lon="13.581619638548627"><ele>962.25</ele><time>2026-05-02T12:58:57.999Z</time></trkpt><trkpt lat="42.08515245796392" lon="13.581480123151453"><ele>964.5</ele><time>2026-05-02T12:58:58.999Z</time></trkpt><trkpt lat="42.085104572688245" lon="13.581339169143632"><ele>966.75</ele><time>2026-05-02T12:58:59.999Z</time></trkpt><trkpt lat="42.08506749074024" lon="13.581190959197256"><ele>969.0</ele><time>2026-05-02T12:59:00.999Z</time></trkpt><trkpt lat="42.08502398488015" lon="13.581057510646446"><ele>970.0</ele><time>2026-05-02T12:59:01.999Z</time></trkpt><trkpt lat="42.08497186337262" lon="13.580937826121435"><ele>971.0</ele><time>2026-05-02T12:59:02.999Z</time></trkpt><trkpt lat="42.08493852198577" lon="13.580826996509186"><ele>972.0</ele><time>2026-05-02T12:59:03.999Z</time></trkpt><trkpt lat="42.08492510549753" lon="13.580720418115634"><ele>973.0</ele><time>2026-05-02T12:59:04.999Z</time></trkpt><trkpt lat="42.084884964834785" lon="13.580639252691894"><ele>974.0</ele><time>2026-05-02T12:59:05.999Z</time></trkpt><trkpt lat="42.08487789733988" lon="13.580548829621709"><ele>975.0</ele><time>2026-05-02T12:59:06.999Z</time></trkpt><trkpt lat="42.084845797915655" lon="13.58040135973298"><ele>976.0</ele><time>2026-05-02T12:59:08.999Z</time></trkpt><trkpt lat="42.084839143701565" lon="13.58023482742112"><ele>977.0</ele><time>2026-05-02T12:59:10.999Z</time></trkpt><trkpt lat="42.08482783179907" lon="13.580146513851219"><ele>978.0</ele><time>2026-05-02T12:59:11.999Z</time></trkpt><trkpt lat="42.084816888534235" lon="13.58006056190134"><ele>979.0</ele><time>2026-05-02T12:59:12.999Z</time></trkpt><trkpt lat="42.084825593998445" lon="13.579906428924057"><ele>980.0</ele><time>2026-05-02T12:59:14.999Z</time></trkpt><trkpt lat="42.08484702467692" lon="13.579757023292352"><ele>980.0000000000001</ele><time>2026-05-02T12:59:16.999Z</time></trkpt><trkpt lat="42.08489796724805" lon="13.57964818705673"><ele>980.0</ele><time>2026-05-02T12:59:18.999Z</time></trkpt><trkpt lat="42.0849313357614" lon="13.579570407199922"><ele>980.0</ele><time>2026-05-02T12:59:29.999Z</time></trkpt><trkpt lat="42.08497431133196" lon="13.579506076562987"><ele>980.0</ele><time>2026-05-02T13:00:01.001Z</time></trkpt><trkpt lat="42.08502761366692" lon="13.57942952855896"><ele>980.0000000000001</ele><time>2026-05-02T13:00:30.001Z</time></trkpt><trkpt lat="42.08508761916781" lon="13.579354061430662"><ele>980.0</ele><time>2026-05-02T13:00:32Z</time></trkpt><trkpt lat="42.085141533152196" lon="13.579248541507623"><ele>977.3333333333334</ele><time>2026-05-02T13:00:34Z</time></trkpt><trkpt lat="42.08522654955645" lon="13.579127693065175"><ele>974.6666666666667</ele><time>2026-05-02T13:00:36Z</time></trkpt><trkpt lat="42.085279395313954" lon="13.579057598517114"><ele>972.0</ele><time>2026-05-02T13:00:37Z</time></trkpt><trkpt lat="42.08533639586886" lon="13.578984683558982"><ele>969.3333333333333</ele><time>2026-05-02T13:00:38Z</time></trkpt><trkpt lat="42.08540380824284" lon="13.578926763493147"><ele>966.6666666666666</ele><time>2026-05-02T13:00:39Z</time></trkpt><trkpt lat="42.08545713943373" lon="13.578852427448625"><ele>964.0</ele><time>2026-05-02T13:00:40Z</time></trkpt><trkpt lat="42.08550828177664" lon="13.578775401857678"><ele>963.9999999999999</ele><time>2026-05-02T13:00:41Z</time></trkpt><trkpt lat="42.08555369330456" lon="13.578693090235603"><ele>964.0</ele><time>2026-05-02T13:00:42Z</time></trkpt><trkpt lat="42.08560705974017" lon="13.578621943357907"><ele>964.0</ele><time>2026-05-02T13:00:43Z</time></trkpt><trkpt lat="42.08565367250645" lon="13.578549177271592"><ele>964.0</ele><time>2026-05-02T13:00:44Z</time></trkpt><trkpt lat="42.085697276036136" lon="13.578482326598161"><ele>963.9999999999999</ele><time>2026-05-02T13:00:45Z</time></trkpt><trkpt lat="42.08577261637356" lon="13.578346897410123"><ele>964.0</ele><time>2026-05-02T13:00:47Z</time></trkpt><trkpt lat="42.085807642385454" lon="13.578267372836041"><ele>963.6666666666666</ele><time>2026-05-02T13:00:48Z</time></trkpt><trkpt lat="42.08584251461683" lon="13.578189834607223"><ele>963.3333333333333</ele><time>2026-05-02T13:00:49Z</time></trkpt><trkpt lat="42.085876977692195" lon="13.578118146717355"><ele>963.0</ele><time>2026-05-02T13:00:50Z</time></trkpt><trkpt lat="42.08592531806464" lon="13.577995717555368"><ele>962.6666666666667</ele><time>2026-05-02T13:00:52Z</time></trkpt><trkpt lat="42.08594418947774" lon="13.577888514198285"><ele>962.3333333333334</ele><time>2026-05-02T13:00:54Z</time></trkpt><trkpt lat="42.08595965454274" lon="13.577751888342254"><ele>962.0</ele><time>2026-05-02T13:00:56Z</time></trkpt><trkpt lat="42.08601062521657" lon="13.577623192671686"><ele>959.8571428571427</ele><time>2026-05-02T13:00:58Z</time></trkpt><trkpt lat="42.08604576312437" lon="13.577514584526357"><ele>957.7142857142857</ele><time>2026-05-02T13:01:00Z</time></trkpt><trkpt lat="42.08607394474311" lon="13.577435696987669"><ele>955.5714285714284</ele><time>2026-05-02T13:01:03Z</time></trkpt><trkpt lat="42.08609092442021" lon="13.577348775739035"><ele>953.4285714285713</ele><time>2026-05-02T13:01:14Z</time></trkpt><trkpt lat="42.086077902101806" lon="13.577442106882112"><ele>951.2857142857142</ele><time>2026-05-02T13:01:41Z</time></trkpt><trkpt lat="42.08611448065087" lon="13.577331639633488"><ele>949.1428571428571</ele><time>2026-05-02T13:01:56Z</time></trkpt><trkpt lat="42.08610797640033" lon="13.57723827425"><ele>947.0</ele><time>2026-05-02T13:01:58Z</time></trkpt><trkpt lat="42.08601177524513" lon="13.57710893876306"><ele>947.0</ele><time>2026-05-02T13:02:01Z</time></trkpt><trkpt lat="42.085921982007505" lon="13.57710132316756"><ele>947.0</ele><time>2026-05-02T13:02:03.999Z</time></trkpt><trkpt lat="42.08582084091904" lon="13.577118140465533"><ele>947.0</ele><time>2026-05-02T13:02:05.999Z</time></trkpt><trkpt lat="42.085712352890305" lon="13.577146317284653"><ele>947.0</ele><time>2026-05-02T13:02:07.999Z</time></trkpt><trkpt lat="42.085629750856654" lon="13.577169345249235"><ele>947.0</ele><time>2026-05-02T13:02:09.999Z</time></trkpt><trkpt lat="42.08554701511156" lon="13.577197489958685"><ele>944.6666666666667</ele><time>2026-05-02T13:02:12.999Z</time></trkpt><trkpt lat="42.08547092208562" lon="13.577227890918538"><ele>942.3333333333334</ele><time>2026-05-02T13:02:15.999Z</time></trkpt><trkpt lat="42.085374898093605" lon="13.577181437236398"><ele>940.0</ele><time>2026-05-02T13:02:17.999Z</time></trkpt><trkpt lat="42.08531013804969" lon="13.577193701966491"><ele>937.6666666666667</ele><time>2026-05-02T13:02:18.999Z</time></trkpt><trkpt lat="42.08524529555494" lon="13.577221439071408"><ele>935.3333333333334</ele><time>2026-05-02T13:02:19.999Z</time></trkpt><trkpt lat="42.08519454028461" lon="13.57733055648374"><ele>933.0</ele><time>2026-05-02T13:02:20.999Z</time></trkpt><trkpt lat="42.08511228876713" lon="13.577233724232965"><ele>933.0</ele><time>2026-05-02T13:02:22.999Z</time></trkpt><trkpt lat="42.08506368296041" lon="13.577123079110638"><ele>933.0</ele><time>2026-05-02T13:02:24.999Z</time></trkpt><trkpt lat="42.08509167170477" lon="13.577003775303194"><ele>933.0</ele><time>2026-05-02T13:02:26.999Z</time></trkpt><trkpt lat="42.08512910788673" lon="13.576930492949357"><ele>933.0</ele><time>2026-05-02T13:02:28.999Z</time></trkpt><trkpt lat="42.08520493597381" lon="13.576858322775543"><ele>933.0</ele><time>2026-05-02T13:02:30.999Z</time></trkpt><trkpt lat="42.0852921119217" lon="13.576792708654212"><ele>933.0</ele><time>2026-05-02T13:02:32.998Z</time></trkpt><trkpt lat="42.085363952224355" lon="13.576751713225208"><ele>930.5</ele><time>2026-05-02T13:02:34.998Z</time></trkpt><trkpt lat="42.08546670156428" lon="13.576668265909955"><ele>928.0</ele><time>2026-05-02T13:02:36.998Z</time></trkpt><trkpt lat="42.08549901201975" lon="13.576563542337533"><ele>925.5</ele><time>2026-05-02T13:02:38.998Z</time></trkpt><trkpt lat="42.08544026499032" lon="13.57649415047138"><ele>923.0</ele><time>2026-05-02T13:02:40.998Z</time></trkpt><trkpt lat="42.08536937347351" lon="13.5764932231542"><ele>920.5</ele><time>2026-05-02T13:02:42.998Z</time></trkpt><trkpt lat="42.08529043214473" lon="13.576506546753823"><ele>918.0</ele><time>2026-05-02T13:02:44.998Z</time></trkpt><trkpt lat="42.08522250748482" lon="13.576506678911324"><ele>918.0</ele><time>2026-05-02T13:02:46.998Z</time></trkpt><trkpt lat="42.085112461044474" lon="13.576432004679987"><ele>918.0</ele><time>2026-05-02T13:02:48.998Z</time></trkpt><trkpt lat="42.08505158240152" lon="13.576398133698813"><ele>918.0</ele><time>2026-05-02T13:02:49.998Z</time></trkpt><trkpt lat="42.08498198922483" lon="13.576367549086"><ele>918.0</ele><time>2026-05-02T13:02:50.998Z</time></trkpt><trkpt lat="42.08491017798424" lon="13.57633628782072"><ele>918.0</ele><time>2026-05-02T13:02:51.998Z</time></trkpt><trkpt lat="42.08484732936062" lon="13.576313017895991"><ele>918.0</ele><time>2026-05-02T13:02:52.998Z</time></trkpt><trkpt lat="42.08477942735001" lon="13.5762914736395"><ele>916.5999999999999</ele><time>2026-05-02T13:02:53.998Z</time></trkpt><trkpt lat="42.084715911039574" lon="13.576262163639106"><ele>915.1999999999999</ele><time>2026-05-02T13:02:54.998Z</time></trkpt><trkpt lat="42.08460059000925" lon="13.57622057962739"><ele>913.8</ele><time>2026-05-02T13:02:56.998Z</time></trkpt><trkpt lat="42.08448821914935" lon="13.576195750373522"><ele>912.4</ele><time>2026-05-02T13:02:58.998Z</time></trkpt><trkpt lat="42.084386863820086" lon="13.576187478419248"><ele>911.0</ele><time>2026-05-02T13:03:00.998Z</time></trkpt><trkpt lat="42.08429405062006" lon="13.576172218688404"><ele>908.5000000000001</ele><time>2026-05-02T13:03:02.998Z</time></trkpt><trkpt lat="42.08422886537422" lon="13.576151898028423"><ele>906.0</ele><time>2026-05-02T13:03:04.998Z</time></trkpt><trkpt lat="42.084144245152025" lon="13.576122089677074"><ele>903.5</ele><time>2026-05-02T13:03:07.998Z</time></trkpt><trkpt lat="42.08408285511897" lon="13.576098821097789"><ele>901.0</ele><time>2026-05-02T13:03:09.998Z</time></trkpt><trkpt lat="42.0840119144881" lon="13.576091300969878"><ele>898.5000000000001</ele><time>2026-05-02T13:03:11.998Z</time></trkpt><trkpt lat="42.08393134335712" lon="13.576082606394031"><ele>896.0</ele><time>2026-05-02T13:03:13.998Z</time></trkpt><trkpt lat="42.083834009319844" lon="13.57608613213538"><ele>895.4</ele><time>2026-05-02T13:03:15.998Z</time></trkpt><trkpt lat="42.08372817042996" lon="13.576063202807187"><ele>894.8</ele><time>2026-05-02T13:03:17.998Z</time></trkpt><trkpt lat="42.08362819819357" lon="13.575980289145237"><ele>894.1999999999999</ele><time>2026-05-02T13:03:19.998Z</time></trkpt><trkpt lat="42.08353538515492" lon="13.575896090270948"><ele>893.5999999999999</ele><time>2026-05-02T13:03:21.998Z</time></trkpt><trkpt lat="42.083464112895236" lon="13.575821706410661"><ele>893.0</ele><time>2026-05-02T13:03:23.998Z</time></trkpt><trkpt lat="42.083402590907454" lon="13.575752112604906"><ele>893.0000000000001</ele><time>2026-05-02T13:03:25.998Z</time></trkpt><trkpt lat="42.083337592877605" lon="13.575662286565588"><ele>893.0</ele><time>2026-05-02T13:03:27.998Z</time></trkpt><trkpt lat="42.08329298656121" lon="13.57559789103532"><ele>893.0</ele><time>2026-05-02T13:03:28.998Z</time></trkpt><trkpt lat="42.083246395519495" lon="13.575529865467075"><ele>893.0</ele><time>2026-05-02T13:03:29.998Z</time></trkpt><trkpt lat="42.083202420383905" lon="13.57544930709862"><ele>893.0000000000001</ele><time>2026-05-02T13:03:30.998Z</time></trkpt><trkpt lat="42.08317200305268" lon="13.575356340501946"><ele>893.0</ele><time>2026-05-02T13:03:31.998Z</time></trkpt><trkpt lat="42.08311635011955" lon="13.575230038647025"><ele>891.4</ele><time>2026-05-02T13:03:33.998Z</time></trkpt><trkpt lat="42.08308152522475" lon="13.575081848109482"><ele>889.8</ele><time>2026-05-02T13:03:35.998Z</time></trkpt><trkpt lat="42.083047864431244" lon="13.574996318991438"><ele>888.2</ele><time>2026-05-02T13:03:36.998Z</time></trkpt><trkpt lat="42.08299149754526" lon="13.574828069697686"><ele>886.6</ele><time>2026-05-02T13:03:38.998Z</time></trkpt><trkpt lat="42.0829522785871" lon="13.57472369379964"><ele>885.0</ele><time>2026-05-02T13:03:39.998Z</time></trkpt><trkpt lat="42.082922981561126" lon="13.574637009301362"><ele>885.0</ele><time>2026-05-02T13:03:40.998Z</time></trkpt><trkpt lat="42.082873231113325" lon="13.574539272939012"><ele>885.0</ele><time>2026-05-02T13:03:41.998Z</time></trkpt><trkpt lat="42.08281657062014" lon="13.574431896962672"><ele>885.0</ele><time>2026-05-02T13:03:42.998Z</time></trkpt><trkpt lat="42.08278013760908" lon="13.574352647104915"><ele>885.0</ele><time>2026-05-02T13:03:43.998Z</time></trkpt><trkpt lat="42.08274848000453" lon="13.574270309089677"><ele>885.0</ele><time>2026-05-02T13:03:44.998Z</time></trkpt><trkpt lat="42.08270878173883" lon="13.574156372097365"><ele>885.0</ele><time>2026-05-02T13:03:46.998Z</time></trkpt><trkpt lat="42.082651639564105" lon="13.574054927321178"><ele>883.8</ele><time>2026-05-02T13:03:48.998Z</time></trkpt><trkpt lat="42.08257092323163" lon="13.57388107456478"><ele>882.6</ele><time>2026-05-02T13:03:50.998Z</time></trkpt><trkpt lat="42.08251792374511" lon="13.573801203606733"><ele>881.4000000000001</ele><time>2026-05-02T13:03:51.998Z</time></trkpt><trkpt lat="42.0824322097656" lon="13.573661734420167"><ele>880.2</ele><time>2026-05-02T13:03:53.998Z</time></trkpt><trkpt lat="42.082384849016854" lon="13.573593248575802"><ele>879.0</ele><time>2026-05-02T13:03:54.998Z</time></trkpt><trkpt lat="42.08231325126971" lon="13.573486929902478"><ele>878.2</ele><time>2026-05-02T13:03:56.998Z</time></trkpt><trkpt lat="42.08224833897797" lon="13.573381876866588"><ele>877.4000000000001</ele><time>2026-05-02T13:03:58.998Z</time></trkpt><trkpt lat="42.08217266704707" lon="13.57328225798489"><ele>876.6</ele><time>2026-05-02T13:04:00.998Z</time></trkpt><trkpt lat="42.082097350086954" lon="13.573189401669328"><ele>875.8</ele><time>2026-05-02T13:04:02.998Z</time></trkpt><trkpt lat="42.082042738040144" lon="13.573120428155976"><ele>875.0</ele><time>2026-05-02T13:04:04.998Z</time></trkpt><trkpt lat="42.0819789943893" lon="13.573032860208153"><ele>875.0000000000001</ele><time>2026-05-02T13:04:06.998Z</time></trkpt><trkpt lat="42.08192227411994" lon="13.572971696401288"><ele>875.0</ele><time>2026-05-02T13:04:07.998Z</time></trkpt><trkpt lat="42.08186610249813" lon="13.572910926636512"><ele>875.0</ele><time>2026-05-02T13:04:08.998Z</time></trkpt><trkpt lat="42.08177698482" lon="13.572808584525662"><ele>875.0</ele><time>2026-05-02T13:04:10.998Z</time></trkpt><trkpt lat="42.08172209063178" lon="13.57272868166728"><ele>875.0000000000001</ele><time>2026-05-02T13:04:11.998Z</time></trkpt><trkpt lat="42.08168180218142" lon="13.572659906297067"><ele>875.0</ele><time>2026-05-02T13:04:12.998Z</time></trkpt><trkpt lat="42.081633273549386" lon="13.572567176474992"><ele>874.6666666666667</ele><time>2026-05-02T13:04:14.998Z</time></trkpt><trkpt lat="42.0815624672747" lon="13.572452568696823"><ele>874.3333333333334</ele><time>2026-05-02T13:04:16.998Z</time></trkpt><trkpt lat="42.08151257275761" lon="13.572381004159388"><ele>874.0</ele><time>2026-05-02T13:04:17.998Z</time></trkpt><trkpt lat="42.08145787007749" lon="13.572285122666523"><ele>873.6666666666667</ele><time>2026-05-02T13:04:19.998Z</time></trkpt><trkpt lat="42.08146465932096" lon="13.57216837864111"><ele>873.3333333333334</ele><time>2026-05-02T13:04:21.998Z</time></trkpt><trkpt lat="42.08149391476612" lon="13.572060848925"><ele>873.0</ele><time>2026-05-02T13:04:23.998Z</time></trkpt><trkpt lat="42.081512066819215" lon="13.571976679519818"><ele>871.4</ele><time>2026-05-02T13:04:25.998Z</time></trkpt><trkpt lat="42.08150837578448" lon="13.571876616524323"><ele>869.8</ele><time>2026-05-02T13:04:27.998Z</time></trkpt><trkpt lat="42.08148696467087" lon="13.571772449183644"><ele>868.2</ele><time>2026-05-02T13:04:29.998Z</time></trkpt><trkpt lat="42.08141895482704" lon="13.571643797893714"><ele>866.6</ele><time>2026-05-02T13:04:31.998Z</time></trkpt><trkpt lat="42.081321502554395" lon="13.571521693366568"><ele>865.0</ele><time>2026-05-02T13:04:33.998Z</time></trkpt><trkpt lat="42.081258023292186" lon="13.571472840981954"><ele>865.0</ele><time>2026-05-02T13:04:34.998Z</time></trkpt><trkpt lat="42.08116581947501" lon="13.57140250876019"><ele>865.0</ele><time>2026-05-02T13:04:36.998Z</time></trkpt><trkpt lat="42.0811029411277" lon="13.571357422476211"><ele>865.0</ele><time>2026-05-02T13:04:37.998Z</time></trkpt><trkpt lat="42.081004939102314" lon="13.571264111792843"><ele>865.0</ele><time>2026-05-02T13:04:39.997Z</time></trkpt><trkpt lat="42.08090784560759" lon="13.571153970497644"><ele>865.0</ele><time>2026-05-02T13:04:41.997Z</time></trkpt><trkpt lat="42.08083182674823" lon="13.571023534025747"><ele>863.3333333333333</ele><time>2026-05-02T13:04:43.997Z</time></trkpt><trkpt lat="42.08079166542913" lon="13.570942229614841"><ele>861.6666666666666</ele><time>2026-05-02T13:04:44.997Z</time></trkpt><trkpt lat="42.08076179104246" lon="13.570847977705519"><ele>860.0</ele><time>2026-05-02T13:04:45.997Z</time></trkpt><trkpt lat="42.0807133829568" lon="13.570751391781409"><ele>858.3333333333333</ele><time>2026-05-02T13:04:46.997Z</time></trkpt><trkpt lat="42.08066032833008" lon="13.570645369643474"><ele>856.6666666666666</ele><time>2026-05-02T13:04:47.997Z</time></trkpt><trkpt lat="42.080616177502506" lon="13.570542939616999"><ele>855.0</ele><time>2026-05-02T13:04:48.997Z</time></trkpt><trkpt lat="42.080579158710364" lon="13.570466510858433"><ele>857.1666666666666</ele><time>2026-05-02T13:04:49.997Z</time></trkpt><trkpt lat="42.08054111752917" lon="13.57037634199816"><ele>859.3333333333333</ele><time>2026-05-02T13:04:50.997Z</time></trkpt><trkpt lat="42.08048309126149" lon="13.570257505769668"><ele>861.5</ele><time>2026-05-02T13:04:51.997Z</time></trkpt><trkpt lat="42.0804493176478" lon="13.57015938405003"><ele>863.6666666666666</ele><time>2026-05-02T13:04:52.997Z</time></trkpt><trkpt lat="42.08042241760995" lon="13.570040056554593"><ele>865.8333333333333</ele><time>2026-05-02T13:04:53.997Z</time></trkpt><trkpt lat="42.08040964012506" lon="13.5699535137445"><ele>868.0</ele><time>2026-05-02T13:04:54.997Z</time></trkpt><trkpt lat="42.08038491659586" lon="13.569853812148942"><ele>868.0</ele><time>2026-05-02T13:04:55.997Z</time></trkpt><trkpt lat="42.08035909987804" lon="13.569745969538738"><ele>868.0</ele><time>2026-05-02T13:04:56.997Z</time></trkpt><trkpt lat="42.0803349475961" lon="13.5695969927134"><ele>868.0</ele><time>2026-05-02T13:04:58.997Z</time></trkpt><trkpt lat="42.08032477638453" lon="13.569404261925644"><ele>868.0</ele><time>2026-05-02T13:05:00.997Z</time></trkpt><trkpt lat="42.08030694998912" lon="13.569250831180586"><ele>866.1666666666666</ele><time>2026-05-02T13:05:02.997Z</time></trkpt><trkpt lat="42.080259074273314" lon="13.569107517971721"><ele>864.3333333333333</ele><time>2026-05-02T13:05:04.997Z</time></trkpt><trkpt lat="42.08021843751824" lon="13.569026970474441"><ele>862.5</ele><time>2026-05-02T13:05:05.997Z</time></trkpt><trkpt lat="42.08016971487781" lon="13.568924954899613"><ele>860.6666666666667</ele><time>2026-05-02T13:05:06.997Z</time></trkpt><trkpt lat="42.080129679809964" lon="13.568831511261687"><ele>858.8333333333334</ele><time>2026-05-02T13:05:07.997Z</time></trkpt><trkpt lat="42.08010038282462" lon="13.568728727857412"><ele>857.0</ele><time>2026-05-02T13:05:08.997Z</time></trkpt><trkpt lat="42.08007474707447" lon="13.568622184274759"><ele>854.8333333333334</ele><time>2026-05-02T13:05:09.997Z</time></trkpt><trkpt lat="42.08003986661944" lon="13.568510486871109"><ele>852.6666666666667</ele><time>2026-05-02T13:05:10.997Z</time></trkpt><trkpt lat="42.08001795776687" lon="13.568385689891352"><ele>850.5</ele><time>2026-05-02T13:05:11.997Z</time></trkpt><trkpt lat="42.080003846767916" lon="13.568265036037014"><ele>848.3333333333333</ele><time>2026-05-02T13:05:12.997Z</time></trkpt><trkpt lat="42.07999438910288" lon="13.568161217739975"><ele>846.1666666666666</ele><time>2026-05-02T13:05:13.997Z</time></trkpt><trkpt lat="42.07999371912684" lon="13.568059305536986"><ele>844.0</ele><time>2026-05-02T13:05:14.997Z</time></trkpt><trkpt lat="42.08001401121182" lon="13.567946885194875"><ele>843.9999999999999</ele><time>2026-05-02T13:05:15.997Z</time></trkpt><trkpt lat="42.08003657113611" lon="13.567865685243092"><ele>844.0</ele><time>2026-05-02T13:05:16.997Z</time></trkpt><trkpt lat="42.08005816294521" lon="13.567749576958105"><ele>844.0</ele><time>2026-05-02T13:05:17.997Z</time></trkpt><trkpt lat="42.080079721770694" lon="13.56763306658283"><ele>844.0</ele><time>2026-05-02T13:05:18.997Z</time></trkpt><trkpt lat="42.0801195866283" lon="13.567507278046026"><ele>843.9999999999999</ele><time>2026-05-02T13:05:19.997Z</time></trkpt><trkpt lat="42.08016079386961" lon="13.567389686253337"><ele>844.0</ele><time>2026-05-02T13:05:20.997Z</time></trkpt><trkpt lat="42.08019930437885" lon="13.567283205541619"><ele>842.9999999999999</ele><time>2026-05-02T13:05:21.997Z</time></trkpt><trkpt lat="42.08024660008956" lon="13.56719400096742"><ele>842.0</ele><time>2026-05-02T13:05:22.997Z</time></trkpt><trkpt lat="42.080294377252166" lon="13.567103994377378"><ele>841.0</ele><time>2026-05-02T13:05:23.997Z</time></trkpt><trkpt lat="42.0803691763539" lon="13.567017011693203"><ele>840.0</ele><time>2026-05-02T13:05:24.997Z</time></trkpt><trkpt lat="42.08041196075573" lon="13.566953683948284"><ele>838.9999999999999</ele><time>2026-05-02T13:05:25.997Z</time></trkpt><trkpt lat="42.08046057464852" lon="13.566895486802858"><ele>838.0</ele><time>2026-05-02T13:05:26.997Z</time></trkpt><trkpt lat="42.080545646862625" lon="13.566793684532565"><ele>837.9999999999999</ele><time>2026-05-02T13:05:28.997Z</time></trkpt><trkpt lat="42.08057896924987" lon="13.566678469055242"><ele>838.0</ele><time>2026-05-02T13:05:30.997Z</time></trkpt><trkpt lat="42.08054511607722" lon="13.566531396756503"><ele>838.0</ele><time>2026-05-02T13:05:32.997Z</time></trkpt><trkpt lat="42.080518378590206" lon="13.566452331618523"><ele>838.0</ele><time>2026-05-02T13:05:33.997Z</time></trkpt><trkpt lat="42.08049309788106" lon="13.566310132575547"><ele>837.9999999999999</ele><time>2026-05-02T13:05:35.997Z</time></trkpt><trkpt lat="42.08048848876028" lon="13.566221776274922"><ele>838.0</ele><time>2026-05-02T13:05:36.997Z</time></trkpt><trkpt lat="42.08047941718181" lon="13.566114525931802"><ele>837.9999999999999</ele><time>2026-05-02T13:05:37.997Z</time></trkpt><trkpt lat="42.080452490664214" lon="13.56599381745698"><ele>838.0</ele><time>2026-05-02T13:05:39.997Z</time></trkpt><trkpt lat="42.08045527549039" lon="13.565891457679694"><ele>838.0</ele><time>2026-05-02T13:05:41.997Z</time></trkpt><trkpt lat="42.08045376577338" lon="13.56580230414935"><ele>838.0</ele><time>2026-05-02T13:05:43.997Z</time></trkpt><trkpt lat="42.08044793216883" lon="13.56568648822322"><ele>837.9999999999999</ele><time>2026-05-02T13:05:45.997Z</time></trkpt><trkpt lat="42.08041644224425" lon="13.565559941775"><ele>838.0</ele><time>2026-05-02T13:05:47.997Z</time></trkpt><trkpt lat="42.080403829372536" lon="13.565436823056048"><ele>835.9999999999999</ele><time>2026-05-02T13:05:48.997Z</time></trkpt><trkpt lat="42.08037450639407" lon="13.565283661667872"><ele>834.0</ele><time>2026-05-02T13:05:50.997Z</time></trkpt><trkpt lat="42.080364623250524" lon="13.565195212032526"><ele>832.0</ele><time>2026-05-02T13:05:51.997Z</time></trkpt><trkpt lat="42.08035633409143" lon="13.565089121526656"><ele>830.0</ele><time>2026-05-02T13:05:52.997Z</time></trkpt><trkpt lat="42.08034597778117" lon="13.564987311339765"><ele>827.9999999999999</ele><time>2026-05-02T13:05:53.997Z</time></trkpt><trkpt lat="42.08033830311859" lon="13.56486789009726"><ele>826.0</ele><time>2026-05-02T13:05:54.997Z</time></trkpt><trkpt lat="42.08034091520619" lon="13.564734396040233"><ele>826.0</ele><time>2026-05-02T13:05:55.997Z</time></trkpt><trkpt lat="42.0803581726737" lon="13.564551323505695"><ele>826.0</ele><time>2026-05-02T13:05:56.997Z</time></trkpt><trkpt lat="42.08036668487862" lon="13.56437979257613"><ele>826.0</ele><time>2026-05-02T13:05:57.997Z</time></trkpt><trkpt lat="42.08036326277106" lon="13.564238926065926"><ele>826.0</ele><time>2026-05-02T13:05:58.997Z</time></trkpt><trkpt lat="42.08035998059514" lon="13.564086086300106"><ele>824.0</ele><time>2026-05-02T13:05:59.997Z</time></trkpt><trkpt lat="42.0803413612886" lon="13.563911306171722"><ele>822.0</ele><time>2026-05-02T13:06:00.997Z</time></trkpt><trkpt lat="42.080322495437336" lon="13.563765887185948"><ele>820.0</ele><time>2026-05-02T13:06:01.997Z</time></trkpt><trkpt lat="42.08030930075543" lon="13.563635814158832"><ele>818.0</ele><time>2026-05-02T13:06:02.997Z</time></trkpt><trkpt lat="42.08027827065183" lon="13.563490893071336"><ele>817.8</ele><time>2026-05-02T13:06:03.997Z</time></trkpt><trkpt lat="42.08023714976476" lon="13.563313893954408"><ele>817.5999999999999</ele><time>2026-05-02T13:06:04.997Z</time></trkpt><trkpt lat="42.08022200901097" lon="13.563164786492466"><ele>817.4000000000001</ele><time>2026-05-02T13:06:05.997Z</time></trkpt><trkpt lat="42.0802254612873" lon="13.563050441741355"><ele>817.2</ele><time>2026-05-02T13:06:06.997Z</time></trkpt><trkpt lat="42.08021469928086" lon="13.562933221393378"><ele>817.0</ele><time>2026-05-02T13:06:07.997Z</time></trkpt><trkpt lat="42.08019873559991" lon="13.562822074650551"><ele>815.4999999999999</ele><time>2026-05-02T13:06:08.997Z</time></trkpt><trkpt lat="42.080177379461276" lon="13.562715467650142"><ele>814.0</ele><time>2026-05-02T13:06:09.997Z</time></trkpt><trkpt lat="42.08014589997894" lon="13.56261093550406"><ele>812.5</ele><time>2026-05-02T13:06:10.997Z</time></trkpt><trkpt lat="42.08010211969633" lon="13.562503560146453"><ele>811.0</ele><time>2026-05-02T13:06:11.997Z</time></trkpt><trkpt lat="42.08005568415759" lon="13.56242490331911"><ele>809.4999999999999</ele><time>2026-05-02T13:06:12.997Z</time></trkpt><trkpt lat="42.0800004807793" lon="13.562317004721477"><ele>808.0</ele><time>2026-05-02T13:06:13.997Z</time></trkpt><trkpt lat="42.07995630965826" lon="13.56221959596465"><ele>811.1666666666666</ele><time>2026-05-02T13:06:14.997Z</time></trkpt><trkpt lat="42.07990813180061" lon="13.562123567970373"><ele>814.3333333333333</ele><time>2026-05-02T13:06:15.997Z</time></trkpt><trkpt lat="42.07987489763474" lon="13.562034295577899"><ele>817.5</ele><time>2026-05-02T13:06:16.997Z</time></trkpt><trkpt lat="42.07984500542834" lon="13.561949078931574"><ele>820.6666666666667</ele><time>2026-05-02T13:06:17.997Z</time></trkpt><trkpt lat="42.07982967748078" lon="13.56186211015266"><ele>823.8333333333334</ele><time>2026-05-02T13:06:18.997Z</time></trkpt><trkpt lat="42.07981981709943" lon="13.561730067257516"><ele>827.0</ele><time>2026-05-02T13:06:19.997Z</time></trkpt><trkpt lat="42.079804957462315" lon="13.561637887152242"><ele>827.0</ele><time>2026-05-02T13:06:20.997Z</time></trkpt><trkpt lat="42.079818076647825" lon="13.561540863734463"><ele>827.0</ele><time>2026-05-02T13:06:21.997Z</time></trkpt><trkpt lat="42.07987392238428" lon="13.561406277440321"><ele>827.0</ele><time>2026-05-02T13:06:22.997Z</time></trkpt><trkpt lat="42.079950045068344" lon="13.561275423690363"><ele>827.0</ele><time>2026-05-02T13:06:23.997Z</time></trkpt><trkpt lat="42.08002329465996" lon="13.561168915944764"><ele>827.0</ele><time>2026-05-02T13:06:24.997Z</time></trkpt><trkpt lat="42.08007292678445" lon="13.5610727230929"><ele>820.4000000000001</ele><time>2026-05-02T13:06:25.997Z</time></trkpt><trkpt lat="42.08010302172598" lon="13.56098195265377"><ele>813.8000000000001</ele><time>2026-05-02T13:06:26.997Z</time></trkpt><trkpt lat="42.08014545222246" lon="13.560825011860688"><ele>807.2</ele><time>2026-05-02T13:06:28.997Z</time></trkpt><trkpt lat="42.08013292354409" lon="13.560658186499769"><ele>800.6</ele><time>2026-05-02T13:06:30.997Z</time></trkpt><trkpt lat="42.080102034532565" lon="13.560561754809514"><ele>794.0</ele><time>2026-05-02T13:06:31.997Z</time></trkpt><trkpt lat="42.08005584101499" lon="13.56045794948407"><ele>794.0</ele><time>2026-05-02T13:06:32.997Z</time></trkpt><trkpt lat="42.08001255148903" lon="13.560377622610877"><ele>794.0</ele><time>2026-05-02T13:06:33.997Z</time></trkpt><trkpt lat="42.079957920344775" lon="13.56024223852186"><ele>794.0</ele><time>2026-05-02T13:06:35.997Z</time></trkpt><trkpt lat="42.07989299398817" lon="13.56011043711937"><ele>794.0</ele><time>2026-05-02T13:06:37.997Z</time></trkpt><trkpt lat="42.07985621058675" lon="13.560040031615907"><ele>794.0</ele><time>2026-05-02T13:06:38.997Z</time></trkpt><trkpt lat="42.07979094364676" lon="13.559909372389784"><ele>796.0000000000001</ele><time>2026-05-02T13:06:40.997Z</time></trkpt><trkpt lat="42.0797087423573" lon="13.559775481670222"><ele>798.0</ele><time>2026-05-02T13:06:42.997Z</time></trkpt><trkpt lat="42.079658443186275" lon="13.559695915377292"><ele>800.0</ele><time>2026-05-02T13:06:43.997Z</time></trkpt><trkpt lat="42.079621760682386" lon="13.559625829960366"><ele>802.0</ele><time>2026-05-02T13:06:44.996Z</time></trkpt><trkpt lat="42.07956685590747" lon="13.559512327017421"><ele>804.0000000000001</ele><time>2026-05-02T13:06:45.996Z</time></trkpt><trkpt lat="42.079524341837526" lon="13.559436219215943"><ele>806.0</ele><time>2026-05-02T13:06:46.996Z</time></trkpt><trkpt lat="42.07948032981744" lon="13.559347624238315"><ele>802.0000000000001</ele><time>2026-05-02T13:06:47.996Z</time></trkpt><trkpt lat="42.07943907887339" lon="13.559257281861827"><ele>798.0</ele><time>2026-05-02T13:06:49Z</time></trkpt><trkpt lat="42.079398250447476" lon="13.559163052206857"><ele>794.0</ele><time>2026-05-02T13:06:50Z</time></trkpt><trkpt lat="42.07936078973552" lon="13.55907184164272"><ele>790.0</ele><time>2026-05-02T13:06:51Z</time></trkpt><trkpt lat="42.07931862821865" lon="13.558979525405585"><ele>786.0000000000001</ele><time>2026-05-02T13:06:52Z</time></trkpt><trkpt lat="42.07928318995474" lon="13.558892385641895"><ele>782.0</ele><time>2026-05-02T13:06:53Z</time></trkpt><trkpt lat="42.079242997041206" lon="13.55881692877641"><ele>782.0</ele><time>2026-05-02T13:06:54Z</time></trkpt><trkpt lat="42.0791956761562" lon="13.558736437087312"><ele>782.0</ele><time>2026-05-02T13:06:55Z</time></trkpt><trkpt lat="42.07914827200788" lon="13.558651910643889"><ele>782.0</ele><time>2026-05-02T13:06:56Z</time></trkpt><trkpt lat="42.07909004981572" lon="13.558558712128248"><ele>782.0</ele><time>2026-05-02T13:06:57Z</time></trkpt><trkpt lat="42.07901899874311" lon="13.558437861342844"><ele>782.0</ele><time>2026-05-02T13:06:58Z</time></trkpt><trkpt lat="42.07893408312959" lon="13.55831220225611"><ele>782.3333333333334</ele><time>2026-05-02T13:06:59Z</time></trkpt><trkpt lat="42.07887173044198" lon="13.558210645339175"><ele>782.6666666666667</ele><time>2026-05-02T13:07:00Z</time></trkpt><trkpt lat="42.078824342925245" lon="13.558116335208375"><ele>783.0</ele><time>2026-05-02T13:07:01Z</time></trkpt><trkpt lat="42.078777491187424" lon="13.558022367616857"><ele>783.3333333333333</ele><time>2026-05-02T13:07:02Z</time></trkpt><trkpt lat="42.07872932550121" lon="13.55792745518402"><ele>783.6666666666666</ele><time>2026-05-02T13:07:03Z</time></trkpt><trkpt lat="42.078681884232225" lon="13.557835037620881"><ele>784.0</ele><time>2026-05-02T13:07:04Z</time></trkpt><trkpt lat="42.07863027807785" lon="13.557727785018145"><ele>780.0</ele><time>2026-05-02T13:07:05Z</time></trkpt><trkpt lat="42.078586421588994" lon="13.557628010701919"><ele>776.0</ele><time>2026-05-02T13:07:06Z</time></trkpt><trkpt lat="42.07854137520297" lon="13.5575063199372"><ele>772.0</ele><time>2026-05-02T13:07:07Z</time></trkpt><trkpt lat="42.078486772316076" lon="13.557365173536951"><ele>768.0</ele><time>2026-05-02T13:07:08Z</time></trkpt><trkpt lat="42.07843527223225" lon="13.5572414826104"><ele>764.0</ele><time>2026-05-02T13:07:09Z</time></trkpt><trkpt lat="42.078395652782376" lon="13.55714256519342"><ele>764.0</ele><time>2026-05-02T13:07:10Z</time></trkpt><trkpt lat="42.07835110809714" lon="13.55706333672087"><ele>764.0</ele><time>2026-05-02T13:07:11Z</time></trkpt><trkpt lat="42.07831465363336" lon="13.556986212514094"><ele>764.0</ele><time>2026-05-02T13:07:12Z</time></trkpt><trkpt lat="42.07824532531092" lon="13.556848413290462"><ele>764.0</ele><time>2026-05-02T13:07:14Z</time></trkpt><trkpt lat="42.07820470276437" lon="13.556686107807062"><ele>764.0</ele><time>2026-05-02T13:07:16Z</time></trkpt><trkpt lat="42.078195436112395" lon="13.556565278722113"><ele>765.5</ele><time>2026-05-02T13:07:17Z</time></trkpt><trkpt lat="42.07818193697179" lon="13.556446643687748"><ele>767.0</ele><time>2026-05-02T13:07:18Z</time></trkpt><trkpt lat="42.07816767751828" lon="13.556330490192295"><ele>768.5</ele><time>2026-05-02T13:07:19Z</time></trkpt><trkpt lat="42.07816284287735" lon="13.556233319280487"><ele>770.0</ele><time>2026-05-02T13:07:20Z</time></trkpt><trkpt lat="42.07814769895278" lon="13.556147376279934"><ele>771.5000000000001</ele><time>2026-05-02T13:07:21Z</time></trkpt><trkpt lat="42.0781212735963" lon="13.556054155897813"><ele>773.0</ele><time>2026-05-02T13:07:22Z</time></trkpt><trkpt lat="42.07808199628148" lon="13.55595765944854"><ele>773.0</ele><time>2026-05-02T13:07:23Z</time></trkpt><trkpt lat="42.078032777249724" lon="13.555858441775833"><ele>773.0</ele><time>2026-05-02T13:07:24Z</time></trkpt><trkpt lat="42.077977748059965" lon="13.555752366810106"><ele>773.0</ele><time>2026-05-02T13:07:25Z</time></trkpt><trkpt lat="42.07791180235106" lon="13.55561146588186"><ele>773.0</ele><time>2026-05-02T13:07:26Z</time></trkpt><trkpt lat="42.077863307473585" lon="13.55550600405973"><ele>773.0</ele><time>2026-05-02T13:07:27Z</time></trkpt><trkpt lat="42.077829889698044" lon="13.555407914629637"><ele>770.5000000000001</ele><time>2026-05-02T13:07:28Z</time></trkpt><trkpt lat="42.07780868682729" lon="13.555306547206484"><ele>768.0</ele><time>2026-05-02T13:07:29Z</time></trkpt><trkpt lat="42.07782051848969" lon="13.555128160986646"><ele>765.5</ele><time>2026-05-02T13:07:31Z</time></trkpt><trkpt lat="42.07782613332773" lon="13.555039962523447"><ele>763.0</ele><time>2026-05-02T13:07:32Z</time></trkpt><trkpt lat="42.077822234568785" lon="13.554952097408622"><ele>760.5</ele><time>2026-05-02T13:07:33Z</time></trkpt><trkpt lat="42.0778025712198" lon="13.55486315721243"><ele>758.0</ele><time>2026-05-02T13:07:34Z</time></trkpt><trkpt lat="42.07776221525398" lon="13.554786798697537"><ele>758.0</ele><time>2026-05-02T13:07:35Z</time></trkpt><trkpt lat="42.07770266759786" lon="13.554691756222367"><ele>758.0</ele><time>2026-05-02T13:07:36Z</time></trkpt><trkpt lat="42.07763678431791" lon="13.554578748492949"><ele>758.0</ele><time>2026-05-02T13:07:37Z</time></trkpt><trkpt lat="42.077558809440454" lon="13.554483170435185"><ele>758.0</ele><time>2026-05-02T13:07:38Z</time></trkpt><trkpt lat="42.077483537123" lon="13.55440259579904"><ele>758.0</ele><time>2026-05-02T13:07:39Z</time></trkpt><trkpt lat="42.07741298244196" lon="13.554331186382"><ele>758.6666666666666</ele><time>2026-05-02T13:07:40Z</time></trkpt><trkpt lat="42.07732820879335" lon="13.554255801851987"><ele>759.3333333333333</ele><time>2026-05-02T13:07:41Z</time></trkpt><trkpt lat="42.0772572568444" lon="13.554194252158725"><ele>760.0</ele><time>2026-05-02T13:07:42Z</time></trkpt><trkpt lat="42.07720246324667" lon="13.554116110398214"><ele>760.6666666666666</ele><time>2026-05-02T13:07:43Z</time></trkpt><trkpt lat="42.07715974199502" lon="13.554042850051882"><ele>761.3333333333334</ele><time>2026-05-02T13:07:44Z</time></trkpt><trkpt lat="42.07713537906398" lon="13.553938406483962"><ele>762.0</ele><time>2026-05-02T13:07:45Z</time></trkpt><trkpt lat="42.07712327900011" lon="13.553804718632298"><ele>759.1666666666666</ele><time>2026-05-02T13:07:46Z</time></trkpt><trkpt lat="42.07709948174707" lon="13.55369802475814"><ele>756.3333333333334</ele><time>2026-05-02T13:07:47Z</time></trkpt><trkpt lat="42.07705755778049" lon="13.55358609052019"><ele>753.5</ele><time>2026-05-02T13:07:48Z</time></trkpt><trkpt lat="42.077025485726175" lon="13.553506754740518"><ele>750.6666666666667</ele><time>2026-05-02T13:07:49Z</time></trkpt><trkpt lat="42.07702308201279" lon="13.553402070398997"><ele>747.8333333333334</ele><time>2026-05-02T13:07:52Z</time></trkpt><trkpt lat="42.07708453253235" lon="13.553370033187477"><ele>745.0</ele><time>2026-05-02T13:07:53Z</time></trkpt><trkpt lat="42.07715592326335" lon="13.553348465154182"><ele>745.0</ele><time>2026-05-02T13:07:54Z</time></trkpt><trkpt lat="42.077254870890734" lon="13.55332442603863"><ele>745.0</ele><time>2026-05-02T13:07:55Z</time></trkpt><trkpt lat="42.07735989990314" lon="13.553271649121438"><ele>745.0</ele><time>2026-05-02T13:07:56Z</time></trkpt><trkpt lat="42.077463084308285" lon="13.55320792462711"><ele>745.0</ele><time>2026-05-02T13:07:57Z</time></trkpt><trkpt lat="42.077537840952736" lon="13.553131745720624"><ele>745.0</ele><time>2026-05-02T13:07:58Z</time></trkpt><trkpt lat="42.07758222847583" lon="13.553019013209807"><ele>745.4</ele><time>2026-05-02T13:07:59Z</time></trkpt><trkpt lat="42.07761510106604" lon="13.552884338134028"><ele>745.8</ele><time>2026-05-02T13:08:00Z</time></trkpt><trkpt lat="42.07761780089345" lon="13.55274187729022"><ele>746.2</ele><time>2026-05-02T13:08:01Z</time></trkpt><trkpt lat="42.0775917681224" lon="13.552591994679872"><ele>746.6</ele><time>2026-05-02T13:08:02Z</time></trkpt><trkpt lat="42.07755694994936" lon="13.552443239385488"><ele>747.0</ele><time>2026-05-02T13:08:03Z</time></trkpt><trkpt lat="42.077505965489735" lon="13.552277060381082"><ele>747.0</ele><time>2026-05-02T13:08:03.999Z</time></trkpt><trkpt lat="42.07746064588821" lon="13.552137497615515"><ele>747.0</ele><time>2026-05-02T13:08:04.999Z</time></trkpt><trkpt lat="42.07742963352913" lon="13.552036097473962"><ele>747.0</ele><time>2026-05-02T13:08:05.999Z</time></trkpt><trkpt lat="42.077395574808065" lon="13.551938334989227"><ele>747.0</ele><time>2026-05-02T13:08:06.999Z</time></trkpt><trkpt lat="42.07735827649972" lon="13.5518363438851"><ele>747.0</ele><time>2026-05-02T13:08:07.999Z</time></trkpt><trkpt lat="42.07731504364594" lon="13.55172037474058"><ele>747.0</ele><time>2026-05-02T13:08:08.999Z</time></trkpt><trkpt lat="42.07726366592997" lon="13.551595041369511"><ele>747.0</ele><time>2026-05-02T13:08:09.999Z</time></trkpt><trkpt lat="42.07719861323634" lon="13.551479275492689"><ele>747.0</ele><time>2026-05-02T13:08:10.999Z</time></trkpt><trkpt lat="42.07711609565045" lon="13.55137786791813"><ele>747.0</ele><time>2026-05-02T13:08:11.999Z</time></trkpt><trkpt lat="42.07703711941309" lon="13.551282773755359"><ele>747.0</ele><time>2026-05-02T13:08:12.999Z</time></trkpt><trkpt lat="42.076951324833296" lon="13.551205381938606"><ele>745.8</ele><time>2026-05-02T13:08:13.999Z</time></trkpt><trkpt lat="42.07686073911912" lon="13.551136292904053"><ele>744.6</ele><time>2026-05-02T13:08:14.999Z</time></trkpt><trkpt lat="42.076778591766264" lon="13.551064126169637"><ele>743.4</ele><time>2026-05-02T13:08:15.999Z</time></trkpt><trkpt lat="42.076698791702455" lon="13.551007934543637"><ele>742.1999999999999</ele><time>2026-05-02T13:08:16.999Z</time></trkpt><trkpt lat="42.076628407390075" lon="13.550942957497478"><ele>741.0</ele><time>2026-05-02T13:08:17.999Z</time></trkpt><trkpt lat="42.07657693794795" lon="13.550871075658284"><ele>741.0</ele><time>2026-05-02T13:08:18.999Z</time></trkpt><trkpt lat="42.07656173457863" lon="13.550787439380933"><ele>741.0</ele><time>2026-05-02T13:08:19.999Z</time></trkpt><trkpt lat="42.07655465761641" lon="13.550625635844186"><ele>741.0</ele><time>2026-05-02T13:08:21.999Z</time></trkpt><trkpt lat="42.076569555838546" lon="13.550534157353338"><ele>741.0</ele><time>2026-05-02T13:08:22.999Z</time></trkpt><trkpt lat="42.076636302660404" lon="13.55046295864453"><ele>741.0</ele><time>2026-05-02T13:08:23.999Z</time></trkpt><trkpt lat="42.07672497224581" lon="13.550399655235665"><ele>741.0</ele><time>2026-05-02T13:08:24.999Z</time></trkpt><trkpt lat="42.076824921477524" lon="13.550346313735822"><ele>743.25</ele><time>2026-05-02T13:08:25.999Z</time></trkpt><trkpt lat="42.07693072542214" lon="13.55029537558361"><ele>745.5</ele><time>2026-05-02T13:08:26.999Z</time></trkpt><trkpt lat="42.07704296050454" lon="13.550246896426621"><ele>747.75</ele><time>2026-05-02T13:08:27.999Z</time></trkpt><trkpt lat="42.0771566066835" lon="13.550200451433396"><ele>750.0</ele><time>2026-05-02T13:08:28.999Z</time></trkpt><trkpt lat="42.07727122655756" lon="13.550147781280696"><ele>750.0</ele><time>2026-05-02T13:08:29.999Z</time></trkpt><trkpt lat="42.07738332327186" lon="13.550089603084958"><ele>750.0</ele><time>2026-05-02T13:08:30.999Z</time></trkpt><trkpt lat="42.077495259411265" lon="13.550042164482786"><ele>750.0</ele><time>2026-05-02T13:08:31.999Z</time></trkpt><trkpt lat="42.077608225696196" lon="13.550000624005369"><ele>750.0</ele><time>2026-05-02T13:08:32.999Z</time></trkpt><trkpt lat="42.07771325688779" lon="13.549957995917445"><ele>750.0</ele><time>2026-05-02T13:08:33.999Z</time></trkpt><trkpt lat="42.07780753264423" lon="13.54990559190173"><ele>750.0</ele><time>2026-05-02T13:08:34.999Z</time></trkpt><trkpt lat="42.077895913213396" lon="13.54983852860399"><ele>750.0</ele><time>2026-05-02T13:08:35.999Z</time></trkpt><trkpt lat="42.07797016707457" lon="13.54974610401"><ele>750.0</ele><time>2026-05-02T13:08:36.999Z</time></trkpt><trkpt lat="42.07802929042017" lon="13.549626345282478"><ele>750.0</ele><time>2026-05-02T13:08:37.999Z</time></trkpt><trkpt lat="42.078077725965386" lon="13.549485976347883"><ele>750.0</ele><time>2026-05-02T13:08:38.999Z</time></trkpt><trkpt lat="42.078121669857225" lon="13.549333501154921"><ele>750.0</ele><time>2026-05-02T13:08:39.999Z</time></trkpt><trkpt lat="42.07816603124675" lon="13.549178232563364"><ele>750.0</ele><time>2026-05-02T13:08:40.999Z</time></trkpt><trkpt lat="42.07819966300797" lon="13.549026594778177"><ele>750.0</ele><time>2026-05-02T13:08:41.999Z</time></trkpt><trkpt lat="42.078247549729106" lon="13.548889957411653"><ele>753.0</ele><time>2026-05-02T13:08:42.999Z</time></trkpt><trkpt lat="42.078328752105705" lon="13.54879049697766"><ele>756.0</ele><time>2026-05-02T13:08:43.999Z</time></trkpt><trkpt lat="42.07841274807343" lon="13.54868899452517"><ele>759.0</ele><time>2026-05-02T13:08:44.999Z</time></trkpt><trkpt lat="42.07851233218344" lon="13.548606647473338"><ele>762.0</ele><time>2026-05-02T13:08:45.999Z</time></trkpt><trkpt lat="42.078626062654166" lon="13.548554962299686"><ele>762.0</ele><time>2026-05-02T13:08:46.999Z</time></trkpt><trkpt lat="42.078749242440985" lon="13.54851455657034"><ele>762.0</ele><time>2026-05-02T13:08:47.999Z</time></trkpt><trkpt lat="42.07887713265354" lon="13.548489241214956"><ele>762.0</ele><time>2026-05-02T13:08:48.999Z</time></trkpt><trkpt lat="42.07900522220575" lon="13.548460095682872"><ele>762.0</ele><time>2026-05-02T13:08:49.999Z</time></trkpt><trkpt lat="42.07913556986699" lon="13.548435092146454"><ele>765.25</ele><time>2026-05-02T13:08:50.999Z</time></trkpt><trkpt lat="42.079267372452016" lon="13.548404053976531"><ele>768.5</ele><time>2026-05-02T13:08:51.999Z</time></trkpt><trkpt lat="42.07940848290202" lon="13.548380435437581"><ele>771.75</ele><time>2026-05-02T13:08:52.999Z</time></trkpt><trkpt lat="42.07956063570031" lon="13.548343626119948"><ele>775.0</ele><time>2026-05-02T13:08:53.999Z</time></trkpt><trkpt lat="42.07971594717845" lon="13.548324504227706"><ele>775.0</ele><time>2026-05-02T13:08:54.999Z</time></trkpt><trkpt lat="42.07985353166808" lon="13.548283160503372"><ele>775.0</ele><time>2026-05-02T13:08:55.999Z</time></trkpt><trkpt lat="42.07997465924564" lon="13.548248455208686"><ele>775.0</ele><time>2026-05-02T13:08:56.999Z</time></trkpt><trkpt lat="42.08008321163981" lon="13.54822976076435"><ele>775.0</ele><time>2026-05-02T13:08:57.999Z</time></trkpt><trkpt lat="42.08018798478569" lon="13.548227577317856"><ele>775.8</ele><time>2026-05-02T13:08:58.999Z</time></trkpt><trkpt lat="42.080282066149316" lon="13.548206775853313"><ele>776.6</ele><time>2026-05-02T13:08:59.999Z</time></trkpt><trkpt lat="42.080362104477764" lon="13.548187954614043"><ele>777.4000000000001</ele><time>2026-05-02T13:09:00.999Z</time></trkpt><trkpt lat="42.080428411995726" lon="13.54820539373872"><ele>778.2</ele><time>2026-05-02T13:09:01.999Z</time></trkpt><trkpt lat="42.08051931954097" lon="13.548304028031168"><ele>779.0</ele><time>2026-05-02T13:09:03.999Z</time></trkpt><trkpt lat="42.080554004541064" lon="13.548421456763538"><ele>779.0</ele><time>2026-05-02T13:09:05.999Z</time></trkpt><trkpt lat="42.08060682752405" lon="13.548468550612878"><ele>779.0</ele><time>2026-05-02T13:09:07.999Z</time></trkpt><trkpt lat="42.080704525459986" lon="13.548365689374888"><ele>779.0</ele><time>2026-05-02T13:09:09.999Z</time></trkpt><trkpt lat="42.080769543238695" lon="13.548290321940751"><ele>779.0</ele><time>2026-05-02T13:09:10.999Z</time></trkpt><trkpt lat="42.08085312918517" lon="13.54821335274603"><ele>779.0</ele><time>2026-05-02T13:09:11.999Z</time></trkpt><trkpt lat="42.0809367059762" lon="13.548118293603723"><ele>780.5</ele><time>2026-05-02T13:09:12.999Z</time></trkpt><trkpt lat="42.08103608316634" lon="13.548035565883868"><ele>782.0</ele><time>2026-05-02T13:09:13.999Z</time></trkpt><trkpt lat="42.081128923368695" lon="13.547936955955784"><ele>783.5</ele><time>2026-05-02T13:09:14.999Z</time></trkpt><trkpt lat="42.08120959301025" lon="13.547830277713064"><ele>785.0</ele><time>2026-05-02T13:09:15.999Z</time></trkpt><trkpt lat="42.08129217069262" lon="13.54773713924326"><ele>782.6</ele><time>2026-05-02T13:09:16.999Z</time></trkpt><trkpt lat="42.08138572941477" lon="13.547668828966215"><ele>780.2</ele><time>2026-05-02T13:09:17.999Z</time></trkpt><trkpt lat="42.081471698324755" lon="13.547584410553563"><ele>777.8</ele><time>2026-05-02T13:09:18.999Z</time></trkpt><trkpt lat="42.08155942000281" lon="13.54751347319085"><ele>775.4</ele><time>2026-05-02T13:09:19.999Z</time></trkpt><trkpt lat="42.081649878170445" lon="13.547460055806013"><ele>773.0</ele><time>2026-05-02T13:09:20.999Z</time></trkpt><trkpt lat="42.08174169957722" lon="13.547414197532285"><ele>773.0</ele><time>2026-05-02T13:09:21.999Z</time></trkpt><trkpt lat="42.08183151412529" lon="13.547374059996182"><ele>773.0</ele><time>2026-05-02T13:09:22.999Z</time></trkpt><trkpt lat="42.08191308979623" lon="13.54731523411829"><ele>773.0</ele><time>2026-05-02T13:09:23.999Z</time></trkpt><trkpt lat="42.08199662980564" lon="13.547274942071876"><ele>773.0</ele><time>2026-05-02T13:09:24.999Z</time></trkpt><trkpt lat="42.08207833865766" lon="13.547232524837005"><ele>773.0</ele><time>2026-05-02T13:09:25.999Z</time></trkpt><trkpt lat="42.082162421572015" lon="13.547192527318378"><ele>773.0</ele><time>2026-05-02T13:09:26.999Z</time></trkpt><trkpt lat="42.08224150903365" lon="13.547139863537758"><ele>773.0</ele><time>2026-05-02T13:09:27.999Z</time></trkpt><trkpt lat="42.08231024894944" lon="13.547063168803149"><ele>773.0</ele><time>2026-05-02T13:09:28.999Z</time></trkpt><trkpt lat="42.08237733803119" lon="13.546975424044192"><ele>773.0</ele><time>2026-05-02T13:09:29.999Z</time></trkpt><trkpt lat="42.08240983924994" lon="13.546853169255687"><ele>773.0</ele><time>2026-05-02T13:09:30.999Z</time></trkpt><trkpt lat="42.08245213469554" lon="13.54672952047246"><ele>773.5999999999999</ele><time>2026-05-02T13:09:31.999Z</time></trkpt><trkpt lat="42.08249945616808" lon="13.546595544540374"><ele>774.1999999999999</ele><time>2026-05-02T13:09:32.999Z</time></trkpt><trkpt lat="42.082525059523995" lon="13.546456701142834"><ele>774.8</ele><time>2026-05-02T13:09:33.999Z</time></trkpt><trkpt lat="42.08255409969793" lon="13.546329550479452"><ele>775.4</ele><time>2026-05-02T13:09:34.999Z</time></trkpt><trkpt lat="42.0825794605317" lon="13.546204475684473"><ele>776.0</ele><time>2026-05-02T13:09:35.999Z</time></trkpt><trkpt lat="42.08259445026115" lon="13.546078173782083"><ele>774.8</ele><time>2026-05-02T13:09:36.999Z</time></trkpt><trkpt lat="42.08259860711035" lon="13.545944252979456"><ele>773.5999999999999</ele><time>2026-05-02T13:09:37.999Z</time></trkpt><trkpt lat="42.082609590400445" lon="13.54580518146554"><ele>772.4</ele><time>2026-05-02T13:09:38.999Z</time></trkpt><trkpt lat="42.082607980490764" lon="13.545666325043943"><ele>771.2</ele><time>2026-05-02T13:09:39.999Z</time></trkpt><trkpt lat="42.08259757009077" lon="13.545528863644398"><ele>770.0</ele><time>2026-05-02T13:09:40.999Z</time></trkpt><trkpt lat="42.08258633883911" lon="13.545385866657409"><ele>769.5</ele><time>2026-05-02T13:09:41.999Z</time></trkpt><trkpt lat="42.082525851324434" lon="13.54524568341318"><ele>769.0</ele><time>2026-05-02T13:09:42.999Z</time></trkpt><trkpt lat="42.08250253768911" lon="13.545089144264"><ele>768.5</ele><time>2026-05-02T13:09:43.999Z</time></trkpt><trkpt lat="42.08247462101251" lon="13.544933289716955"><ele>768.0</ele><time>2026-05-02T13:09:44.999Z</time></trkpt><trkpt lat="42.08244514010127" lon="13.544777381215399"><ele>765.4</ele><time>2026-05-02T13:09:45.999Z</time></trkpt><trkpt lat="42.082413703704496" lon="13.544621821613044"><ele>762.8</ele><time>2026-05-02T13:09:46.999Z</time></trkpt><trkpt lat="42.08238543674067" lon="13.544471248992071"><ele>760.2</ele><time>2026-05-02T13:09:47.999Z</time></trkpt><trkpt lat="42.082368224289986" lon="13.544335180085742"><ele>757.6</ele><time>2026-05-02T13:09:48.999Z</time></trkpt><trkpt lat="42.082361548779915" lon="13.544209496139189"><ele>755.0</ele><time>2026-05-02T13:09:49.999Z</time></trkpt><trkpt lat="42.0823613260737" lon="13.544102723943388"><ele>754.75</ele><time>2026-05-02T13:09:50.999Z</time></trkpt><trkpt lat="42.08236801433362" lon="13.544007721344617"><ele>754.5</ele><time>2026-05-02T13:09:51.999Z</time></trkpt><trkpt lat="42.08238028970015" lon="13.543914864965016"><ele>754.25</ele><time>2026-05-02T13:09:52.999Z</time></trkpt><trkpt lat="42.08236713223431" lon="13.543770625707166"><ele>754.0</ele><time>2026-05-02T13:09:54.999Z</time></trkpt><trkpt lat="42.082276675614054" lon="13.543496459221984"><ele>753.4000000000001</ele><time>2026-05-02T13:09:55.999Z</time></trkpt><trkpt lat="42.08221208550694" lon="13.543500414306193"><ele>752.8</ele><time>2026-05-02T13:09:56.999Z</time></trkpt><trkpt lat="42.08213890959726" lon="13.543498167767433"><ele>752.2</ele><time>2026-05-02T13:09:57.999Z</time></trkpt><trkpt lat="42.08203375517776" lon="13.543495821890907"><ele>751.5999999999999</ele><time>2026-05-02T13:09:58.999Z</time></trkpt><trkpt lat="42.081901843818244" lon="13.543493962157628"><ele>751.0</ele><time>2026-05-02T13:09:59.999Z</time></trkpt><trkpt lat="42.08178731422597" lon="13.543492999818945"><ele>751.0</ele><time>2026-05-02T13:10:00.999Z</time></trkpt><trkpt lat="42.08167664184128" lon="13.543492069890346"><ele>751.0</ele><time>2026-05-02T13:10:01.999Z</time></trkpt><trkpt lat="42.08156939606711" lon="13.543508708672098"><ele>751.0</ele><time>2026-05-02T13:10:02.999Z</time></trkpt><trkpt lat="42.081465023505544" lon="13.543490291764124"><ele>751.0</ele><time>2026-05-02T13:10:03.998Z</time></trkpt><trkpt lat="42.0813597165004" lon="13.543488996936665"><ele>751.0</ele><time>2026-05-02T13:10:04.998Z</time></trkpt><trkpt lat="42.08125195640095" lon="13.54350769414338"><ele>750.1999999999999</ele><time>2026-05-02T13:10:05.998Z</time></trkpt><trkpt lat="42.081138318528176" lon="13.543500363127569"><ele>749.4</ele><time>2026-05-02T13:10:06.998Z</time></trkpt><trkpt lat="42.08102436116222" lon="13.543494101966298"><ele>748.6</ele><time>2026-05-02T13:10:07.998Z</time></trkpt><trkpt lat="42.08091395471784" lon="13.543491585399815"><ele>747.8</ele><time>2026-05-02T13:10:08.998Z</time></trkpt><trkpt lat="42.08080852124506" lon="13.54350180355751"><ele>747.0</ele><time>2026-05-02T13:10:09.998Z</time></trkpt><trkpt lat="42.08069989687411" lon="13.543478592990605"><ele>746.4000000000001</ele><time>2026-05-02T13:10:10.998Z</time></trkpt><trkpt lat="42.0805877056821" lon="13.543476830785707"><ele>745.8000000000001</ele><time>2026-05-02T13:10:11.998Z</time></trkpt><trkpt lat="42.080477918815234" lon="13.543475106346627"><ele>745.2</ele><time>2026-05-02T13:10:12.998Z</time></trkpt><trkpt lat="42.080373536579" lon="13.54347346679994"><ele>744.6</ele><time>2026-05-02T13:10:13.998Z</time></trkpt><trkpt lat="42.08027318210996" lon="13.543471890515722"><ele>744.0</ele><time>2026-05-02T13:10:14.998Z</time></trkpt><trkpt lat="42.08017603167219" lon="13.543470693274118"><ele>744.0</ele><time>2026-05-02T13:10:15.998Z</time></trkpt><trkpt lat="42.08008364125857" lon="13.543469799835362"><ele>744.0</ele><time>2026-05-02T13:10:16.998Z</time></trkpt><trkpt lat="42.08000198561969" lon="13.543469010205573"><ele>744.0</ele><time>2026-05-02T13:10:17.998Z</time></trkpt><trkpt lat="42.07994069351669" lon="13.543489423616936"><ele>744.0</ele><time>2026-05-02T13:10:18.998Z</time></trkpt><trkpt lat="42.079855201819356" lon="13.543459157595239"><ele>744.0</ele><time>2026-05-02T13:10:20.998Z</time></trkpt><trkpt lat="42.07976811625621" lon="13.54344439371747"><ele>744.0</ele><time>2026-05-02T13:10:22.998Z</time></trkpt><trkpt lat="42.079755826164174" lon="13.543287743479219"><ele>743.5</ele><time>2026-05-02T13:10:23.998Z</time></trkpt><trkpt lat="42.079723031741096" lon="13.54318411441234"><ele>743.0</ele><time>2026-05-02T13:10:24.998Z</time></trkpt><trkpt lat="42.07969066712252" lon="13.543088275605728"><ele>742.5</ele><time>2026-05-02T13:10:25.998Z</time></trkpt><trkpt lat="42.0796457551905" lon="13.542975525315311"><ele>742.0</ele><time>2026-05-02T13:10:26.998Z</time></trkpt><trkpt lat="42.079584824254404" lon="13.542908129035082"><ele>741.5</ele><time>2026-05-02T13:10:27.998Z</time></trkpt><trkpt lat="42.07951407923129" lon="13.542875636534285"><ele>741.0</ele><time>2026-05-02T13:10:28.998Z</time></trkpt><trkpt lat="42.07942757090322" lon="13.54284804911327"><ele>741.0</ele><time>2026-05-02T13:10:29.998Z</time></trkpt><trkpt lat="42.07934411215863" lon="13.542829637160551"><ele>741.0</ele><time>2026-05-02T13:10:30.998Z</time></trkpt><trkpt lat="42.079258920045326" lon="13.542808150546547"><ele>741.0</ele><time>2026-05-02T13:10:31.998Z</time></trkpt><trkpt lat="42.079174820374405" lon="13.54278350008006"><ele>741.0</ele><time>2026-05-02T13:10:32.998Z</time></trkpt><trkpt lat="42.0790960804581" lon="13.542755373670143"><ele>741.0</ele><time>2026-05-02T13:10:33.998Z</time></trkpt><trkpt lat="42.07901949611994" lon="13.542707111763276"><ele>741.0</ele><time>2026-05-02T13:10:34.998Z</time></trkpt><trkpt lat="42.07894821498342" lon="13.542650758661427"><ele>740.5</ele><time>2026-05-02T13:10:35.998Z</time></trkpt><trkpt lat="42.0788812473526" lon="13.542575180595431"><ele>740.0</ele><time>2026-05-02T13:10:36.998Z</time></trkpt><trkpt lat="42.078816113529925" lon="13.542484725934237"><ele>739.5</ele><time>2026-05-02T13:10:37.998Z</time></trkpt><trkpt lat="42.078754694156714" lon="13.54239652054086"><ele>739.0</ele><time>2026-05-02T13:10:38.998Z</time></trkpt><trkpt lat="42.078696519712636" lon="13.542313285727127"><ele>738.5</ele><time>2026-05-02T13:10:39.998Z</time></trkpt><trkpt lat="42.07864185578293" lon="13.542236474817845"><ele>738.0</ele><time>2026-05-02T13:10:40.998Z</time></trkpt><trkpt lat="42.07859137049999" lon="13.542168456662502"><ele>738.0</ele><time>2026-05-02T13:10:41.998Z</time></trkpt><trkpt lat="42.078543083885506" lon="13.542107299268615"><ele>738.0</ele><time>2026-05-02T13:10:42.998Z</time></trkpt><trkpt lat="42.078490822021756" lon="13.542049142778634"><ele>738.0</ele><time>2026-05-02T13:10:43.998Z</time></trkpt><trkpt lat="42.078429481457604" lon="13.541990188838415"><ele>738.0</ele><time>2026-05-02T13:10:44.998Z</time></trkpt><trkpt lat="42.07837181863648" lon="13.541935353256978"><ele>738.0</ele><time>2026-05-02T13:10:45.998Z</time></trkpt><trkpt lat="42.078349511097244" lon="13.54182911324418"><ele>738.0</ele><time>2026-05-02T13:10:47.998Z</time></trkpt><trkpt lat="42.07835022703866" lon="13.541697295235728"><ele>738.4</ele><time>2026-05-02T13:10:50.998Z</time></trkpt><trkpt lat="42.078455387792864" lon="13.54149812318194"><ele>738.8</ele><time>2026-05-02T13:10:52.998Z</time></trkpt><trkpt lat="42.07839489814249" lon="13.541384089936075"><ele>739.2</ele><time>2026-05-02T13:10:54.998Z</time></trkpt><trkpt lat="42.078342174139706" lon="13.541304454206864"><ele>739.6</ele><time>2026-05-02T13:10:56.998Z</time></trkpt><trkpt lat="42.078272384248116" lon="13.54130389929003"><ele>740.0</ele><time>2026-05-02T13:10:57.998Z</time></trkpt><trkpt lat="42.07832623989102" lon="13.541259589357786"><ele>740.4</ele><time>2026-05-02T13:10:59.998Z</time></trkpt><trkpt lat="42.078297503677604" lon="13.541161793027344"><ele>740.8</ele><time>2026-05-02T13:11:01.998Z</time></trkpt><trkpt lat="42.078372347919675" lon="13.540978758782675"><ele>741.2</ele><time>2026-05-02T13:11:02.998Z</time></trkpt><trkpt lat="42.078321843935655" lon="13.54088202572836"><ele>741.6</ele><time>2026-05-02T13:11:03.998Z</time></trkpt><trkpt lat="42.078267266980305" lon="13.540777359893857"><ele>742.0</ele><time>2026-05-02T13:11:04.998Z</time></trkpt><trkpt lat="42.078210688324596" lon="13.540668856265212"><ele>740.2</ele><time>2026-05-02T13:11:05.998Z</time></trkpt><trkpt lat="42.07815574810387" lon="13.54056349240636"><ele>738.4000000000001</ele><time>2026-05-02T13:11:06.998Z</time></trkpt><trkpt lat="42.078108984131745" lon="13.540476574701534"><ele>736.5999999999999</ele><time>2026-05-02T13:11:07.998Z</time></trkpt><trkpt lat="42.07805327775914" lon="13.540375584737122"><ele>734.8</ele><time>2026-05-02T13:11:09.998Z</time></trkpt><trkpt lat="42.0779673650535" lon="13.540401000289538"><ele>733.0</ele><time>2026-05-02T13:11:10.998Z</time></trkpt><trkpt lat="42.077926877924234" lon="13.540275924129423"><ele>733.0</ele><time>2026-05-02T13:11:11.998Z</time></trkpt><trkpt lat="42.07801381305245" lon="13.540152631942671"><ele>733.0</ele><time>2026-05-02T13:11:13.998Z</time></trkpt><trkpt lat="42.07807340262882" lon="13.540092510416526"><ele>733.0</ele><time>2026-05-02T13:11:14.998Z</time></trkpt><trkpt lat="42.07816671447534" lon="13.540014923644762"><ele>733.0</ele><time>2026-05-02T13:11:16.998Z</time></trkpt><trkpt lat="42.078237258217584" lon="13.540047700718485"><ele>733.0</ele><time>2026-05-02T13:11:18.998Z</time></trkpt><trkpt lat="42.07829405032249" lon="13.540098475418835"><ele>734.8</ele><time>2026-05-02T13:11:20.998Z</time></trkpt><trkpt lat="42.078323216747094" lon="13.540192218474544"><ele>736.5999999999999</ele><time>2026-05-02T13:11:22.998Z</time></trkpt><trkpt lat="42.0783702001891" lon="13.540318471132572"><ele>738.4000000000001</ele><time>2026-05-02T13:11:24.998Z</time></trkpt><trkpt lat="42.078446117023404" lon="13.540433675608586"><ele>740.2</ele><time>2026-05-02T13:11:26.998Z</time></trkpt><trkpt lat="42.078515969303275" lon="13.540549300778526"><ele>742.0</ele><time>2026-05-02T13:11:28.998Z</time></trkpt><trkpt lat="42.07855899684466" lon="13.540636407154755"><ele>742.0</ele><time>2026-05-02T13:11:30.998Z</time></trkpt><trkpt lat="42.0786137128087" lon="13.540690268682496"><ele>742.0</ele><time>2026-05-02T13:11:33.998Z</time></trkpt><trkpt lat="42.078652026866614" lon="13.540601095546961"><ele>742.0</ele><time>2026-05-02T13:11:43.998Z</time></trkpt><trkpt lat="42.07858535551651" lon="13.540469837018495"><ele>742.0</ele><time>2026-05-02T13:11:45.998Z</time></trkpt><trkpt lat="42.0785431314637" lon="13.540393129462366"><ele>742.0</ele><time>2026-05-02T13:11:48.998Z</time></trkpt><trkpt lat="42.078605909589776" lon="13.54019653716224"><ele>742.1666666666667</ele><time>2026-05-02T13:11:52.998Z</time></trkpt><trkpt lat="42.07867604314138" lon="13.54019369533261"><ele>742.3333333333334</ele><time>2026-05-02T13:11:53.998Z</time></trkpt><trkpt lat="42.078750704540184" lon="13.540190670039381"><ele>742.5</ele><time>2026-05-02T13:11:54.998Z</time></trkpt><trkpt lat="42.07882085258169" lon="13.540186584228612"><ele>742.6666666666666</ele><time>2026-05-02T13:11:55.998Z</time></trkpt><trkpt lat="42.07888978365035" lon="13.540182464990796"><ele>742.8333333333333</ele><time>2026-05-02T13:11:56.998Z</time></trkpt><trkpt lat="42.079006653535494" lon="13.54017562741639"><ele>743.0</ele><time>2026-05-02T13:11:58.998Z</time></trkpt><trkpt lat="42.07907172224158" lon="13.540174605124658"><ele>743.0</ele><time>2026-05-02T13:11:59.997Z</time></trkpt><trkpt lat="42.07916513536105" lon="13.540328183185638"><ele>743.0</ele><time>2026-05-02T13:12:01.997Z</time></trkpt><trkpt lat="42.07922669874601" lon="13.54038879203797"><ele>743.0</ele><time>2026-05-02T13:12:03.997Z</time></trkpt><trkpt lat="42.07931475414401" lon="13.540396456129912"><ele>743.0</ele><time>2026-05-02T13:12:05.997Z</time></trkpt><trkpt lat="42.07937921057897" lon="13.540377993092672"><ele>743.0</ele><time>2026-05-02T13:12:06.997Z</time></trkpt><trkpt lat="42.07946381769726" lon="13.540324734041366"><ele>743.0</ele><time>2026-05-02T13:12:08.997Z</time></trkpt><trkpt lat="42.07954575052386" lon="13.540324104779433"><ele>743.0</ele><time>2026-05-02T13:12:12.997Z</time></trkpt><trkpt lat="42.07959170016526" lon="13.540488768557449"><ele>743.0</ele><time>2026-05-02T13:12:13.997Z</time></trkpt><trkpt lat="42.07963699915316" lon="13.540608922653416"><ele>743.0</ele><time>2026-05-02T13:12:14.997Z</time></trkpt><trkpt lat="42.079665413885664" lon="13.540736965223534"><ele>743.0</ele><time>2026-05-02T13:12:15.997Z</time></trkpt><trkpt lat="42.07973466732695" lon="13.540856660659065"><ele>743.0</ele><time>2026-05-02T13:12:16.997Z</time></trkpt><trkpt lat="42.079836045915854" lon="13.540948030320193"><ele>743.0</ele><time>2026-05-02T13:12:17.997Z</time></trkpt><trkpt lat="42.07994922400058" lon="13.54099843722687"><ele>743.0</ele><time>2026-05-02T13:12:18.997Z</time></trkpt><trkpt lat="42.080064941862766" lon="13.541045940332893"><ele>743.0</ele><time>2026-05-02T13:12:19.997Z</time></trkpt><trkpt lat="42.08019559478564" lon="13.541068200717849"><ele>743.25</ele><time>2026-05-02T13:12:20.997Z</time></trkpt><trkpt lat="42.08032632461833" lon="13.541060911851773"><ele>743.5</ele><time>2026-05-02T13:12:21.997Z</time></trkpt><trkpt lat="42.08046222489236" lon="13.541059033491559"><ele>743.75</ele><time>2026-05-02T13:12:22.997Z</time></trkpt><trkpt lat="42.08060529481683" lon="13.541051515269748"><ele>744.0</ele><time>2026-05-02T13:12:23.997Z</time></trkpt><trkpt lat="42.08075369674905" lon="13.54104431286159"><ele>744.25</ele><time>2026-05-02T13:12:24.997Z</time></trkpt><trkpt lat="42.08090111353345" lon="13.541038201631022"><ele>744.5</ele><time>2026-05-02T13:12:25.997Z</time></trkpt><trkpt lat="42.08103866009329" lon="13.54103266143081"><ele>744.75</ele><time>2026-05-02T13:12:26.997Z</time></trkpt><trkpt lat="42.08116820673857" lon="13.541037358912465"><ele>745.0</ele><time>2026-05-02T13:12:27.997Z</time></trkpt><trkpt lat="42.081293138245556" lon="13.541049700744015"><ele>745.0</ele><time>2026-05-02T13:12:28.997Z</time></trkpt><trkpt lat="42.0814147824872" lon="13.54107771229301"><ele>745.0</ele><time>2026-05-02T13:12:29.997Z</time></trkpt><trkpt lat="42.08152823153795" lon="13.54111512356142"><ele>745.0</ele><time>2026-05-02T13:12:30.997Z</time></trkpt><trkpt lat="42.081628909459646" lon="13.541156892757416"><ele>745.0</ele><time>2026-05-02T13:12:31.997Z</time></trkpt><trkpt lat="42.08171350965578" lon="13.541210556182092"><ele>745.0</ele><time>2026-05-02T13:12:32.997Z</time></trkpt><trkpt lat="42.081788111616" lon="13.541268712256164"><ele>745.1666666666667</ele><time>2026-05-02T13:12:33.997Z</time></trkpt><trkpt lat="42.08184029477119" lon="13.541326202516222"><ele>745.3333333333334</ele><time>2026-05-02T13:12:34.997Z</time></trkpt><trkpt lat="42.081913102191216" lon="13.541403598102544"><ele>745.5</ele><time>2026-05-02T13:12:36.997Z</time></trkpt><trkpt lat="42.081968240147006" lon="13.541450468083585"><ele>745.6666666666666</ele><time>2026-05-02T13:12:39.997Z</time></trkpt><trkpt lat="42.08205719827399" lon="13.54144720627854"><ele>745.8333333333333</ele><time>2026-05-02T13:12:42.997Z</time></trkpt><trkpt lat="42.08213287711017" lon="13.541521703670371"><ele>746.0</ele><time>2026-05-02T13:12:59.997Z</time></trkpt><trkpt lat="42.08219711881131" lon="13.541575237813422"><ele>746.0</ele><time>2026-05-02T13:13:29.996Z</time></trkpt><trkpt lat="42.08219096518546" lon="13.541488292652392"><ele>746.0</ele><time>2026-05-02T13:14:26Z</time></trkpt><trkpt lat="42.08224625728044" lon="13.541424961600375"><ele>746.0</ele><time>2026-05-02T13:17:50.998Z</time></trkpt><trkpt lat="42.08228296873191" lon="13.54150151277756"><ele>746.0</ele><time>2026-05-02T13:18:04.997Z</time></trkpt><trkpt lat="42.08222187343969" lon="13.541570172816021"><ele>746.0</ele><time>2026-05-02T13:18:12.997Z</time></trkpt><trkpt lat="42.082173312616746" lon="13.541497993307457"><ele>746.0</ele><time>2026-05-02T13:19:28.997Z</time></trkpt><trkpt lat="42.08220408543317" lon="13.541396638524379"><ele>746.0</ele><time>2026-05-02T13:19:38.997Z</time></trkpt><trkpt lat="42.0822137302585" lon="13.541502541705327"><ele>746.0</ele><time>2026-05-02T13:20:03.996Z</time></trkpt><trkpt lat="42.082222980022784" lon="13.541587680785502"><ele>746.0</ele><time>2026-05-02T13:20:18.996Z</time></trkpt><trkpt lat="42.08226072465501" lon="13.541675633654725"><ele>746.0</ele><time>2026-05-02T13:20:54.996Z</time></trkpt><trkpt lat="42.08228790119047" lon="13.541767207470079"><ele>746.0</ele><time>2026-05-02T13:20:55.996Z</time></trkpt><trkpt lat="42.08233668198058" lon="13.541865215837184"><ele>746.0</ele><time>2026-05-02T13:20:56.996Z</time></trkpt><trkpt lat="42.08238816732436" lon="13.54197301384209"><ele>746.0</ele><time>2026-05-02T13:20:57.996Z</time></trkpt><trkpt lat="42.082336777136234" lon="13.542149062985267"><ele>746.1666666666666</ele><time>2026-05-02T13:20:58.996Z</time></trkpt><trkpt lat="42.082376676008195" lon="13.542250554702006"><ele>746.3333333333333</ele><time>2026-05-02T13:20:59.996Z</time></trkpt><trkpt lat="42.082411514433204" lon="13.542340777623219"><ele>746.5</ele><time>2026-05-02T13:21:00.999Z</time></trkpt><trkpt lat="42.082440730914094" lon="13.542416441188774"><ele>746.6666666666666</ele><time>2026-05-02T13:21:01.999Z</time></trkpt><trkpt lat="42.08247842202613" lon="13.542512374968323"><ele>746.8333333333334</ele><time>2026-05-02T13:21:04Z</time></trkpt><trkpt lat="42.08251331774072" lon="13.542603965413411"><ele>747.0</ele><time>2026-05-02T13:21:09Z</time></trkpt><trkpt lat="42.082442374419344" lon="13.542630907368435"><ele>747.0</ele><time>2026-05-02T13:21:10Z</time></trkpt><trkpt lat="42.0823889904499" lon="13.542716568354983"><ele>747.0</ele><time>2026-05-02T13:21:11Z</time></trkpt><trkpt lat="42.08235262910803" lon="13.542802090051017"><ele>747.0</ele><time>2026-05-02T13:21:12Z</time></trkpt><trkpt lat="42.08231589412964" lon="13.542890433803029"><ele>747.0</ele><time>2026-05-02T13:21:13Z</time></trkpt><trkpt lat="42.08249525213715" lon="13.54301888837927"><ele>747.0</ele><time>2026-05-02T13:21:16Z</time></trkpt><trkpt lat="42.08256916774068" lon="13.542979361046138"><ele>748.2</ele><time>2026-05-02T13:21:18Z</time></trkpt><trkpt lat="42.08260662159976" lon="13.542906269895175"><ele>749.4000000000001</ele><time>2026-05-02T13:21:19Z</time></trkpt><trkpt lat="42.082637024615174" lon="13.54282244944294"><ele>750.5999999999999</ele><time>2026-05-02T13:21:20Z</time></trkpt><trkpt lat="42.082735080565776" lon="13.542745343014785"><ele>751.8</ele><time>2026-05-02T13:21:22Z</time></trkpt><trkpt lat="42.08279198653992" lon="13.542972714069435"><ele>753.0</ele><time>2026-05-02T13:21:23Z</time></trkpt><trkpt lat="42.08293437740348" lon="13.542749524179808"><ele>753.0</ele><time>2026-05-02T13:21:25Z</time></trkpt><trkpt lat="42.083018969017516" lon="13.542765873200272"><ele>753.0</ele><time>2026-05-02T13:21:26Z</time></trkpt><trkpt lat="42.08310897585016" lon="13.54278357300593"><ele>753.0</ele><time>2026-05-02T13:21:27Z</time></trkpt><trkpt lat="42.08320073027824" lon="13.54279885615714"><ele>753.0</ele><time>2026-05-02T13:21:28Z</time></trkpt><trkpt lat="42.08329260241867" lon="13.542827400781974"><ele>753.0</ele><time>2026-05-02T13:21:29Z</time></trkpt><trkpt lat="42.083381883624334" lon="13.54284267586331"><ele>754.0</ele><time>2026-05-02T13:21:30Z</time></trkpt><trkpt lat="42.08347248548078" lon="13.542850752948638"><ele>755.0</ele><time>2026-05-02T13:21:31Z</time></trkpt><trkpt lat="42.08356879388455" lon="13.542864497805494"><ele>756.0</ele><time>2026-05-02T13:21:32Z</time></trkpt><trkpt lat="42.08367101107999" lon="13.542865269780494"><ele>757.0</ele><time>2026-05-02T13:21:33Z</time></trkpt><trkpt lat="42.08380323302463" lon="13.543080614476079"><ele>762.0</ele><time>2026-05-02T13:21:34Z</time></trkpt><trkpt lat="42.08393863905194" lon="13.54303876922771"><ele>767.0</ele><time>2026-05-02T13:21:35Z</time></trkpt><trkpt lat="42.08405717751797" lon="13.54297926433381"><ele>772.0</ele><time>2026-05-02T13:21:36Z</time></trkpt><trkpt lat="42.08416089965632" lon="13.54294510536709"><ele>777.0</ele><time>2026-05-02T13:21:37Z</time></trkpt><trkpt lat="42.0842770923925" lon="13.542931829724429"><ele>779.25</ele><time>2026-05-02T13:21:38Z</time></trkpt><trkpt lat="42.084408230720236" lon="13.542939734083557"><ele>781.5</ele><time>2026-05-02T13:21:39Z</time></trkpt><trkpt lat="42.08456611231839" lon="13.542957242069397"><ele>783.75</ele><time>2026-05-02T13:21:40Z</time></trkpt><trkpt lat="42.08470842341919" lon="13.542972469673728"><ele>786.0</ele><time>2026-05-02T13:21:41Z</time></trkpt><trkpt lat="42.08483001132714" lon="13.542985479848127"><ele>787.8</ele><time>2026-05-02T13:21:42Z</time></trkpt><trkpt lat="42.08493767527503" lon="13.542996372489677"><ele>789.5999999999999</ele><time>2026-05-02T13:21:43Z</time></trkpt><trkpt lat="42.08504063622663" lon="13.543009744516358"><ele>791.4</ele><time>2026-05-02T13:21:44Z</time></trkpt><trkpt lat="42.08513075074202" lon="13.54302739886563"><ele>793.2</ele><time>2026-05-02T13:21:45Z</time></trkpt><trkpt lat="42.08521693710646" lon="13.543045133081142"><ele>795.0</ele><time>2026-05-02T13:21:46Z</time></trkpt><trkpt lat="42.08531784369862" lon="13.543088293207486"><ele>795.0</ele><time>2026-05-02T13:21:47Z</time></trkpt><trkpt lat="42.085413005259916" lon="13.543143176286426"><ele>795.0</ele><time>2026-05-02T13:21:48Z</time></trkpt><trkpt lat="42.08550731407591" lon="13.543201002287383"><ele>795.0</ele><time>2026-05-02T13:21:49Z</time></trkpt><trkpt lat="42.085600785144536" lon="13.543253894585382"><ele>795.0</ele><time>2026-05-02T13:21:50Z</time></trkpt><trkpt lat="42.08569394267754" lon="13.543303645633431"><ele>795.0</ele><time>2026-05-02T13:21:51Z</time></trkpt><trkpt lat="42.085789808831805" lon="13.543353627168026"><ele>794.75</ele><time>2026-05-02T13:21:52Z</time></trkpt><trkpt lat="42.08589507070728" lon="13.543406532851765"><ele>794.5</ele><time>2026-05-02T13:21:53Z</time></trkpt><trkpt lat="42.08600930545107" lon="13.543457198485472"><ele>794.25</ele><time>2026-05-02T13:21:54Z</time></trkpt><trkpt lat="42.086139679537304" lon="13.543499151205717"><ele>794.0</ele><time>2026-05-02T13:21:55Z</time></trkpt><trkpt lat="42.08626881902797" lon="13.54352884073744"><ele>794.0</ele><time>2026-05-02T13:21:56Z</time></trkpt><trkpt lat="42.086393222052024" lon="13.5435559479848"><ele>794.0</ele><time>2026-05-02T13:21:57Z</time></trkpt><trkpt lat="42.086520158478635" lon="13.543580729321132"><ele>794.0</ele><time>2026-05-02T13:21:58Z</time></trkpt><trkpt lat="42.08662671439175" lon="13.543594909737472"><ele>794.0</ele><time>2026-05-02T13:21:59Z</time></trkpt><trkpt lat="42.086743833429765" lon="13.543591142304425"><ele>793.6</ele><time>2026-05-02T13:22:00Z</time></trkpt><trkpt lat="42.08683271681185" lon="13.543588450895824"><ele>793.2</ele><time>2026-05-02T13:22:01Z</time></trkpt><trkpt lat="42.086930559507216" lon="13.543581082470327"><ele>792.8000000000001</ele><time>2026-05-02T13:22:02Z</time></trkpt><trkpt lat="42.08706984077143" lon="13.543494853575679"><ele>792.4000000000001</ele><time>2026-05-02T13:22:03Z</time></trkpt><trkpt lat="42.08714311835085" lon="13.54342648596961"><ele>792.0</ele><time>2026-05-02T13:22:04Z</time></trkpt><trkpt lat="42.08721834155327" lon="13.543347315888944"><ele>792.0</ele><time>2026-05-02T13:22:05Z</time></trkpt><trkpt lat="42.08728971199305" lon="13.54326239059113"><ele>792.0</ele><time>2026-05-02T13:22:06Z</time></trkpt><trkpt lat="42.08734578113195" lon="13.543167388217046"><ele>792.0</ele><time>2026-05-02T13:22:07Z</time></trkpt><trkpt lat="42.08739580063122" lon="13.543060952066796"><ele>792.0</ele><time>2026-05-02T13:22:09Z</time></trkpt><trkpt lat="42.087407107620564" lon="13.542923167033782"><ele>792.0</ele><time>2026-05-02T13:22:12Z</time></trkpt><trkpt lat="42.08745084380818" lon="13.542848799540275"><ele>792.0</ele><time>2026-05-02T13:22:13Z</time></trkpt><trkpt lat="42.08750378416501" lon="13.542754316314396"><ele>792.0</ele><time>2026-05-02T13:22:14Z</time></trkpt><trkpt lat="42.087564740589094" lon="13.542657916542328"><ele>792.0</ele><time>2026-05-02T13:22:15Z</time></trkpt><trkpt lat="42.08767083507199" lon="13.542625811715899"><ele>792.0</ele><time>2026-05-02T13:22:16Z</time></trkpt><trkpt lat="42.087739146879755" lon="13.542508915891606"><ele>792.0</ele><time>2026-05-02T13:22:17Z</time></trkpt><trkpt lat="42.08780398496077" lon="13.54238990275159"><ele>792.0</ele><time>2026-05-02T13:22:18Z</time></trkpt><trkpt lat="42.08788423898594" lon="13.54227874448475"><ele>792.0</ele><time>2026-05-02T13:22:19Z</time></trkpt><trkpt lat="42.08797528426177" lon="13.542192275150835"><ele>792.0</ele><time>2026-05-02T13:22:20Z</time></trkpt><trkpt lat="42.08808066855376" lon="13.542120696544078"><ele>792.0</ele><time>2026-05-02T13:22:21Z</time></trkpt><trkpt lat="42.08819013613996" lon="13.542053101923825"><ele>792.8</ele><time>2026-05-02T13:22:22Z</time></trkpt><trkpt lat="42.088290600214485" lon="13.541992771662557"><ele>793.6</ele><time>2026-05-02T13:22:23Z</time></trkpt><trkpt lat="42.08838068422745" lon="13.541940498802877"><ele>794.4</ele><time>2026-05-02T13:22:24Z</time></trkpt><trkpt lat="42.088462724911295" lon="13.541895694939532"><ele>795.1999999999999</ele><time>2026-05-02T13:22:24.999Z</time></trkpt><trkpt lat="42.088558844571764" lon="13.541849532651998"><ele>796.0</ele><time>2026-05-02T13:22:25.999Z</time></trkpt><trkpt lat="42.08864563638538" lon="13.541746866316245"><ele>796.0</ele><time>2026-05-02T13:22:26.999Z</time></trkpt><trkpt lat="42.08868036588555" lon="13.541618294778882"><ele>796.0</ele><time>2026-05-02T13:22:27.999Z</time></trkpt><trkpt lat="42.08868935063387" lon="13.541470835132207"><ele>796.0</ele><time>2026-05-02T13:22:28.999Z</time></trkpt><trkpt lat="42.08867126492274" lon="13.541306343417947"><ele>796.0</ele><time>2026-05-02T13:22:29.999Z</time></trkpt><trkpt lat="42.088632991114" lon="13.541155932619347"><ele>795.75</ele><time>2026-05-02T13:22:30.999Z</time></trkpt><trkpt lat="42.08857111923747" lon="13.54100180494245"><ele>795.5</ele><time>2026-05-02T13:22:31.999Z</time></trkpt><trkpt lat="42.08849593483598" lon="13.540875846314314"><ele>795.25</ele><time>2026-05-02T13:22:32.999Z</time></trkpt><trkpt lat="42.088417517314646" lon="13.540761656643271"><ele>795.0</ele><time>2026-05-02T13:22:33.999Z</time></trkpt><trkpt lat="42.08836017247378" lon="13.540644249380895"><ele>795.0</ele><time>2026-05-02T13:22:34.999Z</time></trkpt><trkpt lat="42.08833032021132" lon="13.540524251897017"><ele>795.0</ele><time>2026-05-02T13:22:35.999Z</time></trkpt><trkpt lat="42.08830878253545" lon="13.540387180924261"><ele>795.0</ele><time>2026-05-02T13:22:36.999Z</time></trkpt><trkpt lat="42.088297380756856" lon="13.5402393368337"><ele>795.0</ele><time>2026-05-02T13:22:37.999Z</time></trkpt><trkpt lat="42.08829241369264" lon="13.54006752931077"><ele>795.0</ele><time>2026-05-02T13:22:38.999Z</time></trkpt><trkpt lat="42.08829628750884" lon="13.539897154981311"><ele>794.8</ele><time>2026-05-02T13:22:39.999Z</time></trkpt><trkpt lat="42.088305236919254" lon="13.539738657578745"><ele>794.6</ele><time>2026-05-02T13:22:40.999Z</time></trkpt><trkpt lat="42.088315091495474" lon="13.539594300935027"><ele>794.4000000000001</ele><time>2026-05-02T13:22:41.999Z</time></trkpt><trkpt lat="42.08832863588222" lon="13.539468377772412"><ele>794.2</ele><time>2026-05-02T13:22:42.999Z</time></trkpt><trkpt lat="42.08834325346505" lon="13.539362668391567"><ele>794.0</ele><time>2026-05-02T13:22:43.999Z</time></trkpt><trkpt lat="42.08835514031744" lon="13.53927670672922"><ele>794.0000000000001</ele><time>2026-05-02T13:22:44.999Z</time></trkpt><trkpt lat="42.088351651398874" lon="13.539112716424855"><ele>794.0</ele><time>2026-05-02T13:22:46.999Z</time></trkpt><trkpt lat="42.08836722590588" lon="13.539018142639001"><ele>794.0</ele><time>2026-05-02T13:22:47.999Z</time></trkpt><trkpt lat="42.08836226547073" lon="13.538926308902152"><ele>794.0</ele><time>2026-05-02T13:22:48.999Z</time></trkpt><trkpt lat="42.08835317024783" lon="13.53884111005381"><ele>794.0000000000001</ele><time>2026-05-02T13:22:49.999Z</time></trkpt><trkpt lat="42.08833576767936" lon="13.538719672528428"><ele>794.0</ele><time>2026-05-02T13:22:51.999Z</time></trkpt><trkpt lat="42.08838979168798" lon="13.538665114985157"><ele>794.0000000000001</ele><time>2026-05-02T13:22:54.999Z</time></trkpt><trkpt lat="42.08846646701436" lon="13.538614804135467"><ele>794.0</ele><time>2026-05-02T13:22:55.999Z</time></trkpt><trkpt lat="42.08855594694839" lon="13.538567961855682"><ele>794.0</ele><time>2026-05-02T13:22:56.999Z</time></trkpt><trkpt lat="42.08863537412191" lon="13.53852544992251"><ele>794.0</ele><time>2026-05-02T13:22:57.999Z</time></trkpt><trkpt lat="42.08870080098903" lon="13.538490859430642"><ele>794.0000000000001</ele><time>2026-05-02T13:22:58.999Z</time></trkpt><trkpt lat="42.088771659128426" lon="13.538466360895656"><ele>794.0</ele><time>2026-05-02T13:22:59.999Z</time></trkpt><trkpt lat="42.088831949096395" lon="13.538407911540235"><ele>794.0</ele><time>2026-05-02T13:23:00.999Z</time></trkpt><trkpt lat="42.08888425788559" lon="13.538328397167597"><ele>794.0</ele><time>2026-05-02T13:23:01.999Z</time></trkpt><trkpt lat="42.088949867820695" lon="13.538243944938465"><ele>794.0</ele><time>2026-05-02T13:23:02.999Z</time></trkpt><trkpt lat="42.08901376154021" lon="13.538149630594242"><ele>794.0</ele><time>2026-05-02T13:23:03.999Z</time></trkpt><trkpt lat="42.08907850684564" lon="13.53804459930293"><ele>794.0</ele><time>2026-05-02T13:23:04.999Z</time></trkpt><trkpt lat="42.08912397646647" lon="13.537918453975326"><ele>796.25</ele><time>2026-05-02T13:23:05.999Z</time></trkpt><trkpt lat="42.08918726359815" lon="13.53779132936515"><ele>798.5</ele><time>2026-05-02T13:23:06.999Z</time></trkpt><trkpt lat="42.08926820211091" lon="13.53765978280685"><ele>800.75</ele><time>2026-05-02T13:23:07.999Z</time></trkpt><trkpt lat="42.08936683005708" lon="13.537546067692011"><ele>803.0</ele><time>2026-05-02T13:23:08.999Z</time></trkpt><trkpt lat="42.089471639225984" lon="13.537431004055897"><ele>803.0</ele><time>2026-05-02T13:23:09.999Z</time></trkpt><trkpt lat="42.089582320033" lon="13.537322847638496"><ele>803.0</ele><time>2026-05-02T13:23:10.999Z</time></trkpt><trkpt lat="42.08967685695321" lon="13.537191739363113"><ele>803.0</ele><time>2026-05-02T13:23:11.999Z</time></trkpt><trkpt lat="42.08978031568247" lon="13.537076187424463"><ele>803.0</ele><time>2026-05-02T13:23:12.999Z</time></trkpt><trkpt lat="42.08988020847312" lon="13.536967058337716"><ele>804.8</ele><time>2026-05-02T13:23:13.999Z</time></trkpt><trkpt lat="42.08997164346455" lon="13.536867644908124"><ele>806.5999999999999</ele><time>2026-05-02T13:23:14.999Z</time></trkpt><trkpt lat="42.09005236751357" lon="13.53678071642392"><ele>808.4000000000001</ele><time>2026-05-02T13:23:15.999Z</time></trkpt><trkpt lat="42.09010526005704" lon="13.536683514548885"><ele>810.2</ele><time>2026-05-02T13:23:16.999Z</time></trkpt><trkpt lat="42.09015691499488" lon="13.536618486716913"><ele>812.0</ele><time>2026-05-02T13:23:17.999Z</time></trkpt><trkpt lat="42.0902424463128" lon="13.536514577369134"><ele>812.0</ele><time>2026-05-02T13:23:19.999Z</time></trkpt><trkpt lat="42.09035150973537" lon="13.536443173646862"><ele>812.0</ele><time>2026-05-02T13:23:20.999Z</time></trkpt><trkpt lat="42.09033626710349" lon="13.5363484062981"><ele>812.0</ele><time>2026-05-02T13:23:21.999Z</time></trkpt><trkpt lat="42.09030270523191" lon="13.53621784219124"><ele>812.0</ele><time>2026-05-02T13:23:22.999Z</time></trkpt><trkpt lat="42.09028532887233" lon="13.536074140593971"><ele>812.0</ele><time>2026-05-02T13:23:23.999Z</time></trkpt><trkpt lat="42.09026903735832" lon="13.535942030058559"><ele>811.2</ele><time>2026-05-02T13:23:24.999Z</time></trkpt><trkpt lat="42.09025884641338" lon="13.535823096301426"><ele>810.4000000000001</ele><time>2026-05-02T13:23:25.999Z</time></trkpt><trkpt lat="42.0902558000804" lon="13.535710258934975"><ele>809.5999999999999</ele><time>2026-05-02T13:23:26.999Z</time></trkpt><trkpt lat="42.09023842958944" lon="13.53559446566463"><ele>808.8</ele><time>2026-05-02T13:23:27.999Z</time></trkpt><trkpt lat="42.090211091211344" lon="13.535457511345871"><ele>808.0</ele><time>2026-05-02T13:23:28.999Z</time></trkpt><trkpt lat="42.09022312444828" lon="13.535317881966012"><ele>808.0</ele><time>2026-05-02T13:23:29.999Z</time></trkpt><trkpt lat="42.09024675175578" lon="13.535177818579669"><ele>808.0</ele><time>2026-05-02T13:23:30.999Z</time></trkpt><trkpt lat="42.0902676110669" lon="13.535044881450247"><ele>808.0</ele><time>2026-05-02T13:23:31.999Z</time></trkpt><trkpt lat="42.09028030689921" lon="13.534925201949905"><ele>808.0</ele><time>2026-05-02T13:23:32.999Z</time></trkpt><trkpt lat="42.090289931758996" lon="13.534814608288473"><ele>808.0</ele><time>2026-05-02T13:23:33.999Z</time></trkpt><trkpt lat="42.090301927071756" lon="13.53469022018865"><ele>808.0</ele><time>2026-05-02T13:23:34.999Z</time></trkpt><trkpt lat="42.090341415975196" lon="13.534569765581885"><ele>808.0</ele><time>2026-05-02T13:23:35.999Z</time></trkpt><trkpt lat="42.0904021362956" lon="13.534439752770957"><ele>808.0</ele><time>2026-05-02T13:23:36.999Z</time></trkpt><trkpt lat="42.09048022518816" lon="13.534307446744412"><ele>808.0</ele><time>2026-05-02T13:23:37.999Z</time></trkpt><trkpt lat="42.09057101757042" lon="13.534168858408934"><ele>808.0</ele><time>2026-05-02T13:23:38.999Z</time></trkpt><trkpt lat="42.090673477979614" lon="13.53401025032299"><ele>808.0</ele><time>2026-05-02T13:23:39.999Z</time></trkpt><trkpt lat="42.09077071640265" lon="13.533839713348403"><ele>808.0</ele><time>2026-05-02T13:23:40.999Z</time></trkpt><trkpt lat="42.090864908654154" lon="13.533674036967845"><ele>809.5</ele><time>2026-05-02T13:23:41.999Z</time></trkpt><trkpt lat="42.090947952516835" lon="13.53351844053167"><ele>811.0</ele><time>2026-05-02T13:23:42.999Z</time></trkpt><trkpt lat="42.09101825288771" lon="13.533371388446032"><ele>812.5</ele><time>2026-05-02T13:23:43.999Z</time></trkpt><trkpt lat="42.09108335195812" lon="13.533232050894489"><ele>814.0</ele><time>2026-05-02T13:23:44.999Z</time></trkpt><trkpt lat="42.091142603426086" lon="13.533099051462502"><ele>814.0</ele><time>2026-05-02T13:23:45.999Z</time></trkpt><trkpt lat="42.091182424708556" lon="13.53294652258314"><ele>814.0</ele><time>2026-05-02T13:23:46.999Z</time></trkpt><trkpt lat="42.091266058900516" lon="13.532827032694685"><ele>814.0</ele><time>2026-05-02T13:23:47.999Z</time></trkpt><trkpt lat="42.09136837042825" lon="13.532728527520923"><ele>814.0</ele><time>2026-05-02T13:23:48.999Z</time></trkpt><trkpt lat="42.091458983922394" lon="13.532593785219444"><ele>814.25</ele><time>2026-05-02T13:23:49.999Z</time></trkpt><trkpt lat="42.091557975066884" lon="13.53245847687728"><ele>814.5</ele><time>2026-05-02T13:23:50.999Z</time></trkpt><trkpt lat="42.09165604449115" lon="13.53232433193506"><ele>814.75</ele><time>2026-05-02T13:23:51.999Z</time></trkpt><trkpt lat="42.09174560885291" lon="13.532188442115512"><ele>815.0</ele><time>2026-05-02T13:23:52.999Z</time></trkpt><trkpt lat="42.09182097574744" lon="13.53204482966715"><ele>816.25</ele><time>2026-05-02T13:23:53.999Z</time></trkpt><trkpt lat="42.09188493026714" lon="13.5318998142249"><ele>817.5</ele><time>2026-05-02T13:23:54.999Z</time></trkpt><trkpt lat="42.09194477314179" lon="13.531763621579522"><ele>818.75</ele><time>2026-05-02T13:23:55.999Z</time></trkpt><trkpt lat="42.0919873198308" lon="13.53162666484814"><ele>820.0</ele><time>2026-05-02T13:23:56.999Z</time></trkpt><trkpt lat="42.092003537727166" lon="13.531467914166699"><ele>820.0</ele><time>2026-05-02T13:23:57.999Z</time></trkpt><trkpt lat="42.09203713108734" lon="13.531304631707131"><ele>820.0</ele><time>2026-05-02T13:23:58.999Z</time></trkpt><trkpt lat="42.09207449366201" lon="13.531128063982566"><ele>820.0</ele><time>2026-05-02T13:23:59.999Z</time></trkpt><trkpt lat="42.0921016725231" lon="13.530938640769788"><ele>820.0</ele><time>2026-05-02T13:24:00.999Z</time></trkpt><trkpt lat="42.09215681994683" lon="13.530750011134186"><ele>819.3333333333333</ele><time>2026-05-02T13:24:01.999Z</time></trkpt><trkpt lat="42.092211853284105" lon="13.530552519958778"><ele>818.6666666666667</ele><time>2026-05-02T13:24:02.999Z</time></trkpt><trkpt lat="42.092278689149126" lon="13.530356710119749"><ele>818.0</ele><time>2026-05-02T13:24:03.999Z</time></trkpt><trkpt lat="42.09235403382979" lon="13.530156589329092"><ele>821.3333333333334</ele><time>2026-05-02T13:24:04.999Z</time></trkpt><trkpt lat="42.09243998972896" lon="13.529977035579174"><ele>824.6666666666667</ele><time>2026-05-02T13:24:05.999Z</time></trkpt><trkpt lat="42.092547298832216" lon="13.529804541907431"><ele>828.0</ele><time>2026-05-02T13:24:06.999Z</time></trkpt><trkpt lat="42.092598329104256" lon="13.529639164703017"><ele>827.25</ele><time>2026-05-02T13:24:07.999Z</time></trkpt><trkpt lat="42.09265908692508" lon="13.529485357613758"><ele>826.5</ele><time>2026-05-02T13:24:08.999Z</time></trkpt><trkpt lat="42.09271626741174" lon="13.529339627813497"><ele>825.75</ele><time>2026-05-02T13:24:09.999Z</time></trkpt><trkpt lat="42.092776018649914" lon="13.52917668603438"><ele>825.0</ele><time>2026-05-02T13:24:10.999Z</time></trkpt><trkpt lat="42.09282165311949" lon="13.5290349298392"><ele>825.0</ele><time>2026-05-02T13:24:11.998Z</time></trkpt><trkpt lat="42.09286322889455" lon="13.528891272663296"><ele>825.0</ele><time>2026-05-02T13:24:12.998Z</time></trkpt><trkpt lat="42.092916696596646" lon="13.52874300761484"><ele>825.0</ele><time>2026-05-02T13:24:13.998Z</time></trkpt><trkpt lat="42.092971045555004" lon="13.528613051438235"><ele>825.0</ele><time>2026-05-02T13:24:14.998Z</time></trkpt><trkpt lat="42.09301734045428" lon="13.528494540390225"><ele>825.0</ele><time>2026-05-02T13:24:15.998Z</time></trkpt><trkpt lat="42.09305800358546" lon="13.52837770907826"><ele>824.3333333333334</ele><time>2026-05-02T13:24:16.998Z</time></trkpt><trkpt lat="42.09310336564901" lon="13.528281300201682"><ele>823.6666666666667</ele><time>2026-05-02T13:24:17.998Z</time></trkpt><trkpt lat="42.0931681787258" lon="13.528220753995486"><ele>823.0</ele><time>2026-05-02T13:24:18.998Z</time></trkpt><trkpt lat="42.093231104591105" lon="13.528144504409859"><ele>822.3333333333334</ele><time>2026-05-02T13:24:19.998Z</time></trkpt><trkpt lat="42.093284548396475" lon="13.528054202916655"><ele>821.6666666666667</ele><time>2026-05-02T13:24:20.998Z</time></trkpt><trkpt lat="42.093358379103876" lon="13.527973713698836"><ele>821.0</ele><time>2026-05-02T13:24:21.998Z</time></trkpt><trkpt lat="42.09342879107712" lon="13.527902866257927"><ele>822.0000000000001</ele><time>2026-05-02T13:24:22.998Z</time></trkpt><trkpt lat="42.09349606719361" lon="13.527856727477818"><ele>823.0</ele><time>2026-05-02T13:24:23.998Z</time></trkpt><trkpt lat="42.09354655114113" lon="13.527782149610724"><ele>824.0</ele><time>2026-05-02T13:24:24.998Z</time></trkpt><trkpt lat="42.093610611209286" lon="13.527739491557135"><ele>825.0</ele><time>2026-05-02T13:24:25.998Z</time></trkpt><trkpt lat="42.09367936506372" lon="13.527685924370305"><ele>826.0</ele><time>2026-05-02T13:24:26.998Z</time></trkpt><trkpt lat="42.09374558243767" lon="13.527651199959314"><ele>827.0000000000001</ele><time>2026-05-02T13:24:27.998Z</time></trkpt><trkpt lat="42.093790567850455" lon="13.527576828419841"><ele>828.0</ele><time>2026-05-02T13:24:28.998Z</time></trkpt><trkpt lat="42.09385367322124" lon="13.527525415097353"><ele>828.0</ele><time>2026-05-02T13:24:30.998Z</time></trkpt><trkpt lat="42.09387593525291" lon="13.527380241063748"><ele>828.0</ele><time>2026-05-02T13:24:32.998Z</time></trkpt><trkpt lat="42.09388409662122" lon="13.527243398348404"><ele>828.0</ele><time>2026-05-02T13:24:34.998Z</time></trkpt><trkpt lat="42.09390100347559" lon="13.52709907334269"><ele>828.0</ele><time>2026-05-02T13:24:36.997Z</time></trkpt><trkpt lat="42.09391530229974" lon="13.526909035040255"><ele>827.5999999999999</ele><time>2026-05-02T13:24:38.997Z</time></trkpt><trkpt lat="42.093929355470095" lon="13.526745216994618"><ele>827.1999999999999</ele><time>2026-05-02T13:24:40.997Z</time></trkpt><trkpt lat="42.093951124061824" lon="13.526635055031523"><ele>826.8</ele><time>2026-05-02T13:24:41.997Z</time></trkpt><trkpt lat="42.0939733524653" lon="13.526524534569042"><ele>826.4</ele><time>2026-05-02T13:24:42.997Z</time></trkpt><trkpt lat="42.09401828452915" lon="13.526423164652943"><ele>826.0</ele><time>2026-05-02T13:24:43.997Z</time></trkpt><trkpt lat="42.09402494113137" lon="13.526329217316194"><ele>826.0</ele><time>2026-05-02T13:24:44.997Z</time></trkpt><trkpt lat="42.09403486708521" lon="13.526237768617627"><ele>826.0</ele><time>2026-05-02T13:24:45.997Z</time></trkpt><trkpt lat="42.09405206467323" lon="13.526058261376248"><ele>826.0</ele><time>2026-05-02T13:24:47.997Z</time></trkpt><trkpt lat="42.094117241915335" lon="13.525908744786275"><ele>826.0</ele><time>2026-05-02T13:24:49.997Z</time></trkpt><trkpt lat="42.09416924337352" lon="13.525827571997961"><ele>826.0</ele><time>2026-05-02T13:24:50.997Z</time></trkpt><trkpt lat="42.094213866033975" lon="13.525689902108759"><ele>827.0</ele><time>2026-05-02T13:24:52.997Z</time></trkpt><trkpt lat="42.09421722976123" lon="13.525551645876712"><ele>828.0</ele><time>2026-05-02T13:24:54.997Z</time></trkpt><trkpt lat="42.09421570537422" lon="13.525432620927326"><ele>829.0</ele><time>2026-05-02T13:24:55.997Z</time></trkpt><trkpt lat="42.09423870404313" lon="13.525311360648239"><ele>830.0</ele><time>2026-05-02T13:24:56.997Z</time></trkpt><trkpt lat="42.09430289418261" lon="13.525209208119124"><ele>831.0</ele><time>2026-05-02T13:24:57.997Z</time></trkpt><trkpt lat="42.09436578819635" lon="13.525129197494062"><ele>828.6666666666666</ele><time>2026-05-02T13:24:58.997Z</time></trkpt><trkpt lat="42.094432957683864" lon="13.525048319989844"><ele>826.3333333333333</ele><time>2026-05-02T13:24:59.997Z</time></trkpt><trkpt lat="42.09449866580068" lon="13.524970100356779"><ele>824.0</ele><time>2026-05-02T13:25:00.997Z</time></trkpt><trkpt lat="42.09455025817549" lon="13.5249117956723"><ele>821.6666666666666</ele><time>2026-05-02T13:25:01.997Z</time></trkpt><trkpt lat="42.094608135452425" lon="13.52484950421427"><ele>819.3333333333333</ele><time>2026-05-02T13:25:02.997Z</time></trkpt><trkpt lat="42.09466607004405" lon="13.524792722240159"><ele>817.0</ele><time>2026-05-02T13:25:03.997Z</time></trkpt><trkpt lat="42.09472309093291" lon="13.524736555373561"><ele>817.0</ele><time>2026-05-02T13:25:04.997Z</time></trkpt><trkpt lat="42.09477927905252" lon="13.524676319314892"><ele>817.0</ele><time>2026-05-02T13:25:05.997Z</time></trkpt><trkpt lat="42.09482973599834" lon="13.524604079924258"><ele>817.0</ele><time>2026-05-02T13:25:06.997Z</time></trkpt><trkpt lat="42.094933299465325" lon="13.52449925667644"><ele>817.0</ele><time>2026-05-02T13:25:08.997Z</time></trkpt><trkpt lat="42.09504607715904" lon="13.524417538349638"><ele>817.0</ele><time>2026-05-02T13:25:10.997Z</time></trkpt><trkpt lat="42.095103800817775" lon="13.524376678389592"><ele>817.6666666666666</ele><time>2026-05-02T13:25:11.997Z</time></trkpt><trkpt lat="42.095178769455515" lon="13.524339769756851"><ele>818.3333333333333</ele><time>2026-05-02T13:25:12.997Z</time></trkpt><trkpt lat="42.095242212806305" lon="13.524284355047833"><ele>819.0</ele><time>2026-05-02T13:25:13.997Z</time></trkpt><trkpt lat="42.095293409224155" lon="13.524230384792274"><ele>819.6666666666667</ele><time>2026-05-02T13:25:14.997Z</time></trkpt><trkpt lat="42.09535331974472" lon="13.524160061476884"><ele>820.3333333333334</ele><time>2026-05-02T13:25:15.997Z</time></trkpt><trkpt lat="42.09539571261507" lon="13.524096835658796"><ele>821.0</ele><time>2026-05-02T13:25:16.997Z</time></trkpt><trkpt lat="42.09548463148648" lon="13.52404375528957"><ele>821.0</ele><time>2026-05-02T13:25:17.997Z</time></trkpt><trkpt lat="42.095547848421" lon="13.523934157581927"><ele>821.0</ele><time>2026-05-02T13:25:18.997Z</time></trkpt><trkpt lat="42.09563898255613" lon="13.523884042943251"><ele>821.0</ele><time>2026-05-02T13:25:19.997Z</time></trkpt><trkpt lat="42.095704292549726" lon="13.523756109802042"><ele>821.0</ele><time>2026-05-02T13:25:21.997Z</time></trkpt><trkpt lat="42.09574417834525" lon="13.523670253009971"><ele>821.0</ele><time>2026-05-02T13:25:23.997Z</time></trkpt><trkpt lat="42.09583735880047" lon="13.523539662327961"><ele>823.0</ele><time>2026-05-02T13:25:25.997Z</time></trkpt><trkpt lat="42.09588251057245" lon="13.523451608598466"><ele>825.0</ele><time>2026-05-02T13:25:26.997Z</time></trkpt><trkpt lat="42.09592655917236" lon="13.523312225582316"><ele>827.0</ele><time>2026-05-02T13:25:28.997Z</time></trkpt><trkpt lat="42.09599128301573" lon="13.5231341424783"><ele>829.0</ele><time>2026-05-02T13:25:30.997Z</time></trkpt><trkpt lat="42.0960557340577" lon="13.523012532455455"><ele>828.9999999999999</ele><time>2026-05-02T13:25:31.997Z</time></trkpt><trkpt lat="42.09611838604755" lon="13.522901954185887"><ele>829.0</ele><time>2026-05-02T13:25:32.997Z</time></trkpt><trkpt lat="42.09612503226614" lon="13.522802794409088"><ele>829.0</ele><time>2026-05-02T13:25:33.997Z</time></trkpt><trkpt lat="42.096145719534604" lon="13.52269674855511"><ele>829.0</ele><time>2026-05-02T13:25:34.997Z</time></trkpt><trkpt lat="42.09616940747237" lon="13.522576593693508"><ele>828.9999999999999</ele><time>2026-05-02T13:25:35.997Z</time></trkpt><trkpt lat="42.09618891079855" lon="13.522484447431445"><ele>829.0</ele><time>2026-05-02T13:25:36.997Z</time></trkpt><trkpt lat="42.09622621073719" lon="13.522326111693653"><ele>829.6666666666666</ele><time>2026-05-02T13:25:38.997Z</time></trkpt><trkpt lat="42.096271040643394" lon="13.522173872910699"><ele>830.3333333333333</ele><time>2026-05-02T13:25:40.997Z</time></trkpt><trkpt lat="42.09631496734534" lon="13.522081794061796"><ele>831.0</ele><time>2026-05-02T13:25:41.997Z</time></trkpt><trkpt lat="42.09637399784842" lon="13.521998398342822"><ele>831.6666666666667</ele><time>2026-05-02T13:25:42.997Z</time></trkpt><trkpt lat="42.096397758978746" lon="13.521909456547428"><ele>832.3333333333334</ele><time>2026-05-02T13:25:43.997Z</time></trkpt><trkpt lat="42.09635689349567" lon="13.521827064863055"><ele>833.0</ele><time>2026-05-02T13:25:47.997Z</time></trkpt><trkpt lat="42.09631940653103" lon="13.52172736905547"><ele>833.2</ele><time>2026-05-02T13:25:56.997Z</time></trkpt><trkpt lat="42.09637317755705" lon="13.521632193328724"><ele>833.4</ele><time>2026-05-02T13:25:59.997Z</time></trkpt><trkpt lat="42.09636986959542" lon="13.521510210745847"><ele>833.6</ele><time>2026-05-02T13:26:02.997Z</time></trkpt><trkpt lat="42.096376043765325" lon="13.521398347650173"><ele>833.8000000000001</ele><time>2026-05-02T13:26:04.997Z</time></trkpt><trkpt lat="42.09640901260746" lon="13.52124309858605"><ele>834.0</ele><time>2026-05-02T13:26:06.997Z</time></trkpt><trkpt lat="42.0964543735764" lon="13.521114209358881"><ele>834.0</ele><time>2026-05-02T13:26:08.997Z</time></trkpt><trkpt lat="42.09650474985547" lon="13.521027533706546"><ele>834.0</ele><time>2026-05-02T13:26:10.997Z</time></trkpt><trkpt lat="42.09657193684795" lon="13.520938972019334"><ele>834.0</ele><time>2026-05-02T13:26:12.997Z</time></trkpt><trkpt lat="42.09661739728665" lon="13.520879295608198"><ele>834.0</ele><time>2026-05-02T13:26:13.997Z</time></trkpt><trkpt lat="42.09667418168019" lon="13.520796629197575"><ele>834.0</ele><time>2026-05-02T13:26:14.997Z</time></trkpt><trkpt lat="42.09672339235376" lon="13.520705270688165"><ele>834.0</ele><time>2026-05-02T13:26:15.997Z</time></trkpt><trkpt lat="42.09679123337713" lon="13.520607938655786"><ele>835.6</ele><time>2026-05-02T13:26:16.997Z</time></trkpt><trkpt lat="42.09684167053499" lon="13.520552227065473"><ele>837.2</ele><time>2026-05-02T13:26:17.997Z</time></trkpt><trkpt lat="42.09692548868392" lon="13.520437956309758"><ele>838.8000000000001</ele><time>2026-05-02T13:26:19.997Z</time></trkpt><trkpt lat="42.096996227724006" lon="13.520348081263517"><ele>840.4000000000001</ele><time>2026-05-02T13:26:21.997Z</time></trkpt><trkpt lat="42.09711042971252" lon="13.520276674939902"><ele>842.0</ele><time>2026-05-02T13:26:23.997Z</time></trkpt><trkpt lat="42.09723858440752" lon="13.520226663202"><ele>842.0000000000001</ele><time>2026-05-02T13:26:25.997Z</time></trkpt><trkpt lat="42.097299838838836" lon="13.520201781220907"><ele>842.0</ele><time>2026-05-02T13:26:26.997Z</time></trkpt><trkpt lat="42.097368147732055" lon="13.520182471426583"><ele>842.0</ele><time>2026-05-02T13:26:27.997Z</time></trkpt><trkpt lat="42.09743916793659" lon="13.520134497022593"><ele>842.0</ele><time>2026-05-02T13:26:29.997Z</time></trkpt><trkpt lat="42.09743483122581" lon="13.519981036484108"><ele>842.0000000000001</ele><time>2026-05-02T13:26:32.997Z</time></trkpt><trkpt lat="42.09740553115395" lon="13.519881418829963"><ele>842.0</ele><time>2026-05-02T13:26:33.997Z</time></trkpt><trkpt lat="42.09737513058645" lon="13.519781276763922"><ele>842.0</ele><time>2026-05-02T13:26:34.997Z</time></trkpt><trkpt lat="42.097343515978686" lon="13.51960906650559"><ele>842.0</ele><time>2026-05-02T13:26:36.997Z</time></trkpt><trkpt lat="42.09734168984591" lon="13.519519528171474"><ele>842.0</ele><time>2026-05-02T13:26:37.997Z</time></trkpt><trkpt lat="42.09732616849268" lon="13.519373495760377"><ele>842.0</ele><time>2026-05-02T13:26:39.997Z</time></trkpt><trkpt lat="42.09727975803417" lon="13.51927494910486"><ele>842.0</ele><time>2026-05-02T13:26:41.997Z</time></trkpt><trkpt lat="42.097233566320476" lon="13.519201095009798"><ele>844.6</ele><time>2026-05-02T13:26:42.997Z</time></trkpt><trkpt lat="42.09717706807156" lon="13.519080616897151"><ele>847.2</ele><time>2026-05-02T13:26:44.997Z</time></trkpt><trkpt lat="42.0972015688099" lon="13.518925173392736"><ele>849.8</ele><time>2026-05-02T13:26:46.997Z</time></trkpt><trkpt lat="42.09722671531435" lon="13.518839146444147"><ele>852.4</ele><time>2026-05-02T13:26:47.997Z</time></trkpt><trkpt lat="42.09725565478234" lon="13.518751819662729"><ele>855.0</ele><time>2026-05-02T13:26:48.996Z</time></trkpt><trkpt lat="42.097287578853475" lon="13.518643229521897"><ele>857.3333333333334</ele><time>2026-05-02T13:26:49.996Z</time></trkpt><trkpt lat="42.097321914008944" lon="13.518530420000157"><ele>859.6666666666667</ele><time>2026-05-02T13:26:50.996Z</time></trkpt><trkpt lat="42.09735768893825" lon="13.518428660293072"><ele>862.0</ele><time>2026-05-02T13:26:51.996Z</time></trkpt><trkpt lat="42.09739463574164" lon="13.518320676059918"><ele>864.3333333333334</ele><time>2026-05-02T13:26:52.996Z</time></trkpt><trkpt lat="42.09743096030197" lon="13.518213682037237"><ele>866.6666666666667</ele><time>2026-05-02T13:26:53.996Z</time></trkpt><trkpt lat="42.097472347757986" lon="13.51813298808031"><ele>869.0</ele><time>2026-05-02T13:26:54.996Z</time></trkpt><trkpt lat="42.09751397233838" lon="13.518043454838482"><ele>870.1666666666667</ele><time>2026-05-02T13:26:55.996Z</time></trkpt><trkpt lat="42.09756128251153" lon="13.517961029142961"><ele>871.3333333333334</ele><time>2026-05-02T13:26:56.996Z</time></trkpt><trkpt lat="42.09761779941613" lon="13.517867576617194"><ele>872.5</ele><time>2026-05-02T13:26:57.996Z</time></trkpt><trkpt lat="42.09765588502626" lon="13.517772762950187"><ele>873.6666666666667</ele><time>2026-05-02T13:26:58.996Z</time></trkpt><trkpt lat="42.097698986805305" lon="13.517673673525387"><ele>874.8333333333334</ele><time>2026-05-02T13:26:59.996Z</time></trkpt><trkpt lat="42.097741196463076" lon="13.517583330344301"><ele>876.0</ele><time>2026-05-02T13:27:00.996Z</time></trkpt><trkpt lat="42.09779550459329" lon="13.51747682669827"><ele>876.0</ele><time>2026-05-02T13:27:01.996Z</time></trkpt><trkpt lat="42.09785356430361" lon="13.51737114101587"><ele>876.0</ele><time>2026-05-02T13:27:02.996Z</time></trkpt><trkpt lat="42.097896212204546" lon="13.51728219553219"><ele>876.0</ele><time>2026-05-02T13:27:03.996Z</time></trkpt><trkpt lat="42.0979281681479" lon="13.517187977828222"><ele>876.0</ele><time>2026-05-02T13:27:04.996Z</time></trkpt><trkpt lat="42.09795342875789" lon="13.517098852533145"><ele>876.0</ele><time>2026-05-02T13:27:05.996Z</time></trkpt><trkpt lat="42.097973840736614" lon="13.517015742278666"><ele>876.0</ele><time>2026-05-02T13:27:06.996Z</time></trkpt><trkpt lat="42.0979944217923" lon="13.51692651992777"><ele>876.0</ele><time>2026-05-02T13:27:07.996Z</time></trkpt><trkpt lat="42.098009258672526" lon="13.516843123585877"><ele>876.0</ele><time>2026-05-02T13:27:08.996Z</time></trkpt><trkpt lat="42.09802168343449" lon="13.51674853035807"><ele>876.0</ele><time>2026-05-02T13:27:09.996Z</time></trkpt><trkpt lat="42.098031407725486" lon="13.516642199542146"><ele>876.0</ele><time>2026-05-02T13:27:10.996Z</time></trkpt><trkpt lat="42.098051422500376" lon="13.516528604711057"><ele>876.0</ele><time>2026-05-02T13:27:11.996Z</time></trkpt><trkpt lat="42.09808376562478" lon="13.516418896813349"><ele>876.0</ele><time>2026-05-02T13:27:12.996Z</time></trkpt><trkpt lat="42.098107218006575" lon="13.516303487693207"><ele>877.3333333333334</ele><time>2026-05-02T13:27:13.996Z</time></trkpt><trkpt lat="42.098130528793725" lon="13.516183519477913"><ele>878.6666666666667</ele><time>2026-05-02T13:27:14.996Z</time></trkpt><trkpt lat="42.09815086703031" lon="13.516081026763606"><ele>880.0</ele><time>2026-05-02T13:27:15.996Z</time></trkpt><trkpt lat="42.09817828885776" lon="13.515973708046806"><ele>881.3333333333334</ele><time>2026-05-02T13:27:16.996Z</time></trkpt><trkpt lat="42.098208001247905" lon="13.515891094277508"><ele>882.6666666666667</ele><time>2026-05-02T13:27:17.996Z</time></trkpt><trkpt lat="42.09825522025846" lon="13.515823406247504"><ele>884.0</ele><time>2026-05-02T13:27:18.996Z</time></trkpt><trkpt lat="42.098311562577656" lon="13.515752776895946"><ele>886.6666666666667</ele><time>2026-05-02T13:27:19.996Z</time></trkpt><trkpt lat="42.098367072009395" lon="13.515677509483199"><ele>889.3333333333334</ele><time>2026-05-02T13:27:20.996Z</time></trkpt><trkpt lat="42.09842211844026" lon="13.515592102445991"><ele>892.0</ele><time>2026-05-02T13:27:21.996Z</time></trkpt><trkpt lat="42.09846922804371" lon="13.51549732492464"><ele>894.6666666666667</ele><time>2026-05-02T13:27:22.996Z</time></trkpt><trkpt lat="42.098520154777056" lon="13.515400167193079"><ele>897.3333333333334</ele><time>2026-05-02T13:27:23.996Z</time></trkpt><trkpt lat="42.09856722140882" lon="13.515304582745955"><ele>900.0</ele><time>2026-05-02T13:27:24.996Z</time></trkpt><trkpt lat="42.09861631508232" lon="13.515212774298389"><ele>901.0</ele><time>2026-05-02T13:27:25.996Z</time></trkpt><trkpt lat="42.09867976652283" lon="13.515116766990163"><ele>902.0</ele><time>2026-05-02T13:27:27.996Z</time></trkpt><trkpt lat="42.0987360018832" lon="13.515006241585956"><ele>903.0</ele><time>2026-05-02T13:27:30.996Z</time></trkpt><trkpt lat="42.098778455119366" lon="13.514896250429059"><ele>904.0</ele><time>2026-05-02T13:27:32.996Z</time></trkpt><trkpt lat="42.098851718272606" lon="13.514752183621319"><ele>905.0</ele><time>2026-05-02T13:27:34.996Z</time></trkpt><trkpt lat="42.098875760201445" lon="13.51463772461469"><ele>905.8333333333334</ele><time>2026-05-02T13:27:35.996Z</time></trkpt><trkpt lat="42.098905906716844" lon="13.514551814672606"><ele>906.6666666666667</ele><time>2026-05-02T13:27:36.996Z</time></trkpt><trkpt lat="42.09892341241727" lon="13.514469768584581"><ele>907.5</ele><time>2026-05-02T13:27:37.996Z</time></trkpt><trkpt lat="42.09895832034355" lon="13.514328662490032"><ele>908.3333333333333</ele><time>2026-05-02T13:27:39.996Z</time></trkpt><trkpt lat="42.09892840869972" lon="13.514244683972121"><ele>909.1666666666666</ele><time>2026-05-02T13:27:41.996Z</time></trkpt><trkpt lat="42.09884837958514" lon="13.514112747461102"><ele>910.0</ele><time>2026-05-02T13:27:43.996Z</time></trkpt><trkpt lat="42.098800253450314" lon="13.514017964096238"><ele>910.0</ele><time>2026-05-02T13:27:44.996Z</time></trkpt><trkpt lat="42.098752020085385" lon="13.513889169954656"><ele>910.0</ele><time>2026-05-02T13:27:45.996Z</time></trkpt><trkpt lat="42.098698949803065" lon="13.51375224863635"><ele>910.0</ele><time>2026-05-02T13:27:46.996Z</time></trkpt><trkpt lat="42.09865414518524" lon="13.51362796895216"><ele>910.0</ele><time>2026-05-02T13:27:47.996Z</time></trkpt><trkpt lat="42.09861537809573" lon="13.513508333283188"><ele>910.0</ele><time>2026-05-02T13:27:48.996Z</time></trkpt><trkpt lat="42.098583252539456" lon="13.513411926712768"><ele>912.2</ele><time>2026-05-02T13:27:49.996Z</time></trkpt><trkpt lat="42.098559533290114" lon="13.513322277325775"><ele>914.4</ele><time>2026-05-02T13:27:50.996Z</time></trkpt><trkpt lat="42.09855253350014" lon="13.513170407035524"><ele>916.5999999999999</ele><time>2026-05-02T13:27:52.996Z</time></trkpt><trkpt lat="42.09855180376437" lon="13.513083554809267"><ele>918.8</ele><time>2026-05-02T13:27:53.996Z</time></trkpt><trkpt lat="42.09851731500538" lon="13.512915919053153"><ele>921.0</ele><time>2026-05-02T13:27:55.996Z</time></trkpt><trkpt lat="42.098484516726266" lon="13.512813061698163"><ele>921.6666666666666</ele><time>2026-05-02T13:27:56.996Z</time></trkpt><trkpt lat="42.09844899094532" lon="13.51269953391442"><ele>922.3333333333333</ele><time>2026-05-02T13:27:57.996Z</time></trkpt><trkpt lat="42.09842015055881" lon="13.512593741035905"><ele>923.0</ele><time>2026-05-02T13:27:58.996Z</time></trkpt><trkpt lat="42.09840730574579" lon="13.51249022257214"><ele>923.6666666666666</ele><time>2026-05-02T13:27:59.996Z</time></trkpt><trkpt lat="42.09840801148235" lon="13.512377430378908"><ele>924.3333333333333</ele><time>2026-05-02T13:28:00.996Z</time></trkpt><trkpt lat="42.09840842216685" lon="13.512235768907798"><ele>925.0</ele><time>2026-05-02T13:28:01.996Z</time></trkpt><trkpt lat="42.09840393121464" lon="13.512090981663238"><ele>925.8</ele><time>2026-05-02T13:28:02.996Z</time></trkpt><trkpt lat="42.09841242843835" lon="13.511938335816579"><ele>926.6</ele><time>2026-05-02T13:28:03.996Z</time></trkpt><trkpt lat="42.09842126780167" lon="13.511766793401044"><ele>927.4000000000001</ele><time>2026-05-02T13:28:04.996Z</time></trkpt><trkpt lat="42.09843483977009" lon="13.51163544832476"><ele>928.2</ele><time>2026-05-02T13:28:06.001Z</time></trkpt><trkpt lat="42.09843849477752" lon="13.511532898879599"><ele>929.0</ele><time>2026-05-02T13:28:07.001Z</time></trkpt><trkpt lat="42.098436715100696" lon="13.511439435628589"><ele>929.0</ele><time>2026-05-02T13:28:08.001Z</time></trkpt><trkpt lat="42.09839061201194" lon="13.51126795688023"><ele>929.0000000000001</ele><time>2026-05-02T13:28:10.001Z</time></trkpt><trkpt lat="42.098337234701354" lon="13.511170069223752"><ele>929.0000000000001</ele><time>2026-05-02T13:28:11.001Z</time></trkpt><trkpt lat="42.098271651557745" lon="13.511067837553584"><ele>929.0</ele><time>2026-05-02T13:28:12.001Z</time></trkpt><trkpt lat="42.09820731956529" lon="13.510968410756828"><ele>929.0</ele><time>2026-05-02T13:28:13.001Z</time></trkpt><trkpt lat="42.09815515523072" lon="13.510875781619283"><ele>925.6</ele><time>2026-05-02T13:28:14.001Z</time></trkpt><trkpt lat="42.09811008601489" lon="13.510775551908594"><ele>922.2</ele><time>2026-05-02T13:28:15.001Z</time></trkpt><trkpt lat="42.09807879460322" lon="13.510667631911398"><ele>918.8000000000001</ele><time>2026-05-02T13:28:16.001Z</time></trkpt><trkpt lat="42.09806785612419" lon="13.51053759179016"><ele>915.4000000000001</ele><time>2026-05-02T13:28:17.001Z</time></trkpt><trkpt lat="42.098031978380725" lon="13.510415421060246"><ele>912.0</ele><time>2026-05-02T13:28:18.001Z</time></trkpt><trkpt lat="42.09798152655127" lon="13.510300245544185"><ele>912.0</ele><time>2026-05-02T13:28:19.001Z</time></trkpt><trkpt lat="42.09792403844599" lon="13.510184082226957"><ele>912.0</ele><time>2026-05-02T13:28:20.001Z</time></trkpt><trkpt lat="42.09786835058157" lon="13.510073137127318"><ele>912.0</ele><time>2026-05-02T13:28:21.001Z</time></trkpt><trkpt lat="42.09781771578186" lon="13.509972259033672"><ele>912.0</ele><time>2026-05-02T13:28:22.001Z</time></trkpt><trkpt lat="42.09777208285357" lon="13.509876383001217"><ele>912.0</ele><time>2026-05-02T13:28:23.001Z</time></trkpt><trkpt lat="42.0977225946569" lon="13.509793939088228"><ele>912.0</ele><time>2026-05-02T13:28:24Z</time></trkpt><trkpt lat="42.09769677547333" lon="13.50969600577154"><ele>912.0</ele><time>2026-05-02T13:28:25Z</time></trkpt><trkpt lat="42.097671802721116" lon="13.509597659078677"><ele>912.0</ele><time>2026-05-02T13:28:26Z</time></trkpt><trkpt lat="42.09764372940475" lon="13.509500888137504"><ele>912.0</ele><time>2026-05-02T13:28:27Z</time></trkpt><trkpt lat="42.09763161808078" lon="13.509404214539286"><ele>912.0</ele><time>2026-05-02T13:28:28Z</time></trkpt><trkpt lat="42.097633440420054" lon="13.50929624904307"><ele>912.0</ele><time>2026-05-02T13:28:29Z</time></trkpt><trkpt lat="42.097651668692436" lon="13.509178331420426"><ele>912.0</ele><time>2026-05-02T13:28:30Z</time></trkpt><trkpt lat="42.09768278589205" lon="13.509041937170412"><ele>912.0</ele><time>2026-05-02T13:28:31Z</time></trkpt><trkpt lat="42.097724086695685" lon="13.508886079352452"><ele>912.0</ele><time>2026-05-02T13:28:32Z</time></trkpt><trkpt lat="42.09778148792071" lon="13.508733548851001"><ele>912.0</ele><time>2026-05-02T13:28:33Z</time></trkpt><trkpt lat="42.097796301089616" lon="13.508562280633688"><ele>912.0</ele><time>2026-05-02T13:28:34Z</time></trkpt><trkpt lat="42.097816420182184" lon="13.508383070126149"><ele>912.0</ele><time>2026-05-02T13:28:35Z</time></trkpt><trkpt lat="42.097828636112894" lon="13.508199336923731"><ele>912.0</ele><time>2026-05-02T13:28:36Z</time></trkpt><trkpt lat="42.097850400018785" lon="13.508025643940355"><ele>912.0</ele><time>2026-05-02T13:28:37Z</time></trkpt><trkpt lat="42.097879844992235" lon="13.507856345463741"><ele>912.2</ele><time>2026-05-02T13:28:38Z</time></trkpt><trkpt lat="42.09789871277075" lon="13.507701726179443"><ele>912.4000000000001</ele><time>2026-05-02T13:28:39Z</time></trkpt><trkpt lat="42.09791346215756" lon="13.507573619673037"><ele>912.5999999999999</ele><time>2026-05-02T13:28:40Z</time></trkpt><trkpt lat="42.09793670813916" lon="13.507459258533599"><ele>912.8</ele><time>2026-05-02T13:28:41Z</time></trkpt><trkpt lat="42.09798166063138" lon="13.50736024274828"><ele>913.0</ele><time>2026-05-02T13:28:42Z</time></trkpt><trkpt lat="42.09804956634875" lon="13.507265393583994"><ele>913.0</ele><time>2026-05-02T13:28:43Z</time></trkpt><trkpt lat="42.09813097041706" lon="13.507170877374893"><ele>913.0</ele><time>2026-05-02T13:28:44Z</time></trkpt><trkpt lat="42.098229265808655" lon="13.507106275551793"><ele>913.0</ele><time>2026-05-02T13:28:45Z</time></trkpt><trkpt lat="42.0983052332107" lon="13.507021040069121"><ele>913.0</ele><time>2026-05-02T13:28:46Z</time></trkpt><trkpt lat="42.09836712468797" lon="13.506936594381887"><ele>913.0</ele><time>2026-05-02T13:28:47Z</time></trkpt><trkpt lat="42.09841940375408" lon="13.506855101504232"><ele>913.3333333333333</ele><time>2026-05-02T13:28:48Z</time></trkpt><trkpt lat="42.09847344673939" lon="13.50677840549688"><ele>913.6666666666666</ele><time>2026-05-02T13:28:49Z</time></trkpt><trkpt lat="42.09851812840964" lon="13.506695765958057"><ele>914.0</ele><time>2026-05-02T13:28:50Z</time></trkpt><trkpt lat="42.098555803807336" lon="13.506596249077049"><ele>914.3333333333333</ele><time>2026-05-02T13:28:51Z</time></trkpt><trkpt lat="42.09857074716914" lon="13.50647748129073"><ele>914.6666666666666</ele><time>2026-05-02T13:28:52Z</time></trkpt><trkpt lat="42.098605138001915" lon="13.506350242369995"><ele>915.0</ele><time>2026-05-02T13:28:53Z</time></trkpt><trkpt lat="42.098641046192704" lon="13.506223229743274"><ele>915.0</ele><time>2026-05-02T13:28:54Z</time></trkpt><trkpt lat="42.09868430842071" lon="13.506122113844889"><ele>915.0</ele><time>2026-05-02T13:28:55Z</time></trkpt><trkpt lat="42.09871657922466" lon="13.50603574896464"><ele>915.0</ele><time>2026-05-02T13:28:56Z</time></trkpt><trkpt lat="42.098747597326884" lon="13.505954797526204"><ele>915.0</ele><time>2026-05-02T13:28:57Z</time></trkpt><trkpt lat="42.09877819552271" lon="13.505872826366991"><ele>915.0</ele><time>2026-05-02T13:28:58Z</time></trkpt><trkpt lat="42.09880661337758" lon="13.505788776858108"><ele>915.0</ele><time>2026-05-02T13:28:59Z</time></trkpt><trkpt lat="42.09881962989167" lon="13.505671726172167"><ele>915.0</ele><time>2026-05-02T13:29:00Z</time></trkpt><trkpt lat="42.098842438188306" lon="13.505554204499278"><ele>915.0</ele><time>2026-05-02T13:29:01Z</time></trkpt><trkpt lat="42.09889797002332" lon="13.50544541644448"><ele>915.0</ele><time>2026-05-02T13:29:02Z</time></trkpt><trkpt lat="42.09895588988767" lon="13.505337711170789"><ele>915.0</ele><time>2026-05-02T13:29:03Z</time></trkpt><trkpt lat="42.09901562762238" lon="13.505227645029484"><ele>915.0</ele><time>2026-05-02T13:29:04Z</time></trkpt><trkpt lat="42.099092019411835" lon="13.505136688981644"><ele>917.2</ele><time>2026-05-02T13:29:05Z</time></trkpt><trkpt lat="42.09915989890419" lon="13.505030748631778"><ele>919.4</ele><time>2026-05-02T13:29:06Z</time></trkpt><trkpt lat="42.09924435719085" lon="13.504956426366185"><ele>921.5999999999999</ele><time>2026-05-02T13:29:07Z</time></trkpt><trkpt lat="42.0993231500608" lon="13.504855273556533"><ele>923.8</ele><time>2026-05-02T13:29:08Z</time></trkpt><trkpt lat="42.099395214823524" lon="13.504736447140129"><ele>926.0</ele><time>2026-05-02T13:29:09Z</time></trkpt><trkpt lat="42.099470299258385" lon="13.504600678279987"><ele>927.25</ele><time>2026-05-02T13:29:10Z</time></trkpt><trkpt lat="42.099543142834506" lon="13.50445579518201"><ele>928.5</ele><time>2026-05-02T13:29:11Z</time></trkpt><trkpt lat="42.09961436027321" lon="13.5043065995744"><ele>929.75</ele><time>2026-05-02T13:29:12Z</time></trkpt><trkpt lat="42.09968371039414" lon="13.504159411796145"><ele>931.0</ele><time>2026-05-02T13:29:13Z</time></trkpt><trkpt lat="42.09973975622391" lon="13.50399905378634"><ele>931.0</ele><time>2026-05-02T13:29:14Z</time></trkpt><trkpt lat="42.099809948583406" lon="13.503847403184885"><ele>931.0</ele><time>2026-05-02T13:29:15Z</time></trkpt><trkpt lat="42.09988053408812" lon="13.503691536587011"><ele>931.0</ele><time>2026-05-02T13:29:16Z</time></trkpt><trkpt lat="42.09995460456358" lon="13.503532362820808"><ele>931.0</ele><time>2026-05-02T13:29:17Z</time></trkpt><trkpt lat="42.10002681497573" lon="13.503367962754723"><ele>931.5</ele><time>2026-05-02T13:29:17.999Z</time></trkpt><trkpt lat="42.10010594995792" lon="13.503212192248045"><ele>932.0</ele><time>2026-05-02T13:29:18.999Z</time></trkpt><trkpt lat="42.10019054691059" lon="13.503057382297573"><ele>932.5</ele><time>2026-05-02T13:29:19.999Z</time></trkpt><trkpt lat="42.100270989936895" lon="13.50289894883128"><ele>933.0</ele><time>2026-05-02T13:29:20.999Z</time></trkpt><trkpt lat="42.100352485897766" lon="13.502744769154319"><ele>935.5</ele><time>2026-05-02T13:29:21.999Z</time></trkpt><trkpt lat="42.10043485320252" lon="13.50260061146158"><ele>938.0</ele><time>2026-05-02T13:29:22.999Z</time></trkpt><trkpt lat="42.10050971902999" lon="13.502457691489498"><ele>940.5</ele><time>2026-05-02T13:29:23.999Z</time></trkpt><trkpt lat="42.10058047651693" lon="13.502318512508113"><ele>943.0</ele><time>2026-05-02T13:29:24.999Z</time></trkpt><trkpt lat="42.100670338503846" lon="13.502206402341034"><ele>944.25</ele><time>2026-05-02T13:29:25.999Z</time></trkpt><trkpt lat="42.1007482973675" lon="13.502079167252207"><ele>945.5</ele><time>2026-05-02T13:29:26.999Z</time></trkpt><trkpt lat="42.100839310084076" lon="13.5019730721081"><ele>946.75</ele><time>2026-05-02T13:29:27.999Z</time></trkpt><trkpt lat="42.10093679871722" lon="13.501878879619223"><ele>948.0</ele><time>2026-05-02T13:29:28.999Z</time></trkpt><trkpt lat="42.1010322855607" lon="13.501786825282254"><ele>948.0</ele><time>2026-05-02T13:29:29.999Z</time></trkpt><trkpt lat="42.10110877681734" lon="13.501676004001679"><ele>948.0</ele><time>2026-05-02T13:29:30.999Z</time></trkpt><trkpt lat="42.10118352487651" lon="13.501576636744325"><ele>948.0</ele><time>2026-05-02T13:29:31.999Z</time></trkpt><trkpt lat="42.101244008025944" lon="13.501464163554349"><ele>948.0</ele><time>2026-05-02T13:29:32.999Z</time></trkpt><trkpt lat="42.1012951707754" lon="13.501355286634345"><ele>948.0</ele><time>2026-05-02T13:29:33.999Z</time></trkpt><trkpt lat="42.101349561536125" lon="13.501272603074389"><ele>948.0</ele><time>2026-05-02T13:29:34.999Z</time></trkpt><trkpt lat="42.10138365327204" lon="13.501130228413718"><ele>948.0</ele><time>2026-05-02T13:29:36.999Z</time></trkpt><trkpt lat="42.10151264268498" lon="13.501099960028359"><ele>948.0</ele><time>2026-05-02T13:29:37.999Z</time></trkpt><trkpt lat="42.10152898335809" lon="13.501219434893791"><ele>948.0</ele><time>2026-05-02T13:29:39.999Z</time></trkpt><trkpt lat="42.10155090592523" lon="13.501334669897128"><ele>948.0</ele><time>2026-05-02T13:29:40.999Z</time></trkpt><trkpt lat="42.101580025453416" lon="13.501480674437355"><ele>947.25</ele><time>2026-05-02T13:29:41.999Z</time></trkpt><trkpt lat="42.101614291998494" lon="13.50163305998838"><ele>946.5</ele><time>2026-05-02T13:29:42.999Z</time></trkpt><trkpt lat="42.10166842726412" lon="13.501785676647826"><ele>945.75</ele><time>2026-05-02T13:29:43.999Z</time></trkpt><trkpt lat="42.10170880977743" lon="13.501939491623183"><ele>945.0</ele><time>2026-05-02T13:29:44.999Z</time></trkpt><trkpt lat="42.10175869788576" lon="13.502096378425241"><ele>945.0</ele><time>2026-05-02T13:29:45.999Z</time></trkpt><trkpt lat="42.10179702544776" lon="13.502246659666596"><ele>945.0</ele><time>2026-05-02T13:29:46.999Z</time></trkpt><trkpt lat="42.101831229864636" lon="13.502384825278872"><ele>945.0</ele><time>2026-05-02T13:29:47.999Z</time></trkpt><trkpt lat="42.10185214964505" lon="13.502522761276268"><ele>945.0</ele><time>2026-05-02T13:29:48.999Z</time></trkpt><trkpt lat="42.10190228992572" lon="13.502631178795433"><ele>945.0</ele><time>2026-05-02T13:29:49.999Z</time></trkpt><trkpt lat="42.101953958887236" lon="13.502735959697304"><ele>945.0</ele><time>2026-05-02T13:29:50.999Z</time></trkpt><trkpt lat="42.10200619752169" lon="13.502847827554495"><ele>945.0</ele><time>2026-05-02T13:29:51.999Z</time></trkpt><trkpt lat="42.10206225200586" lon="13.502948897012024"><ele>945.0</ele><time>2026-05-02T13:29:52.999Z</time></trkpt><trkpt lat="42.10210622928594" lon="13.503026654100704"><ele>945.0</ele><time>2026-05-02T13:29:53.999Z</time></trkpt><trkpt lat="42.102161444317105" lon="13.503153981608298"><ele>945.0</ele><time>2026-05-02T13:29:55.999Z</time></trkpt><trkpt lat="42.10215709216497" lon="13.503304502683823"><ele>944.0</ele><time>2026-05-02T13:29:57.999Z</time></trkpt><trkpt lat="42.10212936137092" lon="13.503408292595596"><ele>943.0</ele><time>2026-05-02T13:29:58.999Z</time></trkpt><trkpt lat="42.10208112759627" lon="13.503526655535316"><ele>942.0</ele><time>2026-05-02T13:29:59.999Z</time></trkpt><trkpt lat="42.102026331847064" lon="13.50365163261725"><ele>941.0</ele><time>2026-05-02T13:30:00.999Z</time></trkpt><trkpt lat="42.10196099712597" lon="13.503783923823466"><ele>940.0</ele><time>2026-05-02T13:30:01.999Z</time></trkpt><trkpt lat="42.10189405609386" lon="13.503933322069319"><ele>938.75</ele><time>2026-05-02T13:30:02.999Z</time></trkpt><trkpt lat="42.10181616698786" lon="13.504077152803077"><ele>937.5</ele><time>2026-05-02T13:30:03.999Z</time></trkpt><trkpt lat="42.101747209712535" lon="13.50422251078953"><ele>936.25</ele><time>2026-05-02T13:30:04.999Z</time></trkpt><trkpt lat="42.1016830654999" lon="13.504370422327307"><ele>935.0</ele><time>2026-05-02T13:30:05.999Z</time></trkpt><trkpt lat="42.10161732474064" lon="13.504512715235785"><ele>934.0</ele><time>2026-05-02T13:30:06.999Z</time></trkpt><trkpt lat="42.10155787103097" lon="13.50465498890513"><ele>933.0</ele><time>2026-05-02T13:30:07.999Z</time></trkpt><trkpt lat="42.101504949686536" lon="13.504794365161226"><ele>932.0</ele><time>2026-05-02T13:30:08.999Z</time></trkpt><trkpt lat="42.1014575373286" lon="13.50494159237017"><ele>931.0</ele><time>2026-05-02T13:30:09.999Z</time></trkpt><trkpt lat="42.10140368175066" lon="13.5051026800136"><ele>931.0</ele><time>2026-05-02T13:30:10.999Z</time></trkpt><trkpt lat="42.10137074501983" lon="13.505289998137497"><ele>931.0</ele><time>2026-05-02T13:30:11.999Z</time></trkpt><trkpt lat="42.10133600705956" lon="13.505481516144101"><ele>931.0</ele><time>2026-05-02T13:30:12.999Z</time></trkpt><trkpt lat="42.1013007197138" lon="13.505670203874327"><ele>931.0</ele><time>2026-05-02T13:30:13.999Z</time></trkpt><trkpt lat="42.10126504877879" lon="13.505857973349242"><ele>931.0</ele><time>2026-05-02T13:30:14.999Z</time></trkpt><trkpt lat="42.10122659018647" lon="13.506043278097163"><ele>931.0</ele><time>2026-05-02T13:30:15.999Z</time></trkpt><trkpt lat="42.10119823198348" lon="13.50622904986646"><ele>931.0</ele><time>2026-05-02T13:30:16.999Z</time></trkpt><trkpt lat="42.1011770757993" lon="13.506415612025448"><ele>931.0</ele><time>2026-05-02T13:30:17.999Z</time></trkpt><trkpt lat="42.101161040822355" lon="13.506598143429844"><ele>931.0</ele><time>2026-05-02T13:30:18.999Z</time></trkpt><trkpt lat="42.10114776974425" lon="13.506774239117258"><ele>931.0</ele><time>2026-05-02T13:30:19.999Z</time></trkpt><trkpt lat="42.10113633481575" lon="13.506950120069904"><ele>931.0</ele><time>2026-05-02T13:30:20.999Z</time></trkpt><trkpt lat="42.1011378648541" lon="13.507135764225179"><ele>931.0</ele><time>2026-05-02T13:30:21.999Z</time></trkpt><trkpt lat="42.101160849584005" lon="13.507287643937818"><ele>933.0</ele><time>2026-05-02T13:30:22.999Z</time></trkpt><trkpt lat="42.10117043905047" lon="13.507430319737717"><ele>935.0</ele><time>2026-05-02T13:30:23.999Z</time></trkpt><trkpt lat="42.10116756517449" lon="13.507581211341593"><ele>937.0</ele><time>2026-05-02T13:30:24.999Z</time></trkpt><trkpt lat="42.10114960777408" lon="13.50775527925007"><ele>939.0</ele><time>2026-05-02T13:30:25.999Z</time></trkpt><trkpt lat="42.101136507123925" lon="13.507935077189188"><ele>940.75</ele><time>2026-05-02T13:30:26.999Z</time></trkpt><trkpt lat="42.101109706910705" lon="13.508122223428632"><ele>942.5</ele><time>2026-05-02T13:30:27.999Z</time></trkpt><trkpt lat="42.10108188415017" lon="13.508310108529267"><ele>944.25</ele><time>2026-05-02T13:30:28.999Z</time></trkpt><trkpt lat="42.10104694176235" lon="13.508481035957576"><ele>946.0</ele><time>2026-05-02T13:30:29.999Z</time></trkpt><trkpt lat="42.10103163795848" lon="13.508635145897752"><ele>948.0</ele><time>2026-05-02T13:30:30.999Z</time></trkpt><trkpt lat="42.10103044070893" lon="13.508782556102465"><ele>949.9999999999999</ele><time>2026-05-02T13:30:31.999Z</time></trkpt><trkpt lat="42.10099597087426" lon="13.50891694604274"><ele>951.9999999999999</ele><time>2026-05-02T13:30:32.999Z</time></trkpt><trkpt lat="42.10094600432608" lon="13.509045043967648"><ele>954.0</ele><time>2026-05-02T13:30:33.999Z</time></trkpt><trkpt lat="42.10090160945577" lon="13.509164564862363"><ele>956.0</ele><time>2026-05-02T13:30:34.999Z</time></trkpt><trkpt lat="42.10086234282871" lon="13.509250375346124"><ele>956.0000000000001</ele><time>2026-05-02T13:30:35.999Z</time></trkpt><trkpt lat="42.10082736230485" lon="13.509330743571129"><ele>956.0</ele><time>2026-05-02T13:30:37.999Z</time></trkpt><trkpt lat="42.100892269272954" lon="13.50929752809299"><ele>956.0</ele><time>2026-05-02T13:30:41.999Z</time></trkpt><trkpt lat="42.100931533834675" lon="13.509231195203478"><ele>956.0</ele><time>2026-05-02T13:30:42.999Z</time></trkpt><trkpt lat="42.100986670342614" lon="13.509139832872362"><ele>956.0000000000001</ele><time>2026-05-02T13:30:43.999Z</time></trkpt><trkpt lat="42.101074541904744" lon="13.508981933137171"><ele>956.0</ele><time>2026-05-02T13:30:44.999Z</time></trkpt><trkpt lat="42.10121800795559" lon="13.508812417927974"><ele>955.0</ele><time>2026-05-02T13:30:45.999Z</time></trkpt><trkpt lat="42.10141949384295" lon="13.508695828422304"><ele>954.0</ele><time>2026-05-02T13:30:46.999Z</time></trkpt><trkpt lat="42.101583755126235" lon="13.508490105329674"><ele>953.0</ele><time>2026-05-02T13:30:47.999Z</time></trkpt><trkpt lat="42.1017378293583" lon="13.508295088955505"><ele>953.0</ele><time>2026-05-02T13:30:48.999Z</time></trkpt><trkpt lat="42.10189450100554" lon="13.508097320642518"><ele>953.0</ele><time>2026-05-02T13:30:49.999Z</time></trkpt><trkpt lat="42.10205378574786" lon="13.507879123672414"><ele>953.0</ele><time>2026-05-02T13:30:50.999Z</time></trkpt><trkpt lat="42.1021945758314" lon="13.507659133954187"><ele>951.0</ele><time>2026-05-02T13:30:51.999Z</time></trkpt><trkpt lat="42.102315490777855" lon="13.507434754877954"><ele>949.0</ele><time>2026-05-02T13:30:52.999Z</time></trkpt><trkpt lat="42.10244459001124" lon="13.507253626546024"><ele>947.0</ele><time>2026-05-02T13:30:53.998Z</time></trkpt><trkpt lat="42.102540253383204" lon="13.507044054241781"><ele>951.0</ele><time>2026-05-02T13:30:54.998Z</time></trkpt><trkpt lat="42.102612959455136" lon="13.506885667088037"><ele>955.0</ele><time>2026-05-02T13:30:55.998Z</time></trkpt><trkpt lat="42.10267753650762" lon="13.50668221722382"><ele>959.0</ele><time>2026-05-02T13:30:56.998Z</time></trkpt><trkpt lat="42.10273574149428" lon="13.506498752580116"><ele>959.0</ele><time>2026-05-02T13:30:57.998Z</time></trkpt><trkpt lat="42.10279305143449" lon="13.506309412644137"><ele>959.0</ele><time>2026-05-02T13:30:58.998Z</time></trkpt><trkpt lat="42.10284854338882" lon="13.506119205093782"><ele>959.0</ele><time>2026-05-02T13:30:59.998Z</time></trkpt><trkpt lat="42.10290944969332" lon="13.50590919797459"><ele>956.3333333333334</ele><time>2026-05-02T13:31:00.998Z</time></trkpt><trkpt lat="42.102970114588466" lon="13.505693705049138"><ele>953.6666666666667</ele><time>2026-05-02T13:31:01.998Z</time></trkpt><trkpt lat="42.1030183004982" lon="13.505523260509058"><ele>951.0</ele><time>2026-05-02T13:31:02.998Z</time></trkpt><trkpt lat="42.103082865537715" lon="13.505326257680345"><ele>949.75</ele><time>2026-05-02T13:31:03.998Z</time></trkpt><trkpt lat="42.1031682143443" lon="13.505142550597778"><ele>948.5</ele><time>2026-05-02T13:31:04.998Z</time></trkpt><trkpt lat="42.10327941824392" lon="13.505023638404703"><ele>947.25</ele><time>2026-05-02T13:31:05.998Z</time></trkpt><trkpt lat="42.103379462741366" lon="13.504920318311743"><ele>946.0</ele><time>2026-05-02T13:31:06.998Z</time></trkpt><trkpt lat="42.10351543588609" lon="13.504836537969242"><ele>953.0</ele><time>2026-05-02T13:31:07.998Z</time></trkpt><trkpt lat="42.10366851638866" lon="13.504768150784956"><ele>960.0</ele><time>2026-05-02T13:31:08.998Z</time></trkpt><trkpt lat="42.10380359255061" lon="13.504684623378568"><ele>967.0</ele><time>2026-05-02T13:31:09.998Z</time></trkpt><trkpt lat="42.10393681353191" lon="13.504583109390165"><ele>968.3333333333333</ele><time>2026-05-02T13:31:10.998Z</time></trkpt><trkpt lat="42.104067460446025" lon="13.504478766113584"><ele>969.6666666666667</ele><time>2026-05-02T13:31:11.998Z</time></trkpt><trkpt lat="42.10417561396881" lon="13.504335940919315"><ele>971.0</ele><time>2026-05-02T13:31:12.998Z</time></trkpt><trkpt lat="42.10429401145272" lon="13.504185833193871"><ele>971.0</ele><time>2026-05-02T13:31:13.998Z</time></trkpt><trkpt lat="42.10439753378627" lon="13.504018546679733"><ele>971.0</ele><time>2026-05-02T13:31:14.998Z</time></trkpt><trkpt lat="42.10449054661188" lon="13.503840010293525"><ele>971.0</ele><time>2026-05-02T13:31:15.998Z</time></trkpt><trkpt lat="42.104575231302064" lon="13.503666124768571"><ele>970.25</ele><time>2026-05-02T13:31:16.998Z</time></trkpt><trkpt lat="42.104649281915584" lon="13.503508426897241"><ele>969.5</ele><time>2026-05-02T13:31:17.998Z</time></trkpt><trkpt lat="42.104734105231394" lon="13.503318743766442"><ele>968.75</ele><time>2026-05-02T13:31:18.998Z</time></trkpt><trkpt lat="42.10480381307085" lon="13.503152335764522"><ele>968.0</ele><time>2026-05-02T13:31:19.998Z</time></trkpt><trkpt lat="42.104876560024294" lon="13.502963004608267"><ele>974.6666666666667</ele><time>2026-05-02T13:31:20.998Z</time></trkpt><trkpt lat="42.10493997856771" lon="13.502772937587276"><ele>981.3333333333333</ele><time>2026-05-02T13:31:21.998Z</time></trkpt><trkpt lat="42.10499664637639" lon="13.502581751796962"><ele>988.0</ele><time>2026-05-02T13:31:22.998Z</time></trkpt><trkpt lat="42.10504834161554" lon="13.502395477377657"><ele>988.0</ele><time>2026-05-02T13:31:23.998Z</time></trkpt><trkpt lat="42.10510281731082" lon="13.502198822082422"><ele>988.0</ele><time>2026-05-02T13:31:24.998Z</time></trkpt><trkpt lat="42.105160542512614" lon="13.501982222912876"><ele>988.0</ele><time>2026-05-02T13:31:25.998Z</time></trkpt><trkpt lat="42.105214042834376" lon="13.501772618772753"><ele>987.0</ele><time>2026-05-02T13:31:26.998Z</time></trkpt><trkpt lat="42.105266949050495" lon="13.501561327058411"><ele>986.0</ele><time>2026-05-02T13:31:27.998Z</time></trkpt><trkpt lat="42.105318761027064" lon="13.501342162553385"><ele>985.0</ele><time>2026-05-02T13:31:28.998Z</time></trkpt><trkpt lat="42.10536022712212" lon="13.501152841386665"><ele>984.6666666666666</ele><time>2026-05-02T13:31:29.998Z</time></trkpt><trkpt lat="42.10539884583074" lon="13.500945841947757"><ele>984.3333333333333</ele><time>2026-05-02T13:31:30.998Z</time></trkpt><trkpt lat="42.10542547854537" lon="13.50072555083439"><ele>984.0</ele><time>2026-05-02T13:31:31.998Z</time></trkpt><trkpt lat="42.10544645186319" lon="13.500508968840558"><ele>986.0</ele><time>2026-05-02T13:31:32.998Z</time></trkpt><trkpt lat="42.10546211708464" lon="13.500307056062104"><ele>988.0</ele><time>2026-05-02T13:31:33.998Z</time></trkpt><trkpt lat="42.105466472859725" lon="13.500167420479059"><ele>990.0</ele><time>2026-05-02T13:31:34.998Z</time></trkpt><trkpt lat="42.10546016681174" lon="13.500034565493984"><ele>992.0</ele><time>2026-05-02T13:31:35.998Z</time></trkpt><trkpt lat="42.10544751180297" lon="13.4998918613958"><ele>992.0</ele><time>2026-05-02T13:31:36.998Z</time></trkpt><trkpt lat="42.10538088940725" lon="13.499732785152208"><ele>992.0</ele><time>2026-05-02T13:31:37.998Z</time></trkpt><trkpt lat="42.10530546542879" lon="13.499588772191139"><ele>992.0</ele><time>2026-05-02T13:31:38.998Z</time></trkpt><trkpt lat="42.105165408481724" lon="13.49942952906153"><ele>992.0</ele><time>2026-05-02T13:31:39.998Z</time></trkpt><trkpt lat="42.1050156097681" lon="13.499285471540603"><ele>992.0</ele><time>2026-05-02T13:31:40.998Z</time></trkpt><trkpt lat="42.10490600269238" lon="13.499163726875839"><ele>992.0</ele><time>2026-05-02T13:31:41.998Z</time></trkpt><trkpt lat="42.10479360008335" lon="13.499024984659417"><ele>992.0</ele><time>2026-05-02T13:31:42.998Z</time></trkpt><trkpt lat="42.10468803605647" lon="13.498888337589168"><ele>992.0</ele><time>2026-05-02T13:31:43.998Z</time></trkpt><trkpt lat="42.104605869772634" lon="13.498728734403807"><ele>992.0</ele><time>2026-05-02T13:31:44.998Z</time></trkpt><trkpt lat="42.10456953490274" lon="13.498547261113263"><ele>992.0</ele><time>2026-05-02T13:31:45.998Z</time></trkpt><trkpt lat="42.104561067432655" lon="13.498375884774687"><ele>992.5</ele><time>2026-05-02T13:31:46.998Z</time></trkpt><trkpt lat="42.10455697475227" lon="13.498204044222627"><ele>993.0</ele><time>2026-05-02T13:31:47.998Z</time></trkpt><trkpt lat="42.10455551988869" lon="13.498048511403727"><ele>993.5</ele><time>2026-05-02T13:31:48.998Z</time></trkpt><trkpt lat="42.10461916896292" lon="13.49791394429254"><ele>994.0</ele><time>2026-05-02T13:31:49.998Z</time></trkpt><trkpt lat="42.10469586262363" lon="13.497789826189452"><ele>994.0</ele><time>2026-05-02T13:31:50.998Z</time></trkpt><trkpt lat="42.104785708942885" lon="13.497655164513167"><ele>994.0</ele><time>2026-05-02T13:31:51.998Z</time></trkpt><trkpt lat="42.10491248221473" lon="13.497537318675857"><ele>994.0</ele><time>2026-05-02T13:31:52.998Z</time></trkpt><trkpt lat="42.105052625175304" lon="13.497416350883087"><ele>996.3333333333333</ele><time>2026-05-02T13:31:53.998Z</time></trkpt><trkpt lat="42.10520416748881" lon="13.497310051115983"><ele>998.6666666666667</ele><time>2026-05-02T13:31:54.998Z</time></trkpt><trkpt lat="42.10535615338538" lon="13.497180672007248"><ele>1001.0</ele><time>2026-05-02T13:31:55.998Z</time></trkpt><trkpt lat="42.105512234706374" lon="13.497059150117547"><ele>1001.0</ele><time>2026-05-02T13:31:56.998Z</time></trkpt><trkpt lat="42.10566066843048" lon="13.496932974821206"><ele>1001.0</ele><time>2026-05-02T13:31:57.998Z</time></trkpt><trkpt lat="42.10581292699527" lon="13.496803932479704"><ele>1001.0</ele><time>2026-05-02T13:31:58.998Z</time></trkpt><trkpt lat="42.10596148527483" lon="13.496672520270575"><ele>1002.5</ele><time>2026-05-02T13:31:59.998Z</time></trkpt><trkpt lat="42.10610327703868" lon="13.496547275020593"><ele>1004.0</ele><time>2026-05-02T13:32:00.998Z</time></trkpt><trkpt lat="42.106221681979534" lon="13.496445333733522"><ele>1005.5</ele><time>2026-05-02T13:32:01.998Z</time></trkpt><trkpt lat="42.106332112487486" lon="13.496346654885663"><ele>1007.0</ele><time>2026-05-02T13:32:02.998Z</time></trkpt><trkpt lat="42.106439971605866" lon="13.49624061840864"><ele>1007.0</ele><time>2026-05-02T13:32:03.998Z</time></trkpt><trkpt lat="42.10653053767458" lon="13.496117208597884"><ele>1007.0</ele><time>2026-05-02T13:32:04.998Z</time></trkpt><trkpt lat="42.10660105840047" lon="13.495968313180768"><ele>1007.0</ele><time>2026-05-02T13:32:05.998Z</time></trkpt><trkpt lat="42.106663347869116" lon="13.495777124045512"><ele>1007.0</ele><time>2026-05-02T13:32:06.998Z</time></trkpt><trkpt lat="42.106710812228066" lon="13.495577095910628"><ele>1010.6666666666667</ele><time>2026-05-02T13:32:07.998Z</time></trkpt><trkpt lat="42.106753839653514" lon="13.495369687177032"><ele>1014.3333333333333</ele><time>2026-05-02T13:32:08.998Z</time></trkpt><trkpt lat="42.10680441438645" lon="13.49516326870403"><ele>1018.0</ele><time>2026-05-02T13:32:09.998Z</time></trkpt><trkpt lat="42.10683397487683" lon="13.4949394745031"><ele>1018.0</ele><time>2026-05-02T13:32:10.998Z</time></trkpt><trkpt lat="42.106876161257794" lon="13.494713167819764"><ele>1018.0</ele><time>2026-05-02T13:32:11.998Z</time></trkpt><trkpt lat="42.106925892103845" lon="13.494514398597614"><ele>1018.0</ele><time>2026-05-02T13:32:12.998Z</time></trkpt><trkpt lat="42.106954903944754" lon="13.494321377991078"><ele>1017.3333333333333</ele><time>2026-05-02T13:32:13.998Z</time></trkpt><trkpt lat="42.10703971648945" lon="13.49416771514877"><ele>1016.6666666666667</ele><time>2026-05-02T13:32:14.998Z</time></trkpt><trkpt lat="42.10715578775122" lon="13.493997754084708"><ele>1016.0</ele><time>2026-05-02T13:32:15.998Z</time></trkpt><trkpt lat="42.10726666615733" lon="13.493846155722688"><ele>1015.0</ele><time>2026-05-02T13:32:16.998Z</time></trkpt><trkpt lat="42.107403872149" lon="13.49369642959324"><ele>1014.0</ele><time>2026-05-02T13:32:17.998Z</time></trkpt><trkpt lat="42.107512093896155" lon="13.49355634006121"><ele>1013.0</ele><time>2026-05-02T13:32:18.998Z</time></trkpt><trkpt lat="42.10760855505127" lon="13.493423535995245"><ele>1016.4</ele><time>2026-05-02T13:32:19.998Z</time></trkpt><trkpt lat="42.10767467767405" lon="13.493317875299365"><ele>1019.8</ele><time>2026-05-02T13:32:20.998Z</time></trkpt><trkpt lat="42.107721331335036" lon="13.493185052337543"><ele>1023.2</ele><time>2026-05-02T13:32:21.998Z</time></trkpt><trkpt lat="42.10774062931707" lon="13.49303565298809"><ele>1026.6</ele><time>2026-05-02T13:32:22.998Z</time></trkpt><trkpt lat="42.10772189314054" lon="13.492894287802601"><ele>1030.0</ele><time>2026-05-02T13:32:23.998Z</time></trkpt><trkpt lat="42.10768252680867" lon="13.492706190407336"><ele>1032.0</ele><time>2026-05-02T13:32:24.998Z</time></trkpt><trkpt lat="42.10763530274332" lon="13.492443235014845"><ele>1034.0</ele><time>2026-05-02T13:32:25.998Z</time></trkpt><trkpt lat="42.107585054061694" lon="13.492212671610671"><ele>1036.0</ele><time>2026-05-02T13:32:26.998Z</time></trkpt><trkpt lat="42.107520639788035" lon="13.49198470344311"><ele>1038.5</ele><time>2026-05-02T13:32:27.998Z</time></trkpt><trkpt lat="42.10746136120836" lon="13.491771695983745"><ele>1041.0</ele><time>2026-05-02T13:32:28.998Z</time></trkpt><trkpt lat="42.10738889346849" lon="13.491621634170672"><ele>1043.5</ele><time>2026-05-02T13:32:29.998Z</time></trkpt><trkpt lat="42.10728780384194" lon="13.49148875735362"><ele>1046.0</ele><time>2026-05-02T13:32:30.998Z</time></trkpt><trkpt lat="42.107187269708135" lon="13.491343419900556"><ele>1041.75</ele><time>2026-05-02T13:32:31.997Z</time></trkpt><trkpt lat="42.10712131891801" lon="13.491214291071797"><ele>1037.5</ele><time>2026-05-02T13:32:32.997Z</time></trkpt><trkpt lat="42.10710236069019" lon="13.491054214339156"><ele>1033.25</ele><time>2026-05-02T13:32:33.997Z</time></trkpt><trkpt lat="42.107093252897556" lon="13.490870787078522"><ele>1029.0</ele><time>2026-05-02T13:32:34.997Z</time></trkpt><trkpt lat="42.107112954518456" lon="13.49067123640169"><ele>1030.3333333333333</ele><time>2026-05-02T13:32:35.997Z</time></trkpt><trkpt lat="42.10715378071806" lon="13.490421821195572"><ele>1031.6666666666665</ele><time>2026-05-02T13:32:36.997Z</time></trkpt><trkpt lat="42.107214565383586" lon="13.490202746926428"><ele>1033.0</ele><time>2026-05-02T13:32:37.997Z</time></trkpt><trkpt lat="42.107256507231824" lon="13.489990144308814"><ele>1033.0</ele><time>2026-05-02T13:32:38.997Z</time></trkpt><trkpt lat="42.107302853202725" lon="13.489812009807208"><ele>1033.0</ele><time>2026-05-02T13:32:39.997Z</time></trkpt><trkpt lat="42.10734916015805" lon="13.489623538840883"><ele>1033.0</ele><time>2026-05-02T13:32:40.997Z</time></trkpt><trkpt lat="42.107393333318264" lon="13.489427678242967"><ele>1033.0</ele><time>2026-05-02T13:32:41.997Z</time></trkpt><trkpt lat="42.10743024655578" lon="13.489237329896941"><ele>1036.5</ele><time>2026-05-02T13:32:42.997Z</time></trkpt><trkpt lat="42.10747664970238" lon="13.489031881818738"><ele>1040.0</ele><time>2026-05-02T13:32:43.997Z</time></trkpt><trkpt lat="42.10753737981166" lon="13.48885182407692"><ele>1043.5</ele><time>2026-05-02T13:32:44.997Z</time></trkpt><trkpt lat="42.107607361517104" lon="13.48869363389962"><ele>1047.0</ele><time>2026-05-02T13:32:45.997Z</time></trkpt><trkpt lat="42.1077196043596" lon="13.48861436554185"><ele>1047.0</ele><time>2026-05-02T13:32:46.997Z</time></trkpt><trkpt lat="42.10785758024475" lon="13.48855072717471"><ele>1047.0</ele><time>2026-05-02T13:32:47.997Z</time></trkpt><trkpt lat="42.107999172721854" lon="13.488477325145196"><ele>1047.0</ele><time>2026-05-02T13:32:48.997Z</time></trkpt><trkpt lat="42.10813863009308" lon="13.488407750655691"><ele>1047.0</ele><time>2026-05-02T13:32:49.997Z</time></trkpt><trkpt lat="42.10829527417744" lon="13.488361220019177"><ele>1052.6666666666667</ele><time>2026-05-02T13:32:50.997Z</time></trkpt><trkpt lat="42.108441977211754" lon="13.48827845466589"><ele>1058.3333333333335</ele><time>2026-05-02T13:32:51.997Z</time></trkpt><trkpt lat="42.10860600213719" lon="13.488164778767326"><ele>1064.0</ele><time>2026-05-02T13:32:52.997Z</time></trkpt><trkpt lat="42.108756412348065" lon="13.488029620276984"><ele>1061.6666666666667</ele><time>2026-05-02T13:32:53.997Z</time></trkpt><trkpt lat="42.10888622510226" lon="13.487848446064465"><ele>1059.3333333333333</ele><time>2026-05-02T13:32:54.997Z</time></trkpt><trkpt lat="42.109001187792344" lon="13.487616013173534"><ele>1057.0</ele><time>2026-05-02T13:32:55.997Z</time></trkpt><trkpt lat="42.109113605743" lon="13.487390973539807"><ele>1063.0</ele><time>2026-05-02T13:32:56.997Z</time></trkpt><trkpt lat="42.10923353371346" lon="13.48713910217991"><ele>1069.0</ele><time>2026-05-02T13:32:57.997Z</time></trkpt><trkpt lat="42.10937186025166" lon="13.486870668338213"><ele>1069.0</ele><time>2026-05-02T13:32:58.997Z</time></trkpt><trkpt lat="42.10949386918484" lon="13.486592948170427"><ele>1069.0</ele><time>2026-05-02T13:32:59.997Z</time></trkpt><trkpt lat="42.10961932641302" lon="13.48633110810765"><ele>1067.3333333333333</ele><time>2026-05-02T13:33:00.997Z</time></trkpt><trkpt lat="42.10973993615594" lon="13.48611501581886"><ele>1065.6666666666667</ele><time>2026-05-02T13:33:01.997Z</time></trkpt><trkpt lat="42.109862002736236" lon="13.485918638838148"><ele>1064.0</ele><time>2026-05-02T13:33:02.997Z</time></trkpt><trkpt lat="42.10995177305857" lon="13.485734895641151"><ele>1068.25</ele><time>2026-05-02T13:33:03.997Z</time></trkpt><trkpt lat="42.11001302121274" lon="13.485550618592805"><ele>1072.5</ele><time>2026-05-02T13:33:04.997Z</time></trkpt><trkpt lat="42.11004998848769" lon="13.4853848480993"><ele>1076.75</ele><time>2026-05-02T13:33:05.997Z</time></trkpt><trkpt lat="42.11006370622554" lon="13.485234394400154"><ele>1081.0</ele><time>2026-05-02T13:33:06.997Z</time></trkpt><trkpt lat="42.11006199244699" lon="13.485088453027599"><ele>1081.6666666666665</ele><time>2026-05-02T13:33:07.997Z</time></trkpt><trkpt lat="42.11004437599633" lon="13.484875636614095"><ele>1082.3333333333333</ele><time>2026-05-02T13:33:08.997Z</time></trkpt><trkpt lat="42.11001042603319" lon="13.484654275351936"><ele>1083.0</ele><time>2026-05-02T13:33:09.997Z</time></trkpt><trkpt lat="42.10998595244869" lon="13.484439387536835"><ele>1084.25</ele><time>2026-05-02T13:33:10.997Z</time></trkpt><trkpt lat="42.10996954706279" lon="13.484235188005764"><ele>1085.5</ele><time>2026-05-02T13:33:11.997Z</time></trkpt><trkpt lat="42.10994334459114" lon="13.48404728597093"><ele>1086.75</ele><time>2026-05-02T13:33:12.997Z</time></trkpt><trkpt lat="42.10996101385191" lon="13.483860567311005"><ele>1088.0</ele><time>2026-05-02T13:33:13.997Z</time></trkpt><trkpt lat="42.109996247737016" lon="13.48366214661733"><ele>1088.0</ele><time>2026-05-02T13:33:14.997Z</time></trkpt><trkpt lat="42.11003099015675" lon="13.483455937766355"><ele>1088.0</ele><time>2026-05-02T13:33:15.997Z</time></trkpt><trkpt lat="42.11009567485767" lon="13.483280328669398"><ele>1088.0</ele><time>2026-05-02T13:33:16.997Z</time></trkpt><trkpt lat="42.11017309054264" lon="13.48309154996378"><ele>1085.6666666666667</ele><time>2026-05-02T13:33:17.997Z</time></trkpt><trkpt lat="42.11028306402405" lon="13.48292745555186"><ele>1083.3333333333333</ele><time>2026-05-02T13:33:18.997Z</time></trkpt><trkpt lat="42.110403353357114" lon="13.482778416840574"><ele>1081.0</ele><time>2026-05-02T13:33:19.997Z</time></trkpt><trkpt lat="42.110519921268235" lon="13.482641949731487"><ele>1081.0</ele><time>2026-05-02T13:33:20.997Z</time></trkpt><trkpt lat="42.11065324830095" lon="13.48250056837241"><ele>1081.0</ele><time>2026-05-02T13:33:21.997Z</time></trkpt><trkpt lat="42.110790295943424" lon="13.482365439991847"><ele>1081.0</ele><time>2026-05-02T13:33:22.997Z</time></trkpt><trkpt lat="42.11091043719223" lon="13.482237816306728"><ele>1086.0</ele><time>2026-05-02T13:33:23.997Z</time></trkpt><trkpt lat="42.11098732761314" lon="13.482094273002167"><ele>1091.0</ele><time>2026-05-02T13:33:24.997Z</time></trkpt><trkpt lat="42.11106501403646" lon="13.481958901897643"><ele>1096.0</ele><time>2026-05-02T13:33:25.997Z</time></trkpt><trkpt lat="42.111123938904385" lon="13.481708845756852"><ele>1096.0</ele><time>2026-05-02T13:33:26.997Z</time></trkpt><trkpt lat="42.11117775706682" lon="13.481460111671257"><ele>1096.0</ele><time>2026-05-02T13:33:27.997Z</time></trkpt><trkpt lat="42.11122821620473" lon="13.48118444204634"><ele>1096.0</ele><time>2026-05-02T13:33:28.997Z</time></trkpt><trkpt lat="42.1112654169219" lon="13.480909578004878"><ele>1096.3333333333333</ele><time>2026-05-02T13:33:29.997Z</time></trkpt><trkpt lat="42.11133162559048" lon="13.480669361248381"><ele>1096.6666666666667</ele><time>2026-05-02T13:33:30.997Z</time></trkpt><trkpt lat="42.11135242222145" lon="13.48042825914928"><ele>1097.0</ele><time>2026-05-02T13:33:31.997Z</time></trkpt><trkpt lat="42.111372449559255" lon="13.480275240630792"><ele>1097.6666666666667</ele><time>2026-05-02T13:33:32.997Z</time></trkpt><trkpt lat="42.11136405753214" lon="13.480072239154484"><ele>1098.3333333333333</ele><time>2026-05-02T13:33:33.997Z</time></trkpt><trkpt lat="42.111358899796166" lon="13.479850593584366"><ele>1099.0</ele><time>2026-05-02T13:33:34.997Z</time></trkpt><trkpt lat="42.11133566193749" lon="13.479619824427475"><ele>1102.0</ele><time>2026-05-02T13:33:35.997Z</time></trkpt><trkpt lat="42.111286890727236" lon="13.479388557443286"><ele>1105.0</ele><time>2026-05-02T13:33:36.997Z</time></trkpt><trkpt lat="42.111214784862575" lon="13.479136542561083"><ele>1108.0</ele><time>2026-05-02T13:33:37.997Z</time></trkpt><trkpt lat="42.11114104376077" lon="13.478853490616087"><ele>1109.0</ele><time>2026-05-02T13:33:38.997Z</time></trkpt><trkpt lat="42.11107834752397" lon="13.478572834979"><ele>1110.0</ele><time>2026-05-02T13:33:39.997Z</time></trkpt><trkpt lat="42.11104095385963" lon="13.47834707920978"><ele>1111.0</ele><time>2026-05-02T13:33:40.997Z</time></trkpt><trkpt lat="42.11101504131165" lon="13.478144570058959"><ele>1111.0</ele><time>2026-05-02T13:33:41.997Z</time></trkpt><trkpt lat="42.11102196397904" lon="13.47793998112149"><ele>1111.0</ele><time>2026-05-02T13:33:42.997Z</time></trkpt><trkpt lat="42.110990805247816" lon="13.477737713943846"><ele>1111.0</ele><time>2026-05-02T13:33:43.997Z</time></trkpt><trkpt lat="42.11097048960849" lon="13.47751096067867"><ele>1110.6666666666665</ele><time>2026-05-02T13:33:44.997Z</time></trkpt><trkpt lat="42.110922482798536" lon="13.477304836071976"><ele>1110.3333333333333</ele><time>2026-05-02T13:33:45.997Z</time></trkpt><trkpt lat="42.11086020624936" lon="13.477109212597275"><ele>1110.0</ele><time>2026-05-02T13:33:46.997Z</time></trkpt><trkpt lat="42.11077726575701" lon="13.476921386207229"><ele>1105.6666666666667</ele><time>2026-05-02T13:33:47.997Z</time></trkpt><trkpt lat="42.110674794873525" lon="13.476718347979903"><ele>1101.3333333333335</ele><time>2026-05-02T13:33:48.997Z</time></trkpt><trkpt lat="42.11055022895207" lon="13.47653724457802"><ele>1097.0</ele><time>2026-05-02T13:33:49.997Z</time></trkpt><trkpt lat="42.11045957792999" lon="13.476337637733641"><ele>1098.6666666666667</ele><time>2026-05-02T13:33:50.997Z</time></trkpt><trkpt lat="42.11035726551037" lon="13.476139208601142"><ele>1100.3333333333333</ele><time>2026-05-02T13:33:51.997Z</time></trkpt><trkpt lat="42.110298454728415" lon="13.475939918767484"><ele>1102.0</ele><time>2026-05-02T13:33:52.997Z</time></trkpt><trkpt lat="42.11024589156855" lon="13.475696575477441"><ele>1102.0</ele><time>2026-05-02T13:33:53.997Z</time></trkpt><trkpt lat="42.11021294811131" lon="13.475457044231202"><ele>1102.0</ele><time>2026-05-02T13:33:54.997Z</time></trkpt><trkpt lat="42.110165447504365" lon="13.475226123562255"><ele>1102.0</ele><time>2026-05-02T13:33:55.997Z</time></trkpt><trkpt lat="42.11012963709272" lon="13.47498766354652"><ele>1101.6666666666665</ele><time>2026-05-02T13:33:56.997Z</time></trkpt><trkpt lat="42.11007031367527" lon="13.474772744491668"><ele>1101.3333333333333</ele><time>2026-05-02T13:33:57.997Z</time></trkpt><trkpt lat="42.10999244089103" lon="13.474565406920233"><ele>1101.0</ele><time>2026-05-02T13:33:58.997Z</time></trkpt><trkpt lat="42.10989858930203" lon="13.474339921277883"><ele>1098.6666666666667</ele><time>2026-05-02T13:33:59.997Z</time></trkpt><trkpt lat="42.109788982358864" lon="13.474089215668165"><ele>1096.3333333333335</ele><time>2026-05-02T13:34:00.997Z</time></trkpt><trkpt lat="42.10966940087326" lon="13.473842091903375"><ele>1094.0</ele><time>2026-05-02T13:34:01.997Z</time></trkpt><trkpt lat="42.10956018047831" lon="13.47359613634831"><ele>1094.0</ele><time>2026-05-02T13:34:02.997Z</time></trkpt><trkpt lat="42.10944271417392" lon="13.473315814657836"><ele>1094.0</ele><time>2026-05-02T13:34:03.997Z</time></trkpt><trkpt lat="42.109338542247635" lon="13.473088173076984"><ele>1094.0</ele><time>2026-05-02T13:34:04.997Z</time></trkpt><trkpt lat="42.10926237312245" lon="13.472868180666696"><ele>1095.0</ele><time>2026-05-02T13:34:05.997Z</time></trkpt><trkpt lat="42.109183681832505" lon="13.472645144186414"><ele>1096.0</ele><time>2026-05-02T13:34:06.996Z</time></trkpt><trkpt lat="42.109103891916746" lon="13.472393127443036"><ele>1097.0</ele><time>2026-05-02T13:34:07.996Z</time></trkpt><trkpt lat="42.109040321784235" lon="13.472156283759483"><ele>1094.6666666666667</ele><time>2026-05-02T13:34:08.996Z</time></trkpt><trkpt lat="42.108978065178015" lon="13.471897162011793"><ele>1092.3333333333333</ele><time>2026-05-02T13:34:09.996Z</time></trkpt><trkpt lat="42.108936064660675" lon="13.47166247981915"><ele>1090.0</ele><time>2026-05-02T13:34:10.996Z</time></trkpt><trkpt lat="42.10889014940594" lon="13.471434515154762"><ele>1090.3333333333333</ele><time>2026-05-02T13:34:11.996Z</time></trkpt><trkpt lat="42.10886783321833" lon="13.47121299477355"><ele>1090.6666666666667</ele><time>2026-05-02T13:34:12.996Z</time></trkpt><trkpt lat="42.10885181406238" lon="13.470985295496268"><ele>1091.0</ele><time>2026-05-02T13:34:13.996Z</time></trkpt><trkpt lat="42.10886558663516" lon="13.470748211975136"><ele>1091.0</ele><time>2026-05-02T13:34:14.996Z</time></trkpt><trkpt lat="42.108861205255344" lon="13.470503920707799"><ele>1091.0</ele><time>2026-05-02T13:34:15.996Z</time></trkpt><trkpt lat="42.10886500024777" lon="13.470270594641299"><ele>1091.0</ele><time>2026-05-02T13:34:16.996Z</time></trkpt><trkpt lat="42.10885596388225" lon="13.470024427804853"><ele>1089.6666666666667</ele><time>2026-05-02T13:34:17.996Z</time></trkpt><trkpt lat="42.10882070201795" lon="13.469783180153568"><ele>1088.3333333333333</ele><time>2026-05-02T13:34:18.996Z</time></trkpt><trkpt lat="42.10877069542362" lon="13.46954708111534"><ele>1087.0</ele><time>2026-05-02T13:34:19.996Z</time></trkpt><trkpt lat="42.10869279153444" lon="13.469290009367192"><ele>1086.5</ele><time>2026-05-02T13:34:20.996Z</time></trkpt><trkpt lat="42.10858435406498" lon="13.469011155785543"><ele>1086.0</ele><time>2026-05-02T13:34:21.996Z</time></trkpt><trkpt lat="42.10845131658281" lon="13.468715989457914"><ele>1084.0</ele><time>2026-05-02T13:34:22.996Z</time></trkpt><trkpt lat="42.108326716527" lon="13.468399720256109"><ele>1082.0</ele><time>2026-05-02T13:34:23.996Z</time></trkpt><trkpt lat="42.108215029974296" lon="13.468077577024271"><ele>1085.0</ele><time>2026-05-02T13:34:24.996Z</time></trkpt><trkpt lat="42.108100499503955" lon="13.467735491008726"><ele>1088.0</ele><time>2026-05-02T13:34:25.996Z</time></trkpt><trkpt lat="42.10798278931576" lon="13.467405602294983"><ele>1090.5</ele><time>2026-05-02T13:34:26.996Z</time></trkpt><trkpt lat="42.107858491158716" lon="13.467089903019726"><ele>1093.0</ele><time>2026-05-02T13:34:27.996Z</time></trkpt><trkpt lat="42.107743226265875" lon="13.466801733449442"><ele>1093.0</ele><time>2026-05-02T13:34:28.996Z</time></trkpt><trkpt lat="42.10765490733013" lon="13.46652329858286"><ele>1093.0</ele><time>2026-05-02T13:34:29.996Z</time></trkpt><trkpt lat="42.107577075410816" lon="13.466300713279164"><ele>1093.0</ele><time>2026-05-02T13:34:30.996Z</time></trkpt><trkpt lat="42.10751713163699" lon="13.46609031971006"><ele>1095.3333333333333</ele><time>2026-05-02T13:34:31.996Z</time></trkpt><trkpt lat="42.10745962989416" lon="13.465890098845216"><ele>1097.6666666666667</ele><time>2026-05-02T13:34:32.996Z</time></trkpt><trkpt lat="42.1074075908283" lon="13.465697447933065"><ele>1100.0</ele><time>2026-05-02T13:34:33.996Z</time></trkpt><trkpt lat="42.10738561936437" lon="13.4654902188128"><ele>1099.0</ele><time>2026-05-02T13:34:34.996Z</time></trkpt><trkpt lat="42.1073828367728" lon="13.4653110726733"><ele>1098.0</ele><time>2026-05-02T13:34:35.996Z</time></trkpt><trkpt lat="42.1074072021445" lon="13.465131153257566"><ele>1097.0</ele><time>2026-05-02T13:34:36.996Z</time></trkpt><trkpt lat="42.107441005447406" lon="13.464972393888017"><ele>1096.0</ele><time>2026-05-02T13:34:37.996Z</time></trkpt><trkpt lat="42.10750378365824" lon="13.464764259272597"><ele>1097.0</ele><time>2026-05-02T13:34:38.996Z</time></trkpt><trkpt lat="42.107608935849605" lon="13.464574381861745"><ele>1098.0</ele><time>2026-05-02T13:34:39.996Z</time></trkpt><trkpt lat="42.107732072143044" lon="13.464348911953518"><ele>1099.0</ele><time>2026-05-02T13:34:40.996Z</time></trkpt><trkpt lat="42.10786382409028" lon="13.464117874414992"><ele>1099.0</ele><time>2026-05-02T13:34:41.996Z</time></trkpt><trkpt lat="42.107993732957496" lon="13.463874681431193"><ele>1099.0</ele><time>2026-05-02T13:34:42.996Z</time></trkpt><trkpt lat="42.10812606028019" lon="13.463646075730885"><ele>1099.0</ele><time>2026-05-02T13:34:43.996Z</time></trkpt><trkpt lat="42.10824950832058" lon="13.463431858915476"><ele>1101.6666666666665</ele><time>2026-05-02T13:34:44.996Z</time></trkpt><trkpt lat="42.10834927786406" lon="13.46322260621377"><ele>1104.3333333333333</ele><time>2026-05-02T13:34:45.996Z</time></trkpt><trkpt lat="42.108442343654595" lon="13.463036594739462"><ele>1107.0</ele><time>2026-05-02T13:34:46.996Z</time></trkpt><trkpt lat="42.108528123137276" lon="13.462856588829489"><ele>1108.0</ele><time>2026-05-02T13:34:47.996Z</time></trkpt><trkpt lat="42.1085836896073" lon="13.462686159388078"><ele>1109.0</ele><time>2026-05-02T13:34:48.996Z</time></trkpt><trkpt lat="42.108631996717925" lon="13.462515679664083"><ele>1110.0</ele><time>2026-05-02T13:34:49.996Z</time></trkpt><trkpt lat="42.108685936221114" lon="13.462376084595325"><ele>1111.0</ele><time>2026-05-02T13:34:50.996Z</time></trkpt><trkpt lat="42.108703592587275" lon="13.462249349260413"><ele>1111.0</ele><time>2026-05-02T13:34:51.996Z</time></trkpt><trkpt lat="42.10870881394467" lon="13.462152579951264"><ele>1111.0</ele><time>2026-05-02T13:34:53.996Z</time></trkpt><trkpt lat="42.10874828598249" lon="13.462072068460301"><ele>1111.0</ele><time>2026-05-02T13:34:54.996Z</time></trkpt><trkpt lat="42.10878262809116" lon="13.461951008704455"><ele>1111.0</ele><time>2026-05-02T13:34:56.996Z</time></trkpt><trkpt lat="42.108806983673055" lon="13.46180961446564"><ele>1111.0</ele><time>2026-05-02T13:34:58.996Z</time></trkpt><trkpt lat="42.10883780688298" lon="13.461685244773133"><ele>1111.0</ele><time>2026-05-02T13:35:00.996Z</time></trkpt><trkpt lat="42.10882717793372" lon="13.461562034086283"><ele>1111.2</ele><time>2026-05-02T13:35:02.996Z</time></trkpt><trkpt lat="42.108731543749826" lon="13.461514864581453"><ele>1111.3999999999999</ele><time>2026-05-02T13:35:03.996Z</time></trkpt><trkpt lat="42.10870501949489" lon="13.461354156021896"><ele>1111.6</ele><time>2026-05-02T13:35:05.996Z</time></trkpt><trkpt lat="42.10868424208461" lon="13.461270142391006"><ele>1111.8</ele><time>2026-05-02T13:35:06.996Z</time></trkpt><trkpt lat="42.108643420106404" lon="13.461105511430254"><ele>1112.0</ele><time>2026-05-02T13:35:08.996Z</time></trkpt><trkpt lat="42.10860532177301" lon="13.460929098482074"><ele>1110.8333333333335</ele><time>2026-05-02T13:35:10.996Z</time></trkpt><trkpt lat="42.10858772809135" lon="13.460822581384672"><ele>1109.6666666666667</ele><time>2026-05-02T13:35:11.999Z</time></trkpt><trkpt lat="42.108572629314594" lon="13.460731169370858"><ele>1108.5</ele><time>2026-05-02T13:35:12.999Z</time></trkpt><trkpt lat="42.108557276623024" lon="13.460638219871047"><ele>1107.3333333333333</ele><time>2026-05-02T13:35:13.999Z</time></trkpt><trkpt lat="42.10854042289475" lon="13.460549081432385"><ele>1106.1666666666665</ele><time>2026-05-02T13:35:15Z</time></trkpt><trkpt lat="42.10850332447521" lon="13.460410642546575"><ele>1105.0</ele><time>2026-05-02T13:35:16.999Z</time></trkpt><trkpt lat="42.10847729594667" lon="13.460325918537377"><ele>1102.6</ele><time>2026-05-02T13:35:17.999Z</time></trkpt><trkpt lat="42.10843595480197" lon="13.460171952684895"><ele>1100.2</ele><time>2026-05-02T13:35:19.999Z</time></trkpt><trkpt lat="42.10845390630661" lon="13.46008323637241"><ele>1097.8</ele><time>2026-05-02T13:35:20.999Z</time></trkpt><trkpt lat="42.10851073034428" lon="13.459939692841095"><ele>1095.4</ele><time>2026-05-02T13:35:22.999Z</time></trkpt><trkpt lat="42.108543978054044" lon="13.459866164292066"><ele>1093.0</ele><time>2026-05-02T13:35:23.999Z</time></trkpt><trkpt lat="42.10858793765564" lon="13.459740378151158"><ele>1091.1666666666665</ele><time>2026-05-02T13:35:25.999Z</time></trkpt><trkpt lat="42.10856000092924" lon="13.459600985849413"><ele>1089.3333333333333</ele><time>2026-05-02T13:35:27.999Z</time></trkpt><trkpt lat="42.10855920715461" lon="13.45943584036161"><ele>1087.5</ele><time>2026-05-02T13:35:29.999Z</time></trkpt><trkpt lat="42.10856310009165" lon="13.459338034880227"><ele>1085.6666666666667</ele><time>2026-05-02T13:35:30.999Z</time></trkpt><trkpt lat="42.10855062571145" lon="13.45923518567035"><ele>1083.8333333333335</ele><time>2026-05-02T13:35:31.999Z</time></trkpt><trkpt lat="42.108545979487715" lon="13.45914195149852"><ele>1082.0</ele><time>2026-05-02T13:35:32.999Z</time></trkpt><trkpt lat="42.10855027587383" lon="13.458980804142987"><ele>1082.0</ele><time>2026-05-02T13:35:34.999Z</time></trkpt><trkpt lat="42.10855053617301" lon="13.458833991903564"><ele>1082.0</ele><time>2026-05-02T13:35:36.999Z</time></trkpt><trkpt lat="42.108555305117044" lon="13.458737306089219"><ele>1082.0</ele><time>2026-05-02T13:35:37.999Z</time></trkpt><trkpt lat="42.10856932798984" lon="13.458605046546655"><ele>1082.0</ele><time>2026-05-02T13:35:39.999Z</time></trkpt><trkpt lat="42.108599479581414" lon="13.45844527596283"><ele>1082.0</ele><time>2026-05-02T13:35:41.999Z</time></trkpt><trkpt lat="42.10859666922313" lon="13.458344241229895"><ele>1080.2</ele><time>2026-05-02T13:35:42.999Z</time></trkpt><trkpt lat="42.10861258611062" lon="13.458195916392851"><ele>1078.4</ele><time>2026-05-02T13:35:44.999Z</time></trkpt><trkpt lat="42.10860502845383" lon="13.458106429660482"><ele>1076.6</ele><time>2026-05-02T13:35:45.999Z</time></trkpt><trkpt lat="42.10860527034863" lon="13.458018903652412"><ele>1074.8</ele><time>2026-05-02T13:35:46.999Z</time></trkpt><trkpt lat="42.10863599067299" lon="13.457848545149867"><ele>1073.0</ele><time>2026-05-02T13:35:48.999Z</time></trkpt><trkpt lat="42.10864971228395" lon="13.45774647578524"><ele>1071.5</ele><time>2026-05-02T13:35:49.999Z</time></trkpt><trkpt lat="42.10865919353141" lon="13.457648272659995"><ele>1070.0</ele><time>2026-05-02T13:35:50.999Z</time></trkpt><trkpt lat="42.10868862268046" lon="13.457554217764379"><ele>1068.5</ele><time>2026-05-02T13:35:51.999Z</time></trkpt><trkpt lat="42.1087008159693" lon="13.457461512391614"><ele>1067.0</ele><time>2026-05-02T13:35:52.999Z</time></trkpt><trkpt lat="42.10870324878262" lon="13.457350487793628"><ele>1065.5</ele><time>2026-05-02T13:35:53.999Z</time></trkpt><trkpt lat="42.10870243206864" lon="13.457234118104612"><ele>1064.0</ele><time>2026-05-02T13:35:54.999Z</time></trkpt><trkpt lat="42.10870258697001" lon="13.457120750939929"><ele>1062.3333333333335</ele><time>2026-05-02T13:35:55.999Z</time></trkpt><trkpt lat="42.108693493222056" lon="13.457010569630487"><ele>1060.6666666666667</ele><time>2026-05-02T13:35:56.999Z</time></trkpt><trkpt lat="42.108719205946464" lon="13.456913091883134"><ele>1059.0</ele><time>2026-05-02T13:35:57.999Z</time></trkpt><trkpt lat="42.10873340432524" lon="13.456816512711749"><ele>1057.3333333333333</ele><time>2026-05-02T13:35:58.999Z</time></trkpt><trkpt lat="42.108754093637494" lon="13.45664254074018"><ele>1055.6666666666665</ele><time>2026-05-02T13:36:00.999Z</time></trkpt><trkpt lat="42.10876000454337" lon="13.456530652934168"><ele>1054.0</ele><time>2026-05-02T13:36:01.999Z</time></trkpt><trkpt lat="42.10873572791785" lon="13.45644628846448"><ele>1054.0</ele><time>2026-05-02T13:36:02.999Z</time></trkpt><trkpt lat="42.108726365496494" lon="13.456286876397847"><ele>1054.0</ele><time>2026-05-02T13:36:04.999Z</time></trkpt><trkpt lat="42.10870431443649" lon="13.456192038625437"><ele>1054.0</ele><time>2026-05-02T13:36:05.999Z</time></trkpt><trkpt lat="42.10866074294489" lon="13.456083994451197"><ele>1054.0</ele><time>2026-05-02T13:36:06.999Z</time></trkpt><trkpt lat="42.108621207934036" lon="13.45597031140018"><ele>1054.0</ele><time>2026-05-02T13:36:07.999Z</time></trkpt><trkpt lat="42.10857821309564" lon="13.45585907264623"><ele>1052.6000000000001</ele><time>2026-05-02T13:36:08.999Z</time></trkpt><trkpt lat="42.108532605565216" lon="13.455747393944234"><ele>1051.2</ele><time>2026-05-02T13:36:09.999Z</time></trkpt><trkpt lat="42.10851807450375" lon="13.455580489754333"><ele>1049.8000000000002</ele><time>2026-05-02T13:36:11.999Z</time></trkpt><trkpt lat="42.108512374340634" lon="13.455417083655659"><ele>1048.4</ele><time>2026-05-02T13:36:13.999Z</time></trkpt><trkpt lat="42.10849040478098" lon="13.455325946486187"><ele>1047.0</ele><time>2026-05-02T13:36:14.999Z</time></trkpt><trkpt lat="42.10845903564616" lon="13.45522006858713"><ele>1046.0</ele><time>2026-05-02T13:36:15.999Z</time></trkpt><trkpt lat="42.10845395297234" lon="13.45506454673015"><ele>1045.0</ele><time>2026-05-02T13:36:17.999Z</time></trkpt><trkpt lat="42.10842503665149" lon="13.45494229062786"><ele>1044.0</ele><time>2026-05-02T13:36:18.999Z</time></trkpt><trkpt lat="42.108408661857965" lon="13.454843629387465"><ele>1043.0</ele><time>2026-05-02T13:36:19.999Z</time></trkpt><trkpt lat="42.108380853827306" lon="13.454732081737198"><ele>1042.0</ele><time>2026-05-02T13:36:20.999Z</time></trkpt><trkpt lat="42.1083616593754" lon="13.454637329939294"><ele>1041.0</ele><time>2026-05-02T13:36:21.999Z</time></trkpt><trkpt lat="42.108334279027794" lon="13.454520342681343"><ele>1040.0</ele><time>2026-05-02T13:36:22.999Z</time></trkpt><trkpt lat="42.108322605065766" lon="13.45432889630322"><ele>1039.0</ele><time>2026-05-02T13:36:24.999Z</time></trkpt><trkpt lat="42.1083077888471" lon="13.454210372304116"><ele>1038.0</ele><time>2026-05-02T13:36:25.999Z</time></trkpt><trkpt lat="42.10829811454574" lon="13.454089520966093"><ele>1037.0</ele><time>2026-05-02T13:36:26.999Z</time></trkpt><trkpt lat="42.10829730561156" lon="13.453992651664516"><ele>1036.0</ele><time>2026-05-02T13:36:27.999Z</time></trkpt><trkpt lat="42.10828824593577" lon="13.453867164409587"><ele>1035.0</ele><time>2026-05-02T13:36:28.999Z</time></trkpt><trkpt lat="42.108301744620775" lon="13.453771757831783"><ele>1034.0</ele><time>2026-05-02T13:36:29.999Z</time></trkpt><trkpt lat="42.10829544413973" lon="13.453675904718224"><ele>1033.0</ele><time>2026-05-02T13:36:30.999Z</time></trkpt><trkpt lat="42.10829129982867" lon="13.453563136882233"><ele>1032.0</ele><time>2026-05-02T13:36:31.999Z</time></trkpt><trkpt lat="42.10827537664024" lon="13.453442084365811"><ele>1031.0</ele><time>2026-05-02T13:36:32.999Z</time></trkpt><trkpt lat="42.10824506081996" lon="13.453354457771"><ele>1030.0</ele><time>2026-05-02T13:36:33.999Z</time></trkpt><trkpt lat="42.10819066286676" lon="13.453220416480642"><ele>1028.0</ele><time>2026-05-02T13:36:34.999Z</time></trkpt><trkpt lat="42.10813785101998" lon="13.453094054714205"><ele>1026.0</ele><time>2026-05-02T13:36:35.999Z</time></trkpt><trkpt lat="42.10811166836869" lon="13.452972754051855"><ele>1024.0</ele><time>2026-05-02T13:36:36.999Z</time></trkpt><trkpt lat="42.108101606447526" lon="13.452859581494888"><ele>1022.0</ele><time>2026-05-02T13:36:37.999Z</time></trkpt><trkpt lat="42.10809572060645" lon="13.452724594562826"><ele>1020.0</ele><time>2026-05-02T13:36:38.999Z</time></trkpt><trkpt lat="42.108084921015354" lon="13.452584215469411"><ele>1019.0</ele><time>2026-05-02T13:36:39.999Z</time></trkpt><trkpt lat="42.10809095528741" lon="13.452447042140841"><ele>1018.0</ele><time>2026-05-02T13:36:40.999Z</time></trkpt><trkpt lat="42.10810613250138" lon="13.452324862963152"><ele>1017.0</ele><time>2026-05-02T13:36:41.999Z</time></trkpt><trkpt lat="42.10811844608453" lon="13.452203492784092"><ele>1016.0</ele><time>2026-05-02T13:36:42.999Z</time></trkpt><trkpt lat="42.10811631413067" lon="13.452094123088079"><ele>1015.0</ele><time>2026-05-02T13:36:43.999Z</time></trkpt><trkpt lat="42.10810224040177" lon="13.451985724446072"><ele>1014.0</ele><time>2026-05-02T13:36:44.999Z</time></trkpt><trkpt lat="42.108023103039976" lon="13.451911316183168"><ele>1014.0</ele><time>2026-05-02T13:36:45.999Z</time></trkpt><trkpt lat="42.10799716696975" lon="13.451819619855701"><ele>1014.0</ele><time>2026-05-02T13:36:46.999Z</time></trkpt><trkpt lat="42.1079691708754" lon="13.451690698826138"><ele>1014.0</ele><time>2026-05-02T13:36:47.999Z</time></trkpt><trkpt lat="42.10795993074104" lon="13.451602913293929"><ele>1014.0</ele><time>2026-05-02T13:36:48.999Z</time></trkpt><trkpt lat="42.107964982173655" lon="13.45147557454702"><ele>1014.0</ele><time>2026-05-02T13:36:50.999Z</time></trkpt><trkpt lat="42.10796248760821" lon="13.451351400677332"><ele>1014.0</ele><time>2026-05-02T13:36:52.999Z</time></trkpt><trkpt lat="42.107965034447325" lon="13.45120032961376"><ele>1013.6666666666667</ele><time>2026-05-02T13:36:54.999Z</time></trkpt><trkpt lat="42.10796787571861" lon="13.451031793691008"><ele>1013.3333333333334</ele><time>2026-05-02T13:36:56.999Z</time></trkpt><trkpt lat="42.10802226768951" lon="13.450987681899015"><ele>1013.0</ele><time>2026-05-02T13:36:57.999Z</time></trkpt><trkpt lat="42.10776239098517" lon="13.450843295923754"><ele>1013.0000000000001</ele><time>2026-05-02T13:36:58.999Z</time></trkpt><trkpt lat="42.10772746374256" lon="13.450752421009167"><ele>1013.0</ele><time>2026-05-02T13:36:59.999Z</time></trkpt><trkpt lat="42.10768566431775" lon="13.450661476859306"><ele>1013.0</ele><time>2026-05-02T13:37:00.999Z</time></trkpt><trkpt lat="42.10763078961593" lon="13.450567001634967"><ele>1013.0</ele><time>2026-05-02T13:37:01.999Z</time></trkpt><trkpt lat="42.107573985644066" lon="13.450462128202993"><ele>1013.0000000000001</ele><time>2026-05-02T13:37:02.999Z</time></trkpt><trkpt lat="42.107516814231104" lon="13.450360072148092"><ele>1013.0</ele><time>2026-05-02T13:37:03.998Z</time></trkpt><trkpt lat="42.10746276386836" lon="13.450260988737622"><ele>1012.2</ele><time>2026-05-02T13:37:04.998Z</time></trkpt><trkpt lat="42.10741355994306" lon="13.450153203973999"><ele>1011.4</ele><time>2026-05-02T13:37:05.998Z</time></trkpt><trkpt lat="42.107367525463715" lon="13.450055101949781"><ele>1010.6000000000001</ele><time>2026-05-02T13:37:06.998Z</time></trkpt><trkpt lat="42.10730474418819" lon="13.44992587392323"><ele>1009.8000000000001</ele><time>2026-05-02T13:37:07.998Z</time></trkpt><trkpt lat="42.10725422576187" lon="13.449813582889638"><ele>1009.0</ele><time>2026-05-02T13:37:08.998Z</time></trkpt><trkpt lat="42.10720136430884" lon="13.449702633000266"><ele>1007.6</ele><time>2026-05-02T13:37:09.998Z</time></trkpt><trkpt lat="42.1071484430381" lon="13.449602811666312"><ele>1006.2</ele><time>2026-05-02T13:37:10.998Z</time></trkpt><trkpt lat="42.1071096149982" lon="13.449525083727407"><ele>1004.8000000000001</ele><time>2026-05-02T13:37:11.998Z</time></trkpt><trkpt lat="42.107046959072726" lon="13.449398329357662"><ele>1003.4000000000001</ele><time>2026-05-02T13:37:13.998Z</time></trkpt><trkpt lat="42.106982146693326" lon="13.449275997850519"><ele>1002.0</ele><time>2026-05-02T13:37:15.998Z</time></trkpt><trkpt lat="42.10694015681496" lon="13.44914157096139"><ele>1002.0</ele><time>2026-05-02T13:37:17.998Z</time></trkpt><trkpt lat="42.10690293984985" lon="13.449050278373692"><ele>1002.0</ele><time>2026-05-02T13:37:18.998Z</time></trkpt><trkpt lat="42.10686520156815" lon="13.448960185258677"><ele>1002.0</ele><time>2026-05-02T13:37:19.998Z</time></trkpt><trkpt lat="42.10682977943609" lon="13.44886366953417"><ele>1002.0</ele><time>2026-05-02T13:37:20.998Z</time></trkpt><trkpt lat="42.10678354642387" lon="13.448743350986925"><ele>1002.0</ele><time>2026-05-02T13:37:21.998Z</time></trkpt><trkpt lat="42.10673133442113" lon="13.448612377547539"><ele>1002.0</ele><time>2026-05-02T13:37:22.998Z</time></trkpt><trkpt lat="42.10668479597707" lon="13.448489467766532"><ele>1001.6</ele><time>2026-05-02T13:37:23.998Z</time></trkpt><trkpt lat="42.10663022886616" lon="13.448363543421204"><ele>1001.2</ele><time>2026-05-02T13:37:24.998Z</time></trkpt><trkpt lat="42.10657795073702" lon="13.448245115802324"><ele>1000.8</ele><time>2026-05-02T13:37:25.998Z</time></trkpt><trkpt lat="42.10652295111727" lon="13.4481573778709"><ele>1000.4</ele><time>2026-05-02T13:37:26.998Z</time></trkpt><trkpt lat="42.10646309427427" lon="13.44810405293047"><ele>1000.0</ele><time>2026-05-02T13:37:27.998Z</time></trkpt><trkpt lat="42.106379724775884" lon="13.44807428730046"><ele>998.9999999999999</ele><time>2026-05-02T13:37:28.998Z</time></trkpt><trkpt lat="42.10628735381222" lon="13.44804471553845"><ele>998.0</ele><time>2026-05-02T13:37:29.998Z</time></trkpt><trkpt lat="42.10620310521099" lon="13.4480169402547"><ele>997.0</ele><time>2026-05-02T13:37:30.998Z</time></trkpt><trkpt lat="42.106124175387265" lon="13.44798805662963"><ele>996.0</ele><time>2026-05-02T13:37:31.998Z</time></trkpt><trkpt lat="42.106054067031536" lon="13.447958106287132"><ele>994.9999999999999</ele><time>2026-05-02T13:37:32.998Z</time></trkpt><trkpt lat="42.10599623942906" lon="13.447917825868426"><ele>994.0</ele><time>2026-05-02T13:37:33.998Z</time></trkpt><trkpt lat="42.10591208935155" lon="13.44779444468192"><ele>993.6666666666666</ele><time>2026-05-02T13:37:35.998Z</time></trkpt><trkpt lat="42.10588280290094" lon="13.447708830578987"><ele>993.3333333333333</ele><time>2026-05-02T13:37:36.998Z</time></trkpt><trkpt lat="42.105856478617966" lon="13.447611643983157"><ele>993.0</ele><time>2026-05-02T13:37:37.998Z</time></trkpt><trkpt lat="42.105830063691954" lon="13.447496878935858"><ele>992.6666666666667</ele><time>2026-05-02T13:37:38.998Z</time></trkpt><trkpt lat="42.105796073571554" lon="13.447373638861151"><ele>992.3333333333334</ele><time>2026-05-02T13:37:39.998Z</time></trkpt><trkpt lat="42.105767759050735" lon="13.447246011743253"><ele>992.0</ele><time>2026-05-02T13:37:40.998Z</time></trkpt><trkpt lat="42.105737790414985" lon="13.447129807350123"><ele>991.1428571428572</ele><time>2026-05-02T13:37:41.998Z</time></trkpt><trkpt lat="42.10572043073418" lon="13.447045455529844"><ele>990.2857142857144</ele><time>2026-05-02T13:37:42.998Z</time></trkpt><trkpt lat="42.105709071434816" lon="13.446957826378087"><ele>989.4285714285714</ele><time>2026-05-02T13:37:43.998Z</time></trkpt><trkpt lat="42.10571422420527" lon="13.446865872927404"><ele>988.5714285714287</ele><time>2026-05-02T13:37:44.998Z</time></trkpt><trkpt lat="42.10573244733169" lon="13.446765512480528"><ele>987.7142857142858</ele><time>2026-05-02T13:37:45.998Z</time></trkpt><trkpt lat="42.10576491289685" lon="13.446667683816264"><ele>986.8571428571429</ele><time>2026-05-02T13:37:46.998Z</time></trkpt><trkpt lat="42.10579465471438" lon="13.446580408786152"><ele>986.0</ele><time>2026-05-02T13:37:47.998Z</time></trkpt><trkpt lat="42.105828915958234" lon="13.446446680387734"><ele>986.0</ele><time>2026-05-02T13:37:49.998Z</time></trkpt><trkpt lat="42.10581223850266" lon="13.446310846083856"><ele>985.9999999999999</ele><time>2026-05-02T13:37:51.998Z</time></trkpt><trkpt lat="42.105772731679856" lon="13.44624248635625"><ele>985.9999999999999</ele><time>2026-05-02T13:37:52.998Z</time></trkpt><trkpt lat="42.105724035242936" lon="13.44616754150129"><ele>986.0</ele><time>2026-05-02T13:37:53.998Z</time></trkpt><trkpt lat="42.10566232254521" lon="13.446043242940732"><ele>986.0</ele><time>2026-05-02T13:37:55.998Z</time></trkpt><trkpt lat="42.10560268219696" lon="13.445886057980045"><ele>984.1999999999999</ele><time>2026-05-02T13:37:57.998Z</time></trkpt><trkpt lat="42.10556248683162" lon="13.44578982653829"><ele>982.3999999999999</ele><time>2026-05-02T13:37:58.998Z</time></trkpt><trkpt lat="42.105507393068194" lon="13.445672272439989"><ele>980.6</ele><time>2026-05-02T13:37:59.998Z</time></trkpt><trkpt lat="42.10546266233409" lon="13.445575546796405"><ele>978.8</ele><time>2026-05-02T13:38:00.998Z</time></trkpt><trkpt lat="42.105413854509585" lon="13.445461170495348"><ele>977.0</ele><time>2026-05-02T13:38:01.998Z</time></trkpt><trkpt lat="42.10537371823337" lon="13.445362410225595"><ele>977.0000000000001</ele><time>2026-05-02T13:38:02.998Z</time></trkpt><trkpt lat="42.10533515240101" lon="13.445257630612767"><ele>977.0</ele><time>2026-05-02T13:38:03.998Z</time></trkpt><trkpt lat="42.105307541754456" lon="13.445146084994564"><ele>977.0</ele><time>2026-05-02T13:38:04.998Z</time></trkpt><trkpt lat="42.10527891370512" lon="13.445039256744183"><ele>977.0</ele><time>2026-05-02T13:38:05.998Z</time></trkpt><trkpt lat="42.105246305047324" lon="13.444943054797205"><ele>977.0000000000001</ele><time>2026-05-02T13:38:06.998Z</time></trkpt><trkpt lat="42.10521086302675" lon="13.444841685930708"><ele>977.0</ele><time>2026-05-02T13:38:07.998Z</time></trkpt><trkpt lat="42.105166751053346" lon="13.44471285204292"><ele>976.6</ele><time>2026-05-02T13:38:08.998Z</time></trkpt><trkpt lat="42.10512032380564" lon="13.444585220272739"><ele>976.2</ele><time>2026-05-02T13:38:09.998Z</time></trkpt><trkpt lat="42.105071347010586" lon="13.444459809785108"><ele>975.8</ele><time>2026-05-02T13:38:10.998Z</time></trkpt><trkpt lat="42.10502086516183" lon="13.444328437758855"><ele>975.4</ele><time>2026-05-02T13:38:11.998Z</time></trkpt><trkpt lat="42.10497027548389" lon="13.444190523895738"><ele>975.0</ele><time>2026-05-02T13:38:12.998Z</time></trkpt><trkpt lat="42.10492065335549" lon="13.444061912498602"><ele>974.6</ele><time>2026-05-02T13:38:13.998Z</time></trkpt><trkpt lat="42.10486827156846" lon="13.443945600064952"><ele>974.2</ele><time>2026-05-02T13:38:14.998Z</time></trkpt><trkpt lat="42.10480581600344" lon="13.443831967992597"><ele>973.8</ele><time>2026-05-02T13:38:15.998Z</time></trkpt><trkpt lat="42.10473801104071" lon="13.443743597977143"><ele>973.4</ele><time>2026-05-02T13:38:16.998Z</time></trkpt><trkpt lat="42.10467776029985" lon="13.443657809999568"><ele>973.0</ele><time>2026-05-02T13:38:17.998Z</time></trkpt><trkpt lat="42.104634629991715" lon="13.443547542790682"><ele>973.0</ele><time>2026-05-02T13:38:18.998Z</time></trkpt><trkpt lat="42.10459219115184" lon="13.44341616565037"><ele>973.0</ele><time>2026-05-02T13:38:19.998Z</time></trkpt><trkpt lat="42.10454556438355" lon="13.443290151669466"><ele>973.0</ele><time>2026-05-02T13:38:20.998Z</time></trkpt><trkpt lat="42.104486693192676" lon="13.44315186101459"><ele>973.0</ele><time>2026-05-02T13:38:21.998Z</time></trkpt><trkpt lat="42.10440337438789" lon="13.443018459495596"><ele>973.0</ele><time>2026-05-02T13:38:22.998Z</time></trkpt><trkpt lat="42.10431952695372" lon="13.442879771118546"><ele>973.0</ele><time>2026-05-02T13:38:23.998Z</time></trkpt><trkpt lat="42.10424365595423" lon="13.442750540330328"><ele>973.0</ele><time>2026-05-02T13:38:24.998Z</time></trkpt><trkpt lat="42.10417596087022" lon="13.442630552411106"><ele>973.0</ele><time>2026-05-02T13:38:25.998Z</time></trkpt><trkpt lat="42.10411365970294" lon="13.442517144975687"><ele>972.25</ele><time>2026-05-02T13:38:26.998Z</time></trkpt><trkpt lat="42.104062796963994" lon="13.442376919768467"><ele>971.5</ele><time>2026-05-02T13:38:27.998Z</time></trkpt><trkpt lat="42.10400851176393" lon="13.442216380739657"><ele>970.75</ele><time>2026-05-02T13:38:28.998Z</time></trkpt><trkpt lat="42.10395308452755" lon="13.44205655915428"><ele>970.0</ele><time>2026-05-02T13:38:29.998Z</time></trkpt><trkpt lat="42.10389594466334" lon="13.441909258244362"><ele>970.0</ele><time>2026-05-02T13:38:30.998Z</time></trkpt><trkpt lat="42.10383813680595" lon="13.441773043358205"><ele>970.0</ele><time>2026-05-02T13:38:31.998Z</time></trkpt><trkpt lat="42.10378195635001" lon="13.4416428770481"><ele>970.0</ele><time>2026-05-02T13:38:32.998Z</time></trkpt><trkpt lat="42.10371227868665" lon="13.441520973169457"><ele>970.0</ele><time>2026-05-02T13:38:33.998Z</time></trkpt><trkpt lat="42.103635296573714" lon="13.441400733829532"><ele>970.75</ele><time>2026-05-02T13:38:34.998Z</time></trkpt><trkpt lat="42.103553812196004" lon="13.441284092399906"><ele>971.5</ele><time>2026-05-02T13:38:35.998Z</time></trkpt><trkpt lat="42.10347145317103" lon="13.441167420602477"><ele>972.25</ele><time>2026-05-02T13:38:36.998Z</time></trkpt><trkpt lat="42.10339285065375" lon="13.441041594899145"><ele>973.0</ele><time>2026-05-02T13:38:37.998Z</time></trkpt><trkpt lat="42.10332788592055" lon="13.440923149721423"><ele>973.0</ele><time>2026-05-02T13:38:38.998Z</time></trkpt><trkpt lat="42.10328463325556" lon="13.440812302000143"><ele>973.0</ele><time>2026-05-02T13:38:39.998Z</time></trkpt><trkpt lat="42.103245040135086" lon="13.440711114424163"><ele>973.0</ele><time>2026-05-02T13:38:40.998Z</time></trkpt><trkpt lat="42.10320267795006" lon="13.440611155635922"><ele>973.0</ele><time>2026-05-02T13:38:41.998Z</time></trkpt><trkpt lat="42.10313736003597" lon="13.440526653100704"><ele>973.0</ele><time>2026-05-02T13:38:42.998Z</time></trkpt><trkpt lat="42.10306131487181" lon="13.440440405332236"><ele>972.8</ele><time>2026-05-02T13:38:43.998Z</time></trkpt><trkpt lat="42.10298524162126" lon="13.44033853072578"><ele>972.5999999999999</ele><time>2026-05-02T13:38:44.998Z</time></trkpt><trkpt lat="42.10290559684963" lon="13.440250275116219"><ele>972.4000000000001</ele><time>2026-05-02T13:38:45.998Z</time></trkpt><trkpt lat="42.1028209131123" lon="13.440172977628933"><ele>972.2</ele><time>2026-05-02T13:38:46.998Z</time></trkpt><trkpt lat="42.10272941061109" lon="13.440099883744239"><ele>972.0</ele><time>2026-05-02T13:38:47.998Z</time></trkpt><trkpt lat="42.10263136622847" lon="13.440043280938134"><ele>972.0</ele><time>2026-05-02T13:38:48.998Z</time></trkpt><trkpt lat="42.10253613803376" lon="13.439991563455532"><ele>972.0</ele><time>2026-05-02T13:38:49.998Z</time></trkpt><trkpt lat="42.10244593399835" lon="13.439951537063218"><ele>972.0</ele><time>2026-05-02T13:38:50.998Z</time></trkpt><trkpt lat="42.102362826366544" lon="13.439894203719879"><ele>972.0</ele><time>2026-05-02T13:38:51.998Z</time></trkpt><trkpt lat="42.102280477059274" lon="13.439811217946334"><ele>972.0</ele><time>2026-05-02T13:38:52.998Z</time></trkpt><trkpt lat="42.10219778936669" lon="13.439696043503425"><ele>973.0</ele><time>2026-05-02T13:38:53.998Z</time></trkpt><trkpt lat="42.10211234296172" lon="13.439573463317027"><ele>974.0</ele><time>2026-05-02T13:38:54.998Z</time></trkpt><trkpt lat="42.10203133588823" lon="13.439447436598972"><ele>975.0</ele><time>2026-05-02T13:38:55.998Z</time></trkpt><trkpt lat="42.10194913648255" lon="13.439323309856185"><ele>976.0</ele><time>2026-05-02T13:38:56.998Z</time></trkpt><trkpt lat="42.101862315729115" lon="13.439192246725208"><ele>976.0</ele><time>2026-05-02T13:38:57.998Z</time></trkpt><trkpt lat="42.101769412449535" lon="13.439063235532036"><ele>976.0</ele><time>2026-05-02T13:38:58.998Z</time></trkpt><trkpt lat="42.10167486887761" lon="13.438933001426411"><ele>976.0</ele><time>2026-05-02T13:38:59.998Z</time></trkpt><trkpt lat="42.101580742954106" lon="13.438800902425514"><ele>976.0</ele><time>2026-05-02T13:39:00.998Z</time></trkpt><trkpt lat="42.10149224699901" lon="13.438665557746917"><ele>975.75</ele><time>2026-05-02T13:39:01.997Z</time></trkpt><trkpt lat="42.101414271409894" lon="13.43853482189843"><ele>975.5</ele><time>2026-05-02T13:39:02.997Z</time></trkpt><trkpt lat="42.10134395976002" lon="13.438402543930447"><ele>975.25</ele><time>2026-05-02T13:39:03.997Z</time></trkpt><trkpt lat="42.10127557730437" lon="13.438264523656736"><ele>975.0</ele><time>2026-05-02T13:39:04.997Z</time></trkpt><trkpt lat="42.101201658117" lon="13.438127639355178"><ele>975.0</ele><time>2026-05-02T13:39:05.997Z</time></trkpt><trkpt lat="42.101125607324185" lon="13.437996990434913"><ele>975.0</ele><time>2026-05-02T13:39:06.997Z</time></trkpt><trkpt lat="42.1010426759705" lon="13.43787916024041"><ele>975.0</ele><time>2026-05-02T13:39:07.997Z</time></trkpt><trkpt lat="42.100968531486906" lon="13.437760808181654"><ele>975.0</ele><time>2026-05-02T13:39:08.997Z</time></trkpt><trkpt lat="42.10090237966992" lon="13.437647468378522"><ele>975.0</ele><time>2026-05-02T13:39:09.997Z</time></trkpt><trkpt lat="42.10084996674978" lon="13.437534623615342"><ele>975.0</ele><time>2026-05-02T13:39:10.997Z</time></trkpt><trkpt lat="42.10079228559896" lon="13.437439408448613"><ele>975.0</ele><time>2026-05-02T13:39:11.997Z</time></trkpt><trkpt lat="42.10074469261826" lon="13.43736037342993"><ele>975.0</ele><time>2026-05-02T13:39:12.997Z</time></trkpt><trkpt lat="42.10067206633162" lon="13.437236530858021"><ele>975.0</ele><time>2026-05-02T13:39:14.997Z</time></trkpt><trkpt lat="42.10063612567885" lon="13.437163679684765"><ele>975.0</ele><time>2026-05-02T13:39:15.997Z</time></trkpt><trkpt lat="42.10059194807168" lon="13.43708548767719"><ele>974.4</ele><time>2026-05-02T13:39:16.997Z</time></trkpt><trkpt lat="42.100546467914945" lon="13.436991458663417"><ele>973.8</ele><time>2026-05-02T13:39:17.997Z</time></trkpt><trkpt lat="42.100500037722256" lon="13.436871622042434"><ele>973.2</ele><time>2026-05-02T13:39:18.997Z</time></trkpt><trkpt lat="42.10043982517713" lon="13.43673868240538"><ele>972.6</ele><time>2026-05-02T13:39:19.997Z</time></trkpt><trkpt lat="42.10036849799741" lon="13.436605065029626"><ele>972.0</ele><time>2026-05-02T13:39:20.997Z</time></trkpt><trkpt lat="42.1002958499257" lon="13.436472329807424"><ele>972.0</ele><time>2026-05-02T13:39:21.997Z</time></trkpt><trkpt lat="42.10023099786329" lon="13.436343883517921"><ele>972.0</ele><time>2026-05-02T13:39:22.997Z</time></trkpt><trkpt lat="42.10017768668288" lon="13.436217730891602"><ele>972.0</ele><time>2026-05-02T13:39:23.997Z</time></trkpt><trkpt lat="42.100131485026715" lon="13.436094365343768"><ele>972.0</ele><time>2026-05-02T13:39:24.997Z</time></trkpt><trkpt lat="42.10008640313437" lon="13.435977534685394"><ele>972.0</ele><time>2026-05-02T13:39:25.997Z</time></trkpt><trkpt lat="42.10004345311925" lon="13.435871871931905"><ele>972.0</ele><time>2026-05-02T13:39:26.997Z</time></trkpt><trkpt lat="42.100001633840144" lon="13.435780884021243"><ele>972.0</ele><time>2026-05-02T13:39:27.997Z</time></trkpt><trkpt lat="42.09996970803371" lon="13.435701118788332"><ele>972.0</ele><time>2026-05-02T13:39:28.997Z</time></trkpt><trkpt lat="42.09990980430059" lon="13.435546073850714"><ele>972.0</ele><time>2026-05-02T13:39:30.997Z</time></trkpt><trkpt lat="42.099872792805634" lon="13.435459971610378"><ele>972.0</ele><time>2026-05-02T13:39:31.997Z</time></trkpt><trkpt lat="42.0998400305151" lon="13.435370135379616"><ele>972.0</ele><time>2026-05-02T13:39:32.997Z</time></trkpt><trkpt lat="42.09980868131687" lon="13.435281023275065"><ele>972.3333333333334</ele><time>2026-05-02T13:39:33.997Z</time></trkpt><trkpt lat="42.09977971820604" lon="13.435200227333677"><ele>972.6666666666667</ele><time>2026-05-02T13:39:34.997Z</time></trkpt><trkpt lat="42.0997559978261" lon="13.435103938136892"><ele>973.0</ele><time>2026-05-02T13:39:35.997Z</time></trkpt><trkpt lat="42.09971894818582" lon="13.434998115090387"><ele>973.3333333333334</ele><time>2026-05-02T13:39:36.997Z</time></trkpt><trkpt lat="42.09967792989281" lon="13.434875328893003"><ele>973.6666666666667</ele><time>2026-05-02T13:39:37.997Z</time></trkpt><trkpt lat="42.09963152138994" lon="13.434754995370474"><ele>974.0</ele><time>2026-05-02T13:39:38.997Z</time></trkpt><trkpt lat="42.09957334050169" lon="13.434627831527656"><ele>974.2</ele><time>2026-05-02T13:39:39.997Z</time></trkpt><trkpt lat="42.09952182042787" lon="13.434498146468096"><ele>974.4000000000001</ele><time>2026-05-02T13:39:40.997Z</time></trkpt><trkpt lat="42.09947486420462" lon="13.434375944752805"><ele>974.6</ele><time>2026-05-02T13:39:41.997Z</time></trkpt><trkpt lat="42.09943735696727" lon="13.434267013940783"><ele>974.8</ele><time>2026-05-02T13:39:42.997Z</time></trkpt><trkpt lat="42.09939833456127" lon="13.434126338995492"><ele>975.0</ele><time>2026-05-02T13:39:44.997Z</time></trkpt><trkpt lat="42.099385622275406" lon="13.434024611440252"><ele>975.0</ele><time>2026-05-02T13:39:46.997Z</time></trkpt><trkpt lat="42.09936600599622" lon="13.433941831925486"><ele>975.0</ele><time>2026-05-02T13:39:48.997Z</time></trkpt><trkpt lat="42.099252882081956" lon="13.433819495321531"><ele>975.0</ele><time>2026-05-02T13:39:50.997Z</time></trkpt><trkpt lat="42.09916511446954" lon="13.43372903547177"><ele>975.0</ele><time>2026-05-02T13:39:51.997Z</time></trkpt><trkpt lat="42.099046504348124" lon="13.433617161192307"><ele>974.0</ele><time>2026-05-02T13:39:52.997Z</time></trkpt><trkpt lat="42.09890255657999" lon="13.433466554201932"><ele>973.0</ele><time>2026-05-02T13:39:53.997Z</time></trkpt><trkpt lat="42.09873562364943" lon="13.433301931865083"><ele>972.0</ele><time>2026-05-02T13:39:54.997Z</time></trkpt><trkpt lat="42.09856285707064" lon="13.433136218083735"><ele>972.0</ele><time>2026-05-02T13:39:55.997Z</time></trkpt><trkpt lat="42.098405441425044" lon="13.432976216002602"><ele>972.0</ele><time>2026-05-02T13:39:56.997Z</time></trkpt><trkpt lat="42.09827925468039" lon="13.43283602710756"><ele>972.0</ele><time>2026-05-02T13:39:57.997Z</time></trkpt><trkpt lat="42.098150536956425" lon="13.432684799963091"><ele>971.4000000000001</ele><time>2026-05-02T13:39:58.997Z</time></trkpt><trkpt lat="42.098041184291844" lon="13.432560589874441"><ele>970.8000000000001</ele><time>2026-05-02T13:39:59.997Z</time></trkpt><trkpt lat="42.09794979105006" lon="13.43245998383415"><ele>970.2</ele><time>2026-05-02T13:40:00.997Z</time></trkpt><trkpt lat="42.097883534571025" lon="13.43236364726231"><ele>969.6</ele><time>2026-05-02T13:40:01.997Z</time></trkpt><trkpt lat="42.097863486055" lon="13.432280285266305"><ele>969.0</ele><time>2026-05-02T13:40:02.997Z</time></trkpt><trkpt lat="42.09777730313544" lon="13.432232018703496"><ele>969.0</ele><time>2026-05-02T13:40:04.997Z</time></trkpt><trkpt lat="42.09782825137389" lon="13.4322993720841"><ele>969.0000000000001</ele><time>2026-05-02T13:40:11.997Z</time></trkpt><trkpt lat="42.097922554780105" lon="13.432385990701897"><ele>969.0000000000001</ele><time>2026-05-02T13:40:22.997Z</time></trkpt><trkpt lat="42.097995324893475" lon="13.432452696841317"><ele>969.0</ele><time>2026-05-02T13:40:24.997Z</time></trkpt><trkpt lat="42.09813220887654" lon="13.43236899141133"><ele>969.0</ele><time>2026-05-02T13:40:25.997Z</time></trkpt><trkpt lat="42.098208866599755" lon="13.432407025973854"><ele>969.0</ele><time>2026-05-02T13:40:26.997Z</time></trkpt><trkpt lat="42.09829737886943" lon="13.432491612598037"><ele>969.0</ele><time>2026-05-02T13:40:27.997Z</time></trkpt><trkpt lat="42.09825005124703" lon="13.432839483893405"><ele>969.0</ele><time>2026-05-02T13:40:28.997Z</time></trkpt><trkpt lat="42.09832719846684" lon="13.432916797743626"><ele>969.6</ele><time>2026-05-02T13:40:29.997Z</time></trkpt><trkpt lat="42.09840809903545" lon="13.432997872376303"><ele>970.2</ele><time>2026-05-02T13:40:30.997Z</time></trkpt><trkpt lat="42.09848628601086" lon="13.433076227831911"><ele>970.8000000000001</ele><time>2026-05-02T13:40:31.997Z</time></trkpt><trkpt lat="42.09855355616131" lon="13.433143642650771"><ele>971.4000000000001</ele><time>2026-05-02T13:40:32.997Z</time></trkpt><trkpt lat="42.098624603972354" lon="13.433214843527187"><ele>972.0</ele><time>2026-05-02T13:40:33.997Z</time></trkpt><trkpt lat="42.09869116874882" lon="13.433281551297588"><ele>972.0</ele><time>2026-05-02T13:40:34.997Z</time></trkpt><trkpt lat="42.09876096393059" lon="13.433351545115103"><ele>972.0</ele><time>2026-05-02T13:40:35.997Z</time></trkpt><trkpt lat="42.09883047004824" lon="13.433421457438904"><ele>972.0</ele><time>2026-05-02T13:40:36.997Z</time></trkpt><trkpt lat="42.09889386448292" lon="13.433466935029745"><ele>972.0</ele><time>2026-05-02T13:40:37.997Z</time></trkpt><trkpt lat="42.09894071846322" lon="13.433532349937119"><ele>972.0</ele><time>2026-05-02T13:40:38.997Z</time></trkpt><trkpt lat="42.0989992315476" lon="13.43359120487475"><ele>972.0</ele><time>2026-05-02T13:40:39.997Z</time></trkpt><trkpt lat="42.09908895582107" lon="13.433682175364096"><ele>969.0</ele><time>2026-05-02T13:40:41.997Z</time></trkpt><trkpt lat="42.099605181878886" lon="13.433603186219056"><ele>950.0</ele><time>2026-05-02T13:40:43.997Z</time></trkpt><trkpt lat="42.10007079925352" lon="13.432717617600877"><ele>950.0</ele><time>2026-05-02T13:40:55.997Z</time></trkpt><trkpt lat="42.100112150971476" lon="13.432648745494465"><ele>950.0000000000001</ele><time>2026-05-02T13:40:56.997Z</time></trkpt><trkpt lat="42.100161386961396" lon="13.432595417789164"><ele>950.0</ele><time>2026-05-02T13:40:57.997Z</time></trkpt><trkpt lat="42.100179107777" lon="13.432489660356707"><ele>950.0</ele><time>2026-05-02T13:40:58.997Z</time></trkpt><trkpt lat="42.10022713844506" lon="13.432379104844387"><ele>950.0000000000001</ele><time>2026-05-02T13:41:00.997Z</time></trkpt><trkpt lat="42.100273894043696" lon="13.432320537271924"><ele>950.0</ele><time>2026-05-02T13:41:01.996Z</time></trkpt><trkpt lat="42.100336388965054" lon="13.432286914244981"><ele>950.0</ele><time>2026-05-02T13:41:02.996Z</time></trkpt><trkpt lat="42.1003909218362" lon="13.432235666804512"><ele>949.2</ele><time>2026-05-02T13:41:03.996Z</time></trkpt><trkpt lat="42.100472949478984" lon="13.432106337480661"><ele>948.4</ele><time>2026-05-02T13:41:05.996Z</time></trkpt><trkpt lat="42.100542458404206" lon="13.432018125959997"><ele>947.5999999999999</ele><time>2026-05-02T13:41:07.996Z</time></trkpt><trkpt lat="42.10058351808406" lon="13.431934514498206"><ele>946.8</ele><time>2026-05-02T13:41:37.996Z</time></trkpt><trkpt lat="42.100559583263404" lon="13.432063416442732"><ele>946.0</ele><time>2026-05-02T13:41:48.996Z</time></trkpt><trkpt lat="42.10047278759969" lon="13.432132757284394"><ele>945.9999999999999</ele><time>2026-05-02T13:41:50.996Z</time></trkpt><trkpt lat="42.10040813011253" lon="13.432082793058447"><ele>946.0</ele><time>2026-05-02T13:41:51.996Z</time></trkpt><trkpt lat="42.10035302739954" lon="13.432032524793755"><ele>946.0</ele><time>2026-05-02T13:43:52.999Z</time></trkpt><trkpt lat="42.10028361953998" lon="13.431983821562117"><ele>946.0</ele><time>2026-05-02T13:43:57.999Z</time></trkpt><trkpt lat="42.10022742540909" lon="13.43190549047515"><ele>945.9999999999999</ele><time>2026-05-02T13:44:00.999Z</time></trkpt><trkpt lat="42.100157819409525" lon="13.431923324210459"><ele>946.0</ele><time>2026-05-02T13:44:05.999Z</time></trkpt><trkpt lat="42.100085048527745" lon="13.431984779536242"><ele>945.9999999999999</ele><time>2026-05-02T13:44:08.999Z</time></trkpt><trkpt lat="42.10000725184429" lon="13.432022108094072"><ele>946.0</ele><time>2026-05-02T13:44:10.999Z</time></trkpt><trkpt lat="42.099915444319" lon="13.432070057826692"><ele>946.0</ele><time>2026-05-02T13:44:12.999Z</time></trkpt><trkpt lat="42.09985604512709" lon="13.43209837206498"><ele>946.0</ele><time>2026-05-02T13:44:13.999Z</time></trkpt><trkpt lat="42.09979116984492" lon="13.432134401894428"><ele>945.9999999999999</ele><time>2026-05-02T13:44:14.999Z</time></trkpt><trkpt lat="42.09971817568127" lon="13.432146240339168"><ele>946.0</ele><time>2026-05-02T13:44:15.999Z</time></trkpt><trkpt lat="42.09965096801208" lon="13.432165752802657"><ele>946.3333333333333</ele><time>2026-05-02T13:44:16.999Z</time></trkpt><trkpt lat="42.099527043132305" lon="13.432166421672576"><ele>946.6666666666666</ele><time>2026-05-02T13:44:18.999Z</time></trkpt><trkpt lat="42.099465838829595" lon="13.432129446242842"><ele>947.0</ele><time>2026-05-02T13:44:19.999Z</time></trkpt><trkpt lat="42.09939872518058" lon="13.432081299594158"><ele>947.3333333333333</ele><time>2026-05-02T13:44:20.999Z</time></trkpt><trkpt lat="42.09932201392368" lon="13.432037682701928"><ele>947.6666666666666</ele><time>2026-05-02T13:44:21.999Z</time></trkpt><trkpt lat="42.09924601695404" lon="13.431999643471643"><ele>948.0</ele><time>2026-05-02T13:44:22.999Z</time></trkpt><trkpt lat="42.09917229716127" lon="13.431960808130194"><ele>947.4</ele><time>2026-05-02T13:44:23.999Z</time></trkpt><trkpt lat="42.09910673376351" lon="13.431895993575155"><ele>946.8</ele><time>2026-05-02T13:44:24.999Z</time></trkpt><trkpt lat="42.09903441392757" lon="13.43182398212197"><ele>946.2</ele><time>2026-05-02T13:44:25.999Z</time></trkpt><trkpt lat="42.098956823653715" lon="13.43173727622432"><ele>945.6</ele><time>2026-05-02T13:44:26.999Z</time></trkpt><trkpt lat="42.09888232837998" lon="13.431649184441513"><ele>945.0</ele><time>2026-05-02T13:44:27.999Z</time></trkpt><trkpt lat="42.098816473607975" lon="13.43155978312899"><ele>945.0</ele><time>2026-05-02T13:44:28.999Z</time></trkpt><trkpt lat="42.09875346352788" lon="13.431477977345137"><ele>945.0</ele><time>2026-05-02T13:44:29.999Z</time></trkpt><trkpt lat="42.09869790926786" lon="13.431397033977468"><ele>945.0</ele><time>2026-05-02T13:44:30.999Z</time></trkpt><trkpt lat="42.09863454629809" lon="13.431328688395919"><ele>945.0</ele><time>2026-05-02T13:44:31.999Z</time></trkpt><trkpt lat="42.09856745777996" lon="13.431261149501974"><ele>945.0</ele><time>2026-05-02T13:44:32.999Z</time></trkpt><trkpt lat="42.09850460354519" lon="13.431191910424866"><ele>945.0</ele><time>2026-05-02T13:44:33.999Z</time></trkpt><trkpt lat="42.09844622753266" lon="13.431127077269448"><ele>946.1666666666666</ele><time>2026-05-02T13:44:34.999Z</time></trkpt><trkpt lat="42.09839182658366" lon="13.431062162975753"><ele>947.3333333333333</ele><time>2026-05-02T13:44:35.999Z</time></trkpt><trkpt lat="42.09834234019162" lon="13.43098960219764"><ele>948.5</ele><time>2026-05-02T13:44:36.999Z</time></trkpt><trkpt lat="42.09829232428443" lon="13.430913700974095"><ele>949.6666666666666</ele><time>2026-05-02T13:44:37.999Z</time></trkpt><trkpt lat="42.09825042380762" lon="13.430825588406146"><ele>950.8333333333333</ele><time>2026-05-02T13:44:38.999Z</time></trkpt><trkpt lat="42.09819856205552" lon="13.43073922486385"><ele>952.0</ele><time>2026-05-02T13:44:39.999Z</time></trkpt><trkpt lat="42.09813417854325" lon="13.430659508636415"><ele>951.9999999999999</ele><time>2026-05-02T13:44:40.999Z</time></trkpt><trkpt lat="42.09807502212734" lon="13.430581236011593"><ele>952.0</ele><time>2026-05-02T13:44:41.999Z</time></trkpt><trkpt lat="42.09802312215049" lon="13.430485721392378"><ele>952.0</ele><time>2026-05-02T13:44:42.999Z</time></trkpt><trkpt lat="42.09796880825251" lon="13.43038163379217"><ele>952.0</ele><time>2026-05-02T13:44:43.999Z</time></trkpt><trkpt lat="42.09791819762738" lon="13.430278768114608"><ele>951.9999999999999</ele><time>2026-05-02T13:44:44.999Z</time></trkpt><trkpt lat="42.09787136204105" lon="13.43017825747465"><ele>952.0</ele><time>2026-05-02T13:44:45.999Z</time></trkpt><trkpt lat="42.09782581540647" lon="13.430070454847755"><ele>949.6</ele><time>2026-05-02T13:44:46.999Z</time></trkpt><trkpt lat="42.09778171139641" lon="13.429949148478896"><ele>947.2</ele><time>2026-05-02T13:44:47.999Z</time></trkpt><trkpt lat="42.09773664824703" lon="13.429826403015252"><ele>944.8</ele><time>2026-05-02T13:44:48.999Z</time></trkpt><trkpt lat="42.097695357004596" lon="13.429709891391095"><ele>942.4</ele><time>2026-05-02T13:44:49.999Z</time></trkpt><trkpt lat="42.09765225037828" lon="13.429593622930227"><ele>940.0</ele><time>2026-05-02T13:44:50.999Z</time></trkpt><trkpt lat="42.09762144218355" lon="13.429468746408459"><ele>938.6</ele><time>2026-05-02T13:44:51.999Z</time></trkpt><trkpt lat="42.097591965498445" lon="13.429340240775577"><ele>937.2</ele><time>2026-05-02T13:44:52.999Z</time></trkpt><trkpt lat="42.09756228869226" lon="13.429206980280853"><ele>935.8</ele><time>2026-05-02T13:44:53.999Z</time></trkpt><trkpt lat="42.09753389967896" lon="13.42907121588367"><ele>934.4</ele><time>2026-05-02T13:44:54.999Z</time></trkpt><trkpt lat="42.09750275397137" lon="13.428936367931692"><ele>933.0</ele><time>2026-05-02T13:44:55.999Z</time></trkpt><trkpt lat="42.09747029103956" lon="13.428803866820802"><ele>933.0</ele><time>2026-05-02T13:44:56.999Z</time></trkpt><trkpt lat="42.097434740710575" lon="13.428675543991705"><ele>933.0</ele><time>2026-05-02T13:44:57.999Z</time></trkpt><trkpt lat="42.0973957327289" lon="13.428553697106798"><ele>933.0</ele><time>2026-05-02T13:44:58.999Z</time></trkpt><trkpt lat="42.09736022389351" lon="13.428438149006142"><ele>933.0</ele><time>2026-05-02T13:44:59.999Z</time></trkpt><trkpt lat="42.097330635481946" lon="13.42833337541046"><ele>933.0</ele><time>2026-05-02T13:45:00.999Z</time></trkpt><trkpt lat="42.09730482681754" lon="13.428244172585293"><ele>933.0</ele><time>2026-05-02T13:45:01.999Z</time></trkpt><trkpt lat="42.09725742737109" lon="13.42810695661744"><ele>933.2</ele><time>2026-05-02T13:45:03.999Z</time></trkpt><trkpt lat="42.09722337516425" lon="13.42798352854313"><ele>933.4</ele><time>2026-05-02T13:45:05.999Z</time></trkpt><trkpt lat="42.09720454161908" lon="13.427827905379402"><ele>933.6000000000001</ele><time>2026-05-02T13:45:07.999Z</time></trkpt><trkpt lat="42.09717987935261" lon="13.427674603056609"><ele>933.8000000000001</ele><time>2026-05-02T13:45:09.999Z</time></trkpt><trkpt lat="42.097165519034576" lon="13.427589760926285"><ele>934.0</ele><time>2026-05-02T13:45:10.999Z</time></trkpt><trkpt lat="42.097156084266345" lon="13.427495984756298"><ele>933.9999999999999</ele><time>2026-05-02T13:45:11.999Z</time></trkpt><trkpt lat="42.09714159325537" lon="13.427392870935599"><ele>934.0</ele><time>2026-05-02T13:45:12.999Z</time></trkpt><trkpt lat="42.09711618053099" lon="13.427282428146599"><ele>934.0</ele><time>2026-05-02T13:45:13.999Z</time></trkpt><trkpt lat="42.09708978954342" lon="13.427162392638909"><ele>934.0</ele><time>2026-05-02T13:45:14.999Z</time></trkpt><trkpt lat="42.09705874920149" lon="13.427046059561027"><ele>933.9999999999999</ele><time>2026-05-02T13:45:15.999Z</time></trkpt><trkpt lat="42.09703327445807" lon="13.426941850470753"><ele>934.0</ele><time>2026-05-02T13:45:16.999Z</time></trkpt><trkpt lat="42.09701939058563" lon="13.426846373857211"><ele>932.9999999999999</ele><time>2026-05-02T13:45:17.999Z</time></trkpt><trkpt lat="42.09701345647334" lon="13.42674304357918"><ele>932.0</ele><time>2026-05-02T13:45:18.999Z</time></trkpt><trkpt lat="42.09699307289873" lon="13.426643545892668"><ele>930.9999999999999</ele><time>2026-05-02T13:45:19.999Z</time></trkpt><trkpt lat="42.096989678126604" lon="13.42654232396267"><ele>929.9999999999999</ele><time>2026-05-02T13:45:20.999Z</time></trkpt><trkpt lat="42.096979215390235" lon="13.426447808014071"><ele>929.0</ele><time>2026-05-02T13:45:21.999Z</time></trkpt><trkpt lat="42.09696366969708" lon="13.426359930154112"><ele>927.9999999999999</ele><time>2026-05-02T13:45:22.999Z</time></trkpt><trkpt lat="42.09694141529682" lon="13.426264051686733"><ele>926.9999999999999</ele><time>2026-05-02T13:45:23.999Z</time></trkpt><trkpt lat="42.09691744918833" lon="13.42616576056431"><ele>926.3333333333334</ele><time>2026-05-02T13:45:24.999Z</time></trkpt><trkpt lat="42.096894868905075" lon="13.42606781115402"><ele>925.6666666666667</ele><time>2026-05-02T13:45:25.999Z</time></trkpt><trkpt lat="42.09686990883402" lon="13.425970986046535"><ele>925.0</ele><time>2026-05-02T13:45:26.999Z</time></trkpt><trkpt lat="42.096849430172234" lon="13.42587251941909"><ele>924.3333333333334</ele><time>2026-05-02T13:45:27.999Z</time></trkpt><trkpt lat="42.0968269453804" lon="13.425778027728947"><ele>923.6666666666667</ele><time>2026-05-02T13:45:28.999Z</time></trkpt><trkpt lat="42.09679198916477" lon="13.425687920583549"><ele>923.0</ele><time>2026-05-02T13:45:29.999Z</time></trkpt><trkpt lat="42.09676907399498" lon="13.42557690270092"><ele>922.2</ele><time>2026-05-02T13:45:30.999Z</time></trkpt><trkpt lat="42.0967328713194" lon="13.425461394133903"><ele>921.4</ele><time>2026-05-02T13:45:31.999Z</time></trkpt><trkpt lat="42.096690795705555" lon="13.425334771734004"><ele>920.6000000000001</ele><time>2026-05-02T13:45:32.999Z</time></trkpt><trkpt lat="42.09664894202403" lon="13.425210999377288"><ele>919.8000000000001</ele><time>2026-05-02T13:45:33.999Z</time></trkpt><trkpt lat="42.09661490582798" lon="13.425094146980134"><ele>919.0</ele><time>2026-05-02T13:45:34.999Z</time></trkpt><trkpt lat="42.096572722000985" lon="13.42497553132125"><ele>919.3333333333333</ele><time>2026-05-02T13:45:35.999Z</time></trkpt><trkpt lat="42.09653373001498" lon="13.424847467740953"><ele>919.6666666666666</ele><time>2026-05-02T13:45:36.999Z</time></trkpt><trkpt lat="42.09649366657367" lon="13.424735899189324"><ele>920.0</ele><time>2026-05-02T13:45:37.999Z</time></trkpt><trkpt lat="42.09644244565635" lon="13.424659946867493"><ele>920.3333333333333</ele><time>2026-05-02T13:45:38.999Z</time></trkpt><trkpt lat="42.09639968666212" lon="13.424587589660781"><ele>920.6666666666666</ele><time>2026-05-02T13:45:39.999Z</time></trkpt><trkpt lat="42.09636129565283" lon="13.424508944119822"><ele>921.0</ele><time>2026-05-02T13:45:40.999Z</time></trkpt><trkpt lat="42.09631312895311" lon="13.424421726161691"><ele>921.0</ele><time>2026-05-02T13:45:41.999Z</time></trkpt><trkpt lat="42.09625783749708" lon="13.42432113147644"><ele>920.9999999999999</ele><time>2026-05-02T13:45:42.999Z</time></trkpt><trkpt lat="42.09619893054916" lon="13.424214690274045"><ele>920.9999999999999</ele><time>2026-05-02T13:45:43.999Z</time></trkpt><trkpt lat="42.0961430351702" lon="13.424103992580728"><ele>921.0</ele><time>2026-05-02T13:45:44.999Z</time></trkpt><trkpt lat="42.09612066798663" lon="13.423952697140308"><ele>921.0</ele><time>2026-05-02T13:45:45.999Z</time></trkpt><trkpt lat="42.096069498764884" lon="13.423840593532097"><ele>919.4</ele><time>2026-05-02T13:45:46.999Z</time></trkpt><trkpt lat="42.09602310260411" lon="13.423735409161745"><ele>917.8</ele><time>2026-05-02T13:45:47.999Z</time></trkpt><trkpt lat="42.09598568250148" lon="13.423621993058147"><ele>916.1999999999999</ele><time>2026-05-02T13:45:48.999Z</time></trkpt><trkpt lat="42.095941562978716" lon="13.423512106664996"><ele>914.5999999999999</ele><time>2026-05-02T13:45:49.999Z</time></trkpt><trkpt lat="42.095902963853995" lon="13.423395946223831"><ele>913.0</ele><time>2026-05-02T13:45:50.999Z</time></trkpt><trkpt lat="42.09586428827414" lon="13.423270697344435"><ele>912.9999999999999</ele><time>2026-05-02T13:45:51.999Z</time></trkpt><trkpt lat="42.095829289250624" lon="13.42314767467887"><ele>913.0</ele><time>2026-05-02T13:45:52.999Z</time></trkpt><trkpt lat="42.09579288882043" lon="13.423030290886594"><ele>913.0</ele><time>2026-05-02T13:45:53.999Z</time></trkpt><trkpt lat="42.095762766923826" lon="13.422924842107765"><ele>913.0</ele><time>2026-05-02T13:45:54.999Z</time></trkpt><trkpt lat="42.095743953030066" lon="13.422820400130277"><ele>912.9999999999999</ele><time>2026-05-02T13:45:55.999Z</time></trkpt><trkpt lat="42.09572690310403" lon="13.42270615650653"><ele>913.0</ele><time>2026-05-02T13:45:56.999Z</time></trkpt><trkpt lat="42.09571708906306" lon="13.422570969834936"><ele>915.25</ele><time>2026-05-02T13:45:57.999Z</time></trkpt><trkpt lat="42.09570753091581" lon="13.4224173721356"><ele>917.5</ele><time>2026-05-02T13:45:58.999Z</time></trkpt><trkpt lat="42.095692570283" lon="13.422256314699194"><ele>919.75</ele><time>2026-05-02T13:45:59.999Z</time></trkpt><trkpt lat="42.09567516482934" lon="13.422102143076632"><ele>922.0</ele><time>2026-05-02T13:46:00.999Z</time></trkpt><trkpt lat="42.095663821934984" lon="13.421947536157615"><ele>922.0</ele><time>2026-05-02T13:46:01.999Z</time></trkpt><trkpt lat="42.09566489568096" lon="13.42178915239236"><ele>922.0</ele><time>2026-05-02T13:46:02.999Z</time></trkpt><trkpt lat="42.09565626483813" lon="13.421628290515907"><ele>922.0</ele><time>2026-05-02T13:46:03.999Z</time></trkpt><trkpt lat="42.09565253232985" lon="13.421463277460514"><ele>922.0</ele><time>2026-05-02T13:46:04.999Z</time></trkpt><trkpt lat="42.095639384803434" lon="13.421304548487868"><ele>920.0</ele><time>2026-05-02T13:46:05.999Z</time></trkpt><trkpt lat="42.095631595541896" lon="13.421150685775986"><ele>918.0</ele><time>2026-05-02T13:46:06.999Z</time></trkpt><trkpt lat="42.09562636551784" lon="13.42099802813375"><ele>916.0</ele><time>2026-05-02T13:46:07.999Z</time></trkpt><trkpt lat="42.09562237506827" lon="13.420842722716651"><ele>914.0</ele><time>2026-05-02T13:46:08.999Z</time></trkpt><trkpt lat="42.09562349767326" lon="13.420690827194843"><ele>914.0</ele><time>2026-05-02T13:46:09.999Z</time></trkpt><trkpt lat="42.0956184214904" lon="13.420549595449856"><ele>914.0000000000001</ele><time>2026-05-02T13:46:10.999Z</time></trkpt><trkpt lat="42.09560392345072" lon="13.420410278945717"><ele>914.0000000000001</ele><time>2026-05-02T13:46:11.999Z</time></trkpt><trkpt lat="42.09558039014162" lon="13.420282473260597"><ele>914.0</ele><time>2026-05-02T13:46:12.998Z</time></trkpt><trkpt lat="42.095569988338156" lon="13.420175439610329"><ele>914.0</ele><time>2026-05-02T13:46:13.998Z</time></trkpt><trkpt lat="42.09555950180386" lon="13.420082507912346"><ele>913.8333333333334</ele><time>2026-05-02T13:46:14.998Z</time></trkpt><trkpt lat="42.09554792620043" lon="13.419985703961967"><ele>913.6666666666667</ele><time>2026-05-02T13:46:15.998Z</time></trkpt><trkpt lat="42.09554340612607" lon="13.419880927564313"><ele>913.5</ele><time>2026-05-02T13:46:16.997Z</time></trkpt><trkpt lat="42.09554365915887" lon="13.419780250529051"><ele>913.3333333333333</ele><time>2026-05-02T13:46:17.997Z</time></trkpt><trkpt lat="42.095536999623995" lon="13.419680338082658"><ele>913.1666666666666</ele><time>2026-05-02T13:46:18.997Z</time></trkpt><trkpt lat="42.09553746176277" lon="13.41957587277861"><ele>913.0</ele><time>2026-05-02T13:46:19.997Z</time></trkpt><trkpt lat="42.09554439112586" lon="13.419466860953866"><ele>912.3333333333333</ele><time>2026-05-02T13:46:20.997Z</time></trkpt><trkpt lat="42.09554520970421" lon="13.419352625992577"><ele>911.6666666666666</ele><time>2026-05-02T13:46:21.997Z</time></trkpt><trkpt lat="42.09554572721159" lon="13.419232371006919"><ele>911.0</ele><time>2026-05-02T13:46:22.997Z</time></trkpt><trkpt lat="42.095539676105076" lon="13.419115501597235"><ele>910.3333333333333</ele><time>2026-05-02T13:46:23.997Z</time></trkpt><trkpt lat="42.09553553726265" lon="13.419001125126634"><ele>909.6666666666666</ele><time>2026-05-02T13:46:24.997Z</time></trkpt><trkpt lat="42.09553585812879" lon="13.418894410133408"><ele>909.0</ele><time>2026-05-02T13:46:25.997Z</time></trkpt><trkpt lat="42.09553784840415" lon="13.418793701488047"><ele>908.1666666666666</ele><time>2026-05-02T13:46:26.997Z</time></trkpt><trkpt lat="42.095535895757614" lon="13.418708626195846"><ele>907.3333333333333</ele><time>2026-05-02T13:46:27.997Z</time></trkpt><trkpt lat="42.09552396775525" lon="13.418549684410172"><ele>906.5</ele><time>2026-05-02T13:46:29.997Z</time></trkpt><trkpt lat="42.09550784932874" lon="13.418460663916791"><ele>905.6666666666666</ele><time>2026-05-02T13:46:30.997Z</time></trkpt><trkpt lat="42.09550350517638" lon="13.418367151326299"><ele>904.8333333333333</ele><time>2026-05-02T13:46:31.997Z</time></trkpt><trkpt lat="42.09550161805997" lon="13.418266732764634"><ele>904.0</ele><time>2026-05-02T13:46:32.997Z</time></trkpt><trkpt lat="42.095508311041144" lon="13.418163404707842"><ele>903.9999999999999</ele><time>2026-05-02T13:46:33.997Z</time></trkpt><trkpt lat="42.09550934746731" lon="13.418062152239488"><ele>904.0</ele><time>2026-05-02T13:46:34.997Z</time></trkpt><trkpt lat="42.09550564353434" lon="13.417963088836165"><ele>904.0</ele><time>2026-05-02T13:46:35.997Z</time></trkpt><trkpt lat="42.09550376410573" lon="13.417867785111653"><ele>904.0</ele><time>2026-05-02T13:46:36.997Z</time></trkpt><trkpt lat="42.09547104418491" lon="13.417768435008593"><ele>903.9999999999999</ele><time>2026-05-02T13:46:37.997Z</time></trkpt><trkpt lat="42.09544213951317" lon="13.4176468030787"><ele>904.0</ele><time>2026-05-02T13:46:38.997Z</time></trkpt><trkpt lat="42.0954087057592" lon="13.417509275678633"><ele>903.0</ele><time>2026-05-02T13:46:39.997Z</time></trkpt><trkpt lat="42.095375124704745" lon="13.41736406610389"><ele>902.0000000000001</ele><time>2026-05-02T13:46:40.997Z</time></trkpt><trkpt lat="42.09534557893453" lon="13.41722099873679"><ele>901.0000000000001</ele><time>2026-05-02T13:46:41.997Z</time></trkpt><trkpt lat="42.095324546688666" lon="13.417088147239431"><ele>900.0</ele><time>2026-05-02T13:46:42.997Z</time></trkpt><trkpt lat="42.09531449689438" lon="13.416970754061916"><ele>899.0</ele><time>2026-05-02T13:46:43.997Z</time></trkpt><trkpt lat="42.09529927770411" lon="13.41686711054824"><ele>898.142857142857</ele><time>2026-05-02T13:46:44.997Z</time></trkpt><trkpt lat="42.095286820532515" lon="13.416780138167404"><ele>897.2857142857142</ele><time>2026-05-02T13:46:45.997Z</time></trkpt><trkpt lat="42.09524998979008" lon="13.416660729393334"><ele>896.4285714285713</ele><time>2026-05-02T13:46:47.997Z</time></trkpt><trkpt lat="42.09522546312359" lon="13.416576419451605"><ele>895.5714285714284</ele><time>2026-05-02T13:46:49.997Z</time></trkpt><trkpt lat="42.095288305862624" lon="13.416532816097067"><ele>894.7142857142858</ele><time>2026-05-02T13:46:51.997Z</time></trkpt><trkpt lat="42.09534971935413" lon="13.41650823361314"><ele>893.8571428571429</ele><time>2026-05-02T13:46:52.997Z</time></trkpt><trkpt lat="42.09540750614445" lon="13.416473438233654"><ele>893.0</ele><time>2026-05-02T13:46:53.997Z</time></trkpt><trkpt lat="42.09549437858407" lon="13.416343391612022"><ele>892.1666666666667</ele><time>2026-05-02T13:46:55.997Z</time></trkpt><trkpt lat="42.095543321324584" lon="13.416269563597405"><ele>891.3333333333334</ele><time>2026-05-02T13:46:56.997Z</time></trkpt><trkpt lat="42.09559073376854" lon="13.41618523010975"><ele>890.5</ele><time>2026-05-02T13:46:57.997Z</time></trkpt><trkpt lat="42.09564172829497" lon="13.41610288998424"><ele>889.6666666666667</ele><time>2026-05-02T13:46:58.997Z</time></trkpt><trkpt lat="42.09565831009793" lon="13.415997706772403"><ele>888.8333333333334</ele><time>2026-05-02T13:46:59.997Z</time></trkpt><trkpt lat="42.09566609927056" lon="13.415874549923165"><ele>888.0</ele><time>2026-05-02T13:47:00.997Z</time></trkpt><trkpt lat="42.095673626036934" lon="13.415758102113749"><ele>888.0</ele><time>2026-05-02T13:47:01.997Z</time></trkpt><trkpt lat="42.09568380372946" lon="13.415662151689203"><ele>888.0</ele><time>2026-05-02T13:47:02.997Z</time></trkpt><trkpt lat="42.09570544145816" lon="13.415567290986267"><ele>888.0</ele><time>2026-05-02T13:47:03.997Z</time></trkpt><trkpt lat="42.09574414941524" lon="13.415474578130592"><ele>888.0</ele><time>2026-05-02T13:47:04.997Z</time></trkpt><trkpt lat="42.09580809611786" lon="13.415379737236972"><ele>888.0</ele><time>2026-05-02T13:47:05.997Z</time></trkpt><trkpt lat="42.09587617685415" lon="13.41527802658975"><ele>888.0</ele><time>2026-05-02T13:47:06.997Z</time></trkpt><trkpt lat="42.09593430752389" lon="13.41518143158882"><ele>889.1666666666666</ele><time>2026-05-02T13:47:07.997Z</time></trkpt><trkpt lat="42.09599581524286" lon="13.415096364888552"><ele>890.3333333333333</ele><time>2026-05-02T13:47:08.997Z</time></trkpt><trkpt lat="42.09606225581022" lon="13.415017698718422"><ele>891.5</ele><time>2026-05-02T13:47:09.997Z</time></trkpt><trkpt lat="42.09613416905027" lon="13.414950489521933"><ele>892.6666666666666</ele><time>2026-05-02T13:47:10.997Z</time></trkpt><trkpt lat="42.09620865566814" lon="13.414883059898218"><ele>893.8333333333333</ele><time>2026-05-02T13:47:11.997Z</time></trkpt><trkpt lat="42.09629232642988" lon="13.414822548567471"><ele>895.0</ele><time>2026-05-02T13:47:12.997Z</time></trkpt><trkpt lat="42.09638141830702" lon="13.414747374081179"><ele>895.0</ele><time>2026-05-02T13:47:13.997Z</time></trkpt><trkpt lat="42.096480541628836" lon="13.414679916447957"><ele>895.0</ele><time>2026-05-02T13:47:14.997Z</time></trkpt><trkpt lat="42.09657926749533" lon="13.41460909028285"><ele>895.0</ele><time>2026-05-02T13:47:15.997Z</time></trkpt><trkpt lat="42.096673531161436" lon="13.414542634433026"><ele>895.0</ele><time>2026-05-02T13:47:16.997Z</time></trkpt><trkpt lat="42.09676311563811" lon="13.41448298703273"><ele>895.0</ele><time>2026-05-02T13:47:17.997Z</time></trkpt><trkpt lat="42.09685323607305" lon="13.414433577405388"><ele>895.8</ele><time>2026-05-02T13:47:18.997Z</time></trkpt><trkpt lat="42.09694919181188" lon="13.414389875658934"><ele>896.6</ele><time>2026-05-02T13:47:19.997Z</time></trkpt><trkpt lat="42.09704395690901" lon="13.414341067690653"><ele>897.4000000000001</ele><time>2026-05-02T13:47:20.997Z</time></trkpt><trkpt lat="42.09713005512514" lon="13.414293536903108"><ele>898.2</ele><time>2026-05-02T13:47:21.997Z</time></trkpt><trkpt lat="42.097204625378566" lon="13.414229567817276"><ele>899.0</ele><time>2026-05-02T13:47:22.997Z</time></trkpt><trkpt lat="42.09727677614477" lon="13.414142971566688"><ele>899.0000000000001</ele><time>2026-05-02T13:47:23.997Z</time></trkpt><trkpt lat="42.09735181908647" lon="13.41404773341564"><ele>899.0</ele><time>2026-05-02T13:47:24.997Z</time></trkpt><trkpt lat="42.0974264939367" lon="13.413967385649071"><ele>899.0</ele><time>2026-05-02T13:47:25.997Z</time></trkpt><trkpt lat="42.09750281019503" lon="13.413909843007868"><ele>899.0</ele><time>2026-05-02T13:47:26.997Z</time></trkpt><trkpt lat="42.09757743081794" lon="13.413865880161868"><ele>899.0000000000001</ele><time>2026-05-02T13:47:27.997Z</time></trkpt><trkpt lat="42.09764636834012" lon="13.41383358601389"><ele>899.0</ele><time>2026-05-02T13:47:28.997Z</time></trkpt><trkpt lat="42.09770846414188" lon="13.413808989247553"><ele>898.6</ele><time>2026-05-02T13:47:29.997Z</time></trkpt><trkpt lat="42.09782278493555" lon="13.413778783210347"><ele>898.2</ele><time>2026-05-02T13:47:31.997Z</time></trkpt><trkpt lat="42.09792910991318" lon="13.413733865392208"><ele>897.8000000000001</ele><time>2026-05-02T13:47:33.997Z</time></trkpt><trkpt lat="42.09803440960263" lon="13.413699674534916"><ele>897.4000000000001</ele><time>2026-05-02T13:47:35.997Z</time></trkpt><trkpt lat="42.098142723404" lon="13.413655010941504"><ele>897.0</ele><time>2026-05-02T13:47:37.997Z</time></trkpt><trkpt lat="42.09823594374547" lon="13.413602974310876"><ele>897.1666666666666</ele><time>2026-05-02T13:47:39.997Z</time></trkpt><trkpt lat="42.098299102039704" lon="13.413557798114615"><ele>897.3333333333333</ele><time>2026-05-02T13:47:41.997Z</time></trkpt><trkpt lat="42.098363624756644" lon="13.413496252147448"><ele>897.5</ele><time>2026-05-02T13:47:43.997Z</time></trkpt><trkpt lat="42.09845443994381" lon="13.413403975621838"><ele>897.6666666666666</ele><time>2026-05-02T13:47:45.997Z</time></trkpt><trkpt lat="42.098513166444846" lon="13.413357409172205"><ele>897.8333333333333</ele><time>2026-05-02T13:47:46.997Z</time></trkpt><trkpt lat="42.09857412312361" lon="13.413292090279175"><ele>898.0</ele><time>2026-05-02T13:47:47.997Z</time></trkpt><trkpt lat="42.098639458127394" lon="13.413231245257125"><ele>897.9999999999999</ele><time>2026-05-02T13:47:48.997Z</time></trkpt><trkpt lat="42.098705053667445" lon="13.413170180841202"><ele>898.0</ele><time>2026-05-02T13:47:49.997Z</time></trkpt><trkpt lat="42.098763023046786" lon="13.41310431454274"><ele>898.0</ele><time>2026-05-02T13:47:50.997Z</time></trkpt><trkpt lat="42.09881623715121" lon="13.413041604430761"><ele>898.0</ele><time>2026-05-02T13:47:51.997Z</time></trkpt><trkpt lat="42.0988647750013" lon="13.412972114881773"><ele>897.9999999999999</ele><time>2026-05-02T13:47:52.997Z</time></trkpt><trkpt lat="42.09891513366296" lon="13.412896647227825"><ele>898.0</ele><time>2026-05-02T13:47:53.997Z</time></trkpt><trkpt lat="42.0989691283381" lon="13.412820441957447"><ele>897.4999999999999</ele><time>2026-05-02T13:47:54.997Z</time></trkpt><trkpt lat="42.099026864368625" lon="13.412742972488491"><ele>897.0</ele><time>2026-05-02T13:47:55.997Z</time></trkpt><trkpt lat="42.09908532044633" lon="13.41265947643891"><ele>896.5</ele><time>2026-05-02T13:47:56.997Z</time></trkpt><trkpt lat="42.09914088976099" lon="13.412564081345824"><ele>896.0</ele><time>2026-05-02T13:47:57.997Z</time></trkpt><trkpt lat="42.09919216902974" lon="13.412467805522516"><ele>895.4999999999999</ele><time>2026-05-02T13:47:58.997Z</time></trkpt><trkpt lat="42.099240137281114" lon="13.41237606978326"><ele>895.0</ele><time>2026-05-02T13:47:59.997Z</time></trkpt><trkpt lat="42.0992795645436" lon="13.412277783716442"><ele>894.8333333333333</ele><time>2026-05-02T13:48:00.997Z</time></trkpt><trkpt lat="42.09932018288201" lon="13.41217366215593"><ele>894.6666666666666</ele><time>2026-05-02T13:48:01.997Z</time></trkpt><trkpt lat="42.09935903831103" lon="13.412069182214962"><ele>894.5</ele><time>2026-05-02T13:48:02.997Z</time></trkpt><trkpt lat="42.09939451233891" lon="13.411967146976744"><ele>894.3333333333333</ele><time>2026-05-02T13:48:03.997Z</time></trkpt><trkpt lat="42.09944388978037" lon="13.411876494503376"><ele>894.1666666666666</ele><time>2026-05-02T13:48:04.997Z</time></trkpt><trkpt lat="42.099498354075024" lon="13.411784210965049"><ele>894.0</ele><time>2026-05-02T13:48:05.997Z</time></trkpt><trkpt lat="42.09955394463743" lon="13.411693845205512"><ele>893.1666666666666</ele><time>2026-05-02T13:48:06.997Z</time></trkpt><trkpt lat="42.09960485949317" lon="13.41160801975565"><ele>892.3333333333333</ele><time>2026-05-02T13:48:07.997Z</time></trkpt><trkpt lat="42.09964874190386" lon="13.41153694556043"><ele>891.5</ele><time>2026-05-02T13:48:08.997Z</time></trkpt><trkpt lat="42.09974854445203" lon="13.41144542636823"><ele>890.6666666666666</ele><time>2026-05-02T13:48:10.997Z</time></trkpt><trkpt lat="42.099811838948376" lon="13.411420578985476"><ele>889.8333333333333</ele><time>2026-05-02T13:48:11.997Z</time></trkpt><trkpt lat="42.09992080036807" lon="13.411384611400594"><ele>889.0</ele><time>2026-05-02T13:48:13.997Z</time></trkpt><trkpt lat="42.10000958528259" lon="13.411283823327588"><ele>888.2</ele><time>2026-05-02T13:48:15.997Z</time></trkpt><trkpt lat="42.10005895256551" lon="13.411204880782943"><ele>887.4000000000001</ele><time>2026-05-02T13:48:16.997Z</time></trkpt><trkpt lat="42.10011682608028" lon="13.4111172594958"><ele>886.6</ele><time>2026-05-02T13:48:17.997Z</time></trkpt><trkpt lat="42.10017263272569" lon="13.411019343421353"><ele>885.8</ele><time>2026-05-02T13:48:18.997Z</time></trkpt><trkpt lat="42.10022866202588" lon="13.410914371890462"><ele>885.0</ele><time>2026-05-02T13:48:19.997Z</time></trkpt><trkpt lat="42.10028828072713" lon="13.410801084502134"><ele>885.0</ele><time>2026-05-02T13:48:20.997Z</time></trkpt><trkpt lat="42.100356248140805" lon="13.410688975388881"><ele>885.0</ele><time>2026-05-02T13:48:21.997Z</time></trkpt><trkpt lat="42.10042525048712" lon="13.41057395029833"><ele>885.0</ele><time>2026-05-02T13:48:22.997Z</time></trkpt><trkpt lat="42.10049160947098" lon="13.410466807214508"><ele>885.0</ele><time>2026-05-02T13:48:23.997Z</time></trkpt><trkpt lat="42.100552346564285" lon="13.41036538509265"><ele>885.0</ele><time>2026-05-02T13:48:24.997Z</time></trkpt><trkpt lat="42.10060873623272" lon="13.410252043059641"><ele>884.2</ele><time>2026-05-02T13:48:25.997Z</time></trkpt><trkpt lat="42.10066354375641" lon="13.410128749434865"><ele>883.4</ele><time>2026-05-02T13:48:26.997Z</time></trkpt><trkpt lat="42.100713315667115" lon="13.409993891970712"><ele>882.5999999999999</ele><time>2026-05-02T13:48:27.997Z</time></trkpt><trkpt lat="42.10075954211641" lon="13.409858759608559"><ele>881.8</ele><time>2026-05-02T13:48:28.997Z</time></trkpt><trkpt lat="42.10080787304972" lon="13.409731945226516"><ele>881.0</ele><time>2026-05-02T13:48:29.997Z</time></trkpt><trkpt lat="42.10085420814392" lon="13.409607620870581"><ele>879.8</ele><time>2026-05-02T13:48:30.997Z</time></trkpt><trkpt lat="42.10089349450438" lon="13.409468066241885"><ele>878.5999999999999</ele><time>2026-05-02T13:48:31.997Z</time></trkpt><trkpt lat="42.10094181557645" lon="13.40932801053306"><ele>877.4</ele><time>2026-05-02T13:48:32.997Z</time></trkpt><trkpt lat="42.100986669207664" lon="13.409189928011061"><ele>876.2</ele><time>2026-05-02T13:48:33.997Z</time></trkpt><trkpt lat="42.10103101200334" lon="13.409058424881772"><ele>875.0</ele><time>2026-05-02T13:48:34.997Z</time></trkpt><trkpt lat="42.10107834560977" lon="13.408933553034672"><ele>874.0</ele><time>2026-05-02T13:48:35.997Z</time></trkpt><trkpt lat="42.101128006693415" lon="13.408816509868652"><ele>873.0</ele><time>2026-05-02T13:48:36.997Z</time></trkpt><trkpt lat="42.10117570534527" lon="13.408703152448762"><ele>872.0</ele><time>2026-05-02T13:48:37.997Z</time></trkpt><trkpt lat="42.10122019255353" lon="13.408587776943763"><ele>871.0</ele><time>2026-05-02T13:48:38.997Z</time></trkpt><trkpt lat="42.10125946263693" lon="13.408469934841877"><ele>870.0</ele><time>2026-05-02T13:48:39.996Z</time></trkpt><trkpt lat="42.10129952011089" lon="13.408349989012196"><ele>870.0</ele><time>2026-05-02T13:48:40.996Z</time></trkpt><trkpt lat="42.10133087482738" lon="13.40823525913062"><ele>870.0</ele><time>2026-05-02T13:48:41.996Z</time></trkpt><trkpt lat="42.101367329890955" lon="13.40812927068343"><ele>870.0</ele><time>2026-05-02T13:48:42.996Z</time></trkpt><trkpt lat="42.10139558622831" lon="13.40801929491014"><ele>870.0</ele><time>2026-05-02T13:48:43.996Z</time></trkpt><trkpt lat="42.10141912077652" lon="13.40789979043656"><ele>870.0</ele><time>2026-05-02T13:48:44.996Z</time></trkpt><trkpt lat="42.10145285278453" lon="13.407781225132547"><ele>869.6</ele><time>2026-05-02T13:48:45.996Z</time></trkpt><trkpt lat="42.10149473922558" lon="13.407663332556"><ele>869.2</ele><time>2026-05-02T13:48:46.996Z</time></trkpt><trkpt lat="42.10154168831622" lon="13.407553834533664"><ele>868.8</ele><time>2026-05-02T13:48:47.996Z</time></trkpt><trkpt lat="42.10158485824004" lon="13.407445782749242"><ele>868.4</ele><time>2026-05-02T13:48:48.996Z</time></trkpt><trkpt lat="42.10162765762132" lon="13.407340424444014"><ele>868.0</ele><time>2026-05-02T13:48:49.996Z</time></trkpt><trkpt lat="42.1016691839147" lon="13.407230959441067"><ele>866.6666666666666</ele><time>2026-05-02T13:48:50.996Z</time></trkpt><trkpt lat="42.10171877228765" lon="13.40712427152952"><ele>865.3333333333333</ele><time>2026-05-02T13:48:51.996Z</time></trkpt><trkpt lat="42.101764969086396" lon="13.407021822439257"><ele>864.0</ele><time>2026-05-02T13:48:52.996Z</time></trkpt><trkpt lat="42.1017971414214" lon="13.406919846367261"><ele>862.6666666666667</ele><time>2026-05-02T13:48:53.996Z</time></trkpt><trkpt lat="42.10182941164857" lon="13.406825706689819"><ele>861.3333333333334</ele><time>2026-05-02T13:48:54.996Z</time></trkpt><trkpt lat="42.10186548351633" lon="13.406741200366044"><ele>860.0</ele><time>2026-05-02T13:48:55.996Z</time></trkpt><trkpt lat="42.10191220565909" lon="13.40667278770967"><ele>860.0000000000001</ele><time>2026-05-02T13:48:56.996Z</time></trkpt><trkpt lat="42.1019732932276" lon="13.40660570583147"><ele>860.0</ele><time>2026-05-02T13:48:57.996Z</time></trkpt><trkpt lat="42.102052922412284" lon="13.406540199205113"><ele>860.0</ele><time>2026-05-02T13:48:58.996Z</time></trkpt><trkpt lat="42.10212502408821" lon="13.406459004681503"><ele>860.0</ele><time>2026-05-02T13:48:59.996Z</time></trkpt><trkpt lat="42.10219506780948" lon="13.406387258370664"><ele>860.0000000000001</ele><time>2026-05-02T13:49:00.996Z</time></trkpt><trkpt lat="42.10225559066782" lon="13.40631146362689"><ele>860.0</ele><time>2026-05-02T13:49:01.996Z</time></trkpt><trkpt lat="42.10231982428938" lon="13.406240708689284"><ele>859.1666666666667</ele><time>2026-05-02T13:49:02.996Z</time></trkpt><trkpt lat="42.10237706109956" lon="13.406146693294373"><ele>858.3333333333334</ele><time>2026-05-02T13:49:03.996Z</time></trkpt><trkpt lat="42.10243714637498" lon="13.406051226176062"><ele>857.5</ele><time>2026-05-02T13:49:04.996Z</time></trkpt><trkpt lat="42.10249451470843" lon="13.405965406267677"><ele>856.6666666666667</ele><time>2026-05-02T13:49:05.996Z</time></trkpt><trkpt lat="42.10253895534254" lon="13.405872841605252"><ele>855.8333333333334</ele><time>2026-05-02T13:49:06.996Z</time></trkpt><trkpt lat="42.10258410626184" lon="13.405774176485888"><ele>855.0</ele><time>2026-05-02T13:49:07.996Z</time></trkpt><trkpt lat="42.10261437586791" lon="13.405654324263091"><ele>854.75</ele><time>2026-05-02T13:49:08.996Z</time></trkpt><trkpt lat="42.102650579264186" lon="13.405516902682912"><ele>854.5</ele><time>2026-05-02T13:49:09.996Z</time></trkpt><trkpt lat="42.10268960148113" lon="13.405366388588316"><ele>854.25</ele><time>2026-05-02T13:49:10.996Z</time></trkpt><trkpt lat="42.102754836466595" lon="13.40522004102855"><ele>854.0</ele><time>2026-05-02T13:49:11.996Z</time></trkpt><trkpt lat="42.10281645958359" lon="13.405054416794005"><ele>853.25</ele><time>2026-05-02T13:49:12.996Z</time></trkpt><trkpt lat="42.10287457811089" lon="13.404881583117938"><ele>852.5</ele><time>2026-05-02T13:49:13.996Z</time></trkpt><trkpt lat="42.10291446616961" lon="13.404709584209073"><ele>851.75</ele><time>2026-05-02T13:49:14.996Z</time></trkpt><trkpt lat="42.10297752567131" lon="13.404559583326735"><ele>851.0</ele><time>2026-05-02T13:49:15.996Z</time></trkpt><trkpt lat="42.1030250839102" lon="13.404408545276903"><ele>850.4</ele><time>2026-05-02T13:49:16.996Z</time></trkpt><trkpt lat="42.10307119902947" lon="13.404262418905526"><ele>849.8</ele><time>2026-05-02T13:49:17.996Z</time></trkpt><trkpt lat="42.10310665277918" lon="13.404117784727"><ele>849.1999999999999</ele><time>2026-05-02T13:49:18.996Z</time></trkpt><trkpt lat="42.10315915334732" lon="13.40399220360627"><ele>848.5999999999999</ele><time>2026-05-02T13:49:19.996Z</time></trkpt><trkpt lat="42.1032107166027" lon="13.403875699917323"><ele>848.0</ele><time>2026-05-02T13:49:20.996Z</time></trkpt><trkpt lat="42.103265584628346" lon="13.40375757224262"><ele>847.0</ele><time>2026-05-02T13:49:22Z</time></trkpt><trkpt lat="42.10333204596671" lon="13.40363611393599"><ele>846.0</ele><time>2026-05-02T13:49:23Z</time></trkpt><trkpt lat="42.1034008462842" lon="13.403495749259186"><ele>845.0</ele><time>2026-05-02T13:49:24Z</time></trkpt><trkpt lat="42.103473301772986" lon="13.40334948187668"><ele>844.0</ele><time>2026-05-02T13:49:25Z</time></trkpt><trkpt lat="42.10354388946787" lon="13.403208883732683"><ele>844.0</ele><time>2026-05-02T13:49:26Z</time></trkpt><trkpt lat="42.10360747118562" lon="13.403074780765753"><ele>844.0</ele><time>2026-05-02T13:49:27Z</time></trkpt><trkpt lat="42.1036668669738" lon="13.402941348950518"><ele>844.0</ele><time>2026-05-02T13:49:28Z</time></trkpt><trkpt lat="42.103730172445836" lon="13.402811870990366"><ele>844.0</ele><time>2026-05-02T13:49:29Z</time></trkpt><trkpt lat="42.10379626844488" lon="13.4026914789043"><ele>843.8000000000001</ele><time>2026-05-02T13:49:30Z</time></trkpt><trkpt lat="42.10385091670388" lon="13.402566949016231"><ele>843.6</ele><time>2026-05-02T13:49:31Z</time></trkpt><trkpt lat="42.10392372526719" lon="13.402456831097647"><ele>843.4</ele><time>2026-05-02T13:49:32Z</time></trkpt><trkpt lat="42.10400251914654" lon="13.402347435261843"><ele>843.2</ele><time>2026-05-02T13:49:33Z</time></trkpt><trkpt lat="42.10408296324208" lon="13.402242480771212"><ele>843.0</ele><time>2026-05-02T13:49:34Z</time></trkpt><trkpt lat="42.104159711287096" lon="13.402135372648855"><ele>842.0</ele><time>2026-05-02T13:49:35Z</time></trkpt><trkpt lat="42.10423457336639" lon="13.402016247816766"><ele>841.0</ele><time>2026-05-02T13:49:36Z</time></trkpt><trkpt lat="42.104298913446854" lon="13.40188094712322"><ele>840.0</ele><time>2026-05-02T13:49:37Z</time></trkpt><trkpt lat="42.104368049877806" lon="13.401738708667231"><ele>839.0</ele><time>2026-05-02T13:49:38Z</time></trkpt><trkpt lat="42.10444567484177" lon="13.401606600212734"><ele>839.0</ele><time>2026-05-02T13:49:39Z</time></trkpt><trkpt lat="42.10452536623747" lon="13.40147592229633"><ele>839.0</ele><time>2026-05-02T13:49:40Z</time></trkpt><trkpt lat="42.10460583469466" lon="13.401354059805103"><ele>839.0</ele><time>2026-05-02T13:49:41Z</time></trkpt><trkpt lat="42.104678700352316" lon="13.401236041007936"><ele>839.0</ele><time>2026-05-02T13:49:42Z</time></trkpt><trkpt lat="42.10474319763201" lon="13.401121164644005"><ele>838.8000000000001</ele><time>2026-05-02T13:49:43Z</time></trkpt><trkpt lat="42.10480048028981" lon="13.401001213738226"><ele>838.6</ele><time>2026-05-02T13:49:44Z</time></trkpt><trkpt lat="42.10485862063683" lon="13.400880470245541"><ele>838.4</ele><time>2026-05-02T13:49:45Z</time></trkpt><trkpt lat="42.10491732344322" lon="13.40076614860773"><ele>838.2</ele><time>2026-05-02T13:49:46Z</time></trkpt><trkpt lat="42.10497118340889" lon="13.400660445432585"><ele>838.0</ele><time>2026-05-02T13:49:47Z</time></trkpt><trkpt lat="42.1050284948513" lon="13.400546131321164"><ele>837.2</ele><time>2026-05-02T13:49:48Z</time></trkpt><trkpt lat="42.105089413795696" lon="13.400429327227773"><ele>836.4</ele><time>2026-05-02T13:49:49Z</time></trkpt><trkpt lat="42.10515217430414" lon="13.400314989169505"><ele>835.6</ele><time>2026-05-02T13:49:50Z</time></trkpt><trkpt lat="42.10521531158051" lon="13.400193048236021"><ele>834.8000000000001</ele><time>2026-05-02T13:49:51Z</time></trkpt><trkpt lat="42.10528182981949" lon="13.400074426135248"><ele>834.0</ele><time>2026-05-02T13:49:52Z</time></trkpt><trkpt lat="42.10533970751887" lon="13.399962512249886"><ele>834.0</ele><time>2026-05-02T13:49:53Z</time></trkpt><trkpt lat="42.10539436178012" lon="13.399855029072274"><ele>834.0</ele><time>2026-05-02T13:49:54Z</time></trkpt><trkpt lat="42.10545194921322" lon="13.39974706793987"><ele>834.0</ele><time>2026-05-02T13:49:55Z</time></trkpt><trkpt lat="42.10550752135745" lon="13.399650720343171"><ele>834.0</ele><time>2026-05-02T13:49:56Z</time></trkpt><trkpt lat="42.1055386687945" lon="13.39955176783411"><ele>834.0</ele><time>2026-05-02T13:49:57Z</time></trkpt><trkpt lat="42.10554718255714" lon="13.39943640887337"><ele>833.8333333333334</ele><time>2026-05-02T13:49:58Z</time></trkpt><trkpt lat="42.105556029508165" lon="13.399311520886464"><ele>833.6666666666667</ele><time>2026-05-02T13:49:59Z</time></trkpt><trkpt lat="42.10555715801241" lon="13.399201789765824"><ele>833.5</ele><time>2026-05-02T13:50:00Z</time></trkpt><trkpt lat="42.10558500569357" lon="13.39903993689206"><ele>833.3333333333334</ele><time>2026-05-02T13:50:02Z</time></trkpt><trkpt lat="42.10561915043663" lon="13.398959500873524"><ele>833.1666666666667</ele><time>2026-05-02T13:50:03Z</time></trkpt><trkpt lat="42.105646768075985" lon="13.398875614010498"><ele>833.0</ele><time>2026-05-02T13:50:04Z</time></trkpt><trkpt lat="42.10569273029197" lon="13.3988037399246"><ele>833.0</ele><time>2026-05-02T13:50:05Z</time></trkpt><trkpt lat="42.105720814290024" lon="13.39868745812755"><ele>833.0</ele><time>2026-05-02T13:50:06Z</time></trkpt><trkpt lat="42.10580136374694" lon="13.398571848961527"><ele>833.0</ele><time>2026-05-02T13:50:07Z</time></trkpt><trkpt lat="42.10591939297736" lon="13.398473979803729"><ele>833.0</ele><time>2026-05-02T13:50:08Z</time></trkpt><trkpt lat="42.10605862368092" lon="13.39837097498289"><ele>833.0</ele><time>2026-05-02T13:50:09Z</time></trkpt><trkpt lat="42.10619322786786" lon="13.398276253867438"><ele>833.0</ele><time>2026-05-02T13:50:10Z</time></trkpt><trkpt lat="42.10631170874219" lon="13.398192878999653"><ele>833.0</ele><time>2026-05-02T13:50:11Z</time></trkpt><trkpt lat="42.10642333683783" lon="13.39811506248082"><ele>833.0</ele><time>2026-05-02T13:50:12Z</time></trkpt><trkpt lat="42.10652100383655" lon="13.398043005421878"><ele>834.0</ele><time>2026-05-02T13:50:13Z</time></trkpt><trkpt lat="42.10662324850612" lon="13.397938872672293"><ele>835.0</ele><time>2026-05-02T13:50:14Z</time></trkpt><trkpt lat="42.106728895076145" lon="13.397823073990262"><ele>836.0</ele><time>2026-05-02T13:50:15Z</time></trkpt><trkpt lat="42.10683365538675" lon="13.397691668484883"><ele>837.0</ele><time>2026-05-02T13:50:16Z</time></trkpt><trkpt lat="42.10690594728343" lon="13.397546058273848"><ele>837.0</ele><time>2026-05-02T13:50:17Z</time></trkpt><trkpt lat="42.10697451041867" lon="13.397425653854443"><ele>837.0</ele><time>2026-05-02T13:50:18Z</time></trkpt><trkpt lat="42.107030220490486" lon="13.397327667714599"><ele>837.0</ele><time>2026-05-02T13:50:19Z</time></trkpt><trkpt lat="42.1070570014127" lon="13.397241272694565"><ele>837.0</ele><time>2026-05-02T13:50:20Z</time></trkpt><trkpt lat="42.10708159908564" lon="13.397139328328544"><ele>837.0</ele><time>2026-05-02T13:50:22Z</time></trkpt><trkpt lat="42.10712026789794" lon="13.397043891369073"><ele>837.0</ele><time>2026-05-02T13:50:24Z</time></trkpt><trkpt lat="42.10713965784074" lon="13.396657521063888"><ele>837.5</ele><time>2026-05-02T13:50:25Z</time></trkpt><trkpt lat="42.10707570675836" lon="13.396522528612335"><ele>838.0</ele><time>2026-05-02T13:50:26Z</time></trkpt><trkpt lat="42.10700339640883" lon="13.3963698909477"><ele>838.5</ele><time>2026-05-02T13:50:27Z</time></trkpt><trkpt lat="42.10692625735826" lon="13.396204043840614"><ele>839.0</ele><time>2026-05-02T13:50:28Z</time></trkpt><trkpt lat="42.106843076955826" lon="13.396020801397343"><ele>840.3333333333334</ele><time>2026-05-02T13:50:29Z</time></trkpt><trkpt lat="42.10675861640118" lon="13.39583473874777"><ele>841.6666666666667</ele><time>2026-05-02T13:50:30Z</time></trkpt><trkpt lat="42.106668571115954" lon="13.395634821500229"><ele>843.0</ele><time>2026-05-02T13:50:30.999Z</time></trkpt><trkpt lat="42.106584454676714" lon="13.395417860508548"><ele>842.75</ele><time>2026-05-02T13:50:31.999Z</time></trkpt><trkpt lat="42.106494695890675" lon="13.395215020833124"><ele>842.5</ele><time>2026-05-02T13:50:32.999Z</time></trkpt><trkpt lat="42.10642221055122" lon="13.395055405847542"><ele>842.25</ele><time>2026-05-02T13:50:33.999Z</time></trkpt><trkpt lat="42.10635292926588" lon="13.394901554404626"><ele>842.0</ele><time>2026-05-02T13:50:34.999Z</time></trkpt><trkpt lat="42.10629581026246" lon="13.394768954965322"><ele>842.1666666666667</ele><time>2026-05-02T13:50:35.999Z</time></trkpt><trkpt lat="42.10625004092412" lon="13.394664249674692"><ele>842.3333333333334</ele><time>2026-05-02T13:50:36.999Z</time></trkpt><trkpt lat="42.106211451444786" lon="13.394557565721676"><ele>842.5</ele><time>2026-05-02T13:50:37.999Z</time></trkpt><trkpt lat="42.106165954927604" lon="13.394463903907916"><ele>842.6666666666667</ele><time>2026-05-02T13:50:38.999Z</time></trkpt><trkpt lat="42.10612290085178" lon="13.394399330278171"><ele>842.8333333333334</ele><time>2026-05-02T13:50:39.999Z</time></trkpt><trkpt lat="42.10608837982452" lon="13.394327289804417"><ele>843.0</ele><time>2026-05-02T13:50:40.999Z</time></trkpt><trkpt lat="42.106053683537915" lon="13.394199356178465"><ele>843.0</ele><time>2026-05-02T13:50:42.999Z</time></trkpt><trkpt lat="42.10596149702618" lon="13.394187761616337"><ele>843.0</ele><time>2026-05-02T13:50:43.999Z</time></trkpt><trkpt lat="42.1058424124378" lon="13.394149188459574"><ele>843.0</ele><time>2026-05-02T13:50:44.999Z</time></trkpt><trkpt lat="42.10574706612233" lon="13.394112228623941"><ele>843.0</ele><time>2026-05-02T13:50:45.999Z</time></trkpt><trkpt lat="42.105664627233175" lon="13.394064831595884"><ele>843.0</ele><time>2026-05-02T13:50:46.999Z</time></trkpt><trkpt lat="42.10559624385605" lon="13.394008796664492"><ele>841.2</ele><time>2026-05-02T13:50:47.999Z</time></trkpt><trkpt lat="42.1055397130245" lon="13.393959872520211"><ele>839.4</ele><time>2026-05-02T13:50:48.999Z</time></trkpt><trkpt lat="42.10548616508406" lon="13.39391378315483"><ele>837.6</ele><time>2026-05-02T13:50:49.999Z</time></trkpt><trkpt lat="42.105403310445396" lon="13.393863054888735"><ele>835.8000000000001</ele><time>2026-05-02T13:50:51.999Z</time></trkpt><trkpt lat="42.10541353515487" lon="13.39400069316602"><ele>834.0</ele><time>2026-05-02T13:50:52.999Z</time></trkpt><trkpt lat="42.10544971402414" lon="13.393757083852659"><ele>833.2</ele><time>2026-05-02T13:50:53.999Z</time></trkpt><trkpt lat="42.10551691615044" lon="13.393670440663826"><ele>832.4000000000001</ele><time>2026-05-02T13:50:54.999Z</time></trkpt><trkpt lat="42.10559640017923" lon="13.393567541885018"><ele>831.6</ele><time>2026-05-02T13:50:55.999Z</time></trkpt><trkpt lat="42.105675648710445" lon="13.393463671958505"><ele>830.8</ele><time>2026-05-02T13:50:56.999Z</time></trkpt><trkpt lat="42.105763412471966" lon="13.393423396224607"><ele>830.0</ele><time>2026-05-02T13:50:57.999Z</time></trkpt><trkpt lat="42.10585585958403" lon="13.39333659081351"><ele>830.0</ele><time>2026-05-02T13:50:59.999Z</time></trkpt><trkpt lat="42.105921569933976" lon="13.393288762144604"><ele>830.0</ele><time>2026-05-02T13:51:01.999Z</time></trkpt><trkpt lat="42.1058377532307" lon="13.393366989279297"><ele>830.0</ele><time>2026-05-02T13:51:11.999Z</time></trkpt><trkpt lat="42.105769603137105" lon="13.393400263648136"><ele>830.0</ele><time>2026-05-02T13:51:12.999Z</time></trkpt><trkpt lat="42.105657156761566" lon="13.393453965004781"><ele>830.0</ele><time>2026-05-02T13:51:13.999Z</time></trkpt><trkpt lat="42.105535518934545" lon="13.393564885698494"><ele>830.0</ele><time>2026-05-02T13:51:14.999Z</time></trkpt><trkpt lat="42.10543833577696" lon="13.393678791092691"><ele>830.0</ele><time>2026-05-02T13:51:15.999Z</time></trkpt><trkpt lat="42.105329019220456" lon="13.393835296567863"><ele>830.0</ele><time>2026-05-02T13:51:16.999Z</time></trkpt><trkpt lat="42.10523555409358" lon="13.393930386707725"><ele>830.0</ele><time>2026-05-02T13:51:17.999Z</time></trkpt><trkpt lat="42.10517061660879" lon="13.39407046160436"><ele>830.6666666666667</ele><time>2026-05-02T13:51:18.999Z</time></trkpt><trkpt lat="42.105138172140094" lon="13.39418348069703"><ele>831.3333333333334</ele><time>2026-05-02T13:51:19.999Z</time></trkpt><trkpt lat="42.105081213459336" lon="13.394225482920765"><ele>832.0</ele><time>2026-05-02T13:51:20.999Z</time></trkpt><trkpt lat="42.10504279622168" lon="13.394298102672186"><ele>832.6666666666667</ele><time>2026-05-02T13:51:22.999Z</time></trkpt><trkpt lat="42.1049471994295" lon="13.394211457282317"><ele>833.3333333333334</ele><time>2026-05-02T13:51:24.999Z</time></trkpt><trkpt lat="42.10495163400607" lon="13.394118180670189"><ele>834.0</ele><time>2026-05-02T13:51:25.999Z</time></trkpt><trkpt lat="42.10494985728672" lon="13.394004570777202"><ele>834.0</ele><time>2026-05-02T13:51:26.999Z</time></trkpt><trkpt lat="42.104976169391186" lon="13.39385657381003"><ele>834.0</ele><time>2026-05-02T13:51:27.999Z</time></trkpt><trkpt lat="42.10500200290093" lon="13.393680368576195"><ele>834.0</ele><time>2026-05-02T13:51:28.999Z</time></trkpt><trkpt lat="42.1050548881542" lon="13.393524428471194"><ele>834.0</ele><time>2026-05-02T13:51:29.999Z</time></trkpt><trkpt lat="42.1051050432803" lon="13.393373365179881"><ele>833.2</ele><time>2026-05-02T13:51:30.999Z</time></trkpt><trkpt lat="42.10513919602499" lon="13.393223242437541"><ele>832.4000000000001</ele><time>2026-05-02T13:51:31.999Z</time></trkpt><trkpt lat="42.105178705667036" lon="13.393080400240146"><ele>831.6</ele><time>2026-05-02T13:51:32.999Z</time></trkpt><trkpt lat="42.10520699948264" lon="13.392937357095683"><ele>830.8</ele><time>2026-05-02T13:51:33.999Z</time></trkpt><trkpt lat="42.105222676490904" lon="13.392805888557858"><ele>830.0</ele><time>2026-05-02T13:51:34.999Z</time></trkpt><trkpt lat="42.10522400456695" lon="13.392688911037704"><ele>829.2</ele><time>2026-05-02T13:51:35.999Z</time></trkpt><trkpt lat="42.10520996396191" lon="13.39259107063235"><ele>828.4</ele><time>2026-05-02T13:51:36.999Z</time></trkpt><trkpt lat="42.10517119346655" lon="13.392457016729171"><ele>827.5999999999999</ele><time>2026-05-02T13:51:37.999Z</time></trkpt><trkpt lat="42.1051152958976" lon="13.392304236278822"><ele>826.8</ele><time>2026-05-02T13:51:38.999Z</time></trkpt><trkpt lat="42.10506248962286" lon="13.39213501874876"><ele>826.0</ele><time>2026-05-02T13:51:39.999Z</time></trkpt><trkpt lat="42.10499583117753" lon="13.3919890061139"><ele>826.0</ele><time>2026-05-02T13:51:40.999Z</time></trkpt><trkpt lat="42.10493219031403" lon="13.391834133669764"><ele>826.0</ele><time>2026-05-02T13:51:41.999Z</time></trkpt><trkpt lat="42.10487391819119" lon="13.39165179929725"><ele>826.0</ele><time>2026-05-02T13:51:42.999Z</time></trkpt><trkpt lat="42.104827607422386" lon="13.39153358299965"><ele>826.0</ele><time>2026-05-02T13:51:43.999Z</time></trkpt><trkpt lat="42.10478204375422" lon="13.39137036543476"><ele>826.6666666666666</ele><time>2026-05-02T13:51:44.999Z</time></trkpt><trkpt lat="42.10473158213747" lon="13.391159476911042"><ele>827.3333333333333</ele><time>2026-05-02T13:51:45.999Z</time></trkpt><trkpt lat="42.10468345516444" lon="13.390962973980383"><ele>828.0</ele><time>2026-05-02T13:51:46.999Z</time></trkpt><trkpt lat="42.10463256925143" lon="13.39076094554253"><ele>828.0</ele><time>2026-05-02T13:51:47.999Z</time></trkpt><trkpt lat="42.10458625272092" lon="13.39057705761737"><ele>828.0</ele><time>2026-05-02T13:51:48.999Z</time></trkpt><trkpt lat="42.10453570139033" lon="13.39037635704547"><ele>828.0</ele><time>2026-05-02T13:51:49.999Z</time></trkpt><trkpt lat="42.10449405493884" lon="13.390211011188052"><ele>828.0</ele><time>2026-05-02T13:51:50.999Z</time></trkpt><trkpt lat="42.10445589923412" lon="13.390050809876113"><ele>828.75</ele><time>2026-05-02T13:51:51.999Z</time></trkpt><trkpt lat="42.1044373334164" lon="13.389917567189885"><ele>829.5</ele><time>2026-05-02T13:51:52.999Z</time></trkpt><trkpt lat="42.1044437842268" lon="13.389785448032816"><ele>830.25</ele><time>2026-05-02T13:51:54.999Z</time></trkpt><trkpt lat="42.104523854410274" lon="13.389588301220344"><ele>831.0</ele><time>2026-05-02T13:51:58.999Z</time></trkpt><trkpt lat="42.1042309396941" lon="13.389673438012954"><ele>831.1666666666666</ele><time>2026-05-02T13:51:59.999Z</time></trkpt><trkpt lat="42.104142699059274" lon="13.389582392210453"><ele>831.3333333333333</ele><time>2026-05-02T13:52:00.999Z</time></trkpt><trkpt lat="42.10405349674607" lon="13.38952972615482"><ele>831.5</ele><time>2026-05-02T13:52:01.999Z</time></trkpt><trkpt lat="42.103973277084535" lon="13.389502317428683"><ele>831.6666666666666</ele><time>2026-05-02T13:52:02.999Z</time></trkpt><trkpt lat="42.10390814135971" lon="13.389486265373616"><ele>831.8333333333333</ele><time>2026-05-02T13:52:03.999Z</time></trkpt><trkpt lat="42.10384513053857" lon="13.38946740855438"><ele>832.0</ele><time>2026-05-02T13:52:04.999Z</time></trkpt><trkpt lat="42.10377594384636" lon="13.389438926590643"><ele>831.4999999999999</ele><time>2026-05-02T13:52:05.999Z</time></trkpt><trkpt lat="42.10365833070861" lon="13.38942198855084"><ele>831.0</ele><time>2026-05-02T13:52:07.999Z</time></trkpt><trkpt lat="42.10360728399318" lon="13.38935464570183"><ele>830.5</ele><time>2026-05-02T13:52:08.999Z</time></trkpt><trkpt lat="42.10357149772447" lon="13.389266668103721"><ele>830.0</ele><time>2026-05-02T13:52:09.999Z</time></trkpt><trkpt lat="42.10355261155331" lon="13.38916650239746"><ele>829.4999999999999</ele><time>2026-05-02T13:52:10.999Z</time></trkpt><trkpt lat="42.103510596819504" lon="13.389062352920206"><ele>829.0</ele><time>2026-05-02T13:52:11.999Z</time></trkpt><trkpt lat="42.10348190268238" lon="13.388960635927962"><ele>828.9999999999999</ele><time>2026-05-02T13:52:12.999Z</time></trkpt><trkpt lat="42.103447103545015" lon="13.388863357127226"><ele>829.0</ele><time>2026-05-02T13:52:13.999Z</time></trkpt><trkpt lat="42.10341898857866" lon="13.388754934624558"><ele>829.0</ele><time>2026-05-02T13:52:14.999Z</time></trkpt><trkpt lat="42.10338459181498" lon="13.3886143982374"><ele>829.0</ele><time>2026-05-02T13:52:16.999Z</time></trkpt><trkpt lat="42.10335319952984" lon="13.388509660277073"><ele>828.9999999999999</ele><time>2026-05-02T13:52:17.999Z</time></trkpt><trkpt lat="42.1032875819747" lon="13.38842803622977"><ele>829.0</ele><time>2026-05-02T13:52:18.999Z</time></trkpt><trkpt lat="42.10325363776424" lon="13.388347545102215"><ele>828.8000000000001</ele><time>2026-05-02T13:52:19.999Z</time></trkpt><trkpt lat="42.103227003311034" lon="13.388263226176827"><ele>828.6</ele><time>2026-05-02T13:52:20.999Z</time></trkpt><trkpt lat="42.10322987196127" lon="13.388121946831433"><ele>828.4</ele><time>2026-05-02T13:52:22.999Z</time></trkpt><trkpt lat="42.10326946083338" lon="13.388018896870776"><ele>828.2</ele><time>2026-05-02T13:52:24.999Z</time></trkpt><trkpt lat="42.10322456034725" lon="13.387870701104381"><ele>828.0</ele><time>2026-05-02T13:52:26.999Z</time></trkpt><trkpt lat="42.10318162314717" lon="13.387754190636143"><ele>827.5</ele><time>2026-05-02T13:52:27.999Z</time></trkpt><trkpt lat="42.103143113925135" lon="13.387634946733247"><ele>827.0</ele><time>2026-05-02T13:52:28.999Z</time></trkpt><trkpt lat="42.1031137370827" lon="13.387536319364138"><ele>826.5</ele><time>2026-05-02T13:52:29.999Z</time></trkpt><trkpt lat="42.1030847503894" lon="13.387451710609504"><ele>826.0</ele><time>2026-05-02T13:52:30.999Z</time></trkpt><trkpt lat="42.10304109492486" lon="13.387363421757838"><ele>825.5</ele><time>2026-05-02T13:52:31.999Z</time></trkpt><trkpt lat="42.10301447647034" lon="13.387276221740287"><ele>825.0</ele><time>2026-05-02T13:52:32.999Z</time></trkpt><trkpt lat="42.10299566050861" lon="13.387193607036405"><ele>825.0</ele><time>2026-05-02T13:52:34.999Z</time></trkpt><trkpt lat="42.103035376755344" lon="13.387078747832051"><ele>825.0</ele><time>2026-05-02T13:52:36.999Z</time></trkpt><trkpt lat="42.103041052373456" lon="13.38696204859783"><ele>825.0</ele><time>2026-05-02T13:52:38.999Z</time></trkpt><trkpt lat="42.10298691854329" lon="13.386815963093879"><ele>825.0</ele><time>2026-05-02T13:52:40.998Z</time></trkpt><trkpt lat="42.10294237599456" lon="13.3866987819279"><ele>825.0</ele><time>2026-05-02T13:52:41.998Z</time></trkpt><trkpt lat="42.1028860379594" lon="13.386556945376556"><ele>825.0</ele><time>2026-05-02T13:52:42.998Z</time></trkpt><trkpt lat="42.102828772631135" lon="13.386435693994429"><ele>825.0</ele><time>2026-05-02T13:52:43.998Z</time></trkpt><trkpt lat="42.10279934252466" lon="13.386319025812222"><ele>825.0</ele><time>2026-05-02T13:52:44.998Z</time></trkpt><trkpt lat="42.10277240059786" lon="13.386205302922763"><ele>825.0</ele><time>2026-05-02T13:52:45.998Z</time></trkpt><trkpt lat="42.102700875487" lon="13.386098321820706"><ele>825.0</ele><time>2026-05-02T13:52:46.998Z</time></trkpt><trkpt lat="42.10263219958274" lon="13.385989482393978"><ele>825.1666666666666</ele><time>2026-05-02T13:52:47.998Z</time></trkpt><trkpt lat="42.102571919870954" lon="13.385877642128081"><ele>825.3333333333333</ele><time>2026-05-02T13:52:48.998Z</time></trkpt><trkpt lat="42.102521303744744" lon="13.385773295314456"><ele>825.5</ele><time>2026-05-02T13:52:49.998Z</time></trkpt><trkpt lat="42.102469142980574" lon="13.385682760080035"><ele>825.6666666666666</ele><time>2026-05-02T13:52:50.998Z</time></trkpt><trkpt lat="42.10243474637898" lon="13.385601816541694"><ele>825.8333333333333</ele><time>2026-05-02T13:52:51.998Z</time></trkpt><trkpt lat="42.10235948317815" lon="13.385532610813557"><ele>826.0</ele><time>2026-05-02T13:52:53.998Z</time></trkpt><trkpt lat="42.10239448396738" lon="13.385395010980053"><ele>826.3333333333333</ele><time>2026-05-02T13:52:56.998Z</time></trkpt><trkpt lat="42.10240813102296" lon="13.385293091735189"><ele>826.6666666666666</ele><time>2026-05-02T13:52:57.998Z</time></trkpt><trkpt lat="42.10244986439293" lon="13.385222757718498"><ele>827.0</ele><time>2026-05-02T13:52:58.998Z</time></trkpt><trkpt lat="42.102502367212914" lon="13.385144583282912"><ele>827.3333333333333</ele><time>2026-05-02T13:52:59.998Z</time></trkpt><trkpt lat="42.10256111560452" lon="13.385060916550447"><ele>827.6666666666666</ele><time>2026-05-02T13:53:00.998Z</time></trkpt><trkpt lat="42.10262924615932" lon="13.384976068509438"><ele>828.0</ele><time>2026-05-02T13:53:01.998Z</time></trkpt><trkpt lat="42.1027035382066" lon="13.384934202513637"><ele>828.0</ele><time>2026-05-02T13:53:02.998Z</time></trkpt><trkpt lat="42.10277709179801" lon="13.384880784546992"><ele>828.0</ele><time>2026-05-02T13:53:03.998Z</time></trkpt><trkpt lat="42.10283805837554" lon="13.384791444520506"><ele>828.0</ele><time>2026-05-02T13:53:04.998Z</time></trkpt><trkpt lat="42.10296239290234" lon="13.384731927244479"><ele>828.0</ele><time>2026-05-02T13:53:06.998Z</time></trkpt><trkpt lat="42.10306419608502" lon="13.384652002002193"><ele>828.0</ele><time>2026-05-02T13:53:08.998Z</time></trkpt><trkpt lat="42.10311824156776" lon="13.384581701448226"><ele>828.2</ele><time>2026-05-02T13:53:09.998Z</time></trkpt><trkpt lat="42.10318667524539" lon="13.384466812176338"><ele>828.4</ele><time>2026-05-02T13:53:10.998Z</time></trkpt><trkpt lat="42.103266565249946" lon="13.384356072249098"><ele>828.6</ele><time>2026-05-02T13:53:11.998Z</time></trkpt><trkpt lat="42.1033369763011" lon="13.384243237860378"><ele>828.8000000000001</ele><time>2026-05-02T13:53:12.998Z</time></trkpt><trkpt lat="42.103395584879436" lon="13.384147722018968"><ele>829.0</ele><time>2026-05-02T13:53:13.998Z</time></trkpt><trkpt lat="42.10345366003692" lon="13.384053397235457"><ele>829.9999999999999</ele><time>2026-05-02T13:53:14.998Z</time></trkpt><trkpt lat="42.103474248287014" lon="13.38395534468233"><ele>831.0</ele><time>2026-05-02T13:53:15.998Z</time></trkpt><trkpt lat="42.103514303900404" lon="13.383869510519094"><ele>832.0</ele><time>2026-05-02T13:53:16.998Z</time></trkpt><trkpt lat="42.10357751566992" lon="13.383774458719465"><ele>833.0</ele><time>2026-05-02T13:53:17.998Z</time></trkpt><trkpt lat="42.103631796967626" lon="13.383687960527379"><ele>833.9999999999999</ele><time>2026-05-02T13:53:18.998Z</time></trkpt><trkpt lat="42.1036869191088" lon="13.383588924453132"><ele>835.0</ele><time>2026-05-02T13:53:19.998Z</time></trkpt><trkpt lat="42.10375733859605" lon="13.383532091232412"><ele>834.9999999999999</ele><time>2026-05-02T13:53:20.998Z</time></trkpt><trkpt lat="42.103845782736464" lon="13.383456215124843"><ele>835.0</ele><time>2026-05-02T13:53:21.998Z</time></trkpt><trkpt lat="42.10390654477828" lon="13.38339776273638"><ele>835.0</ele><time>2026-05-02T13:53:22.998Z</time></trkpt><trkpt lat="42.10398265039826" lon="13.383318082218189"><ele>835.0</ele><time>2026-05-02T13:53:23.998Z</time></trkpt><trkpt lat="42.10407435393717" lon="13.38331847877679"><ele>834.9999999999999</ele><time>2026-05-02T13:53:24.998Z</time></trkpt><trkpt lat="42.10414277408791" lon="13.383290992507671"><ele>835.0</ele><time>2026-05-02T13:53:25.998Z</time></trkpt><trkpt lat="42.10422466223525" lon="13.38330083763978"><ele>837.25</ele><time>2026-05-02T13:53:26.998Z</time></trkpt><trkpt lat="42.10432215286082" lon="13.383268827667765"><ele>839.5</ele><time>2026-05-02T13:53:27.998Z</time></trkpt><trkpt lat="42.10441625136429" lon="13.383112911630178"><ele>841.75</ele><time>2026-05-02T13:53:28.998Z</time></trkpt><trkpt lat="42.10453079466395" lon="13.383017153449998"><ele>844.0</ele><time>2026-05-02T13:53:29.998Z</time></trkpt><trkpt lat="42.10462366017998" lon="13.382967452423284"><ele>843.9999999999999</ele><time>2026-05-02T13:53:30.998Z</time></trkpt><trkpt lat="42.1047352561021" lon="13.382906548244872"><ele>844.0</ele><time>2026-05-02T13:53:31.998Z</time></trkpt><trkpt lat="42.10478699858935" lon="13.382848659857316"><ele>844.0</ele><time>2026-05-02T13:53:32.998Z</time></trkpt><trkpt lat="42.10485297932504" lon="13.382806641048203"><ele>844.0</ele><time>2026-05-02T13:53:33.998Z</time></trkpt><trkpt lat="42.10493462632783" lon="13.382786883292887"><ele>843.9999999999999</ele><time>2026-05-02T13:53:35.998Z</time></trkpt><trkpt lat="42.10502911507192" lon="13.38279826475522"><ele>844.0</ele><time>2026-05-02T13:53:36.998Z</time></trkpt><trkpt lat="42.10511632271213" lon="13.382802385810527"><ele>845.2</ele><time>2026-05-02T13:53:37.998Z</time></trkpt><trkpt lat="42.10520713243046" lon="13.38284016915908"><ele>846.4000000000001</ele><time>2026-05-02T13:53:38.998Z</time></trkpt><trkpt lat="42.105313199264806" lon="13.38284158796072"><ele>847.6</ele><time>2026-05-02T13:53:39.998Z</time></trkpt><trkpt lat="42.105424321405366" lon="13.382826001333918"><ele>848.8</ele><time>2026-05-02T13:53:40.998Z</time></trkpt><trkpt lat="42.10552059214338" lon="13.382824280711075"><ele>850.0</ele><time>2026-05-02T13:53:41.998Z</time></trkpt><trkpt lat="42.105617802160545" lon="13.382810163305507"><ele>850.0</ele><time>2026-05-02T13:53:42.998Z</time></trkpt><trkpt lat="42.105717577791204" lon="13.382830783071794"><ele>850.0</ele><time>2026-05-02T13:53:43.998Z</time></trkpt><trkpt lat="42.10580933886304" lon="13.382818064390245"><ele>850.0</ele><time>2026-05-02T13:53:44.998Z</time></trkpt><trkpt lat="42.10591100836661" lon="13.38284763319904"><ele>850.0</ele><time>2026-05-02T13:53:45.998Z</time></trkpt><trkpt lat="42.105993008681416" lon="13.382881534193531"><ele>850.0</ele><time>2026-05-02T13:53:46.998Z</time></trkpt><trkpt lat="42.10609232206897" lon="13.382900104083632"><ele>851.1666666666666</ele><time>2026-05-02T13:53:47.998Z</time></trkpt><trkpt lat="42.10618466515518" lon="13.382908807085059"><ele>852.3333333333333</ele><time>2026-05-02T13:53:48.998Z</time></trkpt><trkpt lat="42.10627015191531" lon="13.38294041693122"><ele>853.5</ele><time>2026-05-02T13:53:49.998Z</time></trkpt><trkpt lat="42.10633986526881" lon="13.382931120378386"><ele>854.6666666666667</ele><time>2026-05-02T13:53:50.998Z</time></trkpt><trkpt lat="42.106407615243256" lon="13.382941461400218"><ele>855.8333333333334</ele><time>2026-05-02T13:53:51.998Z</time></trkpt><trkpt lat="42.106531094819445" lon="13.382973243776375"><ele>857.0</ele><time>2026-05-02T13:53:53.998Z</time></trkpt><trkpt lat="42.10657112147277" lon="13.383041648353968"><ele>858.3333333333334</ele><time>2026-05-02T13:53:54.998Z</time></trkpt><trkpt lat="42.10663672718074" lon="13.383153301574051"><ele>859.6666666666667</ele><time>2026-05-02T13:53:56.998Z</time></trkpt><trkpt lat="42.10670962855827" lon="13.383157801495768"><ele>861.0</ele><time>2026-05-02T13:53:58.998Z</time></trkpt><trkpt lat="42.106761536777995" lon="13.383211414777819"><ele>862.3333333333333</ele><time>2026-05-02T13:54:00.998Z</time></trkpt><trkpt lat="42.10680179809755" lon="13.383348405764902"><ele>863.6666666666666</ele><time>2026-05-02T13:54:02.998Z</time></trkpt><trkpt lat="42.10682871168328" lon="13.38343694657275"><ele>865.0</ele><time>2026-05-02T13:54:04.998Z</time></trkpt><trkpt lat="42.10690279681175" lon="13.383424399334142"><ele>865.0</ele><time>2026-05-02T13:54:07.998Z</time></trkpt><trkpt lat="42.10702647459304" lon="13.38335407436645"><ele>865.0</ele><time>2026-05-02T13:54:09.998Z</time></trkpt><trkpt lat="42.10709579197319" lon="13.383292077734506"><ele>865.0</ele><time>2026-05-02T13:54:10.998Z</time></trkpt><trkpt lat="42.10715904037932" lon="13.383226463916383"><ele>865.0</ele><time>2026-05-02T13:54:11.998Z</time></trkpt><trkpt lat="42.10723480307213" lon="13.383172170503899"><ele>865.0</ele><time>2026-05-02T13:54:12.998Z</time></trkpt><trkpt lat="42.10730490117539" lon="13.38312503309659"><ele>864.9999999999999</ele><time>2026-05-02T13:54:13.998Z</time></trkpt><trkpt lat="42.1073698054365" lon="13.383075757903987"><ele>865.0</ele><time>2026-05-02T13:54:14.998Z</time></trkpt><trkpt lat="42.10743599041874" lon="13.383026890376664"><ele>865.0</ele><time>2026-05-02T13:54:15.998Z</time></trkpt><trkpt lat="42.107494876979764" lon="13.382975527472182"><ele>865.0</ele><time>2026-05-02T13:54:16.998Z</time></trkpt><trkpt lat="42.10756159575243" lon="13.382924844385505"><ele>864.9999999999999</ele><time>2026-05-02T13:54:17.998Z</time></trkpt><trkpt lat="42.10764006619817" lon="13.382904155176455"><ele>865.0</ele><time>2026-05-02T13:54:18.998Z</time></trkpt><trkpt lat="42.10773173455234" lon="13.382890755470482"><ele>867.0</ele><time>2026-05-02T13:54:19.998Z</time></trkpt><trkpt lat="42.10783312494136" lon="13.382873690461913"><ele>869.0</ele><time>2026-05-02T13:54:20.998Z</time></trkpt><trkpt lat="42.10793181882285" lon="13.382841260013269"><ele>871.0</ele><time>2026-05-02T13:54:21.998Z</time></trkpt><trkpt lat="42.108029789203144" lon="13.382813705054271"><ele>873.0</ele><time>2026-05-02T13:54:22.998Z</time></trkpt><trkpt lat="42.108121034129304" lon="13.382801874696042"><ele>875.0</ele><time>2026-05-02T13:54:23.998Z</time></trkpt><trkpt lat="42.10820374092877" lon="13.382797739262825"><ele>875.6666666666667</ele><time>2026-05-02T13:54:24.998Z</time></trkpt><trkpt lat="42.10828331118275" lon="13.382785402844696"><ele>876.3333333333334</ele><time>2026-05-02T13:54:25.998Z</time></trkpt><trkpt lat="42.10836302744988" lon="13.382770531867408"><ele>877.0</ele><time>2026-05-02T13:54:26.998Z</time></trkpt><trkpt lat="42.10844022273102" lon="13.382754560728069"><ele>877.6666666666667</ele><time>2026-05-02T13:54:27.998Z</time></trkpt><trkpt lat="42.108517297802344" lon="13.382737038449664"><ele>878.3333333333334</ele><time>2026-05-02T13:54:28.998Z</time></trkpt><trkpt lat="42.10858528425653" lon="13.382723190875403"><ele>879.0</ele><time>2026-05-02T13:54:29.998Z</time></trkpt><trkpt lat="42.10865797650733" lon="13.382700109872998"><ele>879.0</ele><time>2026-05-02T13:54:30.998Z</time></trkpt><trkpt lat="42.10871704370225" lon="13.382659862535165"><ele>879.0</ele><time>2026-05-02T13:54:31.998Z</time></trkpt><trkpt lat="42.10879352558475" lon="13.382613423720056"><ele>879.0</ele><time>2026-05-02T13:54:32.998Z</time></trkpt><trkpt lat="42.10888147394996" lon="13.382574542728333"><ele>879.0</ele><time>2026-05-02T13:54:33.998Z</time></trkpt><trkpt lat="42.10896851704901" lon="13.382529254106956"><ele>879.0</ele><time>2026-05-02T13:54:34.998Z</time></trkpt><trkpt lat="42.109038448396866" lon="13.382481914026963"><ele>879.0</ele><time>2026-05-02T13:54:35.998Z</time></trkpt><trkpt lat="42.109118460232935" lon="13.382430948341181"><ele>880.2</ele><time>2026-05-02T13:54:36.998Z</time></trkpt><trkpt lat="42.10919806303044" lon="13.382388065596531"><ele>881.4000000000001</ele><time>2026-05-02T13:54:37.998Z</time></trkpt><trkpt lat="42.10928386296252" lon="13.382351197464015"><ele>882.6</ele><time>2026-05-02T13:54:38.998Z</time></trkpt><trkpt lat="42.10936888119564" lon="13.382305709258661"><ele>883.8</ele><time>2026-05-02T13:54:39.998Z</time></trkpt><trkpt lat="42.10946143467898" lon="13.382258257418037"><ele>885.0</ele><time>2026-05-02T13:54:40.998Z</time></trkpt><trkpt lat="42.109552990894244" lon="13.38220890223404"><ele>885.1666666666666</ele><time>2026-05-02T13:54:41.998Z</time></trkpt><trkpt lat="42.10962525079745" lon="13.382160958884398"><ele>885.3333333333333</ele><time>2026-05-02T13:54:42.998Z</time></trkpt><trkpt lat="42.109700494061975" lon="13.382106170482373"><ele>885.5</ele><time>2026-05-02T13:54:43.998Z</time></trkpt><trkpt lat="42.10977031447673" lon="13.382058653534301"><ele>885.6666666666666</ele><time>2026-05-02T13:54:44.998Z</time></trkpt><trkpt lat="42.10985587874438" lon="13.38202447434218"><ele>885.8333333333333</ele><time>2026-05-02T13:54:46.998Z</time></trkpt><trkpt lat="42.109959837583" lon="13.382068464497623"><ele>886.0</ele><time>2026-05-02T13:54:48.998Z</time></trkpt><trkpt lat="42.110018080023046" lon="13.382105498051564"><ele>887.1999999999999</ele><time>2026-05-02T13:54:49.998Z</time></trkpt><trkpt lat="42.11014065374215" lon="13.382145241350088"><ele>888.3999999999999</ele><time>2026-05-02T13:54:51.998Z</time></trkpt><trkpt lat="42.11024600464276" lon="13.382142053115135"><ele>889.6</ele><time>2026-05-02T13:54:53.998Z</time></trkpt><trkpt lat="42.1103340281724" lon="13.38211256803076"><ele>890.8</ele><time>2026-05-02T13:54:55.998Z</time></trkpt><trkpt lat="42.1104233099483" lon="13.382056790087526"><ele>892.0</ele><time>2026-05-02T13:54:57.998Z</time></trkpt><trkpt lat="42.11049925252547" lon="13.382010596272975"><ele>891.9999999999999</ele><time>2026-05-02T13:54:59.998Z</time></trkpt><trkpt lat="42.11056141414916" lon="13.381950349045724"><ele>892.0</ele><time>2026-05-02T13:55:02.997Z</time></trkpt><trkpt lat="42.110563560699" lon="13.381820721609158"><ele>892.0</ele><time>2026-05-02T13:55:04.997Z</time></trkpt><trkpt lat="42.11056120701149" lon="13.381727177756677"><ele>892.0</ele><time>2026-05-02T13:55:05.997Z</time></trkpt><trkpt lat="42.110559438845314" lon="13.381615051025069"><ele>891.9999999999999</ele><time>2026-05-02T13:55:06.997Z</time></trkpt><trkpt lat="42.11056062137867" lon="13.381476067912514"><ele>892.0</ele><time>2026-05-02T13:55:07.997Z</time></trkpt><trkpt lat="42.110564896473974" lon="13.381348329016278"><ele>892.4000000000001</ele><time>2026-05-02T13:55:08.997Z</time></trkpt><trkpt lat="42.110574367938156" lon="13.381233019363439"><ele>892.8000000000001</ele><time>2026-05-02T13:55:09.997Z</time></trkpt><trkpt lat="42.110578022169946" lon="13.381106875892264"><ele>893.2</ele><time>2026-05-02T13:55:10.997Z</time></trkpt><trkpt lat="42.11058144830972" lon="13.380969023184752"><ele>893.6</ele><time>2026-05-02T13:55:11.997Z</time></trkpt><trkpt lat="42.11057328037053" lon="13.380845878418748"><ele>894.0</ele><time>2026-05-02T13:55:12.997Z</time></trkpt><trkpt lat="42.11056746128672" lon="13.3807205277509"><ele>894.0</ele><time>2026-05-02T13:55:13.997Z</time></trkpt><trkpt lat="42.11056268044961" lon="13.380594448924924"><ele>894.0</ele><time>2026-05-02T13:55:14.997Z</time></trkpt><trkpt lat="42.110561890466315" lon="13.38046608253312"><ele>894.0</ele><time>2026-05-02T13:55:15.997Z</time></trkpt><trkpt lat="42.11056044793349" lon="13.380365686231695"><ele>894.0</ele><time>2026-05-02T13:55:16.997Z</time></trkpt><trkpt lat="42.11055943685308" lon="13.380244398243397"><ele>894.0</ele><time>2026-05-02T13:55:18.997Z</time></trkpt><trkpt lat="42.11059240025858" lon="13.38014292516123"><ele>894.0</ele><time>2026-05-02T13:55:21.997Z</time></trkpt><trkpt lat="42.110607493959826" lon="13.379995745036904"><ele>894.25</ele><time>2026-05-02T13:55:23.997Z</time></trkpt><trkpt lat="42.11054707077618" lon="13.379828441126545"><ele>894.5</ele><time>2026-05-02T13:55:25.997Z</time></trkpt><trkpt lat="42.11047517534501" lon="13.379726067614982"><ele>894.75</ele><time>2026-05-02T13:55:26.997Z</time></trkpt><trkpt lat="42.11039455641725" lon="13.379600960196154"><ele>895.0</ele><time>2026-05-02T13:55:27.997Z</time></trkpt><trkpt lat="42.11030317546442" lon="13.379492683764864"><ele>895.1666666666666</ele><time>2026-05-02T13:55:28.997Z</time></trkpt><trkpt lat="42.11024669434126" lon="13.379434323582823"><ele>895.3333333333333</ele><time>2026-05-02T13:55:29.997Z</time></trkpt><trkpt lat="42.11018414308072" lon="13.379397913524215"><ele>895.5</ele><time>2026-05-02T13:55:30.997Z</time></trkpt><trkpt lat="42.11009320857475" lon="13.379369098391997"><ele>895.6666666666667</ele><time>2026-05-02T13:55:31.997Z</time></trkpt><trkpt lat="42.110001323960404" lon="13.379360859945308"><ele>895.8333333333334</ele><time>2026-05-02T13:55:32.997Z</time></trkpt><trkpt lat="42.10990975868233" lon="13.379356834367217"><ele>896.0</ele><time>2026-05-02T13:55:33.997Z</time></trkpt><trkpt lat="42.109816299397075" lon="13.379336748507408"><ele>896.0</ele><time>2026-05-02T13:55:34.997Z</time></trkpt><trkpt lat="42.10973248351074" lon="13.379319296215808"><ele>895.9999999999999</ele><time>2026-05-02T13:55:35.997Z</time></trkpt><trkpt lat="42.10962528848838" lon="13.379284197550083"><ele>895.9999999999999</ele><time>2026-05-02T13:55:36.997Z</time></trkpt><trkpt lat="42.10951000200904" lon="13.379250477246337"><ele>896.0</ele><time>2026-05-02T13:55:37.997Z</time></trkpt><trkpt lat="42.109417574146356" lon="13.379202538541419"><ele>896.0</ele><time>2026-05-02T13:55:38.997Z</time></trkpt><trkpt lat="42.1093494746154" lon="13.379168903816952"><ele>896.0000000000001</ele><time>2026-05-02T13:55:39.997Z</time></trkpt><trkpt lat="42.109287358647826" lon="13.379128544677943"><ele>896.0</ele><time>2026-05-02T13:55:40.997Z</time></trkpt><trkpt lat="42.109230223352895" lon="13.37904409474456"><ele>896.0</ele><time>2026-05-02T13:55:42.997Z</time></trkpt><trkpt lat="42.10924048697399" lon="13.37892853768627"><ele>896.0</ele><time>2026-05-02T13:55:44.997Z</time></trkpt><trkpt lat="42.10923237618368" lon="13.378836322563854"><ele>896.0000000000001</ele><time>2026-05-02T13:55:45.997Z</time></trkpt><trkpt lat="42.10919188146685" lon="13.378714310850464"><ele>896.0</ele><time>2026-05-02T13:55:46.997Z</time></trkpt><trkpt lat="42.109139502080026" lon="13.37857199831357"><ele>896.75</ele><time>2026-05-02T13:55:47.997Z</time></trkpt><trkpt lat="42.10907682725641" lon="13.378431570612415"><ele>897.5</ele><time>2026-05-02T13:55:48.997Z</time></trkpt><trkpt lat="42.10901014768991" lon="13.378296881869685"><ele>898.25</ele><time>2026-05-02T13:55:49.997Z</time></trkpt><trkpt lat="42.10894412791922" lon="13.37817323394439"><ele>899.0</ele><time>2026-05-02T13:55:50.997Z</time></trkpt><trkpt lat="42.10887154582721" lon="13.37806178595577"><ele>902.25</ele><time>2026-05-02T13:55:51.997Z</time></trkpt><trkpt lat="42.10878032355555" lon="13.377953611064942"><ele>905.5</ele><time>2026-05-02T13:55:52.997Z</time></trkpt><trkpt lat="42.10867286575946" lon="13.377862127356355"><ele>908.75</ele><time>2026-05-02T13:55:53.997Z</time></trkpt><trkpt lat="42.10857011543573" lon="13.37777545198467"><ele>912.0</ele><time>2026-05-02T13:55:54.997Z</time></trkpt><trkpt lat="42.108476543092195" lon="13.377705748050133"><ele>912.0</ele><time>2026-05-02T13:55:55.997Z</time></trkpt><trkpt lat="42.10840025532318" lon="13.377665438427552"><ele>912.0</ele><time>2026-05-02T13:55:56.997Z</time></trkpt><trkpt lat="42.10834173213324" lon="13.37763361372212"><ele>912.0</ele><time>2026-05-02T13:55:57.997Z</time></trkpt><trkpt lat="42.108267042472605" lon="13.377609179413811"><ele>912.0</ele><time>2026-05-02T13:55:59.997Z</time></trkpt><trkpt lat="42.108203025972585" lon="13.377613896586395"><ele>912.0</ele><time>2026-05-02T13:56:23.997Z</time></trkpt><trkpt lat="42.10812390318411" lon="13.37761131487692"><ele>912.0</ele><time>2026-05-02T13:56:34.001Z</time></trkpt><trkpt lat="42.108014795629416" lon="13.377612931155184"><ele>911.8333333333334</ele><time>2026-05-02T13:56:36.001Z</time></trkpt><trkpt lat="42.107934934964945" lon="13.377624928115472"><ele>911.6666666666667</ele><time>2026-05-02T13:56:37.001Z</time></trkpt><trkpt lat="42.10787607574342" lon="13.377658082403203"><ele>911.5</ele><time>2026-05-02T13:56:38.001Z</time></trkpt><trkpt lat="42.10781229143801" lon="13.377659621459308"><ele>911.3333333333334</ele><time>2026-05-02T13:56:39.001Z</time></trkpt><trkpt lat="42.10774422274149" lon="13.37764213363457"><ele>911.1666666666667</ele><time>2026-05-02T13:56:40.001Z</time></trkpt><trkpt lat="42.107684182419476" lon="13.377613087171278"><ele>911.0</ele><time>2026-05-02T13:56:41.001Z</time></trkpt><trkpt lat="42.107575554591435" lon="13.377545093130069"><ele>911.0</ele><time>2026-05-02T13:56:43.001Z</time></trkpt><trkpt lat="42.10748430950795" lon="13.377457549187517"><ele>910.9999999999999</ele><time>2026-05-02T13:56:45.001Z</time></trkpt><trkpt lat="42.10744903361765" lon="13.377365441054417"><ele>910.9999999999999</ele><time>2026-05-02T13:56:47.001Z</time></trkpt><trkpt lat="42.10737561556202" lon="13.377283935150123"><ele>911.0</ele><time>2026-05-02T13:57:12Z</time></trkpt><trkpt lat="42.1072664031947" lon="13.37724388802978"><ele>911.0</ele><time>2026-05-02T13:57:34.999Z</time></trkpt><trkpt lat="42.107191092101495" lon="13.377217521160501"><ele>911.0000000000001</ele><time>2026-05-02T13:57:35.999Z</time></trkpt><trkpt lat="42.10711224169413" lon="13.377191935796755"><ele>911.0</ele><time>2026-05-02T13:57:36.999Z</time></trkpt><trkpt lat="42.10703045463804" lon="13.377150201261655"><ele>911.0</ele><time>2026-05-02T13:57:37.999Z</time></trkpt><trkpt lat="42.10695495368874" lon="13.377086021172621"><ele>911.0</ele><time>2026-05-02T13:57:38.999Z</time></trkpt><trkpt lat="42.10689028027426" lon="13.37701981332051"><ele>911.0000000000001</ele><time>2026-05-02T13:57:39.999Z</time></trkpt><trkpt lat="42.10683109676223" lon="13.37696451494524"><ele>911.0</ele><time>2026-05-02T13:57:40.999Z</time></trkpt><trkpt lat="42.10677596594212" lon="13.37689141236578"><ele>910.3333333333334</ele><time>2026-05-02T13:57:41.999Z</time></trkpt><trkpt lat="42.1066949070062" lon="13.376856337049091"><ele>909.6666666666667</ele><time>2026-05-02T13:57:42.999Z</time></trkpt><trkpt lat="42.10663688973066" lon="13.376788387292887"><ele>909.0</ele><time>2026-05-02T13:57:43.999Z</time></trkpt><trkpt lat="42.10657882402038" lon="13.376748720672035"><ele>908.3333333333333</ele><time>2026-05-02T13:57:44.999Z</time></trkpt><trkpt lat="42.106484759240196" lon="13.376700333103026"><ele>907.6666666666666</ele><time>2026-05-02T13:57:46.999Z</time></trkpt><trkpt lat="42.10641878147801" lon="13.376654920263526"><ele>907.0</ele><time>2026-05-02T13:57:47.999Z</time></trkpt><trkpt lat="42.10633601344755" lon="13.376662357462953"><ele>905.3333333333333</ele><time>2026-05-02T13:57:49.999Z</time></trkpt><trkpt lat="42.10627368254726" lon="13.376679090318744"><ele>903.6666666666666</ele><time>2026-05-02T13:57:51.999Z</time></trkpt><trkpt lat="42.10620651409321" lon="13.376665431360257"><ele>902.0</ele><time>2026-05-02T13:57:53.999Z</time></trkpt><trkpt lat="42.10613478621235" lon="13.376631498515444"><ele>900.3333333333333</ele><time>2026-05-02T13:57:55.999Z</time></trkpt><trkpt lat="42.10606391319911" lon="13.376590557801704"><ele>898.6666666666666</ele><time>2026-05-02T13:57:57.999Z</time></trkpt><trkpt lat="42.10599291370728" lon="13.37654954400125"><ele>897.0</ele><time>2026-05-02T13:58:00.999Z</time></trkpt><trkpt lat="42.10578862787535" lon="13.37647089262771"><ele>892.6</ele><time>2026-05-02T13:58:12.999Z</time></trkpt><trkpt lat="42.105736519496695" lon="13.376552668751378"><ele>888.2</ele><time>2026-05-02T13:58:14.999Z</time></trkpt><trkpt lat="42.10570152471999" lon="13.376625151887746"><ele>883.8</ele><time>2026-05-02T13:58:15.999Z</time></trkpt><trkpt lat="42.105646752092305" lon="13.376752482037348"><ele>879.4</ele><time>2026-05-02T13:58:17.999Z</time></trkpt><trkpt lat="42.10560337003922" lon="13.376865872312804"><ele>875.0</ele><time>2026-05-02T13:58:19.999Z</time></trkpt><trkpt lat="42.105547881567446" lon="13.377037449375333"><ele>875.0</ele><time>2026-05-02T13:58:22.999Z</time></trkpt><trkpt lat="42.105578119919535" lon="13.376954555296898"><ele>875.0</ele><time>2026-05-02T13:58:41.999Z</time></trkpt><trkpt lat="42.10559781987812" lon="13.376860326013425"><ele>875.0</ele><time>2026-05-02T13:58:43.999Z</time></trkpt><trkpt lat="42.105628859559836" lon="13.376769706063433"><ele>875.0</ele><time>2026-05-02T13:58:45.999Z</time></trkpt><trkpt lat="42.10568341896518" lon="13.376665332096358"><ele>875.0</ele><time>2026-05-02T13:58:57.998Z</time></trkpt><trkpt lat="42.105719725926896" lon="13.376584944978221"><ele>875.0</ele><time>2026-05-02T13:59:01.998Z</time></trkpt><trkpt lat="42.105758013593835" lon="13.376514609898784"><ele>875.0</ele><time>2026-05-02T13:59:11.998Z</time></trkpt><trkpt lat="42.10568097680248" lon="13.376398840589427"><ele>875.0</ele><time>2026-05-02T13:59:27.998Z</time></trkpt><trkpt lat="42.10569453188325" lon="13.376485429551881"><ele>875.0</ele><time>2026-05-02T13:59:31.998Z</time></trkpt><trkpt lat="42.10580266692906" lon="13.376515941729817"><ele>875.0</ele><time>2026-05-02T13:59:35.998Z</time></trkpt><trkpt lat="42.10583642197575" lon="13.376414447250326"><ele>875.0</ele><time>2026-05-02T13:59:42.998Z</time></trkpt><trkpt lat="42.10572132400067" lon="13.376265822553417"><ele>875.0</ele><time>2026-05-02T13:59:43.998Z</time></trkpt><trkpt lat="42.1056912733951" lon="13.376133144575748"><ele>875.8</ele><time>2026-05-02T13:59:45.998Z</time></trkpt><trkpt lat="42.10563411781667" lon="13.376034162358568"><ele>876.6</ele><time>2026-05-02T13:59:47.998Z</time></trkpt><trkpt lat="42.10556583528752" lon="13.375911959323489"><ele>877.4000000000001</ele><time>2026-05-02T13:59:49.998Z</time></trkpt><trkpt lat="42.10552695910953" lon="13.375840358135864"><ele>878.2</ele><time>2026-05-02T13:59:50.998Z</time></trkpt><trkpt lat="42.10548513079521" lon="13.375772273484191"><ele>879.0</ele><time>2026-05-02T13:59:51.998Z</time></trkpt><trkpt lat="42.10541262412858" lon="13.375653235626249"><ele>879.0</ele><time>2026-05-02T13:59:53.998Z</time></trkpt><trkpt lat="42.105348678233376" lon="13.375523896390584"><ele>879.0</ele><time>2026-05-02T13:59:55.998Z</time></trkpt><trkpt lat="42.10528400437965" lon="13.375416273893055"><ele>879.0</ele><time>2026-05-02T13:59:57.998Z</time></trkpt><trkpt lat="42.105219995978075" lon="13.375354693065837"><ele>879.0</ele><time>2026-05-02T13:59:59.998Z</time></trkpt><trkpt lat="42.105218629261834" lon="13.37526538195315"><ele>879.0</ele><time>2026-05-02T14:00:01.998Z</time></trkpt><trkpt lat="42.105166649018905" lon="13.375179257920173"><ele>879.0</ele><time>2026-05-02T14:00:04.998Z</time></trkpt><trkpt lat="42.10511055479239" lon="13.375081326443294"><ele>879.8000000000001</ele><time>2026-05-02T14:00:06.998Z</time></trkpt><trkpt lat="42.10505968606864" lon="13.37497965730256"><ele>880.6000000000001</ele><time>2026-05-02T14:00:08.998Z</time></trkpt><trkpt lat="42.10504371825498" lon="13.374829661392331"><ele>881.4</ele><time>2026-05-02T14:00:10.998Z</time></trkpt><trkpt lat="42.10498186086636" lon="13.37471620173459"><ele>882.2</ele><time>2026-05-02T14:00:12.998Z</time></trkpt><trkpt lat="42.104911815461456" lon="13.374663758517517"><ele>883.0</ele><time>2026-05-02T14:00:14.998Z</time></trkpt><trkpt lat="42.104840115966375" lon="13.37465557551432"><ele>880.8</ele><time>2026-05-02T14:00:16.998Z</time></trkpt><trkpt lat="42.104797740387376" lon="13.374529134512656"><ele>878.5999999999999</ele><time>2026-05-02T14:00:18.998Z</time></trkpt><trkpt lat="42.1047667388788" lon="13.374438387282963"><ele>876.4000000000001</ele><time>2026-05-02T14:00:19.998Z</time></trkpt><trkpt lat="42.104730735725056" lon="13.374336305569267"><ele>874.2</ele><time>2026-05-02T14:00:20.998Z</time></trkpt><trkpt lat="42.10467520531639" lon="13.374234033473256"><ele>872.0</ele><time>2026-05-02T14:00:21.998Z</time></trkpt><trkpt lat="42.104603080166356" lon="13.37414157789187"><ele>872.0000000000001</ele><time>2026-05-02T14:00:22.998Z</time></trkpt><trkpt lat="42.10453657446586" lon="13.374043829766459"><ele>872.0</ele><time>2026-05-02T14:00:23.998Z</time></trkpt><trkpt lat="42.104475672196166" lon="13.373957873565084"><ele>872.0</ele><time>2026-05-02T14:00:24.998Z</time></trkpt><trkpt lat="42.10441544089599" lon="13.373878464104566"><ele>872.0</ele><time>2026-05-02T14:00:25.998Z</time></trkpt><trkpt lat="42.10435276908572" lon="13.37380279679771"><ele>872.0000000000001</ele><time>2026-05-02T14:00:26.998Z</time></trkpt><trkpt lat="42.10430209584625" lon="13.373719678852344"><ele>872.0</ele><time>2026-05-02T14:00:27.998Z</time></trkpt><trkpt lat="42.10427896952782" lon="13.373623194360666"><ele>872.8333333333334</ele><time>2026-05-02T14:00:28.998Z</time></trkpt><trkpt lat="42.10423153405216" lon="13.373547030757809"><ele>873.6666666666667</ele><time>2026-05-02T14:00:29.998Z</time></trkpt><trkpt lat="42.10416746338558" lon="13.373482556021417"><ele>874.5</ele><time>2026-05-02T14:00:30.998Z</time></trkpt><trkpt lat="42.10409635089096" lon="13.373417885092564"><ele>875.3333333333333</ele><time>2026-05-02T14:00:31.998Z</time></trkpt><trkpt lat="42.104024222085485" lon="13.373350757262756"><ele>876.1666666666666</ele><time>2026-05-02T14:00:32.998Z</time></trkpt><trkpt lat="42.103962618775746" lon="13.373282464797375"><ele>877.0</ele><time>2026-05-02T14:00:33.998Z</time></trkpt><trkpt lat="42.103924794382834" lon="13.373209098869491"><ele>877.0</ele><time>2026-05-02T14:00:34.998Z</time></trkpt><trkpt lat="42.103851683794005" lon="13.373105456661438"><ele>877.0</ele><time>2026-05-02T14:00:36.998Z</time></trkpt><trkpt lat="42.10377720983544" lon="13.37301251398486"><ele>877.0</ele><time>2026-05-02T14:00:38.998Z</time></trkpt><trkpt lat="42.10371320120563" lon="13.372905934682707"><ele>877.0</ele><time>2026-05-02T14:00:40.998Z</time></trkpt><trkpt lat="42.10365452950804" lon="13.372837511355389"><ele>877.0</ele><time>2026-05-02T14:00:42.998Z</time></trkpt><trkpt lat="42.10361702893384" lon="13.372709007243355"><ele>876.9999999999999</ele><time>2026-05-02T14:00:44.998Z</time></trkpt><trkpt lat="42.10359467344448" lon="13.37262235155282"><ele>877.0</ele><time>2026-05-02T14:00:45.998Z</time></trkpt><trkpt lat="42.103545843040145" lon="13.372567902388209"><ele>877.0</ele><time>2026-05-02T14:00:46.998Z</time></trkpt><trkpt lat="42.10348359380339" lon="13.372489347244798"><ele>877.0</ele><time>2026-05-02T14:00:47.998Z</time></trkpt><trkpt lat="42.10342741580804" lon="13.372423685495805"><ele>876.9999999999999</ele><time>2026-05-02T14:00:48.997Z</time></trkpt><trkpt lat="42.10336504053866" lon="13.372342693434097"><ele>877.0</ele><time>2026-05-02T14:00:49.997Z</time></trkpt><trkpt lat="42.103305069213356" lon="13.372265451789659"><ele>875.1666666666666</ele><time>2026-05-02T14:00:50.997Z</time></trkpt><trkpt lat="42.103229589078424" lon="13.372203608159719"><ele>873.3333333333333</ele><time>2026-05-02T14:00:51.997Z</time></trkpt><trkpt lat="42.10314258772719" lon="13.372141130850594"><ele>871.5</ele><time>2026-05-02T14:00:52.997Z</time></trkpt><trkpt lat="42.103069630942805" lon="13.37206346649955"><ele>869.6666666666667</ele><time>2026-05-02T14:00:53.997Z</time></trkpt><trkpt lat="42.103000329663416" lon="13.371992829951216"><ele>867.8333333333334</ele><time>2026-05-02T14:00:54.997Z</time></trkpt><trkpt lat="42.10294446458087" lon="13.37194211828582"><ele>866.0</ele><time>2026-05-02T14:00:55.997Z</time></trkpt><trkpt lat="42.10289414877022" lon="13.371878556309616"><ele>866.0000000000001</ele><time>2026-05-02T14:00:56.997Z</time></trkpt><trkpt lat="42.10280879302932" lon="13.371759425790293"><ele>866.0</ele><time>2026-05-02T14:00:58.997Z</time></trkpt><trkpt lat="42.10276754355819" lon="13.371695299923752"><ele>866.0</ele><time>2026-05-02T14:00:59.997Z</time></trkpt><trkpt lat="42.10273169105597" lon="13.371601619283872"><ele>866.0</ele><time>2026-05-02T14:01:00.997Z</time></trkpt><trkpt lat="42.10268131186854" lon="13.37150754216788"><ele>866.0000000000001</ele><time>2026-05-02T14:01:01.997Z</time></trkpt><trkpt lat="42.102637857142746" lon="13.371442226025787"><ele>866.0</ele><time>2026-05-02T14:01:02.997Z</time></trkpt><trkpt lat="42.10253388367265" lon="13.371364859780412"><ele>864.5999999999999</ele><time>2026-05-02T14:01:04.997Z</time></trkpt><trkpt lat="42.10243864986427" lon="13.371277995626468"><ele>863.1999999999999</ele><time>2026-05-02T14:01:06.997Z</time></trkpt><trkpt lat="42.102358202478335" lon="13.37119190127656"><ele>861.8000000000001</ele><time>2026-05-02T14:01:08.997Z</time></trkpt><trkpt lat="42.102293316673645" lon="13.371138357069013"><ele>860.4000000000001</ele><time>2026-05-02T14:01:10.997Z</time></trkpt><trkpt lat="42.10223031340443" lon="13.371089023041833"><ele>859.0</ele><time>2026-05-02T14:01:12.997Z</time></trkpt><trkpt lat="42.102156403545486" lon="13.371014283640696"><ele>857.4999999999999</ele><time>2026-05-02T14:01:14.997Z</time></trkpt><trkpt lat="42.10206963104316" lon="13.370953804190371"><ele>856.0</ele><time>2026-05-02T14:01:16.997Z</time></trkpt><trkpt lat="42.10200538036352" lon="13.370899137978377"><ele>854.5</ele><time>2026-05-02T14:01:18.997Z</time></trkpt><trkpt lat="42.1019349403377" lon="13.370849527617652"><ele>853.0</ele><time>2026-05-02T14:01:20.997Z</time></trkpt><trkpt lat="42.10187342493541" lon="13.370812933885139"><ele>851.4999999999999</ele><time>2026-05-02T14:01:22.997Z</time></trkpt><trkpt lat="42.10182026437803" lon="13.370759620732667"><ele>850.0</ele><time>2026-05-02T14:01:24.997Z</time></trkpt><trkpt lat="42.101746286965245" lon="13.370671333797953"><ele>849.9999999999999</ele><time>2026-05-02T14:01:27.997Z</time></trkpt><trkpt lat="42.101678211655724" lon="13.370673201200825"><ele>850.0</ele><time>2026-05-02T14:01:29.997Z</time></trkpt><trkpt lat="42.10159138808733" lon="13.370663345427644"><ele>850.0</ele><time>2026-05-02T14:01:31.997Z</time></trkpt><trkpt lat="42.101501228811436" lon="13.370616660843918"><ele>850.0</ele><time>2026-05-02T14:01:33.997Z</time></trkpt><trkpt lat="42.101420090702824" lon="13.37055050939476"><ele>849.9999999999999</ele><time>2026-05-02T14:01:35.997Z</time></trkpt><trkpt lat="42.101352419120275" lon="13.37054721326268"><ele>850.0</ele><time>2026-05-02T14:01:37.997Z</time></trkpt><trkpt lat="42.10128684207917" lon="13.370548500555213"><ele>846.3333333333333</ele><time>2026-05-02T14:01:39.997Z</time></trkpt><trkpt lat="42.10120190805281" lon="13.370592842678041"><ele>842.6666666666666</ele><time>2026-05-02T14:01:42.997Z</time></trkpt><trkpt lat="42.10111012422189" lon="13.37063126468107"><ele>839.0</ele><time>2026-05-02T14:01:44.997Z</time></trkpt><trkpt lat="42.10102030213847" lon="13.370679837118002"><ele>835.3333333333333</ele><time>2026-05-02T14:01:46.997Z</time></trkpt><trkpt lat="42.10094310366987" lon="13.37069841734877"><ele>831.6666666666666</ele><time>2026-05-02T14:01:48.997Z</time></trkpt><trkpt lat="42.100885921810615" lon="13.370659940151445"><ele>828.0</ele><time>2026-05-02T14:01:49.997Z</time></trkpt><trkpt lat="42.10081341674491" lon="13.37062142834787"><ele>826.1666666666666</ele><time>2026-05-02T14:01:51.997Z</time></trkpt><trkpt lat="42.100747262751376" lon="13.370583474708669"><ele>824.3333333333333</ele><time>2026-05-02T14:01:53.997Z</time></trkpt><trkpt lat="42.100665407460625" lon="13.370521594288972"><ele>822.5</ele><time>2026-05-02T14:01:55.997Z</time></trkpt><trkpt lat="42.10056600838492" lon="13.370474198336886"><ele>820.6666666666666</ele><time>2026-05-02T14:01:57.997Z</time></trkpt><trkpt lat="42.10048448409451" lon="13.370447266041836"><ele>818.8333333333333</ele><time>2026-05-02T14:01:59.997Z</time></trkpt><trkpt lat="42.100415087963" lon="13.370471854156575"><ele>817.0</ele><time>2026-05-02T14:02:01.997Z</time></trkpt><trkpt lat="42.10035866470108" lon="13.370513688372961"><ele>816.9999999999999</ele><time>2026-05-02T14:02:03.997Z</time></trkpt><trkpt lat="42.100287384297395" lon="13.370504957584776"><ele>817.0</ele><time>2026-05-02T14:02:05.997Z</time></trkpt><trkpt lat="42.10018374401553" lon="13.370451285966498"><ele>817.0</ele><time>2026-05-02T14:02:07.997Z</time></trkpt><trkpt lat="42.100125012635154" lon="13.370401353638183"><ele>817.0</ele><time>2026-05-02T14:02:08.997Z</time></trkpt><trkpt lat="42.10006029864133" lon="13.370351875130853"><ele>816.9999999999999</ele><time>2026-05-02T14:02:09.997Z</time></trkpt><trkpt lat="42.09999254022541" lon="13.370296850596905"><ele>817.0</ele><time>2026-05-02T14:02:10.997Z</time></trkpt><trkpt lat="42.09991881818405" lon="13.37024062547381"><ele>814.1666666666666</ele><time>2026-05-02T14:02:11.997Z</time></trkpt><trkpt lat="42.099852211048436" lon="13.370178055973064"><ele>811.3333333333333</ele><time>2026-05-02T14:02:12.997Z</time></trkpt><trkpt lat="42.09978717241955" lon="13.370119917604347"><ele>808.5</ele><time>2026-05-02T14:02:13.997Z</time></trkpt><trkpt lat="42.099726635953076" lon="13.370062856822821"><ele>805.6666666666667</ele><time>2026-05-02T14:02:14.997Z</time></trkpt><trkpt lat="42.09967545666084" lon="13.370011504369012"><ele>802.8333333333334</ele><time>2026-05-02T14:02:15.997Z</time></trkpt><trkpt lat="42.0996153834679" lon="13.369953675759177"><ele>800.0</ele><time>2026-05-02T14:02:16.997Z</time></trkpt><trkpt lat="42.09954499228439" lon="13.369885515984565"><ele>800.0000000000001</ele><time>2026-05-02T14:02:17.997Z</time></trkpt><trkpt lat="42.099483703480914" lon="13.36980512413152"><ele>800.0</ele><time>2026-05-02T14:02:18.997Z</time></trkpt><trkpt lat="42.09942993302115" lon="13.36972167156343"><ele>800.0</ele><time>2026-05-02T14:02:19.997Z</time></trkpt><trkpt lat="42.09936725472745" lon="13.369654167845969"><ele>800.0</ele><time>2026-05-02T14:02:20.997Z</time></trkpt><trkpt lat="42.09932020848646" lon="13.369574714229621"><ele>800.0000000000001</ele><time>2026-05-02T14:02:21.997Z</time></trkpt><trkpt lat="42.09926024722098" lon="13.369513428559236"><ele>800.0</ele><time>2026-05-02T14:02:22.997Z</time></trkpt><trkpt lat="42.09919182600292" lon="13.369452581622204"><ele>800.3333333333334</ele><time>2026-05-02T14:02:23.997Z</time></trkpt><trkpt lat="42.0991239523882" lon="13.369388311356756"><ele>800.6666666666667</ele><time>2026-05-02T14:02:24.997Z</time></trkpt><trkpt lat="42.099061413119976" lon="13.369325136507756"><ele>801.0</ele><time>2026-05-02T14:02:25.997Z</time></trkpt><trkpt lat="42.09899437503547" lon="13.369266299850175"><ele>801.3333333333333</ele><time>2026-05-02T14:02:26.997Z</time></trkpt><trkpt lat="42.098940530446484" lon="13.369210262672398"><ele>801.6666666666666</ele><time>2026-05-02T14:02:27.997Z</time></trkpt><trkpt lat="42.09885183058698" lon="13.369113768874557"><ele>802.0</ele><time>2026-05-02T14:02:29.997Z</time></trkpt><trkpt lat="42.09876150035027" lon="13.369000162651632"><ele>801.6</ele><time>2026-05-02T14:02:31.997Z</time></trkpt><trkpt lat="42.09868207005143" lon="13.368908226550127"><ele>801.2</ele><time>2026-05-02T14:02:33.997Z</time></trkpt><trkpt lat="42.098571495640826" lon="13.36883380126989"><ele>800.8</ele><time>2026-05-02T14:02:35.997Z</time></trkpt><trkpt lat="42.098495457135776" lon="13.368796163680921"><ele>800.4</ele><time>2026-05-02T14:02:36.997Z</time></trkpt><trkpt lat="42.098435676927764" lon="13.36875525551304"><ele>800.0</ele><time>2026-05-02T14:02:37.997Z</time></trkpt><trkpt lat="42.09831748598623" lon="13.368690880293688"><ele>797.2</ele><time>2026-05-02T14:02:39.997Z</time></trkpt><trkpt lat="42.09820954964661" lon="13.368627425355186"><ele>794.4</ele><time>2026-05-02T14:02:41.997Z</time></trkpt><trkpt lat="42.09812798823766" lon="13.368584396117202"><ele>791.5999999999999</ele><time>2026-05-02T14:02:43.997Z</time></trkpt><trkpt lat="42.09801493644042" lon="13.368535276605014"><ele>788.8</ele><time>2026-05-02T14:02:45.997Z</time></trkpt><trkpt lat="42.09793237919473" lon="13.368492135275302"><ele>786.0</ele><time>2026-05-02T14:02:46.997Z</time></trkpt><trkpt lat="42.09785315440515" lon="13.36846479348871"><ele>786.0</ele><time>2026-05-02T14:02:47.997Z</time></trkpt><trkpt lat="42.097769642603055" lon="13.368439067940727"><ele>786.0</ele><time>2026-05-02T14:02:48.997Z</time></trkpt><trkpt lat="42.097695114681216" lon="13.368398323992222"><ele>786.0</ele><time>2026-05-02T14:02:49.997Z</time></trkpt><trkpt lat="42.097635426516376" lon="13.368360765770188"><ele>786.0</ele><time>2026-05-02T14:02:50.997Z</time></trkpt><trkpt lat="42.097569501232094" lon="13.36833649745799"><ele>786.0</ele><time>2026-05-02T14:02:51.997Z</time></trkpt><trkpt lat="42.097505610553874" lon="13.368322880205914"><ele>786.0</ele><time>2026-05-02T14:02:52.997Z</time></trkpt><trkpt lat="42.09739106794471" lon="13.36829852036067"><ele>782.8</ele><time>2026-05-02T14:02:54.996Z</time></trkpt><trkpt lat="42.09730811726053" lon="13.368272090468077"><ele>779.5999999999999</ele><time>2026-05-02T14:02:56.996Z</time></trkpt><trkpt lat="42.097217618980125" lon="13.368258540554573"><ele>776.4</ele><time>2026-05-02T14:02:58.996Z</time></trkpt><trkpt lat="42.09710540074952" lon="13.368231475228392"><ele>773.2</ele><time>2026-05-02T14:03:00.996Z</time></trkpt><trkpt lat="42.097036129634716" lon="13.368220381447042"><ele>770.0</ele><time>2026-05-02T14:03:01.996Z</time></trkpt><trkpt lat="42.09694057798862" lon="13.368192668861834"><ele>770.0</ele><time>2026-05-02T14:03:03.996Z</time></trkpt><trkpt lat="42.0968496074799" lon="13.368129173846594"><ele>770.0</ele><time>2026-05-02T14:03:05.996Z</time></trkpt><trkpt lat="42.09675054007393" lon="13.368035520325597"><ele>770.0</ele><time>2026-05-02T14:03:07.996Z</time></trkpt><trkpt lat="42.09667443735764" lon="13.36794169001552"><ele>770.0</ele><time>2026-05-02T14:03:09.996Z</time></trkpt><trkpt lat="42.096600209045356" lon="13.367846183072214"><ele>770.0</ele><time>2026-05-02T14:03:11.996Z</time></trkpt><trkpt lat="42.09654821465344" lon="13.367782631449268"><ele>766.6</ele><time>2026-05-02T14:03:12.996Z</time></trkpt><trkpt lat="42.09649480289843" lon="13.367715421925416"><ele>763.2</ele><time>2026-05-02T14:03:13.996Z</time></trkpt><trkpt lat="42.09642711129885" lon="13.367623951556723"><ele>759.8</ele><time>2026-05-02T14:03:15.996Z</time></trkpt><trkpt lat="42.09636446016995" lon="13.36754398274025"><ele>756.4</ele><time>2026-05-02T14:03:17.996Z</time></trkpt><trkpt lat="42.09628204534519" lon="13.367442585134851"><ele>753.0</ele><time>2026-05-02T14:03:19.996Z</time></trkpt><trkpt lat="42.096172127885836" lon="13.367371156577256"><ele>753.0</ele><time>2026-05-02T14:03:21.996Z</time></trkpt><trkpt lat="42.09609262216625" lon="13.367315223099842"><ele>753.0</ele><time>2026-05-02T14:03:23.996Z</time></trkpt><trkpt lat="42.096014190351305" lon="13.367260342188436"><ele>753.0</ele><time>2026-05-02T14:03:25.996Z</time></trkpt><trkpt lat="42.09590489435682" lon="13.367210053902465"><ele>753.0</ele><time>2026-05-02T14:03:27.996Z</time></trkpt><trkpt lat="42.095833985440436" lon="13.367175424209275"><ele>753.0</ele><time>2026-05-02T14:03:28.996Z</time></trkpt><trkpt lat="42.095761365826625" lon="13.367169139645197"><ele>753.0</ele><time>2026-05-02T14:03:29.996Z</time></trkpt><trkpt lat="42.095684604488824" lon="13.36714801556662"><ele>749.4</ele><time>2026-05-02T14:03:30.996Z</time></trkpt><trkpt lat="42.09560586538495" lon="13.367117414212773"><ele>745.8</ele><time>2026-05-02T14:03:31.996Z</time></trkpt><trkpt lat="42.09551534193753" lon="13.367065778091455"><ele>742.2</ele><time>2026-05-02T14:03:32.996Z</time></trkpt><trkpt lat="42.095427659247385" lon="13.367019545444238"><ele>738.6</ele><time>2026-05-02T14:03:34Z</time></trkpt><trkpt lat="42.095330438571494" lon="13.366959461465662"><ele>735.0</ele><time>2026-05-02T14:03:35Z</time></trkpt><trkpt lat="42.09523087331999" lon="13.366898488919544"><ele>735.0</ele><time>2026-05-02T14:03:36Z</time></trkpt><trkpt lat="42.095127087743045" lon="13.366829820489315"><ele>735.0</ele><time>2026-05-02T14:03:37Z</time></trkpt><trkpt lat="42.09501781012188" lon="13.366768352763177"><ele>735.0</ele><time>2026-05-02T14:03:38Z</time></trkpt><trkpt lat="42.09490713563005" lon="13.366723327312503"><ele>735.0</ele><time>2026-05-02T14:03:39Z</time></trkpt><trkpt lat="42.0948203749991" lon="13.366698094174264"><ele>735.0</ele><time>2026-05-02T14:03:40Z</time></trkpt><trkpt lat="42.09474940142695" lon="13.366684657553806"><ele>734.8333333333334</ele><time>2026-05-02T14:03:41Z</time></trkpt><trkpt lat="42.0946495080677" lon="13.366659922208747"><ele>734.6666666666666</ele><time>2026-05-02T14:03:43Z</time></trkpt><trkpt lat="42.09458835775745" lon="13.366603138416423"><ele>734.5</ele><time>2026-05-02T14:03:51Z</time></trkpt><trkpt lat="42.09450821493556" lon="13.366535856726529"><ele>734.3333333333333</ele><time>2026-05-02T14:03:53Z</time></trkpt><trkpt lat="42.09443856742103" lon="13.366483389792656"><ele>734.1666666666666</ele><time>2026-05-02T14:03:54Z</time></trkpt><trkpt lat="42.09437584988498" lon="13.366419414853956"><ele>734.0</ele><time>2026-05-02T14:03:55Z</time></trkpt><trkpt lat="42.09431246961469" lon="13.366325418014663"><ele>733.4000000000001</ele><time>2026-05-02T14:03:57Z</time></trkpt><trkpt lat="42.09430560045063" lon="13.366228861195367"><ele>732.8</ele><time>2026-05-02T14:03:58Z</time></trkpt><trkpt lat="42.09435648551589" lon="13.366101438101673"><ele>732.2</ele><time>2026-05-02T14:03:59Z</time></trkpt><trkpt lat="42.09444336778609" lon="13.365990993531478"><ele>731.5999999999999</ele><time>2026-05-02T14:04:00Z</time></trkpt><trkpt lat="42.09453754432599" lon="13.365864959716017"><ele>731.0</ele><time>2026-05-02T14:04:01Z</time></trkpt><trkpt lat="42.09463205770873" lon="13.365733247357355"><ele>731.0</ele><time>2026-05-02T14:04:02Z</time></trkpt><trkpt lat="42.094731305043304" lon="13.365589697297981"><ele>731.0</ele><time>2026-05-02T14:04:03Z</time></trkpt><trkpt lat="42.09482383423297" lon="13.365454933991602"><ele>731.0</ele><time>2026-05-02T14:04:04Z</time></trkpt><trkpt lat="42.09490795830091" lon="13.365334795440203"><ele>731.0</ele><time>2026-05-02T14:04:05Z</time></trkpt><trkpt lat="42.094984383834074" lon="13.365223410622875"><ele>730.5999999999999</ele><time>2026-05-02T14:04:06Z</time></trkpt><trkpt lat="42.095057824018745" lon="13.365113356675074"><ele>730.2</ele><time>2026-05-02T14:04:07Z</time></trkpt><trkpt lat="42.09512904145638" lon="13.365001508553513"><ele>729.8</ele><time>2026-05-02T14:04:08Z</time></trkpt><trkpt lat="42.09519997565694" lon="13.364894407627798"><ele>729.4000000000001</ele><time>2026-05-02T14:04:09Z</time></trkpt><trkpt lat="42.09527358550492" lon="13.364790219216376"><ele>729.0</ele><time>2026-05-02T14:04:10Z</time></trkpt><trkpt lat="42.095339978295364" lon="13.364688142653073"><ele>728.8000000000001</ele><time>2026-05-02T14:04:11Z</time></trkpt><trkpt lat="42.095411286453135" lon="13.364598708146154"><ele>728.6</ele><time>2026-05-02T14:04:12Z</time></trkpt><trkpt lat="42.095489085758715" lon="13.364514623532392"><ele>728.4</ele><time>2026-05-02T14:04:13Z</time></trkpt><trkpt lat="42.09556906570302" lon="13.364419474286422"><ele>728.2</ele><time>2026-05-02T14:04:14Z</time></trkpt><trkpt lat="42.09565004175004" lon="13.364324822430946"><ele>728.0</ele><time>2026-05-02T14:04:15Z</time></trkpt><trkpt lat="42.09572805546002" lon="13.36422509190535"><ele>727.25</ele><time>2026-05-02T14:04:16Z</time></trkpt><trkpt lat="42.09580797933762" lon="13.36412565163023"><ele>726.5</ele><time>2026-05-02T14:04:17Z</time></trkpt><trkpt lat="42.09588778466062" lon="13.364012596531786"><ele>725.75</ele><time>2026-05-02T14:04:18Z</time></trkpt><trkpt lat="42.09596740679622" lon="13.363893864123868"><ele>725.0</ele><time>2026-05-02T14:04:19Z</time></trkpt><trkpt lat="42.096052540206536" lon="13.36377354934105"><ele>724.25</ele><time>2026-05-02T14:04:20Z</time></trkpt><trkpt lat="42.09613984868429" lon="13.363645635226568"><ele>723.5</ele><time>2026-05-02T14:04:21Z</time></trkpt><trkpt lat="42.096228693349836" lon="13.363512201055574"><ele>722.75</ele><time>2026-05-02T14:04:22Z</time></trkpt><trkpt lat="42.09632253640838" lon="13.363378133466123"><ele>722.0</ele><time>2026-05-02T14:04:23Z</time></trkpt><trkpt lat="42.09641250586974" lon="13.363237762479676"><ele>722.0</ele><time>2026-05-02T14:04:24Z</time></trkpt><trkpt lat="42.0965023284535" lon="13.363094740358703"><ele>722.0</ele><time>2026-05-02T14:04:25Z</time></trkpt><trkpt lat="42.09659018870336" lon="13.362948152588004"><ele>722.0</ele><time>2026-05-02T14:04:26Z</time></trkpt><trkpt lat="42.09668206261533" lon="13.362804502720907"><ele>722.0</ele><time>2026-05-02T14:04:27Z</time></trkpt><trkpt lat="42.09677267661704" lon="13.362659752552384"><ele>720.5</ele><time>2026-05-02T14:04:28Z</time></trkpt><trkpt lat="42.09686512717134" lon="13.362514356569406"><ele>719.0</ele><time>2026-05-02T14:04:29Z</time></trkpt><trkpt lat="42.09696190351948" lon="13.362370474586308"><ele>717.5</ele><time>2026-05-02T14:04:30Z</time></trkpt><trkpt lat="42.097058172388884" lon="13.362222963823648"><ele>716.0</ele><time>2026-05-02T14:04:31Z</time></trkpt><trkpt lat="42.09715945881559" lon="13.362073567770592"><ele>715.6666666666666</ele><time>2026-05-02T14:04:32Z</time></trkpt><trkpt lat="42.09726225139136" lon="13.361919659889491"><ele>715.3333333333334</ele><time>2026-05-02T14:04:33Z</time></trkpt><trkpt lat="42.097367585298386" lon="13.361759133014349"><ele>715.0</ele><time>2026-05-02T14:04:34Z</time></trkpt><trkpt lat="42.09747140697303" lon="13.36159717383805"><ele>714.6666666666667</ele><time>2026-05-02T14:04:35Z</time></trkpt><trkpt lat="42.09756934846433" lon="13.361436718402944"><ele>714.3333333333334</ele><time>2026-05-02T14:04:36Z</time></trkpt><trkpt lat="42.09767356896475" lon="13.361278818893268"><ele>714.0</ele><time>2026-05-02T14:04:37Z</time></trkpt><trkpt lat="42.09776716389781" lon="13.361110369805385"><ele>714.0</ele><time>2026-05-02T14:04:38Z</time></trkpt><trkpt lat="42.097879172670076" lon="13.360953629757615"><ele>714.0</ele><time>2026-05-02T14:04:39Z</time></trkpt><trkpt lat="42.09798476272817" lon="13.360800000384744"><ele>714.0</ele><time>2026-05-02T14:04:40Z</time></trkpt><trkpt lat="42.09809375600369" lon="13.36064817839367"><ele>712.3333333333334</ele><time>2026-05-02T14:04:41Z</time></trkpt><trkpt lat="42.09820936953376" lon="13.360494055171827"><ele>710.6666666666667</ele><time>2026-05-02T14:04:42Z</time></trkpt><trkpt lat="42.09833010246823" lon="13.360335371865206"><ele>709.0</ele><time>2026-05-02T14:04:43Z</time></trkpt><trkpt lat="42.098444702706814" lon="13.360190570141567"><ele>709.0</ele><time>2026-05-02T14:04:44Z</time></trkpt><trkpt lat="42.09856838917045" lon="13.360044474243173"><ele>709.0</ele><time>2026-05-02T14:04:45Z</time></trkpt><trkpt lat="42.09871058296831" lon="13.359894135995164"><ele>709.0</ele><time>2026-05-02T14:04:46Z</time></trkpt><trkpt lat="42.09885340994934" lon="13.359740402537605"><ele>708.6666666666667</ele><time>2026-05-02T14:04:47Z</time></trkpt><trkpt lat="42.09898613907008" lon="13.35958976590952"><ele>708.3333333333334</ele><time>2026-05-02T14:04:48Z</time></trkpt><trkpt lat="42.099112506088964" lon="13.359415469690537"><ele>708.0</ele><time>2026-05-02T14:04:49Z</time></trkpt><trkpt lat="42.099246325228314" lon="13.359249784341086"><ele>708.0</ele><time>2026-05-02T14:04:50Z</time></trkpt><trkpt lat="42.09938217907608" lon="13.359107380324478"><ele>708.0</ele><time>2026-05-02T14:04:51Z</time></trkpt><trkpt lat="42.099499619658054" lon="13.358955188174898"><ele>708.0</ele><time>2026-05-02T14:04:52Z</time></trkpt><trkpt lat="42.09961518869464" lon="13.358798691857409"><ele>708.0</ele><time>2026-05-02T14:04:53Z</time></trkpt><trkpt lat="42.09971569243345" lon="13.358659665929844"><ele>708.0</ele><time>2026-05-02T14:04:54Z</time></trkpt><trkpt lat="42.0998108985208" lon="13.358504329368365"><ele>708.0</ele><time>2026-05-02T14:04:55Z</time></trkpt><trkpt lat="42.099930809694065" lon="13.358366301891726"><ele>708.3333333333334</ele><time>2026-05-02T14:04:56Z</time></trkpt><trkpt lat="42.100045113226884" lon="13.358234945556434"><ele>708.6666666666667</ele><time>2026-05-02T14:04:57Z</time></trkpt><trkpt lat="42.10017497992208" lon="13.358082006596456"><ele>709.0</ele><time>2026-05-02T14:04:58Z</time></trkpt><trkpt lat="42.10032249030657" lon="13.357933426100969"><ele>709.0</ele><time>2026-05-02T14:04:59Z</time></trkpt><trkpt lat="42.100477886570424" lon="13.357822335889173"><ele>709.0</ele><time>2026-05-02T14:05:00Z</time></trkpt><trkpt lat="42.10062754894906" lon="13.357673267344536"><ele>709.0</ele><time>2026-05-02T14:05:01Z</time></trkpt><trkpt lat="42.10076485872078" lon="13.357516827941089"><ele>709.25</ele><time>2026-05-02T14:05:02Z</time></trkpt><trkpt lat="42.100884677098875" lon="13.357363652924686"><ele>709.5</ele><time>2026-05-02T14:05:03Z</time></trkpt><trkpt lat="42.10099950141063" lon="13.357261431900517"><ele>709.75</ele><time>2026-05-02T14:05:04Z</time></trkpt><trkpt lat="42.101115659697285" lon="13.35716901362809"><ele>710.0</ele><time>2026-05-02T14:05:05Z</time></trkpt><trkpt lat="42.101222977254366" lon="13.357084507411376"><ele>710.0</ele><time>2026-05-02T14:05:06Z</time></trkpt><trkpt lat="42.10129804427135" lon="13.357027825570356"><ele>710.0</ele><time>2026-05-02T14:05:07Z</time></trkpt><trkpt lat="42.10138743423114" lon="13.35696033023802"><ele>710.0</ele><time>2026-05-02T14:05:08Z</time></trkpt><trkpt lat="42.10147901044417" lon="13.35688131935207"><ele>710.0</ele><time>2026-05-02T14:05:09Z</time></trkpt><trkpt lat="42.1015762835588" lon="13.35678356464471"><ele>710.0</ele><time>2026-05-02T14:05:10Z</time></trkpt><trkpt lat="42.10170185891854" lon="13.356642309136898"><ele>711.0</ele><time>2026-05-02T14:05:10.999Z</time></trkpt><trkpt lat="42.10184018256364" lon="13.356483022841203"><ele>712.0</ele><time>2026-05-02T14:05:11.999Z</time></trkpt><trkpt lat="42.10199954976673" lon="13.356299904846448"><ele>713.0</ele><time>2026-05-02T14:05:12.999Z</time></trkpt><trkpt lat="42.102145209970914" lon="13.356112500904274"><ele>713.0</ele><time>2026-05-02T14:05:13.999Z</time></trkpt><trkpt lat="42.10230032853288" lon="13.355890161870251"><ele>713.0</ele><time>2026-05-02T14:05:14.999Z</time></trkpt><trkpt lat="42.10247047834829" lon="13.355649782869213"><ele>713.0</ele><time>2026-05-02T14:05:15.999Z</time></trkpt><trkpt lat="42.10265431370298" lon="13.355414485000871"><ele>713.0</ele><time>2026-05-02T14:05:16.999Z</time></trkpt><trkpt lat="42.102846819396" lon="13.355179318132942"><ele>713.0</ele><time>2026-05-02T14:05:17.999Z</time></trkpt><trkpt lat="42.10302731426195" lon="13.354954747076645"><ele>713.0</ele><time>2026-05-02T14:05:18.999Z</time></trkpt><trkpt lat="42.10319731439287" lon="13.354738650096445"><ele>716.3333333333333</ele><time>2026-05-02T14:05:19.999Z</time></trkpt><trkpt lat="42.103351252386794" lon="13.354534775763952"><ele>719.6666666666666</ele><time>2026-05-02T14:05:20.999Z</time></trkpt><trkpt lat="42.10348616254254" lon="13.354347873564945"><ele>723.0</ele><time>2026-05-02T14:05:21.999Z</time></trkpt><trkpt lat="42.10360464139372" lon="13.354182110737732"><ele>723.0</ele><time>2026-05-02T14:05:22.999Z</time></trkpt><trkpt lat="42.103725927809556" lon="13.354012240765224"><ele>723.0</ele><time>2026-05-02T14:05:23.999Z</time></trkpt><trkpt lat="42.1038355435814" lon="13.353859858013056"><ele>723.0</ele><time>2026-05-02T14:05:24.999Z</time></trkpt><trkpt lat="42.103955419280204" lon="13.353699038537991"><ele>725.3333333333334</ele><time>2026-05-02T14:05:25.999Z</time></trkpt><trkpt lat="42.10408631267573" lon="13.353536868130991"><ele>727.6666666666667</ele><time>2026-05-02T14:05:26.999Z</time></trkpt><trkpt lat="42.104212727543064" lon="13.353393344975405"><ele>730.0</ele><time>2026-05-02T14:05:27.999Z</time></trkpt><trkpt lat="42.104335830102464" lon="13.353265822433249"><ele>730.0</ele><time>2026-05-02T14:05:28.999Z</time></trkpt><trkpt lat="42.10445571499242" lon="13.353153852014975"><ele>730.0</ele><time>2026-05-02T14:05:29.999Z</time></trkpt><trkpt lat="42.104568092133576" lon="13.353056557158299"><ele>730.0</ele><time>2026-05-02T14:05:30.999Z</time></trkpt><trkpt lat="42.104686872548605" lon="13.352959880712898"><ele>730.0</ele><time>2026-05-02T14:05:31.999Z</time></trkpt><trkpt lat="42.10481230799633" lon="13.352859631187732"><ele>733.3333333333334</ele><time>2026-05-02T14:05:32.999Z</time></trkpt><trkpt lat="42.10495401233094" lon="13.352747998280782"><ele>736.6666666666666</ele><time>2026-05-02T14:05:33.999Z</time></trkpt><trkpt lat="42.10509551553837" lon="13.352639035068838"><ele>740.0</ele><time>2026-05-02T14:05:34.999Z</time></trkpt><trkpt lat="42.10522322454514" lon="13.352541164527128"><ele>740.0</ele><time>2026-05-02T14:05:35.999Z</time></trkpt><trkpt lat="42.10534763246456" lon="13.352470439374219"><ele>740.0</ele><time>2026-05-02T14:05:36.999Z</time></trkpt><trkpt lat="42.10546675774579" lon="13.352352501803665"><ele>740.0</ele><time>2026-05-02T14:05:37.999Z</time></trkpt><trkpt lat="42.10560206489667" lon="13.352243068396326"><ele>740.0</ele><time>2026-05-02T14:05:38.999Z</time></trkpt><trkpt lat="42.10572959831101" lon="13.352139800990981"><ele>741.0</ele><time>2026-05-02T14:05:39.999Z</time></trkpt><trkpt lat="42.10585711483297" lon="13.352034250778255"><ele>742.0</ele><time>2026-05-02T14:05:40.999Z</time></trkpt><trkpt lat="42.105973148482185" lon="13.351938052840726"><ele>743.0</ele><time>2026-05-02T14:05:41.999Z</time></trkpt><trkpt lat="42.10609562842465" lon="13.351834202668297"><ele>744.0</ele><time>2026-05-02T14:05:42.999Z</time></trkpt><trkpt lat="42.106177103791296" lon="13.351764886025688"><ele>744.0</ele><time>2026-05-02T14:05:43.999Z</time></trkpt><trkpt lat="42.10627651851581" lon="13.351692935350965"><ele>744.0</ele><time>2026-05-02T14:05:44.999Z</time></trkpt><trkpt lat="42.106346358169084" lon="13.351638327824874"><ele>744.0</ele><time>2026-05-02T14:05:45.999Z</time></trkpt><trkpt lat="42.10641798172022" lon="13.3515609914642"><ele>744.0</ele><time>2026-05-02T14:05:46.999Z</time></trkpt><trkpt lat="42.10649336564474" lon="13.351520193149018"><ele>744.0</ele><time>2026-05-02T14:05:47.999Z</time></trkpt><trkpt lat="42.10657133628776" lon="13.351485161086869"><ele>744.0</ele><time>2026-05-02T14:05:48.999Z</time></trkpt><trkpt lat="42.106657854813605" lon="13.351446288475929"><ele>744.5</ele><time>2026-05-02T14:05:49.999Z</time></trkpt><trkpt lat="42.106738009709474" lon="13.351406917608525"><ele>745.0</ele><time>2026-05-02T14:05:50.999Z</time></trkpt><trkpt lat="42.10682053927848" lon="13.351358180771156"><ele>745.5</ele><time>2026-05-02T14:05:51.999Z</time></trkpt><trkpt lat="42.10689175327455" lon="13.351311300440145"><ele>746.0</ele><time>2026-05-02T14:05:52.999Z</time></trkpt><trkpt lat="42.10694798459297" lon="13.351250669623216"><ele>746.5</ele><time>2026-05-02T14:05:54.999Z</time></trkpt><trkpt lat="42.10698203748635" lon="13.351133074270562"><ele>747.0</ele><time>2026-05-02T14:05:55.999Z</time></trkpt><trkpt lat="42.10700968662805" lon="13.350994596148858"><ele>747.0</ele><time>2026-05-02T14:05:56.999Z</time></trkpt><trkpt lat="42.107037523795384" lon="13.350786802949845"><ele>747.0</ele><time>2026-05-02T14:05:57.999Z</time></trkpt><trkpt lat="42.10707175430976" lon="13.350593330563278"><ele>747.0</ele><time>2026-05-02T14:05:58.999Z</time></trkpt><trkpt lat="42.10707746974667" lon="13.350438854509418"><ele>747.0</ele><time>2026-05-02T14:05:59.999Z</time></trkpt><trkpt lat="42.107109607147784" lon="13.350316676294861"><ele>747.3333333333334</ele><time>2026-05-02T14:06:00.999Z</time></trkpt><trkpt lat="42.10712803028474" lon="13.350201258340652"><ele>747.6666666666666</ele><time>2026-05-02T14:06:01.999Z</time></trkpt><trkpt lat="42.1071718223096" lon="13.350139691584257"><ele>748.0</ele><time>2026-05-02T14:06:02.999Z</time></trkpt><trkpt lat="42.10722430670228" lon="13.350062926961348"><ele>748.3333333333333</ele><time>2026-05-02T14:06:03.999Z</time></trkpt><trkpt lat="42.107257660191436" lon="13.349978932740013"><ele>748.6666666666666</ele><time>2026-05-02T14:06:04.999Z</time></trkpt><trkpt lat="42.10732835108309" lon="13.349850683328269"><ele>749.0</ele><time>2026-05-02T14:06:05.999Z</time></trkpt><trkpt lat="42.10741605448098" lon="13.349714155871036"><ele>749.4000000000001</ele><time>2026-05-02T14:06:06.999Z</time></trkpt><trkpt lat="42.10750517111412" lon="13.349607787967717"><ele>749.8</ele><time>2026-05-02T14:06:07.999Z</time></trkpt><trkpt lat="42.10757066734783" lon="13.349472455249717"><ele>750.2</ele><time>2026-05-02T14:06:08.999Z</time></trkpt><trkpt lat="42.107642238756554" lon="13.34941820069982"><ele>750.5999999999999</ele><time>2026-05-02T14:06:09.999Z</time></trkpt><trkpt lat="42.107690636216944" lon="13.34936017101684"><ele>751.0</ele><time>2026-05-02T14:06:10.999Z</time></trkpt><trkpt lat="42.107726059048346" lon="13.349264482926255"><ele>751.0</ele><time>2026-05-02T14:06:12.999Z</time></trkpt><trkpt lat="42.107757943522834" lon="13.349162933067195"><ele>751.0</ele><time>2026-05-02T14:06:13.999Z</time></trkpt><trkpt lat="42.107787290250585" lon="13.349012173778119"><ele>751.0</ele><time>2026-05-02T14:06:14.999Z</time></trkpt><trkpt lat="42.1078222473671" lon="13.348851415605058"><ele>751.0</ele><time>2026-05-02T14:06:15.999Z</time></trkpt><trkpt lat="42.10784785216792" lon="13.348659580587073"><ele>751.0</ele><time>2026-05-02T14:06:16.999Z</time></trkpt><trkpt lat="42.10784866145948" lon="13.348497454723441"><ele>751.0</ele><time>2026-05-02T14:06:17.999Z</time></trkpt><trkpt lat="42.10786294102218" lon="13.348336593070332"><ele>751.0</ele><time>2026-05-02T14:06:18.999Z</time></trkpt><trkpt lat="42.10789910090412" lon="13.34818739440524"><ele>751.0</ele><time>2026-05-02T14:06:19.999Z</time></trkpt><trkpt lat="42.10791819590003" lon="13.3480516245278"><ele>751.4</ele><time>2026-05-02T14:06:20.999Z</time></trkpt><trkpt lat="42.107934059620106" lon="13.347917502479069"><ele>751.8</ele><time>2026-05-02T14:06:22.999Z</time></trkpt><trkpt lat="42.10794047850285" lon="13.347773064830696"><ele>752.1999999999999</ele><time>2026-05-02T14:06:24.999Z</time></trkpt><trkpt lat="42.10805287486621" lon="13.347724233718367"><ele>752.5999999999999</ele><time>2026-05-02T14:06:26.999Z</time></trkpt><trkpt lat="42.108121433061115" lon="13.347687891496241"><ele>753.0</ele><time>2026-05-02T14:06:27.999Z</time></trkpt><trkpt lat="42.108198093693225" lon="13.347647357946336"><ele>754.0</ele><time>2026-05-02T14:06:28.999Z</time></trkpt><trkpt lat="42.10828919740909" lon="13.3476184285645"><ele>755.0</ele><time>2026-05-02T14:06:29.999Z</time></trkpt><trkpt lat="42.108374410227945" lon="13.347563462686164"><ele>756.0</ele><time>2026-05-02T14:06:30.999Z</time></trkpt><trkpt lat="42.108463917956044" lon="13.347514072981951"><ele>757.0</ele><time>2026-05-02T14:06:31.999Z</time></trkpt><trkpt lat="42.108554938052094" lon="13.347467852451793"><ele>758.0</ele><time>2026-05-02T14:06:32.999Z</time></trkpt><trkpt lat="42.108685119840295" lon="13.347411539740438"><ele>758.0</ele><time>2026-05-02T14:06:33.999Z</time></trkpt><trkpt lat="42.10882858615219" lon="13.347362054894264"><ele>758.0</ele><time>2026-05-02T14:06:34.999Z</time></trkpt><trkpt lat="42.10898759035974" lon="13.347331366726106"><ele>758.0</ele><time>2026-05-02T14:06:35.999Z</time></trkpt><trkpt lat="42.10914976645057" lon="13.347284689312206"><ele>760.3333333333333</ele><time>2026-05-02T14:06:36.999Z</time></trkpt><trkpt lat="42.10931853767368" lon="13.347228004413513"><ele>762.6666666666666</ele><time>2026-05-02T14:06:37.999Z</time></trkpt><trkpt lat="42.10949723530237" lon="13.347181150964865"><ele>765.0</ele><time>2026-05-02T14:06:38.999Z</time></trkpt><trkpt lat="42.10965742303298" lon="13.347152544748711"><ele>765.0</ele><time>2026-05-02T14:06:39.999Z</time></trkpt><trkpt lat="42.10983476294426" lon="13.347097867432321"><ele>765.0</ele><time>2026-05-02T14:06:40.999Z</time></trkpt><trkpt lat="42.11001535632991" lon="13.34705226171757"><ele>765.0</ele><time>2026-05-02T14:06:41.999Z</time></trkpt><trkpt lat="42.11017391354639" lon="13.347010779410407"><ele>767.0</ele><time>2026-05-02T14:06:42.999Z</time></trkpt><trkpt lat="42.11032642210408" lon="13.346966305384115"><ele>769.0</ele><time>2026-05-02T14:06:43.999Z</time></trkpt><trkpt lat="42.11045221684358" lon="13.346924402467637"><ele>771.0</ele><time>2026-05-02T14:06:44.999Z</time></trkpt><trkpt lat="42.1105777784889" lon="13.3468781979889"><ele>773.0</ele><time>2026-05-02T14:06:45.999Z</time></trkpt><trkpt lat="42.11069575348072" lon="13.346832229663923"><ele>774.6666666666667</ele><time>2026-05-02T14:06:46.999Z</time></trkpt><trkpt lat="42.11083271170173" lon="13.346773930581525"><ele>776.3333333333333</ele><time>2026-05-02T14:06:47.999Z</time></trkpt><trkpt lat="42.110973086514356" lon="13.346710856250507"><ele>778.0</ele><time>2026-05-02T14:06:48.999Z</time></trkpt><trkpt lat="42.111123618712845" lon="13.346643218359052"><ele>778.0</ele><time>2026-05-02T14:06:49.999Z</time></trkpt><trkpt lat="42.11128311335748" lon="13.346573399396787"><ele>778.0</ele><time>2026-05-02T14:06:50.999Z</time></trkpt><trkpt lat="42.111445515224204" lon="13.346499610611435"><ele>778.0</ele><time>2026-05-02T14:06:51.999Z</time></trkpt><trkpt lat="42.11160876659931" lon="13.346420699444872"><ele>780.3333333333333</ele><time>2026-05-02T14:06:52.999Z</time></trkpt><trkpt lat="42.11177696417738" lon="13.346337959002534"><ele>782.6666666666667</ele><time>2026-05-02T14:06:53.999Z</time></trkpt><trkpt lat="42.11193867500004" lon="13.346265407831133"><ele>785.0</ele><time>2026-05-02T14:06:54.999Z</time></trkpt><trkpt lat="42.112106416672596" lon="13.346172440143938"><ele>785.0</ele><time>2026-05-02T14:06:55.999Z</time></trkpt><trkpt lat="42.11224949707656" lon="13.346090135607504"><ele>785.0</ele><time>2026-05-02T14:06:56.999Z</time></trkpt><trkpt lat="42.11239897172092" lon="13.345995622274879"><ele>785.0</ele><time>2026-05-02T14:06:57.999Z</time></trkpt><trkpt lat="42.112563520220306" lon="13.345884219763672"><ele>787.6666666666667</ele><time>2026-05-02T14:06:58.999Z</time></trkpt><trkpt lat="42.11272357175927" lon="13.345770564429168"><ele>790.3333333333333</ele><time>2026-05-02T14:06:59.999Z</time></trkpt><trkpt lat="42.11288616402537" lon="13.345656596144584"><ele>793.0</ele><time>2026-05-02T14:07:00.999Z</time></trkpt><trkpt lat="42.11303839745792" lon="13.34555028114163"><ele>791.3333333333333</ele><time>2026-05-02T14:07:01.999Z</time></trkpt><trkpt lat="42.11319508297595" lon="13.34543899458142"><ele>789.6666666666667</ele><time>2026-05-02T14:07:02.999Z</time></trkpt><trkpt lat="42.11335648011749" lon="13.345322417451925"><ele>788.0</ele><time>2026-05-02T14:07:03.999Z</time></trkpt><trkpt lat="42.11352140369332" lon="13.345202888882376"><ele>791.3333333333334</ele><time>2026-05-02T14:07:04.999Z</time></trkpt><trkpt lat="42.113693505231936" lon="13.345080589217886"><ele>794.6666666666667</ele><time>2026-05-02T14:07:05.999Z</time></trkpt><trkpt lat="42.11385637876705" lon="13.344967298094861"><ele>798.0</ele><time>2026-05-02T14:07:06.999Z</time></trkpt><trkpt lat="42.11401282261622" lon="13.344860559504427"><ele>800.0</ele><time>2026-05-02T14:07:07.999Z</time></trkpt><trkpt lat="42.11417363358218" lon="13.344759997480594"><ele>802.0</ele><time>2026-05-02T14:07:08.999Z</time></trkpt><trkpt lat="42.114344203089516" lon="13.344679846406077"><ele>804.0</ele><time>2026-05-02T14:07:09.999Z</time></trkpt><trkpt lat="42.114506333610336" lon="13.34462459940567"><ele>804.0</ele><time>2026-05-02T14:07:10.999Z</time></trkpt><trkpt lat="42.11467491814873" lon="13.344588691014962"><ele>804.0</ele><time>2026-05-02T14:07:11.999Z</time></trkpt><trkpt lat="42.11481316122907" lon="13.344569794046096"><ele>804.0</ele><time>2026-05-02T14:07:12.998Z</time></trkpt><trkpt lat="42.11496650302038" lon="13.344553527736027"><ele>805.3333333333333</ele><time>2026-05-02T14:07:13.998Z</time></trkpt><trkpt lat="42.115124349915455" lon="13.344537556661301"><ele>806.6666666666666</ele><time>2026-05-02T14:07:14.998Z</time></trkpt><trkpt lat="42.11530661923263" lon="13.344519114511481"><ele>808.0</ele><time>2026-05-02T14:07:15.998Z</time></trkpt><trkpt lat="42.11549786139479" lon="13.344498468514017"><ele>808.0</ele><time>2026-05-02T14:07:16.998Z</time></trkpt><trkpt lat="42.11568722902372" lon="13.344469948902114"><ele>808.0</ele><time>2026-05-02T14:07:17.998Z</time></trkpt><trkpt lat="42.11586411176203" lon="13.344441626526493"><ele>808.0</ele><time>2026-05-02T14:07:18.998Z</time></trkpt><trkpt lat="42.116031965189016" lon="13.34443994998484"><ele>808.5</ele><time>2026-05-02T14:07:19.998Z</time></trkpt><trkpt lat="42.1161809240308" lon="13.344406324225092"><ele>809.0</ele><time>2026-05-02T14:07:20.998Z</time></trkpt><trkpt lat="42.1163247298708" lon="13.344402934323265"><ele>809.5</ele><time>2026-05-02T14:07:21.998Z</time></trkpt><trkpt lat="42.11643495194241" lon="13.344367347712618"><ele>810.0</ele><time>2026-05-02T14:07:22.998Z</time></trkpt><trkpt lat="42.116524806997056" lon="13.34435384673446"><ele>811.8</ele><time>2026-05-02T14:07:23.998Z</time></trkpt><trkpt lat="42.11662400351793" lon="13.344340345663218"><ele>813.6</ele><time>2026-05-02T14:07:24.998Z</time></trkpt><trkpt lat="42.116729653255184" lon="13.344326220636534"><ele>815.4000000000001</ele><time>2026-05-02T14:07:25.998Z</time></trkpt><trkpt lat="42.116842147487645" lon="13.344314044895944"><ele>817.2</ele><time>2026-05-02T14:07:26.998Z</time></trkpt><trkpt lat="42.116963725181854" lon="13.344289653976448"><ele>819.0</ele><time>2026-05-02T14:07:27.998Z</time></trkpt><trkpt lat="42.117107372712454" lon="13.3442969289409"><ele>819.0</ele><time>2026-05-02T14:07:28.998Z</time></trkpt><trkpt lat="42.11725726155712" lon="13.344281628819731"><ele>819.0</ele><time>2026-05-02T14:07:29.998Z</time></trkpt><trkpt lat="42.11741653670393" lon="13.344242541651862"><ele>819.0</ele><time>2026-05-02T14:07:30.998Z</time></trkpt><trkpt lat="42.117578065020766" lon="13.34421791593493"><ele>821.3333333333333</ele><time>2026-05-02T14:07:31.998Z</time></trkpt><trkpt lat="42.117760704405775" lon="13.344194972744273"><ele>823.6666666666666</ele><time>2026-05-02T14:07:32.998Z</time></trkpt><trkpt lat="42.117928554654" lon="13.344181176005604"><ele>826.0</ele><time>2026-05-02T14:07:33.998Z</time></trkpt><trkpt lat="42.118082292131504" lon="13.344183810098063"><ele>827.3333333333333</ele><time>2026-05-02T14:07:34.998Z</time></trkpt><trkpt lat="42.11824960789686" lon="13.344199614392561"><ele>828.6666666666667</ele><time>2026-05-02T14:07:35.998Z</time></trkpt><trkpt lat="42.11841081877837" lon="13.344237790575288"><ele>830.0</ele><time>2026-05-02T14:07:36.998Z</time></trkpt><trkpt lat="42.11859360118764" lon="13.344245840166455"><ele>830.0</ele><time>2026-05-02T14:07:37.998Z</time></trkpt><trkpt lat="42.11876006440806" lon="13.344273802806534"><ele>830.0</ele><time>2026-05-02T14:07:38.998Z</time></trkpt><trkpt lat="42.11893127434928" lon="13.344317502990602"><ele>830.0</ele><time>2026-05-02T14:07:39.998Z</time></trkpt><trkpt lat="42.11910661781781" lon="13.34433564776251"><ele>833.0</ele><time>2026-05-02T14:07:40.998Z</time></trkpt><trkpt lat="42.119287959545716" lon="13.344324143283549"><ele>836.0</ele><time>2026-05-02T14:07:41.998Z</time></trkpt><trkpt lat="42.11946280328182" lon="13.344333355336317"><ele>839.0</ele><time>2026-05-02T14:07:42.998Z</time></trkpt><trkpt lat="42.119637388617406" lon="13.344328700826605"><ele>839.0</ele><time>2026-05-02T14:07:43.998Z</time></trkpt><trkpt lat="42.119813365202354" lon="13.34430258232198"><ele>839.0</ele><time>2026-05-02T14:07:44.998Z</time></trkpt><trkpt lat="42.12000001926917" lon="13.34425458614722"><ele>839.0</ele><time>2026-05-02T14:07:45.998Z</time></trkpt><trkpt lat="42.12020512405099" lon="13.34419229798394"><ele>842.5</ele><time>2026-05-02T14:07:46.998Z</time></trkpt><trkpt lat="42.120436343014525" lon="13.344110975193386"><ele>846.0</ele><time>2026-05-02T14:07:47.998Z</time></trkpt><trkpt lat="42.12065355067486" lon="13.344034463441286"><ele>848.3333333333333</ele><time>2026-05-02T14:07:48.998Z</time></trkpt><trkpt lat="42.12083881575542" lon="13.343961260098894"><ele>850.6666666666666</ele><time>2026-05-02T14:07:49.998Z</time></trkpt><trkpt lat="42.12103279271504" lon="13.343906622061738"><ele>853.0</ele><time>2026-05-02T14:07:50.998Z</time></trkpt><trkpt lat="42.12119636535622" lon="13.343842567893526"><ele>853.5</ele><time>2026-05-02T14:07:51.998Z</time></trkpt><trkpt lat="42.121320610402286" lon="13.34377777928579"><ele>854.0</ele><time>2026-05-02T14:07:52.998Z</time></trkpt><trkpt lat="42.12141360202312" lon="13.34370532122059"><ele>854.5</ele><time>2026-05-02T14:07:53.998Z</time></trkpt><trkpt lat="42.12149912812577" lon="13.343620421419098"><ele>855.0</ele><time>2026-05-02T14:07:54.998Z</time></trkpt><trkpt lat="42.12158096145074" lon="13.343520017226561"><ele>857.5</ele><time>2026-05-02T14:07:55.998Z</time></trkpt><trkpt lat="42.12164230727581" lon="13.343412500382188"><ele>860.0</ele><time>2026-05-02T14:07:56.998Z</time></trkpt><trkpt lat="42.121685477167055" lon="13.343258838768914"><ele>862.5</ele><time>2026-05-02T14:07:57.998Z</time></trkpt><trkpt lat="42.121693915336145" lon="13.343091718132948"><ele>865.0</ele><time>2026-05-02T14:07:58.998Z</time></trkpt><trkpt lat="42.121695724273444" lon="13.34292656332261"><ele>866.5</ele><time>2026-05-02T14:07:59.998Z</time></trkpt><trkpt lat="42.12167054992024" lon="13.342731069346206"><ele>868.0</ele><time>2026-05-02T14:08:00.998Z</time></trkpt><trkpt lat="42.12165518448292" lon="13.342540862166246"><ele>869.5</ele><time>2026-05-02T14:08:01.998Z</time></trkpt><trkpt lat="42.12164374483107" lon="13.342371927505278"><ele>871.0</ele><time>2026-05-02T14:08:02.998Z</time></trkpt><trkpt lat="42.12162300281661" lon="13.342186116351362"><ele>874.0</ele><time>2026-05-02T14:08:03.998Z</time></trkpt><trkpt lat="42.1215854647546" lon="13.342036099293953"><ele>877.0</ele><time>2026-05-02T14:08:04.998Z</time></trkpt><trkpt lat="42.12153919741629" lon="13.341834901202713"><ele>880.0</ele><time>2026-05-02T14:08:05.998Z</time></trkpt><trkpt lat="42.12149756315298" lon="13.341603168701713"><ele>875.0</ele><time>2026-05-02T14:08:06.998Z</time></trkpt><trkpt lat="42.12148697305493" lon="13.341388743234269"><ele>870.0</ele><time>2026-05-02T14:08:07.998Z</time></trkpt><trkpt lat="42.121485156978714" lon="13.34118634707745"><ele>865.0</ele><time>2026-05-02T14:08:08.998Z</time></trkpt><trkpt lat="42.12148247024942" lon="13.34095356961558"><ele>865.0</ele><time>2026-05-02T14:08:09.998Z</time></trkpt><trkpt lat="42.12147578861052" lon="13.340686223862935"><ele>865.0</ele><time>2026-05-02T14:08:10.998Z</time></trkpt><trkpt lat="42.121465318082116" lon="13.340424185888258"><ele>865.0</ele><time>2026-05-02T14:08:11.998Z</time></trkpt><trkpt lat="42.121446863555605" lon="13.340188760545738"><ele>867.5</ele><time>2026-05-02T14:08:12.998Z</time></trkpt><trkpt lat="42.121427656194214" lon="13.339973289711274"><ele>870.0</ele><time>2026-05-02T14:08:13.998Z</time></trkpt><trkpt lat="42.121401578897235" lon="13.33979060171556"><ele>872.5</ele><time>2026-05-02T14:08:14.998Z</time></trkpt><trkpt lat="42.12135580041762" lon="13.339629725106782"><ele>875.0</ele><time>2026-05-02T14:08:15.998Z</time></trkpt><trkpt lat="42.12130290384542" lon="13.33947344650899"><ele>880.0</ele><time>2026-05-02T14:08:16.998Z</time></trkpt><trkpt lat="42.12123023512612" lon="13.339269935746914"><ele>885.0</ele><time>2026-05-02T14:08:17.998Z</time></trkpt><trkpt lat="42.12114919251541" lon="13.339072730420213"><ele>890.0</ele><time>2026-05-02T14:08:18.998Z</time></trkpt><trkpt lat="42.1210743719041" lon="13.338909981195185"><ele>892.8</ele><time>2026-05-02T14:08:19.998Z</time></trkpt><trkpt lat="42.121006555302664" lon="13.338788280997537"><ele>895.6</ele><time>2026-05-02T14:08:20.998Z</time></trkpt><trkpt lat="42.12095231053792" lon="13.33866285199405"><ele>898.4000000000001</ele><time>2026-05-02T14:08:21.998Z</time></trkpt><trkpt lat="42.12091081262321" lon="13.338566783497066"><ele>901.2</ele><time>2026-05-02T14:08:22.997Z</time></trkpt><trkpt lat="42.12083983252191" lon="13.33849981526724"><ele>904.0</ele><time>2026-05-02T14:08:24.997Z</time></trkpt><trkpt lat="42.12076781947368" lon="13.338523178426806"><ele>902.75</ele><time>2026-05-02T14:08:25.997Z</time></trkpt><trkpt lat="42.12068944208209" lon="13.33859650360805"><ele>901.5</ele><time>2026-05-02T14:08:26.997Z</time></trkpt><trkpt lat="42.120623129915316" lon="13.338716034986259"><ele>900.25</ele><time>2026-05-02T14:08:27.997Z</time></trkpt><trkpt lat="42.12055030110207" lon="13.33885586133452"><ele>899.0</ele><time>2026-05-02T14:08:28.997Z</time></trkpt><trkpt lat="42.120443226120564" lon="13.33897067797495"><ele>899.0</ele><time>2026-05-02T14:08:29.997Z</time></trkpt><trkpt lat="42.12035244257907" lon="13.339097559298267"><ele>899.0000000000001</ele><time>2026-05-02T14:08:30.997Z</time></trkpt><trkpt lat="42.12027316759499" lon="13.339189175904027"><ele>899.0000000000001</ele><time>2026-05-02T14:08:31.997Z</time></trkpt><trkpt lat="42.12018874192974" lon="13.339243106346622"><ele>899.0</ele><time>2026-05-02T14:08:32.997Z</time></trkpt><trkpt lat="42.1200968247328" lon="13.33927269399942"><ele>899.0</ele><time>2026-05-02T14:08:33.997Z</time></trkpt><trkpt lat="42.11998878098235" lon="13.339260118143445"><ele>900.0</ele><time>2026-05-02T14:08:34.997Z</time></trkpt><trkpt lat="42.11986874419385" lon="13.339229677795936"><ele>901.0</ele><time>2026-05-02T14:08:35.997Z</time></trkpt><trkpt lat="42.11972498257124" lon="13.339199317574193"><ele>902.0</ele><time>2026-05-02T14:08:36.997Z</time></trkpt><trkpt lat="42.11957570370638" lon="13.339161983541153"><ele>903.0</ele><time>2026-05-02T14:08:37.997Z</time></trkpt><trkpt lat="42.11943201166985" lon="13.33915089268515"><ele>903.0</ele><time>2026-05-02T14:08:38.997Z</time></trkpt><trkpt lat="42.119278099055904" lon="13.339128634379517"><ele>903.0</ele><time>2026-05-02T14:08:39.997Z</time></trkpt><trkpt lat="42.11912635776672" lon="13.339115674496968"><ele>903.0</ele><time>2026-05-02T14:08:40.997Z</time></trkpt><trkpt lat="42.1189856535478" lon="13.33910930360784"><ele>903.0</ele><time>2026-05-02T14:08:41.997Z</time></trkpt><trkpt lat="42.11883930245833" lon="13.339110770903714"><ele>903.5</ele><time>2026-05-02T14:08:42.997Z</time></trkpt><trkpt lat="42.118731239740384" lon="13.339120040264458"><ele>904.0</ele><time>2026-05-02T14:08:43.997Z</time></trkpt><trkpt lat="42.11863559932416" lon="13.339130845092578"><ele>904.5</ele><time>2026-05-02T14:08:44.997Z</time></trkpt><trkpt lat="42.118557194542795" lon="13.339135299411218"><ele>905.0</ele><time>2026-05-02T14:08:45.997Z</time></trkpt><trkpt lat="42.11849454009654" lon="13.339143812783458"><ele>905.5</ele><time>2026-05-02T14:08:46.997Z</time></trkpt><trkpt lat="42.118426906117726" lon="13.339188741189155"><ele>906.0</ele><time>2026-05-02T14:08:48.997Z</time></trkpt><trkpt lat="42.11832392991588" lon="13.339127213054004"><ele>906.0</ele><time>2026-05-02T14:08:50.997Z</time></trkpt><trkpt lat="42.118238438976476" lon="13.339116868318659"><ele>906.0</ele><time>2026-05-02T14:08:52.997Z</time></trkpt><trkpt lat="42.118131170884126" lon="13.339063099663546"><ele>906.0</ele><time>2026-05-02T14:08:56.997Z</time></trkpt><trkpt lat="42.11807023057837" lon="13.33903429602837"><ele>906.0</ele><time>2026-05-02T14:09:01.997Z</time></trkpt><trkpt lat="42.1180644772292" lon="13.338911960565397"><ele>906.0</ele><time>2026-05-02T14:09:10.997Z</time></trkpt><trkpt lat="42.11808907919233" lon="13.338817905770059"><ele>906.0</ele><time>2026-05-02T14:09:11.997Z</time></trkpt><trkpt lat="42.11809716844256" lon="13.338727401296344"><ele>903.8333333333334</ele><time>2026-05-02T14:09:12.997Z</time></trkpt><trkpt lat="42.11809616830042" lon="13.338606751764509"><ele>901.6666666666667</ele><time>2026-05-02T14:09:13.997Z</time></trkpt><trkpt lat="42.11810058252772" lon="13.338483105643151"><ele>899.5</ele><time>2026-05-02T14:09:14.997Z</time></trkpt><trkpt lat="42.118113325750414" lon="13.338384189982035"><ele>897.3333333333334</ele><time>2026-05-02T14:09:15.997Z</time></trkpt><trkpt lat="42.11813122708414" lon="13.33829954822594"><ele>895.1666666666667</ele><time>2026-05-02T14:09:16.997Z</time></trkpt><trkpt lat="42.11812507321579" lon="13.338161602137365"><ele>893.0</ele><time>2026-05-02T14:09:18.996Z</time></trkpt><trkpt lat="42.11819822672841" lon="13.338056641481751"><ele>890.8333333333334</ele><time>2026-05-02T14:09:20.996Z</time></trkpt><trkpt lat="42.11823288097116" lon="13.337970099685801"><ele>888.6666666666667</ele><time>2026-05-02T14:09:21.996Z</time></trkpt><trkpt lat="42.118269392627575" lon="13.33785010323434"><ele>886.5</ele><time>2026-05-02T14:09:22.996Z</time></trkpt><trkpt lat="42.11833679688592" lon="13.33777884883769"><ele>884.3333333333333</ele><time>2026-05-02T14:09:23.996Z</time></trkpt><trkpt lat="42.118375027316254" lon="13.33765257741648"><ele>882.1666666666666</ele><time>2026-05-02T14:09:24.996Z</time></trkpt><trkpt lat="42.11844909479456" lon="13.337593399617386"><ele>880.0</ele><time>2026-05-02T14:09:25.996Z</time></trkpt><trkpt lat="42.11852125991928" lon="13.337510380423224"><ele>883.0</ele><time>2026-05-02T14:09:26.996Z</time></trkpt><trkpt lat="42.11860445444025" lon="13.337411254052533"><ele>886.0</ele><time>2026-05-02T14:09:27.996Z</time></trkpt><trkpt lat="42.118678423380075" lon="13.337320331811725"><ele>889.0</ele><time>2026-05-02T14:09:28.996Z</time></trkpt><trkpt lat="42.118774319161176" lon="13.337207745274997"><ele>892.0</ele><time>2026-05-02T14:09:29.996Z</time></trkpt><trkpt lat="42.11889409763552" lon="13.337088060497912"><ele>892.0</ele><time>2026-05-02T14:09:30.996Z</time></trkpt><trkpt lat="42.11900306294598" lon="13.336980032969825"><ele>892.0</ele><time>2026-05-02T14:09:31.996Z</time></trkpt><trkpt lat="42.119101311507784" lon="13.336866073127513"><ele>892.0</ele><time>2026-05-02T14:09:32.996Z</time></trkpt><trkpt lat="42.11919640889541" lon="13.336742386709798"><ele>892.0</ele><time>2026-05-02T14:09:33.996Z</time></trkpt><trkpt lat="42.119273391168704" lon="13.336642261320634"><ele>894.6</ele><time>2026-05-02T14:09:34.996Z</time></trkpt><trkpt lat="42.11933690880267" lon="13.336559648438396"><ele>897.2</ele><time>2026-05-02T14:09:35.996Z</time></trkpt><trkpt lat="42.11941746672356" lon="13.336462040882695"><ele>899.8</ele><time>2026-05-02T14:09:36.996Z</time></trkpt><trkpt lat="42.119510414866205" lon="13.336375158106696"><ele>902.4</ele><time>2026-05-02T14:09:37.996Z</time></trkpt><trkpt lat="42.119592836095116" lon="13.336303181901881"><ele>905.0</ele><time>2026-05-02T14:09:38.996Z</time></trkpt><trkpt lat="42.11968692005641" lon="13.336237736709503"><ele>905.0</ele><time>2026-05-02T14:09:39.996Z</time></trkpt><trkpt lat="42.11978241203396" lon="13.336180571954051"><ele>905.0</ele><time>2026-05-02T14:09:40.996Z</time></trkpt><trkpt lat="42.1198954784185" lon="13.336107808727098"><ele>905.0</ele><time>2026-05-02T14:09:41.996Z</time></trkpt><trkpt lat="42.12000819539285" lon="13.336005330369996"><ele>905.0</ele><time>2026-05-02T14:09:42.996Z</time></trkpt><trkpt lat="42.12009768226342" lon="13.335909447257697"><ele>912.25</ele><time>2026-05-02T14:09:43.996Z</time></trkpt><trkpt lat="42.12018076277448" lon="13.335818884402155"><ele>919.5</ele><time>2026-05-02T14:09:44.996Z</time></trkpt><trkpt lat="42.12026098089366" lon="13.335756608300292"><ele>926.75</ele><time>2026-05-02T14:09:45.996Z</time></trkpt><trkpt lat="42.1203769528752" lon="13.3356209514389"><ele>934.0</ele><time>2026-05-02T14:09:46.996Z</time></trkpt><trkpt lat="42.120475886901595" lon="13.335560842479378"><ele>931.0</ele><time>2026-05-02T14:09:47.996Z</time></trkpt><trkpt lat="42.12056775934675" lon="13.33551893110336"><ele>928.0</ele><time>2026-05-02T14:09:48.996Z</time></trkpt><trkpt lat="42.12065475067391" lon="13.335399205075289"><ele>925.0</ele><time>2026-05-02T14:09:50.996Z</time></trkpt><trkpt lat="42.12072124456763" lon="13.33525574889194"><ele>922.0</ele><time>2026-05-02T14:09:51.996Z</time></trkpt><trkpt lat="42.12079659187818" lon="13.335089857543165"><ele>929.0</ele><time>2026-05-02T14:09:52.996Z</time></trkpt><trkpt lat="42.120876986105394" lon="13.334912854436695"><ele>936.0</ele><time>2026-05-02T14:09:53.996Z</time></trkpt><trkpt lat="42.120961451705966" lon="13.334728148542194"><ele>943.0</ele><time>2026-05-02T14:09:54.996Z</time></trkpt><trkpt lat="42.12103192494053" lon="13.33458184658957"><ele>950.0</ele><time>2026-05-02T14:09:55.996Z</time></trkpt><trkpt lat="42.12109326166438" lon="13.33444843189159"><ele>950.0</ele><time>2026-05-02T14:09:56.996Z</time></trkpt><trkpt lat="42.12115070507749" lon="13.334306910881514"><ele>950.0</ele><time>2026-05-02T14:09:57.996Z</time></trkpt><trkpt lat="42.121176019908795" lon="13.334209530670977"><ele>950.0</ele><time>2026-05-02T14:09:58.996Z</time></trkpt><trkpt lat="42.121196112996024" lon="13.334046428746266"><ele>950.0</ele><time>2026-05-02T14:10:00.996Z</time></trkpt><trkpt lat="42.12118944034347" lon="13.333917050842434"><ele>950.0</ele><time>2026-05-02T14:10:02.996Z</time></trkpt><trkpt lat="42.12117276359569" lon="13.333826790218296"><ele>952.2</ele><time>2026-05-02T14:10:03.996Z</time></trkpt><trkpt lat="42.12111658383798" lon="13.333711541423458"><ele>954.4</ele><time>2026-05-02T14:10:04.996Z</time></trkpt><trkpt lat="42.121035893342935" lon="13.333646383262506"><ele>956.5999999999999</ele><time>2026-05-02T14:10:05.996Z</time></trkpt><trkpt lat="42.12098560993459" lon="13.333584840301322"><ele>958.8</ele><time>2026-05-02T14:10:06.996Z</time></trkpt><trkpt lat="42.12087762599565" lon="13.33350410402848"><ele>961.0</ele><time>2026-05-02T14:10:07.996Z</time></trkpt><trkpt lat="42.12075284556599" lon="13.333491401539337"><ele>958.5999999999999</ele><time>2026-05-02T14:10:08.996Z</time></trkpt><trkpt lat="42.12062538147217" lon="13.333527768814957"><ele>956.1999999999999</ele><time>2026-05-02T14:10:09.996Z</time></trkpt><trkpt lat="42.12052038946026" lon="13.33357288195399"><ele>953.8000000000001</ele><time>2026-05-02T14:10:10.996Z</time></trkpt><trkpt lat="42.12043284809483" lon="13.333617219826674"><ele>951.4000000000001</ele><time>2026-05-02T14:10:11.996Z</time></trkpt><trkpt lat="42.12036404827086" lon="13.333625158319775"><ele>949.0</ele><time>2026-05-02T14:10:12.996Z</time></trkpt><trkpt lat="42.12029463767772" lon="13.333548485280637"><ele>949.0</ele><time>2026-05-02T14:10:14.996Z</time></trkpt><trkpt lat="42.12028381352007" lon="13.333460309228247"><ele>949.0000000000001</ele><time>2026-05-02T14:10:15.996Z</time></trkpt><trkpt lat="42.12028900642286" lon="13.33332201783164"><ele>949.0000000000001</ele><time>2026-05-02T14:10:16.996Z</time></trkpt><trkpt lat="42.12030015997217" lon="13.333147041268736"><ele>949.0</ele><time>2026-05-02T14:10:17.996Z</time></trkpt><trkpt lat="42.120321476451466" lon="13.332961079254707"><ele>949.0</ele><time>2026-05-02T14:10:18.996Z</time></trkpt><trkpt lat="42.120332577341735" lon="13.332769043388497"><ele>953.0</ele><time>2026-05-02T14:10:19.996Z</time></trkpt><trkpt lat="42.120352742652464" lon="13.332584965194698"><ele>957.0</ele><time>2026-05-02T14:10:20.996Z</time></trkpt><trkpt lat="42.1203656285301" lon="13.332416793396"><ele>961.0</ele><time>2026-05-02T14:10:21.996Z</time></trkpt><trkpt lat="42.120318956665045" lon="13.33227362682634"><ele>965.0</ele><time>2026-05-02T14:10:22.996Z</time></trkpt><trkpt lat="42.120288928947716" lon="13.332151621716628"><ele>966.8</ele><time>2026-05-02T14:10:23.996Z</time></trkpt><trkpt lat="42.12024950399382" lon="13.332032909770362"><ele>968.6</ele><time>2026-05-02T14:10:24.996Z</time></trkpt><trkpt lat="42.1202060081153" lon="13.331905525562666"><ele>970.4000000000001</ele><time>2026-05-02T14:10:25.996Z</time></trkpt><trkpt lat="42.12016738038975" lon="13.33178028900044"><ele>972.2</ele><time>2026-05-02T14:10:26.996Z</time></trkpt><trkpt lat="42.12014436342105" lon="13.331656972604"><ele>974.0</ele><time>2026-05-02T14:10:27.996Z</time></trkpt><trkpt lat="42.12015111006373" lon="13.331560094589229"><ele>974.0000000000001</ele><time>2026-05-02T14:10:28.996Z</time></trkpt><trkpt lat="42.12018604465392" lon="13.331483683119894"><ele>974.0</ele><time>2026-05-02T14:10:29.996Z</time></trkpt><trkpt lat="42.12029121127931" lon="13.331445264782804"><ele>974.0</ele><time>2026-05-02T14:10:31.996Z</time></trkpt><trkpt lat="42.120360671904564" lon="13.33141981656366"><ele>974.0</ele><time>2026-05-02T14:10:32.996Z</time></trkpt><trkpt lat="42.12044425998817" lon="13.331365985935422"><ele>974.0000000000001</ele><time>2026-05-02T14:10:33.996Z</time></trkpt><trkpt lat="42.12054067332395" lon="13.331335497580502"><ele>974.0</ele><time>2026-05-02T14:10:34.996Z</time></trkpt><trkpt lat="42.12065175648811" lon="13.331297240473752"><ele>976.0</ele><time>2026-05-02T14:10:35.996Z</time></trkpt><trkpt lat="42.12077486027865" lon="13.331244358367174"><ele>978.0</ele><time>2026-05-02T14:10:36.996Z</time></trkpt><trkpt lat="42.1209034244061" lon="13.331181042075915"><ele>980.0</ele><time>2026-05-02T14:10:37.996Z</time></trkpt><trkpt lat="42.12103318304014" lon="13.331113802538376"><ele>982.0</ele><time>2026-05-02T14:10:38.999Z</time></trkpt><trkpt lat="42.12115926856005" lon="13.331052499572689"><ele>982.0</ele><time>2026-05-02T14:10:39.999Z</time></trkpt><trkpt lat="42.121281081141184" lon="13.33100116936"><ele>982.0</ele><time>2026-05-02T14:10:40.999Z</time></trkpt><trkpt lat="42.121396021005665" lon="13.330952281747189"><ele>982.0</ele><time>2026-05-02T14:10:41.999Z</time></trkpt><trkpt lat="42.121501520670854" lon="13.330907415020036"><ele>982.0</ele><time>2026-05-02T14:10:42.999Z</time></trkpt><trkpt lat="42.12159628266737" lon="13.330875214941175"><ele>983.6</ele><time>2026-05-02T14:10:43.999Z</time></trkpt><trkpt lat="42.121685110898945" lon="13.330848594850837"><ele>985.2</ele><time>2026-05-02T14:10:44.999Z</time></trkpt><trkpt lat="42.12178322958444" lon="13.330827978430147"><ele>986.8</ele><time>2026-05-02T14:10:45.999Z</time></trkpt><trkpt lat="42.12189203078586" lon="13.330820623449233"><ele>988.4</ele><time>2026-05-02T14:10:46.999Z</time></trkpt><trkpt lat="42.12200231006454" lon="13.330813517794647"><ele>990.0</ele><time>2026-05-02T14:10:47.999Z</time></trkpt><trkpt lat="42.12211018091606" lon="13.330806014407678"><ele>990.0</ele><time>2026-05-02T14:10:48.999Z</time></trkpt><trkpt lat="42.122214999879205" lon="13.330790425156929"><ele>990.0</ele><time>2026-05-02T14:10:49.999Z</time></trkpt><trkpt lat="42.12231537657609" lon="13.330755227955333"><ele>990.0</ele><time>2026-05-02T14:10:50.999Z</time></trkpt><trkpt lat="42.12241314009891" lon="13.330707174473385"><ele>990.0</ele><time>2026-05-02T14:10:51.999Z</time></trkpt><trkpt lat="42.12250632834837" lon="13.330645467508699"><ele>990.0</ele><time>2026-05-02T14:10:52.999Z</time></trkpt><trkpt lat="42.12259494079928" lon="13.33058286506507"><ele>992.5</ele><time>2026-05-02T14:10:53.999Z</time></trkpt><trkpt lat="42.12266869330104" lon="13.330504129059092"><ele>995.0</ele><time>2026-05-02T14:10:55Z</time></trkpt><trkpt lat="42.122759020412246" lon="13.330413134759329"><ele>997.5</ele><time>2026-05-02T14:10:56Z</time></trkpt><trkpt lat="42.1228599210311" lon="13.33031466248309"><ele>1000.0</ele><time>2026-05-02T14:10:57Z</time></trkpt><trkpt lat="42.12296595765494" lon="13.330221008289023"><ele>1000.0</ele><time>2026-05-02T14:10:58Z</time></trkpt><trkpt lat="42.12307015878481" lon="13.330140400117218"><ele>1000.0</ele><time>2026-05-02T14:10:59Z</time></trkpt><trkpt lat="42.12317183174382" lon="13.330081797951818"><ele>1000.0</ele><time>2026-05-02T14:11:00Z</time></trkpt><trkpt lat="42.12327215681206" lon="13.330021809944379"><ele>1000.0</ele><time>2026-05-02T14:11:01Z</time></trkpt><trkpt lat="42.12338007865988" lon="13.329976340706429"><ele>1001.6</ele><time>2026-05-02T14:11:02Z</time></trkpt><trkpt lat="42.12348832489435" lon="13.329945066428122"><ele>1003.2</ele><time>2026-05-02T14:11:03Z</time></trkpt><trkpt lat="42.12359254900587" lon="13.329912198857771"><ele>1004.8</ele><time>2026-05-02T14:11:04Z</time></trkpt><trkpt lat="42.123699226393605" lon="13.329869396077193"><ele>1006.4</ele><time>2026-05-02T14:11:05Z</time></trkpt><trkpt lat="42.12381112569191" lon="13.329809839022555"><ele>1008.0</ele><time>2026-05-02T14:11:06Z</time></trkpt><trkpt lat="42.12392567293349" lon="13.329742277793484"><ele>1006.75</ele><time>2026-05-02T14:11:07Z</time></trkpt><trkpt lat="42.12403934766056" lon="13.32967152121071"><ele>1005.5</ele><time>2026-05-02T14:11:08Z</time></trkpt><trkpt lat="42.12414102470336" lon="13.329586825320746"><ele>1004.25</ele><time>2026-05-02T14:11:09Z</time></trkpt><trkpt lat="42.124217211124304" lon="13.32947169436535"><ele>1003.0</ele><time>2026-05-02T14:11:10Z</time></trkpt><trkpt lat="42.12429582621779" lon="13.329359940312495"><ele>1005.3333333333333</ele><time>2026-05-02T14:11:11Z</time></trkpt><trkpt lat="42.12436902362202" lon="13.329257369246301"><ele>1007.6666666666666</ele><time>2026-05-02T14:11:12Z</time></trkpt><trkpt lat="42.124436325688116" lon="13.329175780612214"><ele>1010.0</ele><time>2026-05-02T14:11:13Z</time></trkpt><trkpt lat="42.124509956925564" lon="13.329132487619276"><ele>1012.3333333333333</ele><time>2026-05-02T14:11:14Z</time></trkpt><trkpt lat="42.12458093110885" lon="13.329087966730299"><ele>1014.6666666666666</ele><time>2026-05-02T14:11:15Z</time></trkpt><trkpt lat="42.12465293367123" lon="13.329045869149725"><ele>1017.0</ele><time>2026-05-02T14:11:16Z</time></trkpt><trkpt lat="42.124728452883836" lon="13.329044182222738"><ele>1017.0</ele><time>2026-05-02T14:11:17Z</time></trkpt><trkpt lat="42.124868051784276" lon="13.329065790226416"><ele>1017.0</ele><time>2026-05-02T14:11:19Z</time></trkpt><trkpt lat="42.12494478808649" lon="13.329085526163844"><ele>1017.0</ele><time>2026-05-02T14:11:20Z</time></trkpt><trkpt lat="42.12500964639921" lon="13.32910331209913"><ele>1017.0</ele><time>2026-05-02T14:11:21Z</time></trkpt><trkpt lat="42.12507376131412" lon="13.329120894138601"><ele>1017.0</ele><time>2026-05-02T14:11:22Z</time></trkpt><trkpt lat="42.12519412569824" lon="13.329161724918643"><ele>1019.3333333333334</ele><time>2026-05-02T14:11:23.999Z</time></trkpt><trkpt lat="42.12531656617528" lon="13.329218958131271"><ele>1021.6666666666667</ele><time>2026-05-02T14:11:25.999Z</time></trkpt><trkpt lat="42.12537642859953" lon="13.329256984412408"><ele>1024.0</ele><time>2026-05-02T14:11:26.999Z</time></trkpt><trkpt lat="42.125441866970625" lon="13.32930057346293"><ele>1026.3333333333335</ele><time>2026-05-02T14:11:27.999Z</time></trkpt><trkpt lat="42.12551173137253" lon="13.329348089940787"><ele>1028.6666666666667</ele><time>2026-05-02T14:11:28.999Z</time></trkpt><trkpt lat="42.125601933190985" lon="13.329342864091199"><ele>1031.0</ele><time>2026-05-02T14:11:29.999Z</time></trkpt><trkpt lat="42.125665742681655" lon="13.329411460584472"><ele>1034.0</ele><time>2026-05-02T14:11:30.999Z</time></trkpt><trkpt lat="42.12573683497507" lon="13.329458960686383"><ele>1037.0</ele><time>2026-05-02T14:11:31.999Z</time></trkpt><trkpt lat="42.12581275139103" lon="13.329506870193638"><ele>1040.0</ele><time>2026-05-02T14:11:32.999Z</time></trkpt><trkpt lat="42.12587283339506" lon="13.329548524729995"><ele>1043.0</ele><time>2026-05-02T14:11:33.999Z</time></trkpt><trkpt lat="42.12596777319886" lon="13.329644361170716"><ele>1046.0</ele><time>2026-05-02T14:11:35.999Z</time></trkpt><trkpt lat="42.12606673458047" lon="13.329699523476407"><ele>1047.3333333333335</ele><time>2026-05-02T14:11:37.999Z</time></trkpt><trkpt lat="42.126134986277684" lon="13.329727252156575"><ele>1048.6666666666667</ele><time>2026-05-02T14:11:38.999Z</time></trkpt><trkpt lat="42.12620203803519" lon="13.329748802070785"><ele>1050.0</ele><time>2026-05-02T14:11:39.999Z</time></trkpt><trkpt lat="42.126268198842176" lon="13.329764449421658"><ele>1051.3333333333333</ele><time>2026-05-02T14:11:40.999Z</time></trkpt><trkpt lat="42.126333699720576" lon="13.329781299927692"><ele>1052.6666666666665</ele><time>2026-05-02T14:11:41.999Z</time></trkpt><trkpt lat="42.12645818586444" lon="13.329787453511551"><ele>1054.0</ele><time>2026-05-02T14:11:43.999Z</time></trkpt><trkpt lat="42.12652797212576" lon="13.32978465973503"><ele>1055.6666666666665</ele><time>2026-05-02T14:11:44.999Z</time></trkpt><trkpt lat="42.12661114678943" lon="13.3297822893394"><ele>1057.3333333333333</ele><time>2026-05-02T14:11:45.999Z</time></trkpt><trkpt lat="42.12668655900542" lon="13.329769925890746"><ele>1059.0</ele><time>2026-05-02T14:11:46.999Z</time></trkpt><trkpt lat="42.1267604664781" lon="13.329771712113294"><ele>1060.6666666666667</ele><time>2026-05-02T14:11:47.999Z</time></trkpt><trkpt lat="42.12682653948634" lon="13.329772716934578"><ele>1062.3333333333335</ele><time>2026-05-02T14:11:48.999Z</time></trkpt><trkpt lat="42.12689146814209" lon="13.329782960750537"><ele>1064.0</ele><time>2026-05-02T14:11:49.999Z</time></trkpt><trkpt lat="42.12699314575638" lon="13.32987049877943"><ele>1064.0</ele><time>2026-05-02T14:11:51.999Z</time></trkpt><trkpt lat="42.12706519762026" lon="13.329830713410292"><ele>1064.0</ele><time>2026-05-02T14:11:52.999Z</time></trkpt><trkpt lat="42.127140516031524" lon="13.329863906122752"><ele>1064.0</ele><time>2026-05-02T14:11:53.999Z</time></trkpt><trkpt lat="42.12718283231594" lon="13.329954508111856"><ele>1064.0</ele><time>2026-05-02T14:11:54.999Z</time></trkpt><trkpt lat="42.127318184555634" lon="13.330027929826812"><ele>1064.0</ele><time>2026-05-02T14:11:56.999Z</time></trkpt><trkpt lat="42.12741503295352" lon="13.32999949405601"><ele>1065.3333333333335</ele><time>2026-05-02T14:11:57.999Z</time></trkpt><trkpt lat="42.12748554027684" lon="13.330035297489406"><ele>1066.6666666666667</ele><time>2026-05-02T14:11:58.999Z</time></trkpt><trkpt lat="42.12755253422755" lon="13.330086781085756"><ele>1068.0</ele><time>2026-05-02T14:11:59.999Z</time></trkpt><trkpt lat="42.12762608979952" lon="13.330137106005072"><ele>1069.3333333333333</ele><time>2026-05-02T14:12:00.999Z</time></trkpt><trkpt lat="42.12769192372782" lon="13.33018408247488"><ele>1070.6666666666665</ele><time>2026-05-02T14:12:01.999Z</time></trkpt><trkpt lat="42.127791714203866" lon="13.330229793017685"><ele>1072.0</ele><time>2026-05-02T14:12:03.999Z</time></trkpt><trkpt lat="42.12789930292342" lon="13.330240324155943"><ele>1072.0</ele><time>2026-05-02T14:12:05.999Z</time></trkpt><trkpt lat="42.127970221316964" lon="13.330234446974778"><ele>1072.0</ele><time>2026-05-02T14:12:06.999Z</time></trkpt><trkpt lat="42.128047995110705" lon="13.330207331445221"><ele>1072.0</ele><time>2026-05-02T14:12:07.999Z</time></trkpt><trkpt lat="42.12812623736878" lon="13.33017688752719"><ele>1072.0</ele><time>2026-05-02T14:12:08.999Z</time></trkpt><trkpt lat="42.12820751444693" lon="13.330139207648967"><ele>1072.0</ele><time>2026-05-02T14:12:09.999Z</time></trkpt><trkpt lat="42.12830177709063" lon="13.330088676838944"><ele>1072.0</ele><time>2026-05-02T14:12:10.999Z</time></trkpt><trkpt lat="42.12840744823744" lon="13.330037952555111"><ele>1071.0</ele><time>2026-05-02T14:12:11.999Z</time></trkpt><trkpt lat="42.128519223412404" lon="13.329982059755126"><ele>1070.0</ele><time>2026-05-02T14:12:12.999Z</time></trkpt><trkpt lat="42.12862616030605" lon="13.329928103650385"><ele>1069.0</ele><time>2026-05-02T14:12:13.999Z</time></trkpt><trkpt lat="42.12872442570046" lon="13.329868258328618"><ele>1068.0</ele><time>2026-05-02T14:12:14.999Z</time></trkpt><trkpt lat="42.128824669161034" lon="13.329793768968495"><ele>1069.0</ele><time>2026-05-02T14:12:15.999Z</time></trkpt><trkpt lat="42.128922936789415" lon="13.329711715055852"><ele>1070.0</ele><time>2026-05-02T14:12:16.999Z</time></trkpt><trkpt lat="42.12902693722204" lon="13.329634391579669"><ele>1071.0</ele><time>2026-05-02T14:12:17.999Z</time></trkpt><trkpt lat="42.12913392003699" lon="13.329554559690749"><ele>1072.0</ele><time>2026-05-02T14:12:18.999Z</time></trkpt><trkpt lat="42.12923832471568" lon="13.329466774286404"><ele>1070.0</ele><time>2026-05-02T14:12:19.999Z</time></trkpt><trkpt lat="42.12934337380171" lon="13.329377631585485"><ele>1068.0</ele><time>2026-05-02T14:12:20.999Z</time></trkpt><trkpt lat="42.12944100353926" lon="13.32927930737784"><ele>1066.0</ele><time>2026-05-02T14:12:21.999Z</time></trkpt><trkpt lat="42.129537145955716" lon="13.329173204544675"><ele>1064.0</ele><time>2026-05-02T14:12:22.999Z</time></trkpt><trkpt lat="42.12962993716406" lon="13.329052350380024"><ele>1064.0</ele><time>2026-05-02T14:12:23.999Z</time></trkpt><trkpt lat="42.12972155355302" lon="13.328935127960666"><ele>1064.0</ele><time>2026-05-02T14:12:24.999Z</time></trkpt><trkpt lat="42.12980949009611" lon="13.32881200199495"><ele>1064.0</ele><time>2026-05-02T14:12:25.999Z</time></trkpt><trkpt lat="42.12987950132987" lon="13.32868797780856"><ele>1064.0</ele><time>2026-05-02T14:12:26.999Z</time></trkpt><trkpt lat="42.12994546207871" lon="13.328574346455781"><ele>1062.0</ele><time>2026-05-02T14:12:27.999Z</time></trkpt></trkseg></trk></gpx>